<?xml version="1.0" encoding="UTF-8" standalone="no" ?>
<gpx xmlns="http://www.topografix.com/GPX/1/1" xmlns:xsi="http://www.w3.org/2001/XMLSchema-instance" xsi:schemaLocation="http://www.topografix.com/GPX/1/1 http://www.topografix.com/GPX/1/1/gpx.xsd" version="1.1" creator="VisuGPX - https://www.visugpx.com">
  <metadata>
    <name>Vélo dans l'après-midi</name>
  </metadata>
  <trk>
    <name><![CDATA[Vélo dans l'après-midi_1]]></name>
    <trkseg>
      <trkpt lat="44.48321" lon="1.84368">
        <ele>149.7</ele>
        <time>2022-04-10T12:05:27Z</time>
      </trkpt>
      <trkpt lat="44.48321" lon="1.84368">
        <ele>149.7</ele>
        <time>2022-04-10T12:05:28Z</time>
      </trkpt>
      <trkpt lat="44.48321" lon="1.84368">
        <ele>149.7</ele>
        <time>2022-04-10T12:05:29Z</time>
      </trkpt>
      <trkpt lat="44.48321" lon="1.84368">
        <ele>149.7</ele>
        <time>2022-04-10T12:05:30Z</time>
      </trkpt>
      <trkpt lat="44.48322" lon="1.84367">
        <ele>149.7</ele>
        <time>2022-04-10T12:05:31Z</time>
      </trkpt>
      <trkpt lat="44.48322" lon="1.84367">
        <ele>149.7</ele>
        <time>2022-04-10T12:05:32Z</time>
      </trkpt>
      <trkpt lat="44.48322" lon="1.84367">
        <ele>149.7</ele>
        <time>2022-04-10T12:05:33Z</time>
      </trkpt>
      <trkpt lat="44.48323" lon="1.84366">
        <ele>149.7</ele>
        <time>2022-04-10T12:05:34Z</time>
      </trkpt>
      <trkpt lat="44.48323" lon="1.84366">
        <ele>149.7</ele>
        <time>2022-04-10T12:05:35Z</time>
      </trkpt>
      <trkpt lat="44.48323" lon="1.84366">
        <ele>149.7</ele>
        <time>2022-04-10T12:05:36Z</time>
      </trkpt>
      <trkpt lat="44.48323" lon="1.84365">
        <ele>149.7</ele>
        <time>2022-04-10T12:05:37Z</time>
      </trkpt>
      <trkpt lat="44.48332" lon="1.8436">
        <ele>149.8</ele>
        <time>2022-04-10T12:06:28Z</time>
      </trkpt>
      <trkpt lat="44.48332" lon="1.84358">
        <ele>149.8</ele>
        <time>2022-04-10T12:06:29Z</time>
      </trkpt>
      <trkpt lat="44.48331" lon="1.84356">
        <ele>149.8</ele>
        <time>2022-04-10T12:06:30Z</time>
      </trkpt>
      <trkpt lat="44.4833" lon="1.84355">
        <ele>149.8</ele>
        <time>2022-04-10T12:06:31Z</time>
      </trkpt>
      <trkpt lat="44.4833" lon="1.84354">
        <ele>149.8</ele>
        <time>2022-04-10T12:06:32Z</time>
      </trkpt>
      <trkpt lat="44.48329" lon="1.84353">
        <ele>149.8</ele>
        <time>2022-04-10T12:06:33Z</time>
      </trkpt>
      <trkpt lat="44.48328" lon="1.84352">
        <ele>149.8</ele>
        <time>2022-04-10T12:06:34Z</time>
      </trkpt>
      <trkpt lat="44.48326" lon="1.84351">
        <ele>149.8</ele>
        <time>2022-04-10T12:06:35Z</time>
      </trkpt>
      <trkpt lat="44.48325" lon="1.8435">
        <ele>149.8</ele>
        <time>2022-04-10T12:06:36Z</time>
      </trkpt>
      <trkpt lat="44.48324" lon="1.84351">
        <ele>149.8</ele>
        <time>2022-04-10T12:06:37Z</time>
      </trkpt>
      <trkpt lat="44.48323" lon="1.84353">
        <ele>149.8</ele>
        <time>2022-04-10T12:06:38Z</time>
      </trkpt>
      <trkpt lat="44.4832" lon="1.84353">
        <ele>149.8</ele>
        <time>2022-04-10T12:06:39Z</time>
      </trkpt>
      <trkpt lat="44.48319" lon="1.84353">
        <ele>149.8</ele>
        <time>2022-04-10T12:06:40Z</time>
      </trkpt>
      <trkpt lat="44.48316" lon="1.84349">
        <ele>149.8</ele>
        <time>2022-04-10T12:06:41Z</time>
      </trkpt>
      <trkpt lat="44.48315" lon="1.84347">
        <ele>149.8</ele>
        <time>2022-04-10T12:06:42Z</time>
      </trkpt>
      <trkpt lat="44.48313" lon="1.84343">
        <ele>149.8</ele>
        <time>2022-04-10T12:06:43Z</time>
      </trkpt>
      <trkpt lat="44.48312" lon="1.8434">
        <ele>149.8</ele>
        <time>2022-04-10T12:06:44Z</time>
      </trkpt>
      <trkpt lat="44.4831" lon="1.84336">
        <ele>149.8</ele>
        <time>2022-04-10T12:06:45Z</time>
      </trkpt>
      <trkpt lat="44.48309" lon="1.84332">
        <ele>149.8</ele>
        <time>2022-04-10T12:06:46Z</time>
      </trkpt>
      <trkpt lat="44.48308" lon="1.84331">
        <ele>149.8</ele>
        <time>2022-04-10T12:06:47Z</time>
      </trkpt>
      <trkpt lat="44.48306" lon="1.84326">
        <ele>149.8</ele>
        <time>2022-04-10T12:06:48Z</time>
      </trkpt>
      <trkpt lat="44.48305" lon="1.84324">
        <ele>149.9</ele>
        <time>2022-04-10T12:06:49Z</time>
      </trkpt>
      <trkpt lat="44.48305" lon="1.8432">
        <ele>149.9</ele>
        <time>2022-04-10T12:06:50Z</time>
      </trkpt>
      <trkpt lat="44.48304" lon="1.84319">
        <ele>149.9</ele>
        <time>2022-04-10T12:06:51Z</time>
      </trkpt>
      <trkpt lat="44.48304" lon="1.84314">
        <ele>149.9</ele>
        <time>2022-04-10T12:06:52Z</time>
      </trkpt>
      <trkpt lat="44.48303" lon="1.84312">
        <ele>149.9</ele>
        <time>2022-04-10T12:06:53Z</time>
      </trkpt>
      <trkpt lat="44.48303" lon="1.84308">
        <ele>150</ele>
        <time>2022-04-10T12:06:54Z</time>
      </trkpt>
      <trkpt lat="44.48303" lon="1.84306">
        <ele>150</ele>
        <time>2022-04-10T12:06:55Z</time>
      </trkpt>
      <trkpt lat="44.48302" lon="1.84301">
        <ele>150</ele>
        <time>2022-04-10T12:06:56Z</time>
      </trkpt>
      <trkpt lat="44.48302" lon="1.843">
        <ele>150</ele>
        <time>2022-04-10T12:06:57Z</time>
      </trkpt>
      <trkpt lat="44.48301" lon="1.84295">
        <ele>150</ele>
        <time>2022-04-10T12:06:58Z</time>
      </trkpt>
      <trkpt lat="44.483" lon="1.84294">
        <ele>149.9</ele>
        <time>2022-04-10T12:06:59Z</time>
      </trkpt>
      <trkpt lat="44.48298" lon="1.84288">
        <ele>149.9</ele>
        <time>2022-04-10T12:07:01Z</time>
      </trkpt>
      <trkpt lat="44.48296" lon="1.84284">
        <ele>149.9</ele>
        <time>2022-04-10T12:07:02Z</time>
      </trkpt>
      <trkpt lat="44.48295" lon="1.84282">
        <ele>149.9</ele>
        <time>2022-04-10T12:07:03Z</time>
      </trkpt>
      <trkpt lat="44.48295" lon="1.84278">
        <ele>149.9</ele>
        <time>2022-04-10T12:07:04Z</time>
      </trkpt>
      <trkpt lat="44.48293" lon="1.84272">
        <ele>149.9</ele>
        <time>2022-04-10T12:07:06Z</time>
      </trkpt>
      <trkpt lat="44.48292" lon="1.84269">
        <ele>149.8</ele>
        <time>2022-04-10T12:07:07Z</time>
      </trkpt>
      <trkpt lat="44.48289" lon="1.84263">
        <ele>149.8</ele>
        <time>2022-04-10T12:07:08Z</time>
      </trkpt>
      <trkpt lat="44.48287" lon="1.84259">
        <ele>149.8</ele>
        <time>2022-04-10T12:07:09Z</time>
      </trkpt>
      <trkpt lat="44.48286" lon="1.84255">
        <ele>149.8</ele>
        <time>2022-04-10T12:07:10Z</time>
      </trkpt>
      <trkpt lat="44.48284" lon="1.84249">
        <ele>149.8</ele>
        <time>2022-04-10T12:07:12Z</time>
      </trkpt>
      <trkpt lat="44.48283" lon="1.84242">
        <ele>149.8</ele>
        <time>2022-04-10T12:07:13Z</time>
      </trkpt>
      <trkpt lat="44.48283" lon="1.84237">
        <ele>149.8</ele>
        <time>2022-04-10T12:07:14Z</time>
      </trkpt>
      <trkpt lat="44.48281" lon="1.84233">
        <ele>149.8</ele>
        <time>2022-04-10T12:07:15Z</time>
      </trkpt>
      <trkpt lat="44.48279" lon="1.84229">
        <ele>149.8</ele>
        <time>2022-04-10T12:07:16Z</time>
      </trkpt>
      <trkpt lat="44.48277" lon="1.84225">
        <ele>149.8</ele>
        <time>2022-04-10T12:07:17Z</time>
      </trkpt>
      <trkpt lat="44.48274" lon="1.84218">
        <ele>149.8</ele>
        <time>2022-04-10T12:07:19Z</time>
      </trkpt>
      <trkpt lat="44.48272" lon="1.84211">
        <ele>149.8</ele>
        <time>2022-04-10T12:07:20Z</time>
      </trkpt>
      <trkpt lat="44.4827" lon="1.84206">
        <ele>149.9</ele>
        <time>2022-04-10T12:07:21Z</time>
      </trkpt>
      <trkpt lat="44.48268" lon="1.84201">
        <ele>149.9</ele>
        <time>2022-04-10T12:07:22Z</time>
      </trkpt>
      <trkpt lat="44.48267" lon="1.84196">
        <ele>149.9</ele>
        <time>2022-04-10T12:07:23Z</time>
      </trkpt>
      <trkpt lat="44.48265" lon="1.84194">
        <ele>150</ele>
        <time>2022-04-10T12:07:24Z</time>
      </trkpt>
      <trkpt lat="44.48261" lon="1.8419">
        <ele>150</ele>
        <time>2022-04-10T12:07:25Z</time>
      </trkpt>
      <trkpt lat="44.48258" lon="1.84183">
        <ele>150.1</ele>
        <time>2022-04-10T12:07:27Z</time>
      </trkpt>
      <trkpt lat="44.48256" lon="1.84177">
        <ele>150.1</ele>
        <time>2022-04-10T12:07:28Z</time>
      </trkpt>
      <trkpt lat="44.48253" lon="1.84172">
        <ele>150.1</ele>
        <time>2022-04-10T12:07:29Z</time>
      </trkpt>
      <trkpt lat="44.4825" lon="1.84165">
        <ele>150.1</ele>
        <time>2022-04-10T12:07:30Z</time>
      </trkpt>
      <trkpt lat="44.48246" lon="1.84158">
        <ele>150.1</ele>
        <time>2022-04-10T12:07:32Z</time>
      </trkpt>
      <trkpt lat="44.48241" lon="1.84151">
        <ele>150.1</ele>
        <time>2022-04-10T12:07:33Z</time>
      </trkpt>
      <trkpt lat="44.48236" lon="1.84144">
        <ele>150.1</ele>
        <time>2022-04-10T12:07:34Z</time>
      </trkpt>
      <trkpt lat="44.48232" lon="1.84139">
        <ele>150.1</ele>
        <time>2022-04-10T12:07:35Z</time>
      </trkpt>
      <trkpt lat="44.48228" lon="1.84133">
        <ele>150.1</ele>
        <time>2022-04-10T12:07:36Z</time>
      </trkpt>
      <trkpt lat="44.48224" lon="1.84128">
        <ele>150.1</ele>
        <time>2022-04-10T12:07:37Z</time>
      </trkpt>
      <trkpt lat="44.4822" lon="1.84123">
        <ele>150.1</ele>
        <time>2022-04-10T12:07:38Z</time>
      </trkpt>
      <trkpt lat="44.48217" lon="1.84117">
        <ele>150</ele>
        <time>2022-04-10T12:07:39Z</time>
      </trkpt>
      <trkpt lat="44.48213" lon="1.84111">
        <ele>150</ele>
        <time>2022-04-10T12:07:40Z</time>
      </trkpt>
      <trkpt lat="44.48209" lon="1.84106">
        <ele>150</ele>
        <time>2022-04-10T12:07:41Z</time>
      </trkpt>
      <trkpt lat="44.48206" lon="1.84101">
        <ele>150</ele>
        <time>2022-04-10T12:07:42Z</time>
      </trkpt>
      <trkpt lat="44.48202" lon="1.84095">
        <ele>150.1</ele>
        <time>2022-04-10T12:07:43Z</time>
      </trkpt>
      <trkpt lat="44.48198" lon="1.84089">
        <ele>150.1</ele>
        <time>2022-04-10T12:07:44Z</time>
      </trkpt>
      <trkpt lat="44.48195" lon="1.84083">
        <ele>150.1</ele>
        <time>2022-04-10T12:07:45Z</time>
      </trkpt>
      <trkpt lat="44.48191" lon="1.84078">
        <ele>150.1</ele>
        <time>2022-04-10T12:07:46Z</time>
      </trkpt>
      <trkpt lat="44.48187" lon="1.84072">
        <ele>150.1</ele>
        <time>2022-04-10T12:07:47Z</time>
      </trkpt>
      <trkpt lat="44.48184" lon="1.84067">
        <ele>150.2</ele>
        <time>2022-04-10T12:07:48Z</time>
      </trkpt>
      <trkpt lat="44.4818" lon="1.84061">
        <ele>150.2</ele>
        <time>2022-04-10T12:07:49Z</time>
      </trkpt>
      <trkpt lat="44.48177" lon="1.84056">
        <ele>150.2</ele>
        <time>2022-04-10T12:07:50Z</time>
      </trkpt>
      <trkpt lat="44.48173" lon="1.84051">
        <ele>150.3</ele>
        <time>2022-04-10T12:07:51Z</time>
      </trkpt>
      <trkpt lat="44.4817" lon="1.84045">
        <ele>150.3</ele>
        <time>2022-04-10T12:07:52Z</time>
      </trkpt>
      <trkpt lat="44.48166" lon="1.8404">
        <ele>150.3</ele>
        <time>2022-04-10T12:07:53Z</time>
      </trkpt>
      <trkpt lat="44.48163" lon="1.84036">
        <ele>150.4</ele>
        <time>2022-04-10T12:07:54Z</time>
      </trkpt>
      <trkpt lat="44.4816" lon="1.84032">
        <ele>150.4</ele>
        <time>2022-04-10T12:07:55Z</time>
      </trkpt>
      <trkpt lat="44.48156" lon="1.84027">
        <ele>150.4</ele>
        <time>2022-04-10T12:07:56Z</time>
      </trkpt>
      <trkpt lat="44.48153" lon="1.84022">
        <ele>150.4</ele>
        <time>2022-04-10T12:07:57Z</time>
      </trkpt>
      <trkpt lat="44.48149" lon="1.84018">
        <ele>150.5</ele>
        <time>2022-04-10T12:07:58Z</time>
      </trkpt>
      <trkpt lat="44.48145" lon="1.84013">
        <ele>150.5</ele>
        <time>2022-04-10T12:07:59Z</time>
      </trkpt>
      <trkpt lat="44.48142" lon="1.84008">
        <ele>150.6</ele>
        <time>2022-04-10T12:08:00Z</time>
      </trkpt>
      <trkpt lat="44.48138" lon="1.84004">
        <ele>150.6</ele>
        <time>2022-04-10T12:08:01Z</time>
      </trkpt>
      <trkpt lat="44.48134" lon="1.83999">
        <ele>150.6</ele>
        <time>2022-04-10T12:08:02Z</time>
      </trkpt>
      <trkpt lat="44.4813" lon="1.83994">
        <ele>150.7</ele>
        <time>2022-04-10T12:08:03Z</time>
      </trkpt>
      <trkpt lat="44.48126" lon="1.83989">
        <ele>150.6</ele>
        <time>2022-04-10T12:08:04Z</time>
      </trkpt>
      <trkpt lat="44.48122" lon="1.83984">
        <ele>150.6</ele>
        <time>2022-04-10T12:08:05Z</time>
      </trkpt>
      <trkpt lat="44.48117" lon="1.83979">
        <ele>150.6</ele>
        <time>2022-04-10T12:08:06Z</time>
      </trkpt>
      <trkpt lat="44.48113" lon="1.83975">
        <ele>150.5</ele>
        <time>2022-04-10T12:08:07Z</time>
      </trkpt>
      <trkpt lat="44.48108" lon="1.8397">
        <ele>150.5</ele>
        <time>2022-04-10T12:08:08Z</time>
      </trkpt>
      <trkpt lat="44.48103" lon="1.83965">
        <ele>150.4</ele>
        <time>2022-04-10T12:08:09Z</time>
      </trkpt>
      <trkpt lat="44.48098" lon="1.8396">
        <ele>150.4</ele>
        <time>2022-04-10T12:08:10Z</time>
      </trkpt>
      <trkpt lat="44.48093" lon="1.83955">
        <ele>150.4</ele>
        <time>2022-04-10T12:08:11Z</time>
      </trkpt>
      <trkpt lat="44.48088" lon="1.83949">
        <ele>150.3</ele>
        <time>2022-04-10T12:08:12Z</time>
      </trkpt>
      <trkpt lat="44.48084" lon="1.83944">
        <ele>150.3</ele>
        <time>2022-04-10T12:08:13Z</time>
      </trkpt>
      <trkpt lat="44.48079" lon="1.83938">
        <ele>150.3</ele>
        <time>2022-04-10T12:08:14Z</time>
      </trkpt>
      <trkpt lat="44.48075" lon="1.83933">
        <ele>150.3</ele>
        <time>2022-04-10T12:08:15Z</time>
      </trkpt>
      <trkpt lat="44.4807" lon="1.83928">
        <ele>150.3</ele>
        <time>2022-04-10T12:08:16Z</time>
      </trkpt>
      <trkpt lat="44.48066" lon="1.83923">
        <ele>150.3</ele>
        <time>2022-04-10T12:08:17Z</time>
      </trkpt>
      <trkpt lat="44.48061" lon="1.83918">
        <ele>150.3</ele>
        <time>2022-04-10T12:08:18Z</time>
      </trkpt>
      <trkpt lat="44.48056" lon="1.83914">
        <ele>150.2</ele>
        <time>2022-04-10T12:08:19Z</time>
      </trkpt>
      <trkpt lat="44.48052" lon="1.83909">
        <ele>150.2</ele>
        <time>2022-04-10T12:08:20Z</time>
      </trkpt>
      <trkpt lat="44.48047" lon="1.83904">
        <ele>150.2</ele>
        <time>2022-04-10T12:08:21Z</time>
      </trkpt>
      <trkpt lat="44.48042" lon="1.83899">
        <ele>150.2</ele>
        <time>2022-04-10T12:08:22Z</time>
      </trkpt>
      <trkpt lat="44.48037" lon="1.83895">
        <ele>150.2</ele>
        <time>2022-04-10T12:08:23Z</time>
      </trkpt>
      <trkpt lat="44.48033" lon="1.8389">
        <ele>150.2</ele>
        <time>2022-04-10T12:08:24Z</time>
      </trkpt>
      <trkpt lat="44.48027" lon="1.83885">
        <ele>150.3</ele>
        <time>2022-04-10T12:08:25Z</time>
      </trkpt>
      <trkpt lat="44.48022" lon="1.8388">
        <ele>150.3</ele>
        <time>2022-04-10T12:08:26Z</time>
      </trkpt>
      <trkpt lat="44.48017" lon="1.83876">
        <ele>150.3</ele>
        <time>2022-04-10T12:08:27Z</time>
      </trkpt>
      <trkpt lat="44.48012" lon="1.8387">
        <ele>150.3</ele>
        <time>2022-04-10T12:08:28Z</time>
      </trkpt>
      <trkpt lat="44.48007" lon="1.83866">
        <ele>150.3</ele>
        <time>2022-04-10T12:08:29Z</time>
      </trkpt>
      <trkpt lat="44.48002" lon="1.8386">
        <ele>150.3</ele>
        <time>2022-04-10T12:08:30Z</time>
      </trkpt>
      <trkpt lat="44.47997" lon="1.83855">
        <ele>150.3</ele>
        <time>2022-04-10T12:08:31Z</time>
      </trkpt>
      <trkpt lat="44.47992" lon="1.8385">
        <ele>150.3</ele>
        <time>2022-04-10T12:08:32Z</time>
      </trkpt>
      <trkpt lat="44.47988" lon="1.83845">
        <ele>150.3</ele>
        <time>2022-04-10T12:08:33Z</time>
      </trkpt>
      <trkpt lat="44.47984" lon="1.8384">
        <ele>150.4</ele>
        <time>2022-04-10T12:08:34Z</time>
      </trkpt>
      <trkpt lat="44.47979" lon="1.83835">
        <ele>150.4</ele>
        <time>2022-04-10T12:08:35Z</time>
      </trkpt>
      <trkpt lat="44.47975" lon="1.83831">
        <ele>150.5</ele>
        <time>2022-04-10T12:08:36Z</time>
      </trkpt>
      <trkpt lat="44.47971" lon="1.83825">
        <ele>150.5</ele>
        <time>2022-04-10T12:08:37Z</time>
      </trkpt>
      <trkpt lat="44.47966" lon="1.8382">
        <ele>150.6</ele>
        <time>2022-04-10T12:08:38Z</time>
      </trkpt>
      <trkpt lat="44.47961" lon="1.83815">
        <ele>150.6</ele>
        <time>2022-04-10T12:08:39Z</time>
      </trkpt>
      <trkpt lat="44.47957" lon="1.8381">
        <ele>150.7</ele>
        <time>2022-04-10T12:08:40Z</time>
      </trkpt>
      <trkpt lat="44.47953" lon="1.83804">
        <ele>150.7</ele>
        <time>2022-04-10T12:08:41Z</time>
      </trkpt>
      <trkpt lat="44.47948" lon="1.83799">
        <ele>150.7</ele>
        <time>2022-04-10T12:08:42Z</time>
      </trkpt>
      <trkpt lat="44.47944" lon="1.83794">
        <ele>150.7</ele>
        <time>2022-04-10T12:08:43Z</time>
      </trkpt>
      <trkpt lat="44.47939" lon="1.8379">
        <ele>150.8</ele>
        <time>2022-04-10T12:08:44Z</time>
      </trkpt>
      <trkpt lat="44.47935" lon="1.83785">
        <ele>150.8</ele>
        <time>2022-04-10T12:08:45Z</time>
      </trkpt>
      <trkpt lat="44.47931" lon="1.83781">
        <ele>150.8</ele>
        <time>2022-04-10T12:08:46Z</time>
      </trkpt>
      <trkpt lat="44.47927" lon="1.83777">
        <ele>150.8</ele>
        <time>2022-04-10T12:08:47Z</time>
      </trkpt>
      <trkpt lat="44.47923" lon="1.83772">
        <ele>150.8</ele>
        <time>2022-04-10T12:08:48Z</time>
      </trkpt>
      <trkpt lat="44.47919" lon="1.83768">
        <ele>150.8</ele>
        <time>2022-04-10T12:08:49Z</time>
      </trkpt>
      <trkpt lat="44.47915" lon="1.83763">
        <ele>150.8</ele>
        <time>2022-04-10T12:08:50Z</time>
      </trkpt>
      <trkpt lat="44.47912" lon="1.83758">
        <ele>150.9</ele>
        <time>2022-04-10T12:08:51Z</time>
      </trkpt>
      <trkpt lat="44.47908" lon="1.83754">
        <ele>150.9</ele>
        <time>2022-04-10T12:08:52Z</time>
      </trkpt>
      <trkpt lat="44.47904" lon="1.83751">
        <ele>151</ele>
        <time>2022-04-10T12:08:53Z</time>
      </trkpt>
      <trkpt lat="44.47901" lon="1.83748">
        <ele>151</ele>
        <time>2022-04-10T12:08:54Z</time>
      </trkpt>
      <trkpt lat="44.47897" lon="1.83745">
        <ele>151</ele>
        <time>2022-04-10T12:08:55Z</time>
      </trkpt>
      <trkpt lat="44.47894" lon="1.83743">
        <ele>151.1</ele>
        <time>2022-04-10T12:08:56Z</time>
      </trkpt>
      <trkpt lat="44.47892" lon="1.8374">
        <ele>151.1</ele>
        <time>2022-04-10T12:08:57Z</time>
      </trkpt>
      <trkpt lat="44.47889" lon="1.83738">
        <ele>151.2</ele>
        <time>2022-04-10T12:08:58Z</time>
      </trkpt>
      <trkpt lat="44.47886" lon="1.83735">
        <ele>151.2</ele>
        <time>2022-04-10T12:08:59Z</time>
      </trkpt>
      <trkpt lat="44.47883" lon="1.83733">
        <ele>151.3</ele>
        <time>2022-04-10T12:09:00Z</time>
      </trkpt>
      <trkpt lat="44.47881" lon="1.83731">
        <ele>151.3</ele>
        <time>2022-04-10T12:09:01Z</time>
      </trkpt>
      <trkpt lat="44.47876" lon="1.83728">
        <ele>151.4</ele>
        <time>2022-04-10T12:09:02Z</time>
      </trkpt>
      <trkpt lat="44.47873" lon="1.83725">
        <ele>151.4</ele>
        <time>2022-04-10T12:09:03Z</time>
      </trkpt>
      <trkpt lat="44.47871" lon="1.83724">
        <ele>151.5</ele>
        <time>2022-04-10T12:09:04Z</time>
      </trkpt>
      <trkpt lat="44.47868" lon="1.8372">
        <ele>151.5</ele>
        <time>2022-04-10T12:09:06Z</time>
      </trkpt>
      <trkpt lat="44.47864" lon="1.83718">
        <ele>151.6</ele>
        <time>2022-04-10T12:09:07Z</time>
      </trkpt>
      <trkpt lat="44.4786" lon="1.83715">
        <ele>151.7</ele>
        <time>2022-04-10T12:09:08Z</time>
      </trkpt>
      <trkpt lat="44.47857" lon="1.83712">
        <ele>151.8</ele>
        <time>2022-04-10T12:09:09Z</time>
      </trkpt>
      <trkpt lat="44.47855" lon="1.8371">
        <ele>151.8</ele>
        <time>2022-04-10T12:09:10Z</time>
      </trkpt>
      <trkpt lat="44.47853" lon="1.83708">
        <ele>151.9</ele>
        <time>2022-04-10T12:09:11Z</time>
      </trkpt>
      <trkpt lat="44.47849" lon="1.83705">
        <ele>152</ele>
        <time>2022-04-10T12:09:13Z</time>
      </trkpt>
      <trkpt lat="44.47847" lon="1.83705">
        <ele>152</ele>
        <time>2022-04-10T12:09:14Z</time>
      </trkpt>
      <trkpt lat="44.47846" lon="1.83703">
        <ele>152.1</ele>
        <time>2022-04-10T12:09:15Z</time>
      </trkpt>
      <trkpt lat="44.47846" lon="1.83702">
        <ele>152.1</ele>
        <time>2022-04-10T12:09:16Z</time>
      </trkpt>
      <trkpt lat="44.47846" lon="1.83701">
        <ele>152.1</ele>
        <time>2022-04-10T12:09:17Z</time>
      </trkpt>
      <trkpt lat="44.47846" lon="1.83702">
        <ele>152.2</ele>
        <time>2022-04-10T12:09:18Z</time>
      </trkpt>
      <trkpt lat="44.47843" lon="1.83701">
        <ele>152.2</ele>
        <time>2022-04-10T12:09:20Z</time>
      </trkpt>
      <trkpt lat="44.47842" lon="1.83701">
        <ele>152.3</ele>
        <time>2022-04-10T12:09:21Z</time>
      </trkpt>
      <trkpt lat="44.4784" lon="1.83701">
        <ele>152.3</ele>
        <time>2022-04-10T12:09:22Z</time>
      </trkpt>
      <trkpt lat="44.47838" lon="1.83701">
        <ele>152.4</ele>
        <time>2022-04-10T12:09:24Z</time>
      </trkpt>
      <trkpt lat="44.47837" lon="1.83701">
        <ele>152.5</ele>
        <time>2022-04-10T12:09:25Z</time>
      </trkpt>
      <trkpt lat="44.47834" lon="1.83699">
        <ele>152.6</ele>
        <time>2022-04-10T12:09:26Z</time>
      </trkpt>
      <trkpt lat="44.47833" lon="1.83699">
        <ele>152.6</ele>
        <time>2022-04-10T12:09:27Z</time>
      </trkpt>
      <trkpt lat="44.4783" lon="1.83697">
        <ele>152.7</ele>
        <time>2022-04-10T12:09:28Z</time>
      </trkpt>
      <trkpt lat="44.47829" lon="1.83696">
        <ele>152.7</ele>
        <time>2022-04-10T12:09:29Z</time>
      </trkpt>
      <trkpt lat="44.47826" lon="1.83693">
        <ele>152.9</ele>
        <time>2022-04-10T12:09:30Z</time>
      </trkpt>
      <trkpt lat="44.47825" lon="1.83693">
        <ele>152.9</ele>
        <time>2022-04-10T12:09:31Z</time>
      </trkpt>
      <trkpt lat="44.47822" lon="1.83691">
        <ele>153</ele>
        <time>2022-04-10T12:09:32Z</time>
      </trkpt>
      <trkpt lat="44.4782" lon="1.83689">
        <ele>153.1</ele>
        <time>2022-04-10T12:09:33Z</time>
      </trkpt>
      <trkpt lat="44.47817" lon="1.83686">
        <ele>153.2</ele>
        <time>2022-04-10T12:09:34Z</time>
      </trkpt>
      <trkpt lat="44.47816" lon="1.83685">
        <ele>153.3</ele>
        <time>2022-04-10T12:09:35Z</time>
      </trkpt>
      <trkpt lat="44.47812" lon="1.83682">
        <ele>153.4</ele>
        <time>2022-04-10T12:09:37Z</time>
      </trkpt>
      <trkpt lat="44.47809" lon="1.83678">
        <ele>153.6</ele>
        <time>2022-04-10T12:09:39Z</time>
      </trkpt>
      <trkpt lat="44.47808" lon="1.83676">
        <ele>153.6</ele>
        <time>2022-04-10T12:09:40Z</time>
      </trkpt>
      <trkpt lat="44.47807" lon="1.83675">
        <ele>153.7</ele>
        <time>2022-04-10T12:09:41Z</time>
      </trkpt>
      <trkpt lat="44.47806" lon="1.83673">
        <ele>153.7</ele>
        <time>2022-04-10T12:09:42Z</time>
      </trkpt>
      <trkpt lat="44.47804" lon="1.83672">
        <ele>153.8</ele>
        <time>2022-04-10T12:09:44Z</time>
      </trkpt>
      <trkpt lat="44.47801" lon="1.83669">
        <ele>153.9</ele>
        <time>2022-04-10T12:09:45Z</time>
      </trkpt>
      <trkpt lat="44.478" lon="1.83668">
        <ele>154</ele>
        <time>2022-04-10T12:09:46Z</time>
      </trkpt>
      <trkpt lat="44.47797" lon="1.83666">
        <ele>154.1</ele>
        <time>2022-04-10T12:09:47Z</time>
      </trkpt>
      <trkpt lat="44.47796" lon="1.83666">
        <ele>154.1</ele>
        <time>2022-04-10T12:09:48Z</time>
      </trkpt>
      <trkpt lat="44.47794" lon="1.83664">
        <ele>154.2</ele>
        <time>2022-04-10T12:09:49Z</time>
      </trkpt>
      <trkpt lat="44.47793" lon="1.83662">
        <ele>154.3</ele>
        <time>2022-04-10T12:09:51Z</time>
      </trkpt>
      <trkpt lat="44.4779" lon="1.8366">
        <ele>154.4</ele>
        <time>2022-04-10T12:09:52Z</time>
      </trkpt>
      <trkpt lat="44.47786" lon="1.83658">
        <ele>154.6</ele>
        <time>2022-04-10T12:09:53Z</time>
      </trkpt>
      <trkpt lat="44.47783" lon="1.83656">
        <ele>154.8</ele>
        <time>2022-04-10T12:09:54Z</time>
      </trkpt>
      <trkpt lat="44.47779" lon="1.83655">
        <ele>155</ele>
        <time>2022-04-10T12:09:55Z</time>
      </trkpt>
      <trkpt lat="44.47775" lon="1.83654">
        <ele>155.3</ele>
        <time>2022-04-10T12:09:57Z</time>
      </trkpt>
      <trkpt lat="44.4777" lon="1.83654">
        <ele>155.5</ele>
        <time>2022-04-10T12:09:58Z</time>
      </trkpt>
      <trkpt lat="44.47767" lon="1.83653">
        <ele>155.7</ele>
        <time>2022-04-10T12:09:59Z</time>
      </trkpt>
      <trkpt lat="44.47764" lon="1.83654">
        <ele>155.8</ele>
        <time>2022-04-10T12:10:00Z</time>
      </trkpt>
      <trkpt lat="44.47761" lon="1.83655">
        <ele>156</ele>
        <time>2022-04-10T12:10:01Z</time>
      </trkpt>
      <trkpt lat="44.47758" lon="1.83655">
        <ele>156</ele>
        <time>2022-04-10T12:10:03Z</time>
      </trkpt>
      <trkpt lat="44.47754" lon="1.83657">
        <ele>156</ele>
        <time>2022-04-10T12:10:04Z</time>
      </trkpt>
      <trkpt lat="44.47753" lon="1.83658">
        <ele>156</ele>
        <time>2022-04-10T12:10:05Z</time>
      </trkpt>
      <trkpt lat="44.47749" lon="1.83659">
        <ele>156</ele>
        <time>2022-04-10T12:10:06Z</time>
      </trkpt>
      <trkpt lat="44.47746" lon="1.8366">
        <ele>156</ele>
        <time>2022-04-10T12:10:07Z</time>
      </trkpt>
      <trkpt lat="44.47744" lon="1.83662">
        <ele>156</ele>
        <time>2022-04-10T12:10:08Z</time>
      </trkpt>
      <trkpt lat="44.47738" lon="1.83665">
        <ele>155.9</ele>
        <time>2022-04-10T12:10:10Z</time>
      </trkpt>
      <trkpt lat="44.47733" lon="1.83666">
        <ele>155.9</ele>
        <time>2022-04-10T12:10:11Z</time>
      </trkpt>
      <trkpt lat="44.47729" lon="1.83668">
        <ele>155.9</ele>
        <time>2022-04-10T12:10:12Z</time>
      </trkpt>
      <trkpt lat="44.47724" lon="1.83669">
        <ele>156</ele>
        <time>2022-04-10T12:10:13Z</time>
      </trkpt>
      <trkpt lat="44.4772" lon="1.8367">
        <ele>156.1</ele>
        <time>2022-04-10T12:10:14Z</time>
      </trkpt>
      <trkpt lat="44.47717" lon="1.83672">
        <ele>156.3</ele>
        <time>2022-04-10T12:10:15Z</time>
      </trkpt>
      <trkpt lat="44.47713" lon="1.83673">
        <ele>156.6</ele>
        <time>2022-04-10T12:10:16Z</time>
      </trkpt>
      <trkpt lat="44.47709" lon="1.83675">
        <ele>157</ele>
        <time>2022-04-10T12:10:17Z</time>
      </trkpt>
      <trkpt lat="44.47705" lon="1.83673">
        <ele>157.5</ele>
        <time>2022-04-10T12:10:19Z</time>
      </trkpt>
      <trkpt lat="44.47702" lon="1.83675">
        <ele>158.2</ele>
        <time>2022-04-10T12:10:20Z</time>
      </trkpt>
      <trkpt lat="44.47702" lon="1.83673">
        <ele>158.5</ele>
        <time>2022-04-10T12:10:21Z</time>
      </trkpt>
      <trkpt lat="44.47705" lon="1.83669">
        <ele>159.4</ele>
        <time>2022-04-10T12:10:23Z</time>
      </trkpt>
      <trkpt lat="44.47706" lon="1.83669">
        <ele>159.9</ele>
        <time>2022-04-10T12:10:24Z</time>
      </trkpt>
      <trkpt lat="44.47706" lon="1.83671">
        <ele>160.1</ele>
        <time>2022-04-10T12:10:25Z</time>
      </trkpt>
      <trkpt lat="44.47705" lon="1.83673">
        <ele>160.5</ele>
        <time>2022-04-10T12:10:26Z</time>
      </trkpt>
      <trkpt lat="44.47705" lon="1.83675">
        <ele>160.9</ele>
        <time>2022-04-10T12:10:27Z</time>
      </trkpt>
      <trkpt lat="44.47705" lon="1.83676">
        <ele>161.2</ele>
        <time>2022-04-10T12:10:28Z</time>
      </trkpt>
      <trkpt lat="44.47705" lon="1.83676">
        <ele>161.2</ele>
        <time>2022-04-10T12:10:29Z</time>
      </trkpt>
      <trkpt lat="44.47705" lon="1.83676">
        <ele>161.3</ele>
        <time>2022-04-10T12:10:30Z</time>
      </trkpt>
      <trkpt lat="44.47704" lon="1.83676">
        <ele>161.4</ele>
        <time>2022-04-10T12:10:32Z</time>
      </trkpt>
      <trkpt lat="44.47704" lon="1.83676">
        <ele>161.4</ele>
        <time>2022-04-10T12:10:33Z</time>
      </trkpt>
      <trkpt lat="44.47704" lon="1.83675">
        <ele>161.4</ele>
        <time>2022-04-10T12:10:34Z</time>
      </trkpt>
      <trkpt lat="44.47704" lon="1.83675">
        <ele>161.5</ele>
        <time>2022-04-10T12:10:35Z</time>
      </trkpt>
      <trkpt lat="44.47704" lon="1.83675">
        <ele>161.5</ele>
        <time>2022-04-10T12:10:37Z</time>
      </trkpt>
      <trkpt lat="44.47704" lon="1.83675">
        <ele>161.5</ele>
        <time>2022-04-10T12:10:38Z</time>
      </trkpt>
      <trkpt lat="44.47701" lon="1.83681">
        <ele>163.1</ele>
        <time>2022-04-10T12:10:56Z</time>
      </trkpt>
      <trkpt lat="44.477" lon="1.83682">
        <ele>163.3</ele>
        <time>2022-04-10T12:10:57Z</time>
      </trkpt>
      <trkpt lat="44.47699" lon="1.83682">
        <ele>163.6</ele>
        <time>2022-04-10T12:10:58Z</time>
      </trkpt>
      <trkpt lat="44.47698" lon="1.83681">
        <ele>163.9</ele>
        <time>2022-04-10T12:11:00Z</time>
      </trkpt>
      <trkpt lat="44.47697" lon="1.8368">
        <ele>164.3</ele>
        <time>2022-04-10T12:11:01Z</time>
      </trkpt>
      <trkpt lat="44.47697" lon="1.83678">
        <ele>164.7</ele>
        <time>2022-04-10T12:11:02Z</time>
      </trkpt>
      <trkpt lat="44.47696" lon="1.83677">
        <ele>164.9</ele>
        <time>2022-04-10T12:11:03Z</time>
      </trkpt>
      <trkpt lat="44.47697" lon="1.83676">
        <ele>165.2</ele>
        <time>2022-04-10T12:11:04Z</time>
      </trkpt>
      <trkpt lat="44.47698" lon="1.83675">
        <ele>165.4</ele>
        <time>2022-04-10T12:11:05Z</time>
      </trkpt>
      <trkpt lat="44.47698" lon="1.83674">
        <ele>165.6</ele>
        <time>2022-04-10T12:11:06Z</time>
      </trkpt>
      <trkpt lat="44.47699" lon="1.83673">
        <ele>166</ele>
        <time>2022-04-10T12:11:08Z</time>
      </trkpt>
      <trkpt lat="44.477" lon="1.83672">
        <ele>166.3</ele>
        <time>2022-04-10T12:11:09Z</time>
      </trkpt>
      <trkpt lat="44.477" lon="1.83671">
        <ele>166.5</ele>
        <time>2022-04-10T12:11:10Z</time>
      </trkpt>
      <trkpt lat="44.47701" lon="1.8367">
        <ele>166.7</ele>
        <time>2022-04-10T12:11:11Z</time>
      </trkpt>
      <trkpt lat="44.47701" lon="1.83669">
        <ele>167</ele>
        <time>2022-04-10T12:11:12Z</time>
      </trkpt>
      <trkpt lat="44.47702" lon="1.83668">
        <ele>167.1</ele>
        <time>2022-04-10T12:11:13Z</time>
      </trkpt>
      <trkpt lat="44.47702" lon="1.83667">
        <ele>167.3</ele>
        <time>2022-04-10T12:11:15Z</time>
      </trkpt>
      <trkpt lat="44.47703" lon="1.83667">
        <ele>167.5</ele>
        <time>2022-04-10T12:11:16Z</time>
      </trkpt>
      <trkpt lat="44.47703" lon="1.83667">
        <ele>167.7</ele>
        <time>2022-04-10T12:11:17Z</time>
      </trkpt>
      <trkpt lat="44.47703" lon="1.83666">
        <ele>167.7</ele>
        <time>2022-04-10T12:11:18Z</time>
      </trkpt>
      <trkpt lat="44.47704" lon="1.83666">
        <ele>167.9</ele>
        <time>2022-04-10T12:11:19Z</time>
      </trkpt>
      <trkpt lat="44.47704" lon="1.83665">
        <ele>168.1</ele>
        <time>2022-04-10T12:11:21Z</time>
      </trkpt>
      <trkpt lat="44.47705" lon="1.83664">
        <ele>168.4</ele>
        <time>2022-04-10T12:11:22Z</time>
      </trkpt>
      <trkpt lat="44.47706" lon="1.83663">
        <ele>168.6</ele>
        <time>2022-04-10T12:11:23Z</time>
      </trkpt>
      <trkpt lat="44.47707" lon="1.83662">
        <ele>168.8</ele>
        <time>2022-04-10T12:11:24Z</time>
      </trkpt>
      <trkpt lat="44.47707" lon="1.83661">
        <ele>169</ele>
        <time>2022-04-10T12:11:25Z</time>
      </trkpt>
      <trkpt lat="44.47707" lon="1.8366">
        <ele>169.2</ele>
        <time>2022-04-10T12:11:26Z</time>
      </trkpt>
      <trkpt lat="44.47708" lon="1.83659">
        <ele>169.5</ele>
        <time>2022-04-10T12:11:27Z</time>
      </trkpt>
      <trkpt lat="44.47709" lon="1.83659">
        <ele>169.8</ele>
        <time>2022-04-10T12:11:28Z</time>
      </trkpt>
      <trkpt lat="44.4771" lon="1.83658">
        <ele>170</ele>
        <time>2022-04-10T12:11:29Z</time>
      </trkpt>
      <trkpt lat="44.47711" lon="1.83657">
        <ele>170.3</ele>
        <time>2022-04-10T12:11:30Z</time>
      </trkpt>
      <trkpt lat="44.47712" lon="1.83657">
        <ele>170.5</ele>
        <time>2022-04-10T12:11:31Z</time>
      </trkpt>
      <trkpt lat="44.47713" lon="1.83657">
        <ele>170.7</ele>
        <time>2022-04-10T12:11:32Z</time>
      </trkpt>
      <trkpt lat="44.47713" lon="1.83657">
        <ele>170.8</ele>
        <time>2022-04-10T12:11:33Z</time>
      </trkpt>
      <trkpt lat="44.47714" lon="1.83657">
        <ele>171</ele>
        <time>2022-04-10T12:11:35Z</time>
      </trkpt>
      <trkpt lat="44.47715" lon="1.83657">
        <ele>171.2</ele>
        <time>2022-04-10T12:11:36Z</time>
      </trkpt>
      <trkpt lat="44.47716" lon="1.83657">
        <ele>171.4</ele>
        <time>2022-04-10T12:11:37Z</time>
      </trkpt>
      <trkpt lat="44.47716" lon="1.83657">
        <ele>171.6</ele>
        <time>2022-04-10T12:11:38Z</time>
      </trkpt>
      <trkpt lat="44.47717" lon="1.83657">
        <ele>171.7</ele>
        <time>2022-04-10T12:11:39Z</time>
      </trkpt>
      <trkpt lat="44.47718" lon="1.83656">
        <ele>171.9</ele>
        <time>2022-04-10T12:11:40Z</time>
      </trkpt>
      <trkpt lat="44.47719" lon="1.83655">
        <ele>172.3</ele>
        <time>2022-04-10T12:11:42Z</time>
      </trkpt>
      <trkpt lat="44.4772" lon="1.83655">
        <ele>172.4</ele>
        <time>2022-04-10T12:11:43Z</time>
      </trkpt>
      <trkpt lat="44.4772" lon="1.83655">
        <ele>172.5</ele>
        <time>2022-04-10T12:11:44Z</time>
      </trkpt>
      <trkpt lat="44.4772" lon="1.83655">
        <ele>172.6</ele>
        <time>2022-04-10T12:11:45Z</time>
      </trkpt>
      <trkpt lat="44.47721" lon="1.83655">
        <ele>172.7</ele>
        <time>2022-04-10T12:11:46Z</time>
      </trkpt>
      <trkpt lat="44.47722" lon="1.83654">
        <ele>172.9</ele>
        <time>2022-04-10T12:11:48Z</time>
      </trkpt>
      <trkpt lat="44.47722" lon="1.83654">
        <ele>173</ele>
        <time>2022-04-10T12:11:49Z</time>
      </trkpt>
      <trkpt lat="44.47723" lon="1.83653">
        <ele>173.2</ele>
        <time>2022-04-10T12:11:50Z</time>
      </trkpt>
      <trkpt lat="44.47724" lon="1.83653">
        <ele>173.4</ele>
        <time>2022-04-10T12:11:51Z</time>
      </trkpt>
      <trkpt lat="44.47724" lon="1.83652">
        <ele>173.5</ele>
        <time>2022-04-10T12:11:52Z</time>
      </trkpt>
      <trkpt lat="44.47725" lon="1.83652">
        <ele>173.7</ele>
        <time>2022-04-10T12:11:53Z</time>
      </trkpt>
      <trkpt lat="44.47726" lon="1.83651">
        <ele>173.9</ele>
        <time>2022-04-10T12:11:54Z</time>
      </trkpt>
      <trkpt lat="44.47726" lon="1.8365">
        <ele>174</ele>
        <time>2022-04-10T12:11:55Z</time>
      </trkpt>
      <trkpt lat="44.47726" lon="1.83649">
        <ele>174.2</ele>
        <time>2022-04-10T12:11:56Z</time>
      </trkpt>
      <trkpt lat="44.47726" lon="1.83648">
        <ele>174.4</ele>
        <time>2022-04-10T12:11:57Z</time>
      </trkpt>
      <trkpt lat="44.47725" lon="1.83648">
        <ele>174.5</ele>
        <time>2022-04-10T12:11:59Z</time>
      </trkpt>
      <trkpt lat="44.47724" lon="1.83648">
        <ele>174.7</ele>
        <time>2022-04-10T12:12:00Z</time>
      </trkpt>
      <trkpt lat="44.47723" lon="1.83649">
        <ele>174.9</ele>
        <time>2022-04-10T12:12:01Z</time>
      </trkpt>
      <trkpt lat="44.47722" lon="1.83651">
        <ele>175.2</ele>
        <time>2022-04-10T12:12:03Z</time>
      </trkpt>
      <trkpt lat="44.47721" lon="1.83652">
        <ele>175.5</ele>
        <time>2022-04-10T12:12:04Z</time>
      </trkpt>
      <trkpt lat="44.4772" lon="1.83653">
        <ele>175.6</ele>
        <time>2022-04-10T12:12:06Z</time>
      </trkpt>
      <trkpt lat="44.47719" lon="1.83653">
        <ele>175.8</ele>
        <time>2022-04-10T12:12:07Z</time>
      </trkpt>
      <trkpt lat="44.47718" lon="1.83653">
        <ele>175.9</ele>
        <time>2022-04-10T12:12:08Z</time>
      </trkpt>
      <trkpt lat="44.47717" lon="1.83653">
        <ele>176</ele>
        <time>2022-04-10T12:12:09Z</time>
      </trkpt>
      <trkpt lat="44.47717" lon="1.83653">
        <ele>176.2</ele>
        <time>2022-04-10T12:12:10Z</time>
      </trkpt>
      <trkpt lat="44.47715" lon="1.83653">
        <ele>176.4</ele>
        <time>2022-04-10T12:12:12Z</time>
      </trkpt>
      <trkpt lat="44.47714" lon="1.83653">
        <ele>176.5</ele>
        <time>2022-04-10T12:12:13Z</time>
      </trkpt>
      <trkpt lat="44.47713" lon="1.83652">
        <ele>176.6</ele>
        <time>2022-04-10T12:12:14Z</time>
      </trkpt>
      <trkpt lat="44.47712" lon="1.83653">
        <ele>176.7</ele>
        <time>2022-04-10T12:12:15Z</time>
      </trkpt>
      <trkpt lat="44.47712" lon="1.83653">
        <ele>176.8</ele>
        <time>2022-04-10T12:12:16Z</time>
      </trkpt>
      <trkpt lat="44.47711" lon="1.83653">
        <ele>176.8</ele>
        <time>2022-04-10T12:12:17Z</time>
      </trkpt>
      <trkpt lat="44.4771" lon="1.83653">
        <ele>177</ele>
        <time>2022-04-10T12:12:18Z</time>
      </trkpt>
      <trkpt lat="44.47708" lon="1.83653">
        <ele>177.1</ele>
        <time>2022-04-10T12:12:20Z</time>
      </trkpt>
      <trkpt lat="44.47704" lon="1.83653">
        <ele>177.4</ele>
        <time>2022-04-10T12:12:21Z</time>
      </trkpt>
      <trkpt lat="44.47703" lon="1.83653">
        <ele>177.4</ele>
        <time>2022-04-10T12:12:22Z</time>
      </trkpt>
      <trkpt lat="44.477" lon="1.83653">
        <ele>177.6</ele>
        <time>2022-04-10T12:12:23Z</time>
      </trkpt>
      <trkpt lat="44.47695" lon="1.83653">
        <ele>177.8</ele>
        <time>2022-04-10T12:12:25Z</time>
      </trkpt>
      <trkpt lat="44.47691" lon="1.83653">
        <ele>178</ele>
        <time>2022-04-10T12:12:26Z</time>
      </trkpt>
      <trkpt lat="44.47686" lon="1.83652">
        <ele>178.1</ele>
        <time>2022-04-10T12:12:27Z</time>
      </trkpt>
      <trkpt lat="44.47682" lon="1.83651">
        <ele>178.3</ele>
        <time>2022-04-10T12:12:28Z</time>
      </trkpt>
      <trkpt lat="44.47678" lon="1.83651">
        <ele>178.4</ele>
        <time>2022-04-10T12:12:29Z</time>
      </trkpt>
      <trkpt lat="44.47673" lon="1.83652">
        <ele>178.8</ele>
        <time>2022-04-10T12:12:31Z</time>
      </trkpt>
      <trkpt lat="44.47666" lon="1.83653">
        <ele>179.1</ele>
        <time>2022-04-10T12:12:32Z</time>
      </trkpt>
      <trkpt lat="44.47661" lon="1.83655">
        <ele>179.4</ele>
        <time>2022-04-10T12:12:34Z</time>
      </trkpt>
      <trkpt lat="44.47656" lon="1.83655">
        <ele>179.7</ele>
        <time>2022-04-10T12:12:35Z</time>
      </trkpt>
      <trkpt lat="44.47652" lon="1.83655">
        <ele>179.9</ele>
        <time>2022-04-10T12:12:36Z</time>
      </trkpt>
      <trkpt lat="44.4765" lon="1.83657">
        <ele>180</ele>
        <time>2022-04-10T12:12:37Z</time>
      </trkpt>
      <trkpt lat="44.47645" lon="1.8366">
        <ele>180.3</ele>
        <time>2022-04-10T12:12:39Z</time>
      </trkpt>
      <trkpt lat="44.47642" lon="1.8366">
        <ele>180.5</ele>
        <time>2022-04-10T12:12:40Z</time>
      </trkpt>
      <trkpt lat="44.47641" lon="1.83661">
        <ele>180.5</ele>
        <time>2022-04-10T12:12:41Z</time>
      </trkpt>
      <trkpt lat="44.47639" lon="1.83661">
        <ele>180.6</ele>
        <time>2022-04-10T12:12:42Z</time>
      </trkpt>
      <trkpt lat="44.47638" lon="1.83661">
        <ele>180.7</ele>
        <time>2022-04-10T12:12:44Z</time>
      </trkpt>
      <trkpt lat="44.47636" lon="1.83662">
        <ele>180.8</ele>
        <time>2022-04-10T12:12:45Z</time>
      </trkpt>
      <trkpt lat="44.47636" lon="1.83661">
        <ele>180.8</ele>
        <time>2022-04-10T12:12:46Z</time>
      </trkpt>
      <trkpt lat="44.47634" lon="1.8366">
        <ele>180.9</ele>
        <time>2022-04-10T12:12:47Z</time>
      </trkpt>
      <trkpt lat="44.47632" lon="1.83661">
        <ele>181</ele>
        <time>2022-04-10T12:12:48Z</time>
      </trkpt>
      <trkpt lat="44.47631" lon="1.83662">
        <ele>181.1</ele>
        <time>2022-04-10T12:12:49Z</time>
      </trkpt>
      <trkpt lat="44.47629" lon="1.83662">
        <ele>181.2</ele>
        <time>2022-04-10T12:12:50Z</time>
      </trkpt>
      <trkpt lat="44.47626" lon="1.83661">
        <ele>181.4</ele>
        <time>2022-04-10T12:12:52Z</time>
      </trkpt>
      <trkpt lat="44.47623" lon="1.83662">
        <ele>181.5</ele>
        <time>2022-04-10T12:12:53Z</time>
      </trkpt>
      <trkpt lat="44.47621" lon="1.83662">
        <ele>181.6</ele>
        <time>2022-04-10T12:12:54Z</time>
      </trkpt>
      <trkpt lat="44.47618" lon="1.83661">
        <ele>181.8</ele>
        <time>2022-04-10T12:12:55Z</time>
      </trkpt>
      <trkpt lat="44.47617" lon="1.83661">
        <ele>181.8</ele>
        <time>2022-04-10T12:12:56Z</time>
      </trkpt>
      <trkpt lat="44.47613" lon="1.83663">
        <ele>182</ele>
        <time>2022-04-10T12:12:58Z</time>
      </trkpt>
      <trkpt lat="44.47609" lon="1.83664">
        <ele>182.2</ele>
        <time>2022-04-10T12:12:59Z</time>
      </trkpt>
      <trkpt lat="44.47605" lon="1.83664">
        <ele>182.3</ele>
        <time>2022-04-10T12:13:00Z</time>
      </trkpt>
      <trkpt lat="44.47604" lon="1.83664">
        <ele>182.3</ele>
        <time>2022-04-10T12:13:01Z</time>
      </trkpt>
      <trkpt lat="44.47601" lon="1.83663">
        <ele>182.5</ele>
        <time>2022-04-10T12:13:02Z</time>
      </trkpt>
      <trkpt lat="44.47598" lon="1.83661">
        <ele>182.6</ele>
        <time>2022-04-10T12:13:03Z</time>
      </trkpt>
      <trkpt lat="44.47597" lon="1.8366">
        <ele>182.6</ele>
        <time>2022-04-10T12:13:04Z</time>
      </trkpt>
      <trkpt lat="44.47593" lon="1.83658">
        <ele>182.7</ele>
        <time>2022-04-10T12:13:05Z</time>
      </trkpt>
      <trkpt lat="44.47591" lon="1.83656">
        <ele>182.8</ele>
        <time>2022-04-10T12:13:06Z</time>
      </trkpt>
      <trkpt lat="44.47588" lon="1.83654">
        <ele>182.9</ele>
        <time>2022-04-10T12:13:07Z</time>
      </trkpt>
      <trkpt lat="44.47585" lon="1.83652">
        <ele>182.9</ele>
        <time>2022-04-10T12:13:08Z</time>
      </trkpt>
      <trkpt lat="44.47582" lon="1.83649">
        <ele>183</ele>
        <time>2022-04-10T12:13:09Z</time>
      </trkpt>
      <trkpt lat="44.47579" lon="1.83646">
        <ele>183</ele>
        <time>2022-04-10T12:13:10Z</time>
      </trkpt>
      <trkpt lat="44.47576" lon="1.83644">
        <ele>183</ele>
        <time>2022-04-10T12:13:11Z</time>
      </trkpt>
      <trkpt lat="44.47572" lon="1.83642">
        <ele>183</ele>
        <time>2022-04-10T12:13:12Z</time>
      </trkpt>
      <trkpt lat="44.47568" lon="1.8364">
        <ele>183</ele>
        <time>2022-04-10T12:13:13Z</time>
      </trkpt>
      <trkpt lat="44.47566" lon="1.83638">
        <ele>183</ele>
        <time>2022-04-10T12:13:14Z</time>
      </trkpt>
      <trkpt lat="44.47561" lon="1.83635">
        <ele>183.1</ele>
        <time>2022-04-10T12:13:16Z</time>
      </trkpt>
      <trkpt lat="44.47557" lon="1.83633">
        <ele>183.1</ele>
        <time>2022-04-10T12:13:17Z</time>
      </trkpt>
      <trkpt lat="44.47553" lon="1.83629">
        <ele>183.1</ele>
        <time>2022-04-10T12:13:18Z</time>
      </trkpt>
      <trkpt lat="44.47548" lon="1.83626">
        <ele>183.2</ele>
        <time>2022-04-10T12:13:19Z</time>
      </trkpt>
      <trkpt lat="44.47544" lon="1.83623">
        <ele>183.2</ele>
        <time>2022-04-10T12:13:20Z</time>
      </trkpt>
      <trkpt lat="44.4754" lon="1.8362">
        <ele>183.3</ele>
        <time>2022-04-10T12:13:21Z</time>
      </trkpt>
      <trkpt lat="44.47536" lon="1.83619">
        <ele>183.3</ele>
        <time>2022-04-10T12:13:22Z</time>
      </trkpt>
      <trkpt lat="44.47531" lon="1.83617">
        <ele>183.4</ele>
        <time>2022-04-10T12:13:23Z</time>
      </trkpt>
      <trkpt lat="44.47526" lon="1.83616">
        <ele>183.4</ele>
        <time>2022-04-10T12:13:24Z</time>
      </trkpt>
      <trkpt lat="44.47521" lon="1.83615">
        <ele>183.5</ele>
        <time>2022-04-10T12:13:25Z</time>
      </trkpt>
      <trkpt lat="44.47515" lon="1.83613">
        <ele>183.6</ele>
        <time>2022-04-10T12:13:26Z</time>
      </trkpt>
      <trkpt lat="44.47509" lon="1.83613">
        <ele>183.7</ele>
        <time>2022-04-10T12:13:27Z</time>
      </trkpt>
      <trkpt lat="44.47505" lon="1.83614">
        <ele>183.8</ele>
        <time>2022-04-10T12:13:28Z</time>
      </trkpt>
      <trkpt lat="44.475" lon="1.83615">
        <ele>183.9</ele>
        <time>2022-04-10T12:13:29Z</time>
      </trkpt>
      <trkpt lat="44.47496" lon="1.83616">
        <ele>184</ele>
        <time>2022-04-10T12:13:30Z</time>
      </trkpt>
      <trkpt lat="44.47492" lon="1.83617">
        <ele>184.1</ele>
        <time>2022-04-10T12:13:31Z</time>
      </trkpt>
      <trkpt lat="44.47488" lon="1.83619">
        <ele>184.2</ele>
        <time>2022-04-10T12:13:32Z</time>
      </trkpt>
      <trkpt lat="44.47487" lon="1.8362">
        <ele>184.3</ele>
        <time>2022-04-10T12:13:33Z</time>
      </trkpt>
      <trkpt lat="44.47481" lon="1.8362">
        <ele>184.4</ele>
        <time>2022-04-10T12:13:34Z</time>
      </trkpt>
      <trkpt lat="44.47476" lon="1.83621">
        <ele>184.5</ele>
        <time>2022-04-10T12:13:35Z</time>
      </trkpt>
      <trkpt lat="44.47472" lon="1.83623">
        <ele>184.6</ele>
        <time>2022-04-10T12:13:36Z</time>
      </trkpt>
      <trkpt lat="44.47467" lon="1.83625">
        <ele>184.7</ele>
        <time>2022-04-10T12:13:37Z</time>
      </trkpt>
      <trkpt lat="44.47463" lon="1.83626">
        <ele>184.8</ele>
        <time>2022-04-10T12:13:38Z</time>
      </trkpt>
      <trkpt lat="44.47455" lon="1.83628">
        <ele>184.9</ele>
        <time>2022-04-10T12:13:40Z</time>
      </trkpt>
      <trkpt lat="44.47451" lon="1.8363">
        <ele>185</ele>
        <time>2022-04-10T12:13:41Z</time>
      </trkpt>
      <trkpt lat="44.47447" lon="1.83632">
        <ele>185.1</ele>
        <time>2022-04-10T12:13:42Z</time>
      </trkpt>
      <trkpt lat="44.47442" lon="1.83635">
        <ele>185.2</ele>
        <time>2022-04-10T12:13:43Z</time>
      </trkpt>
      <trkpt lat="44.47437" lon="1.83637">
        <ele>185.3</ele>
        <time>2022-04-10T12:13:44Z</time>
      </trkpt>
      <trkpt lat="44.47432" lon="1.8364">
        <ele>185.5</ele>
        <time>2022-04-10T12:13:45Z</time>
      </trkpt>
      <trkpt lat="44.47427" lon="1.83642">
        <ele>185.6</ele>
        <time>2022-04-10T12:13:46Z</time>
      </trkpt>
      <trkpt lat="44.47422" lon="1.83645">
        <ele>185.8</ele>
        <time>2022-04-10T12:13:47Z</time>
      </trkpt>
      <trkpt lat="44.47417" lon="1.83648">
        <ele>185.9</ele>
        <time>2022-04-10T12:13:48Z</time>
      </trkpt>
      <trkpt lat="44.47411" lon="1.83652">
        <ele>186</ele>
        <time>2022-04-10T12:13:49Z</time>
      </trkpt>
      <trkpt lat="44.47405" lon="1.83655">
        <ele>186</ele>
        <time>2022-04-10T12:13:50Z</time>
      </trkpt>
      <trkpt lat="44.474" lon="1.83658">
        <ele>186.1</ele>
        <time>2022-04-10T12:13:51Z</time>
      </trkpt>
      <trkpt lat="44.47395" lon="1.83662">
        <ele>186.1</ele>
        <time>2022-04-10T12:13:52Z</time>
      </trkpt>
      <trkpt lat="44.47389" lon="1.83665">
        <ele>186.1</ele>
        <time>2022-04-10T12:13:53Z</time>
      </trkpt>
      <trkpt lat="44.47384" lon="1.83669">
        <ele>186.1</ele>
        <time>2022-04-10T12:13:54Z</time>
      </trkpt>
      <trkpt lat="44.47379" lon="1.83672">
        <ele>186</ele>
        <time>2022-04-10T12:13:55Z</time>
      </trkpt>
      <trkpt lat="44.47374" lon="1.83675">
        <ele>185.9</ele>
        <time>2022-04-10T12:13:56Z</time>
      </trkpt>
      <trkpt lat="44.47369" lon="1.83679">
        <ele>185.7</ele>
        <time>2022-04-10T12:13:57Z</time>
      </trkpt>
      <trkpt lat="44.47364" lon="1.83684">
        <ele>185.6</ele>
        <time>2022-04-10T12:13:58Z</time>
      </trkpt>
      <trkpt lat="44.47357" lon="1.83688">
        <ele>185.3</ele>
        <time>2022-04-10T12:13:59Z</time>
      </trkpt>
      <trkpt lat="44.47351" lon="1.83693">
        <ele>184.9</ele>
        <time>2022-04-10T12:14:00Z</time>
      </trkpt>
      <trkpt lat="44.47344" lon="1.83697">
        <ele>184.5</ele>
        <time>2022-04-10T12:14:01Z</time>
      </trkpt>
      <trkpt lat="44.47337" lon="1.83702">
        <ele>184</ele>
        <time>2022-04-10T12:14:02Z</time>
      </trkpt>
      <trkpt lat="44.4733" lon="1.83707">
        <ele>183.5</ele>
        <time>2022-04-10T12:14:03Z</time>
      </trkpt>
      <trkpt lat="44.47323" lon="1.83712">
        <ele>183.1</ele>
        <time>2022-04-10T12:14:04Z</time>
      </trkpt>
      <trkpt lat="44.47315" lon="1.83717">
        <ele>182.5</ele>
        <time>2022-04-10T12:14:05Z</time>
      </trkpt>
      <trkpt lat="44.47307" lon="1.83722">
        <ele>182</ele>
        <time>2022-04-10T12:14:06Z</time>
      </trkpt>
      <trkpt lat="44.47299" lon="1.83727">
        <ele>181.6</ele>
        <time>2022-04-10T12:14:07Z</time>
      </trkpt>
      <trkpt lat="44.47291" lon="1.83732">
        <ele>181.2</ele>
        <time>2022-04-10T12:14:08Z</time>
      </trkpt>
      <trkpt lat="44.47282" lon="1.83738">
        <ele>180.9</ele>
        <time>2022-04-10T12:14:09Z</time>
      </trkpt>
      <trkpt lat="44.47274" lon="1.83743">
        <ele>180.5</ele>
        <time>2022-04-10T12:14:10Z</time>
      </trkpt>
      <trkpt lat="44.47265" lon="1.83749">
        <ele>180.2</ele>
        <time>2022-04-10T12:14:11Z</time>
      </trkpt>
      <trkpt lat="44.47257" lon="1.83754">
        <ele>179.9</ele>
        <time>2022-04-10T12:14:12Z</time>
      </trkpt>
      <trkpt lat="44.47249" lon="1.83759">
        <ele>179.6</ele>
        <time>2022-04-10T12:14:13Z</time>
      </trkpt>
      <trkpt lat="44.47241" lon="1.83764">
        <ele>179.3</ele>
        <time>2022-04-10T12:14:14Z</time>
      </trkpt>
      <trkpt lat="44.47233" lon="1.83768">
        <ele>178.9</ele>
        <time>2022-04-10T12:14:15Z</time>
      </trkpt>
      <trkpt lat="44.47225" lon="1.83773">
        <ele>178.7</ele>
        <time>2022-04-10T12:14:16Z</time>
      </trkpt>
      <trkpt lat="44.47217" lon="1.83777">
        <ele>178.4</ele>
        <time>2022-04-10T12:14:17Z</time>
      </trkpt>
      <trkpt lat="44.4721" lon="1.83782">
        <ele>178.2</ele>
        <time>2022-04-10T12:14:18Z</time>
      </trkpt>
      <trkpt lat="44.47203" lon="1.83787">
        <ele>177.9</ele>
        <time>2022-04-10T12:14:19Z</time>
      </trkpt>
      <trkpt lat="44.47195" lon="1.8379">
        <ele>177.7</ele>
        <time>2022-04-10T12:14:20Z</time>
      </trkpt>
      <trkpt lat="44.47188" lon="1.83794">
        <ele>177.4</ele>
        <time>2022-04-10T12:14:21Z</time>
      </trkpt>
      <trkpt lat="44.47181" lon="1.83797">
        <ele>177.2</ele>
        <time>2022-04-10T12:14:22Z</time>
      </trkpt>
      <trkpt lat="44.47174" lon="1.83801">
        <ele>176.9</ele>
        <time>2022-04-10T12:14:23Z</time>
      </trkpt>
      <trkpt lat="44.47167" lon="1.83804">
        <ele>176.7</ele>
        <time>2022-04-10T12:14:24Z</time>
      </trkpt>
      <trkpt lat="44.4716" lon="1.83807">
        <ele>176.4</ele>
        <time>2022-04-10T12:14:25Z</time>
      </trkpt>
      <trkpt lat="44.47153" lon="1.83811">
        <ele>176</ele>
        <time>2022-04-10T12:14:26Z</time>
      </trkpt>
      <trkpt lat="44.47145" lon="1.83814">
        <ele>175.6</ele>
        <time>2022-04-10T12:14:27Z</time>
      </trkpt>
      <trkpt lat="44.47137" lon="1.83818">
        <ele>175.2</ele>
        <time>2022-04-10T12:14:28Z</time>
      </trkpt>
      <trkpt lat="44.4713" lon="1.83821">
        <ele>174.7</ele>
        <time>2022-04-10T12:14:29Z</time>
      </trkpt>
      <trkpt lat="44.47122" lon="1.83824">
        <ele>174.2</ele>
        <time>2022-04-10T12:14:30Z</time>
      </trkpt>
      <trkpt lat="44.47114" lon="1.83826">
        <ele>173.7</ele>
        <time>2022-04-10T12:14:31Z</time>
      </trkpt>
      <trkpt lat="44.47106" lon="1.83828">
        <ele>173.1</ele>
        <time>2022-04-10T12:14:32Z</time>
      </trkpt>
      <trkpt lat="44.47098" lon="1.83829">
        <ele>172.4</ele>
        <time>2022-04-10T12:14:33Z</time>
      </trkpt>
      <trkpt lat="44.4709" lon="1.83831">
        <ele>171.7</ele>
        <time>2022-04-10T12:14:34Z</time>
      </trkpt>
      <trkpt lat="44.47081" lon="1.83831">
        <ele>171</ele>
        <time>2022-04-10T12:14:35Z</time>
      </trkpt>
      <trkpt lat="44.47073" lon="1.83832">
        <ele>170.3</ele>
        <time>2022-04-10T12:14:36Z</time>
      </trkpt>
      <trkpt lat="44.47064" lon="1.83833">
        <ele>169.5</ele>
        <time>2022-04-10T12:14:37Z</time>
      </trkpt>
      <trkpt lat="44.47055" lon="1.83835">
        <ele>168.8</ele>
        <time>2022-04-10T12:14:38Z</time>
      </trkpt>
      <trkpt lat="44.47046" lon="1.83836">
        <ele>168</ele>
        <time>2022-04-10T12:14:39Z</time>
      </trkpt>
      <trkpt lat="44.47036" lon="1.83837">
        <ele>167.1</ele>
        <time>2022-04-10T12:14:40Z</time>
      </trkpt>
      <trkpt lat="44.47026" lon="1.83838">
        <ele>166.3</ele>
        <time>2022-04-10T12:14:41Z</time>
      </trkpt>
      <trkpt lat="44.47017" lon="1.83839">
        <ele>165.4</ele>
        <time>2022-04-10T12:14:42Z</time>
      </trkpt>
      <trkpt lat="44.47007" lon="1.8384">
        <ele>164.5</ele>
        <time>2022-04-10T12:14:43Z</time>
      </trkpt>
      <trkpt lat="44.46997" lon="1.83841">
        <ele>163.5</ele>
        <time>2022-04-10T12:14:44Z</time>
      </trkpt>
      <trkpt lat="44.46987" lon="1.83842">
        <ele>162.6</ele>
        <time>2022-04-10T12:14:45Z</time>
      </trkpt>
      <trkpt lat="44.46977" lon="1.83843">
        <ele>161.6</ele>
        <time>2022-04-10T12:14:46Z</time>
      </trkpt>
      <trkpt lat="44.46966" lon="1.83844">
        <ele>160.7</ele>
        <time>2022-04-10T12:14:47Z</time>
      </trkpt>
      <trkpt lat="44.46956" lon="1.83845">
        <ele>159.7</ele>
        <time>2022-04-10T12:14:48Z</time>
      </trkpt>
      <trkpt lat="44.46945" lon="1.83846">
        <ele>158.7</ele>
        <time>2022-04-10T12:14:49Z</time>
      </trkpt>
      <trkpt lat="44.46934" lon="1.83846">
        <ele>157.8</ele>
        <time>2022-04-10T12:14:50Z</time>
      </trkpt>
      <trkpt lat="44.46923" lon="1.83845">
        <ele>156.8</ele>
        <time>2022-04-10T12:14:51Z</time>
      </trkpt>
      <trkpt lat="44.46912" lon="1.83844">
        <ele>155.9</ele>
        <time>2022-04-10T12:14:52Z</time>
      </trkpt>
      <trkpt lat="44.46902" lon="1.83842">
        <ele>155.1</ele>
        <time>2022-04-10T12:14:53Z</time>
      </trkpt>
      <trkpt lat="44.46891" lon="1.8384">
        <ele>154.4</ele>
        <time>2022-04-10T12:14:54Z</time>
      </trkpt>
      <trkpt lat="44.4688" lon="1.83837">
        <ele>153.7</ele>
        <time>2022-04-10T12:14:55Z</time>
      </trkpt>
      <trkpt lat="44.46869" lon="1.83834">
        <ele>153.1</ele>
        <time>2022-04-10T12:14:56Z</time>
      </trkpt>
      <trkpt lat="44.46859" lon="1.83831">
        <ele>152.6</ele>
        <time>2022-04-10T12:14:57Z</time>
      </trkpt>
      <trkpt lat="44.46849" lon="1.83827">
        <ele>152.2</ele>
        <time>2022-04-10T12:14:58Z</time>
      </trkpt>
      <trkpt lat="44.46839" lon="1.83823">
        <ele>151.8</ele>
        <time>2022-04-10T12:14:59Z</time>
      </trkpt>
      <trkpt lat="44.4683" lon="1.83816">
        <ele>151.5</ele>
        <time>2022-04-10T12:15:00Z</time>
      </trkpt>
      <trkpt lat="44.46823" lon="1.83805">
        <ele>151.2</ele>
        <time>2022-04-10T12:15:01Z</time>
      </trkpt>
      <trkpt lat="44.46817" lon="1.83794">
        <ele>151</ele>
        <time>2022-04-10T12:15:02Z</time>
      </trkpt>
      <trkpt lat="44.46812" lon="1.83783">
        <ele>150.9</ele>
        <time>2022-04-10T12:15:03Z</time>
      </trkpt>
      <trkpt lat="44.46808" lon="1.83771">
        <ele>150.8</ele>
        <time>2022-04-10T12:15:04Z</time>
      </trkpt>
      <trkpt lat="44.46806" lon="1.83759">
        <ele>150.8</ele>
        <time>2022-04-10T12:15:05Z</time>
      </trkpt>
      <trkpt lat="44.46805" lon="1.83747">
        <ele>150.8</ele>
        <time>2022-04-10T12:15:06Z</time>
      </trkpt>
      <trkpt lat="44.46805" lon="1.83736">
        <ele>150.8</ele>
        <time>2022-04-10T12:15:07Z</time>
      </trkpt>
      <trkpt lat="44.46806" lon="1.83725">
        <ele>150.8</ele>
        <time>2022-04-10T12:15:08Z</time>
      </trkpt>
      <trkpt lat="44.46808" lon="1.83714">
        <ele>150.9</ele>
        <time>2022-04-10T12:15:09Z</time>
      </trkpt>
      <trkpt lat="44.46809" lon="1.83703">
        <ele>150.9</ele>
        <time>2022-04-10T12:15:10Z</time>
      </trkpt>
      <trkpt lat="44.4681" lon="1.83692">
        <ele>151</ele>
        <time>2022-04-10T12:15:11Z</time>
      </trkpt>
      <trkpt lat="44.46811" lon="1.83682">
        <ele>151</ele>
        <time>2022-04-10T12:15:12Z</time>
      </trkpt>
      <trkpt lat="44.46812" lon="1.83672">
        <ele>151</ele>
        <time>2022-04-10T12:15:13Z</time>
      </trkpt>
      <trkpt lat="44.46813" lon="1.83662">
        <ele>151.1</ele>
        <time>2022-04-10T12:15:14Z</time>
      </trkpt>
      <trkpt lat="44.46814" lon="1.83652">
        <ele>151.1</ele>
        <time>2022-04-10T12:15:15Z</time>
      </trkpt>
      <trkpt lat="44.46815" lon="1.83642">
        <ele>151.1</ele>
        <time>2022-04-10T12:15:16Z</time>
      </trkpt>
      <trkpt lat="44.46816" lon="1.83633">
        <ele>151.1</ele>
        <time>2022-04-10T12:15:17Z</time>
      </trkpt>
      <trkpt lat="44.46817" lon="1.83624">
        <ele>151.2</ele>
        <time>2022-04-10T12:15:18Z</time>
      </trkpt>
      <trkpt lat="44.46818" lon="1.83614">
        <ele>151.2</ele>
        <time>2022-04-10T12:15:19Z</time>
      </trkpt>
      <trkpt lat="44.46818" lon="1.83605">
        <ele>151.2</ele>
        <time>2022-04-10T12:15:20Z</time>
      </trkpt>
      <trkpt lat="44.46819" lon="1.83596">
        <ele>151.3</ele>
        <time>2022-04-10T12:15:21Z</time>
      </trkpt>
      <trkpt lat="44.46819" lon="1.83587">
        <ele>151.3</ele>
        <time>2022-04-10T12:15:22Z</time>
      </trkpt>
      <trkpt lat="44.4682" lon="1.83578">
        <ele>151.4</ele>
        <time>2022-04-10T12:15:23Z</time>
      </trkpt>
      <trkpt lat="44.4682" lon="1.8357">
        <ele>151.5</ele>
        <time>2022-04-10T12:15:24Z</time>
      </trkpt>
      <trkpt lat="44.46821" lon="1.83561">
        <ele>151.5</ele>
        <time>2022-04-10T12:15:25Z</time>
      </trkpt>
      <trkpt lat="44.46822" lon="1.83552">
        <ele>151.5</ele>
        <time>2022-04-10T12:15:26Z</time>
      </trkpt>
      <trkpt lat="44.46823" lon="1.83544">
        <ele>151.6</ele>
        <time>2022-04-10T12:15:27Z</time>
      </trkpt>
      <trkpt lat="44.46825" lon="1.83535">
        <ele>151.6</ele>
        <time>2022-04-10T12:15:28Z</time>
      </trkpt>
      <trkpt lat="44.46827" lon="1.83527">
        <ele>151.6</ele>
        <time>2022-04-10T12:15:29Z</time>
      </trkpt>
      <trkpt lat="44.46829" lon="1.83518">
        <ele>151.6</ele>
        <time>2022-04-10T12:15:30Z</time>
      </trkpt>
      <trkpt lat="44.46831" lon="1.8351">
        <ele>151.7</ele>
        <time>2022-04-10T12:15:31Z</time>
      </trkpt>
      <trkpt lat="44.46833" lon="1.83502">
        <ele>151.7</ele>
        <time>2022-04-10T12:15:32Z</time>
      </trkpt>
      <trkpt lat="44.46835" lon="1.83494">
        <ele>151.7</ele>
        <time>2022-04-10T12:15:33Z</time>
      </trkpt>
      <trkpt lat="44.46837" lon="1.83486">
        <ele>151.7</ele>
        <time>2022-04-10T12:15:34Z</time>
      </trkpt>
      <trkpt lat="44.4684" lon="1.83478">
        <ele>151.7</ele>
        <time>2022-04-10T12:15:35Z</time>
      </trkpt>
      <trkpt lat="44.46843" lon="1.8347">
        <ele>151.6</ele>
        <time>2022-04-10T12:15:36Z</time>
      </trkpt>
      <trkpt lat="44.46845" lon="1.83461">
        <ele>151.6</ele>
        <time>2022-04-10T12:15:37Z</time>
      </trkpt>
      <trkpt lat="44.46846" lon="1.83452">
        <ele>151.6</ele>
        <time>2022-04-10T12:15:38Z</time>
      </trkpt>
      <trkpt lat="44.46847" lon="1.83444">
        <ele>151.6</ele>
        <time>2022-04-10T12:15:39Z</time>
      </trkpt>
      <trkpt lat="44.46848" lon="1.83435">
        <ele>151.6</ele>
        <time>2022-04-10T12:15:40Z</time>
      </trkpt>
      <trkpt lat="44.4685" lon="1.83426">
        <ele>151.6</ele>
        <time>2022-04-10T12:15:41Z</time>
      </trkpt>
      <trkpt lat="44.46851" lon="1.83417">
        <ele>151.7</ele>
        <time>2022-04-10T12:15:42Z</time>
      </trkpt>
      <trkpt lat="44.46852" lon="1.83407">
        <ele>151.7</ele>
        <time>2022-04-10T12:15:43Z</time>
      </trkpt>
      <trkpt lat="44.46854" lon="1.83398">
        <ele>151.7</ele>
        <time>2022-04-10T12:15:44Z</time>
      </trkpt>
      <trkpt lat="44.46855" lon="1.83389">
        <ele>151.7</ele>
        <time>2022-04-10T12:15:45Z</time>
      </trkpt>
      <trkpt lat="44.46856" lon="1.8338">
        <ele>151.7</ele>
        <time>2022-04-10T12:15:46Z</time>
      </trkpt>
      <trkpt lat="44.46858" lon="1.8337">
        <ele>151.7</ele>
        <time>2022-04-10T12:15:47Z</time>
      </trkpt>
      <trkpt lat="44.4686" lon="1.83361">
        <ele>151.7</ele>
        <time>2022-04-10T12:15:48Z</time>
      </trkpt>
      <trkpt lat="44.46861" lon="1.83352">
        <ele>151.7</ele>
        <time>2022-04-10T12:15:49Z</time>
      </trkpt>
      <trkpt lat="44.46862" lon="1.83343">
        <ele>151.7</ele>
        <time>2022-04-10T12:15:50Z</time>
      </trkpt>
      <trkpt lat="44.46863" lon="1.83334">
        <ele>151.8</ele>
        <time>2022-04-10T12:15:51Z</time>
      </trkpt>
      <trkpt lat="44.46865" lon="1.83325">
        <ele>151.8</ele>
        <time>2022-04-10T12:15:52Z</time>
      </trkpt>
      <trkpt lat="44.46865" lon="1.83316">
        <ele>151.9</ele>
        <time>2022-04-10T12:15:53Z</time>
      </trkpt>
      <trkpt lat="44.46866" lon="1.83307">
        <ele>151.9</ele>
        <time>2022-04-10T12:15:54Z</time>
      </trkpt>
      <trkpt lat="44.46867" lon="1.83298">
        <ele>152</ele>
        <time>2022-04-10T12:15:55Z</time>
      </trkpt>
      <trkpt lat="44.46868" lon="1.83289">
        <ele>152</ele>
        <time>2022-04-10T12:15:56Z</time>
      </trkpt>
      <trkpt lat="44.4687" lon="1.8328">
        <ele>152.1</ele>
        <time>2022-04-10T12:15:57Z</time>
      </trkpt>
      <trkpt lat="44.4687" lon="1.83272">
        <ele>152.1</ele>
        <time>2022-04-10T12:15:58Z</time>
      </trkpt>
      <trkpt lat="44.46871" lon="1.83263">
        <ele>152.2</ele>
        <time>2022-04-10T12:15:59Z</time>
      </trkpt>
      <trkpt lat="44.46872" lon="1.83254">
        <ele>152.2</ele>
        <time>2022-04-10T12:16:00Z</time>
      </trkpt>
      <trkpt lat="44.46872" lon="1.83246">
        <ele>152.3</ele>
        <time>2022-04-10T12:16:01Z</time>
      </trkpt>
      <trkpt lat="44.46873" lon="1.83237">
        <ele>152.3</ele>
        <time>2022-04-10T12:16:02Z</time>
      </trkpt>
      <trkpt lat="44.46873" lon="1.83228">
        <ele>152.4</ele>
        <time>2022-04-10T12:16:03Z</time>
      </trkpt>
      <trkpt lat="44.46873" lon="1.8322">
        <ele>152.4</ele>
        <time>2022-04-10T12:16:04Z</time>
      </trkpt>
      <trkpt lat="44.46873" lon="1.83211">
        <ele>152.5</ele>
        <time>2022-04-10T12:16:05Z</time>
      </trkpt>
      <trkpt lat="44.46873" lon="1.83203">
        <ele>152.5</ele>
        <time>2022-04-10T12:16:06Z</time>
      </trkpt>
      <trkpt lat="44.46873" lon="1.83194">
        <ele>152.6</ele>
        <time>2022-04-10T12:16:07Z</time>
      </trkpt>
      <trkpt lat="44.46872" lon="1.83186">
        <ele>152.7</ele>
        <time>2022-04-10T12:16:08Z</time>
      </trkpt>
      <trkpt lat="44.46872" lon="1.83177">
        <ele>152.7</ele>
        <time>2022-04-10T12:16:09Z</time>
      </trkpt>
      <trkpt lat="44.46872" lon="1.83169">
        <ele>152.8</ele>
        <time>2022-04-10T12:16:10Z</time>
      </trkpt>
      <trkpt lat="44.46871" lon="1.83161">
        <ele>152.9</ele>
        <time>2022-04-10T12:16:11Z</time>
      </trkpt>
      <trkpt lat="44.46871" lon="1.83153">
        <ele>152.9</ele>
        <time>2022-04-10T12:16:12Z</time>
      </trkpt>
      <trkpt lat="44.4687" lon="1.83145">
        <ele>153</ele>
        <time>2022-04-10T12:16:13Z</time>
      </trkpt>
      <trkpt lat="44.4687" lon="1.83137">
        <ele>153</ele>
        <time>2022-04-10T12:16:14Z</time>
      </trkpt>
      <trkpt lat="44.46869" lon="1.8313">
        <ele>153.1</ele>
        <time>2022-04-10T12:16:15Z</time>
      </trkpt>
      <trkpt lat="44.46869" lon="1.83122">
        <ele>153.2</ele>
        <time>2022-04-10T12:16:16Z</time>
      </trkpt>
      <trkpt lat="44.46868" lon="1.83115">
        <ele>153.2</ele>
        <time>2022-04-10T12:16:17Z</time>
      </trkpt>
      <trkpt lat="44.46868" lon="1.83107">
        <ele>153.3</ele>
        <time>2022-04-10T12:16:18Z</time>
      </trkpt>
      <trkpt lat="44.46868" lon="1.831">
        <ele>153.3</ele>
        <time>2022-04-10T12:16:19Z</time>
      </trkpt>
      <trkpt lat="44.46868" lon="1.83093">
        <ele>153.4</ele>
        <time>2022-04-10T12:16:20Z</time>
      </trkpt>
      <trkpt lat="44.46868" lon="1.83087">
        <ele>153.5</ele>
        <time>2022-04-10T12:16:21Z</time>
      </trkpt>
      <trkpt lat="44.46868" lon="1.8308">
        <ele>153.5</ele>
        <time>2022-04-10T12:16:22Z</time>
      </trkpt>
      <trkpt lat="44.46867" lon="1.83073">
        <ele>153.6</ele>
        <time>2022-04-10T12:16:23Z</time>
      </trkpt>
      <trkpt lat="44.46867" lon="1.83066">
        <ele>153.7</ele>
        <time>2022-04-10T12:16:24Z</time>
      </trkpt>
      <trkpt lat="44.46867" lon="1.8306">
        <ele>153.7</ele>
        <time>2022-04-10T12:16:25Z</time>
      </trkpt>
      <trkpt lat="44.46866" lon="1.83053">
        <ele>153.8</ele>
        <time>2022-04-10T12:16:26Z</time>
      </trkpt>
      <trkpt lat="44.46866" lon="1.83047">
        <ele>153.8</ele>
        <time>2022-04-10T12:16:27Z</time>
      </trkpt>
      <trkpt lat="44.46866" lon="1.8304">
        <ele>153.9</ele>
        <time>2022-04-10T12:16:28Z</time>
      </trkpt>
      <trkpt lat="44.46865" lon="1.83034">
        <ele>153.9</ele>
        <time>2022-04-10T12:16:29Z</time>
      </trkpt>
      <trkpt lat="44.46865" lon="1.8303">
        <ele>154</ele>
        <time>2022-04-10T12:16:30Z</time>
      </trkpt>
      <trkpt lat="44.46865" lon="1.83024">
        <ele>154</ele>
        <time>2022-04-10T12:16:31Z</time>
      </trkpt>
      <trkpt lat="44.46865" lon="1.83019">
        <ele>154.1</ele>
        <time>2022-04-10T12:16:32Z</time>
      </trkpt>
      <trkpt lat="44.46865" lon="1.83013">
        <ele>154.1</ele>
        <time>2022-04-10T12:16:33Z</time>
      </trkpt>
      <trkpt lat="44.46865" lon="1.83007">
        <ele>154.2</ele>
        <time>2022-04-10T12:16:34Z</time>
      </trkpt>
      <trkpt lat="44.46864" lon="1.83">
        <ele>154.2</ele>
        <time>2022-04-10T12:16:35Z</time>
      </trkpt>
      <trkpt lat="44.46864" lon="1.82996">
        <ele>154.3</ele>
        <time>2022-04-10T12:16:36Z</time>
      </trkpt>
      <trkpt lat="44.46865" lon="1.82991">
        <ele>154.3</ele>
        <time>2022-04-10T12:16:38Z</time>
      </trkpt>
      <trkpt lat="44.46865" lon="1.82982">
        <ele>154.4</ele>
        <time>2022-04-10T12:16:39Z</time>
      </trkpt>
      <trkpt lat="44.46864" lon="1.82977">
        <ele>154.5</ele>
        <time>2022-04-10T12:16:40Z</time>
      </trkpt>
      <trkpt lat="44.46863" lon="1.82971">
        <ele>154.5</ele>
        <time>2022-04-10T12:16:41Z</time>
      </trkpt>
      <trkpt lat="44.46862" lon="1.82965">
        <ele>154.6</ele>
        <time>2022-04-10T12:16:43Z</time>
      </trkpt>
      <trkpt lat="44.46862" lon="1.82957">
        <ele>154.7</ele>
        <time>2022-04-10T12:16:44Z</time>
      </trkpt>
      <trkpt lat="44.46861" lon="1.8295">
        <ele>154.7</ele>
        <time>2022-04-10T12:16:45Z</time>
      </trkpt>
      <trkpt lat="44.46861" lon="1.82945">
        <ele>154.8</ele>
        <time>2022-04-10T12:16:46Z</time>
      </trkpt>
      <trkpt lat="44.46859" lon="1.82939">
        <ele>154.9</ele>
        <time>2022-04-10T12:16:47Z</time>
      </trkpt>
      <trkpt lat="44.46858" lon="1.82933">
        <ele>154.9</ele>
        <time>2022-04-10T12:16:48Z</time>
      </trkpt>
      <trkpt lat="44.46857" lon="1.82928">
        <ele>155</ele>
        <time>2022-04-10T12:16:49Z</time>
      </trkpt>
      <trkpt lat="44.46855" lon="1.82921">
        <ele>155</ele>
        <time>2022-04-10T12:16:51Z</time>
      </trkpt>
      <trkpt lat="44.46853" lon="1.82916">
        <ele>155.1</ele>
        <time>2022-04-10T12:16:52Z</time>
      </trkpt>
      <trkpt lat="44.4685" lon="1.8291">
        <ele>155.2</ele>
        <time>2022-04-10T12:16:53Z</time>
      </trkpt>
      <trkpt lat="44.46849" lon="1.82906">
        <ele>155.2</ele>
        <time>2022-04-10T12:16:54Z</time>
      </trkpt>
      <trkpt lat="44.46847" lon="1.82903">
        <ele>155.3</ele>
        <time>2022-04-10T12:16:55Z</time>
      </trkpt>
      <trkpt lat="44.46846" lon="1.82899">
        <ele>155.3</ele>
        <time>2022-04-10T12:16:56Z</time>
      </trkpt>
      <trkpt lat="44.46849" lon="1.82894">
        <ele>155.2</ele>
        <time>2022-04-10T12:16:57Z</time>
      </trkpt>
      <trkpt lat="44.46853" lon="1.82887">
        <ele>155</ele>
        <time>2022-04-10T12:16:59Z</time>
      </trkpt>
      <trkpt lat="44.46859" lon="1.82885">
        <ele>154.7</ele>
        <time>2022-04-10T12:17:00Z</time>
      </trkpt>
      <trkpt lat="44.46864" lon="1.82887">
        <ele>154.5</ele>
        <time>2022-04-10T12:17:01Z</time>
      </trkpt>
      <trkpt lat="44.4687" lon="1.82888">
        <ele>154.2</ele>
        <time>2022-04-10T12:17:02Z</time>
      </trkpt>
      <trkpt lat="44.46875" lon="1.82889">
        <ele>154</ele>
        <time>2022-04-10T12:17:03Z</time>
      </trkpt>
      <trkpt lat="44.4688" lon="1.82891">
        <ele>153.7</ele>
        <time>2022-04-10T12:17:04Z</time>
      </trkpt>
      <trkpt lat="44.46886" lon="1.82893">
        <ele>153.4</ele>
        <time>2022-04-10T12:17:05Z</time>
      </trkpt>
      <trkpt lat="44.46891" lon="1.82895">
        <ele>153.2</ele>
        <time>2022-04-10T12:17:06Z</time>
      </trkpt>
      <trkpt lat="44.46898" lon="1.82897">
        <ele>153</ele>
        <time>2022-04-10T12:17:07Z</time>
      </trkpt>
      <trkpt lat="44.46904" lon="1.82901">
        <ele>152.8</ele>
        <time>2022-04-10T12:17:08Z</time>
      </trkpt>
      <trkpt lat="44.4691" lon="1.82905">
        <ele>152.5</ele>
        <time>2022-04-10T12:17:09Z</time>
      </trkpt>
      <trkpt lat="44.46916" lon="1.82909">
        <ele>152</ele>
        <time>2022-04-10T12:17:10Z</time>
      </trkpt>
      <trkpt lat="44.46922" lon="1.82912">
        <ele>151.5</ele>
        <time>2022-04-10T12:17:11Z</time>
      </trkpt>
      <trkpt lat="44.46929" lon="1.82916">
        <ele>150.9</ele>
        <time>2022-04-10T12:17:12Z</time>
      </trkpt>
      <trkpt lat="44.46937" lon="1.8292">
        <ele>150.2</ele>
        <time>2022-04-10T12:17:13Z</time>
      </trkpt>
      <trkpt lat="44.46945" lon="1.82924">
        <ele>149.6</ele>
        <time>2022-04-10T12:17:14Z</time>
      </trkpt>
      <trkpt lat="44.46953" lon="1.82928">
        <ele>149.1</ele>
        <time>2022-04-10T12:17:15Z</time>
      </trkpt>
      <trkpt lat="44.4696" lon="1.82932">
        <ele>148.7</ele>
        <time>2022-04-10T12:17:16Z</time>
      </trkpt>
      <trkpt lat="44.46968" lon="1.82936">
        <ele>148.3</ele>
        <time>2022-04-10T12:17:17Z</time>
      </trkpt>
      <trkpt lat="44.46976" lon="1.8294">
        <ele>148</ele>
        <time>2022-04-10T12:17:18Z</time>
      </trkpt>
      <trkpt lat="44.46984" lon="1.82943">
        <ele>147.6</ele>
        <time>2022-04-10T12:17:19Z</time>
      </trkpt>
      <trkpt lat="44.46991" lon="1.82947">
        <ele>147.3</ele>
        <time>2022-04-10T12:17:20Z</time>
      </trkpt>
      <trkpt lat="44.46999" lon="1.82952">
        <ele>146.9</ele>
        <time>2022-04-10T12:17:21Z</time>
      </trkpt>
      <trkpt lat="44.47006" lon="1.82956">
        <ele>146.6</ele>
        <time>2022-04-10T12:17:22Z</time>
      </trkpt>
      <trkpt lat="44.47014" lon="1.8296">
        <ele>146.4</ele>
        <time>2022-04-10T12:17:23Z</time>
      </trkpt>
      <trkpt lat="44.47022" lon="1.82964">
        <ele>146.2</ele>
        <time>2022-04-10T12:17:24Z</time>
      </trkpt>
      <trkpt lat="44.47031" lon="1.82968">
        <ele>146.1</ele>
        <time>2022-04-10T12:17:25Z</time>
      </trkpt>
      <trkpt lat="44.47038" lon="1.82972">
        <ele>146</ele>
        <time>2022-04-10T12:17:26Z</time>
      </trkpt>
      <trkpt lat="44.47045" lon="1.82976">
        <ele>146</ele>
        <time>2022-04-10T12:17:27Z</time>
      </trkpt>
      <trkpt lat="44.47053" lon="1.8298">
        <ele>146</ele>
        <time>2022-04-10T12:17:28Z</time>
      </trkpt>
      <trkpt lat="44.4706" lon="1.82984">
        <ele>146</ele>
        <time>2022-04-10T12:17:29Z</time>
      </trkpt>
      <trkpt lat="44.47067" lon="1.82987">
        <ele>146</ele>
        <time>2022-04-10T12:17:30Z</time>
      </trkpt>
      <trkpt lat="44.47074" lon="1.82991">
        <ele>146</ele>
        <time>2022-04-10T12:17:31Z</time>
      </trkpt>
      <trkpt lat="44.47081" lon="1.82995">
        <ele>146.1</ele>
        <time>2022-04-10T12:17:32Z</time>
      </trkpt>
      <trkpt lat="44.47088" lon="1.82997">
        <ele>146.1</ele>
        <time>2022-04-10T12:17:33Z</time>
      </trkpt>
      <trkpt lat="44.47095" lon="1.83">
        <ele>146</ele>
        <time>2022-04-10T12:17:34Z</time>
      </trkpt>
      <trkpt lat="44.47102" lon="1.83003">
        <ele>146</ele>
        <time>2022-04-10T12:17:35Z</time>
      </trkpt>
      <trkpt lat="44.47109" lon="1.83005">
        <ele>145.9</ele>
        <time>2022-04-10T12:17:36Z</time>
      </trkpt>
      <trkpt lat="44.47116" lon="1.83007">
        <ele>145.9</ele>
        <time>2022-04-10T12:17:37Z</time>
      </trkpt>
      <trkpt lat="44.47123" lon="1.83009">
        <ele>145.8</ele>
        <time>2022-04-10T12:17:38Z</time>
      </trkpt>
      <trkpt lat="44.4713" lon="1.83011">
        <ele>145.8</ele>
        <time>2022-04-10T12:17:39Z</time>
      </trkpt>
      <trkpt lat="44.47137" lon="1.83012">
        <ele>145.7</ele>
        <time>2022-04-10T12:17:40Z</time>
      </trkpt>
      <trkpt lat="44.47144" lon="1.83014">
        <ele>145.7</ele>
        <time>2022-04-10T12:17:41Z</time>
      </trkpt>
      <trkpt lat="44.4715" lon="1.83015">
        <ele>145.7</ele>
        <time>2022-04-10T12:17:42Z</time>
      </trkpt>
      <trkpt lat="44.47156" lon="1.83017">
        <ele>145.7</ele>
        <time>2022-04-10T12:17:43Z</time>
      </trkpt>
      <trkpt lat="44.47162" lon="1.83018">
        <ele>145.7</ele>
        <time>2022-04-10T12:17:44Z</time>
      </trkpt>
      <trkpt lat="44.47167" lon="1.8302">
        <ele>145.7</ele>
        <time>2022-04-10T12:17:45Z</time>
      </trkpt>
      <trkpt lat="44.47172" lon="1.83021">
        <ele>145.7</ele>
        <time>2022-04-10T12:17:46Z</time>
      </trkpt>
      <trkpt lat="44.47177" lon="1.83022">
        <ele>145.7</ele>
        <time>2022-04-10T12:17:47Z</time>
      </trkpt>
      <trkpt lat="44.47182" lon="1.83023">
        <ele>145.7</ele>
        <time>2022-04-10T12:17:48Z</time>
      </trkpt>
      <trkpt lat="44.47187" lon="1.83024">
        <ele>145.8</ele>
        <time>2022-04-10T12:17:49Z</time>
      </trkpt>
      <trkpt lat="44.47193" lon="1.83025">
        <ele>145.8</ele>
        <time>2022-04-10T12:17:50Z</time>
      </trkpt>
      <trkpt lat="44.47198" lon="1.83025">
        <ele>145.9</ele>
        <time>2022-04-10T12:17:51Z</time>
      </trkpt>
      <trkpt lat="44.47204" lon="1.83024">
        <ele>146</ele>
        <time>2022-04-10T12:17:52Z</time>
      </trkpt>
      <trkpt lat="44.47209" lon="1.83023">
        <ele>146.2</ele>
        <time>2022-04-10T12:17:53Z</time>
      </trkpt>
      <trkpt lat="44.47214" lon="1.83022">
        <ele>146.4</ele>
        <time>2022-04-10T12:17:54Z</time>
      </trkpt>
      <trkpt lat="44.47218" lon="1.8302">
        <ele>146.6</ele>
        <time>2022-04-10T12:17:55Z</time>
      </trkpt>
      <trkpt lat="44.47222" lon="1.83017">
        <ele>146.8</ele>
        <time>2022-04-10T12:17:56Z</time>
      </trkpt>
      <trkpt lat="44.47224" lon="1.83014">
        <ele>147</ele>
        <time>2022-04-10T12:17:57Z</time>
      </trkpt>
      <trkpt lat="44.47227" lon="1.83009">
        <ele>147.2</ele>
        <time>2022-04-10T12:17:58Z</time>
      </trkpt>
      <trkpt lat="44.4723" lon="1.83005">
        <ele>147.5</ele>
        <time>2022-04-10T12:17:59Z</time>
      </trkpt>
      <trkpt lat="44.47233" lon="1.83">
        <ele>147.8</ele>
        <time>2022-04-10T12:18:00Z</time>
      </trkpt>
      <trkpt lat="44.47235" lon="1.82995">
        <ele>148.1</ele>
        <time>2022-04-10T12:18:01Z</time>
      </trkpt>
      <trkpt lat="44.47237" lon="1.8299">
        <ele>148.4</ele>
        <time>2022-04-10T12:18:02Z</time>
      </trkpt>
      <trkpt lat="44.47239" lon="1.82985">
        <ele>148.8</ele>
        <time>2022-04-10T12:18:03Z</time>
      </trkpt>
      <trkpt lat="44.47241" lon="1.82978">
        <ele>149.2</ele>
        <time>2022-04-10T12:18:05Z</time>
      </trkpt>
      <trkpt lat="44.47243" lon="1.82973">
        <ele>149.6</ele>
        <time>2022-04-10T12:18:06Z</time>
      </trkpt>
      <trkpt lat="44.47245" lon="1.82967">
        <ele>150</ele>
        <time>2022-04-10T12:18:07Z</time>
      </trkpt>
      <trkpt lat="44.47248" lon="1.8296">
        <ele>150.5</ele>
        <time>2022-04-10T12:18:08Z</time>
      </trkpt>
      <trkpt lat="44.4725" lon="1.82953">
        <ele>151</ele>
        <time>2022-04-10T12:18:09Z</time>
      </trkpt>
      <trkpt lat="44.47252" lon="1.82948">
        <ele>151.4</ele>
        <time>2022-04-10T12:18:10Z</time>
      </trkpt>
      <trkpt lat="44.47254" lon="1.82943">
        <ele>151.7</ele>
        <time>2022-04-10T12:18:11Z</time>
      </trkpt>
      <trkpt lat="44.47256" lon="1.82937">
        <ele>152.1</ele>
        <time>2022-04-10T12:18:12Z</time>
      </trkpt>
      <trkpt lat="44.47258" lon="1.82933">
        <ele>152.4</ele>
        <time>2022-04-10T12:18:13Z</time>
      </trkpt>
      <trkpt lat="44.4726" lon="1.82928">
        <ele>152.8</ele>
        <time>2022-04-10T12:18:14Z</time>
      </trkpt>
      <trkpt lat="44.47261" lon="1.82923">
        <ele>153.1</ele>
        <time>2022-04-10T12:18:15Z</time>
      </trkpt>
      <trkpt lat="44.47263" lon="1.82918">
        <ele>153.5</ele>
        <time>2022-04-10T12:18:16Z</time>
      </trkpt>
      <trkpt lat="44.47266" lon="1.82912">
        <ele>153.9</ele>
        <time>2022-04-10T12:18:18Z</time>
      </trkpt>
      <trkpt lat="44.47267" lon="1.82907">
        <ele>154.2</ele>
        <time>2022-04-10T12:18:19Z</time>
      </trkpt>
      <trkpt lat="44.4727" lon="1.82899">
        <ele>154.7</ele>
        <time>2022-04-10T12:18:20Z</time>
      </trkpt>
      <trkpt lat="44.47272" lon="1.82891">
        <ele>155.3</ele>
        <time>2022-04-10T12:18:21Z</time>
      </trkpt>
      <trkpt lat="44.47275" lon="1.82885">
        <ele>155.7</ele>
        <time>2022-04-10T12:18:22Z</time>
      </trkpt>
      <trkpt lat="44.47277" lon="1.82879">
        <ele>156.1</ele>
        <time>2022-04-10T12:18:23Z</time>
      </trkpt>
      <trkpt lat="44.47279" lon="1.82873">
        <ele>156.6</ele>
        <time>2022-04-10T12:18:24Z</time>
      </trkpt>
      <trkpt lat="44.47281" lon="1.82868">
        <ele>156.9</ele>
        <time>2022-04-10T12:18:25Z</time>
      </trkpt>
      <trkpt lat="44.47283" lon="1.82862">
        <ele>157.3</ele>
        <time>2022-04-10T12:18:26Z</time>
      </trkpt>
      <trkpt lat="44.47285" lon="1.82858">
        <ele>157.5</ele>
        <time>2022-04-10T12:18:27Z</time>
      </trkpt>
      <trkpt lat="44.47287" lon="1.82852">
        <ele>157.8</ele>
        <time>2022-04-10T12:18:28Z</time>
      </trkpt>
      <trkpt lat="44.47289" lon="1.82847">
        <ele>158.4</ele>
        <time>2022-04-10T12:18:29Z</time>
      </trkpt>
      <trkpt lat="44.4729" lon="1.82842">
        <ele>158.8</ele>
        <time>2022-04-10T12:18:30Z</time>
      </trkpt>
      <trkpt lat="44.4729" lon="1.8284">
        <ele>158.9</ele>
        <time>2022-04-10T12:18:31Z</time>
      </trkpt>
      <trkpt lat="44.47287" lon="1.82838">
        <ele>159.3</ele>
        <time>2022-04-10T12:18:32Z</time>
      </trkpt>
      <trkpt lat="44.47283" lon="1.8284">
        <ele>159.9</ele>
        <time>2022-04-10T12:18:34Z</time>
      </trkpt>
      <trkpt lat="44.47281" lon="1.82841">
        <ele>160.1</ele>
        <time>2022-04-10T12:18:35Z</time>
      </trkpt>
      <trkpt lat="44.4728" lon="1.82843">
        <ele>160.3</ele>
        <time>2022-04-10T12:18:36Z</time>
      </trkpt>
      <trkpt lat="44.47276" lon="1.82843">
        <ele>160.8</ele>
        <time>2022-04-10T12:18:37Z</time>
      </trkpt>
      <trkpt lat="44.47275" lon="1.82843">
        <ele>161.1</ele>
        <time>2022-04-10T12:18:38Z</time>
      </trkpt>
      <trkpt lat="44.47272" lon="1.82843">
        <ele>161.5</ele>
        <time>2022-04-10T12:18:39Z</time>
      </trkpt>
      <trkpt lat="44.47268" lon="1.82844">
        <ele>162</ele>
        <time>2022-04-10T12:18:40Z</time>
      </trkpt>
      <trkpt lat="44.47265" lon="1.82845">
        <ele>162.4</ele>
        <time>2022-04-10T12:18:41Z</time>
      </trkpt>
      <trkpt lat="44.47262" lon="1.82846">
        <ele>162.9</ele>
        <time>2022-04-10T12:18:42Z</time>
      </trkpt>
      <trkpt lat="44.47259" lon="1.82849">
        <ele>163.4</ele>
        <time>2022-04-10T12:18:43Z</time>
      </trkpt>
      <trkpt lat="44.47256" lon="1.82851">
        <ele>163.8</ele>
        <time>2022-04-10T12:18:44Z</time>
      </trkpt>
      <trkpt lat="44.47253" lon="1.82852">
        <ele>164.3</ele>
        <time>2022-04-10T12:18:45Z</time>
      </trkpt>
      <trkpt lat="44.47251" lon="1.82853">
        <ele>164.5</ele>
        <time>2022-04-10T12:18:46Z</time>
      </trkpt>
      <trkpt lat="44.47247" lon="1.82854">
        <ele>165.1</ele>
        <time>2022-04-10T12:18:48Z</time>
      </trkpt>
      <trkpt lat="44.47242" lon="1.82856">
        <ele>165.7</ele>
        <time>2022-04-10T12:18:49Z</time>
      </trkpt>
      <trkpt lat="44.47238" lon="1.8286">
        <ele>166.3</ele>
        <time>2022-04-10T12:18:50Z</time>
      </trkpt>
      <trkpt lat="44.47234" lon="1.82862">
        <ele>166.9</ele>
        <time>2022-04-10T12:18:51Z</time>
      </trkpt>
      <trkpt lat="44.47229" lon="1.82866">
        <ele>167.6</ele>
        <time>2022-04-10T12:18:53Z</time>
      </trkpt>
      <trkpt lat="44.47223" lon="1.82869">
        <ele>168.4</ele>
        <time>2022-04-10T12:18:54Z</time>
      </trkpt>
      <trkpt lat="44.47218" lon="1.82872">
        <ele>169</ele>
        <time>2022-04-10T12:18:55Z</time>
      </trkpt>
      <trkpt lat="44.47214" lon="1.82873">
        <ele>169.6</ele>
        <time>2022-04-10T12:18:56Z</time>
      </trkpt>
      <trkpt lat="44.47208" lon="1.82875">
        <ele>170.3</ele>
        <time>2022-04-10T12:18:57Z</time>
      </trkpt>
      <trkpt lat="44.47203" lon="1.82877">
        <ele>170.8</ele>
        <time>2022-04-10T12:18:58Z</time>
      </trkpt>
      <trkpt lat="44.47198" lon="1.82878">
        <ele>171.4</ele>
        <time>2022-04-10T12:18:59Z</time>
      </trkpt>
      <trkpt lat="44.47193" lon="1.82879">
        <ele>171.9</ele>
        <time>2022-04-10T12:19:00Z</time>
      </trkpt>
      <trkpt lat="44.47189" lon="1.8288">
        <ele>172.4</ele>
        <time>2022-04-10T12:19:01Z</time>
      </trkpt>
      <trkpt lat="44.47184" lon="1.82881">
        <ele>172.9</ele>
        <time>2022-04-10T12:19:02Z</time>
      </trkpt>
      <trkpt lat="44.4718" lon="1.82881">
        <ele>173.4</ele>
        <time>2022-04-10T12:19:03Z</time>
      </trkpt>
      <trkpt lat="44.47175" lon="1.82882">
        <ele>173.9</ele>
        <time>2022-04-10T12:19:04Z</time>
      </trkpt>
      <trkpt lat="44.4717" lon="1.82882">
        <ele>174.5</ele>
        <time>2022-04-10T12:19:05Z</time>
      </trkpt>
      <trkpt lat="44.47164" lon="1.82882">
        <ele>175.2</ele>
        <time>2022-04-10T12:19:07Z</time>
      </trkpt>
      <trkpt lat="44.47158" lon="1.82883">
        <ele>175.9</ele>
        <time>2022-04-10T12:19:08Z</time>
      </trkpt>
      <trkpt lat="44.47153" lon="1.82884">
        <ele>176.5</ele>
        <time>2022-04-10T12:19:09Z</time>
      </trkpt>
      <trkpt lat="44.47149" lon="1.82885">
        <ele>177.1</ele>
        <time>2022-04-10T12:19:10Z</time>
      </trkpt>
      <trkpt lat="44.47144" lon="1.82887">
        <ele>177.7</ele>
        <time>2022-04-10T12:19:11Z</time>
      </trkpt>
      <trkpt lat="44.47141" lon="1.8289">
        <ele>178.2</ele>
        <time>2022-04-10T12:19:12Z</time>
      </trkpt>
      <trkpt lat="44.47137" lon="1.82892">
        <ele>178.8</ele>
        <time>2022-04-10T12:19:13Z</time>
      </trkpt>
      <trkpt lat="44.47133" lon="1.82896">
        <ele>179.4</ele>
        <time>2022-04-10T12:19:14Z</time>
      </trkpt>
      <trkpt lat="44.4713" lon="1.829">
        <ele>179.9</ele>
        <time>2022-04-10T12:19:15Z</time>
      </trkpt>
      <trkpt lat="44.47127" lon="1.82904">
        <ele>180.5</ele>
        <time>2022-04-10T12:19:16Z</time>
      </trkpt>
      <trkpt lat="44.47123" lon="1.82907">
        <ele>181.2</ele>
        <time>2022-04-10T12:19:17Z</time>
      </trkpt>
      <trkpt lat="44.47118" lon="1.82911">
        <ele>181.9</ele>
        <time>2022-04-10T12:19:18Z</time>
      </trkpt>
      <trkpt lat="44.47111" lon="1.82915">
        <ele>182.8</ele>
        <time>2022-04-10T12:19:20Z</time>
      </trkpt>
      <trkpt lat="44.47106" lon="1.82917">
        <ele>183.4</ele>
        <time>2022-04-10T12:19:21Z</time>
      </trkpt>
      <trkpt lat="44.47101" lon="1.82918">
        <ele>184</ele>
        <time>2022-04-10T12:19:22Z</time>
      </trkpt>
      <trkpt lat="44.47096" lon="1.82919">
        <ele>184.5</ele>
        <time>2022-04-10T12:19:23Z</time>
      </trkpt>
      <trkpt lat="44.47092" lon="1.82919">
        <ele>184.9</ele>
        <time>2022-04-10T12:19:24Z</time>
      </trkpt>
      <trkpt lat="44.47086" lon="1.82915">
        <ele>185.5</ele>
        <time>2022-04-10T12:19:25Z</time>
      </trkpt>
      <trkpt lat="44.47082" lon="1.82912">
        <ele>186</ele>
        <time>2022-04-10T12:19:26Z</time>
      </trkpt>
      <trkpt lat="44.47077" lon="1.82908">
        <ele>186.4</ele>
        <time>2022-04-10T12:19:27Z</time>
      </trkpt>
      <trkpt lat="44.47073" lon="1.82904">
        <ele>186.9</ele>
        <time>2022-04-10T12:19:28Z</time>
      </trkpt>
      <trkpt lat="44.47068" lon="1.82899">
        <ele>187.3</ele>
        <time>2022-04-10T12:19:29Z</time>
      </trkpt>
      <trkpt lat="44.47064" lon="1.82894">
        <ele>187.7</ele>
        <time>2022-04-10T12:19:30Z</time>
      </trkpt>
      <trkpt lat="44.47059" lon="1.82889">
        <ele>188.1</ele>
        <time>2022-04-10T12:19:31Z</time>
      </trkpt>
      <trkpt lat="44.47055" lon="1.82884">
        <ele>188.5</ele>
        <time>2022-04-10T12:19:32Z</time>
      </trkpt>
      <trkpt lat="44.4705" lon="1.82879">
        <ele>188.8</ele>
        <time>2022-04-10T12:19:33Z</time>
      </trkpt>
      <trkpt lat="44.47046" lon="1.82874">
        <ele>189.1</ele>
        <time>2022-04-10T12:19:34Z</time>
      </trkpt>
      <trkpt lat="44.47041" lon="1.82869">
        <ele>189.4</ele>
        <time>2022-04-10T12:19:35Z</time>
      </trkpt>
      <trkpt lat="44.47036" lon="1.82865">
        <ele>189.6</ele>
        <time>2022-04-10T12:19:36Z</time>
      </trkpt>
      <trkpt lat="44.47031" lon="1.8286">
        <ele>189.7</ele>
        <time>2022-04-10T12:19:37Z</time>
      </trkpt>
      <trkpt lat="44.47026" lon="1.82857">
        <ele>189.7</ele>
        <time>2022-04-10T12:19:38Z</time>
      </trkpt>
      <trkpt lat="44.47021" lon="1.82853">
        <ele>189.7</ele>
        <time>2022-04-10T12:19:39Z</time>
      </trkpt>
      <trkpt lat="44.47015" lon="1.82851">
        <ele>189.6</ele>
        <time>2022-04-10T12:19:40Z</time>
      </trkpt>
      <trkpt lat="44.47009" lon="1.82849">
        <ele>189.5</ele>
        <time>2022-04-10T12:19:41Z</time>
      </trkpt>
      <trkpt lat="44.47003" lon="1.82848">
        <ele>189.4</ele>
        <time>2022-04-10T12:19:42Z</time>
      </trkpt>
      <trkpt lat="44.46997" lon="1.82847">
        <ele>189.2</ele>
        <time>2022-04-10T12:19:43Z</time>
      </trkpt>
      <trkpt lat="44.46991" lon="1.82847">
        <ele>189</ele>
        <time>2022-04-10T12:19:44Z</time>
      </trkpt>
      <trkpt lat="44.46985" lon="1.82847">
        <ele>188.7</ele>
        <time>2022-04-10T12:19:45Z</time>
      </trkpt>
      <trkpt lat="44.46978" lon="1.82847">
        <ele>188.3</ele>
        <time>2022-04-10T12:19:46Z</time>
      </trkpt>
      <trkpt lat="44.46972" lon="1.82847">
        <ele>188</ele>
        <time>2022-04-10T12:19:47Z</time>
      </trkpt>
      <trkpt lat="44.46964" lon="1.82848">
        <ele>187.5</ele>
        <time>2022-04-10T12:19:48Z</time>
      </trkpt>
      <trkpt lat="44.46956" lon="1.82848">
        <ele>187</ele>
        <time>2022-04-10T12:19:49Z</time>
      </trkpt>
      <trkpt lat="44.46948" lon="1.82848">
        <ele>186.4</ele>
        <time>2022-04-10T12:19:50Z</time>
      </trkpt>
      <trkpt lat="44.4694" lon="1.82847">
        <ele>185.8</ele>
        <time>2022-04-10T12:19:51Z</time>
      </trkpt>
      <trkpt lat="44.46933" lon="1.82846">
        <ele>185.5</ele>
        <time>2022-04-10T12:19:52Z</time>
      </trkpt>
      <trkpt lat="44.46925" lon="1.82844">
        <ele>185.1</ele>
        <time>2022-04-10T12:19:53Z</time>
      </trkpt>
      <trkpt lat="44.46917" lon="1.82841">
        <ele>184.8</ele>
        <time>2022-04-10T12:19:54Z</time>
      </trkpt>
      <trkpt lat="44.46909" lon="1.82838">
        <ele>184.5</ele>
        <time>2022-04-10T12:19:55Z</time>
      </trkpt>
      <trkpt lat="44.46901" lon="1.82835">
        <ele>184.1</ele>
        <time>2022-04-10T12:19:56Z</time>
      </trkpt>
      <trkpt lat="44.46893" lon="1.82834">
        <ele>183.8</ele>
        <time>2022-04-10T12:19:57Z</time>
      </trkpt>
      <trkpt lat="44.46886" lon="1.82833">
        <ele>183.5</ele>
        <time>2022-04-10T12:19:58Z</time>
      </trkpt>
      <trkpt lat="44.46878" lon="1.82834">
        <ele>183.2</ele>
        <time>2022-04-10T12:19:59Z</time>
      </trkpt>
      <trkpt lat="44.46871" lon="1.82834">
        <ele>183</ele>
        <time>2022-04-10T12:20:00Z</time>
      </trkpt>
      <trkpt lat="44.46863" lon="1.82835">
        <ele>182.8</ele>
        <time>2022-04-10T12:20:01Z</time>
      </trkpt>
      <trkpt lat="44.46856" lon="1.82836">
        <ele>182.6</ele>
        <time>2022-04-10T12:20:02Z</time>
      </trkpt>
      <trkpt lat="44.46848" lon="1.82838">
        <ele>182.5</ele>
        <time>2022-04-10T12:20:03Z</time>
      </trkpt>
      <trkpt lat="44.46841" lon="1.8284">
        <ele>182.4</ele>
        <time>2022-04-10T12:20:04Z</time>
      </trkpt>
      <trkpt lat="44.46834" lon="1.82841">
        <ele>182.4</ele>
        <time>2022-04-10T12:20:05Z</time>
      </trkpt>
      <trkpt lat="44.46827" lon="1.82843">
        <ele>182.3</ele>
        <time>2022-04-10T12:20:06Z</time>
      </trkpt>
      <trkpt lat="44.46821" lon="1.82844">
        <ele>182.3</ele>
        <time>2022-04-10T12:20:07Z</time>
      </trkpt>
      <trkpt lat="44.46814" lon="1.82844">
        <ele>182.4</ele>
        <time>2022-04-10T12:20:08Z</time>
      </trkpt>
      <trkpt lat="44.46807" lon="1.82844">
        <ele>182.4</ele>
        <time>2022-04-10T12:20:09Z</time>
      </trkpt>
      <trkpt lat="44.46802" lon="1.82844">
        <ele>182.4</ele>
        <time>2022-04-10T12:20:10Z</time>
      </trkpt>
      <trkpt lat="44.46798" lon="1.82842">
        <ele>182.4</ele>
        <time>2022-04-10T12:20:11Z</time>
      </trkpt>
      <trkpt lat="44.46795" lon="1.82841">
        <ele>182.4</ele>
        <time>2022-04-10T12:20:12Z</time>
      </trkpt>
      <trkpt lat="44.46794" lon="1.82841">
        <ele>182.4</ele>
        <time>2022-04-10T12:20:13Z</time>
      </trkpt>
      <trkpt lat="44.46793" lon="1.82841">
        <ele>182.4</ele>
        <time>2022-04-10T12:20:14Z</time>
      </trkpt>
      <trkpt lat="44.46793" lon="1.82841">
        <ele>182.4</ele>
        <time>2022-04-10T12:20:15Z</time>
      </trkpt>
      <trkpt lat="44.46793" lon="1.82841">
        <ele>182.4</ele>
        <time>2022-04-10T12:20:16Z</time>
      </trkpt>
      <trkpt lat="44.46793" lon="1.82841">
        <ele>182.4</ele>
        <time>2022-04-10T12:20:17Z</time>
      </trkpt>
      <trkpt lat="44.46793" lon="1.82841">
        <ele>182.4</ele>
        <time>2022-04-10T12:20:18Z</time>
      </trkpt>
      <trkpt lat="44.46793" lon="1.82841">
        <ele>182.4</ele>
        <time>2022-04-10T12:20:19Z</time>
      </trkpt>
      <trkpt lat="44.46793" lon="1.82841">
        <ele>182.4</ele>
        <time>2022-04-10T12:20:20Z</time>
      </trkpt>
      <trkpt lat="44.46793" lon="1.82841">
        <ele>182.4</ele>
        <time>2022-04-10T12:20:21Z</time>
      </trkpt>
      <trkpt lat="44.46793" lon="1.82841">
        <ele>182.4</ele>
        <time>2022-04-10T12:20:22Z</time>
      </trkpt>
      <trkpt lat="44.46793" lon="1.82841">
        <ele>182.4</ele>
        <time>2022-04-10T12:20:23Z</time>
      </trkpt>
      <trkpt lat="44.46793" lon="1.82841">
        <ele>182.4</ele>
        <time>2022-04-10T12:20:24Z</time>
      </trkpt>
      <trkpt lat="44.46789" lon="1.8284">
        <ele>182.3</ele>
        <time>2022-04-10T12:21:01Z</time>
      </trkpt>
      <trkpt lat="44.46786" lon="1.82839">
        <ele>182.3</ele>
        <time>2022-04-10T12:21:02Z</time>
      </trkpt>
      <trkpt lat="44.46783" lon="1.82839">
        <ele>182.2</ele>
        <time>2022-04-10T12:21:03Z</time>
      </trkpt>
      <trkpt lat="44.46778" lon="1.82838">
        <ele>182.1</ele>
        <time>2022-04-10T12:21:04Z</time>
      </trkpt>
      <trkpt lat="44.46772" lon="1.82838">
        <ele>181.9</ele>
        <time>2022-04-10T12:21:06Z</time>
      </trkpt>
      <trkpt lat="44.46766" lon="1.82838">
        <ele>181.8</ele>
        <time>2022-04-10T12:21:07Z</time>
      </trkpt>
      <trkpt lat="44.4676" lon="1.82837">
        <ele>181.6</ele>
        <time>2022-04-10T12:21:08Z</time>
      </trkpt>
      <trkpt lat="44.46755" lon="1.82837">
        <ele>181.5</ele>
        <time>2022-04-10T12:21:09Z</time>
      </trkpt>
      <trkpt lat="44.4675" lon="1.82837">
        <ele>181.4</ele>
        <time>2022-04-10T12:21:10Z</time>
      </trkpt>
      <trkpt lat="44.46745" lon="1.82837">
        <ele>181.2</ele>
        <time>2022-04-10T12:21:11Z</time>
      </trkpt>
      <trkpt lat="44.4674" lon="1.82837">
        <ele>181.1</ele>
        <time>2022-04-10T12:21:12Z</time>
      </trkpt>
      <trkpt lat="44.46734" lon="1.82838">
        <ele>180.9</ele>
        <time>2022-04-10T12:21:13Z</time>
      </trkpt>
      <trkpt lat="44.46729" lon="1.82839">
        <ele>180.8</ele>
        <time>2022-04-10T12:21:14Z</time>
      </trkpt>
      <trkpt lat="44.46723" lon="1.82841">
        <ele>180.5</ele>
        <time>2022-04-10T12:21:15Z</time>
      </trkpt>
      <trkpt lat="44.46716" lon="1.82843">
        <ele>180.2</ele>
        <time>2022-04-10T12:21:16Z</time>
      </trkpt>
      <trkpt lat="44.4671" lon="1.82845">
        <ele>179.9</ele>
        <time>2022-04-10T12:21:17Z</time>
      </trkpt>
      <trkpt lat="44.46702" lon="1.82845">
        <ele>179.5</ele>
        <time>2022-04-10T12:21:18Z</time>
      </trkpt>
      <trkpt lat="44.46695" lon="1.82845">
        <ele>179.1</ele>
        <time>2022-04-10T12:21:19Z</time>
      </trkpt>
      <trkpt lat="44.46688" lon="1.82845">
        <ele>178.7</ele>
        <time>2022-04-10T12:21:20Z</time>
      </trkpt>
      <trkpt lat="44.46681" lon="1.82844">
        <ele>178.3</ele>
        <time>2022-04-10T12:21:21Z</time>
      </trkpt>
      <trkpt lat="44.46674" lon="1.82843">
        <ele>177.9</ele>
        <time>2022-04-10T12:21:22Z</time>
      </trkpt>
      <trkpt lat="44.46667" lon="1.82841">
        <ele>177.4</ele>
        <time>2022-04-10T12:21:23Z</time>
      </trkpt>
      <trkpt lat="44.46661" lon="1.82839">
        <ele>177.1</ele>
        <time>2022-04-10T12:21:24Z</time>
      </trkpt>
      <trkpt lat="44.46656" lon="1.82837">
        <ele>176.8</ele>
        <time>2022-04-10T12:21:25Z</time>
      </trkpt>
      <trkpt lat="44.46653" lon="1.82836">
        <ele>176.6</ele>
        <time>2022-04-10T12:21:26Z</time>
      </trkpt>
      <trkpt lat="44.4665" lon="1.82836">
        <ele>176.3</ele>
        <time>2022-04-10T12:21:27Z</time>
      </trkpt>
      <trkpt lat="44.46646" lon="1.82837">
        <ele>176.1</ele>
        <time>2022-04-10T12:21:28Z</time>
      </trkpt>
      <trkpt lat="44.46641" lon="1.82839">
        <ele>175.7</ele>
        <time>2022-04-10T12:21:29Z</time>
      </trkpt>
      <trkpt lat="44.46636" lon="1.82842">
        <ele>175.3</ele>
        <time>2022-04-10T12:21:30Z</time>
      </trkpt>
      <trkpt lat="44.46631" lon="1.82846">
        <ele>175</ele>
        <time>2022-04-10T12:21:31Z</time>
      </trkpt>
      <trkpt lat="44.46627" lon="1.82848">
        <ele>174.7</ele>
        <time>2022-04-10T12:21:32Z</time>
      </trkpt>
      <trkpt lat="44.46625" lon="1.82849">
        <ele>174.5</ele>
        <time>2022-04-10T12:21:33Z</time>
      </trkpt>
      <trkpt lat="44.46624" lon="1.82852">
        <ele>174.3</ele>
        <time>2022-04-10T12:21:34Z</time>
      </trkpt>
      <trkpt lat="44.46622" lon="1.82858">
        <ele>174</ele>
        <time>2022-04-10T12:21:36Z</time>
      </trkpt>
      <trkpt lat="44.46621" lon="1.82858">
        <ele>174</ele>
        <time>2022-04-10T12:21:37Z</time>
      </trkpt>
      <trkpt lat="44.46621" lon="1.82857">
        <ele>173.9</ele>
        <time>2022-04-10T12:21:38Z</time>
      </trkpt>
      <trkpt lat="44.4662" lon="1.82857">
        <ele>173.9</ele>
        <time>2022-04-10T12:21:39Z</time>
      </trkpt>
      <trkpt lat="44.46619" lon="1.82856">
        <ele>173.8</ele>
        <time>2022-04-10T12:21:40Z</time>
      </trkpt>
      <trkpt lat="44.46619" lon="1.82855">
        <ele>173.8</ele>
        <time>2022-04-10T12:21:41Z</time>
      </trkpt>
      <trkpt lat="44.46618" lon="1.82855">
        <ele>173.8</ele>
        <time>2022-04-10T12:21:42Z</time>
      </trkpt>
      <trkpt lat="44.46618" lon="1.82854">
        <ele>173.7</ele>
        <time>2022-04-10T12:21:43Z</time>
      </trkpt>
      <trkpt lat="44.46617" lon="1.82853">
        <ele>173.7</ele>
        <time>2022-04-10T12:21:44Z</time>
      </trkpt>
      <trkpt lat="44.46614" lon="1.82847">
        <ele>173.4</ele>
        <time>2022-04-10T12:21:45Z</time>
      </trkpt>
      <trkpt lat="44.46609" lon="1.82838">
        <ele>173</ele>
        <time>2022-04-10T12:21:47Z</time>
      </trkpt>
      <trkpt lat="44.46605" lon="1.82832">
        <ele>172.8</ele>
        <time>2022-04-10T12:21:48Z</time>
      </trkpt>
      <trkpt lat="44.46601" lon="1.82824">
        <ele>172.4</ele>
        <time>2022-04-10T12:21:49Z</time>
      </trkpt>
      <trkpt lat="44.46598" lon="1.82817">
        <ele>172.1</ele>
        <time>2022-04-10T12:21:50Z</time>
      </trkpt>
      <trkpt lat="44.46596" lon="1.8281">
        <ele>171.8</ele>
        <time>2022-04-10T12:21:51Z</time>
      </trkpt>
      <trkpt lat="44.46593" lon="1.82804">
        <ele>171.6</ele>
        <time>2022-04-10T12:21:52Z</time>
      </trkpt>
      <trkpt lat="44.4659" lon="1.82797">
        <ele>171.4</ele>
        <time>2022-04-10T12:21:53Z</time>
      </trkpt>
      <trkpt lat="44.46588" lon="1.8279">
        <ele>171.1</ele>
        <time>2022-04-10T12:21:54Z</time>
      </trkpt>
      <trkpt lat="44.46584" lon="1.82783">
        <ele>170.9</ele>
        <time>2022-04-10T12:21:55Z</time>
      </trkpt>
      <trkpt lat="44.46581" lon="1.82776">
        <ele>170.7</ele>
        <time>2022-04-10T12:21:56Z</time>
      </trkpt>
      <trkpt lat="44.46579" lon="1.82769">
        <ele>170.4</ele>
        <time>2022-04-10T12:21:57Z</time>
      </trkpt>
      <trkpt lat="44.46576" lon="1.82765">
        <ele>170.3</ele>
        <time>2022-04-10T12:21:58Z</time>
      </trkpt>
      <trkpt lat="44.46573" lon="1.82763">
        <ele>170.2</ele>
        <time>2022-04-10T12:21:59Z</time>
      </trkpt>
      <trkpt lat="44.46569" lon="1.82763">
        <ele>170.1</ele>
        <time>2022-04-10T12:22:01Z</time>
      </trkpt>
      <trkpt lat="44.46565" lon="1.82769">
        <ele>170</ele>
        <time>2022-04-10T12:22:02Z</time>
      </trkpt>
      <trkpt lat="44.46563" lon="1.82776">
        <ele>170.2</ele>
        <time>2022-04-10T12:22:03Z</time>
      </trkpt>
      <trkpt lat="44.46564" lon="1.82782">
        <ele>170.4</ele>
        <time>2022-04-10T12:22:04Z</time>
      </trkpt>
      <trkpt lat="44.46565" lon="1.82787">
        <ele>170.5</ele>
        <time>2022-04-10T12:22:05Z</time>
      </trkpt>
      <trkpt lat="44.46565" lon="1.82792">
        <ele>170.7</ele>
        <time>2022-04-10T12:22:06Z</time>
      </trkpt>
      <trkpt lat="44.46567" lon="1.82799">
        <ele>170.9</ele>
        <time>2022-04-10T12:22:08Z</time>
      </trkpt>
      <trkpt lat="44.46569" lon="1.82805">
        <ele>171.1</ele>
        <time>2022-04-10T12:22:09Z</time>
      </trkpt>
      <trkpt lat="44.46571" lon="1.82811">
        <ele>171.3</ele>
        <time>2022-04-10T12:22:10Z</time>
      </trkpt>
      <trkpt lat="44.46574" lon="1.82817">
        <ele>171.5</ele>
        <time>2022-04-10T12:22:11Z</time>
      </trkpt>
      <trkpt lat="44.46577" lon="1.82824">
        <ele>171.7</ele>
        <time>2022-04-10T12:22:12Z</time>
      </trkpt>
      <trkpt lat="44.4658" lon="1.82832">
        <ele>172</ele>
        <time>2022-04-10T12:22:13Z</time>
      </trkpt>
      <trkpt lat="44.46582" lon="1.82839">
        <ele>172.2</ele>
        <time>2022-04-10T12:22:15Z</time>
      </trkpt>
      <trkpt lat="44.46582" lon="1.82843">
        <ele>172.4</ele>
        <time>2022-04-10T12:22:16Z</time>
      </trkpt>
      <trkpt lat="44.46581" lon="1.82851">
        <ele>172.7</ele>
        <time>2022-04-10T12:22:17Z</time>
      </trkpt>
      <trkpt lat="44.46579" lon="1.82853">
        <ele>172.9</ele>
        <time>2022-04-10T12:22:18Z</time>
      </trkpt>
      <trkpt lat="44.46575" lon="1.82853">
        <ele>173.6</ele>
        <time>2022-04-10T12:22:19Z</time>
      </trkpt>
      <trkpt lat="44.46574" lon="1.82853">
        <ele>173.7</ele>
        <time>2022-04-10T12:22:20Z</time>
      </trkpt>
      <trkpt lat="44.46572" lon="1.82851">
        <ele>174</ele>
        <time>2022-04-10T12:22:22Z</time>
      </trkpt>
      <trkpt lat="44.46571" lon="1.8285">
        <ele>174.1</ele>
        <time>2022-04-10T12:22:23Z</time>
      </trkpt>
      <trkpt lat="44.4657" lon="1.8285">
        <ele>174.2</ele>
        <time>2022-04-10T12:22:24Z</time>
      </trkpt>
      <trkpt lat="44.46567" lon="1.82847">
        <ele>174.7</ele>
        <time>2022-04-10T12:22:25Z</time>
      </trkpt>
      <trkpt lat="44.46565" lon="1.82846">
        <ele>175.1</ele>
        <time>2022-04-10T12:22:26Z</time>
      </trkpt>
      <trkpt lat="44.46562" lon="1.82844">
        <ele>175.5</ele>
        <time>2022-04-10T12:22:28Z</time>
      </trkpt>
      <trkpt lat="44.46559" lon="1.82842">
        <ele>176</ele>
        <time>2022-04-10T12:22:29Z</time>
      </trkpt>
      <trkpt lat="44.46557" lon="1.82837">
        <ele>176.6</ele>
        <time>2022-04-10T12:22:30Z</time>
      </trkpt>
      <trkpt lat="44.46556" lon="1.82832">
        <ele>177.1</ele>
        <time>2022-04-10T12:22:31Z</time>
      </trkpt>
      <trkpt lat="44.46555" lon="1.82829">
        <ele>177.5</ele>
        <time>2022-04-10T12:22:32Z</time>
      </trkpt>
      <trkpt lat="44.46553" lon="1.82823">
        <ele>178.1</ele>
        <time>2022-04-10T12:22:34Z</time>
      </trkpt>
      <trkpt lat="44.46552" lon="1.82819">
        <ele>178.4</ele>
        <time>2022-04-10T12:22:35Z</time>
      </trkpt>
      <trkpt lat="44.4655" lon="1.82813">
        <ele>178.9</ele>
        <time>2022-04-10T12:22:36Z</time>
      </trkpt>
      <trkpt lat="44.4655" lon="1.82811">
        <ele>179</ele>
        <time>2022-04-10T12:22:37Z</time>
      </trkpt>
      <trkpt lat="44.46548" lon="1.82808">
        <ele>179.3</ele>
        <time>2022-04-10T12:22:38Z</time>
      </trkpt>
      <trkpt lat="44.46545" lon="1.82804">
        <ele>179.4</ele>
        <time>2022-04-10T12:22:39Z</time>
      </trkpt>
      <trkpt lat="44.46543" lon="1.82801">
        <ele>179.5</ele>
        <time>2022-04-10T12:22:41Z</time>
      </trkpt>
      <trkpt lat="44.46541" lon="1.82798">
        <ele>179.6</ele>
        <time>2022-04-10T12:22:42Z</time>
      </trkpt>
      <trkpt lat="44.46539" lon="1.82797">
        <ele>179.7</ele>
        <time>2022-04-10T12:22:44Z</time>
      </trkpt>
      <trkpt lat="44.46538" lon="1.82796">
        <ele>179.8</ele>
        <time>2022-04-10T12:22:45Z</time>
      </trkpt>
      <trkpt lat="44.46537" lon="1.82795">
        <ele>179.8</ele>
        <time>2022-04-10T12:22:46Z</time>
      </trkpt>
      <trkpt lat="44.46537" lon="1.82794">
        <ele>179.9</ele>
        <time>2022-04-10T12:22:47Z</time>
      </trkpt>
      <trkpt lat="44.46536" lon="1.82792">
        <ele>180</ele>
        <time>2022-04-10T12:22:48Z</time>
      </trkpt>
      <trkpt lat="44.46535" lon="1.82791">
        <ele>180</ele>
        <time>2022-04-10T12:22:49Z</time>
      </trkpt>
      <trkpt lat="44.46534" lon="1.8279">
        <ele>180.1</ele>
        <time>2022-04-10T12:22:50Z</time>
      </trkpt>
      <trkpt lat="44.46534" lon="1.82789">
        <ele>180.1</ele>
        <time>2022-04-10T12:22:51Z</time>
      </trkpt>
      <trkpt lat="44.46533" lon="1.82788">
        <ele>180.2</ele>
        <time>2022-04-10T12:22:52Z</time>
      </trkpt>
      <trkpt lat="44.46532" lon="1.82787">
        <ele>180.3</ele>
        <time>2022-04-10T12:22:53Z</time>
      </trkpt>
      <trkpt lat="44.46532" lon="1.82785">
        <ele>180.4</ele>
        <time>2022-04-10T12:22:54Z</time>
      </trkpt>
      <trkpt lat="44.46531" lon="1.82784">
        <ele>180.4</ele>
        <time>2022-04-10T12:23:08Z</time>
      </trkpt>
      <trkpt lat="44.4653" lon="1.82783">
        <ele>180.5</ele>
        <time>2022-04-10T12:23:09Z</time>
      </trkpt>
      <trkpt lat="44.46526" lon="1.82777">
        <ele>180.9</ele>
        <time>2022-04-10T12:23:10Z</time>
      </trkpt>
      <trkpt lat="44.46522" lon="1.82773">
        <ele>181.4</ele>
        <time>2022-04-10T12:23:11Z</time>
      </trkpt>
      <trkpt lat="44.46516" lon="1.82767">
        <ele>182.1</ele>
        <time>2022-04-10T12:23:13Z</time>
      </trkpt>
      <trkpt lat="44.46513" lon="1.82764">
        <ele>182.5</ele>
        <time>2022-04-10T12:23:14Z</time>
      </trkpt>
      <trkpt lat="44.4651" lon="1.8276">
        <ele>182.8</ele>
        <time>2022-04-10T12:23:15Z</time>
      </trkpt>
      <trkpt lat="44.4651" lon="1.82759">
        <ele>182.9</ele>
        <time>2022-04-10T12:23:16Z</time>
      </trkpt>
      <trkpt lat="44.46508" lon="1.82756">
        <ele>182.9</ele>
        <time>2022-04-10T12:23:18Z</time>
      </trkpt>
      <trkpt lat="44.46507" lon="1.82755">
        <ele>182.9</ele>
        <time>2022-04-10T12:23:19Z</time>
      </trkpt>
      <trkpt lat="44.46506" lon="1.82754">
        <ele>183</ele>
        <time>2022-04-10T12:23:20Z</time>
      </trkpt>
      <trkpt lat="44.46504" lon="1.8275">
        <ele>183</ele>
        <time>2022-04-10T12:23:21Z</time>
      </trkpt>
      <trkpt lat="44.46503" lon="1.82749">
        <ele>183</ele>
        <time>2022-04-10T12:23:22Z</time>
      </trkpt>
      <trkpt lat="44.465" lon="1.82746">
        <ele>183</ele>
        <time>2022-04-10T12:23:23Z</time>
      </trkpt>
      <trkpt lat="44.46496" lon="1.82742">
        <ele>183</ele>
        <time>2022-04-10T12:23:24Z</time>
      </trkpt>
      <trkpt lat="44.46494" lon="1.82738">
        <ele>183</ele>
        <time>2022-04-10T12:23:25Z</time>
      </trkpt>
      <trkpt lat="44.46489" lon="1.82733">
        <ele>183.1</ele>
        <time>2022-04-10T12:23:26Z</time>
      </trkpt>
      <trkpt lat="44.46485" lon="1.82728">
        <ele>183.2</ele>
        <time>2022-04-10T12:23:27Z</time>
      </trkpt>
      <trkpt lat="44.46481" lon="1.82723">
        <ele>183.3</ele>
        <time>2022-04-10T12:23:28Z</time>
      </trkpt>
      <trkpt lat="44.46477" lon="1.82717">
        <ele>183.4</ele>
        <time>2022-04-10T12:23:29Z</time>
      </trkpt>
      <trkpt lat="44.46473" lon="1.82712">
        <ele>183.5</ele>
        <time>2022-04-10T12:23:30Z</time>
      </trkpt>
      <trkpt lat="44.46469" lon="1.82706">
        <ele>183.7</ele>
        <time>2022-04-10T12:23:31Z</time>
      </trkpt>
      <trkpt lat="44.46465" lon="1.827">
        <ele>183.8</ele>
        <time>2022-04-10T12:23:32Z</time>
      </trkpt>
      <trkpt lat="44.46461" lon="1.82694">
        <ele>184</ele>
        <time>2022-04-10T12:23:33Z</time>
      </trkpt>
      <trkpt lat="44.46456" lon="1.82689">
        <ele>184.2</ele>
        <time>2022-04-10T12:23:34Z</time>
      </trkpt>
      <trkpt lat="44.46452" lon="1.82685">
        <ele>184.3</ele>
        <time>2022-04-10T12:23:35Z</time>
      </trkpt>
      <trkpt lat="44.46448" lon="1.8268">
        <ele>184.3</ele>
        <time>2022-04-10T12:23:36Z</time>
      </trkpt>
      <trkpt lat="44.46443" lon="1.82675">
        <ele>184.4</ele>
        <time>2022-04-10T12:23:37Z</time>
      </trkpt>
      <trkpt lat="44.46439" lon="1.82669">
        <ele>184.5</ele>
        <time>2022-04-10T12:23:38Z</time>
      </trkpt>
      <trkpt lat="44.46434" lon="1.82663">
        <ele>184.5</ele>
        <time>2022-04-10T12:23:39Z</time>
      </trkpt>
      <trkpt lat="44.4643" lon="1.82658">
        <ele>184.5</ele>
        <time>2022-04-10T12:23:40Z</time>
      </trkpt>
      <trkpt lat="44.46424" lon="1.82652">
        <ele>184.5</ele>
        <time>2022-04-10T12:23:41Z</time>
      </trkpt>
      <trkpt lat="44.46419" lon="1.82646">
        <ele>184.5</ele>
        <time>2022-04-10T12:23:42Z</time>
      </trkpt>
      <trkpt lat="44.46415" lon="1.8264">
        <ele>184.4</ele>
        <time>2022-04-10T12:23:43Z</time>
      </trkpt>
      <trkpt lat="44.46409" lon="1.82635">
        <ele>184.4</ele>
        <time>2022-04-10T12:23:44Z</time>
      </trkpt>
      <trkpt lat="44.46404" lon="1.82631">
        <ele>184.3</ele>
        <time>2022-04-10T12:23:45Z</time>
      </trkpt>
      <trkpt lat="44.46399" lon="1.82627">
        <ele>184.3</ele>
        <time>2022-04-10T12:23:46Z</time>
      </trkpt>
      <trkpt lat="44.46394" lon="1.82622">
        <ele>184.3</ele>
        <time>2022-04-10T12:23:47Z</time>
      </trkpt>
      <trkpt lat="44.46388" lon="1.82619">
        <ele>184.3</ele>
        <time>2022-04-10T12:23:48Z</time>
      </trkpt>
      <trkpt lat="44.46383" lon="1.82616">
        <ele>184.3</ele>
        <time>2022-04-10T12:23:49Z</time>
      </trkpt>
      <trkpt lat="44.46377" lon="1.82613">
        <ele>184.4</ele>
        <time>2022-04-10T12:23:50Z</time>
      </trkpt>
      <trkpt lat="44.46372" lon="1.82609">
        <ele>184.5</ele>
        <time>2022-04-10T12:23:51Z</time>
      </trkpt>
      <trkpt lat="44.46366" lon="1.82605">
        <ele>184.6</ele>
        <time>2022-04-10T12:23:52Z</time>
      </trkpt>
      <trkpt lat="44.46361" lon="1.82602">
        <ele>184.7</ele>
        <time>2022-04-10T12:23:53Z</time>
      </trkpt>
      <trkpt lat="44.46356" lon="1.826">
        <ele>184.9</ele>
        <time>2022-04-10T12:23:54Z</time>
      </trkpt>
      <trkpt lat="44.46351" lon="1.82597">
        <ele>185</ele>
        <time>2022-04-10T12:23:55Z</time>
      </trkpt>
      <trkpt lat="44.46346" lon="1.82594">
        <ele>185.2</ele>
        <time>2022-04-10T12:23:56Z</time>
      </trkpt>
      <trkpt lat="44.46342" lon="1.82591">
        <ele>185.4</ele>
        <time>2022-04-10T12:23:57Z</time>
      </trkpt>
      <trkpt lat="44.46336" lon="1.82588">
        <ele>185.6</ele>
        <time>2022-04-10T12:23:58Z</time>
      </trkpt>
      <trkpt lat="44.46331" lon="1.82585">
        <ele>185.8</ele>
        <time>2022-04-10T12:23:59Z</time>
      </trkpt>
      <trkpt lat="44.46326" lon="1.82581">
        <ele>186.1</ele>
        <time>2022-04-10T12:24:00Z</time>
      </trkpt>
      <trkpt lat="44.46321" lon="1.82578">
        <ele>186.3</ele>
        <time>2022-04-10T12:24:01Z</time>
      </trkpt>
      <trkpt lat="44.46317" lon="1.82574">
        <ele>186.5</ele>
        <time>2022-04-10T12:24:02Z</time>
      </trkpt>
      <trkpt lat="44.46312" lon="1.8257">
        <ele>186.8</ele>
        <time>2022-04-10T12:24:03Z</time>
      </trkpt>
      <trkpt lat="44.46307" lon="1.82566">
        <ele>187</ele>
        <time>2022-04-10T12:24:04Z</time>
      </trkpt>
      <trkpt lat="44.46302" lon="1.82561">
        <ele>187.3</ele>
        <time>2022-04-10T12:24:05Z</time>
      </trkpt>
      <trkpt lat="44.46296" lon="1.82558">
        <ele>187.6</ele>
        <time>2022-04-10T12:24:06Z</time>
      </trkpt>
      <trkpt lat="44.46291" lon="1.82554">
        <ele>187.9</ele>
        <time>2022-04-10T12:24:07Z</time>
      </trkpt>
      <trkpt lat="44.46287" lon="1.8255">
        <ele>188.2</ele>
        <time>2022-04-10T12:24:08Z</time>
      </trkpt>
      <trkpt lat="44.46282" lon="1.82545">
        <ele>188.6</ele>
        <time>2022-04-10T12:24:09Z</time>
      </trkpt>
      <trkpt lat="44.46278" lon="1.82541">
        <ele>189</ele>
        <time>2022-04-10T12:24:10Z</time>
      </trkpt>
      <trkpt lat="44.46274" lon="1.82537">
        <ele>189.3</ele>
        <time>2022-04-10T12:24:11Z</time>
      </trkpt>
      <trkpt lat="44.46271" lon="1.82534">
        <ele>189.7</ele>
        <time>2022-04-10T12:24:12Z</time>
      </trkpt>
      <trkpt lat="44.46269" lon="1.82531">
        <ele>190</ele>
        <time>2022-04-10T12:24:13Z</time>
      </trkpt>
      <trkpt lat="44.46265" lon="1.82526">
        <ele>190.5</ele>
        <time>2022-04-10T12:24:14Z</time>
      </trkpt>
      <trkpt lat="44.46262" lon="1.82523">
        <ele>190.8</ele>
        <time>2022-04-10T12:24:15Z</time>
      </trkpt>
      <trkpt lat="44.46259" lon="1.82519">
        <ele>191.2</ele>
        <time>2022-04-10T12:24:16Z</time>
      </trkpt>
      <trkpt lat="44.46255" lon="1.82514">
        <ele>191.7</ele>
        <time>2022-04-10T12:24:17Z</time>
      </trkpt>
      <trkpt lat="44.46253" lon="1.82511">
        <ele>192</ele>
        <time>2022-04-10T12:24:18Z</time>
      </trkpt>
      <trkpt lat="44.4625" lon="1.82505">
        <ele>192.5</ele>
        <time>2022-04-10T12:24:20Z</time>
      </trkpt>
      <trkpt lat="44.46249" lon="1.82503">
        <ele>192.7</ele>
        <time>2022-04-10T12:24:21Z</time>
      </trkpt>
      <trkpt lat="44.46245" lon="1.82497">
        <ele>193.3</ele>
        <time>2022-04-10T12:24:22Z</time>
      </trkpt>
      <trkpt lat="44.46239" lon="1.82491">
        <ele>194</ele>
        <time>2022-04-10T12:24:23Z</time>
      </trkpt>
      <trkpt lat="44.46237" lon="1.82488">
        <ele>194.3</ele>
        <time>2022-04-10T12:24:24Z</time>
      </trkpt>
      <trkpt lat="44.46234" lon="1.82482">
        <ele>194.9</ele>
        <time>2022-04-10T12:24:26Z</time>
      </trkpt>
      <trkpt lat="44.46231" lon="1.82478">
        <ele>195.3</ele>
        <time>2022-04-10T12:24:27Z</time>
      </trkpt>
      <trkpt lat="44.46228" lon="1.82475">
        <ele>195.6</ele>
        <time>2022-04-10T12:24:28Z</time>
      </trkpt>
      <trkpt lat="44.46225" lon="1.82472">
        <ele>196</ele>
        <time>2022-04-10T12:24:29Z</time>
      </trkpt>
      <trkpt lat="44.46222" lon="1.82469">
        <ele>196.3</ele>
        <time>2022-04-10T12:24:30Z</time>
      </trkpt>
      <trkpt lat="44.46218" lon="1.82465">
        <ele>196.7</ele>
        <time>2022-04-10T12:24:31Z</time>
      </trkpt>
      <trkpt lat="44.46215" lon="1.82462">
        <ele>196.9</ele>
        <time>2022-04-10T12:24:32Z</time>
      </trkpt>
      <trkpt lat="44.4621" lon="1.82459">
        <ele>197.3</ele>
        <time>2022-04-10T12:24:33Z</time>
      </trkpt>
      <trkpt lat="44.46206" lon="1.82457">
        <ele>197.6</ele>
        <time>2022-04-10T12:24:34Z</time>
      </trkpt>
      <trkpt lat="44.46202" lon="1.82458">
        <ele>198.1</ele>
        <time>2022-04-10T12:24:35Z</time>
      </trkpt>
      <trkpt lat="44.46197" lon="1.82459">
        <ele>198.5</ele>
        <time>2022-04-10T12:24:36Z</time>
      </trkpt>
      <trkpt lat="44.46193" lon="1.82458">
        <ele>198.9</ele>
        <time>2022-04-10T12:24:37Z</time>
      </trkpt>
      <trkpt lat="44.46192" lon="1.82458">
        <ele>199.1</ele>
        <time>2022-04-10T12:24:38Z</time>
      </trkpt>
      <trkpt lat="44.46189" lon="1.82458">
        <ele>199.4</ele>
        <time>2022-04-10T12:24:39Z</time>
      </trkpt>
      <trkpt lat="44.46184" lon="1.82458">
        <ele>199.9</ele>
        <time>2022-04-10T12:24:41Z</time>
      </trkpt>
      <trkpt lat="44.46179" lon="1.82456">
        <ele>200.4</ele>
        <time>2022-04-10T12:24:42Z</time>
      </trkpt>
      <trkpt lat="44.46176" lon="1.82455">
        <ele>200.8</ele>
        <time>2022-04-10T12:24:43Z</time>
      </trkpt>
      <trkpt lat="44.46171" lon="1.82453">
        <ele>201.3</ele>
        <time>2022-04-10T12:24:45Z</time>
      </trkpt>
      <trkpt lat="44.46167" lon="1.82451">
        <ele>201.7</ele>
        <time>2022-04-10T12:24:46Z</time>
      </trkpt>
      <trkpt lat="44.46164" lon="1.82449">
        <ele>202.1</ele>
        <time>2022-04-10T12:24:47Z</time>
      </trkpt>
      <trkpt lat="44.46159" lon="1.82446">
        <ele>202.7</ele>
        <time>2022-04-10T12:24:48Z</time>
      </trkpt>
      <trkpt lat="44.46156" lon="1.82444">
        <ele>203.2</ele>
        <time>2022-04-10T12:24:49Z</time>
      </trkpt>
      <trkpt lat="44.46153" lon="1.82441">
        <ele>203.6</ele>
        <time>2022-04-10T12:24:50Z</time>
      </trkpt>
      <trkpt lat="44.46149" lon="1.82437">
        <ele>204.1</ele>
        <time>2022-04-10T12:24:51Z</time>
      </trkpt>
      <trkpt lat="44.46146" lon="1.82432">
        <ele>204.6</ele>
        <time>2022-04-10T12:24:53Z</time>
      </trkpt>
      <trkpt lat="44.4614" lon="1.82427">
        <ele>205.3</ele>
        <time>2022-04-10T12:24:54Z</time>
      </trkpt>
      <trkpt lat="44.46137" lon="1.82424">
        <ele>205.8</ele>
        <time>2022-04-10T12:24:55Z</time>
      </trkpt>
      <trkpt lat="44.46133" lon="1.82421">
        <ele>206.2</ele>
        <time>2022-04-10T12:24:56Z</time>
      </trkpt>
      <trkpt lat="44.46131" lon="1.82419">
        <ele>206.4</ele>
        <time>2022-04-10T12:24:57Z</time>
      </trkpt>
      <trkpt lat="44.46127" lon="1.82415">
        <ele>206.8</ele>
        <time>2022-04-10T12:24:58Z</time>
      </trkpt>
      <trkpt lat="44.46124" lon="1.82411">
        <ele>207.2</ele>
        <time>2022-04-10T12:24:59Z</time>
      </trkpt>
      <trkpt lat="44.46118" lon="1.82404">
        <ele>207.9</ele>
        <time>2022-04-10T12:25:00Z</time>
      </trkpt>
      <trkpt lat="44.46114" lon="1.82398">
        <ele>208.4</ele>
        <time>2022-04-10T12:25:01Z</time>
      </trkpt>
      <trkpt lat="44.4611" lon="1.82392">
        <ele>208.9</ele>
        <time>2022-04-10T12:25:02Z</time>
      </trkpt>
      <trkpt lat="44.46106" lon="1.82386">
        <ele>209.4</ele>
        <time>2022-04-10T12:25:03Z</time>
      </trkpt>
      <trkpt lat="44.46101" lon="1.82381">
        <ele>209.8</ele>
        <time>2022-04-10T12:25:04Z</time>
      </trkpt>
      <trkpt lat="44.46097" lon="1.82375">
        <ele>210.3</ele>
        <time>2022-04-10T12:25:05Z</time>
      </trkpt>
      <trkpt lat="44.46094" lon="1.82369">
        <ele>210.7</ele>
        <time>2022-04-10T12:25:06Z</time>
      </trkpt>
      <trkpt lat="44.46091" lon="1.82363">
        <ele>211.1</ele>
        <time>2022-04-10T12:25:07Z</time>
      </trkpt>
      <trkpt lat="44.46087" lon="1.82357">
        <ele>211.6</ele>
        <time>2022-04-10T12:25:08Z</time>
      </trkpt>
      <trkpt lat="44.46083" lon="1.82351">
        <ele>212.1</ele>
        <time>2022-04-10T12:25:09Z</time>
      </trkpt>
      <trkpt lat="44.4608" lon="1.82345">
        <ele>212.5</ele>
        <time>2022-04-10T12:25:10Z</time>
      </trkpt>
      <trkpt lat="44.46076" lon="1.8234">
        <ele>213</ele>
        <time>2022-04-10T12:25:11Z</time>
      </trkpt>
      <trkpt lat="44.46073" lon="1.82334">
        <ele>213.5</ele>
        <time>2022-04-10T12:25:12Z</time>
      </trkpt>
      <trkpt lat="44.4607" lon="1.82327">
        <ele>214</ele>
        <time>2022-04-10T12:25:13Z</time>
      </trkpt>
      <trkpt lat="44.46068" lon="1.82319">
        <ele>214.5</ele>
        <time>2022-04-10T12:25:14Z</time>
      </trkpt>
      <trkpt lat="44.46066" lon="1.82312">
        <ele>214.9</ele>
        <time>2022-04-10T12:25:15Z</time>
      </trkpt>
      <trkpt lat="44.46063" lon="1.82305">
        <ele>215.4</ele>
        <time>2022-04-10T12:25:16Z</time>
      </trkpt>
      <trkpt lat="44.46062" lon="1.82298">
        <ele>215.9</ele>
        <time>2022-04-10T12:25:17Z</time>
      </trkpt>
      <trkpt lat="44.46059" lon="1.82292">
        <ele>216.4</ele>
        <time>2022-04-10T12:25:18Z</time>
      </trkpt>
      <trkpt lat="44.46057" lon="1.82289">
        <ele>216.7</ele>
        <time>2022-04-10T12:25:19Z</time>
      </trkpt>
      <trkpt lat="44.46054" lon="1.82283">
        <ele>217.3</ele>
        <time>2022-04-10T12:25:20Z</time>
      </trkpt>
      <trkpt lat="44.46051" lon="1.82277">
        <ele>218</ele>
        <time>2022-04-10T12:25:21Z</time>
      </trkpt>
      <trkpt lat="44.46049" lon="1.82272">
        <ele>218.5</ele>
        <time>2022-04-10T12:25:22Z</time>
      </trkpt>
      <trkpt lat="44.46046" lon="1.82265">
        <ele>219.1</ele>
        <time>2022-04-10T12:25:23Z</time>
      </trkpt>
      <trkpt lat="44.46045" lon="1.82262">
        <ele>219.5</ele>
        <time>2022-04-10T12:25:24Z</time>
      </trkpt>
      <trkpt lat="44.46045" lon="1.82256">
        <ele>220</ele>
        <time>2022-04-10T12:25:25Z</time>
      </trkpt>
      <trkpt lat="44.46044" lon="1.82253">
        <ele>220.3</ele>
        <time>2022-04-10T12:25:26Z</time>
      </trkpt>
      <trkpt lat="44.46035" lon="1.82244">
        <ele>221.7</ele>
        <time>2022-04-10T12:25:28Z</time>
      </trkpt>
      <trkpt lat="44.46032" lon="1.82241">
        <ele>222.3</ele>
        <time>2022-04-10T12:25:29Z</time>
      </trkpt>
      <trkpt lat="44.46029" lon="1.82238">
        <ele>222.8</ele>
        <time>2022-04-10T12:25:30Z</time>
      </trkpt>
      <trkpt lat="44.46025" lon="1.82235">
        <ele>223.4</ele>
        <time>2022-04-10T12:25:31Z</time>
      </trkpt>
      <trkpt lat="44.46022" lon="1.82233">
        <ele>223.9</ele>
        <time>2022-04-10T12:25:32Z</time>
      </trkpt>
      <trkpt lat="44.46019" lon="1.82231">
        <ele>224.4</ele>
        <time>2022-04-10T12:25:33Z</time>
      </trkpt>
      <trkpt lat="44.46015" lon="1.8223">
        <ele>224.9</ele>
        <time>2022-04-10T12:25:34Z</time>
      </trkpt>
      <trkpt lat="44.46011" lon="1.8223">
        <ele>225.5</ele>
        <time>2022-04-10T12:25:35Z</time>
      </trkpt>
      <trkpt lat="44.46008" lon="1.82228">
        <ele>226</ele>
        <time>2022-04-10T12:25:36Z</time>
      </trkpt>
      <trkpt lat="44.46004" lon="1.82227">
        <ele>226.6</ele>
        <time>2022-04-10T12:25:38Z</time>
      </trkpt>
      <trkpt lat="44.46002" lon="1.82227">
        <ele>226.9</ele>
        <time>2022-04-10T12:25:39Z</time>
      </trkpt>
      <trkpt lat="44.45999" lon="1.82227">
        <ele>227.5</ele>
        <time>2022-04-10T12:25:40Z</time>
      </trkpt>
      <trkpt lat="44.45995" lon="1.82228">
        <ele>228.1</ele>
        <time>2022-04-10T12:25:41Z</time>
      </trkpt>
      <trkpt lat="44.45993" lon="1.82229">
        <ele>228.3</ele>
        <time>2022-04-10T12:25:42Z</time>
      </trkpt>
      <trkpt lat="44.45991" lon="1.82229">
        <ele>228.6</ele>
        <time>2022-04-10T12:25:43Z</time>
      </trkpt>
      <trkpt lat="44.45983" lon="1.82231">
        <ele>229.6</ele>
        <time>2022-04-10T12:25:45Z</time>
      </trkpt>
      <trkpt lat="44.45979" lon="1.82232">
        <ele>230</ele>
        <time>2022-04-10T12:25:46Z</time>
      </trkpt>
      <trkpt lat="44.45973" lon="1.82231">
        <ele>230.7</ele>
        <time>2022-04-10T12:25:48Z</time>
      </trkpt>
      <trkpt lat="44.45967" lon="1.82232">
        <ele>231.3</ele>
        <time>2022-04-10T12:25:49Z</time>
      </trkpt>
      <trkpt lat="44.45962" lon="1.82235">
        <ele>231.8</ele>
        <time>2022-04-10T12:25:51Z</time>
      </trkpt>
      <trkpt lat="44.45956" lon="1.82236">
        <ele>232.4</ele>
        <time>2022-04-10T12:25:52Z</time>
      </trkpt>
      <trkpt lat="44.45949" lon="1.82239">
        <ele>233</ele>
        <time>2022-04-10T12:25:53Z</time>
      </trkpt>
      <trkpt lat="44.45944" lon="1.82241">
        <ele>233.5</ele>
        <time>2022-04-10T12:25:54Z</time>
      </trkpt>
      <trkpt lat="44.4594" lon="1.82243">
        <ele>234</ele>
        <time>2022-04-10T12:25:55Z</time>
      </trkpt>
      <trkpt lat="44.45937" lon="1.82244">
        <ele>234.3</ele>
        <time>2022-04-10T12:25:56Z</time>
      </trkpt>
      <trkpt lat="44.45929" lon="1.82248">
        <ele>235.1</ele>
        <time>2022-04-10T12:25:58Z</time>
      </trkpt>
      <trkpt lat="44.45923" lon="1.82253">
        <ele>235.7</ele>
        <time>2022-04-10T12:25:59Z</time>
      </trkpt>
      <trkpt lat="44.45919" lon="1.82256">
        <ele>236.1</ele>
        <time>2022-04-10T12:26:00Z</time>
      </trkpt>
      <trkpt lat="44.45914" lon="1.82259">
        <ele>236.5</ele>
        <time>2022-04-10T12:26:01Z</time>
      </trkpt>
      <trkpt lat="44.45909" lon="1.82262">
        <ele>237</ele>
        <time>2022-04-10T12:26:03Z</time>
      </trkpt>
      <trkpt lat="44.45906" lon="1.82265">
        <ele>237.3</ele>
        <time>2022-04-10T12:26:04Z</time>
      </trkpt>
      <trkpt lat="44.45902" lon="1.82268">
        <ele>237.6</ele>
        <time>2022-04-10T12:26:05Z</time>
      </trkpt>
      <trkpt lat="44.45899" lon="1.82272">
        <ele>237.9</ele>
        <time>2022-04-10T12:26:06Z</time>
      </trkpt>
      <trkpt lat="44.45896" lon="1.82275">
        <ele>238.3</ele>
        <time>2022-04-10T12:26:07Z</time>
      </trkpt>
      <trkpt lat="44.45891" lon="1.82278">
        <ele>238.7</ele>
        <time>2022-04-10T12:26:08Z</time>
      </trkpt>
      <trkpt lat="44.45887" lon="1.8228">
        <ele>239</ele>
        <time>2022-04-10T12:26:09Z</time>
      </trkpt>
      <trkpt lat="44.45883" lon="1.82284">
        <ele>239.3</ele>
        <time>2022-04-10T12:26:10Z</time>
      </trkpt>
      <trkpt lat="44.45879" lon="1.82289">
        <ele>239.6</ele>
        <time>2022-04-10T12:26:11Z</time>
      </trkpt>
      <trkpt lat="44.45875" lon="1.82293">
        <ele>239.9</ele>
        <time>2022-04-10T12:26:12Z</time>
      </trkpt>
      <trkpt lat="44.4587" lon="1.82297">
        <ele>240.2</ele>
        <time>2022-04-10T12:26:13Z</time>
      </trkpt>
      <trkpt lat="44.45866" lon="1.82302">
        <ele>240.5</ele>
        <time>2022-04-10T12:26:14Z</time>
      </trkpt>
      <trkpt lat="44.45861" lon="1.82306">
        <ele>240.7</ele>
        <time>2022-04-10T12:26:15Z</time>
      </trkpt>
      <trkpt lat="44.45857" lon="1.8231">
        <ele>241</ele>
        <time>2022-04-10T12:26:16Z</time>
      </trkpt>
      <trkpt lat="44.45852" lon="1.82314">
        <ele>241.2</ele>
        <time>2022-04-10T12:26:17Z</time>
      </trkpt>
      <trkpt lat="44.45848" lon="1.82319">
        <ele>241.5</ele>
        <time>2022-04-10T12:26:18Z</time>
      </trkpt>
      <trkpt lat="44.45843" lon="1.82323">
        <ele>241.9</ele>
        <time>2022-04-10T12:26:19Z</time>
      </trkpt>
      <trkpt lat="44.45839" lon="1.82327">
        <ele>242.2</ele>
        <time>2022-04-10T12:26:20Z</time>
      </trkpt>
      <trkpt lat="44.45834" lon="1.82333">
        <ele>242.7</ele>
        <time>2022-04-10T12:26:22Z</time>
      </trkpt>
      <trkpt lat="44.45829" lon="1.82337">
        <ele>243.2</ele>
        <time>2022-04-10T12:26:23Z</time>
      </trkpt>
      <trkpt lat="44.45827" lon="1.82338">
        <ele>243.4</ele>
        <time>2022-04-10T12:26:24Z</time>
      </trkpt>
      <trkpt lat="44.45823" lon="1.8234">
        <ele>243.7</ele>
        <time>2022-04-10T12:26:26Z</time>
      </trkpt>
      <trkpt lat="44.4582" lon="1.82342">
        <ele>243.9</ele>
        <time>2022-04-10T12:26:27Z</time>
      </trkpt>
      <trkpt lat="44.45818" lon="1.82344">
        <ele>244.3</ele>
        <time>2022-04-10T12:26:28Z</time>
      </trkpt>
      <trkpt lat="44.45817" lon="1.82344">
        <ele>244.4</ele>
        <time>2022-04-10T12:26:29Z</time>
      </trkpt>
      <trkpt lat="44.45814" lon="1.82347">
        <ele>244.8</ele>
        <time>2022-04-10T12:26:30Z</time>
      </trkpt>
      <trkpt lat="44.45812" lon="1.82348">
        <ele>245</ele>
        <time>2022-04-10T12:26:31Z</time>
      </trkpt>
      <trkpt lat="44.45809" lon="1.82349">
        <ele>245.4</ele>
        <time>2022-04-10T12:26:32Z</time>
      </trkpt>
      <trkpt lat="44.45806" lon="1.8235">
        <ele>245.8</ele>
        <time>2022-04-10T12:26:33Z</time>
      </trkpt>
      <trkpt lat="44.45802" lon="1.82349">
        <ele>246.3</ele>
        <time>2022-04-10T12:26:35Z</time>
      </trkpt>
      <trkpt lat="44.45802" lon="1.82349">
        <ele>246.4</ele>
        <time>2022-04-10T12:26:36Z</time>
      </trkpt>
      <trkpt lat="44.45801" lon="1.82348">
        <ele>246.5</ele>
        <time>2022-04-10T12:26:37Z</time>
      </trkpt>
      <trkpt lat="44.458" lon="1.82348">
        <ele>246.6</ele>
        <time>2022-04-10T12:26:38Z</time>
      </trkpt>
      <trkpt lat="44.458" lon="1.82348">
        <ele>246.7</ele>
        <time>2022-04-10T12:26:39Z</time>
      </trkpt>
      <trkpt lat="44.45797" lon="1.82346">
        <ele>247</ele>
        <time>2022-04-10T12:26:40Z</time>
      </trkpt>
      <trkpt lat="44.45795" lon="1.82345">
        <ele>247.4</ele>
        <time>2022-04-10T12:26:41Z</time>
      </trkpt>
      <trkpt lat="44.45791" lon="1.82343">
        <ele>247.9</ele>
        <time>2022-04-10T12:26:42Z</time>
      </trkpt>
      <trkpt lat="44.45787" lon="1.82341">
        <ele>248.6</ele>
        <time>2022-04-10T12:26:44Z</time>
      </trkpt>
      <trkpt lat="44.45785" lon="1.82339">
        <ele>249</ele>
        <time>2022-04-10T12:26:45Z</time>
      </trkpt>
      <trkpt lat="44.45781" lon="1.82337">
        <ele>249.4</ele>
        <time>2022-04-10T12:26:46Z</time>
      </trkpt>
      <trkpt lat="44.45776" lon="1.82335">
        <ele>250.3</ele>
        <time>2022-04-10T12:26:48Z</time>
      </trkpt>
      <trkpt lat="44.45772" lon="1.82333">
        <ele>251</ele>
        <time>2022-04-10T12:26:49Z</time>
      </trkpt>
      <trkpt lat="44.45768" lon="1.82331">
        <ele>251.6</ele>
        <time>2022-04-10T12:26:51Z</time>
      </trkpt>
      <trkpt lat="44.45765" lon="1.82331">
        <ele>252.1</ele>
        <time>2022-04-10T12:26:52Z</time>
      </trkpt>
      <trkpt lat="44.45764" lon="1.8233">
        <ele>252.3</ele>
        <time>2022-04-10T12:26:53Z</time>
      </trkpt>
      <trkpt lat="44.4576" lon="1.8233">
        <ele>252.8</ele>
        <time>2022-04-10T12:26:54Z</time>
      </trkpt>
      <trkpt lat="44.45758" lon="1.8233">
        <ele>253.1</ele>
        <time>2022-04-10T12:26:56Z</time>
      </trkpt>
      <trkpt lat="44.45757" lon="1.8233">
        <ele>253.2</ele>
        <time>2022-04-10T12:26:57Z</time>
      </trkpt>
      <trkpt lat="44.45756" lon="1.8233">
        <ele>253.3</ele>
        <time>2022-04-10T12:26:58Z</time>
      </trkpt>
      <trkpt lat="44.45753" lon="1.8233">
        <ele>253.8</ele>
        <time>2022-04-10T12:26:59Z</time>
      </trkpt>
      <trkpt lat="44.45749" lon="1.8233">
        <ele>254.3</ele>
        <time>2022-04-10T12:27:01Z</time>
      </trkpt>
      <trkpt lat="44.45746" lon="1.8233">
        <ele>254.6</ele>
        <time>2022-04-10T12:27:02Z</time>
      </trkpt>
      <trkpt lat="44.45745" lon="1.8233">
        <ele>254.8</ele>
        <time>2022-04-10T12:27:03Z</time>
      </trkpt>
      <trkpt lat="44.45742" lon="1.82331">
        <ele>255.2</ele>
        <time>2022-04-10T12:27:04Z</time>
      </trkpt>
      <trkpt lat="44.4574" lon="1.82332">
        <ele>255.3</ele>
        <time>2022-04-10T12:27:05Z</time>
      </trkpt>
      <trkpt lat="44.45737" lon="1.82333">
        <ele>255.7</ele>
        <time>2022-04-10T12:27:06Z</time>
      </trkpt>
      <trkpt lat="44.45733" lon="1.82334">
        <ele>256.2</ele>
        <time>2022-04-10T12:27:08Z</time>
      </trkpt>
      <trkpt lat="44.4573" lon="1.82337">
        <ele>256.6</ele>
        <time>2022-04-10T12:27:10Z</time>
      </trkpt>
      <trkpt lat="44.45728" lon="1.82339">
        <ele>256.9</ele>
        <time>2022-04-10T12:27:11Z</time>
      </trkpt>
      <trkpt lat="44.45727" lon="1.8234">
        <ele>257.1</ele>
        <time>2022-04-10T12:27:12Z</time>
      </trkpt>
      <trkpt lat="44.45726" lon="1.82341">
        <ele>257.2</ele>
        <time>2022-04-10T12:27:13Z</time>
      </trkpt>
      <trkpt lat="44.45725" lon="1.82342">
        <ele>257.3</ele>
        <time>2022-04-10T12:27:14Z</time>
      </trkpt>
      <trkpt lat="44.45725" lon="1.82343">
        <ele>257.5</ele>
        <time>2022-04-10T12:27:15Z</time>
      </trkpt>
      <trkpt lat="44.45724" lon="1.82345">
        <ele>257.7</ele>
        <time>2022-04-10T12:27:16Z</time>
      </trkpt>
      <trkpt lat="44.45724" lon="1.82347">
        <ele>257.9</ele>
        <time>2022-04-10T12:27:17Z</time>
      </trkpt>
      <trkpt lat="44.45723" lon="1.82349">
        <ele>258.1</ele>
        <time>2022-04-10T12:27:18Z</time>
      </trkpt>
      <trkpt lat="44.45723" lon="1.82353">
        <ele>258.4</ele>
        <time>2022-04-10T12:27:20Z</time>
      </trkpt>
      <trkpt lat="44.45721" lon="1.82357">
        <ele>258.8</ele>
        <time>2022-04-10T12:27:21Z</time>
      </trkpt>
      <trkpt lat="44.4572" lon="1.82358">
        <ele>258.9</ele>
        <time>2022-04-10T12:27:22Z</time>
      </trkpt>
      <trkpt lat="44.4572" lon="1.8236">
        <ele>259.1</ele>
        <time>2022-04-10T12:27:23Z</time>
      </trkpt>
      <trkpt lat="44.4572" lon="1.82362">
        <ele>259.3</ele>
        <time>2022-04-10T12:27:24Z</time>
      </trkpt>
      <trkpt lat="44.45719" lon="1.82365">
        <ele>259.5</ele>
        <time>2022-04-10T12:27:25Z</time>
      </trkpt>
      <trkpt lat="44.45718" lon="1.82368">
        <ele>259.8</ele>
        <time>2022-04-10T12:27:27Z</time>
      </trkpt>
      <trkpt lat="44.45717" lon="1.82372">
        <ele>260.2</ele>
        <time>2022-04-10T12:27:28Z</time>
      </trkpt>
      <trkpt lat="44.45715" lon="1.82376">
        <ele>260.5</ele>
        <time>2022-04-10T12:27:29Z</time>
      </trkpt>
      <trkpt lat="44.45714" lon="1.8238">
        <ele>260.9</ele>
        <time>2022-04-10T12:27:30Z</time>
      </trkpt>
      <trkpt lat="44.45714" lon="1.82381">
        <ele>261</ele>
        <time>2022-04-10T12:27:31Z</time>
      </trkpt>
      <trkpt lat="44.45712" lon="1.82386">
        <ele>261.4</ele>
        <time>2022-04-10T12:27:32Z</time>
      </trkpt>
      <trkpt lat="44.45712" lon="1.82387">
        <ele>261.6</ele>
        <time>2022-04-10T12:27:33Z</time>
      </trkpt>
      <trkpt lat="44.4571" lon="1.82393">
        <ele>262.1</ele>
        <time>2022-04-10T12:27:35Z</time>
      </trkpt>
      <trkpt lat="44.45709" lon="1.82395">
        <ele>262.2</ele>
        <time>2022-04-10T12:27:36Z</time>
      </trkpt>
      <trkpt lat="44.45708" lon="1.82397">
        <ele>262.4</ele>
        <time>2022-04-10T12:27:37Z</time>
      </trkpt>
      <trkpt lat="44.45707" lon="1.82399">
        <ele>262.6</ele>
        <time>2022-04-10T12:27:38Z</time>
      </trkpt>
      <trkpt lat="44.45705" lon="1.82404">
        <ele>262.9</ele>
        <time>2022-04-10T12:27:40Z</time>
      </trkpt>
      <trkpt lat="44.45703" lon="1.82409">
        <ele>263.3</ele>
        <time>2022-04-10T12:27:41Z</time>
      </trkpt>
      <trkpt lat="44.45702" lon="1.82412">
        <ele>263.5</ele>
        <time>2022-04-10T12:27:42Z</time>
      </trkpt>
      <trkpt lat="44.457" lon="1.82415">
        <ele>263.7</ele>
        <time>2022-04-10T12:27:43Z</time>
      </trkpt>
      <trkpt lat="44.45698" lon="1.82419">
        <ele>263.9</ele>
        <time>2022-04-10T12:27:44Z</time>
      </trkpt>
      <trkpt lat="44.45698" lon="1.82421">
        <ele>263.9</ele>
        <time>2022-04-10T12:27:45Z</time>
      </trkpt>
      <trkpt lat="44.45696" lon="1.82424">
        <ele>264.1</ele>
        <time>2022-04-10T12:27:46Z</time>
      </trkpt>
      <trkpt lat="44.45692" lon="1.82426">
        <ele>264.3</ele>
        <time>2022-04-10T12:27:48Z</time>
      </trkpt>
      <trkpt lat="44.45689" lon="1.8243">
        <ele>264.5</ele>
        <time>2022-04-10T12:27:49Z</time>
      </trkpt>
      <trkpt lat="44.45686" lon="1.82432">
        <ele>264.7</ele>
        <time>2022-04-10T12:27:50Z</time>
      </trkpt>
      <trkpt lat="44.45685" lon="1.82433">
        <ele>264.8</ele>
        <time>2022-04-10T12:27:52Z</time>
      </trkpt>
      <trkpt lat="44.45683" lon="1.82435">
        <ele>264.9</ele>
        <time>2022-04-10T12:27:53Z</time>
      </trkpt>
      <trkpt lat="44.45681" lon="1.82436">
        <ele>265</ele>
        <time>2022-04-10T12:27:54Z</time>
      </trkpt>
      <trkpt lat="44.45679" lon="1.82438">
        <ele>265.1</ele>
        <time>2022-04-10T12:27:55Z</time>
      </trkpt>
      <trkpt lat="44.45676" lon="1.8244">
        <ele>265.3</ele>
        <time>2022-04-10T12:27:56Z</time>
      </trkpt>
      <trkpt lat="44.45674" lon="1.82443">
        <ele>265.5</ele>
        <time>2022-04-10T12:27:57Z</time>
      </trkpt>
      <trkpt lat="44.45671" lon="1.82446">
        <ele>265.8</ele>
        <time>2022-04-10T12:27:59Z</time>
      </trkpt>
      <trkpt lat="44.45668" lon="1.82449">
        <ele>266.3</ele>
        <time>2022-04-10T12:28:00Z</time>
      </trkpt>
      <trkpt lat="44.45665" lon="1.82451">
        <ele>266.7</ele>
        <time>2022-04-10T12:28:01Z</time>
      </trkpt>
      <trkpt lat="44.45661" lon="1.82454">
        <ele>267.1</ele>
        <time>2022-04-10T12:28:02Z</time>
      </trkpt>
      <trkpt lat="44.4566" lon="1.82455">
        <ele>267.3</ele>
        <time>2022-04-10T12:28:03Z</time>
      </trkpt>
      <trkpt lat="44.45658" lon="1.82456">
        <ele>267.6</ele>
        <time>2022-04-10T12:28:05Z</time>
      </trkpt>
      <trkpt lat="44.45655" lon="1.82458">
        <ele>267.9</ele>
        <time>2022-04-10T12:28:06Z</time>
      </trkpt>
      <trkpt lat="44.45652" lon="1.8246">
        <ele>268.4</ele>
        <time>2022-04-10T12:28:07Z</time>
      </trkpt>
      <trkpt lat="44.4565" lon="1.82462">
        <ele>268.6</ele>
        <time>2022-04-10T12:28:08Z</time>
      </trkpt>
      <trkpt lat="44.45649" lon="1.82462">
        <ele>268.7</ele>
        <time>2022-04-10T12:28:09Z</time>
      </trkpt>
      <trkpt lat="44.4565" lon="1.82462">
        <ele>268.8</ele>
        <time>2022-04-10T12:28:10Z</time>
      </trkpt>
      <trkpt lat="44.4565" lon="1.82463">
        <ele>268.8</ele>
        <time>2022-04-10T12:28:11Z</time>
      </trkpt>
      <trkpt lat="44.45651" lon="1.82463">
        <ele>268.9</ele>
        <time>2022-04-10T12:28:12Z</time>
      </trkpt>
      <trkpt lat="44.4565" lon="1.82463">
        <ele>268.9</ele>
        <time>2022-04-10T12:28:14Z</time>
      </trkpt>
      <trkpt lat="44.4565" lon="1.82463">
        <ele>269</ele>
        <time>2022-04-10T12:28:15Z</time>
      </trkpt>
      <trkpt lat="44.45651" lon="1.82463">
        <ele>269</ele>
        <time>2022-04-10T12:28:16Z</time>
      </trkpt>
      <trkpt lat="44.45651" lon="1.82463">
        <ele>269</ele>
        <time>2022-04-10T12:28:17Z</time>
      </trkpt>
      <trkpt lat="44.45651" lon="1.82463">
        <ele>269</ele>
        <time>2022-04-10T12:28:18Z</time>
      </trkpt>
      <trkpt lat="44.45651" lon="1.82463">
        <ele>269</ele>
        <time>2022-04-10T12:28:19Z</time>
      </trkpt>
      <trkpt lat="44.45651" lon="1.82463">
        <ele>269</ele>
        <time>2022-04-10T12:28:20Z</time>
      </trkpt>
      <trkpt lat="44.45651" lon="1.82463">
        <ele>269</ele>
        <time>2022-04-10T12:28:21Z</time>
      </trkpt>
      <trkpt lat="44.45651" lon="1.82463">
        <ele>269.1</ele>
        <time>2022-04-10T12:28:22Z</time>
      </trkpt>
      <trkpt lat="44.45651" lon="1.82463">
        <ele>269.1</ele>
        <time>2022-04-10T12:28:23Z</time>
      </trkpt>
      <trkpt lat="44.45651" lon="1.82462">
        <ele>269.1</ele>
        <time>2022-04-10T12:28:24Z</time>
      </trkpt>
      <trkpt lat="44.45651" lon="1.82462">
        <ele>269.1</ele>
        <time>2022-04-10T12:28:26Z</time>
      </trkpt>
      <trkpt lat="44.45651" lon="1.82462">
        <ele>269.1</ele>
        <time>2022-04-10T12:28:27Z</time>
      </trkpt>
      <trkpt lat="44.45651" lon="1.82462">
        <ele>269.1</ele>
        <time>2022-04-10T12:28:28Z</time>
      </trkpt>
      <trkpt lat="44.45651" lon="1.82462">
        <ele>269.1</ele>
        <time>2022-04-10T12:28:29Z</time>
      </trkpt>
      <trkpt lat="44.45651" lon="1.82462">
        <ele>269.2</ele>
        <time>2022-04-10T12:28:30Z</time>
      </trkpt>
      <trkpt lat="44.45647" lon="1.82467">
        <ele>269.7</ele>
        <time>2022-04-10T12:32:32Z</time>
      </trkpt>
      <trkpt lat="44.45646" lon="1.82469">
        <ele>270</ele>
        <time>2022-04-10T12:32:33Z</time>
      </trkpt>
      <trkpt lat="44.45643" lon="1.82472">
        <ele>270.4</ele>
        <time>2022-04-10T12:32:35Z</time>
      </trkpt>
      <trkpt lat="44.4564" lon="1.82474">
        <ele>270.8</ele>
        <time>2022-04-10T12:32:36Z</time>
      </trkpt>
      <trkpt lat="44.45637" lon="1.82476">
        <ele>271.2</ele>
        <time>2022-04-10T12:32:37Z</time>
      </trkpt>
      <trkpt lat="44.45636" lon="1.82477">
        <ele>271.3</ele>
        <time>2022-04-10T12:32:38Z</time>
      </trkpt>
      <trkpt lat="44.45633" lon="1.8248">
        <ele>271.7</ele>
        <time>2022-04-10T12:32:39Z</time>
      </trkpt>
      <trkpt lat="44.4563" lon="1.82484">
        <ele>272.2</ele>
        <time>2022-04-10T12:32:41Z</time>
      </trkpt>
      <trkpt lat="44.45629" lon="1.82486">
        <ele>272.4</ele>
        <time>2022-04-10T12:32:42Z</time>
      </trkpt>
      <trkpt lat="44.45628" lon="1.82487">
        <ele>272.6</ele>
        <time>2022-04-10T12:32:43Z</time>
      </trkpt>
      <trkpt lat="44.45627" lon="1.82491">
        <ele>272.9</ele>
        <time>2022-04-10T12:32:44Z</time>
      </trkpt>
      <trkpt lat="44.45626" lon="1.82492">
        <ele>273</ele>
        <time>2022-04-10T12:32:45Z</time>
      </trkpt>
      <trkpt lat="44.45625" lon="1.82493">
        <ele>273.2</ele>
        <time>2022-04-10T12:32:46Z</time>
      </trkpt>
      <trkpt lat="44.45624" lon="1.82496">
        <ele>273.4</ele>
        <time>2022-04-10T12:32:47Z</time>
      </trkpt>
      <trkpt lat="44.45622" lon="1.82499">
        <ele>273.8</ele>
        <time>2022-04-10T12:32:49Z</time>
      </trkpt>
      <trkpt lat="44.45622" lon="1.82501">
        <ele>273.9</ele>
        <time>2022-04-10T12:32:50Z</time>
      </trkpt>
      <trkpt lat="44.45619" lon="1.82504">
        <ele>274.3</ele>
        <time>2022-04-10T12:32:51Z</time>
      </trkpt>
      <trkpt lat="44.45619" lon="1.82505">
        <ele>274.4</ele>
        <time>2022-04-10T12:32:52Z</time>
      </trkpt>
      <trkpt lat="44.45616" lon="1.82509">
        <ele>274.8</ele>
        <time>2022-04-10T12:32:53Z</time>
      </trkpt>
      <trkpt lat="44.45614" lon="1.82513">
        <ele>275.2</ele>
        <time>2022-04-10T12:32:55Z</time>
      </trkpt>
      <trkpt lat="44.45612" lon="1.82517">
        <ele>275.6</ele>
        <time>2022-04-10T12:32:56Z</time>
      </trkpt>
      <trkpt lat="44.4561" lon="1.82521">
        <ele>276.1</ele>
        <time>2022-04-10T12:32:57Z</time>
      </trkpt>
      <trkpt lat="44.45609" lon="1.82524">
        <ele>276.4</ele>
        <time>2022-04-10T12:32:58Z</time>
      </trkpt>
      <trkpt lat="44.45607" lon="1.82528">
        <ele>276.7</ele>
        <time>2022-04-10T12:32:59Z</time>
      </trkpt>
      <trkpt lat="44.45605" lon="1.82532">
        <ele>277.2</ele>
        <time>2022-04-10T12:33:00Z</time>
      </trkpt>
      <trkpt lat="44.45602" lon="1.82537">
        <ele>277.7</ele>
        <time>2022-04-10T12:33:02Z</time>
      </trkpt>
      <trkpt lat="44.45598" lon="1.82539">
        <ele>278.1</ele>
        <time>2022-04-10T12:33:03Z</time>
      </trkpt>
      <trkpt lat="44.45597" lon="1.8254">
        <ele>278.3</ele>
        <time>2022-04-10T12:33:04Z</time>
      </trkpt>
      <trkpt lat="44.45595" lon="1.82542">
        <ele>278.6</ele>
        <time>2022-04-10T12:33:05Z</time>
      </trkpt>
      <trkpt lat="44.45592" lon="1.82543">
        <ele>278.9</ele>
        <time>2022-04-10T12:33:07Z</time>
      </trkpt>
      <trkpt lat="44.45589" lon="1.82543">
        <ele>279.3</ele>
        <time>2022-04-10T12:33:08Z</time>
      </trkpt>
      <trkpt lat="44.45586" lon="1.82543">
        <ele>279.7</ele>
        <time>2022-04-10T12:33:09Z</time>
      </trkpt>
      <trkpt lat="44.45583" lon="1.82544">
        <ele>280</ele>
        <time>2022-04-10T12:33:10Z</time>
      </trkpt>
      <trkpt lat="44.4558" lon="1.82543">
        <ele>280.3</ele>
        <time>2022-04-10T12:33:11Z</time>
      </trkpt>
      <trkpt lat="44.45576" lon="1.82543">
        <ele>280.8</ele>
        <time>2022-04-10T12:33:13Z</time>
      </trkpt>
      <trkpt lat="44.45572" lon="1.82543">
        <ele>281.3</ele>
        <time>2022-04-10T12:33:14Z</time>
      </trkpt>
      <trkpt lat="44.45571" lon="1.82544">
        <ele>281.4</ele>
        <time>2022-04-10T12:33:15Z</time>
      </trkpt>
      <trkpt lat="44.45568" lon="1.82544">
        <ele>281.7</ele>
        <time>2022-04-10T12:33:16Z</time>
      </trkpt>
      <trkpt lat="44.45567" lon="1.82544">
        <ele>281.9</ele>
        <time>2022-04-10T12:33:17Z</time>
      </trkpt>
      <trkpt lat="44.45562" lon="1.82544">
        <ele>282.4</ele>
        <time>2022-04-10T12:33:19Z</time>
      </trkpt>
      <trkpt lat="44.4556" lon="1.82543">
        <ele>282.6</ele>
        <time>2022-04-10T12:33:20Z</time>
      </trkpt>
      <trkpt lat="44.45558" lon="1.82543">
        <ele>282.8</ele>
        <time>2022-04-10T12:33:21Z</time>
      </trkpt>
      <trkpt lat="44.45556" lon="1.82545">
        <ele>283.2</ele>
        <time>2022-04-10T12:33:22Z</time>
      </trkpt>
      <trkpt lat="44.45553" lon="1.82547">
        <ele>283.5</ele>
        <time>2022-04-10T12:33:23Z</time>
      </trkpt>
      <trkpt lat="44.4555" lon="1.82548">
        <ele>283.9</ele>
        <time>2022-04-10T12:33:24Z</time>
      </trkpt>
      <trkpt lat="44.45548" lon="1.8255">
        <ele>284.2</ele>
        <time>2022-04-10T12:33:25Z</time>
      </trkpt>
      <trkpt lat="44.45546" lon="1.82552">
        <ele>284.5</ele>
        <time>2022-04-10T12:33:27Z</time>
      </trkpt>
      <trkpt lat="44.45544" lon="1.82553">
        <ele>284.7</ele>
        <time>2022-04-10T12:33:28Z</time>
      </trkpt>
      <trkpt lat="44.45543" lon="1.82555">
        <ele>284.9</ele>
        <time>2022-04-10T12:33:29Z</time>
      </trkpt>
      <trkpt lat="44.45539" lon="1.82556">
        <ele>285.4</ele>
        <time>2022-04-10T12:33:30Z</time>
      </trkpt>
      <trkpt lat="44.45537" lon="1.82557">
        <ele>285.5</ele>
        <time>2022-04-10T12:33:31Z</time>
      </trkpt>
      <trkpt lat="44.45534" lon="1.82557">
        <ele>286</ele>
        <time>2022-04-10T12:33:33Z</time>
      </trkpt>
      <trkpt lat="44.45529" lon="1.82558">
        <ele>286.5</ele>
        <time>2022-04-10T12:33:34Z</time>
      </trkpt>
      <trkpt lat="44.45526" lon="1.82558">
        <ele>286.9</ele>
        <time>2022-04-10T12:33:35Z</time>
      </trkpt>
      <trkpt lat="44.45523" lon="1.82559">
        <ele>287.2</ele>
        <time>2022-04-10T12:33:36Z</time>
      </trkpt>
      <trkpt lat="44.4552" lon="1.82561">
        <ele>287.6</ele>
        <time>2022-04-10T12:33:38Z</time>
      </trkpt>
      <trkpt lat="44.45516" lon="1.82563">
        <ele>288.1</ele>
        <time>2022-04-10T12:33:39Z</time>
      </trkpt>
      <trkpt lat="44.45515" lon="1.82564">
        <ele>288.2</ele>
        <time>2022-04-10T12:33:40Z</time>
      </trkpt>
      <trkpt lat="44.45511" lon="1.82566">
        <ele>288.8</ele>
        <time>2022-04-10T12:33:42Z</time>
      </trkpt>
      <trkpt lat="44.45508" lon="1.82569">
        <ele>289.2</ele>
        <time>2022-04-10T12:33:43Z</time>
      </trkpt>
      <trkpt lat="44.45503" lon="1.82573">
        <ele>289.8</ele>
        <time>2022-04-10T12:33:45Z</time>
      </trkpt>
      <trkpt lat="44.45501" lon="1.82574">
        <ele>290.1</ele>
        <time>2022-04-10T12:33:46Z</time>
      </trkpt>
      <trkpt lat="44.45499" lon="1.82576">
        <ele>290.3</ele>
        <time>2022-04-10T12:33:47Z</time>
      </trkpt>
      <trkpt lat="44.45496" lon="1.82578">
        <ele>290.7</ele>
        <time>2022-04-10T12:33:48Z</time>
      </trkpt>
      <trkpt lat="44.45494" lon="1.82581">
        <ele>291</ele>
        <time>2022-04-10T12:33:49Z</time>
      </trkpt>
      <trkpt lat="44.45491" lon="1.82584">
        <ele>291.5</ele>
        <time>2022-04-10T12:33:50Z</time>
      </trkpt>
      <trkpt lat="44.4549" lon="1.82585">
        <ele>291.6</ele>
        <time>2022-04-10T12:33:51Z</time>
      </trkpt>
      <trkpt lat="44.45487" lon="1.82587">
        <ele>292</ele>
        <time>2022-04-10T12:33:52Z</time>
      </trkpt>
      <trkpt lat="44.45485" lon="1.82589">
        <ele>292.3</ele>
        <time>2022-04-10T12:33:53Z</time>
      </trkpt>
      <trkpt lat="44.45481" lon="1.82592">
        <ele>292.8</ele>
        <time>2022-04-10T12:33:54Z</time>
      </trkpt>
      <trkpt lat="44.4548" lon="1.82593">
        <ele>292.9</ele>
        <time>2022-04-10T12:33:55Z</time>
      </trkpt>
      <trkpt lat="44.45476" lon="1.82598">
        <ele>293.6</ele>
        <time>2022-04-10T12:33:57Z</time>
      </trkpt>
      <trkpt lat="44.45474" lon="1.82601">
        <ele>293.9</ele>
        <time>2022-04-10T12:33:58Z</time>
      </trkpt>
      <trkpt lat="44.45471" lon="1.82603">
        <ele>294.3</ele>
        <time>2022-04-10T12:33:59Z</time>
      </trkpt>
      <trkpt lat="44.45468" lon="1.82605">
        <ele>294.6</ele>
        <time>2022-04-10T12:34:00Z</time>
      </trkpt>
      <trkpt lat="44.45466" lon="1.82608">
        <ele>295</ele>
        <time>2022-04-10T12:34:01Z</time>
      </trkpt>
      <trkpt lat="44.45463" lon="1.8261">
        <ele>295.4</ele>
        <time>2022-04-10T12:34:02Z</time>
      </trkpt>
      <trkpt lat="44.4546" lon="1.82613">
        <ele>295.8</ele>
        <time>2022-04-10T12:34:03Z</time>
      </trkpt>
      <trkpt lat="44.45459" lon="1.82613">
        <ele>295.9</ele>
        <time>2022-04-10T12:34:04Z</time>
      </trkpt>
      <trkpt lat="44.45457" lon="1.82616">
        <ele>296.3</ele>
        <time>2022-04-10T12:34:05Z</time>
      </trkpt>
      <trkpt lat="44.45456" lon="1.82617">
        <ele>296.4</ele>
        <time>2022-04-10T12:34:06Z</time>
      </trkpt>
      <trkpt lat="44.45453" lon="1.82619">
        <ele>296.7</ele>
        <time>2022-04-10T12:34:07Z</time>
      </trkpt>
      <trkpt lat="44.45451" lon="1.82621">
        <ele>297</ele>
        <time>2022-04-10T12:34:08Z</time>
      </trkpt>
      <trkpt lat="44.45447" lon="1.82624">
        <ele>297.6</ele>
        <time>2022-04-10T12:34:09Z</time>
      </trkpt>
      <trkpt lat="44.45445" lon="1.82626">
        <ele>297.8</ele>
        <time>2022-04-10T12:34:10Z</time>
      </trkpt>
      <trkpt lat="44.45443" lon="1.82629">
        <ele>298.2</ele>
        <time>2022-04-10T12:34:11Z</time>
      </trkpt>
      <trkpt lat="44.4544" lon="1.82633">
        <ele>298.6</ele>
        <time>2022-04-10T12:34:13Z</time>
      </trkpt>
      <trkpt lat="44.45438" lon="1.82636">
        <ele>299</ele>
        <time>2022-04-10T12:34:14Z</time>
      </trkpt>
      <trkpt lat="44.45434" lon="1.82641">
        <ele>299.6</ele>
        <time>2022-04-10T12:34:15Z</time>
      </trkpt>
      <trkpt lat="44.45432" lon="1.82643">
        <ele>299.9</ele>
        <time>2022-04-10T12:34:16Z</time>
      </trkpt>
      <trkpt lat="44.4543" lon="1.82646">
        <ele>300.3</ele>
        <time>2022-04-10T12:34:17Z</time>
      </trkpt>
      <trkpt lat="44.45427" lon="1.82652">
        <ele>300.9</ele>
        <time>2022-04-10T12:34:19Z</time>
      </trkpt>
      <trkpt lat="44.45424" lon="1.82656">
        <ele>301.3</ele>
        <time>2022-04-10T12:34:20Z</time>
      </trkpt>
      <trkpt lat="44.45421" lon="1.82659">
        <ele>301.6</ele>
        <time>2022-04-10T12:34:21Z</time>
      </trkpt>
      <trkpt lat="44.45419" lon="1.82662">
        <ele>301.9</ele>
        <time>2022-04-10T12:34:22Z</time>
      </trkpt>
      <trkpt lat="44.45417" lon="1.82666">
        <ele>302.1</ele>
        <time>2022-04-10T12:34:23Z</time>
      </trkpt>
      <trkpt lat="44.45414" lon="1.82669">
        <ele>302.3</ele>
        <time>2022-04-10T12:34:24Z</time>
      </trkpt>
      <trkpt lat="44.45412" lon="1.82672">
        <ele>302.6</ele>
        <time>2022-04-10T12:34:25Z</time>
      </trkpt>
      <trkpt lat="44.4541" lon="1.82676">
        <ele>302.8</ele>
        <time>2022-04-10T12:34:26Z</time>
      </trkpt>
      <trkpt lat="44.45408" lon="1.82681">
        <ele>303.1</ele>
        <time>2022-04-10T12:34:27Z</time>
      </trkpt>
      <trkpt lat="44.45405" lon="1.82687">
        <ele>303.4</ele>
        <time>2022-04-10T12:34:29Z</time>
      </trkpt>
      <trkpt lat="44.45404" lon="1.82692">
        <ele>303.7</ele>
        <time>2022-04-10T12:34:30Z</time>
      </trkpt>
      <trkpt lat="44.45402" lon="1.82697">
        <ele>304</ele>
        <time>2022-04-10T12:34:31Z</time>
      </trkpt>
      <trkpt lat="44.454" lon="1.82701">
        <ele>304.2</ele>
        <time>2022-04-10T12:34:32Z</time>
      </trkpt>
      <trkpt lat="44.45398" lon="1.82705">
        <ele>304.5</ele>
        <time>2022-04-10T12:34:33Z</time>
      </trkpt>
      <trkpt lat="44.45396" lon="1.82709">
        <ele>304.7</ele>
        <time>2022-04-10T12:34:34Z</time>
      </trkpt>
      <trkpt lat="44.45394" lon="1.82713">
        <ele>304.9</ele>
        <time>2022-04-10T12:34:35Z</time>
      </trkpt>
      <trkpt lat="44.45393" lon="1.82715">
        <ele>305.1</ele>
        <time>2022-04-10T12:34:36Z</time>
      </trkpt>
      <trkpt lat="44.45389" lon="1.8272">
        <ele>305.4</ele>
        <time>2022-04-10T12:34:38Z</time>
      </trkpt>
      <trkpt lat="44.45386" lon="1.82725">
        <ele>305.7</ele>
        <time>2022-04-10T12:34:39Z</time>
      </trkpt>
      <trkpt lat="44.45383" lon="1.8273">
        <ele>306.1</ele>
        <time>2022-04-10T12:34:40Z</time>
      </trkpt>
      <trkpt lat="44.45381" lon="1.82733">
        <ele>306.3</ele>
        <time>2022-04-10T12:34:41Z</time>
      </trkpt>
      <trkpt lat="44.45379" lon="1.82737">
        <ele>306.5</ele>
        <time>2022-04-10T12:34:42Z</time>
      </trkpt>
      <trkpt lat="44.45377" lon="1.82741">
        <ele>306.8</ele>
        <time>2022-04-10T12:34:44Z</time>
      </trkpt>
      <trkpt lat="44.45375" lon="1.82747">
        <ele>307.1</ele>
        <time>2022-04-10T12:34:45Z</time>
      </trkpt>
      <trkpt lat="44.45373" lon="1.8275">
        <ele>307.3</ele>
        <time>2022-04-10T12:34:46Z</time>
      </trkpt>
      <trkpt lat="44.4537" lon="1.82756">
        <ele>307.6</ele>
        <time>2022-04-10T12:34:47Z</time>
      </trkpt>
      <trkpt lat="44.45368" lon="1.8276">
        <ele>307.9</ele>
        <time>2022-04-10T12:34:48Z</time>
      </trkpt>
      <trkpt lat="44.45367" lon="1.82763">
        <ele>308.1</ele>
        <time>2022-04-10T12:34:49Z</time>
      </trkpt>
      <trkpt lat="44.45365" lon="1.82767">
        <ele>308.3</ele>
        <time>2022-04-10T12:34:50Z</time>
      </trkpt>
      <trkpt lat="44.45363" lon="1.82772">
        <ele>308.6</ele>
        <time>2022-04-10T12:34:51Z</time>
      </trkpt>
      <trkpt lat="44.45361" lon="1.82776">
        <ele>308.8</ele>
        <time>2022-04-10T12:34:52Z</time>
      </trkpt>
      <trkpt lat="44.45359" lon="1.82781">
        <ele>309.1</ele>
        <time>2022-04-10T12:34:53Z</time>
      </trkpt>
      <trkpt lat="44.45356" lon="1.82786">
        <ele>309.4</ele>
        <time>2022-04-10T12:34:54Z</time>
      </trkpt>
      <trkpt lat="44.45354" lon="1.82791">
        <ele>309.7</ele>
        <time>2022-04-10T12:34:55Z</time>
      </trkpt>
      <trkpt lat="44.45352" lon="1.82795">
        <ele>310</ele>
        <time>2022-04-10T12:34:56Z</time>
      </trkpt>
      <trkpt lat="44.45349" lon="1.82803">
        <ele>310.4</ele>
        <time>2022-04-10T12:34:58Z</time>
      </trkpt>
      <trkpt lat="44.45345" lon="1.8281">
        <ele>310.8</ele>
        <time>2022-04-10T12:34:59Z</time>
      </trkpt>
      <trkpt lat="44.45342" lon="1.82815">
        <ele>311.2</ele>
        <time>2022-04-10T12:35:00Z</time>
      </trkpt>
      <trkpt lat="44.4534" lon="1.82819">
        <ele>311.4</ele>
        <time>2022-04-10T12:35:01Z</time>
      </trkpt>
      <trkpt lat="44.45338" lon="1.82826">
        <ele>311.8</ele>
        <time>2022-04-10T12:35:03Z</time>
      </trkpt>
      <trkpt lat="44.45336" lon="1.8283">
        <ele>312</ele>
        <time>2022-04-10T12:35:04Z</time>
      </trkpt>
      <trkpt lat="44.45333" lon="1.82838">
        <ele>312.5</ele>
        <time>2022-04-10T12:35:05Z</time>
      </trkpt>
      <trkpt lat="44.45329" lon="1.82844">
        <ele>312.8</ele>
        <time>2022-04-10T12:35:06Z</time>
      </trkpt>
      <trkpt lat="44.45327" lon="1.82849">
        <ele>313.2</ele>
        <time>2022-04-10T12:35:07Z</time>
      </trkpt>
      <trkpt lat="44.45323" lon="1.82855">
        <ele>313.5</ele>
        <time>2022-04-10T12:35:08Z</time>
      </trkpt>
      <trkpt lat="44.4532" lon="1.8286">
        <ele>313.9</ele>
        <time>2022-04-10T12:35:09Z</time>
      </trkpt>
      <trkpt lat="44.45317" lon="1.82865">
        <ele>314.2</ele>
        <time>2022-04-10T12:35:10Z</time>
      </trkpt>
      <trkpt lat="44.45313" lon="1.82871">
        <ele>314.6</ele>
        <time>2022-04-10T12:35:12Z</time>
      </trkpt>
      <trkpt lat="44.45309" lon="1.82876">
        <ele>315</ele>
        <time>2022-04-10T12:35:13Z</time>
      </trkpt>
      <trkpt lat="44.45305" lon="1.82881">
        <ele>315.3</ele>
        <time>2022-04-10T12:35:14Z</time>
      </trkpt>
      <trkpt lat="44.45301" lon="1.82885">
        <ele>315.7</ele>
        <time>2022-04-10T12:35:16Z</time>
      </trkpt>
      <trkpt lat="44.45296" lon="1.82889">
        <ele>316.1</ele>
        <time>2022-04-10T12:35:17Z</time>
      </trkpt>
      <trkpt lat="44.45292" lon="1.82891">
        <ele>316.3</ele>
        <time>2022-04-10T12:35:18Z</time>
      </trkpt>
      <trkpt lat="44.45289" lon="1.82892">
        <ele>316.5</ele>
        <time>2022-04-10T12:35:19Z</time>
      </trkpt>
      <trkpt lat="44.45289" lon="1.82892">
        <ele>316.6</ele>
        <time>2022-04-10T12:35:20Z</time>
      </trkpt>
      <trkpt lat="44.45288" lon="1.82894">
        <ele>316.7</ele>
        <time>2022-04-10T12:35:21Z</time>
      </trkpt>
      <trkpt lat="44.45287" lon="1.82895">
        <ele>316.8</ele>
        <time>2022-04-10T12:35:23Z</time>
      </trkpt>
      <trkpt lat="44.45288" lon="1.82896">
        <ele>316.8</ele>
        <time>2022-04-10T12:35:24Z</time>
      </trkpt>
      <trkpt lat="44.45287" lon="1.82895">
        <ele>316.8</ele>
        <time>2022-04-10T12:35:25Z</time>
      </trkpt>
      <trkpt lat="44.45287" lon="1.82895">
        <ele>316.8</ele>
        <time>2022-04-10T12:35:26Z</time>
      </trkpt>
      <trkpt lat="44.45287" lon="1.82895">
        <ele>316.8</ele>
        <time>2022-04-10T12:35:27Z</time>
      </trkpt>
      <trkpt lat="44.45287" lon="1.82895">
        <ele>316.8</ele>
        <time>2022-04-10T12:35:28Z</time>
      </trkpt>
      <trkpt lat="44.45287" lon="1.82895">
        <ele>316.8</ele>
        <time>2022-04-10T12:35:29Z</time>
      </trkpt>
      <trkpt lat="44.45287" lon="1.82895">
        <ele>316.8</ele>
        <time>2022-04-10T12:35:30Z</time>
      </trkpt>
      <trkpt lat="44.45287" lon="1.82895">
        <ele>316.8</ele>
        <time>2022-04-10T12:35:31Z</time>
      </trkpt>
      <trkpt lat="44.45285" lon="1.82896">
        <ele>317</ele>
        <time>2022-04-10T12:35:33Z</time>
      </trkpt>
      <trkpt lat="44.45282" lon="1.82899">
        <ele>317.3</ele>
        <time>2022-04-10T12:35:35Z</time>
      </trkpt>
      <trkpt lat="44.45279" lon="1.829">
        <ele>317.5</ele>
        <time>2022-04-10T12:35:36Z</time>
      </trkpt>
      <trkpt lat="44.45277" lon="1.82901">
        <ele>317.6</ele>
        <time>2022-04-10T12:35:37Z</time>
      </trkpt>
      <trkpt lat="44.45276" lon="1.82901">
        <ele>317.7</ele>
        <time>2022-04-10T12:35:38Z</time>
      </trkpt>
      <trkpt lat="44.45275" lon="1.82902">
        <ele>317.7</ele>
        <time>2022-04-10T12:35:39Z</time>
      </trkpt>
      <trkpt lat="44.45274" lon="1.82902">
        <ele>317.8</ele>
        <time>2022-04-10T12:35:41Z</time>
      </trkpt>
      <trkpt lat="44.45273" lon="1.82903">
        <ele>317.9</ele>
        <time>2022-04-10T12:35:42Z</time>
      </trkpt>
      <trkpt lat="44.45269" lon="1.82905">
        <ele>318.2</ele>
        <time>2022-04-10T12:35:43Z</time>
      </trkpt>
      <trkpt lat="44.45265" lon="1.82907">
        <ele>318.5</ele>
        <time>2022-04-10T12:35:44Z</time>
      </trkpt>
      <trkpt lat="44.45261" lon="1.82909">
        <ele>318.7</ele>
        <time>2022-04-10T12:35:45Z</time>
      </trkpt>
      <trkpt lat="44.45259" lon="1.82911">
        <ele>318.9</ele>
        <time>2022-04-10T12:35:46Z</time>
      </trkpt>
      <trkpt lat="44.45255" lon="1.82913">
        <ele>319.2</ele>
        <time>2022-04-10T12:35:48Z</time>
      </trkpt>
      <trkpt lat="44.45252" lon="1.82914">
        <ele>319.4</ele>
        <time>2022-04-10T12:35:49Z</time>
      </trkpt>
      <trkpt lat="44.45249" lon="1.82915">
        <ele>319.7</ele>
        <time>2022-04-10T12:35:50Z</time>
      </trkpt>
      <trkpt lat="44.45248" lon="1.82915">
        <ele>319.7</ele>
        <time>2022-04-10T12:35:51Z</time>
      </trkpt>
      <trkpt lat="44.45245" lon="1.82915">
        <ele>319.9</ele>
        <time>2022-04-10T12:35:52Z</time>
      </trkpt>
      <trkpt lat="44.45242" lon="1.82917">
        <ele>320.2</ele>
        <time>2022-04-10T12:35:54Z</time>
      </trkpt>
      <trkpt lat="44.45238" lon="1.82919">
        <ele>320.5</ele>
        <time>2022-04-10T12:35:55Z</time>
      </trkpt>
      <trkpt lat="44.45234" lon="1.8292">
        <ele>320.7</ele>
        <time>2022-04-10T12:35:57Z</time>
      </trkpt>
      <trkpt lat="44.45232" lon="1.82922">
        <ele>320.9</ele>
        <time>2022-04-10T12:35:58Z</time>
      </trkpt>
      <trkpt lat="44.45227" lon="1.82926">
        <ele>321.3</ele>
        <time>2022-04-10T12:36:00Z</time>
      </trkpt>
      <trkpt lat="44.45225" lon="1.82928">
        <ele>321.5</ele>
        <time>2022-04-10T12:36:01Z</time>
      </trkpt>
      <trkpt lat="44.45223" lon="1.82929">
        <ele>321.6</ele>
        <time>2022-04-10T12:36:02Z</time>
      </trkpt>
      <trkpt lat="44.4522" lon="1.8293">
        <ele>321.8</ele>
        <time>2022-04-10T12:36:03Z</time>
      </trkpt>
      <trkpt lat="44.45217" lon="1.82932">
        <ele>322.1</ele>
        <time>2022-04-10T12:36:04Z</time>
      </trkpt>
      <trkpt lat="44.45216" lon="1.82933">
        <ele>322.2</ele>
        <time>2022-04-10T12:36:05Z</time>
      </trkpt>
      <trkpt lat="44.45213" lon="1.82933">
        <ele>322.5</ele>
        <time>2022-04-10T12:36:06Z</time>
      </trkpt>
      <trkpt lat="44.45211" lon="1.82933">
        <ele>322.6</ele>
        <time>2022-04-10T12:36:07Z</time>
      </trkpt>
      <trkpt lat="44.45207" lon="1.82933">
        <ele>323</ele>
        <time>2022-04-10T12:36:09Z</time>
      </trkpt>
      <trkpt lat="44.45203" lon="1.82933">
        <ele>323.3</ele>
        <time>2022-04-10T12:36:10Z</time>
      </trkpt>
      <trkpt lat="44.45201" lon="1.82933">
        <ele>323.5</ele>
        <time>2022-04-10T12:36:11Z</time>
      </trkpt>
      <trkpt lat="44.45198" lon="1.82934">
        <ele>323.8</ele>
        <time>2022-04-10T12:36:12Z</time>
      </trkpt>
      <trkpt lat="44.45194" lon="1.82934">
        <ele>324.1</ele>
        <time>2022-04-10T12:36:14Z</time>
      </trkpt>
      <trkpt lat="44.4519" lon="1.82934">
        <ele>324.4</ele>
        <time>2022-04-10T12:36:15Z</time>
      </trkpt>
      <trkpt lat="44.45187" lon="1.82934">
        <ele>324.7</ele>
        <time>2022-04-10T12:36:16Z</time>
      </trkpt>
      <trkpt lat="44.45184" lon="1.82933">
        <ele>324.9</ele>
        <time>2022-04-10T12:36:17Z</time>
      </trkpt>
      <trkpt lat="44.45178" lon="1.82932">
        <ele>325.4</ele>
        <time>2022-04-10T12:36:19Z</time>
      </trkpt>
      <trkpt lat="44.45174" lon="1.82931">
        <ele>325.8</ele>
        <time>2022-04-10T12:36:20Z</time>
      </trkpt>
      <trkpt lat="44.4517" lon="1.82929">
        <ele>326.3</ele>
        <time>2022-04-10T12:36:21Z</time>
      </trkpt>
      <trkpt lat="44.45166" lon="1.82928">
        <ele>326.7</ele>
        <time>2022-04-10T12:36:22Z</time>
      </trkpt>
      <trkpt lat="44.45162" lon="1.82928">
        <ele>327.2</ele>
        <time>2022-04-10T12:36:23Z</time>
      </trkpt>
      <trkpt lat="44.45159" lon="1.82927">
        <ele>327.6</ele>
        <time>2022-04-10T12:36:24Z</time>
      </trkpt>
      <trkpt lat="44.45152" lon="1.82925">
        <ele>328.4</ele>
        <time>2022-04-10T12:36:26Z</time>
      </trkpt>
      <trkpt lat="44.45148" lon="1.82923">
        <ele>328.8</ele>
        <time>2022-04-10T12:36:27Z</time>
      </trkpt>
      <trkpt lat="44.45145" lon="1.82922">
        <ele>329.3</ele>
        <time>2022-04-10T12:36:28Z</time>
      </trkpt>
      <trkpt lat="44.45141" lon="1.82921">
        <ele>329.7</ele>
        <time>2022-04-10T12:36:29Z</time>
      </trkpt>
      <trkpt lat="44.45138" lon="1.8292">
        <ele>330.1</ele>
        <time>2022-04-10T12:36:30Z</time>
      </trkpt>
      <trkpt lat="44.45136" lon="1.82919">
        <ele>330.4</ele>
        <time>2022-04-10T12:36:31Z</time>
      </trkpt>
      <trkpt lat="44.45132" lon="1.82917">
        <ele>330.9</ele>
        <time>2022-04-10T12:36:33Z</time>
      </trkpt>
      <trkpt lat="44.45129" lon="1.82916">
        <ele>331.3</ele>
        <time>2022-04-10T12:36:34Z</time>
      </trkpt>
      <trkpt lat="44.45124" lon="1.82914">
        <ele>331.9</ele>
        <time>2022-04-10T12:36:35Z</time>
      </trkpt>
      <trkpt lat="44.45121" lon="1.82913">
        <ele>332.3</ele>
        <time>2022-04-10T12:36:36Z</time>
      </trkpt>
      <trkpt lat="44.45117" lon="1.82911">
        <ele>332.8</ele>
        <time>2022-04-10T12:36:37Z</time>
      </trkpt>
      <trkpt lat="44.45113" lon="1.82909">
        <ele>333.3</ele>
        <time>2022-04-10T12:36:39Z</time>
      </trkpt>
      <trkpt lat="44.45108" lon="1.82907">
        <ele>333.9</ele>
        <time>2022-04-10T12:36:40Z</time>
      </trkpt>
      <trkpt lat="44.45104" lon="1.82906">
        <ele>334.4</ele>
        <time>2022-04-10T12:36:41Z</time>
      </trkpt>
      <trkpt lat="44.451" lon="1.82903">
        <ele>334.9</ele>
        <time>2022-04-10T12:36:42Z</time>
      </trkpt>
      <trkpt lat="44.45097" lon="1.82902">
        <ele>335.3</ele>
        <time>2022-04-10T12:36:43Z</time>
      </trkpt>
      <trkpt lat="44.45093" lon="1.82899">
        <ele>335.8</ele>
        <time>2022-04-10T12:36:45Z</time>
      </trkpt>
      <trkpt lat="44.45088" lon="1.82898">
        <ele>336.4</ele>
        <time>2022-04-10T12:36:46Z</time>
      </trkpt>
      <trkpt lat="44.45084" lon="1.82897">
        <ele>336.8</ele>
        <time>2022-04-10T12:36:47Z</time>
      </trkpt>
      <trkpt lat="44.4508" lon="1.82896">
        <ele>337.3</ele>
        <time>2022-04-10T12:36:48Z</time>
      </trkpt>
      <trkpt lat="44.45077" lon="1.82896">
        <ele>337.6</ele>
        <time>2022-04-10T12:36:49Z</time>
      </trkpt>
      <trkpt lat="44.45074" lon="1.82894">
        <ele>338</ele>
        <time>2022-04-10T12:36:50Z</time>
      </trkpt>
      <trkpt lat="44.45072" lon="1.82893">
        <ele>338.2</ele>
        <time>2022-04-10T12:36:51Z</time>
      </trkpt>
      <trkpt lat="44.45069" lon="1.82893">
        <ele>338.5</ele>
        <time>2022-04-10T12:36:52Z</time>
      </trkpt>
      <trkpt lat="44.45066" lon="1.82893">
        <ele>338.8</ele>
        <time>2022-04-10T12:36:53Z</time>
      </trkpt>
      <trkpt lat="44.4506" lon="1.82894">
        <ele>339.3</ele>
        <time>2022-04-10T12:36:55Z</time>
      </trkpt>
      <trkpt lat="44.45057" lon="1.82894">
        <ele>339.7</ele>
        <time>2022-04-10T12:36:56Z</time>
      </trkpt>
      <trkpt lat="44.45053" lon="1.82894">
        <ele>340</ele>
        <time>2022-04-10T12:36:57Z</time>
      </trkpt>
      <trkpt lat="44.45049" lon="1.82894">
        <ele>340.3</ele>
        <time>2022-04-10T12:36:59Z</time>
      </trkpt>
      <trkpt lat="44.45047" lon="1.82894">
        <ele>340.5</ele>
        <time>2022-04-10T12:37:00Z</time>
      </trkpt>
      <trkpt lat="44.45044" lon="1.82896">
        <ele>340.7</ele>
        <time>2022-04-10T12:37:01Z</time>
      </trkpt>
      <trkpt lat="44.45041" lon="1.82897">
        <ele>341</ele>
        <time>2022-04-10T12:37:02Z</time>
      </trkpt>
      <trkpt lat="44.4504" lon="1.82897">
        <ele>341</ele>
        <time>2022-04-10T12:37:03Z</time>
      </trkpt>
      <trkpt lat="44.45039" lon="1.82897">
        <ele>341.1</ele>
        <time>2022-04-10T12:37:04Z</time>
      </trkpt>
      <trkpt lat="44.45036" lon="1.82897">
        <ele>341.3</ele>
        <time>2022-04-10T12:37:06Z</time>
      </trkpt>
      <trkpt lat="44.45034" lon="1.82898">
        <ele>341.4</ele>
        <time>2022-04-10T12:37:07Z</time>
      </trkpt>
      <trkpt lat="44.45034" lon="1.82898">
        <ele>341.4</ele>
        <time>2022-04-10T12:37:08Z</time>
      </trkpt>
      <trkpt lat="44.45033" lon="1.82898">
        <ele>341.4</ele>
        <time>2022-04-10T12:37:09Z</time>
      </trkpt>
      <trkpt lat="44.45033" lon="1.82898">
        <ele>341.4</ele>
        <time>2022-04-10T12:37:10Z</time>
      </trkpt>
      <trkpt lat="44.45033" lon="1.82898">
        <ele>341.4</ele>
        <time>2022-04-10T12:37:12Z</time>
      </trkpt>
      <trkpt lat="44.45033" lon="1.82898">
        <ele>341.4</ele>
        <time>2022-04-10T12:37:13Z</time>
      </trkpt>
      <trkpt lat="44.45033" lon="1.82898">
        <ele>341.4</ele>
        <time>2022-04-10T12:37:14Z</time>
      </trkpt>
      <trkpt lat="44.45033" lon="1.82898">
        <ele>341.4</ele>
        <time>2022-04-10T12:37:15Z</time>
      </trkpt>
      <trkpt lat="44.45033" lon="1.82898">
        <ele>341.4</ele>
        <time>2022-04-10T12:37:17Z</time>
      </trkpt>
      <trkpt lat="44.45033" lon="1.82898">
        <ele>341.5</ele>
        <time>2022-04-10T12:37:18Z</time>
      </trkpt>
      <trkpt lat="44.45033" lon="1.82898">
        <ele>341.5</ele>
        <time>2022-04-10T12:37:19Z</time>
      </trkpt>
      <trkpt lat="44.45029" lon="1.829">
        <ele>341.7</ele>
        <time>2022-04-10T12:37:27Z</time>
      </trkpt>
      <trkpt lat="44.45026" lon="1.82901">
        <ele>341.8</ele>
        <time>2022-04-10T12:37:28Z</time>
      </trkpt>
      <trkpt lat="44.45022" lon="1.82902">
        <ele>341.9</ele>
        <time>2022-04-10T12:37:29Z</time>
      </trkpt>
      <trkpt lat="44.45019" lon="1.82902">
        <ele>342</ele>
        <time>2022-04-10T12:37:30Z</time>
      </trkpt>
      <trkpt lat="44.45015" lon="1.82902">
        <ele>342</ele>
        <time>2022-04-10T12:37:31Z</time>
      </trkpt>
      <trkpt lat="44.45012" lon="1.82903">
        <ele>342.1</ele>
        <time>2022-04-10T12:37:32Z</time>
      </trkpt>
      <trkpt lat="44.45008" lon="1.82904">
        <ele>342.1</ele>
        <time>2022-04-10T12:37:33Z</time>
      </trkpt>
      <trkpt lat="44.45004" lon="1.82904">
        <ele>342.1</ele>
        <time>2022-04-10T12:37:34Z</time>
      </trkpt>
      <trkpt lat="44.45" lon="1.82906">
        <ele>342</ele>
        <time>2022-04-10T12:37:36Z</time>
      </trkpt>
      <trkpt lat="44.44996" lon="1.82906">
        <ele>341.9</ele>
        <time>2022-04-10T12:37:37Z</time>
      </trkpt>
      <trkpt lat="44.4499" lon="1.82907">
        <ele>341.8</ele>
        <time>2022-04-10T12:37:38Z</time>
      </trkpt>
      <trkpt lat="44.44987" lon="1.82907">
        <ele>341.7</ele>
        <time>2022-04-10T12:37:39Z</time>
      </trkpt>
      <trkpt lat="44.44982" lon="1.82908">
        <ele>341.5</ele>
        <time>2022-04-10T12:37:40Z</time>
      </trkpt>
      <trkpt lat="44.44978" lon="1.82909">
        <ele>341.3</ele>
        <time>2022-04-10T12:37:41Z</time>
      </trkpt>
      <trkpt lat="44.44974" lon="1.8291">
        <ele>341.2</ele>
        <time>2022-04-10T12:37:42Z</time>
      </trkpt>
      <trkpt lat="44.4497" lon="1.8291">
        <ele>340.9</ele>
        <time>2022-04-10T12:37:43Z</time>
      </trkpt>
      <trkpt lat="44.44965" lon="1.82912">
        <ele>340.7</ele>
        <time>2022-04-10T12:37:44Z</time>
      </trkpt>
      <trkpt lat="44.4496" lon="1.82913">
        <ele>340.3</ele>
        <time>2022-04-10T12:37:45Z</time>
      </trkpt>
      <trkpt lat="44.44955" lon="1.82914">
        <ele>340</ele>
        <time>2022-04-10T12:37:46Z</time>
      </trkpt>
      <trkpt lat="44.44949" lon="1.82916">
        <ele>339.7</ele>
        <time>2022-04-10T12:37:47Z</time>
      </trkpt>
      <trkpt lat="44.44944" lon="1.82917">
        <ele>339.3</ele>
        <time>2022-04-10T12:37:48Z</time>
      </trkpt>
      <trkpt lat="44.44938" lon="1.82919">
        <ele>338.9</ele>
        <time>2022-04-10T12:37:49Z</time>
      </trkpt>
      <trkpt lat="44.44932" lon="1.8292">
        <ele>338.5</ele>
        <time>2022-04-10T12:37:50Z</time>
      </trkpt>
      <trkpt lat="44.44927" lon="1.82922">
        <ele>338.1</ele>
        <time>2022-04-10T12:37:51Z</time>
      </trkpt>
      <trkpt lat="44.44921" lon="1.82924">
        <ele>337.6</ele>
        <time>2022-04-10T12:37:52Z</time>
      </trkpt>
      <trkpt lat="44.44914" lon="1.82928">
        <ele>337</ele>
        <time>2022-04-10T12:37:53Z</time>
      </trkpt>
      <trkpt lat="44.44908" lon="1.82931">
        <ele>336.6</ele>
        <time>2022-04-10T12:37:54Z</time>
      </trkpt>
      <trkpt lat="44.44902" lon="1.82934">
        <ele>336.3</ele>
        <time>2022-04-10T12:37:55Z</time>
      </trkpt>
      <trkpt lat="44.44895" lon="1.82936">
        <ele>336.1</ele>
        <time>2022-04-10T12:37:56Z</time>
      </trkpt>
      <trkpt lat="44.44889" lon="1.82937">
        <ele>336</ele>
        <time>2022-04-10T12:37:57Z</time>
      </trkpt>
      <trkpt lat="44.44882" lon="1.82936">
        <ele>336</ele>
        <time>2022-04-10T12:37:58Z</time>
      </trkpt>
      <trkpt lat="44.44876" lon="1.82935">
        <ele>336.1</ele>
        <time>2022-04-10T12:37:59Z</time>
      </trkpt>
      <trkpt lat="44.44871" lon="1.82935">
        <ele>336.2</ele>
        <time>2022-04-10T12:38:00Z</time>
      </trkpt>
      <trkpt lat="44.44865" lon="1.82935">
        <ele>336.4</ele>
        <time>2022-04-10T12:38:01Z</time>
      </trkpt>
      <trkpt lat="44.44861" lon="1.82936">
        <ele>336.5</ele>
        <time>2022-04-10T12:38:02Z</time>
      </trkpt>
      <trkpt lat="44.44857" lon="1.82936">
        <ele>336.7</ele>
        <time>2022-04-10T12:38:03Z</time>
      </trkpt>
      <trkpt lat="44.44853" lon="1.82936">
        <ele>336.9</ele>
        <time>2022-04-10T12:38:04Z</time>
      </trkpt>
      <trkpt lat="44.4485" lon="1.82937">
        <ele>337</ele>
        <time>2022-04-10T12:38:05Z</time>
      </trkpt>
      <trkpt lat="44.44846" lon="1.82938">
        <ele>337.2</ele>
        <time>2022-04-10T12:38:06Z</time>
      </trkpt>
      <trkpt lat="44.44845" lon="1.82939">
        <ele>337.3</ele>
        <time>2022-04-10T12:38:07Z</time>
      </trkpt>
      <trkpt lat="44.44843" lon="1.8294">
        <ele>337.4</ele>
        <time>2022-04-10T12:38:08Z</time>
      </trkpt>
      <trkpt lat="44.4484" lon="1.82941">
        <ele>337.6</ele>
        <time>2022-04-10T12:38:10Z</time>
      </trkpt>
      <trkpt lat="44.44835" lon="1.82942">
        <ele>337.9</ele>
        <time>2022-04-10T12:38:11Z</time>
      </trkpt>
      <trkpt lat="44.44832" lon="1.82944">
        <ele>338.1</ele>
        <time>2022-04-10T12:38:12Z</time>
      </trkpt>
      <trkpt lat="44.44828" lon="1.82946">
        <ele>338.3</ele>
        <time>2022-04-10T12:38:13Z</time>
      </trkpt>
      <trkpt lat="44.44824" lon="1.82949">
        <ele>338.5</ele>
        <time>2022-04-10T12:38:14Z</time>
      </trkpt>
      <trkpt lat="44.44821" lon="1.8295">
        <ele>338.7</ele>
        <time>2022-04-10T12:38:16Z</time>
      </trkpt>
      <trkpt lat="44.44817" lon="1.82951">
        <ele>338.9</ele>
        <time>2022-04-10T12:38:17Z</time>
      </trkpt>
      <trkpt lat="44.44814" lon="1.82953">
        <ele>339</ele>
        <time>2022-04-10T12:38:18Z</time>
      </trkpt>
      <trkpt lat="44.44811" lon="1.82954">
        <ele>339.1</ele>
        <time>2022-04-10T12:38:19Z</time>
      </trkpt>
      <trkpt lat="44.44811" lon="1.82954">
        <ele>339.1</ele>
        <time>2022-04-10T12:38:20Z</time>
      </trkpt>
      <trkpt lat="44.4481" lon="1.82954">
        <ele>339.2</ele>
        <time>2022-04-10T12:38:21Z</time>
      </trkpt>
      <trkpt lat="44.44809" lon="1.82955">
        <ele>339.2</ele>
        <time>2022-04-10T12:38:22Z</time>
      </trkpt>
      <trkpt lat="44.44808" lon="1.82955">
        <ele>339.3</ele>
        <time>2022-04-10T12:38:23Z</time>
      </trkpt>
      <trkpt lat="44.44807" lon="1.82955">
        <ele>339.3</ele>
        <time>2022-04-10T12:38:24Z</time>
      </trkpt>
      <trkpt lat="44.44806" lon="1.82955">
        <ele>339.3</ele>
        <time>2022-04-10T12:38:25Z</time>
      </trkpt>
      <trkpt lat="44.44805" lon="1.82955">
        <ele>339.4</ele>
        <time>2022-04-10T12:38:26Z</time>
      </trkpt>
      <trkpt lat="44.44804" lon="1.82956">
        <ele>339.4</ele>
        <time>2022-04-10T12:38:27Z</time>
      </trkpt>
      <trkpt lat="44.44803" lon="1.82956">
        <ele>339.4</ele>
        <time>2022-04-10T12:38:28Z</time>
      </trkpt>
      <trkpt lat="44.44801" lon="1.82956">
        <ele>339.5</ele>
        <time>2022-04-10T12:39:47Z</time>
      </trkpt>
      <trkpt lat="44.448" lon="1.82956">
        <ele>339.5</ele>
        <time>2022-04-10T12:39:48Z</time>
      </trkpt>
      <trkpt lat="44.44799" lon="1.82957">
        <ele>339.5</ele>
        <time>2022-04-10T12:39:49Z</time>
      </trkpt>
      <trkpt lat="44.44795" lon="1.82958">
        <ele>339.7</ele>
        <time>2022-04-10T12:39:51Z</time>
      </trkpt>
      <trkpt lat="44.44793" lon="1.82959">
        <ele>339.7</ele>
        <time>2022-04-10T12:39:52Z</time>
      </trkpt>
      <trkpt lat="44.44787" lon="1.8296">
        <ele>339.8</ele>
        <time>2022-04-10T12:39:53Z</time>
      </trkpt>
      <trkpt lat="44.44783" lon="1.82959">
        <ele>339.8</ele>
        <time>2022-04-10T12:39:54Z</time>
      </trkpt>
      <trkpt lat="44.44782" lon="1.82959">
        <ele>339.8</ele>
        <time>2022-04-10T12:39:55Z</time>
      </trkpt>
      <trkpt lat="44.44775" lon="1.82958">
        <ele>339.8</ele>
        <time>2022-04-10T12:39:57Z</time>
      </trkpt>
      <trkpt lat="44.4477" lon="1.82957">
        <ele>339.7</ele>
        <time>2022-04-10T12:39:58Z</time>
      </trkpt>
      <trkpt lat="44.44766" lon="1.82955">
        <ele>339.5</ele>
        <time>2022-04-10T12:39:59Z</time>
      </trkpt>
      <trkpt lat="44.4476" lon="1.82953">
        <ele>339.4</ele>
        <time>2022-04-10T12:40:00Z</time>
      </trkpt>
      <trkpt lat="44.44755" lon="1.82952">
        <ele>339.2</ele>
        <time>2022-04-10T12:40:01Z</time>
      </trkpt>
      <trkpt lat="44.4475" lon="1.8295">
        <ele>339</ele>
        <time>2022-04-10T12:40:02Z</time>
      </trkpt>
      <trkpt lat="44.44745" lon="1.82949">
        <ele>338.9</ele>
        <time>2022-04-10T12:40:03Z</time>
      </trkpt>
      <trkpt lat="44.4474" lon="1.82948">
        <ele>338.7</ele>
        <time>2022-04-10T12:40:04Z</time>
      </trkpt>
      <trkpt lat="44.44735" lon="1.82947">
        <ele>338.6</ele>
        <time>2022-04-10T12:40:05Z</time>
      </trkpt>
      <trkpt lat="44.4473" lon="1.82946">
        <ele>338.4</ele>
        <time>2022-04-10T12:40:06Z</time>
      </trkpt>
      <trkpt lat="44.44724" lon="1.82945">
        <ele>338.2</ele>
        <time>2022-04-10T12:40:07Z</time>
      </trkpt>
      <trkpt lat="44.44719" lon="1.82943">
        <ele>338.1</ele>
        <time>2022-04-10T12:40:08Z</time>
      </trkpt>
      <trkpt lat="44.44713" lon="1.82942">
        <ele>338</ele>
        <time>2022-04-10T12:40:09Z</time>
      </trkpt>
      <trkpt lat="44.44706" lon="1.8294">
        <ele>337.9</ele>
        <time>2022-04-10T12:40:10Z</time>
      </trkpt>
      <trkpt lat="44.447" lon="1.82939">
        <ele>337.9</ele>
        <time>2022-04-10T12:40:11Z</time>
      </trkpt>
      <trkpt lat="44.44694" lon="1.82938">
        <ele>337.8</ele>
        <time>2022-04-10T12:40:12Z</time>
      </trkpt>
      <trkpt lat="44.44689" lon="1.82937">
        <ele>337.8</ele>
        <time>2022-04-10T12:40:13Z</time>
      </trkpt>
      <trkpt lat="44.44683" lon="1.82936">
        <ele>337.8</ele>
        <time>2022-04-10T12:40:14Z</time>
      </trkpt>
      <trkpt lat="44.44677" lon="1.82934">
        <ele>337.8</ele>
        <time>2022-04-10T12:40:15Z</time>
      </trkpt>
      <trkpt lat="44.44672" lon="1.82931">
        <ele>337.8</ele>
        <time>2022-04-10T12:40:16Z</time>
      </trkpt>
      <trkpt lat="44.44666" lon="1.82929">
        <ele>337.8</ele>
        <time>2022-04-10T12:40:17Z</time>
      </trkpt>
      <trkpt lat="44.44661" lon="1.82928">
        <ele>337.8</ele>
        <time>2022-04-10T12:40:18Z</time>
      </trkpt>
      <trkpt lat="44.44655" lon="1.82927">
        <ele>337.8</ele>
        <time>2022-04-10T12:40:19Z</time>
      </trkpt>
      <trkpt lat="44.4465" lon="1.82925">
        <ele>337.8</ele>
        <time>2022-04-10T12:40:20Z</time>
      </trkpt>
      <trkpt lat="44.44644" lon="1.82922">
        <ele>337.8</ele>
        <time>2022-04-10T12:40:21Z</time>
      </trkpt>
      <trkpt lat="44.44639" lon="1.82918">
        <ele>337.8</ele>
        <time>2022-04-10T12:40:22Z</time>
      </trkpt>
      <trkpt lat="44.44634" lon="1.82915">
        <ele>337.7</ele>
        <time>2022-04-10T12:40:23Z</time>
      </trkpt>
      <trkpt lat="44.44629" lon="1.82912">
        <ele>337.7</ele>
        <time>2022-04-10T12:40:24Z</time>
      </trkpt>
      <trkpt lat="44.44623" lon="1.82908">
        <ele>337.6</ele>
        <time>2022-04-10T12:40:25Z</time>
      </trkpt>
      <trkpt lat="44.44618" lon="1.82905">
        <ele>337.5</ele>
        <time>2022-04-10T12:40:26Z</time>
      </trkpt>
      <trkpt lat="44.44612" lon="1.82903">
        <ele>337.4</ele>
        <time>2022-04-10T12:40:27Z</time>
      </trkpt>
      <trkpt lat="44.44607" lon="1.82902">
        <ele>337.3</ele>
        <time>2022-04-10T12:40:28Z</time>
      </trkpt>
      <trkpt lat="44.44601" lon="1.82901">
        <ele>337.1</ele>
        <time>2022-04-10T12:40:29Z</time>
      </trkpt>
      <trkpt lat="44.44594" lon="1.829">
        <ele>336.9</ele>
        <time>2022-04-10T12:40:30Z</time>
      </trkpt>
      <trkpt lat="44.44587" lon="1.829">
        <ele>336.7</ele>
        <time>2022-04-10T12:40:31Z</time>
      </trkpt>
      <trkpt lat="44.44581" lon="1.82899">
        <ele>336.4</ele>
        <time>2022-04-10T12:40:32Z</time>
      </trkpt>
      <trkpt lat="44.44575" lon="1.82899">
        <ele>336.2</ele>
        <time>2022-04-10T12:40:33Z</time>
      </trkpt>
      <trkpt lat="44.44569" lon="1.82898">
        <ele>335.8</ele>
        <time>2022-04-10T12:40:34Z</time>
      </trkpt>
      <trkpt lat="44.44563" lon="1.82897">
        <ele>335.5</ele>
        <time>2022-04-10T12:40:35Z</time>
      </trkpt>
      <trkpt lat="44.44556" lon="1.82896">
        <ele>335.2</ele>
        <time>2022-04-10T12:40:36Z</time>
      </trkpt>
      <trkpt lat="44.4455" lon="1.82895">
        <ele>334.9</ele>
        <time>2022-04-10T12:40:37Z</time>
      </trkpt>
      <trkpt lat="44.44545" lon="1.82894">
        <ele>334.7</ele>
        <time>2022-04-10T12:40:38Z</time>
      </trkpt>
      <trkpt lat="44.44539" lon="1.82893">
        <ele>334.5</ele>
        <time>2022-04-10T12:40:39Z</time>
      </trkpt>
      <trkpt lat="44.44534" lon="1.82892">
        <ele>334.3</ele>
        <time>2022-04-10T12:40:40Z</time>
      </trkpt>
      <trkpt lat="44.44531" lon="1.82891">
        <ele>334.1</ele>
        <time>2022-04-10T12:40:41Z</time>
      </trkpt>
      <trkpt lat="44.44528" lon="1.8289">
        <ele>334</ele>
        <time>2022-04-10T12:40:42Z</time>
      </trkpt>
      <trkpt lat="44.44528" lon="1.8289">
        <ele>333.9</ele>
        <time>2022-04-10T12:40:43Z</time>
      </trkpt>
      <trkpt lat="44.44526" lon="1.82889">
        <ele>333.8</ele>
        <time>2022-04-10T12:40:44Z</time>
      </trkpt>
      <trkpt lat="44.44525" lon="1.82889">
        <ele>333.8</ele>
        <time>2022-04-10T12:40:45Z</time>
      </trkpt>
      <trkpt lat="44.44525" lon="1.82889">
        <ele>333.8</ele>
        <time>2022-04-10T12:40:46Z</time>
      </trkpt>
      <trkpt lat="44.44525" lon="1.82889">
        <ele>333.8</ele>
        <time>2022-04-10T12:40:47Z</time>
      </trkpt>
      <trkpt lat="44.44524" lon="1.82889">
        <ele>333.7</ele>
        <time>2022-04-10T12:40:48Z</time>
      </trkpt>
      <trkpt lat="44.44524" lon="1.82889">
        <ele>333.7</ele>
        <time>2022-04-10T12:40:49Z</time>
      </trkpt>
      <trkpt lat="44.44524" lon="1.82889">
        <ele>333.7</ele>
        <time>2022-04-10T12:40:50Z</time>
      </trkpt>
      <trkpt lat="44.44524" lon="1.82889">
        <ele>333.7</ele>
        <time>2022-04-10T12:40:51Z</time>
      </trkpt>
      <trkpt lat="44.44524" lon="1.82889">
        <ele>333.7</ele>
        <time>2022-04-10T12:40:52Z</time>
      </trkpt>
      <trkpt lat="44.44524" lon="1.82888">
        <ele>333.7</ele>
        <time>2022-04-10T12:40:53Z</time>
      </trkpt>
      <trkpt lat="44.44523" lon="1.82888">
        <ele>333.6</ele>
        <time>2022-04-10T12:40:54Z</time>
      </trkpt>
      <trkpt lat="44.44517" lon="1.82882">
        <ele>333.3</ele>
        <time>2022-04-10T12:40:57Z</time>
      </trkpt>
      <trkpt lat="44.44515" lon="1.82879">
        <ele>333.2</ele>
        <time>2022-04-10T12:40:58Z</time>
      </trkpt>
      <trkpt lat="44.44514" lon="1.82878">
        <ele>333.2</ele>
        <time>2022-04-10T12:40:59Z</time>
      </trkpt>
      <trkpt lat="44.44511" lon="1.82876">
        <ele>333.1</ele>
        <time>2022-04-10T12:41:00Z</time>
      </trkpt>
      <trkpt lat="44.4451" lon="1.82875">
        <ele>333.1</ele>
        <time>2022-04-10T12:41:01Z</time>
      </trkpt>
      <trkpt lat="44.44507" lon="1.82872">
        <ele>333</ele>
        <time>2022-04-10T12:41:02Z</time>
      </trkpt>
      <trkpt lat="44.44504" lon="1.8287">
        <ele>332.9</ele>
        <time>2022-04-10T12:41:03Z</time>
      </trkpt>
      <trkpt lat="44.44499" lon="1.82866">
        <ele>332.8</ele>
        <time>2022-04-10T12:41:04Z</time>
      </trkpt>
      <trkpt lat="44.44493" lon="1.82862">
        <ele>332.7</ele>
        <time>2022-04-10T12:41:05Z</time>
      </trkpt>
      <trkpt lat="44.44487" lon="1.82859">
        <ele>332.6</ele>
        <time>2022-04-10T12:41:06Z</time>
      </trkpt>
      <trkpt lat="44.44481" lon="1.82856">
        <ele>332.5</ele>
        <time>2022-04-10T12:41:07Z</time>
      </trkpt>
      <trkpt lat="44.44475" lon="1.82854">
        <ele>332.5</ele>
        <time>2022-04-10T12:41:08Z</time>
      </trkpt>
      <trkpt lat="44.44469" lon="1.82852">
        <ele>332.4</ele>
        <time>2022-04-10T12:41:09Z</time>
      </trkpt>
      <trkpt lat="44.44463" lon="1.82851">
        <ele>332.3</ele>
        <time>2022-04-10T12:41:10Z</time>
      </trkpt>
      <trkpt lat="44.44457" lon="1.8285">
        <ele>332.3</ele>
        <time>2022-04-10T12:41:11Z</time>
      </trkpt>
      <trkpt lat="44.44451" lon="1.82849">
        <ele>332.3</ele>
        <time>2022-04-10T12:41:12Z</time>
      </trkpt>
      <trkpt lat="44.44445" lon="1.82849">
        <ele>332.3</ele>
        <time>2022-04-10T12:41:13Z</time>
      </trkpt>
      <trkpt lat="44.4444" lon="1.82849">
        <ele>332.3</ele>
        <time>2022-04-10T12:41:14Z</time>
      </trkpt>
      <trkpt lat="44.44434" lon="1.82848">
        <ele>332.4</ele>
        <time>2022-04-10T12:41:15Z</time>
      </trkpt>
      <trkpt lat="44.44428" lon="1.82848">
        <ele>332.4</ele>
        <time>2022-04-10T12:41:16Z</time>
      </trkpt>
      <trkpt lat="44.44423" lon="1.82848">
        <ele>332.5</ele>
        <time>2022-04-10T12:41:17Z</time>
      </trkpt>
      <trkpt lat="44.44418" lon="1.82848">
        <ele>332.6</ele>
        <time>2022-04-10T12:41:18Z</time>
      </trkpt>
      <trkpt lat="44.44413" lon="1.82848">
        <ele>332.7</ele>
        <time>2022-04-10T12:41:19Z</time>
      </trkpt>
      <trkpt lat="44.44408" lon="1.82847">
        <ele>332.8</ele>
        <time>2022-04-10T12:41:20Z</time>
      </trkpt>
      <trkpt lat="44.44403" lon="1.82847">
        <ele>332.8</ele>
        <time>2022-04-10T12:41:21Z</time>
      </trkpt>
      <trkpt lat="44.44398" lon="1.82847">
        <ele>332.9</ele>
        <time>2022-04-10T12:41:22Z</time>
      </trkpt>
      <trkpt lat="44.44393" lon="1.82846">
        <ele>333</ele>
        <time>2022-04-10T12:41:23Z</time>
      </trkpt>
      <trkpt lat="44.44389" lon="1.82847">
        <ele>333.1</ele>
        <time>2022-04-10T12:41:24Z</time>
      </trkpt>
      <trkpt lat="44.44384" lon="1.82847">
        <ele>333.2</ele>
        <time>2022-04-10T12:41:25Z</time>
      </trkpt>
      <trkpt lat="44.44379" lon="1.82849">
        <ele>333.3</ele>
        <time>2022-04-10T12:41:26Z</time>
      </trkpt>
      <trkpt lat="44.44375" lon="1.8285">
        <ele>333.4</ele>
        <time>2022-04-10T12:41:27Z</time>
      </trkpt>
      <trkpt lat="44.44371" lon="1.82851">
        <ele>333.5</ele>
        <time>2022-04-10T12:41:28Z</time>
      </trkpt>
      <trkpt lat="44.44367" lon="1.82852">
        <ele>333.7</ele>
        <time>2022-04-10T12:41:29Z</time>
      </trkpt>
      <trkpt lat="44.44363" lon="1.82853">
        <ele>333.8</ele>
        <time>2022-04-10T12:41:30Z</time>
      </trkpt>
      <trkpt lat="44.44359" lon="1.82854">
        <ele>334</ele>
        <time>2022-04-10T12:41:31Z</time>
      </trkpt>
      <trkpt lat="44.44354" lon="1.82856">
        <ele>334.2</ele>
        <time>2022-04-10T12:41:32Z</time>
      </trkpt>
      <trkpt lat="44.4435" lon="1.82857">
        <ele>334.3</ele>
        <time>2022-04-10T12:41:33Z</time>
      </trkpt>
      <trkpt lat="44.44347" lon="1.82858">
        <ele>334.4</ele>
        <time>2022-04-10T12:41:34Z</time>
      </trkpt>
      <trkpt lat="44.44343" lon="1.82859">
        <ele>334.6</ele>
        <time>2022-04-10T12:41:35Z</time>
      </trkpt>
      <trkpt lat="44.44338" lon="1.82861">
        <ele>334.9</ele>
        <time>2022-04-10T12:41:36Z</time>
      </trkpt>
      <trkpt lat="44.44335" lon="1.82862">
        <ele>335.1</ele>
        <time>2022-04-10T12:41:37Z</time>
      </trkpt>
      <trkpt lat="44.44331" lon="1.82863">
        <ele>335.3</ele>
        <time>2022-04-10T12:41:38Z</time>
      </trkpt>
      <trkpt lat="44.44327" lon="1.82864">
        <ele>335.5</ele>
        <time>2022-04-10T12:41:39Z</time>
      </trkpt>
      <trkpt lat="44.44324" lon="1.82865">
        <ele>335.7</ele>
        <time>2022-04-10T12:41:40Z</time>
      </trkpt>
      <trkpt lat="44.4432" lon="1.82865">
        <ele>336</ele>
        <time>2022-04-10T12:41:41Z</time>
      </trkpt>
      <trkpt lat="44.44316" lon="1.82866">
        <ele>336.2</ele>
        <time>2022-04-10T12:41:42Z</time>
      </trkpt>
      <trkpt lat="44.44311" lon="1.82867">
        <ele>336.5</ele>
        <time>2022-04-10T12:41:43Z</time>
      </trkpt>
      <trkpt lat="44.44309" lon="1.82867">
        <ele>336.6</ele>
        <time>2022-04-10T12:41:44Z</time>
      </trkpt>
      <trkpt lat="44.44307" lon="1.82868">
        <ele>336.7</ele>
        <time>2022-04-10T12:41:45Z</time>
      </trkpt>
      <trkpt lat="44.44303" lon="1.82869">
        <ele>337</ele>
        <time>2022-04-10T12:41:46Z</time>
      </trkpt>
      <trkpt lat="44.44299" lon="1.8287">
        <ele>337.3</ele>
        <time>2022-04-10T12:41:47Z</time>
      </trkpt>
      <trkpt lat="44.44295" lon="1.82871">
        <ele>337.5</ele>
        <time>2022-04-10T12:41:48Z</time>
      </trkpt>
      <trkpt lat="44.44292" lon="1.82872">
        <ele>337.8</ele>
        <time>2022-04-10T12:41:49Z</time>
      </trkpt>
      <trkpt lat="44.44289" lon="1.82874">
        <ele>338</ele>
        <time>2022-04-10T12:41:50Z</time>
      </trkpt>
      <trkpt lat="44.44285" lon="1.82876">
        <ele>338.3</ele>
        <time>2022-04-10T12:41:51Z</time>
      </trkpt>
      <trkpt lat="44.44282" lon="1.82877">
        <ele>338.5</ele>
        <time>2022-04-10T12:41:52Z</time>
      </trkpt>
      <trkpt lat="44.4428" lon="1.82877">
        <ele>338.7</ele>
        <time>2022-04-10T12:41:53Z</time>
      </trkpt>
      <trkpt lat="44.44276" lon="1.82879">
        <ele>339</ele>
        <time>2022-04-10T12:41:55Z</time>
      </trkpt>
      <trkpt lat="44.44273" lon="1.8288">
        <ele>339.2</ele>
        <time>2022-04-10T12:41:56Z</time>
      </trkpt>
      <trkpt lat="44.44272" lon="1.8288">
        <ele>339.3</ele>
        <time>2022-04-10T12:41:57Z</time>
      </trkpt>
      <trkpt lat="44.44269" lon="1.82881">
        <ele>339.6</ele>
        <time>2022-04-10T12:41:58Z</time>
      </trkpt>
      <trkpt lat="44.44268" lon="1.82881">
        <ele>339.7</ele>
        <time>2022-04-10T12:41:59Z</time>
      </trkpt>
      <trkpt lat="44.44265" lon="1.82883">
        <ele>339.8</ele>
        <time>2022-04-10T12:42:00Z</time>
      </trkpt>
      <trkpt lat="44.44259" lon="1.82887">
        <ele>340.3</ele>
        <time>2022-04-10T12:42:02Z</time>
      </trkpt>
      <trkpt lat="44.44254" lon="1.8289">
        <ele>340.6</ele>
        <time>2022-04-10T12:42:03Z</time>
      </trkpt>
      <trkpt lat="44.4425" lon="1.82893">
        <ele>341</ele>
        <time>2022-04-10T12:42:04Z</time>
      </trkpt>
      <trkpt lat="44.44246" lon="1.82895">
        <ele>341.3</ele>
        <time>2022-04-10T12:42:05Z</time>
      </trkpt>
      <trkpt lat="44.44242" lon="1.82897">
        <ele>341.6</ele>
        <time>2022-04-10T12:42:06Z</time>
      </trkpt>
      <trkpt lat="44.44236" lon="1.82903">
        <ele>342.2</ele>
        <time>2022-04-10T12:42:08Z</time>
      </trkpt>
      <trkpt lat="44.44231" lon="1.82909">
        <ele>342.8</ele>
        <time>2022-04-10T12:42:09Z</time>
      </trkpt>
      <trkpt lat="44.44227" lon="1.82913">
        <ele>343.3</ele>
        <time>2022-04-10T12:42:10Z</time>
      </trkpt>
      <trkpt lat="44.44224" lon="1.82916">
        <ele>343.6</ele>
        <time>2022-04-10T12:42:11Z</time>
      </trkpt>
      <trkpt lat="44.44221" lon="1.82918">
        <ele>344</ele>
        <time>2022-04-10T12:42:12Z</time>
      </trkpt>
      <trkpt lat="44.44215" lon="1.82921">
        <ele>344.5</ele>
        <time>2022-04-10T12:42:14Z</time>
      </trkpt>
      <trkpt lat="44.44212" lon="1.82923">
        <ele>344.8</ele>
        <time>2022-04-10T12:42:15Z</time>
      </trkpt>
      <trkpt lat="44.44208" lon="1.82927">
        <ele>345.4</ele>
        <time>2022-04-10T12:42:16Z</time>
      </trkpt>
      <trkpt lat="44.44204" lon="1.82929">
        <ele>345.8</ele>
        <time>2022-04-10T12:42:17Z</time>
      </trkpt>
      <trkpt lat="44.44201" lon="1.82932">
        <ele>346.1</ele>
        <time>2022-04-10T12:42:18Z</time>
      </trkpt>
      <trkpt lat="44.44199" lon="1.82934">
        <ele>346.4</ele>
        <time>2022-04-10T12:42:19Z</time>
      </trkpt>
      <trkpt lat="44.44194" lon="1.82939">
        <ele>347</ele>
        <time>2022-04-10T12:42:21Z</time>
      </trkpt>
      <trkpt lat="44.4419" lon="1.82942">
        <ele>347.3</ele>
        <time>2022-04-10T12:42:22Z</time>
      </trkpt>
      <trkpt lat="44.44185" lon="1.82945">
        <ele>347.8</ele>
        <time>2022-04-10T12:42:23Z</time>
      </trkpt>
      <trkpt lat="44.44182" lon="1.82948">
        <ele>348.1</ele>
        <time>2022-04-10T12:42:24Z</time>
      </trkpt>
      <trkpt lat="44.44179" lon="1.82949">
        <ele>348.4</ele>
        <time>2022-04-10T12:42:25Z</time>
      </trkpt>
      <trkpt lat="44.44176" lon="1.82951">
        <ele>348.7</ele>
        <time>2022-04-10T12:42:26Z</time>
      </trkpt>
      <trkpt lat="44.44173" lon="1.82953">
        <ele>349</ele>
        <time>2022-04-10T12:42:27Z</time>
      </trkpt>
      <trkpt lat="44.44166" lon="1.82958">
        <ele>349.6</ele>
        <time>2022-04-10T12:42:29Z</time>
      </trkpt>
      <trkpt lat="44.44162" lon="1.8296">
        <ele>349.9</ele>
        <time>2022-04-10T12:42:30Z</time>
      </trkpt>
      <trkpt lat="44.4416" lon="1.82962">
        <ele>350.1</ele>
        <time>2022-04-10T12:42:31Z</time>
      </trkpt>
      <trkpt lat="44.44157" lon="1.82964">
        <ele>350.4</ele>
        <time>2022-04-10T12:42:32Z</time>
      </trkpt>
      <trkpt lat="44.44154" lon="1.82967">
        <ele>350.6</ele>
        <time>2022-04-10T12:42:33Z</time>
      </trkpt>
      <trkpt lat="44.44151" lon="1.82969">
        <ele>350.9</ele>
        <time>2022-04-10T12:42:34Z</time>
      </trkpt>
      <trkpt lat="44.44148" lon="1.82971">
        <ele>351.2</ele>
        <time>2022-04-10T12:42:35Z</time>
      </trkpt>
      <trkpt lat="44.44145" lon="1.82974">
        <ele>351.5</ele>
        <time>2022-04-10T12:42:36Z</time>
      </trkpt>
      <trkpt lat="44.44142" lon="1.82976">
        <ele>351.7</ele>
        <time>2022-04-10T12:42:37Z</time>
      </trkpt>
      <trkpt lat="44.44137" lon="1.82981">
        <ele>352.2</ele>
        <time>2022-04-10T12:42:39Z</time>
      </trkpt>
      <trkpt lat="44.44134" lon="1.82984">
        <ele>352.5</ele>
        <time>2022-04-10T12:42:40Z</time>
      </trkpt>
      <trkpt lat="44.44131" lon="1.82986">
        <ele>352.7</ele>
        <time>2022-04-10T12:42:41Z</time>
      </trkpt>
      <trkpt lat="44.44128" lon="1.82989">
        <ele>353</ele>
        <time>2022-04-10T12:42:42Z</time>
      </trkpt>
      <trkpt lat="44.44125" lon="1.82993">
        <ele>353.3</ele>
        <time>2022-04-10T12:42:43Z</time>
      </trkpt>
      <trkpt lat="44.44123" lon="1.82995">
        <ele>353.5</ele>
        <time>2022-04-10T12:42:44Z</time>
      </trkpt>
      <trkpt lat="44.4412" lon="1.82998">
        <ele>353.7</ele>
        <time>2022-04-10T12:42:45Z</time>
      </trkpt>
      <trkpt lat="44.44117" lon="1.83">
        <ele>353.9</ele>
        <time>2022-04-10T12:42:46Z</time>
      </trkpt>
      <trkpt lat="44.44114" lon="1.83002">
        <ele>354.2</ele>
        <time>2022-04-10T12:42:47Z</time>
      </trkpt>
      <trkpt lat="44.44111" lon="1.83004">
        <ele>354.4</ele>
        <time>2022-04-10T12:42:48Z</time>
      </trkpt>
      <trkpt lat="44.44108" lon="1.83007">
        <ele>354.6</ele>
        <time>2022-04-10T12:42:49Z</time>
      </trkpt>
      <trkpt lat="44.44105" lon="1.8301">
        <ele>354.8</ele>
        <time>2022-04-10T12:42:50Z</time>
      </trkpt>
      <trkpt lat="44.44102" lon="1.83013">
        <ele>355</ele>
        <time>2022-04-10T12:42:51Z</time>
      </trkpt>
      <trkpt lat="44.44097" lon="1.83018">
        <ele>355.3</ele>
        <time>2022-04-10T12:42:53Z</time>
      </trkpt>
      <trkpt lat="44.44093" lon="1.83023">
        <ele>355.5</ele>
        <time>2022-04-10T12:42:54Z</time>
      </trkpt>
      <trkpt lat="44.4409" lon="1.83027">
        <ele>355.6</ele>
        <time>2022-04-10T12:42:55Z</time>
      </trkpt>
      <trkpt lat="44.44087" lon="1.83031">
        <ele>355.8</ele>
        <time>2022-04-10T12:42:56Z</time>
      </trkpt>
      <trkpt lat="44.44083" lon="1.83035">
        <ele>355.9</ele>
        <time>2022-04-10T12:42:57Z</time>
      </trkpt>
      <trkpt lat="44.44078" lon="1.83042">
        <ele>356.1</ele>
        <time>2022-04-10T12:42:59Z</time>
      </trkpt>
      <trkpt lat="44.44074" lon="1.83046">
        <ele>356.2</ele>
        <time>2022-04-10T12:43:00Z</time>
      </trkpt>
      <trkpt lat="44.4407" lon="1.83049">
        <ele>356.2</ele>
        <time>2022-04-10T12:43:01Z</time>
      </trkpt>
      <trkpt lat="44.44067" lon="1.83053">
        <ele>356.3</ele>
        <time>2022-04-10T12:43:02Z</time>
      </trkpt>
      <trkpt lat="44.44064" lon="1.83057">
        <ele>356.3</ele>
        <time>2022-04-10T12:43:03Z</time>
      </trkpt>
      <trkpt lat="44.4406" lon="1.83061">
        <ele>356.3</ele>
        <time>2022-04-10T12:43:04Z</time>
      </trkpt>
      <trkpt lat="44.44056" lon="1.83065">
        <ele>356.3</ele>
        <time>2022-04-10T12:43:05Z</time>
      </trkpt>
      <trkpt lat="44.44051" lon="1.83068">
        <ele>356.3</ele>
        <time>2022-04-10T12:43:06Z</time>
      </trkpt>
      <trkpt lat="44.44047" lon="1.83072">
        <ele>356.2</ele>
        <time>2022-04-10T12:43:07Z</time>
      </trkpt>
      <trkpt lat="44.44043" lon="1.83077">
        <ele>356.2</ele>
        <time>2022-04-10T12:43:08Z</time>
      </trkpt>
      <trkpt lat="44.44039" lon="1.83082">
        <ele>356.2</ele>
        <time>2022-04-10T12:43:09Z</time>
      </trkpt>
      <trkpt lat="44.44035" lon="1.83088">
        <ele>356.1</ele>
        <time>2022-04-10T12:43:10Z</time>
      </trkpt>
      <trkpt lat="44.44032" lon="1.83094">
        <ele>356</ele>
        <time>2022-04-10T12:43:11Z</time>
      </trkpt>
      <trkpt lat="44.44029" lon="1.831">
        <ele>356</ele>
        <time>2022-04-10T12:43:12Z</time>
      </trkpt>
      <trkpt lat="44.44026" lon="1.83107">
        <ele>355.9</ele>
        <time>2022-04-10T12:43:13Z</time>
      </trkpt>
      <trkpt lat="44.44023" lon="1.83114">
        <ele>355.8</ele>
        <time>2022-04-10T12:43:14Z</time>
      </trkpt>
      <trkpt lat="44.4402" lon="1.83121">
        <ele>355.7</ele>
        <time>2022-04-10T12:43:15Z</time>
      </trkpt>
      <trkpt lat="44.44017" lon="1.83128">
        <ele>355.6</ele>
        <time>2022-04-10T12:43:16Z</time>
      </trkpt>
      <trkpt lat="44.44013" lon="1.83134">
        <ele>355.5</ele>
        <time>2022-04-10T12:43:17Z</time>
      </trkpt>
      <trkpt lat="44.44011" lon="1.83141">
        <ele>355.3</ele>
        <time>2022-04-10T12:43:18Z</time>
      </trkpt>
      <trkpt lat="44.44008" lon="1.83148">
        <ele>355.2</ele>
        <time>2022-04-10T12:43:19Z</time>
      </trkpt>
      <trkpt lat="44.44005" lon="1.83156">
        <ele>354.9</ele>
        <time>2022-04-10T12:43:20Z</time>
      </trkpt>
      <trkpt lat="44.44001" lon="1.83163">
        <ele>354.7</ele>
        <time>2022-04-10T12:43:21Z</time>
      </trkpt>
      <trkpt lat="44.43998" lon="1.83171">
        <ele>354.3</ele>
        <time>2022-04-10T12:43:22Z</time>
      </trkpt>
      <trkpt lat="44.43994" lon="1.83179">
        <ele>354</ele>
        <time>2022-04-10T12:43:23Z</time>
      </trkpt>
      <trkpt lat="44.4399" lon="1.83187">
        <ele>353.7</ele>
        <time>2022-04-10T12:43:24Z</time>
      </trkpt>
      <trkpt lat="44.43986" lon="1.83195">
        <ele>353.4</ele>
        <time>2022-04-10T12:43:25Z</time>
      </trkpt>
      <trkpt lat="44.43983" lon="1.83204">
        <ele>353.1</ele>
        <time>2022-04-10T12:43:26Z</time>
      </trkpt>
      <trkpt lat="44.43979" lon="1.83214">
        <ele>352.8</ele>
        <time>2022-04-10T12:43:27Z</time>
      </trkpt>
      <trkpt lat="44.43976" lon="1.83224">
        <ele>352.6</ele>
        <time>2022-04-10T12:43:28Z</time>
      </trkpt>
      <trkpt lat="44.43972" lon="1.83232">
        <ele>352.5</ele>
        <time>2022-04-10T12:43:29Z</time>
      </trkpt>
      <trkpt lat="44.43969" lon="1.83241">
        <ele>352.4</ele>
        <time>2022-04-10T12:43:30Z</time>
      </trkpt>
      <trkpt lat="44.43965" lon="1.83249">
        <ele>352.4</ele>
        <time>2022-04-10T12:43:31Z</time>
      </trkpt>
      <trkpt lat="44.43961" lon="1.83257">
        <ele>352.4</ele>
        <time>2022-04-10T12:43:32Z</time>
      </trkpt>
      <trkpt lat="44.43957" lon="1.83264">
        <ele>352.3</ele>
        <time>2022-04-10T12:43:33Z</time>
      </trkpt>
      <trkpt lat="44.43952" lon="1.83271">
        <ele>352.2</ele>
        <time>2022-04-10T12:43:34Z</time>
      </trkpt>
      <trkpt lat="44.43947" lon="1.83278">
        <ele>352.1</ele>
        <time>2022-04-10T12:43:35Z</time>
      </trkpt>
      <trkpt lat="44.43942" lon="1.83284">
        <ele>352</ele>
        <time>2022-04-10T12:43:36Z</time>
      </trkpt>
      <trkpt lat="44.43938" lon="1.83289">
        <ele>352</ele>
        <time>2022-04-10T12:43:37Z</time>
      </trkpt>
      <trkpt lat="44.43933" lon="1.83294">
        <ele>352</ele>
        <time>2022-04-10T12:43:38Z</time>
      </trkpt>
      <trkpt lat="44.43928" lon="1.833">
        <ele>351.9</ele>
        <time>2022-04-10T12:43:39Z</time>
      </trkpt>
      <trkpt lat="44.43923" lon="1.83305">
        <ele>351.9</ele>
        <time>2022-04-10T12:43:40Z</time>
      </trkpt>
      <trkpt lat="44.43918" lon="1.8331">
        <ele>351.9</ele>
        <time>2022-04-10T12:43:41Z</time>
      </trkpt>
      <trkpt lat="44.43914" lon="1.83315">
        <ele>351.9</ele>
        <time>2022-04-10T12:43:42Z</time>
      </trkpt>
      <trkpt lat="44.43909" lon="1.83319">
        <ele>351.9</ele>
        <time>2022-04-10T12:43:43Z</time>
      </trkpt>
      <trkpt lat="44.43904" lon="1.83323">
        <ele>351.9</ele>
        <time>2022-04-10T12:43:44Z</time>
      </trkpt>
      <trkpt lat="44.43899" lon="1.83326">
        <ele>351.9</ele>
        <time>2022-04-10T12:43:45Z</time>
      </trkpt>
      <trkpt lat="44.43894" lon="1.8333">
        <ele>352</ele>
        <time>2022-04-10T12:43:46Z</time>
      </trkpt>
      <trkpt lat="44.43889" lon="1.83335">
        <ele>352</ele>
        <time>2022-04-10T12:43:47Z</time>
      </trkpt>
      <trkpt lat="44.43884" lon="1.83338">
        <ele>352</ele>
        <time>2022-04-10T12:43:48Z</time>
      </trkpt>
      <trkpt lat="44.43878" lon="1.83342">
        <ele>352.1</ele>
        <time>2022-04-10T12:43:49Z</time>
      </trkpt>
      <trkpt lat="44.43873" lon="1.83345">
        <ele>352.2</ele>
        <time>2022-04-10T12:43:50Z</time>
      </trkpt>
      <trkpt lat="44.43867" lon="1.83349">
        <ele>352.3</ele>
        <time>2022-04-10T12:43:51Z</time>
      </trkpt>
      <trkpt lat="44.43862" lon="1.83353">
        <ele>352.4</ele>
        <time>2022-04-10T12:43:52Z</time>
      </trkpt>
      <trkpt lat="44.43857" lon="1.83357">
        <ele>352.5</ele>
        <time>2022-04-10T12:43:53Z</time>
      </trkpt>
      <trkpt lat="44.43852" lon="1.83361">
        <ele>352.6</ele>
        <time>2022-04-10T12:43:54Z</time>
      </trkpt>
      <trkpt lat="44.43846" lon="1.83365">
        <ele>352.8</ele>
        <time>2022-04-10T12:43:55Z</time>
      </trkpt>
      <trkpt lat="44.43841" lon="1.83369">
        <ele>352.9</ele>
        <time>2022-04-10T12:43:56Z</time>
      </trkpt>
      <trkpt lat="44.43836" lon="1.83372">
        <ele>353.2</ele>
        <time>2022-04-10T12:43:57Z</time>
      </trkpt>
      <trkpt lat="44.43832" lon="1.83376">
        <ele>353.4</ele>
        <time>2022-04-10T12:43:58Z</time>
      </trkpt>
      <trkpt lat="44.43827" lon="1.8338">
        <ele>353.6</ele>
        <time>2022-04-10T12:43:59Z</time>
      </trkpt>
      <trkpt lat="44.43823" lon="1.83383">
        <ele>353.9</ele>
        <time>2022-04-10T12:44:00Z</time>
      </trkpt>
      <trkpt lat="44.43818" lon="1.83386">
        <ele>354.1</ele>
        <time>2022-04-10T12:44:01Z</time>
      </trkpt>
      <trkpt lat="44.43814" lon="1.8339">
        <ele>354.4</ele>
        <time>2022-04-10T12:44:02Z</time>
      </trkpt>
      <trkpt lat="44.4381" lon="1.83392">
        <ele>354.6</ele>
        <time>2022-04-10T12:44:03Z</time>
      </trkpt>
      <trkpt lat="44.43806" lon="1.83395">
        <ele>354.8</ele>
        <time>2022-04-10T12:44:04Z</time>
      </trkpt>
      <trkpt lat="44.43804" lon="1.83397">
        <ele>355</ele>
        <time>2022-04-10T12:44:05Z</time>
      </trkpt>
      <trkpt lat="44.43799" lon="1.834">
        <ele>355.3</ele>
        <time>2022-04-10T12:44:06Z</time>
      </trkpt>
      <trkpt lat="44.43795" lon="1.83404">
        <ele>355.6</ele>
        <time>2022-04-10T12:44:07Z</time>
      </trkpt>
      <trkpt lat="44.43791" lon="1.83407">
        <ele>355.9</ele>
        <time>2022-04-10T12:44:08Z</time>
      </trkpt>
      <trkpt lat="44.43788" lon="1.8341">
        <ele>356.1</ele>
        <time>2022-04-10T12:44:09Z</time>
      </trkpt>
      <trkpt lat="44.43784" lon="1.83412">
        <ele>356.3</ele>
        <time>2022-04-10T12:44:10Z</time>
      </trkpt>
      <trkpt lat="44.4378" lon="1.83415">
        <ele>356.6</ele>
        <time>2022-04-10T12:44:11Z</time>
      </trkpt>
      <trkpt lat="44.43777" lon="1.83415">
        <ele>356.7</ele>
        <time>2022-04-10T12:44:12Z</time>
      </trkpt>
      <trkpt lat="44.43773" lon="1.83418">
        <ele>357</ele>
        <time>2022-04-10T12:44:13Z</time>
      </trkpt>
      <trkpt lat="44.43767" lon="1.83425">
        <ele>357.4</ele>
        <time>2022-04-10T12:44:15Z</time>
      </trkpt>
      <trkpt lat="44.43759" lon="1.8343">
        <ele>358</ele>
        <time>2022-04-10T12:44:16Z</time>
      </trkpt>
      <trkpt lat="44.43754" lon="1.83434">
        <ele>358.3</ele>
        <time>2022-04-10T12:44:17Z</time>
      </trkpt>
      <trkpt lat="44.43748" lon="1.83437">
        <ele>358.6</ele>
        <time>2022-04-10T12:44:18Z</time>
      </trkpt>
      <trkpt lat="44.43743" lon="1.83441">
        <ele>358.9</ele>
        <time>2022-04-10T12:44:19Z</time>
      </trkpt>
      <trkpt lat="44.43738" lon="1.83444">
        <ele>359.2</ele>
        <time>2022-04-10T12:44:20Z</time>
      </trkpt>
      <trkpt lat="44.43734" lon="1.83449">
        <ele>359.5</ele>
        <time>2022-04-10T12:44:21Z</time>
      </trkpt>
      <trkpt lat="44.43729" lon="1.83452">
        <ele>359.8</ele>
        <time>2022-04-10T12:44:22Z</time>
      </trkpt>
      <trkpt lat="44.43724" lon="1.83456">
        <ele>360</ele>
        <time>2022-04-10T12:44:23Z</time>
      </trkpt>
      <trkpt lat="44.4372" lon="1.83459">
        <ele>360.3</ele>
        <time>2022-04-10T12:44:24Z</time>
      </trkpt>
      <trkpt lat="44.43716" lon="1.83463">
        <ele>360.5</ele>
        <time>2022-04-10T12:44:25Z</time>
      </trkpt>
      <trkpt lat="44.43711" lon="1.83466">
        <ele>360.8</ele>
        <time>2022-04-10T12:44:26Z</time>
      </trkpt>
      <trkpt lat="44.43706" lon="1.8347">
        <ele>361</ele>
        <time>2022-04-10T12:44:27Z</time>
      </trkpt>
      <trkpt lat="44.43702" lon="1.83473">
        <ele>361.2</ele>
        <time>2022-04-10T12:44:28Z</time>
      </trkpt>
      <trkpt lat="44.43698" lon="1.83476">
        <ele>361.4</ele>
        <time>2022-04-10T12:44:29Z</time>
      </trkpt>
      <trkpt lat="44.43693" lon="1.83479">
        <ele>361.5</ele>
        <time>2022-04-10T12:44:30Z</time>
      </trkpt>
      <trkpt lat="44.43689" lon="1.83482">
        <ele>361.7</ele>
        <time>2022-04-10T12:44:31Z</time>
      </trkpt>
      <trkpt lat="44.43684" lon="1.83485">
        <ele>361.9</ele>
        <time>2022-04-10T12:44:32Z</time>
      </trkpt>
      <trkpt lat="44.4368" lon="1.83488">
        <ele>362</ele>
        <time>2022-04-10T12:44:33Z</time>
      </trkpt>
      <trkpt lat="44.43675" lon="1.8349">
        <ele>362.2</ele>
        <time>2022-04-10T12:44:34Z</time>
      </trkpt>
      <trkpt lat="44.43671" lon="1.83492">
        <ele>362.3</ele>
        <time>2022-04-10T12:44:35Z</time>
      </trkpt>
      <trkpt lat="44.43666" lon="1.83493">
        <ele>362.4</ele>
        <time>2022-04-10T12:44:36Z</time>
      </trkpt>
      <trkpt lat="44.43663" lon="1.83495">
        <ele>362.4</ele>
        <time>2022-04-10T12:44:37Z</time>
      </trkpt>
      <trkpt lat="44.43658" lon="1.83498">
        <ele>362.5</ele>
        <time>2022-04-10T12:44:38Z</time>
      </trkpt>
      <trkpt lat="44.43653" lon="1.835">
        <ele>362.6</ele>
        <time>2022-04-10T12:44:39Z</time>
      </trkpt>
      <trkpt lat="44.43648" lon="1.83501">
        <ele>362.7</ele>
        <time>2022-04-10T12:44:40Z</time>
      </trkpt>
      <trkpt lat="44.43643" lon="1.83502">
        <ele>362.7</ele>
        <time>2022-04-10T12:44:41Z</time>
      </trkpt>
      <trkpt lat="44.43637" lon="1.83504">
        <ele>362.8</ele>
        <time>2022-04-10T12:44:42Z</time>
      </trkpt>
      <trkpt lat="44.43632" lon="1.83506">
        <ele>362.8</ele>
        <time>2022-04-10T12:44:43Z</time>
      </trkpt>
      <trkpt lat="44.43627" lon="1.83507">
        <ele>362.9</ele>
        <time>2022-04-10T12:44:44Z</time>
      </trkpt>
      <trkpt lat="44.43621" lon="1.83509">
        <ele>362.9</ele>
        <time>2022-04-10T12:44:45Z</time>
      </trkpt>
      <trkpt lat="44.43616" lon="1.83512">
        <ele>363</ele>
        <time>2022-04-10T12:44:46Z</time>
      </trkpt>
      <trkpt lat="44.43611" lon="1.83513">
        <ele>363</ele>
        <time>2022-04-10T12:44:47Z</time>
      </trkpt>
      <trkpt lat="44.43605" lon="1.83514">
        <ele>363</ele>
        <time>2022-04-10T12:44:48Z</time>
      </trkpt>
      <trkpt lat="44.436" lon="1.83516">
        <ele>363</ele>
        <time>2022-04-10T12:44:49Z</time>
      </trkpt>
      <trkpt lat="44.43594" lon="1.83516">
        <ele>363.1</ele>
        <time>2022-04-10T12:44:50Z</time>
      </trkpt>
      <trkpt lat="44.43589" lon="1.83516">
        <ele>363.1</ele>
        <time>2022-04-10T12:44:51Z</time>
      </trkpt>
      <trkpt lat="44.43584" lon="1.83516">
        <ele>363.2</ele>
        <time>2022-04-10T12:44:52Z</time>
      </trkpt>
      <trkpt lat="44.43579" lon="1.83516">
        <ele>363.3</ele>
        <time>2022-04-10T12:44:53Z</time>
      </trkpt>
      <trkpt lat="44.43574" lon="1.83516">
        <ele>363.3</ele>
        <time>2022-04-10T12:44:54Z</time>
      </trkpt>
      <trkpt lat="44.43569" lon="1.83516">
        <ele>363.3</ele>
        <time>2022-04-10T12:44:55Z</time>
      </trkpt>
      <trkpt lat="44.43563" lon="1.83517">
        <ele>363.3</ele>
        <time>2022-04-10T12:44:56Z</time>
      </trkpt>
      <trkpt lat="44.43558" lon="1.83517">
        <ele>363.3</ele>
        <time>2022-04-10T12:44:57Z</time>
      </trkpt>
      <trkpt lat="44.43553" lon="1.83518">
        <ele>363.3</ele>
        <time>2022-04-10T12:44:58Z</time>
      </trkpt>
      <trkpt lat="44.43548" lon="1.83518">
        <ele>363.2</ele>
        <time>2022-04-10T12:44:59Z</time>
      </trkpt>
      <trkpt lat="44.43542" lon="1.83518">
        <ele>363.1</ele>
        <time>2022-04-10T12:45:00Z</time>
      </trkpt>
      <trkpt lat="44.43537" lon="1.83519">
        <ele>362.9</ele>
        <time>2022-04-10T12:45:01Z</time>
      </trkpt>
      <trkpt lat="44.43531" lon="1.8352">
        <ele>362.8</ele>
        <time>2022-04-10T12:45:02Z</time>
      </trkpt>
      <trkpt lat="44.43525" lon="1.8352">
        <ele>362.5</ele>
        <time>2022-04-10T12:45:03Z</time>
      </trkpt>
      <trkpt lat="44.43519" lon="1.83521">
        <ele>362.2</ele>
        <time>2022-04-10T12:45:04Z</time>
      </trkpt>
      <trkpt lat="44.43513" lon="1.83523">
        <ele>361.9</ele>
        <time>2022-04-10T12:45:05Z</time>
      </trkpt>
      <trkpt lat="44.43507" lon="1.83524">
        <ele>361.6</ele>
        <time>2022-04-10T12:45:06Z</time>
      </trkpt>
      <trkpt lat="44.435" lon="1.83524">
        <ele>361.3</ele>
        <time>2022-04-10T12:45:07Z</time>
      </trkpt>
      <trkpt lat="44.43494" lon="1.83523">
        <ele>361.2</ele>
        <time>2022-04-10T12:45:08Z</time>
      </trkpt>
      <trkpt lat="44.43487" lon="1.83522">
        <ele>361</ele>
        <time>2022-04-10T12:45:09Z</time>
      </trkpt>
      <trkpt lat="44.43481" lon="1.83521">
        <ele>360.9</ele>
        <time>2022-04-10T12:45:10Z</time>
      </trkpt>
      <trkpt lat="44.43475" lon="1.83519">
        <ele>360.7</ele>
        <time>2022-04-10T12:45:11Z</time>
      </trkpt>
      <trkpt lat="44.43469" lon="1.83518">
        <ele>360.6</ele>
        <time>2022-04-10T12:45:12Z</time>
      </trkpt>
      <trkpt lat="44.43463" lon="1.83516">
        <ele>360.5</ele>
        <time>2022-04-10T12:45:13Z</time>
      </trkpt>
      <trkpt lat="44.43457" lon="1.83515">
        <ele>360.4</ele>
        <time>2022-04-10T12:45:14Z</time>
      </trkpt>
      <trkpt lat="44.43451" lon="1.83514">
        <ele>360.3</ele>
        <time>2022-04-10T12:45:15Z</time>
      </trkpt>
      <trkpt lat="44.43445" lon="1.83512">
        <ele>360.1</ele>
        <time>2022-04-10T12:45:16Z</time>
      </trkpt>
      <trkpt lat="44.43439" lon="1.83511">
        <ele>360</ele>
        <time>2022-04-10T12:45:17Z</time>
      </trkpt>
      <trkpt lat="44.43433" lon="1.83509">
        <ele>359.8</ele>
        <time>2022-04-10T12:45:18Z</time>
      </trkpt>
      <trkpt lat="44.43428" lon="1.83508">
        <ele>359.7</ele>
        <time>2022-04-10T12:45:19Z</time>
      </trkpt>
      <trkpt lat="44.43422" lon="1.83506">
        <ele>359.6</ele>
        <time>2022-04-10T12:45:20Z</time>
      </trkpt>
      <trkpt lat="44.43417" lon="1.83503">
        <ele>359.5</ele>
        <time>2022-04-10T12:45:21Z</time>
      </trkpt>
      <trkpt lat="44.43412" lon="1.83501">
        <ele>359.3</ele>
        <time>2022-04-10T12:45:22Z</time>
      </trkpt>
      <trkpt lat="44.43406" lon="1.83499">
        <ele>359.2</ele>
        <time>2022-04-10T12:45:23Z</time>
      </trkpt>
      <trkpt lat="44.43401" lon="1.83498">
        <ele>359.1</ele>
        <time>2022-04-10T12:45:24Z</time>
      </trkpt>
      <trkpt lat="44.43395" lon="1.83497">
        <ele>359</ele>
        <time>2022-04-10T12:45:25Z</time>
      </trkpt>
      <trkpt lat="44.43389" lon="1.83495">
        <ele>358.8</ele>
        <time>2022-04-10T12:45:26Z</time>
      </trkpt>
      <trkpt lat="44.43384" lon="1.83494">
        <ele>358.7</ele>
        <time>2022-04-10T12:45:27Z</time>
      </trkpt>
      <trkpt lat="44.43378" lon="1.83492">
        <ele>358.6</ele>
        <time>2022-04-10T12:45:28Z</time>
      </trkpt>
      <trkpt lat="44.43373" lon="1.83491">
        <ele>358.5</ele>
        <time>2022-04-10T12:45:29Z</time>
      </trkpt>
      <trkpt lat="44.43367" lon="1.8349">
        <ele>358.4</ele>
        <time>2022-04-10T12:45:30Z</time>
      </trkpt>
      <trkpt lat="44.43361" lon="1.8349">
        <ele>358.4</ele>
        <time>2022-04-10T12:45:31Z</time>
      </trkpt>
      <trkpt lat="44.43356" lon="1.83489">
        <ele>358.3</ele>
        <time>2022-04-10T12:45:32Z</time>
      </trkpt>
      <trkpt lat="44.4335" lon="1.83488">
        <ele>358.3</ele>
        <time>2022-04-10T12:45:33Z</time>
      </trkpt>
      <trkpt lat="44.43345" lon="1.83488">
        <ele>358.3</ele>
        <time>2022-04-10T12:45:34Z</time>
      </trkpt>
      <trkpt lat="44.43339" lon="1.83488">
        <ele>358.3</ele>
        <time>2022-04-10T12:45:35Z</time>
      </trkpt>
      <trkpt lat="44.43333" lon="1.83489">
        <ele>358.3</ele>
        <time>2022-04-10T12:45:36Z</time>
      </trkpt>
      <trkpt lat="44.43328" lon="1.8349">
        <ele>358.3</ele>
        <time>2022-04-10T12:45:37Z</time>
      </trkpt>
      <trkpt lat="44.43322" lon="1.83492">
        <ele>358.4</ele>
        <time>2022-04-10T12:45:38Z</time>
      </trkpt>
      <trkpt lat="44.43316" lon="1.83493">
        <ele>358.4</ele>
        <time>2022-04-10T12:45:39Z</time>
      </trkpt>
      <trkpt lat="44.4331" lon="1.83494">
        <ele>358.5</ele>
        <time>2022-04-10T12:45:40Z</time>
      </trkpt>
      <trkpt lat="44.43305" lon="1.83495">
        <ele>358.7</ele>
        <time>2022-04-10T12:45:41Z</time>
      </trkpt>
      <trkpt lat="44.433" lon="1.83495">
        <ele>358.8</ele>
        <time>2022-04-10T12:45:42Z</time>
      </trkpt>
      <trkpt lat="44.43295" lon="1.83495">
        <ele>358.9</ele>
        <time>2022-04-10T12:45:43Z</time>
      </trkpt>
      <trkpt lat="44.4329" lon="1.83494">
        <ele>359</ele>
        <time>2022-04-10T12:45:44Z</time>
      </trkpt>
      <trkpt lat="44.43285" lon="1.83493">
        <ele>359.1</ele>
        <time>2022-04-10T12:45:45Z</time>
      </trkpt>
      <trkpt lat="44.43281" lon="1.83492">
        <ele>359.2</ele>
        <time>2022-04-10T12:45:46Z</time>
      </trkpt>
      <trkpt lat="44.43277" lon="1.83492">
        <ele>359.5</ele>
        <time>2022-04-10T12:45:47Z</time>
      </trkpt>
      <trkpt lat="44.43273" lon="1.83492">
        <ele>359.7</ele>
        <time>2022-04-10T12:45:48Z</time>
      </trkpt>
      <trkpt lat="44.4327" lon="1.83492">
        <ele>360</ele>
        <time>2022-04-10T12:45:49Z</time>
      </trkpt>
      <trkpt lat="44.43266" lon="1.83492">
        <ele>360.2</ele>
        <time>2022-04-10T12:45:50Z</time>
      </trkpt>
      <trkpt lat="44.43262" lon="1.83492">
        <ele>360.5</ele>
        <time>2022-04-10T12:45:51Z</time>
      </trkpt>
      <trkpt lat="44.43258" lon="1.83491">
        <ele>360.7</ele>
        <time>2022-04-10T12:45:52Z</time>
      </trkpt>
      <trkpt lat="44.43255" lon="1.83491">
        <ele>360.9</ele>
        <time>2022-04-10T12:45:53Z</time>
      </trkpt>
      <trkpt lat="44.4325" lon="1.83491">
        <ele>361.2</ele>
        <time>2022-04-10T12:45:54Z</time>
      </trkpt>
      <trkpt lat="44.43243" lon="1.83491">
        <ele>361.7</ele>
        <time>2022-04-10T12:45:56Z</time>
      </trkpt>
      <trkpt lat="44.43237" lon="1.83491">
        <ele>362.2</ele>
        <time>2022-04-10T12:45:57Z</time>
      </trkpt>
      <trkpt lat="44.43234" lon="1.83491">
        <ele>362.4</ele>
        <time>2022-04-10T12:45:58Z</time>
      </trkpt>
      <trkpt lat="44.43231" lon="1.83491">
        <ele>362.6</ele>
        <time>2022-04-10T12:45:59Z</time>
      </trkpt>
      <trkpt lat="44.43225" lon="1.83491">
        <ele>363.1</ele>
        <time>2022-04-10T12:46:01Z</time>
      </trkpt>
      <trkpt lat="44.43219" lon="1.83491">
        <ele>363.5</ele>
        <time>2022-04-10T12:46:02Z</time>
      </trkpt>
      <trkpt lat="44.43215" lon="1.83491">
        <ele>363.8</ele>
        <time>2022-04-10T12:46:03Z</time>
      </trkpt>
      <trkpt lat="44.43211" lon="1.83491">
        <ele>364.1</ele>
        <time>2022-04-10T12:46:04Z</time>
      </trkpt>
      <trkpt lat="44.43206" lon="1.83491">
        <ele>364.4</ele>
        <time>2022-04-10T12:46:05Z</time>
      </trkpt>
      <trkpt lat="44.43202" lon="1.83491">
        <ele>364.6</ele>
        <time>2022-04-10T12:46:06Z</time>
      </trkpt>
      <trkpt lat="44.43197" lon="1.83491">
        <ele>365</ele>
        <time>2022-04-10T12:46:07Z</time>
      </trkpt>
      <trkpt lat="44.43193" lon="1.83491">
        <ele>365.3</ele>
        <time>2022-04-10T12:46:08Z</time>
      </trkpt>
      <trkpt lat="44.43189" lon="1.83491">
        <ele>365.5</ele>
        <time>2022-04-10T12:46:09Z</time>
      </trkpt>
      <trkpt lat="44.43185" lon="1.83491">
        <ele>365.8</ele>
        <time>2022-04-10T12:46:10Z</time>
      </trkpt>
      <trkpt lat="44.43179" lon="1.83491">
        <ele>366.1</ele>
        <time>2022-04-10T12:46:11Z</time>
      </trkpt>
      <trkpt lat="44.43175" lon="1.83491">
        <ele>366.3</ele>
        <time>2022-04-10T12:46:12Z</time>
      </trkpt>
      <trkpt lat="44.4317" lon="1.83491">
        <ele>366.6</ele>
        <time>2022-04-10T12:46:13Z</time>
      </trkpt>
      <trkpt lat="44.43168" lon="1.83491">
        <ele>366.7</ele>
        <time>2022-04-10T12:46:14Z</time>
      </trkpt>
      <trkpt lat="44.43163" lon="1.83491">
        <ele>366.9</ele>
        <time>2022-04-10T12:46:15Z</time>
      </trkpt>
      <trkpt lat="44.43159" lon="1.83492">
        <ele>367.1</ele>
        <time>2022-04-10T12:46:16Z</time>
      </trkpt>
      <trkpt lat="44.43154" lon="1.83492">
        <ele>367.4</ele>
        <time>2022-04-10T12:46:17Z</time>
      </trkpt>
      <trkpt lat="44.43149" lon="1.83493">
        <ele>367.6</ele>
        <time>2022-04-10T12:46:18Z</time>
      </trkpt>
      <trkpt lat="44.43144" lon="1.83494">
        <ele>367.9</ele>
        <time>2022-04-10T12:46:19Z</time>
      </trkpt>
      <trkpt lat="44.4314" lon="1.83494">
        <ele>368.1</ele>
        <time>2022-04-10T12:46:20Z</time>
      </trkpt>
      <trkpt lat="44.43135" lon="1.83495">
        <ele>368.4</ele>
        <time>2022-04-10T12:46:21Z</time>
      </trkpt>
      <trkpt lat="44.43131" lon="1.83495">
        <ele>368.6</ele>
        <time>2022-04-10T12:46:22Z</time>
      </trkpt>
      <trkpt lat="44.43128" lon="1.83494">
        <ele>368.7</ele>
        <time>2022-04-10T12:46:23Z</time>
      </trkpt>
      <trkpt lat="44.43117" lon="1.83495">
        <ele>369.2</ele>
        <time>2022-04-10T12:46:25Z</time>
      </trkpt>
      <trkpt lat="44.43111" lon="1.83496">
        <ele>369.4</ele>
        <time>2022-04-10T12:46:27Z</time>
      </trkpt>
      <trkpt lat="44.43106" lon="1.83497">
        <ele>369.6</ele>
        <time>2022-04-10T12:46:28Z</time>
      </trkpt>
      <trkpt lat="44.431" lon="1.83496">
        <ele>369.7</ele>
        <time>2022-04-10T12:46:29Z</time>
      </trkpt>
      <trkpt lat="44.43095" lon="1.83496">
        <ele>369.8</ele>
        <time>2022-04-10T12:46:30Z</time>
      </trkpt>
      <trkpt lat="44.4309" lon="1.83495">
        <ele>369.9</ele>
        <time>2022-04-10T12:46:31Z</time>
      </trkpt>
      <trkpt lat="44.43085" lon="1.83495">
        <ele>370</ele>
        <time>2022-04-10T12:46:32Z</time>
      </trkpt>
      <trkpt lat="44.43081" lon="1.83494">
        <ele>370.1</ele>
        <time>2022-04-10T12:46:33Z</time>
      </trkpt>
      <trkpt lat="44.43075" lon="1.83494">
        <ele>370.1</ele>
        <time>2022-04-10T12:46:34Z</time>
      </trkpt>
      <trkpt lat="44.43072" lon="1.83493">
        <ele>370.2</ele>
        <time>2022-04-10T12:46:35Z</time>
      </trkpt>
      <trkpt lat="44.43068" lon="1.83493">
        <ele>370.3</ele>
        <time>2022-04-10T12:46:36Z</time>
      </trkpt>
      <trkpt lat="44.43061" lon="1.83492">
        <ele>370.4</ele>
        <time>2022-04-10T12:46:38Z</time>
      </trkpt>
      <trkpt lat="44.43054" lon="1.83492">
        <ele>370.5</ele>
        <time>2022-04-10T12:46:39Z</time>
      </trkpt>
      <trkpt lat="44.43049" lon="1.83492">
        <ele>370.6</ele>
        <time>2022-04-10T12:46:40Z</time>
      </trkpt>
      <trkpt lat="44.43046" lon="1.83492">
        <ele>370.7</ele>
        <time>2022-04-10T12:46:42Z</time>
      </trkpt>
      <trkpt lat="44.43043" lon="1.83492">
        <ele>370.8</ele>
        <time>2022-04-10T12:46:43Z</time>
      </trkpt>
      <trkpt lat="44.43037" lon="1.83491">
        <ele>371</ele>
        <time>2022-04-10T12:46:45Z</time>
      </trkpt>
      <trkpt lat="44.43029" lon="1.8349">
        <ele>371.2</ele>
        <time>2022-04-10T12:46:46Z</time>
      </trkpt>
      <trkpt lat="44.43024" lon="1.8349">
        <ele>371.4</ele>
        <time>2022-04-10T12:46:47Z</time>
      </trkpt>
      <trkpt lat="44.43018" lon="1.83489">
        <ele>371.5</ele>
        <time>2022-04-10T12:46:48Z</time>
      </trkpt>
      <trkpt lat="44.43013" lon="1.83487">
        <ele>371.7</ele>
        <time>2022-04-10T12:46:49Z</time>
      </trkpt>
      <trkpt lat="44.43008" lon="1.83486">
        <ele>371.9</ele>
        <time>2022-04-10T12:46:50Z</time>
      </trkpt>
      <trkpt lat="44.43003" lon="1.83485">
        <ele>372.1</ele>
        <time>2022-04-10T12:46:51Z</time>
      </trkpt>
      <trkpt lat="44.42998" lon="1.83484">
        <ele>372.2</ele>
        <time>2022-04-10T12:46:52Z</time>
      </trkpt>
      <trkpt lat="44.42993" lon="1.83483">
        <ele>372.4</ele>
        <time>2022-04-10T12:46:53Z</time>
      </trkpt>
      <trkpt lat="44.42988" lon="1.83483">
        <ele>372.6</ele>
        <time>2022-04-10T12:46:54Z</time>
      </trkpt>
      <trkpt lat="44.42983" lon="1.83482">
        <ele>372.8</ele>
        <time>2022-04-10T12:46:55Z</time>
      </trkpt>
      <trkpt lat="44.42977" lon="1.83482">
        <ele>372.9</ele>
        <time>2022-04-10T12:46:56Z</time>
      </trkpt>
      <trkpt lat="44.42972" lon="1.83481">
        <ele>373</ele>
        <time>2022-04-10T12:46:57Z</time>
      </trkpt>
      <trkpt lat="44.42967" lon="1.8348">
        <ele>373.1</ele>
        <time>2022-04-10T12:46:58Z</time>
      </trkpt>
      <trkpt lat="44.42962" lon="1.8348">
        <ele>373.2</ele>
        <time>2022-04-10T12:46:59Z</time>
      </trkpt>
      <trkpt lat="44.42957" lon="1.83479">
        <ele>373.3</ele>
        <time>2022-04-10T12:47:00Z</time>
      </trkpt>
      <trkpt lat="44.42952" lon="1.83479">
        <ele>373.4</ele>
        <time>2022-04-10T12:47:01Z</time>
      </trkpt>
      <trkpt lat="44.42947" lon="1.83479">
        <ele>373.4</ele>
        <time>2022-04-10T12:47:02Z</time>
      </trkpt>
      <trkpt lat="44.42941" lon="1.83479">
        <ele>373.5</ele>
        <time>2022-04-10T12:47:03Z</time>
      </trkpt>
      <trkpt lat="44.42936" lon="1.83479">
        <ele>373.5</ele>
        <time>2022-04-10T12:47:04Z</time>
      </trkpt>
      <trkpt lat="44.42931" lon="1.83478">
        <ele>373.5</ele>
        <time>2022-04-10T12:47:05Z</time>
      </trkpt>
      <trkpt lat="44.42926" lon="1.83479">
        <ele>373.6</ele>
        <time>2022-04-10T12:47:06Z</time>
      </trkpt>
      <trkpt lat="44.42921" lon="1.83479">
        <ele>373.5</ele>
        <time>2022-04-10T12:47:07Z</time>
      </trkpt>
      <trkpt lat="44.42918" lon="1.83477">
        <ele>373.3</ele>
        <time>2022-04-10T12:47:08Z</time>
      </trkpt>
      <trkpt lat="44.42916" lon="1.83474">
        <ele>373.2</ele>
        <time>2022-04-10T12:47:09Z</time>
      </trkpt>
      <trkpt lat="44.42911" lon="1.83469">
        <ele>372.9</ele>
        <time>2022-04-10T12:47:10Z</time>
      </trkpt>
      <trkpt lat="44.42906" lon="1.83465">
        <ele>372.6</ele>
        <time>2022-04-10T12:47:11Z</time>
      </trkpt>
      <trkpt lat="44.42902" lon="1.83463">
        <ele>372.2</ele>
        <time>2022-04-10T12:47:12Z</time>
      </trkpt>
      <trkpt lat="44.42896" lon="1.83461">
        <ele>371.8</ele>
        <time>2022-04-10T12:47:13Z</time>
      </trkpt>
      <trkpt lat="44.42891" lon="1.83459">
        <ele>371.4</ele>
        <time>2022-04-10T12:47:14Z</time>
      </trkpt>
      <trkpt lat="44.42886" lon="1.83456">
        <ele>370.9</ele>
        <time>2022-04-10T12:47:15Z</time>
      </trkpt>
      <trkpt lat="44.4288" lon="1.83453">
        <ele>370.3</ele>
        <time>2022-04-10T12:47:16Z</time>
      </trkpt>
      <trkpt lat="44.42874" lon="1.8345">
        <ele>369.8</ele>
        <time>2022-04-10T12:47:17Z</time>
      </trkpt>
      <trkpt lat="44.42867" lon="1.83447">
        <ele>369.2</ele>
        <time>2022-04-10T12:47:18Z</time>
      </trkpt>
      <trkpt lat="44.42861" lon="1.83443">
        <ele>368.6</ele>
        <time>2022-04-10T12:47:19Z</time>
      </trkpt>
      <trkpt lat="44.42854" lon="1.8344">
        <ele>367.9</ele>
        <time>2022-04-10T12:47:20Z</time>
      </trkpt>
      <trkpt lat="44.42847" lon="1.83437">
        <ele>367.3</ele>
        <time>2022-04-10T12:47:21Z</time>
      </trkpt>
      <trkpt lat="44.4284" lon="1.83434">
        <ele>366.7</ele>
        <time>2022-04-10T12:47:22Z</time>
      </trkpt>
      <trkpt lat="44.42832" lon="1.83431">
        <ele>366.2</ele>
        <time>2022-04-10T12:47:23Z</time>
      </trkpt>
      <trkpt lat="44.42825" lon="1.83428">
        <ele>365.6</ele>
        <time>2022-04-10T12:47:24Z</time>
      </trkpt>
      <trkpt lat="44.42817" lon="1.83425">
        <ele>365.2</ele>
        <time>2022-04-10T12:47:25Z</time>
      </trkpt>
      <trkpt lat="44.42811" lon="1.83424">
        <ele>364.8</ele>
        <time>2022-04-10T12:47:26Z</time>
      </trkpt>
      <trkpt lat="44.42807" lon="1.83424">
        <ele>364.5</ele>
        <time>2022-04-10T12:47:27Z</time>
      </trkpt>
      <trkpt lat="44.42804" lon="1.83423">
        <ele>364.3</ele>
        <time>2022-04-10T12:47:28Z</time>
      </trkpt>
      <trkpt lat="44.42803" lon="1.83422">
        <ele>364.2</ele>
        <time>2022-04-10T12:47:29Z</time>
      </trkpt>
      <trkpt lat="44.42799" lon="1.83419">
        <ele>363.9</ele>
        <time>2022-04-10T12:47:30Z</time>
      </trkpt>
      <trkpt lat="44.42798" lon="1.83418">
        <ele>363.8</ele>
        <time>2022-04-10T12:47:31Z</time>
      </trkpt>
      <trkpt lat="44.42795" lon="1.83415">
        <ele>363.5</ele>
        <time>2022-04-10T12:47:32Z</time>
      </trkpt>
      <trkpt lat="44.42792" lon="1.83413">
        <ele>363.3</ele>
        <time>2022-04-10T12:47:33Z</time>
      </trkpt>
      <trkpt lat="44.42789" lon="1.83408">
        <ele>362.9</ele>
        <time>2022-04-10T12:47:34Z</time>
      </trkpt>
      <trkpt lat="44.42778" lon="1.83404">
        <ele>362.1</ele>
        <time>2022-04-10T12:47:36Z</time>
      </trkpt>
      <trkpt lat="44.42774" lon="1.83402">
        <ele>361.7</ele>
        <time>2022-04-10T12:47:37Z</time>
      </trkpt>
      <trkpt lat="44.42768" lon="1.83401">
        <ele>361.3</ele>
        <time>2022-04-10T12:47:38Z</time>
      </trkpt>
      <trkpt lat="44.42763" lon="1.83399">
        <ele>360.9</ele>
        <time>2022-04-10T12:47:39Z</time>
      </trkpt>
      <trkpt lat="44.42757" lon="1.83397">
        <ele>360.5</ele>
        <time>2022-04-10T12:47:40Z</time>
      </trkpt>
      <trkpt lat="44.42751" lon="1.83395">
        <ele>360.1</ele>
        <time>2022-04-10T12:47:41Z</time>
      </trkpt>
      <trkpt lat="44.42746" lon="1.83394">
        <ele>359.8</ele>
        <time>2022-04-10T12:47:42Z</time>
      </trkpt>
      <trkpt lat="44.4274" lon="1.83392">
        <ele>359.4</ele>
        <time>2022-04-10T12:47:43Z</time>
      </trkpt>
      <trkpt lat="44.42733" lon="1.83391">
        <ele>359.1</ele>
        <time>2022-04-10T12:47:44Z</time>
      </trkpt>
      <trkpt lat="44.42727" lon="1.8339">
        <ele>358.8</ele>
        <time>2022-04-10T12:47:45Z</time>
      </trkpt>
      <trkpt lat="44.4272" lon="1.8339">
        <ele>358.4</ele>
        <time>2022-04-10T12:47:46Z</time>
      </trkpt>
      <trkpt lat="44.42714" lon="1.83391">
        <ele>358</ele>
        <time>2022-04-10T12:47:47Z</time>
      </trkpt>
      <trkpt lat="44.42707" lon="1.83391">
        <ele>357.6</ele>
        <time>2022-04-10T12:47:48Z</time>
      </trkpt>
      <trkpt lat="44.42699" lon="1.83392">
        <ele>357.1</ele>
        <time>2022-04-10T12:47:49Z</time>
      </trkpt>
      <trkpt lat="44.42692" lon="1.83392">
        <ele>356.6</ele>
        <time>2022-04-10T12:47:50Z</time>
      </trkpt>
      <trkpt lat="44.42685" lon="1.83393">
        <ele>356.2</ele>
        <time>2022-04-10T12:47:51Z</time>
      </trkpt>
      <trkpt lat="44.42678" lon="1.83392">
        <ele>355.8</ele>
        <time>2022-04-10T12:47:52Z</time>
      </trkpt>
      <trkpt lat="44.42671" lon="1.83391">
        <ele>355.5</ele>
        <time>2022-04-10T12:47:53Z</time>
      </trkpt>
      <trkpt lat="44.42664" lon="1.8339">
        <ele>355.2</ele>
        <time>2022-04-10T12:47:54Z</time>
      </trkpt>
      <trkpt lat="44.42657" lon="1.83387">
        <ele>354.9</ele>
        <time>2022-04-10T12:47:55Z</time>
      </trkpt>
      <trkpt lat="44.42651" lon="1.83383">
        <ele>354.6</ele>
        <time>2022-04-10T12:47:56Z</time>
      </trkpt>
      <trkpt lat="44.42645" lon="1.83379">
        <ele>354.1</ele>
        <time>2022-04-10T12:47:57Z</time>
      </trkpt>
      <trkpt lat="44.42639" lon="1.83375">
        <ele>353.6</ele>
        <time>2022-04-10T12:47:58Z</time>
      </trkpt>
      <trkpt lat="44.42634" lon="1.83369">
        <ele>353</ele>
        <time>2022-04-10T12:47:59Z</time>
      </trkpt>
      <trkpt lat="44.42628" lon="1.83362">
        <ele>352.3</ele>
        <time>2022-04-10T12:48:00Z</time>
      </trkpt>
      <trkpt lat="44.42624" lon="1.83353">
        <ele>351.5</ele>
        <time>2022-04-10T12:48:01Z</time>
      </trkpt>
      <trkpt lat="44.42622" lon="1.83343">
        <ele>350.7</ele>
        <time>2022-04-10T12:48:02Z</time>
      </trkpt>
      <trkpt lat="44.42619" lon="1.83333">
        <ele>350.1</ele>
        <time>2022-04-10T12:48:03Z</time>
      </trkpt>
      <trkpt lat="44.42614" lon="1.83326">
        <ele>349.5</ele>
        <time>2022-04-10T12:48:04Z</time>
      </trkpt>
      <trkpt lat="44.42608" lon="1.8332">
        <ele>348.9</ele>
        <time>2022-04-10T12:48:05Z</time>
      </trkpt>
      <trkpt lat="44.42601" lon="1.83315">
        <ele>348.4</ele>
        <time>2022-04-10T12:48:06Z</time>
      </trkpt>
      <trkpt lat="44.42595" lon="1.8331">
        <ele>347.9</ele>
        <time>2022-04-10T12:48:07Z</time>
      </trkpt>
      <trkpt lat="44.42588" lon="1.83306">
        <ele>347.4</ele>
        <time>2022-04-10T12:48:08Z</time>
      </trkpt>
      <trkpt lat="44.42581" lon="1.83302">
        <ele>347</ele>
        <time>2022-04-10T12:48:09Z</time>
      </trkpt>
      <trkpt lat="44.42575" lon="1.83299">
        <ele>346.7</ele>
        <time>2022-04-10T12:48:10Z</time>
      </trkpt>
      <trkpt lat="44.42568" lon="1.83296">
        <ele>346.4</ele>
        <time>2022-04-10T12:48:11Z</time>
      </trkpt>
      <trkpt lat="44.42562" lon="1.83294">
        <ele>346.2</ele>
        <time>2022-04-10T12:48:12Z</time>
      </trkpt>
      <trkpt lat="44.42556" lon="1.83293">
        <ele>345.9</ele>
        <time>2022-04-10T12:48:13Z</time>
      </trkpt>
      <trkpt lat="44.4255" lon="1.83292">
        <ele>345.7</ele>
        <time>2022-04-10T12:48:14Z</time>
      </trkpt>
      <trkpt lat="44.42543" lon="1.83291">
        <ele>345.5</ele>
        <time>2022-04-10T12:48:15Z</time>
      </trkpt>
      <trkpt lat="44.42537" lon="1.83292">
        <ele>345.4</ele>
        <time>2022-04-10T12:48:16Z</time>
      </trkpt>
      <trkpt lat="44.42531" lon="1.83292">
        <ele>345.2</ele>
        <time>2022-04-10T12:48:17Z</time>
      </trkpt>
      <trkpt lat="44.42525" lon="1.83292">
        <ele>345</ele>
        <time>2022-04-10T12:48:18Z</time>
      </trkpt>
      <trkpt lat="44.42519" lon="1.83293">
        <ele>344.9</ele>
        <time>2022-04-10T12:48:19Z</time>
      </trkpt>
      <trkpt lat="44.42513" lon="1.83294">
        <ele>344.7</ele>
        <time>2022-04-10T12:48:20Z</time>
      </trkpt>
      <trkpt lat="44.42508" lon="1.83294">
        <ele>344.6</ele>
        <time>2022-04-10T12:48:21Z</time>
      </trkpt>
      <trkpt lat="44.42503" lon="1.83294">
        <ele>344.5</ele>
        <time>2022-04-10T12:48:22Z</time>
      </trkpt>
      <trkpt lat="44.42497" lon="1.83295">
        <ele>344.3</ele>
        <time>2022-04-10T12:48:23Z</time>
      </trkpt>
      <trkpt lat="44.42492" lon="1.83296">
        <ele>344.1</ele>
        <time>2022-04-10T12:48:24Z</time>
      </trkpt>
      <trkpt lat="44.42486" lon="1.83298">
        <ele>343.9</ele>
        <time>2022-04-10T12:48:25Z</time>
      </trkpt>
      <trkpt lat="44.42481" lon="1.833">
        <ele>343.6</ele>
        <time>2022-04-10T12:48:26Z</time>
      </trkpt>
      <trkpt lat="44.42475" lon="1.83302">
        <ele>343.3</ele>
        <time>2022-04-10T12:48:27Z</time>
      </trkpt>
      <trkpt lat="44.42468" lon="1.83304">
        <ele>343.1</ele>
        <time>2022-04-10T12:48:28Z</time>
      </trkpt>
      <trkpt lat="44.42462" lon="1.83306">
        <ele>342.9</ele>
        <time>2022-04-10T12:48:29Z</time>
      </trkpt>
      <trkpt lat="44.42457" lon="1.83309">
        <ele>342.7</ele>
        <time>2022-04-10T12:48:30Z</time>
      </trkpt>
      <trkpt lat="44.42451" lon="1.83311">
        <ele>342.5</ele>
        <time>2022-04-10T12:48:31Z</time>
      </trkpt>
      <trkpt lat="44.42446" lon="1.83315">
        <ele>342.3</ele>
        <time>2022-04-10T12:48:32Z</time>
      </trkpt>
      <trkpt lat="44.4244" lon="1.83319">
        <ele>342.1</ele>
        <time>2022-04-10T12:48:33Z</time>
      </trkpt>
      <trkpt lat="44.42436" lon="1.83324">
        <ele>342</ele>
        <time>2022-04-10T12:48:34Z</time>
      </trkpt>
      <trkpt lat="44.42431" lon="1.83329">
        <ele>341.8</ele>
        <time>2022-04-10T12:48:35Z</time>
      </trkpt>
      <trkpt lat="44.42427" lon="1.83335">
        <ele>341.6</ele>
        <time>2022-04-10T12:48:36Z</time>
      </trkpt>
      <trkpt lat="44.42422" lon="1.83341">
        <ele>341.4</ele>
        <time>2022-04-10T12:48:37Z</time>
      </trkpt>
      <trkpt lat="44.42418" lon="1.83347">
        <ele>341.2</ele>
        <time>2022-04-10T12:48:38Z</time>
      </trkpt>
      <trkpt lat="44.42414" lon="1.83353">
        <ele>340.9</ele>
        <time>2022-04-10T12:48:39Z</time>
      </trkpt>
      <trkpt lat="44.42409" lon="1.8336">
        <ele>340.7</ele>
        <time>2022-04-10T12:48:40Z</time>
      </trkpt>
      <trkpt lat="44.42405" lon="1.83366">
        <ele>340.6</ele>
        <time>2022-04-10T12:48:41Z</time>
      </trkpt>
      <trkpt lat="44.42401" lon="1.83372">
        <ele>340.5</ele>
        <time>2022-04-10T12:48:42Z</time>
      </trkpt>
      <trkpt lat="44.42396" lon="1.83377">
        <ele>340.4</ele>
        <time>2022-04-10T12:48:43Z</time>
      </trkpt>
      <trkpt lat="44.42391" lon="1.83381">
        <ele>340.4</ele>
        <time>2022-04-10T12:48:44Z</time>
      </trkpt>
      <trkpt lat="44.42386" lon="1.83384">
        <ele>340.5</ele>
        <time>2022-04-10T12:48:45Z</time>
      </trkpt>
      <trkpt lat="44.42381" lon="1.83386">
        <ele>340.6</ele>
        <time>2022-04-10T12:48:46Z</time>
      </trkpt>
      <trkpt lat="44.42376" lon="1.83389">
        <ele>340.8</ele>
        <time>2022-04-10T12:48:47Z</time>
      </trkpt>
      <trkpt lat="44.42372" lon="1.83391">
        <ele>341</ele>
        <time>2022-04-10T12:48:48Z</time>
      </trkpt>
      <trkpt lat="44.42367" lon="1.83393">
        <ele>341.3</ele>
        <time>2022-04-10T12:48:49Z</time>
      </trkpt>
      <trkpt lat="44.42363" lon="1.83396">
        <ele>341.6</ele>
        <time>2022-04-10T12:48:50Z</time>
      </trkpt>
      <trkpt lat="44.42359" lon="1.834">
        <ele>341.8</ele>
        <time>2022-04-10T12:48:51Z</time>
      </trkpt>
      <trkpt lat="44.42356" lon="1.83402">
        <ele>342</ele>
        <time>2022-04-10T12:48:52Z</time>
      </trkpt>
      <trkpt lat="44.42354" lon="1.83405">
        <ele>342.2</ele>
        <time>2022-04-10T12:48:53Z</time>
      </trkpt>
      <trkpt lat="44.4235" lon="1.83409">
        <ele>342.5</ele>
        <time>2022-04-10T12:48:54Z</time>
      </trkpt>
      <trkpt lat="44.42346" lon="1.83413">
        <ele>342.8</ele>
        <time>2022-04-10T12:48:55Z</time>
      </trkpt>
      <trkpt lat="44.42344" lon="1.83416">
        <ele>343</ele>
        <time>2022-04-10T12:48:56Z</time>
      </trkpt>
      <trkpt lat="44.42341" lon="1.8342">
        <ele>343.3</ele>
        <time>2022-04-10T12:48:57Z</time>
      </trkpt>
      <trkpt lat="44.42338" lon="1.83423">
        <ele>343.5</ele>
        <time>2022-04-10T12:48:58Z</time>
      </trkpt>
      <trkpt lat="44.42335" lon="1.83429">
        <ele>343.9</ele>
        <time>2022-04-10T12:49:00Z</time>
      </trkpt>
      <trkpt lat="44.42332" lon="1.83432">
        <ele>344.2</ele>
        <time>2022-04-10T12:49:01Z</time>
      </trkpt>
      <trkpt lat="44.42327" lon="1.83435">
        <ele>344.5</ele>
        <time>2022-04-10T12:49:02Z</time>
      </trkpt>
      <trkpt lat="44.42324" lon="1.83437">
        <ele>344.6</ele>
        <time>2022-04-10T12:49:03Z</time>
      </trkpt>
      <trkpt lat="44.42322" lon="1.8344">
        <ele>344.8</ele>
        <time>2022-04-10T12:49:04Z</time>
      </trkpt>
      <trkpt lat="44.42319" lon="1.83443">
        <ele>344.9</ele>
        <time>2022-04-10T12:49:05Z</time>
      </trkpt>
      <trkpt lat="44.42317" lon="1.83444">
        <ele>344.9</ele>
        <time>2022-04-10T12:49:06Z</time>
      </trkpt>
      <trkpt lat="44.42315" lon="1.83446">
        <ele>344.9</ele>
        <time>2022-04-10T12:49:08Z</time>
      </trkpt>
      <trkpt lat="44.42312" lon="1.83448">
        <ele>345</ele>
        <time>2022-04-10T12:49:09Z</time>
      </trkpt>
      <trkpt lat="44.42309" lon="1.83448">
        <ele>344.9</ele>
        <time>2022-04-10T12:49:10Z</time>
      </trkpt>
      <trkpt lat="44.42308" lon="1.83448">
        <ele>344.9</ele>
        <time>2022-04-10T12:49:11Z</time>
      </trkpt>
      <trkpt lat="44.42306" lon="1.83447">
        <ele>344.9</ele>
        <time>2022-04-10T12:49:12Z</time>
      </trkpt>
      <trkpt lat="44.42305" lon="1.83448">
        <ele>344.8</ele>
        <time>2022-04-10T12:49:13Z</time>
      </trkpt>
      <trkpt lat="44.42302" lon="1.83448">
        <ele>344.7</ele>
        <time>2022-04-10T12:49:14Z</time>
      </trkpt>
      <trkpt lat="44.42301" lon="1.83448">
        <ele>344.7</ele>
        <time>2022-04-10T12:49:15Z</time>
      </trkpt>
      <trkpt lat="44.42299" lon="1.83449">
        <ele>344.6</ele>
        <time>2022-04-10T12:49:16Z</time>
      </trkpt>
      <trkpt lat="44.42297" lon="1.8345">
        <ele>344.5</ele>
        <time>2022-04-10T12:49:17Z</time>
      </trkpt>
      <trkpt lat="44.42295" lon="1.8345">
        <ele>344.4</ele>
        <time>2022-04-10T12:49:18Z</time>
      </trkpt>
      <trkpt lat="44.42294" lon="1.8345">
        <ele>344.4</ele>
        <time>2022-04-10T12:49:20Z</time>
      </trkpt>
      <trkpt lat="44.42293" lon="1.8345">
        <ele>344.3</ele>
        <time>2022-04-10T12:49:21Z</time>
      </trkpt>
      <trkpt lat="44.42291" lon="1.8345">
        <ele>344.3</ele>
        <time>2022-04-10T12:49:22Z</time>
      </trkpt>
      <trkpt lat="44.4229" lon="1.8345">
        <ele>344.2</ele>
        <time>2022-04-10T12:49:23Z</time>
      </trkpt>
      <trkpt lat="44.42289" lon="1.8345">
        <ele>344.3</ele>
        <time>2022-04-10T12:49:24Z</time>
      </trkpt>
      <trkpt lat="44.42288" lon="1.83451">
        <ele>344.3</ele>
        <time>2022-04-10T12:49:25Z</time>
      </trkpt>
      <trkpt lat="44.42287" lon="1.83451">
        <ele>344.3</ele>
        <time>2022-04-10T12:49:26Z</time>
      </trkpt>
      <trkpt lat="44.42285" lon="1.83452">
        <ele>344.4</ele>
        <time>2022-04-10T12:49:27Z</time>
      </trkpt>
      <trkpt lat="44.42284" lon="1.83454">
        <ele>344.4</ele>
        <time>2022-04-10T12:49:28Z</time>
      </trkpt>
      <trkpt lat="44.42284" lon="1.83456">
        <ele>344.5</ele>
        <time>2022-04-10T12:49:29Z</time>
      </trkpt>
      <trkpt lat="44.42283" lon="1.83458">
        <ele>344.5</ele>
        <time>2022-04-10T12:49:30Z</time>
      </trkpt>
      <trkpt lat="44.42283" lon="1.83458">
        <ele>344.5</ele>
        <time>2022-04-10T12:49:31Z</time>
      </trkpt>
      <trkpt lat="44.42283" lon="1.83457">
        <ele>344.6</ele>
        <time>2022-04-10T12:49:32Z</time>
      </trkpt>
      <trkpt lat="44.42283" lon="1.83457">
        <ele>344.6</ele>
        <time>2022-04-10T12:49:33Z</time>
      </trkpt>
      <trkpt lat="44.42282" lon="1.83456">
        <ele>344.6</ele>
        <time>2022-04-10T12:49:34Z</time>
      </trkpt>
      <trkpt lat="44.42282" lon="1.83455">
        <ele>344.6</ele>
        <time>2022-04-10T12:49:35Z</time>
      </trkpt>
      <trkpt lat="44.42282" lon="1.83454">
        <ele>344.6</ele>
        <time>2022-04-10T12:49:36Z</time>
      </trkpt>
      <trkpt lat="44.42282" lon="1.83454">
        <ele>344.7</ele>
        <time>2022-04-10T12:49:37Z</time>
      </trkpt>
      <trkpt lat="44.42282" lon="1.83453">
        <ele>344.7</ele>
        <time>2022-04-10T12:49:38Z</time>
      </trkpt>
      <trkpt lat="44.42281" lon="1.83452">
        <ele>344.7</ele>
        <time>2022-04-10T12:49:39Z</time>
      </trkpt>
      <trkpt lat="44.42281" lon="1.83452">
        <ele>344.7</ele>
        <time>2022-04-10T12:49:40Z</time>
      </trkpt>
      <trkpt lat="44.42281" lon="1.83451">
        <ele>344.7</ele>
        <time>2022-04-10T12:49:41Z</time>
      </trkpt>
      <trkpt lat="44.42281" lon="1.8345">
        <ele>344.8</ele>
        <time>2022-04-10T12:49:51Z</time>
      </trkpt>
      <trkpt lat="44.42281" lon="1.8345">
        <ele>344.8</ele>
        <time>2022-04-10T12:49:52Z</time>
      </trkpt>
      <trkpt lat="44.4228" lon="1.83449">
        <ele>344.8</ele>
        <time>2022-04-10T12:49:53Z</time>
      </trkpt>
      <trkpt lat="44.42278" lon="1.83448">
        <ele>344.9</ele>
        <time>2022-04-10T12:49:54Z</time>
      </trkpt>
      <trkpt lat="44.42277" lon="1.83448">
        <ele>345</ele>
        <time>2022-04-10T12:49:55Z</time>
      </trkpt>
      <trkpt lat="44.42275" lon="1.83448">
        <ele>345</ele>
        <time>2022-04-10T12:49:56Z</time>
      </trkpt>
      <trkpt lat="44.42274" lon="1.83448">
        <ele>345.1</ele>
        <time>2022-04-10T12:49:57Z</time>
      </trkpt>
      <trkpt lat="44.42273" lon="1.83448">
        <ele>345.2</ele>
        <time>2022-04-10T12:49:58Z</time>
      </trkpt>
      <trkpt lat="44.42272" lon="1.83448">
        <ele>345.2</ele>
        <time>2022-04-10T12:49:59Z</time>
      </trkpt>
      <trkpt lat="44.42271" lon="1.83447">
        <ele>345.3</ele>
        <time>2022-04-10T12:50:00Z</time>
      </trkpt>
      <trkpt lat="44.4227" lon="1.83446">
        <ele>345.3</ele>
        <time>2022-04-10T12:50:01Z</time>
      </trkpt>
      <trkpt lat="44.4227" lon="1.83446">
        <ele>345.3</ele>
        <time>2022-04-10T12:50:02Z</time>
      </trkpt>
      <trkpt lat="44.42269" lon="1.83446">
        <ele>345.3</ele>
        <time>2022-04-10T12:50:03Z</time>
      </trkpt>
      <trkpt lat="44.42268" lon="1.83446">
        <ele>345.4</ele>
        <time>2022-04-10T12:50:04Z</time>
      </trkpt>
      <trkpt lat="44.42268" lon="1.83446">
        <ele>345.4</ele>
        <time>2022-04-10T12:50:05Z</time>
      </trkpt>
      <trkpt lat="44.42267" lon="1.83446">
        <ele>345.5</ele>
        <time>2022-04-10T12:50:06Z</time>
      </trkpt>
      <trkpt lat="44.42266" lon="1.83445">
        <ele>345.5</ele>
        <time>2022-04-10T12:50:07Z</time>
      </trkpt>
      <trkpt lat="44.42266" lon="1.83445">
        <ele>345.5</ele>
        <time>2022-04-10T12:50:08Z</time>
      </trkpt>
      <trkpt lat="44.42266" lon="1.83445">
        <ele>345.5</ele>
        <time>2022-04-10T12:50:09Z</time>
      </trkpt>
      <trkpt lat="44.42264" lon="1.83442">
        <ele>346</ele>
        <time>2022-04-10T12:50:11Z</time>
      </trkpt>
      <trkpt lat="44.42262" lon="1.83438">
        <ele>346</ele>
        <time>2022-04-10T12:50:12Z</time>
      </trkpt>
      <trkpt lat="44.42262" lon="1.83434">
        <ele>346</ele>
        <time>2022-04-10T12:50:13Z</time>
      </trkpt>
      <trkpt lat="44.42262" lon="1.83432">
        <ele>346</ele>
        <time>2022-04-10T12:50:14Z</time>
      </trkpt>
      <trkpt lat="44.42261" lon="1.83427">
        <ele>345.7</ele>
        <time>2022-04-10T12:50:15Z</time>
      </trkpt>
      <trkpt lat="44.42261" lon="1.83426">
        <ele>345.6</ele>
        <time>2022-04-10T12:50:16Z</time>
      </trkpt>
      <trkpt lat="44.42262" lon="1.83421">
        <ele>345.5</ele>
        <time>2022-04-10T12:50:17Z</time>
      </trkpt>
      <trkpt lat="44.42262" lon="1.83419">
        <ele>345.4</ele>
        <time>2022-04-10T12:50:18Z</time>
      </trkpt>
      <trkpt lat="44.42262" lon="1.83414">
        <ele>345.2</ele>
        <time>2022-04-10T12:50:19Z</time>
      </trkpt>
      <trkpt lat="44.42262" lon="1.83412">
        <ele>345.2</ele>
        <time>2022-04-10T12:50:20Z</time>
      </trkpt>
      <trkpt lat="44.42262" lon="1.83406">
        <ele>345</ele>
        <time>2022-04-10T12:50:21Z</time>
      </trkpt>
      <trkpt lat="44.42262" lon="1.83404">
        <ele>344.9</ele>
        <time>2022-04-10T12:50:22Z</time>
      </trkpt>
      <trkpt lat="44.42263" lon="1.83399">
        <ele>344.7</ele>
        <time>2022-04-10T12:50:23Z</time>
      </trkpt>
      <trkpt lat="44.42263" lon="1.8339">
        <ele>344.7</ele>
        <time>2022-04-10T12:50:25Z</time>
      </trkpt>
      <trkpt lat="44.42264" lon="1.83385">
        <ele>344.7</ele>
        <time>2022-04-10T12:50:26Z</time>
      </trkpt>
      <trkpt lat="44.42266" lon="1.83381">
        <ele>344.7</ele>
        <time>2022-04-10T12:50:27Z</time>
      </trkpt>
      <trkpt lat="44.42266" lon="1.83378">
        <ele>344.7</ele>
        <time>2022-04-10T12:50:28Z</time>
      </trkpt>
      <trkpt lat="44.42266" lon="1.83373">
        <ele>344.7</ele>
        <time>2022-04-10T12:50:29Z</time>
      </trkpt>
      <trkpt lat="44.42266" lon="1.83371">
        <ele>344.7</ele>
        <time>2022-04-10T12:50:30Z</time>
      </trkpt>
      <trkpt lat="44.42266" lon="1.83367">
        <ele>344.6</ele>
        <time>2022-04-10T12:50:31Z</time>
      </trkpt>
      <trkpt lat="44.42267" lon="1.83363">
        <ele>344.6</ele>
        <time>2022-04-10T12:50:32Z</time>
      </trkpt>
      <trkpt lat="44.42268" lon="1.83357">
        <ele>344.5</ele>
        <time>2022-04-10T12:50:33Z</time>
      </trkpt>
      <trkpt lat="44.42268" lon="1.83355">
        <ele>344.5</ele>
        <time>2022-04-10T12:50:34Z</time>
      </trkpt>
      <trkpt lat="44.42268" lon="1.83351">
        <ele>344.5</ele>
        <time>2022-04-10T12:50:36Z</time>
      </trkpt>
      <trkpt lat="44.42268" lon="1.83346">
        <ele>344.4</ele>
        <time>2022-04-10T12:50:37Z</time>
      </trkpt>
      <trkpt lat="44.42268" lon="1.83341">
        <ele>344.4</ele>
        <time>2022-04-10T12:50:38Z</time>
      </trkpt>
      <trkpt lat="44.42269" lon="1.83334">
        <ele>344.3</ele>
        <time>2022-04-10T12:50:39Z</time>
      </trkpt>
      <trkpt lat="44.4227" lon="1.83328">
        <ele>344.3</ele>
        <time>2022-04-10T12:50:40Z</time>
      </trkpt>
      <trkpt lat="44.4227" lon="1.83324">
        <ele>344.2</ele>
        <time>2022-04-10T12:50:41Z</time>
      </trkpt>
      <trkpt lat="44.42271" lon="1.83317">
        <ele>344.1</ele>
        <time>2022-04-10T12:50:43Z</time>
      </trkpt>
      <trkpt lat="44.42272" lon="1.83308">
        <ele>344</ele>
        <time>2022-04-10T12:50:44Z</time>
      </trkpt>
      <trkpt lat="44.42274" lon="1.83297">
        <ele>343.8</ele>
        <time>2022-04-10T12:50:46Z</time>
      </trkpt>
      <trkpt lat="44.42276" lon="1.83288">
        <ele>343.7</ele>
        <time>2022-04-10T12:50:47Z</time>
      </trkpt>
      <trkpt lat="44.42277" lon="1.83282">
        <ele>343.6</ele>
        <time>2022-04-10T12:50:48Z</time>
      </trkpt>
      <trkpt lat="44.42279" lon="1.83275">
        <ele>343.5</ele>
        <time>2022-04-10T12:50:49Z</time>
      </trkpt>
      <trkpt lat="44.42279" lon="1.83268">
        <ele>343.4</ele>
        <time>2022-04-10T12:50:50Z</time>
      </trkpt>
      <trkpt lat="44.42279" lon="1.83261">
        <ele>343.3</ele>
        <time>2022-04-10T12:50:51Z</time>
      </trkpt>
      <trkpt lat="44.4228" lon="1.83254">
        <ele>343.3</ele>
        <time>2022-04-10T12:50:52Z</time>
      </trkpt>
      <trkpt lat="44.4228" lon="1.83247">
        <ele>343.3</ele>
        <time>2022-04-10T12:50:53Z</time>
      </trkpt>
      <trkpt lat="44.4228" lon="1.83239">
        <ele>343.3</ele>
        <time>2022-04-10T12:50:54Z</time>
      </trkpt>
      <trkpt lat="44.4228" lon="1.83231">
        <ele>343.3</ele>
        <time>2022-04-10T12:50:55Z</time>
      </trkpt>
      <trkpt lat="44.4228" lon="1.83223">
        <ele>343.4</ele>
        <time>2022-04-10T12:50:56Z</time>
      </trkpt>
      <trkpt lat="44.4228" lon="1.83215">
        <ele>343.5</ele>
        <time>2022-04-10T12:50:57Z</time>
      </trkpt>
      <trkpt lat="44.4228" lon="1.83207">
        <ele>343.6</ele>
        <time>2022-04-10T12:50:58Z</time>
      </trkpt>
      <trkpt lat="44.42279" lon="1.832">
        <ele>343.7</ele>
        <time>2022-04-10T12:50:59Z</time>
      </trkpt>
      <trkpt lat="44.42279" lon="1.83192">
        <ele>343.7</ele>
        <time>2022-04-10T12:51:00Z</time>
      </trkpt>
      <trkpt lat="44.42279" lon="1.83185">
        <ele>343.7</ele>
        <time>2022-04-10T12:51:01Z</time>
      </trkpt>
      <trkpt lat="44.4228" lon="1.83177">
        <ele>343.7</ele>
        <time>2022-04-10T12:51:02Z</time>
      </trkpt>
      <trkpt lat="44.4228" lon="1.8317">
        <ele>343.7</ele>
        <time>2022-04-10T12:51:03Z</time>
      </trkpt>
      <trkpt lat="44.42281" lon="1.83162">
        <ele>343.7</ele>
        <time>2022-04-10T12:51:04Z</time>
      </trkpt>
      <trkpt lat="44.42282" lon="1.83154">
        <ele>343.7</ele>
        <time>2022-04-10T12:51:05Z</time>
      </trkpt>
      <trkpt lat="44.42282" lon="1.83145">
        <ele>343.6</ele>
        <time>2022-04-10T12:51:06Z</time>
      </trkpt>
      <trkpt lat="44.42284" lon="1.83136">
        <ele>343.5</ele>
        <time>2022-04-10T12:51:07Z</time>
      </trkpt>
      <trkpt lat="44.42285" lon="1.83128">
        <ele>343.5</ele>
        <time>2022-04-10T12:51:08Z</time>
      </trkpt>
      <trkpt lat="44.42287" lon="1.8312">
        <ele>343.5</ele>
        <time>2022-04-10T12:51:09Z</time>
      </trkpt>
      <trkpt lat="44.42289" lon="1.83112">
        <ele>343.4</ele>
        <time>2022-04-10T12:51:10Z</time>
      </trkpt>
      <trkpt lat="44.42291" lon="1.83103">
        <ele>343.4</ele>
        <time>2022-04-10T12:51:11Z</time>
      </trkpt>
      <trkpt lat="44.42293" lon="1.83095">
        <ele>343.5</ele>
        <time>2022-04-10T12:51:12Z</time>
      </trkpt>
      <trkpt lat="44.42295" lon="1.83087">
        <ele>343.5</ele>
        <time>2022-04-10T12:51:13Z</time>
      </trkpt>
      <trkpt lat="44.42298" lon="1.83079">
        <ele>343.5</ele>
        <time>2022-04-10T12:51:14Z</time>
      </trkpt>
      <trkpt lat="44.423" lon="1.83071">
        <ele>343.5</ele>
        <time>2022-04-10T12:51:15Z</time>
      </trkpt>
      <trkpt lat="44.42302" lon="1.83064">
        <ele>343.5</ele>
        <time>2022-04-10T12:51:16Z</time>
      </trkpt>
      <trkpt lat="44.42305" lon="1.83056">
        <ele>343.5</ele>
        <time>2022-04-10T12:51:17Z</time>
      </trkpt>
      <trkpt lat="44.42307" lon="1.83049">
        <ele>343.5</ele>
        <time>2022-04-10T12:51:18Z</time>
      </trkpt>
      <trkpt lat="44.42309" lon="1.83043">
        <ele>343.7</ele>
        <time>2022-04-10T12:51:19Z</time>
      </trkpt>
      <trkpt lat="44.42311" lon="1.83036">
        <ele>343.8</ele>
        <time>2022-04-10T12:51:20Z</time>
      </trkpt>
      <trkpt lat="44.42313" lon="1.8303">
        <ele>344</ele>
        <time>2022-04-10T12:51:21Z</time>
      </trkpt>
      <trkpt lat="44.42314" lon="1.83025">
        <ele>344.2</ele>
        <time>2022-04-10T12:51:22Z</time>
      </trkpt>
      <trkpt lat="44.42316" lon="1.83021">
        <ele>344.4</ele>
        <time>2022-04-10T12:51:23Z</time>
      </trkpt>
      <trkpt lat="44.42317" lon="1.83015">
        <ele>344.6</ele>
        <time>2022-04-10T12:51:24Z</time>
      </trkpt>
      <trkpt lat="44.42318" lon="1.8301">
        <ele>344.8</ele>
        <time>2022-04-10T12:51:25Z</time>
      </trkpt>
      <trkpt lat="44.42319" lon="1.83005">
        <ele>344.9</ele>
        <time>2022-04-10T12:51:26Z</time>
      </trkpt>
      <trkpt lat="44.42319" lon="1.82999">
        <ele>345.1</ele>
        <time>2022-04-10T12:51:27Z</time>
      </trkpt>
      <trkpt lat="44.4232" lon="1.82993">
        <ele>345.2</ele>
        <time>2022-04-10T12:51:28Z</time>
      </trkpt>
      <trkpt lat="44.42323" lon="1.82984">
        <ele>345.3</ele>
        <time>2022-04-10T12:51:30Z</time>
      </trkpt>
      <trkpt lat="44.42324" lon="1.82977">
        <ele>345.4</ele>
        <time>2022-04-10T12:51:31Z</time>
      </trkpt>
      <trkpt lat="44.42326" lon="1.8297">
        <ele>345.4</ele>
        <time>2022-04-10T12:51:32Z</time>
      </trkpt>
      <trkpt lat="44.42328" lon="1.82964">
        <ele>345.5</ele>
        <time>2022-04-10T12:51:33Z</time>
      </trkpt>
      <trkpt lat="44.4233" lon="1.82959">
        <ele>345.5</ele>
        <time>2022-04-10T12:51:34Z</time>
      </trkpt>
      <trkpt lat="44.42332" lon="1.82953">
        <ele>345.5</ele>
        <time>2022-04-10T12:51:35Z</time>
      </trkpt>
      <trkpt lat="44.42335" lon="1.82947">
        <ele>345.4</ele>
        <time>2022-04-10T12:51:36Z</time>
      </trkpt>
      <trkpt lat="44.42338" lon="1.82941">
        <ele>345.3</ele>
        <time>2022-04-10T12:51:37Z</time>
      </trkpt>
      <trkpt lat="44.42341" lon="1.82936">
        <ele>345.2</ele>
        <time>2022-04-10T12:51:38Z</time>
      </trkpt>
      <trkpt lat="44.42344" lon="1.8293">
        <ele>345.1</ele>
        <time>2022-04-10T12:51:39Z</time>
      </trkpt>
      <trkpt lat="44.42347" lon="1.82923">
        <ele>345</ele>
        <time>2022-04-10T12:51:40Z</time>
      </trkpt>
      <trkpt lat="44.4235" lon="1.82917">
        <ele>344.9</ele>
        <time>2022-04-10T12:51:41Z</time>
      </trkpt>
      <trkpt lat="44.42354" lon="1.8291">
        <ele>344.8</ele>
        <time>2022-04-10T12:51:42Z</time>
      </trkpt>
      <trkpt lat="44.42358" lon="1.82904">
        <ele>344.7</ele>
        <time>2022-04-10T12:51:43Z</time>
      </trkpt>
      <trkpt lat="44.4236" lon="1.82897">
        <ele>344.6</ele>
        <time>2022-04-10T12:51:44Z</time>
      </trkpt>
      <trkpt lat="44.42362" lon="1.8289">
        <ele>344.4</ele>
        <time>2022-04-10T12:51:45Z</time>
      </trkpt>
      <trkpt lat="44.42363" lon="1.82881">
        <ele>344.2</ele>
        <time>2022-04-10T12:51:46Z</time>
      </trkpt>
      <trkpt lat="44.42364" lon="1.82873">
        <ele>343.9</ele>
        <time>2022-04-10T12:51:47Z</time>
      </trkpt>
      <trkpt lat="44.42364" lon="1.82864">
        <ele>343.6</ele>
        <time>2022-04-10T12:51:48Z</time>
      </trkpt>
      <trkpt lat="44.42365" lon="1.82854">
        <ele>343.3</ele>
        <time>2022-04-10T12:51:49Z</time>
      </trkpt>
      <trkpt lat="44.42365" lon="1.82845">
        <ele>343</ele>
        <time>2022-04-10T12:51:50Z</time>
      </trkpt>
      <trkpt lat="44.42363" lon="1.82835">
        <ele>342.7</ele>
        <time>2022-04-10T12:51:51Z</time>
      </trkpt>
      <trkpt lat="44.42361" lon="1.82826">
        <ele>342.3</ele>
        <time>2022-04-10T12:51:52Z</time>
      </trkpt>
      <trkpt lat="44.42359" lon="1.82816">
        <ele>341.8</ele>
        <time>2022-04-10T12:51:53Z</time>
      </trkpt>
      <trkpt lat="44.42357" lon="1.82806">
        <ele>341.3</ele>
        <time>2022-04-10T12:51:54Z</time>
      </trkpt>
      <trkpt lat="44.42355" lon="1.82797">
        <ele>340.8</ele>
        <time>2022-04-10T12:51:55Z</time>
      </trkpt>
      <trkpt lat="44.42353" lon="1.82789">
        <ele>340.4</ele>
        <time>2022-04-10T12:51:56Z</time>
      </trkpt>
      <trkpt lat="44.42352" lon="1.82782">
        <ele>340</ele>
        <time>2022-04-10T12:51:57Z</time>
      </trkpt>
      <trkpt lat="44.42352" lon="1.82775">
        <ele>339.5</ele>
        <time>2022-04-10T12:51:58Z</time>
      </trkpt>
      <trkpt lat="44.42352" lon="1.82767">
        <ele>339</ele>
        <time>2022-04-10T12:51:59Z</time>
      </trkpt>
      <trkpt lat="44.42352" lon="1.82758">
        <ele>338.3</ele>
        <time>2022-04-10T12:52:00Z</time>
      </trkpt>
      <trkpt lat="44.42353" lon="1.82749">
        <ele>337.7</ele>
        <time>2022-04-10T12:52:01Z</time>
      </trkpt>
      <trkpt lat="44.42355" lon="1.82739">
        <ele>337</ele>
        <time>2022-04-10T12:52:02Z</time>
      </trkpt>
      <trkpt lat="44.42358" lon="1.82728">
        <ele>336.2</ele>
        <time>2022-04-10T12:52:03Z</time>
      </trkpt>
      <trkpt lat="44.42361" lon="1.82717">
        <ele>335.5</ele>
        <time>2022-04-10T12:52:04Z</time>
      </trkpt>
      <trkpt lat="44.42363" lon="1.82708">
        <ele>335</ele>
        <time>2022-04-10T12:52:05Z</time>
      </trkpt>
      <trkpt lat="44.42365" lon="1.82703">
        <ele>334.7</ele>
        <time>2022-04-10T12:52:06Z</time>
      </trkpt>
      <trkpt lat="44.42366" lon="1.82699">
        <ele>334.4</ele>
        <time>2022-04-10T12:52:07Z</time>
      </trkpt>
      <trkpt lat="44.42367" lon="1.82698">
        <ele>334.4</ele>
        <time>2022-04-10T12:52:08Z</time>
      </trkpt>
      <trkpt lat="44.42368" lon="1.82694">
        <ele>334.1</ele>
        <time>2022-04-10T12:52:09Z</time>
      </trkpt>
      <trkpt lat="44.4237" lon="1.82689">
        <ele>333.8</ele>
        <time>2022-04-10T12:52:10Z</time>
      </trkpt>
      <trkpt lat="44.42371" lon="1.82683">
        <ele>333.5</ele>
        <time>2022-04-10T12:52:11Z</time>
      </trkpt>
      <trkpt lat="44.42372" lon="1.82676">
        <ele>333.1</ele>
        <time>2022-04-10T12:52:12Z</time>
      </trkpt>
      <trkpt lat="44.42373" lon="1.82669">
        <ele>332.6</ele>
        <time>2022-04-10T12:52:13Z</time>
      </trkpt>
      <trkpt lat="44.42374" lon="1.82661">
        <ele>332.1</ele>
        <time>2022-04-10T12:52:14Z</time>
      </trkpt>
      <trkpt lat="44.42376" lon="1.82653">
        <ele>331.6</ele>
        <time>2022-04-10T12:52:15Z</time>
      </trkpt>
      <trkpt lat="44.4238" lon="1.82645">
        <ele>331</ele>
        <time>2022-04-10T12:52:16Z</time>
      </trkpt>
      <trkpt lat="44.42385" lon="1.82636">
        <ele>330.3</ele>
        <time>2022-04-10T12:52:17Z</time>
      </trkpt>
      <trkpt lat="44.4239" lon="1.82627">
        <ele>329.6</ele>
        <time>2022-04-10T12:52:18Z</time>
      </trkpt>
      <trkpt lat="44.42393" lon="1.82618">
        <ele>329</ele>
        <time>2022-04-10T12:52:19Z</time>
      </trkpt>
      <trkpt lat="44.42395" lon="1.82607">
        <ele>328.4</ele>
        <time>2022-04-10T12:52:20Z</time>
      </trkpt>
      <trkpt lat="44.42395" lon="1.82596">
        <ele>327.8</ele>
        <time>2022-04-10T12:52:21Z</time>
      </trkpt>
      <trkpt lat="44.42394" lon="1.82585">
        <ele>327.1</ele>
        <time>2022-04-10T12:52:22Z</time>
      </trkpt>
      <trkpt lat="44.42393" lon="1.82575">
        <ele>326.4</ele>
        <time>2022-04-10T12:52:23Z</time>
      </trkpt>
      <trkpt lat="44.42392" lon="1.82566">
        <ele>325.7</ele>
        <time>2022-04-10T12:52:24Z</time>
      </trkpt>
      <trkpt lat="44.42391" lon="1.82555">
        <ele>324.9</ele>
        <time>2022-04-10T12:52:25Z</time>
      </trkpt>
      <trkpt lat="44.42391" lon="1.82545">
        <ele>324.1</ele>
        <time>2022-04-10T12:52:26Z</time>
      </trkpt>
      <trkpt lat="44.42391" lon="1.82534">
        <ele>323.4</ele>
        <time>2022-04-10T12:52:27Z</time>
      </trkpt>
      <trkpt lat="44.42392" lon="1.82524">
        <ele>322.7</ele>
        <time>2022-04-10T12:52:28Z</time>
      </trkpt>
      <trkpt lat="44.42392" lon="1.82513">
        <ele>322</ele>
        <time>2022-04-10T12:52:29Z</time>
      </trkpt>
      <trkpt lat="44.42393" lon="1.82502">
        <ele>321.3</ele>
        <time>2022-04-10T12:52:30Z</time>
      </trkpt>
      <trkpt lat="44.42394" lon="1.82491">
        <ele>320.5</ele>
        <time>2022-04-10T12:52:31Z</time>
      </trkpt>
      <trkpt lat="44.42396" lon="1.8248">
        <ele>319.8</ele>
        <time>2022-04-10T12:52:32Z</time>
      </trkpt>
      <trkpt lat="44.42397" lon="1.82468">
        <ele>319</ele>
        <time>2022-04-10T12:52:33Z</time>
      </trkpt>
      <trkpt lat="44.42397" lon="1.82455">
        <ele>318.2</ele>
        <time>2022-04-10T12:52:34Z</time>
      </trkpt>
      <trkpt lat="44.42399" lon="1.82443">
        <ele>317.5</ele>
        <time>2022-04-10T12:52:35Z</time>
      </trkpt>
      <trkpt lat="44.42399" lon="1.8243">
        <ele>316.8</ele>
        <time>2022-04-10T12:52:36Z</time>
      </trkpt>
      <trkpt lat="44.424" lon="1.82417">
        <ele>316.2</ele>
        <time>2022-04-10T12:52:37Z</time>
      </trkpt>
      <trkpt lat="44.424" lon="1.82404">
        <ele>315.6</ele>
        <time>2022-04-10T12:52:38Z</time>
      </trkpt>
      <trkpt lat="44.424" lon="1.82392">
        <ele>315</ele>
        <time>2022-04-10T12:52:39Z</time>
      </trkpt>
      <trkpt lat="44.424" lon="1.8238">
        <ele>314.5</ele>
        <time>2022-04-10T12:52:40Z</time>
      </trkpt>
      <trkpt lat="44.42399" lon="1.82372">
        <ele>314.2</ele>
        <time>2022-04-10T12:52:41Z</time>
      </trkpt>
      <trkpt lat="44.42399" lon="1.8237">
        <ele>314.1</ele>
        <time>2022-04-10T12:52:42Z</time>
      </trkpt>
      <trkpt lat="44.42399" lon="1.8237">
        <ele>314.1</ele>
        <time>2022-04-10T12:52:43Z</time>
      </trkpt>
      <trkpt lat="44.42399" lon="1.8237">
        <ele>314.1</ele>
        <time>2022-04-10T12:52:44Z</time>
      </trkpt>
      <trkpt lat="44.42399" lon="1.8237">
        <ele>314.1</ele>
        <time>2022-04-10T12:52:45Z</time>
      </trkpt>
      <trkpt lat="44.42399" lon="1.8237">
        <ele>314.1</ele>
        <time>2022-04-10T12:52:46Z</time>
      </trkpt>
      <trkpt lat="44.42399" lon="1.8237">
        <ele>314.1</ele>
        <time>2022-04-10T12:52:47Z</time>
      </trkpt>
      <trkpt lat="44.42399" lon="1.8237">
        <ele>314.1</ele>
        <time>2022-04-10T12:52:48Z</time>
      </trkpt>
      <trkpt lat="44.42399" lon="1.8237">
        <ele>314.1</ele>
        <time>2022-04-10T12:52:49Z</time>
      </trkpt>
      <trkpt lat="44.42399" lon="1.8237">
        <ele>314.1</ele>
        <time>2022-04-10T12:52:50Z</time>
      </trkpt>
      <trkpt lat="44.42399" lon="1.8237">
        <ele>314.1</ele>
        <time>2022-04-10T12:52:51Z</time>
      </trkpt>
      <trkpt lat="44.42399" lon="1.8237">
        <ele>314.1</ele>
        <time>2022-04-10T12:52:52Z</time>
      </trkpt>
      <trkpt lat="44.42399" lon="1.8237">
        <ele>314.1</ele>
        <time>2022-04-10T12:55:21Z</time>
      </trkpt>
      <trkpt lat="44.42399" lon="1.8237">
        <ele>314.1</ele>
        <time>2022-04-10T12:55:22Z</time>
      </trkpt>
      <trkpt lat="44.42399" lon="1.8237">
        <ele>314.1</ele>
        <time>2022-04-10T12:55:23Z</time>
      </trkpt>
      <trkpt lat="44.42399" lon="1.8237">
        <ele>314.1</ele>
        <time>2022-04-10T12:55:24Z</time>
      </trkpt>
      <trkpt lat="44.42399" lon="1.8237">
        <ele>314.1</ele>
        <time>2022-04-10T12:55:25Z</time>
      </trkpt>
      <trkpt lat="44.42399" lon="1.8237">
        <ele>314.1</ele>
        <time>2022-04-10T12:55:26Z</time>
      </trkpt>
      <trkpt lat="44.42399" lon="1.8237">
        <ele>314.1</ele>
        <time>2022-04-10T12:55:27Z</time>
      </trkpt>
      <trkpt lat="44.42399" lon="1.8237">
        <ele>314.1</ele>
        <time>2022-04-10T12:55:28Z</time>
      </trkpt>
      <trkpt lat="44.42399" lon="1.8237">
        <ele>314.1</ele>
        <time>2022-04-10T12:55:29Z</time>
      </trkpt>
      <trkpt lat="44.42399" lon="1.8237">
        <ele>314.1</ele>
        <time>2022-04-10T12:55:30Z</time>
      </trkpt>
      <trkpt lat="44.42399" lon="1.8237">
        <ele>314.1</ele>
        <time>2022-04-10T12:55:31Z</time>
      </trkpt>
      <trkpt lat="44.42399" lon="1.8237">
        <ele>314</ele>
        <time>2022-04-10T12:55:32Z</time>
      </trkpt>
      <trkpt lat="44.42399" lon="1.8237">
        <ele>314</ele>
        <time>2022-04-10T12:55:33Z</time>
      </trkpt>
      <trkpt lat="44.42399" lon="1.8237">
        <ele>314</ele>
        <time>2022-04-10T12:55:34Z</time>
      </trkpt>
      <trkpt lat="44.42399" lon="1.8237">
        <ele>314</ele>
        <time>2022-04-10T12:55:35Z</time>
      </trkpt>
      <trkpt lat="44.42399" lon="1.8237">
        <ele>314</ele>
        <time>2022-04-10T12:55:36Z</time>
      </trkpt>
      <trkpt lat="44.42399" lon="1.8237">
        <ele>314</ele>
        <time>2022-04-10T12:55:37Z</time>
      </trkpt>
      <trkpt lat="44.42399" lon="1.8237">
        <ele>314</ele>
        <time>2022-04-10T12:55:38Z</time>
      </trkpt>
      <trkpt lat="44.42399" lon="1.8237">
        <ele>314</ele>
        <time>2022-04-10T12:55:39Z</time>
      </trkpt>
      <trkpt lat="44.42399" lon="1.8237">
        <ele>314</ele>
        <time>2022-04-10T12:55:40Z</time>
      </trkpt>
      <trkpt lat="44.42399" lon="1.82369">
        <ele>314</ele>
        <time>2022-04-10T12:55:41Z</time>
      </trkpt>
      <trkpt lat="44.42399" lon="1.82369">
        <ele>314</ele>
        <time>2022-04-10T12:55:42Z</time>
      </trkpt>
      <trkpt lat="44.42399" lon="1.82369">
        <ele>314</ele>
        <time>2022-04-10T12:55:43Z</time>
      </trkpt>
      <trkpt lat="44.42399" lon="1.82369">
        <ele>314</ele>
        <time>2022-04-10T12:55:44Z</time>
      </trkpt>
      <trkpt lat="44.42399" lon="1.82369">
        <ele>314</ele>
        <time>2022-04-10T12:55:45Z</time>
      </trkpt>
      <trkpt lat="44.42399" lon="1.82369">
        <ele>314</ele>
        <time>2022-04-10T12:55:46Z</time>
      </trkpt>
      <trkpt lat="44.42399" lon="1.82369">
        <ele>314</ele>
        <time>2022-04-10T12:55:47Z</time>
      </trkpt>
      <trkpt lat="44.42399" lon="1.82369">
        <ele>314</ele>
        <time>2022-04-10T12:55:48Z</time>
      </trkpt>
      <trkpt lat="44.42399" lon="1.82369">
        <ele>314</ele>
        <time>2022-04-10T12:55:49Z</time>
      </trkpt>
      <trkpt lat="44.42399" lon="1.82369">
        <ele>314</ele>
        <time>2022-04-10T12:55:50Z</time>
      </trkpt>
      <trkpt lat="44.42399" lon="1.82369">
        <ele>314</ele>
        <time>2022-04-10T12:55:51Z</time>
      </trkpt>
      <trkpt lat="44.42399" lon="1.82369">
        <ele>314</ele>
        <time>2022-04-10T12:55:52Z</time>
      </trkpt>
      <trkpt lat="44.42399" lon="1.82369">
        <ele>314</ele>
        <time>2022-04-10T12:55:53Z</time>
      </trkpt>
      <trkpt lat="44.42399" lon="1.82369">
        <ele>314</ele>
        <time>2022-04-10T12:55:54Z</time>
      </trkpt>
      <trkpt lat="44.42399" lon="1.82369">
        <ele>314</ele>
        <time>2022-04-10T12:55:55Z</time>
      </trkpt>
      <trkpt lat="44.42399" lon="1.82369">
        <ele>314</ele>
        <time>2022-04-10T12:55:56Z</time>
      </trkpt>
      <trkpt lat="44.42399" lon="1.82369">
        <ele>314</ele>
        <time>2022-04-10T12:55:57Z</time>
      </trkpt>
      <trkpt lat="44.42399" lon="1.82369">
        <ele>314</ele>
        <time>2022-04-10T12:55:58Z</time>
      </trkpt>
      <trkpt lat="44.42399" lon="1.82369">
        <ele>314</ele>
        <time>2022-04-10T12:55:59Z</time>
      </trkpt>
      <trkpt lat="44.42399" lon="1.82369">
        <ele>314</ele>
        <time>2022-04-10T12:56:00Z</time>
      </trkpt>
      <trkpt lat="44.42399" lon="1.82369">
        <ele>314</ele>
        <time>2022-04-10T12:56:01Z</time>
      </trkpt>
      <trkpt lat="44.42399" lon="1.82369">
        <ele>314</ele>
        <time>2022-04-10T12:56:02Z</time>
      </trkpt>
      <trkpt lat="44.42399" lon="1.82369">
        <ele>314</ele>
        <time>2022-04-10T12:56:03Z</time>
      </trkpt>
      <trkpt lat="44.42399" lon="1.82369">
        <ele>314</ele>
        <time>2022-04-10T12:56:04Z</time>
      </trkpt>
      <trkpt lat="44.42399" lon="1.82369">
        <ele>314</ele>
        <time>2022-04-10T12:56:05Z</time>
      </trkpt>
      <trkpt lat="44.42399" lon="1.82369">
        <ele>314</ele>
        <time>2022-04-10T12:56:06Z</time>
      </trkpt>
      <trkpt lat="44.42399" lon="1.82369">
        <ele>314</ele>
        <time>2022-04-10T12:56:07Z</time>
      </trkpt>
      <trkpt lat="44.42399" lon="1.82369">
        <ele>314</ele>
        <time>2022-04-10T12:56:08Z</time>
      </trkpt>
      <trkpt lat="44.42399" lon="1.82369">
        <ele>314</ele>
        <time>2022-04-10T12:56:09Z</time>
      </trkpt>
      <trkpt lat="44.42399" lon="1.82369">
        <ele>314</ele>
        <time>2022-04-10T12:56:10Z</time>
      </trkpt>
      <trkpt lat="44.42399" lon="1.82369">
        <ele>314</ele>
        <time>2022-04-10T12:56:11Z</time>
      </trkpt>
      <trkpt lat="44.42399" lon="1.82369">
        <ele>314</ele>
        <time>2022-04-10T12:56:12Z</time>
      </trkpt>
      <trkpt lat="44.42399" lon="1.82369">
        <ele>314</ele>
        <time>2022-04-10T12:56:13Z</time>
      </trkpt>
      <trkpt lat="44.42399" lon="1.82369">
        <ele>314</ele>
        <time>2022-04-10T12:56:14Z</time>
      </trkpt>
      <trkpt lat="44.42399" lon="1.82369">
        <ele>314</ele>
        <time>2022-04-10T12:56:15Z</time>
      </trkpt>
      <trkpt lat="44.42399" lon="1.82369">
        <ele>314</ele>
        <time>2022-04-10T12:56:16Z</time>
      </trkpt>
      <trkpt lat="44.42399" lon="1.82369">
        <ele>314</ele>
        <time>2022-04-10T12:56:17Z</time>
      </trkpt>
      <trkpt lat="44.42399" lon="1.82369">
        <ele>314</ele>
        <time>2022-04-10T12:56:18Z</time>
      </trkpt>
      <trkpt lat="44.42399" lon="1.82369">
        <ele>314</ele>
        <time>2022-04-10T12:56:19Z</time>
      </trkpt>
      <trkpt lat="44.42399" lon="1.82369">
        <ele>314</ele>
        <time>2022-04-10T12:56:20Z</time>
      </trkpt>
      <trkpt lat="44.42399" lon="1.82369">
        <ele>314</ele>
        <time>2022-04-10T12:56:21Z</time>
      </trkpt>
      <trkpt lat="44.42399" lon="1.82369">
        <ele>314</ele>
        <time>2022-04-10T12:56:22Z</time>
      </trkpt>
      <trkpt lat="44.42399" lon="1.82369">
        <ele>314</ele>
        <time>2022-04-10T12:56:23Z</time>
      </trkpt>
      <trkpt lat="44.42399" lon="1.82369">
        <ele>314</ele>
        <time>2022-04-10T12:56:24Z</time>
      </trkpt>
      <trkpt lat="44.42399" lon="1.82369">
        <ele>314</ele>
        <time>2022-04-10T12:56:25Z</time>
      </trkpt>
      <trkpt lat="44.42399" lon="1.82369">
        <ele>314</ele>
        <time>2022-04-10T12:56:26Z</time>
      </trkpt>
      <trkpt lat="44.42399" lon="1.82369">
        <ele>314</ele>
        <time>2022-04-10T12:56:27Z</time>
      </trkpt>
      <trkpt lat="44.42399" lon="1.82369">
        <ele>314</ele>
        <time>2022-04-10T12:56:28Z</time>
      </trkpt>
      <trkpt lat="44.42399" lon="1.82369">
        <ele>314</ele>
        <time>2022-04-10T12:56:29Z</time>
      </trkpt>
      <trkpt lat="44.424" lon="1.82369">
        <ele>314</ele>
        <time>2022-04-10T12:56:30Z</time>
      </trkpt>
      <trkpt lat="44.424" lon="1.82369">
        <ele>314</ele>
        <time>2022-04-10T12:56:31Z</time>
      </trkpt>
      <trkpt lat="44.424" lon="1.82369">
        <ele>314</ele>
        <time>2022-04-10T12:56:32Z</time>
      </trkpt>
      <trkpt lat="44.424" lon="1.82369">
        <ele>314</ele>
        <time>2022-04-10T12:56:33Z</time>
      </trkpt>
      <trkpt lat="44.424" lon="1.82369">
        <ele>314</ele>
        <time>2022-04-10T12:56:34Z</time>
      </trkpt>
      <trkpt lat="44.424" lon="1.82369">
        <ele>314</ele>
        <time>2022-04-10T12:56:35Z</time>
      </trkpt>
      <trkpt lat="44.424" lon="1.82369">
        <ele>314</ele>
        <time>2022-04-10T12:56:36Z</time>
      </trkpt>
      <trkpt lat="44.424" lon="1.82369">
        <ele>314</ele>
        <time>2022-04-10T12:56:37Z</time>
      </trkpt>
      <trkpt lat="44.424" lon="1.82369">
        <ele>314</ele>
        <time>2022-04-10T12:56:38Z</time>
      </trkpt>
      <trkpt lat="44.424" lon="1.82369">
        <ele>314</ele>
        <time>2022-04-10T12:56:39Z</time>
      </trkpt>
      <trkpt lat="44.424" lon="1.82369">
        <ele>314</ele>
        <time>2022-04-10T12:56:40Z</time>
      </trkpt>
      <trkpt lat="44.424" lon="1.82369">
        <ele>314</ele>
        <time>2022-04-10T12:56:41Z</time>
      </trkpt>
      <trkpt lat="44.424" lon="1.82369">
        <ele>314</ele>
        <time>2022-04-10T12:56:42Z</time>
      </trkpt>
      <trkpt lat="44.424" lon="1.82369">
        <ele>314</ele>
        <time>2022-04-10T12:56:43Z</time>
      </trkpt>
      <trkpt lat="44.424" lon="1.82369">
        <ele>314</ele>
        <time>2022-04-10T12:56:44Z</time>
      </trkpt>
      <trkpt lat="44.424" lon="1.82369">
        <ele>314</ele>
        <time>2022-04-10T12:56:45Z</time>
      </trkpt>
      <trkpt lat="44.424" lon="1.82369">
        <ele>314</ele>
        <time>2022-04-10T12:56:46Z</time>
      </trkpt>
      <trkpt lat="44.424" lon="1.82369">
        <ele>314</ele>
        <time>2022-04-10T12:56:47Z</time>
      </trkpt>
      <trkpt lat="44.424" lon="1.82369">
        <ele>314</ele>
        <time>2022-04-10T12:56:48Z</time>
      </trkpt>
      <trkpt lat="44.424" lon="1.82369">
        <ele>314</ele>
        <time>2022-04-10T12:56:49Z</time>
      </trkpt>
      <trkpt lat="44.424" lon="1.82369">
        <ele>314</ele>
        <time>2022-04-10T12:56:50Z</time>
      </trkpt>
      <trkpt lat="44.424" lon="1.82369">
        <ele>314</ele>
        <time>2022-04-10T12:56:51Z</time>
      </trkpt>
      <trkpt lat="44.424" lon="1.82369">
        <ele>314</ele>
        <time>2022-04-10T12:56:52Z</time>
      </trkpt>
      <trkpt lat="44.424" lon="1.82369">
        <ele>314</ele>
        <time>2022-04-10T12:56:53Z</time>
      </trkpt>
      <trkpt lat="44.424" lon="1.82369">
        <ele>314</ele>
        <time>2022-04-10T12:56:54Z</time>
      </trkpt>
      <trkpt lat="44.424" lon="1.82369">
        <ele>314</ele>
        <time>2022-04-10T12:56:55Z</time>
      </trkpt>
      <trkpt lat="44.424" lon="1.82369">
        <ele>314</ele>
        <time>2022-04-10T12:56:56Z</time>
      </trkpt>
      <trkpt lat="44.424" lon="1.82369">
        <ele>314</ele>
        <time>2022-04-10T12:56:57Z</time>
      </trkpt>
      <trkpt lat="44.424" lon="1.82369">
        <ele>314</ele>
        <time>2022-04-10T12:56:58Z</time>
      </trkpt>
      <trkpt lat="44.424" lon="1.82369">
        <ele>314</ele>
        <time>2022-04-10T12:56:59Z</time>
      </trkpt>
      <trkpt lat="44.424" lon="1.82369">
        <ele>314</ele>
        <time>2022-04-10T12:57:00Z</time>
      </trkpt>
      <trkpt lat="44.424" lon="1.82369">
        <ele>314</ele>
        <time>2022-04-10T12:57:01Z</time>
      </trkpt>
      <trkpt lat="44.424" lon="1.82369">
        <ele>314</ele>
        <time>2022-04-10T12:57:02Z</time>
      </trkpt>
      <trkpt lat="44.424" lon="1.82369">
        <ele>314</ele>
        <time>2022-04-10T12:57:03Z</time>
      </trkpt>
      <trkpt lat="44.424" lon="1.82369">
        <ele>314</ele>
        <time>2022-04-10T12:57:04Z</time>
      </trkpt>
      <trkpt lat="44.424" lon="1.82369">
        <ele>314</ele>
        <time>2022-04-10T12:57:05Z</time>
      </trkpt>
      <trkpt lat="44.424" lon="1.82369">
        <ele>314</ele>
        <time>2022-04-10T12:57:06Z</time>
      </trkpt>
      <trkpt lat="44.424" lon="1.82369">
        <ele>314</ele>
        <time>2022-04-10T12:57:07Z</time>
      </trkpt>
      <trkpt lat="44.424" lon="1.82369">
        <ele>314</ele>
        <time>2022-04-10T12:57:08Z</time>
      </trkpt>
      <trkpt lat="44.424" lon="1.82369">
        <ele>314</ele>
        <time>2022-04-10T12:57:09Z</time>
      </trkpt>
      <trkpt lat="44.424" lon="1.82369">
        <ele>314</ele>
        <time>2022-04-10T12:57:10Z</time>
      </trkpt>
      <trkpt lat="44.424" lon="1.82369">
        <ele>314</ele>
        <time>2022-04-10T12:57:11Z</time>
      </trkpt>
      <trkpt lat="44.424" lon="1.82369">
        <ele>314</ele>
        <time>2022-04-10T12:57:12Z</time>
      </trkpt>
      <trkpt lat="44.424" lon="1.82369">
        <ele>314</ele>
        <time>2022-04-10T12:57:13Z</time>
      </trkpt>
      <trkpt lat="44.424" lon="1.82369">
        <ele>314</ele>
        <time>2022-04-10T12:57:14Z</time>
      </trkpt>
      <trkpt lat="44.424" lon="1.82368">
        <ele>314</ele>
        <time>2022-04-10T12:57:15Z</time>
      </trkpt>
      <trkpt lat="44.424" lon="1.82368">
        <ele>314</ele>
        <time>2022-04-10T12:57:16Z</time>
      </trkpt>
      <trkpt lat="44.424" lon="1.82368">
        <ele>314</ele>
        <time>2022-04-10T12:57:17Z</time>
      </trkpt>
      <trkpt lat="44.424" lon="1.82368">
        <ele>314</ele>
        <time>2022-04-10T12:57:18Z</time>
      </trkpt>
      <trkpt lat="44.424" lon="1.82368">
        <ele>314</ele>
        <time>2022-04-10T12:57:19Z</time>
      </trkpt>
      <trkpt lat="44.424" lon="1.82368">
        <ele>314</ele>
        <time>2022-04-10T12:57:20Z</time>
      </trkpt>
      <trkpt lat="44.424" lon="1.82368">
        <ele>314</ele>
        <time>2022-04-10T12:57:21Z</time>
      </trkpt>
      <trkpt lat="44.424" lon="1.82368">
        <ele>314</ele>
        <time>2022-04-10T12:57:22Z</time>
      </trkpt>
      <trkpt lat="44.424" lon="1.82368">
        <ele>314</ele>
        <time>2022-04-10T12:57:23Z</time>
      </trkpt>
      <trkpt lat="44.424" lon="1.82368">
        <ele>314</ele>
        <time>2022-04-10T12:57:24Z</time>
      </trkpt>
      <trkpt lat="44.424" lon="1.82368">
        <ele>314</ele>
        <time>2022-04-10T12:57:25Z</time>
      </trkpt>
      <trkpt lat="44.424" lon="1.82368">
        <ele>314</ele>
        <time>2022-04-10T12:57:26Z</time>
      </trkpt>
      <trkpt lat="44.424" lon="1.82368">
        <ele>314</ele>
        <time>2022-04-10T12:57:27Z</time>
      </trkpt>
      <trkpt lat="44.424" lon="1.82368">
        <ele>314</ele>
        <time>2022-04-10T12:57:28Z</time>
      </trkpt>
      <trkpt lat="44.424" lon="1.82368">
        <ele>314</ele>
        <time>2022-04-10T12:57:29Z</time>
      </trkpt>
      <trkpt lat="44.424" lon="1.82368">
        <ele>314</ele>
        <time>2022-04-10T12:57:30Z</time>
      </trkpt>
      <trkpt lat="44.424" lon="1.82368">
        <ele>314</ele>
        <time>2022-04-10T12:57:31Z</time>
      </trkpt>
      <trkpt lat="44.424" lon="1.82368">
        <ele>314</ele>
        <time>2022-04-10T12:57:32Z</time>
      </trkpt>
      <trkpt lat="44.424" lon="1.82368">
        <ele>314</ele>
        <time>2022-04-10T12:57:33Z</time>
      </trkpt>
      <trkpt lat="44.424" lon="1.82368">
        <ele>313.9</ele>
        <time>2022-04-10T12:57:34Z</time>
      </trkpt>
      <trkpt lat="44.424" lon="1.82368">
        <ele>313.9</ele>
        <time>2022-04-10T12:57:35Z</time>
      </trkpt>
      <trkpt lat="44.424" lon="1.82368">
        <ele>313.9</ele>
        <time>2022-04-10T12:57:36Z</time>
      </trkpt>
      <trkpt lat="44.424" lon="1.82368">
        <ele>313.9</ele>
        <time>2022-04-10T12:57:37Z</time>
      </trkpt>
      <trkpt lat="44.424" lon="1.82368">
        <ele>313.9</ele>
        <time>2022-04-10T12:57:38Z</time>
      </trkpt>
      <trkpt lat="44.424" lon="1.82368">
        <ele>313.9</ele>
        <time>2022-04-10T12:57:39Z</time>
      </trkpt>
      <trkpt lat="44.424" lon="1.82368">
        <ele>313.9</ele>
        <time>2022-04-10T12:57:40Z</time>
      </trkpt>
      <trkpt lat="44.424" lon="1.82368">
        <ele>313.9</ele>
        <time>2022-04-10T12:57:41Z</time>
      </trkpt>
      <trkpt lat="44.424" lon="1.82368">
        <ele>313.9</ele>
        <time>2022-04-10T12:57:42Z</time>
      </trkpt>
      <trkpt lat="44.424" lon="1.82368">
        <ele>313.9</ele>
        <time>2022-04-10T12:57:43Z</time>
      </trkpt>
      <trkpt lat="44.424" lon="1.82368">
        <ele>313.9</ele>
        <time>2022-04-10T12:57:44Z</time>
      </trkpt>
      <trkpt lat="44.424" lon="1.82368">
        <ele>313.9</ele>
        <time>2022-04-10T12:57:45Z</time>
      </trkpt>
      <trkpt lat="44.424" lon="1.82368">
        <ele>313.9</ele>
        <time>2022-04-10T12:57:46Z</time>
      </trkpt>
      <trkpt lat="44.424" lon="1.82368">
        <ele>313.9</ele>
        <time>2022-04-10T12:57:47Z</time>
      </trkpt>
      <trkpt lat="44.424" lon="1.82368">
        <ele>313.9</ele>
        <time>2022-04-10T12:57:48Z</time>
      </trkpt>
      <trkpt lat="44.424" lon="1.82368">
        <ele>313.9</ele>
        <time>2022-04-10T12:57:49Z</time>
      </trkpt>
      <trkpt lat="44.424" lon="1.82368">
        <ele>313.9</ele>
        <time>2022-04-10T12:57:50Z</time>
      </trkpt>
      <trkpt lat="44.424" lon="1.82368">
        <ele>313.9</ele>
        <time>2022-04-10T12:57:51Z</time>
      </trkpt>
      <trkpt lat="44.424" lon="1.82368">
        <ele>313.9</ele>
        <time>2022-04-10T12:57:52Z</time>
      </trkpt>
      <trkpt lat="44.424" lon="1.82368">
        <ele>313.9</ele>
        <time>2022-04-10T12:57:53Z</time>
      </trkpt>
      <trkpt lat="44.424" lon="1.82368">
        <ele>313.9</ele>
        <time>2022-04-10T12:57:54Z</time>
      </trkpt>
      <trkpt lat="44.424" lon="1.82368">
        <ele>313.9</ele>
        <time>2022-04-10T12:57:55Z</time>
      </trkpt>
      <trkpt lat="44.424" lon="1.82368">
        <ele>313.9</ele>
        <time>2022-04-10T12:57:56Z</time>
      </trkpt>
      <trkpt lat="44.424" lon="1.82368">
        <ele>313.9</ele>
        <time>2022-04-10T12:57:57Z</time>
      </trkpt>
      <trkpt lat="44.424" lon="1.82368">
        <ele>313.9</ele>
        <time>2022-04-10T12:57:58Z</time>
      </trkpt>
      <trkpt lat="44.424" lon="1.82368">
        <ele>313.9</ele>
        <time>2022-04-10T12:57:59Z</time>
      </trkpt>
      <trkpt lat="44.424" lon="1.82368">
        <ele>313.9</ele>
        <time>2022-04-10T12:58:00Z</time>
      </trkpt>
      <trkpt lat="44.424" lon="1.82368">
        <ele>313.9</ele>
        <time>2022-04-10T12:58:01Z</time>
      </trkpt>
      <trkpt lat="44.424" lon="1.82368">
        <ele>313.9</ele>
        <time>2022-04-10T12:58:02Z</time>
      </trkpt>
      <trkpt lat="44.424" lon="1.82368">
        <ele>313.9</ele>
        <time>2022-04-10T12:58:03Z</time>
      </trkpt>
      <trkpt lat="44.424" lon="1.82368">
        <ele>313.9</ele>
        <time>2022-04-10T12:58:04Z</time>
      </trkpt>
      <trkpt lat="44.424" lon="1.82368">
        <ele>313.9</ele>
        <time>2022-04-10T12:58:05Z</time>
      </trkpt>
      <trkpt lat="44.424" lon="1.82368">
        <ele>313.9</ele>
        <time>2022-04-10T12:58:06Z</time>
      </trkpt>
      <trkpt lat="44.424" lon="1.82368">
        <ele>313.9</ele>
        <time>2022-04-10T12:58:07Z</time>
      </trkpt>
      <trkpt lat="44.424" lon="1.82368">
        <ele>313.9</ele>
        <time>2022-04-10T12:58:08Z</time>
      </trkpt>
      <trkpt lat="44.424" lon="1.82368">
        <ele>313.9</ele>
        <time>2022-04-10T12:58:09Z</time>
      </trkpt>
      <trkpt lat="44.424" lon="1.82368">
        <ele>313.9</ele>
        <time>2022-04-10T12:58:10Z</time>
      </trkpt>
      <trkpt lat="44.424" lon="1.82368">
        <ele>313.9</ele>
        <time>2022-04-10T12:58:11Z</time>
      </trkpt>
      <trkpt lat="44.424" lon="1.82368">
        <ele>313.9</ele>
        <time>2022-04-10T12:58:12Z</time>
      </trkpt>
      <trkpt lat="44.424" lon="1.82368">
        <ele>313.9</ele>
        <time>2022-04-10T12:58:13Z</time>
      </trkpt>
      <trkpt lat="44.424" lon="1.82368">
        <ele>313.9</ele>
        <time>2022-04-10T12:58:14Z</time>
      </trkpt>
      <trkpt lat="44.424" lon="1.82368">
        <ele>313.9</ele>
        <time>2022-04-10T12:58:15Z</time>
      </trkpt>
      <trkpt lat="44.424" lon="1.82368">
        <ele>313.9</ele>
        <time>2022-04-10T12:58:16Z</time>
      </trkpt>
      <trkpt lat="44.424" lon="1.82368">
        <ele>313.9</ele>
        <time>2022-04-10T12:58:18Z</time>
      </trkpt>
      <trkpt lat="44.424" lon="1.82368">
        <ele>313.9</ele>
        <time>2022-04-10T12:58:19Z</time>
      </trkpt>
      <trkpt lat="44.424" lon="1.82368">
        <ele>313.9</ele>
        <time>2022-04-10T12:58:20Z</time>
      </trkpt>
      <trkpt lat="44.424" lon="1.82368">
        <ele>313.9</ele>
        <time>2022-04-10T12:58:21Z</time>
      </trkpt>
      <trkpt lat="44.424" lon="1.82368">
        <ele>313.9</ele>
        <time>2022-04-10T12:58:22Z</time>
      </trkpt>
      <trkpt lat="44.424" lon="1.82368">
        <ele>313.9</ele>
        <time>2022-04-10T12:58:23Z</time>
      </trkpt>
      <trkpt lat="44.424" lon="1.82368">
        <ele>313.9</ele>
        <time>2022-04-10T12:58:24Z</time>
      </trkpt>
      <trkpt lat="44.424" lon="1.82368">
        <ele>313.9</ele>
        <time>2022-04-10T12:58:25Z</time>
      </trkpt>
      <trkpt lat="44.424" lon="1.82368">
        <ele>313.9</ele>
        <time>2022-04-10T12:58:26Z</time>
      </trkpt>
      <trkpt lat="44.424" lon="1.82368">
        <ele>313.9</ele>
        <time>2022-04-10T12:58:27Z</time>
      </trkpt>
      <trkpt lat="44.424" lon="1.82368">
        <ele>313.9</ele>
        <time>2022-04-10T12:58:28Z</time>
      </trkpt>
      <trkpt lat="44.424" lon="1.82368">
        <ele>313.9</ele>
        <time>2022-04-10T12:58:29Z</time>
      </trkpt>
      <trkpt lat="44.424" lon="1.82368">
        <ele>313.9</ele>
        <time>2022-04-10T12:58:30Z</time>
      </trkpt>
      <trkpt lat="44.424" lon="1.82368">
        <ele>313.9</ele>
        <time>2022-04-10T12:58:31Z</time>
      </trkpt>
      <trkpt lat="44.424" lon="1.82368">
        <ele>313.9</ele>
        <time>2022-04-10T12:58:32Z</time>
      </trkpt>
      <trkpt lat="44.424" lon="1.82368">
        <ele>313.9</ele>
        <time>2022-04-10T12:58:33Z</time>
      </trkpt>
      <trkpt lat="44.424" lon="1.82368">
        <ele>313.9</ele>
        <time>2022-04-10T12:58:34Z</time>
      </trkpt>
      <trkpt lat="44.424" lon="1.82368">
        <ele>313.9</ele>
        <time>2022-04-10T12:58:35Z</time>
      </trkpt>
      <trkpt lat="44.424" lon="1.82368">
        <ele>313.9</ele>
        <time>2022-04-10T12:58:36Z</time>
      </trkpt>
      <trkpt lat="44.424" lon="1.82368">
        <ele>313.9</ele>
        <time>2022-04-10T12:58:37Z</time>
      </trkpt>
      <trkpt lat="44.424" lon="1.82368">
        <ele>313.9</ele>
        <time>2022-04-10T12:58:38Z</time>
      </trkpt>
      <trkpt lat="44.424" lon="1.82368">
        <ele>313.9</ele>
        <time>2022-04-10T12:58:39Z</time>
      </trkpt>
      <trkpt lat="44.42399" lon="1.82363">
        <ele>313.6</ele>
        <time>2022-04-10T12:58:40Z</time>
      </trkpt>
      <trkpt lat="44.42398" lon="1.82357">
        <ele>313.3</ele>
        <time>2022-04-10T12:58:41Z</time>
      </trkpt>
      <trkpt lat="44.42397" lon="1.82352">
        <ele>313</ele>
        <time>2022-04-10T12:58:42Z</time>
      </trkpt>
      <trkpt lat="44.42396" lon="1.82347">
        <ele>312.7</ele>
        <time>2022-04-10T12:58:43Z</time>
      </trkpt>
      <trkpt lat="44.42395" lon="1.82341">
        <ele>312.4</ele>
        <time>2022-04-10T12:58:44Z</time>
      </trkpt>
      <trkpt lat="44.42394" lon="1.82334">
        <ele>312</ele>
        <time>2022-04-10T12:58:45Z</time>
      </trkpt>
      <trkpt lat="44.42392" lon="1.82326">
        <ele>311.5</ele>
        <time>2022-04-10T12:58:46Z</time>
      </trkpt>
      <trkpt lat="44.42391" lon="1.8232">
        <ele>311.1</ele>
        <time>2022-04-10T12:58:47Z</time>
      </trkpt>
      <trkpt lat="44.4239" lon="1.82313">
        <ele>310.7</ele>
        <time>2022-04-10T12:58:48Z</time>
      </trkpt>
      <trkpt lat="44.42388" lon="1.82306">
        <ele>310.3</ele>
        <time>2022-04-10T12:58:49Z</time>
      </trkpt>
      <trkpt lat="44.42387" lon="1.823">
        <ele>309.9</ele>
        <time>2022-04-10T12:58:50Z</time>
      </trkpt>
      <trkpt lat="44.42386" lon="1.82294">
        <ele>309.6</ele>
        <time>2022-04-10T12:58:51Z</time>
      </trkpt>
      <trkpt lat="44.42385" lon="1.82289">
        <ele>309.3</ele>
        <time>2022-04-10T12:58:52Z</time>
      </trkpt>
      <trkpt lat="44.42385" lon="1.82284">
        <ele>308.9</ele>
        <time>2022-04-10T12:58:53Z</time>
      </trkpt>
      <trkpt lat="44.42385" lon="1.82283">
        <ele>308.9</ele>
        <time>2022-04-10T12:58:54Z</time>
      </trkpt>
      <trkpt lat="44.42385" lon="1.82282">
        <ele>308.8</ele>
        <time>2022-04-10T12:58:55Z</time>
      </trkpt>
      <trkpt lat="44.42385" lon="1.82282">
        <ele>308.8</ele>
        <time>2022-04-10T12:58:56Z</time>
      </trkpt>
      <trkpt lat="44.42385" lon="1.82282">
        <ele>308.7</ele>
        <time>2022-04-10T12:58:57Z</time>
      </trkpt>
      <trkpt lat="44.42385" lon="1.82282">
        <ele>308.7</ele>
        <time>2022-04-10T12:58:58Z</time>
      </trkpt>
      <trkpt lat="44.42386" lon="1.82282">
        <ele>308.7</ele>
        <time>2022-04-10T12:58:59Z</time>
      </trkpt>
      <trkpt lat="44.42386" lon="1.82282">
        <ele>308.7</ele>
        <time>2022-04-10T12:59:00Z</time>
      </trkpt>
      <trkpt lat="44.42386" lon="1.82283">
        <ele>308.7</ele>
        <time>2022-04-10T12:59:01Z</time>
      </trkpt>
      <trkpt lat="44.42386" lon="1.82283">
        <ele>308.7</ele>
        <time>2022-04-10T12:59:02Z</time>
      </trkpt>
      <trkpt lat="44.42386" lon="1.82283">
        <ele>308.7</ele>
        <time>2022-04-10T12:59:03Z</time>
      </trkpt>
      <trkpt lat="44.42386" lon="1.82283">
        <ele>308.7</ele>
        <time>2022-04-10T12:59:04Z</time>
      </trkpt>
      <trkpt lat="44.42386" lon="1.82283">
        <ele>308.7</ele>
        <time>2022-04-10T12:59:05Z</time>
      </trkpt>
      <trkpt lat="44.42385" lon="1.82277">
        <ele>308.3</ele>
        <time>2022-04-10T12:59:07Z</time>
      </trkpt>
      <trkpt lat="44.42385" lon="1.82272">
        <ele>308</ele>
        <time>2022-04-10T12:59:08Z</time>
      </trkpt>
      <trkpt lat="44.42385" lon="1.82271">
        <ele>307.9</ele>
        <time>2022-04-10T12:59:09Z</time>
      </trkpt>
      <trkpt lat="44.42385" lon="1.82266">
        <ele>307.5</ele>
        <time>2022-04-10T12:59:10Z</time>
      </trkpt>
      <trkpt lat="44.42385" lon="1.8226">
        <ele>307.1</ele>
        <time>2022-04-10T12:59:11Z</time>
      </trkpt>
      <trkpt lat="44.42385" lon="1.82253">
        <ele>306.7</ele>
        <time>2022-04-10T12:59:12Z</time>
      </trkpt>
      <trkpt lat="44.42385" lon="1.82245">
        <ele>306.3</ele>
        <time>2022-04-10T12:59:13Z</time>
      </trkpt>
      <trkpt lat="44.42385" lon="1.82237">
        <ele>305.9</ele>
        <time>2022-04-10T12:59:14Z</time>
      </trkpt>
      <trkpt lat="44.42385" lon="1.8223">
        <ele>305.7</ele>
        <time>2022-04-10T12:59:15Z</time>
      </trkpt>
      <trkpt lat="44.42385" lon="1.82222">
        <ele>305.6</ele>
        <time>2022-04-10T12:59:16Z</time>
      </trkpt>
      <trkpt lat="44.42386" lon="1.82215">
        <ele>305.6</ele>
        <time>2022-04-10T12:59:17Z</time>
      </trkpt>
      <trkpt lat="44.42387" lon="1.82208">
        <ele>305.7</ele>
        <time>2022-04-10T12:59:18Z</time>
      </trkpt>
      <trkpt lat="44.42388" lon="1.82201">
        <ele>305.8</ele>
        <time>2022-04-10T12:59:19Z</time>
      </trkpt>
      <trkpt lat="44.42389" lon="1.82195">
        <ele>306.1</ele>
        <time>2022-04-10T12:59:20Z</time>
      </trkpt>
      <trkpt lat="44.42389" lon="1.82189">
        <ele>306.3</ele>
        <time>2022-04-10T12:59:21Z</time>
      </trkpt>
      <trkpt lat="44.42389" lon="1.82184">
        <ele>306.6</ele>
        <time>2022-04-10T12:59:22Z</time>
      </trkpt>
      <trkpt lat="44.42389" lon="1.8218">
        <ele>307</ele>
        <time>2022-04-10T12:59:23Z</time>
      </trkpt>
      <trkpt lat="44.4239" lon="1.82176">
        <ele>307.3</ele>
        <time>2022-04-10T12:59:24Z</time>
      </trkpt>
      <trkpt lat="44.4239" lon="1.82171">
        <ele>307.7</ele>
        <time>2022-04-10T12:59:25Z</time>
      </trkpt>
      <trkpt lat="44.4239" lon="1.82169">
        <ele>307.7</ele>
        <time>2022-04-10T12:59:26Z</time>
      </trkpt>
      <trkpt lat="44.4239" lon="1.82165">
        <ele>308</ele>
        <time>2022-04-10T12:59:27Z</time>
      </trkpt>
      <trkpt lat="44.4239" lon="1.82164">
        <ele>308.1</ele>
        <time>2022-04-10T12:59:28Z</time>
      </trkpt>
      <trkpt lat="44.4239" lon="1.8216">
        <ele>308.2</ele>
        <time>2022-04-10T12:59:29Z</time>
      </trkpt>
      <trkpt lat="44.4239" lon="1.82155">
        <ele>308.4</ele>
        <time>2022-04-10T12:59:30Z</time>
      </trkpt>
      <trkpt lat="44.42391" lon="1.8215">
        <ele>308.6</ele>
        <time>2022-04-10T12:59:31Z</time>
      </trkpt>
      <trkpt lat="44.42392" lon="1.82143">
        <ele>308.8</ele>
        <time>2022-04-10T12:59:32Z</time>
      </trkpt>
      <trkpt lat="44.42393" lon="1.82138">
        <ele>308.9</ele>
        <time>2022-04-10T12:59:33Z</time>
      </trkpt>
      <trkpt lat="44.42394" lon="1.82131">
        <ele>309</ele>
        <time>2022-04-10T12:59:34Z</time>
      </trkpt>
      <trkpt lat="44.42395" lon="1.82123">
        <ele>309.1</ele>
        <time>2022-04-10T12:59:35Z</time>
      </trkpt>
      <trkpt lat="44.42397" lon="1.82116">
        <ele>309.2</ele>
        <time>2022-04-10T12:59:36Z</time>
      </trkpt>
      <trkpt lat="44.42398" lon="1.82108">
        <ele>309.3</ele>
        <time>2022-04-10T12:59:37Z</time>
      </trkpt>
      <trkpt lat="44.424" lon="1.82099">
        <ele>309.3</ele>
        <time>2022-04-10T12:59:38Z</time>
      </trkpt>
      <trkpt lat="44.42402" lon="1.82091">
        <ele>309.4</ele>
        <time>2022-04-10T12:59:39Z</time>
      </trkpt>
      <trkpt lat="44.42403" lon="1.82082">
        <ele>309.4</ele>
        <time>2022-04-10T12:59:40Z</time>
      </trkpt>
      <trkpt lat="44.42404" lon="1.82074">
        <ele>309.5</ele>
        <time>2022-04-10T12:59:41Z</time>
      </trkpt>
      <trkpt lat="44.42404" lon="1.82067">
        <ele>309.6</ele>
        <time>2022-04-10T12:59:42Z</time>
      </trkpt>
      <trkpt lat="44.42405" lon="1.82059">
        <ele>309.7</ele>
        <time>2022-04-10T12:59:43Z</time>
      </trkpt>
      <trkpt lat="44.42404" lon="1.82051">
        <ele>309.8</ele>
        <time>2022-04-10T12:59:44Z</time>
      </trkpt>
      <trkpt lat="44.42404" lon="1.82043">
        <ele>309.9</ele>
        <time>2022-04-10T12:59:45Z</time>
      </trkpt>
      <trkpt lat="44.42403" lon="1.82035">
        <ele>310.1</ele>
        <time>2022-04-10T12:59:46Z</time>
      </trkpt>
      <trkpt lat="44.42403" lon="1.82027">
        <ele>310.2</ele>
        <time>2022-04-10T12:59:47Z</time>
      </trkpt>
      <trkpt lat="44.42402" lon="1.82019">
        <ele>310.3</ele>
        <time>2022-04-10T12:59:48Z</time>
      </trkpt>
      <trkpt lat="44.42402" lon="1.82011">
        <ele>310.4</ele>
        <time>2022-04-10T12:59:49Z</time>
      </trkpt>
      <trkpt lat="44.42403" lon="1.82004">
        <ele>310.6</ele>
        <time>2022-04-10T12:59:50Z</time>
      </trkpt>
      <trkpt lat="44.42402" lon="1.81996">
        <ele>310.7</ele>
        <time>2022-04-10T12:59:51Z</time>
      </trkpt>
      <trkpt lat="44.42402" lon="1.81989">
        <ele>310.7</ele>
        <time>2022-04-10T12:59:52Z</time>
      </trkpt>
      <trkpt lat="44.424" lon="1.81981">
        <ele>310.8</ele>
        <time>2022-04-10T12:59:53Z</time>
      </trkpt>
      <trkpt lat="44.42398" lon="1.81974">
        <ele>310.7</ele>
        <time>2022-04-10T12:59:54Z</time>
      </trkpt>
      <trkpt lat="44.42397" lon="1.81967">
        <ele>310.7</ele>
        <time>2022-04-10T12:59:55Z</time>
      </trkpt>
      <trkpt lat="44.42395" lon="1.81962">
        <ele>310.7</ele>
        <time>2022-04-10T12:59:56Z</time>
      </trkpt>
      <trkpt lat="44.42395" lon="1.8196">
        <ele>310.7</ele>
        <time>2022-04-10T12:59:57Z</time>
      </trkpt>
      <trkpt lat="44.42395" lon="1.8196">
        <ele>310.7</ele>
        <time>2022-04-10T12:59:58Z</time>
      </trkpt>
      <trkpt lat="44.42396" lon="1.8196">
        <ele>310.7</ele>
        <time>2022-04-10T12:59:59Z</time>
      </trkpt>
      <trkpt lat="44.42396" lon="1.8196">
        <ele>310.7</ele>
        <time>2022-04-10T13:00:00Z</time>
      </trkpt>
      <trkpt lat="44.42396" lon="1.81961">
        <ele>310.7</ele>
        <time>2022-04-10T13:00:01Z</time>
      </trkpt>
      <trkpt lat="44.42396" lon="1.81961">
        <ele>310.7</ele>
        <time>2022-04-10T13:00:02Z</time>
      </trkpt>
      <trkpt lat="44.42396" lon="1.81961">
        <ele>310.7</ele>
        <time>2022-04-10T13:00:03Z</time>
      </trkpt>
      <trkpt lat="44.42396" lon="1.81961">
        <ele>310.7</ele>
        <time>2022-04-10T13:00:04Z</time>
      </trkpt>
      <trkpt lat="44.42396" lon="1.81961">
        <ele>310.7</ele>
        <time>2022-04-10T13:00:05Z</time>
      </trkpt>
      <trkpt lat="44.42396" lon="1.81961">
        <ele>310.7</ele>
        <time>2022-04-10T13:00:06Z</time>
      </trkpt>
      <trkpt lat="44.42396" lon="1.81961">
        <ele>310.7</ele>
        <time>2022-04-10T13:00:07Z</time>
      </trkpt>
      <trkpt lat="44.42396" lon="1.81957">
        <ele>310.7</ele>
        <time>2022-04-10T13:00:47Z</time>
      </trkpt>
      <trkpt lat="44.42396" lon="1.81952">
        <ele>310.7</ele>
        <time>2022-04-10T13:00:48Z</time>
      </trkpt>
      <trkpt lat="44.42395" lon="1.81947">
        <ele>310.7</ele>
        <time>2022-04-10T13:00:49Z</time>
      </trkpt>
      <trkpt lat="44.42393" lon="1.81942">
        <ele>310.7</ele>
        <time>2022-04-10T13:00:50Z</time>
      </trkpt>
      <trkpt lat="44.42391" lon="1.81936">
        <ele>310.7</ele>
        <time>2022-04-10T13:00:51Z</time>
      </trkpt>
      <trkpt lat="44.42389" lon="1.81932">
        <ele>310.7</ele>
        <time>2022-04-10T13:00:52Z</time>
      </trkpt>
      <trkpt lat="44.42386" lon="1.81926">
        <ele>310.7</ele>
        <time>2022-04-10T13:00:53Z</time>
      </trkpt>
      <trkpt lat="44.42383" lon="1.81918">
        <ele>310.8</ele>
        <time>2022-04-10T13:00:54Z</time>
      </trkpt>
      <trkpt lat="44.42379" lon="1.81911">
        <ele>310.9</ele>
        <time>2022-04-10T13:00:55Z</time>
      </trkpt>
      <trkpt lat="44.42376" lon="1.81903">
        <ele>311.1</ele>
        <time>2022-04-10T13:00:56Z</time>
      </trkpt>
      <trkpt lat="44.42374" lon="1.81895">
        <ele>311.2</ele>
        <time>2022-04-10T13:00:57Z</time>
      </trkpt>
      <trkpt lat="44.42371" lon="1.81888">
        <ele>311.4</ele>
        <time>2022-04-10T13:00:58Z</time>
      </trkpt>
      <trkpt lat="44.42369" lon="1.8188">
        <ele>311.5</ele>
        <time>2022-04-10T13:00:59Z</time>
      </trkpt>
      <trkpt lat="44.42367" lon="1.81872">
        <ele>311.6</ele>
        <time>2022-04-10T13:01:00Z</time>
      </trkpt>
      <trkpt lat="44.42365" lon="1.81864">
        <ele>311.7</ele>
        <time>2022-04-10T13:01:01Z</time>
      </trkpt>
      <trkpt lat="44.42364" lon="1.81856">
        <ele>311.8</ele>
        <time>2022-04-10T13:01:02Z</time>
      </trkpt>
      <trkpt lat="44.42363" lon="1.81848">
        <ele>311.8</ele>
        <time>2022-04-10T13:01:03Z</time>
      </trkpt>
      <trkpt lat="44.42363" lon="1.8184">
        <ele>311.9</ele>
        <time>2022-04-10T13:01:04Z</time>
      </trkpt>
      <trkpt lat="44.42363" lon="1.81831">
        <ele>312</ele>
        <time>2022-04-10T13:01:05Z</time>
      </trkpt>
      <trkpt lat="44.42363" lon="1.81823">
        <ele>312.2</ele>
        <time>2022-04-10T13:01:06Z</time>
      </trkpt>
      <trkpt lat="44.42364" lon="1.81814">
        <ele>312.3</ele>
        <time>2022-04-10T13:01:07Z</time>
      </trkpt>
      <trkpt lat="44.42365" lon="1.81806">
        <ele>312.4</ele>
        <time>2022-04-10T13:01:08Z</time>
      </trkpt>
      <trkpt lat="44.42366" lon="1.81797">
        <ele>312.6</ele>
        <time>2022-04-10T13:01:09Z</time>
      </trkpt>
      <trkpt lat="44.42367" lon="1.81789">
        <ele>312.7</ele>
        <time>2022-04-10T13:01:10Z</time>
      </trkpt>
      <trkpt lat="44.42369" lon="1.81781">
        <ele>312.8</ele>
        <time>2022-04-10T13:01:11Z</time>
      </trkpt>
      <trkpt lat="44.4237" lon="1.81774">
        <ele>313</ele>
        <time>2022-04-10T13:01:12Z</time>
      </trkpt>
      <trkpt lat="44.42372" lon="1.81767">
        <ele>313.1</ele>
        <time>2022-04-10T13:01:13Z</time>
      </trkpt>
      <trkpt lat="44.42374" lon="1.8176">
        <ele>313.3</ele>
        <time>2022-04-10T13:01:14Z</time>
      </trkpt>
      <trkpt lat="44.42376" lon="1.81753">
        <ele>313.4</ele>
        <time>2022-04-10T13:01:15Z</time>
      </trkpt>
      <trkpt lat="44.42378" lon="1.81746">
        <ele>313.5</ele>
        <time>2022-04-10T13:01:16Z</time>
      </trkpt>
      <trkpt lat="44.4238" lon="1.81739">
        <ele>313.7</ele>
        <time>2022-04-10T13:01:17Z</time>
      </trkpt>
      <trkpt lat="44.42382" lon="1.81733">
        <ele>313.7</ele>
        <time>2022-04-10T13:01:18Z</time>
      </trkpt>
      <trkpt lat="44.42384" lon="1.81726">
        <ele>313.7</ele>
        <time>2022-04-10T13:01:19Z</time>
      </trkpt>
      <trkpt lat="44.42386" lon="1.81719">
        <ele>313.7</ele>
        <time>2022-04-10T13:01:20Z</time>
      </trkpt>
      <trkpt lat="44.42387" lon="1.81712">
        <ele>313.7</ele>
        <time>2022-04-10T13:01:21Z</time>
      </trkpt>
      <trkpt lat="44.42387" lon="1.81708">
        <ele>313.7</ele>
        <time>2022-04-10T13:01:22Z</time>
      </trkpt>
      <trkpt lat="44.42387" lon="1.81706">
        <ele>313.6</ele>
        <time>2022-04-10T13:01:23Z</time>
      </trkpt>
      <trkpt lat="44.42387" lon="1.81706">
        <ele>313.6</ele>
        <time>2022-04-10T13:01:24Z</time>
      </trkpt>
      <trkpt lat="44.42387" lon="1.81707">
        <ele>313.6</ele>
        <time>2022-04-10T13:01:25Z</time>
      </trkpt>
      <trkpt lat="44.42388" lon="1.81708">
        <ele>313.6</ele>
        <time>2022-04-10T13:01:26Z</time>
      </trkpt>
      <trkpt lat="44.42388" lon="1.81708">
        <ele>313.6</ele>
        <time>2022-04-10T13:01:27Z</time>
      </trkpt>
      <trkpt lat="44.42388" lon="1.81708">
        <ele>313.6</ele>
        <time>2022-04-10T13:01:28Z</time>
      </trkpt>
      <trkpt lat="44.42388" lon="1.81708">
        <ele>313.6</ele>
        <time>2022-04-10T13:01:29Z</time>
      </trkpt>
      <trkpt lat="44.42388" lon="1.81708">
        <ele>313.6</ele>
        <time>2022-04-10T13:01:30Z</time>
      </trkpt>
      <trkpt lat="44.42388" lon="1.81708">
        <ele>313.6</ele>
        <time>2022-04-10T13:01:31Z</time>
      </trkpt>
      <trkpt lat="44.42388" lon="1.81708">
        <ele>313.6</ele>
        <time>2022-04-10T13:01:32Z</time>
      </trkpt>
      <trkpt lat="44.42388" lon="1.81708">
        <ele>313.6</ele>
        <time>2022-04-10T13:01:33Z</time>
      </trkpt>
      <trkpt lat="44.42388" lon="1.81708">
        <ele>313.6</ele>
        <time>2022-04-10T13:01:34Z</time>
      </trkpt>
      <trkpt lat="44.42391" lon="1.81704">
        <ele>313.6</ele>
        <time>2022-04-10T13:04:49Z</time>
      </trkpt>
      <trkpt lat="44.42394" lon="1.81701">
        <ele>313.5</ele>
        <time>2022-04-10T13:04:50Z</time>
      </trkpt>
      <trkpt lat="44.42397" lon="1.81699">
        <ele>313.4</ele>
        <time>2022-04-10T13:04:51Z</time>
      </trkpt>
      <trkpt lat="44.42401" lon="1.81696">
        <ele>313.3</ele>
        <time>2022-04-10T13:04:52Z</time>
      </trkpt>
      <trkpt lat="44.42404" lon="1.81694">
        <ele>313.2</ele>
        <time>2022-04-10T13:04:53Z</time>
      </trkpt>
      <trkpt lat="44.42408" lon="1.81691">
        <ele>313.1</ele>
        <time>2022-04-10T13:04:54Z</time>
      </trkpt>
      <trkpt lat="44.42414" lon="1.81688">
        <ele>313</ele>
        <time>2022-04-10T13:04:55Z</time>
      </trkpt>
      <trkpt lat="44.42419" lon="1.81685">
        <ele>312.9</ele>
        <time>2022-04-10T13:04:56Z</time>
      </trkpt>
      <trkpt lat="44.42424" lon="1.81681">
        <ele>312.8</ele>
        <time>2022-04-10T13:04:57Z</time>
      </trkpt>
      <trkpt lat="44.4243" lon="1.81676">
        <ele>312.7</ele>
        <time>2022-04-10T13:04:58Z</time>
      </trkpt>
      <trkpt lat="44.42435" lon="1.81671">
        <ele>312.6</ele>
        <time>2022-04-10T13:04:59Z</time>
      </trkpt>
      <trkpt lat="44.42438" lon="1.81667">
        <ele>312.6</ele>
        <time>2022-04-10T13:05:00Z</time>
      </trkpt>
      <trkpt lat="44.42439" lon="1.81662">
        <ele>312.5</ele>
        <time>2022-04-10T13:05:01Z</time>
      </trkpt>
      <trkpt lat="44.42439" lon="1.8166">
        <ele>312.5</ele>
        <time>2022-04-10T13:05:02Z</time>
      </trkpt>
      <trkpt lat="44.4244" lon="1.81656">
        <ele>312.4</ele>
        <time>2022-04-10T13:05:03Z</time>
      </trkpt>
      <trkpt lat="44.42442" lon="1.81651">
        <ele>312.3</ele>
        <time>2022-04-10T13:05:04Z</time>
      </trkpt>
      <trkpt lat="44.42444" lon="1.81646">
        <ele>312.2</ele>
        <time>2022-04-10T13:05:05Z</time>
      </trkpt>
      <trkpt lat="44.42446" lon="1.81642">
        <ele>312.1</ele>
        <time>2022-04-10T13:05:06Z</time>
      </trkpt>
      <trkpt lat="44.42448" lon="1.81636">
        <ele>312</ele>
        <time>2022-04-10T13:05:07Z</time>
      </trkpt>
      <trkpt lat="44.42449" lon="1.81631">
        <ele>311.9</ele>
        <time>2022-04-10T13:05:08Z</time>
      </trkpt>
      <trkpt lat="44.42451" lon="1.81624">
        <ele>311.8</ele>
        <time>2022-04-10T13:05:09Z</time>
      </trkpt>
      <trkpt lat="44.42453" lon="1.81617">
        <ele>311.6</ele>
        <time>2022-04-10T13:05:10Z</time>
      </trkpt>
      <trkpt lat="44.42455" lon="1.81609">
        <ele>311.4</ele>
        <time>2022-04-10T13:05:11Z</time>
      </trkpt>
      <trkpt lat="44.42456" lon="1.816">
        <ele>311.1</ele>
        <time>2022-04-10T13:05:12Z</time>
      </trkpt>
      <trkpt lat="44.42458" lon="1.81592">
        <ele>310.9</ele>
        <time>2022-04-10T13:05:13Z</time>
      </trkpt>
      <trkpt lat="44.4246" lon="1.81584">
        <ele>310.6</ele>
        <time>2022-04-10T13:05:14Z</time>
      </trkpt>
      <trkpt lat="44.42462" lon="1.81576">
        <ele>310.3</ele>
        <time>2022-04-10T13:05:15Z</time>
      </trkpt>
      <trkpt lat="44.42464" lon="1.81568">
        <ele>310</ele>
        <time>2022-04-10T13:05:16Z</time>
      </trkpt>
      <trkpt lat="44.42466" lon="1.81559">
        <ele>309.6</ele>
        <time>2022-04-10T13:05:17Z</time>
      </trkpt>
      <trkpt lat="44.42467" lon="1.81551">
        <ele>309.2</ele>
        <time>2022-04-10T13:05:18Z</time>
      </trkpt>
      <trkpt lat="44.42469" lon="1.81543">
        <ele>308.9</ele>
        <time>2022-04-10T13:05:19Z</time>
      </trkpt>
      <trkpt lat="44.4247" lon="1.81537">
        <ele>308.1</ele>
        <time>2022-04-10T13:05:20Z</time>
      </trkpt>
      <trkpt lat="44.4247" lon="1.81535">
        <ele>308</ele>
        <time>2022-04-10T13:05:21Z</time>
      </trkpt>
      <trkpt lat="44.4247" lon="1.81534">
        <ele>308</ele>
        <time>2022-04-10T13:05:22Z</time>
      </trkpt>
      <trkpt lat="44.4247" lon="1.81535">
        <ele>307.9</ele>
        <time>2022-04-10T13:05:23Z</time>
      </trkpt>
      <trkpt lat="44.4247" lon="1.81535">
        <ele>307.9</ele>
        <time>2022-04-10T13:05:24Z</time>
      </trkpt>
      <trkpt lat="44.4247" lon="1.81535">
        <ele>307.9</ele>
        <time>2022-04-10T13:05:25Z</time>
      </trkpt>
      <trkpt lat="44.4247" lon="1.81536">
        <ele>307.9</ele>
        <time>2022-04-10T13:05:26Z</time>
      </trkpt>
      <trkpt lat="44.4247" lon="1.81536">
        <ele>307.9</ele>
        <time>2022-04-10T13:05:27Z</time>
      </trkpt>
      <trkpt lat="44.42469" lon="1.81534">
        <ele>307.8</ele>
        <time>2022-04-10T13:05:28Z</time>
      </trkpt>
      <trkpt lat="44.42466" lon="1.8153">
        <ele>307.5</ele>
        <time>2022-04-10T13:05:29Z</time>
      </trkpt>
      <trkpt lat="44.42463" lon="1.81528">
        <ele>307.2</ele>
        <time>2022-04-10T13:05:30Z</time>
      </trkpt>
      <trkpt lat="44.42459" lon="1.81526">
        <ele>306.9</ele>
        <time>2022-04-10T13:05:31Z</time>
      </trkpt>
      <trkpt lat="44.42454" lon="1.81523">
        <ele>306.5</ele>
        <time>2022-04-10T13:05:32Z</time>
      </trkpt>
      <trkpt lat="44.42449" lon="1.81522">
        <ele>306</ele>
        <time>2022-04-10T13:05:33Z</time>
      </trkpt>
      <trkpt lat="44.42444" lon="1.81519">
        <ele>305.6</ele>
        <time>2022-04-10T13:05:34Z</time>
      </trkpt>
      <trkpt lat="44.42439" lon="1.81516">
        <ele>305.2</ele>
        <time>2022-04-10T13:05:35Z</time>
      </trkpt>
      <trkpt lat="44.42434" lon="1.81514">
        <ele>304.8</ele>
        <time>2022-04-10T13:05:36Z</time>
      </trkpt>
      <trkpt lat="44.42429" lon="1.8151">
        <ele>304.4</ele>
        <time>2022-04-10T13:05:37Z</time>
      </trkpt>
      <trkpt lat="44.42423" lon="1.81507">
        <ele>303.9</ele>
        <time>2022-04-10T13:05:38Z</time>
      </trkpt>
      <trkpt lat="44.42417" lon="1.81504">
        <ele>303.4</ele>
        <time>2022-04-10T13:05:39Z</time>
      </trkpt>
      <trkpt lat="44.42411" lon="1.815">
        <ele>302.9</ele>
        <time>2022-04-10T13:05:40Z</time>
      </trkpt>
      <trkpt lat="44.42405" lon="1.81495">
        <ele>302.3</ele>
        <time>2022-04-10T13:05:41Z</time>
      </trkpt>
      <trkpt lat="44.42399" lon="1.8149">
        <ele>301.7</ele>
        <time>2022-04-10T13:05:42Z</time>
      </trkpt>
      <trkpt lat="44.42393" lon="1.81484">
        <ele>301</ele>
        <time>2022-04-10T13:05:43Z</time>
      </trkpt>
      <trkpt lat="44.42387" lon="1.81479">
        <ele>300.3</ele>
        <time>2022-04-10T13:05:44Z</time>
      </trkpt>
      <trkpt lat="44.4238" lon="1.81475">
        <ele>299.7</ele>
        <time>2022-04-10T13:05:45Z</time>
      </trkpt>
      <trkpt lat="44.42373" lon="1.81471">
        <ele>299.1</ele>
        <time>2022-04-10T13:05:46Z</time>
      </trkpt>
      <trkpt lat="44.42366" lon="1.81467">
        <ele>298.6</ele>
        <time>2022-04-10T13:05:47Z</time>
      </trkpt>
      <trkpt lat="44.42359" lon="1.81463">
        <ele>298.3</ele>
        <time>2022-04-10T13:05:48Z</time>
      </trkpt>
      <trkpt lat="44.42352" lon="1.8146">
        <ele>298</ele>
        <time>2022-04-10T13:05:49Z</time>
      </trkpt>
      <trkpt lat="44.42344" lon="1.81457">
        <ele>297.8</ele>
        <time>2022-04-10T13:05:50Z</time>
      </trkpt>
      <trkpt lat="44.42337" lon="1.81453">
        <ele>297.6</ele>
        <time>2022-04-10T13:05:51Z</time>
      </trkpt>
      <trkpt lat="44.4233" lon="1.81449">
        <ele>297.4</ele>
        <time>2022-04-10T13:05:52Z</time>
      </trkpt>
      <trkpt lat="44.42326" lon="1.81442">
        <ele>297.4</ele>
        <time>2022-04-10T13:05:53Z</time>
      </trkpt>
      <trkpt lat="44.42322" lon="1.81435">
        <ele>297.4</ele>
        <time>2022-04-10T13:05:54Z</time>
      </trkpt>
      <trkpt lat="44.42319" lon="1.81428">
        <ele>297.4</ele>
        <time>2022-04-10T13:05:55Z</time>
      </trkpt>
      <trkpt lat="44.42316" lon="1.81421">
        <ele>297.6</ele>
        <time>2022-04-10T13:05:56Z</time>
      </trkpt>
      <trkpt lat="44.42313" lon="1.81415">
        <ele>297.8</ele>
        <time>2022-04-10T13:05:57Z</time>
      </trkpt>
      <trkpt lat="44.4231" lon="1.81409">
        <ele>298.1</ele>
        <time>2022-04-10T13:05:58Z</time>
      </trkpt>
      <trkpt lat="44.42308" lon="1.81403">
        <ele>298.5</ele>
        <time>2022-04-10T13:05:59Z</time>
      </trkpt>
      <trkpt lat="44.42306" lon="1.81398">
        <ele>298.8</ele>
        <time>2022-04-10T13:06:00Z</time>
      </trkpt>
      <trkpt lat="44.42304" lon="1.81394">
        <ele>299.2</ele>
        <time>2022-04-10T13:06:01Z</time>
      </trkpt>
      <trkpt lat="44.42303" lon="1.8139">
        <ele>299.5</ele>
        <time>2022-04-10T13:06:02Z</time>
      </trkpt>
      <trkpt lat="44.42301" lon="1.81386">
        <ele>299.9</ele>
        <time>2022-04-10T13:06:03Z</time>
      </trkpt>
      <trkpt lat="44.42299" lon="1.81382">
        <ele>300.2</ele>
        <time>2022-04-10T13:06:04Z</time>
      </trkpt>
      <trkpt lat="44.42297" lon="1.81379">
        <ele>300.5</ele>
        <time>2022-04-10T13:06:05Z</time>
      </trkpt>
      <trkpt lat="44.42295" lon="1.81376">
        <ele>300.9</ele>
        <time>2022-04-10T13:06:06Z</time>
      </trkpt>
      <trkpt lat="44.42293" lon="1.81375">
        <ele>301.1</ele>
        <time>2022-04-10T13:06:07Z</time>
      </trkpt>
      <trkpt lat="44.42289" lon="1.8137">
        <ele>301.7</ele>
        <time>2022-04-10T13:06:09Z</time>
      </trkpt>
      <trkpt lat="44.42286" lon="1.81367">
        <ele>302.1</ele>
        <time>2022-04-10T13:06:10Z</time>
      </trkpt>
      <trkpt lat="44.42281" lon="1.81364">
        <ele>302.6</ele>
        <time>2022-04-10T13:06:11Z</time>
      </trkpt>
      <trkpt lat="44.42277" lon="1.81365">
        <ele>303</ele>
        <time>2022-04-10T13:06:13Z</time>
      </trkpt>
      <trkpt lat="44.42272" lon="1.81367">
        <ele>303.3</ele>
        <time>2022-04-10T13:06:14Z</time>
      </trkpt>
      <trkpt lat="44.42267" lon="1.81371">
        <ele>303.5</ele>
        <time>2022-04-10T13:06:15Z</time>
      </trkpt>
      <trkpt lat="44.42263" lon="1.81372">
        <ele>303.7</ele>
        <time>2022-04-10T13:06:16Z</time>
      </trkpt>
      <trkpt lat="44.42259" lon="1.81373">
        <ele>303.8</ele>
        <time>2022-04-10T13:06:17Z</time>
      </trkpt>
      <trkpt lat="44.42255" lon="1.81375">
        <ele>303.8</ele>
        <time>2022-04-10T13:06:18Z</time>
      </trkpt>
      <trkpt lat="44.42251" lon="1.81375">
        <ele>303.9</ele>
        <time>2022-04-10T13:06:19Z</time>
      </trkpt>
      <trkpt lat="44.42247" lon="1.81376">
        <ele>303.9</ele>
        <time>2022-04-10T13:06:20Z</time>
      </trkpt>
      <trkpt lat="44.42242" lon="1.81377">
        <ele>304</ele>
        <time>2022-04-10T13:06:21Z</time>
      </trkpt>
      <trkpt lat="44.42238" lon="1.81379">
        <ele>304.1</ele>
        <time>2022-04-10T13:06:22Z</time>
      </trkpt>
      <trkpt lat="44.42233" lon="1.8138">
        <ele>304.2</ele>
        <time>2022-04-10T13:06:23Z</time>
      </trkpt>
      <trkpt lat="44.42229" lon="1.8138">
        <ele>304.2</ele>
        <time>2022-04-10T13:06:24Z</time>
      </trkpt>
      <trkpt lat="44.42225" lon="1.81381">
        <ele>304.3</ele>
        <time>2022-04-10T13:06:25Z</time>
      </trkpt>
      <trkpt lat="44.42221" lon="1.81383">
        <ele>304.3</ele>
        <time>2022-04-10T13:06:26Z</time>
      </trkpt>
      <trkpt lat="44.42212" lon="1.81385">
        <ele>304.4</ele>
        <time>2022-04-10T13:06:28Z</time>
      </trkpt>
      <trkpt lat="44.42208" lon="1.81386">
        <ele>304.4</ele>
        <time>2022-04-10T13:06:29Z</time>
      </trkpt>
      <trkpt lat="44.42203" lon="1.81387">
        <ele>304.5</ele>
        <time>2022-04-10T13:06:30Z</time>
      </trkpt>
      <trkpt lat="44.42199" lon="1.81387">
        <ele>304.5</ele>
        <time>2022-04-10T13:06:31Z</time>
      </trkpt>
      <trkpt lat="44.42193" lon="1.81389">
        <ele>304.6</ele>
        <time>2022-04-10T13:06:33Z</time>
      </trkpt>
      <trkpt lat="44.42188" lon="1.81391">
        <ele>304.6</ele>
        <time>2022-04-10T13:06:34Z</time>
      </trkpt>
      <trkpt lat="44.42182" lon="1.81392">
        <ele>304.7</ele>
        <time>2022-04-10T13:06:35Z</time>
      </trkpt>
      <trkpt lat="44.42174" lon="1.81394">
        <ele>304.9</ele>
        <time>2022-04-10T13:06:36Z</time>
      </trkpt>
      <trkpt lat="44.42168" lon="1.81394">
        <ele>305</ele>
        <time>2022-04-10T13:06:37Z</time>
      </trkpt>
      <trkpt lat="44.42163" lon="1.81394">
        <ele>305</ele>
        <time>2022-04-10T13:06:38Z</time>
      </trkpt>
      <trkpt lat="44.42158" lon="1.81395">
        <ele>305.1</ele>
        <time>2022-04-10T13:06:39Z</time>
      </trkpt>
      <trkpt lat="44.42154" lon="1.81396">
        <ele>305.2</ele>
        <time>2022-04-10T13:06:40Z</time>
      </trkpt>
      <trkpt lat="44.42149" lon="1.81398">
        <ele>305.3</ele>
        <time>2022-04-10T13:06:41Z</time>
      </trkpt>
      <trkpt lat="44.42141" lon="1.81402">
        <ele>305.5</ele>
        <time>2022-04-10T13:06:43Z</time>
      </trkpt>
      <trkpt lat="44.42136" lon="1.81405">
        <ele>305.7</ele>
        <time>2022-04-10T13:06:44Z</time>
      </trkpt>
      <trkpt lat="44.4213" lon="1.81407">
        <ele>305.8</ele>
        <time>2022-04-10T13:06:45Z</time>
      </trkpt>
      <trkpt lat="44.42125" lon="1.81409">
        <ele>305.9</ele>
        <time>2022-04-10T13:06:46Z</time>
      </trkpt>
      <trkpt lat="44.42119" lon="1.81411">
        <ele>306.1</ele>
        <time>2022-04-10T13:06:47Z</time>
      </trkpt>
      <trkpt lat="44.42114" lon="1.81413">
        <ele>306.2</ele>
        <time>2022-04-10T13:06:48Z</time>
      </trkpt>
      <trkpt lat="44.4211" lon="1.81415">
        <ele>306.3</ele>
        <time>2022-04-10T13:06:49Z</time>
      </trkpt>
      <trkpt lat="44.42107" lon="1.81416">
        <ele>306.3</ele>
        <time>2022-04-10T13:06:50Z</time>
      </trkpt>
      <trkpt lat="44.42101" lon="1.8142">
        <ele>306.5</ele>
        <time>2022-04-10T13:06:52Z</time>
      </trkpt>
      <trkpt lat="44.42097" lon="1.81425">
        <ele>306.6</ele>
        <time>2022-04-10T13:06:53Z</time>
      </trkpt>
      <trkpt lat="44.42092" lon="1.81429">
        <ele>306.8</ele>
        <time>2022-04-10T13:06:54Z</time>
      </trkpt>
      <trkpt lat="44.42087" lon="1.81432">
        <ele>306.9</ele>
        <time>2022-04-10T13:06:55Z</time>
      </trkpt>
      <trkpt lat="44.42079" lon="1.81436">
        <ele>307.1</ele>
        <time>2022-04-10T13:06:56Z</time>
      </trkpt>
      <trkpt lat="44.42073" lon="1.81438">
        <ele>307.2</ele>
        <time>2022-04-10T13:06:57Z</time>
      </trkpt>
      <trkpt lat="44.42067" lon="1.8144">
        <ele>307.4</ele>
        <time>2022-04-10T13:06:58Z</time>
      </trkpt>
      <trkpt lat="44.42061" lon="1.81441">
        <ele>307.5</ele>
        <time>2022-04-10T13:06:59Z</time>
      </trkpt>
      <trkpt lat="44.42055" lon="1.81442">
        <ele>307.6</ele>
        <time>2022-04-10T13:07:00Z</time>
      </trkpt>
      <trkpt lat="44.4205" lon="1.81441">
        <ele>307.8</ele>
        <time>2022-04-10T13:07:01Z</time>
      </trkpt>
      <trkpt lat="44.42044" lon="1.81441">
        <ele>307.9</ele>
        <time>2022-04-10T13:07:02Z</time>
      </trkpt>
      <trkpt lat="44.42039" lon="1.81439">
        <ele>308</ele>
        <time>2022-04-10T13:07:03Z</time>
      </trkpt>
      <trkpt lat="44.42034" lon="1.81436">
        <ele>308.2</ele>
        <time>2022-04-10T13:07:04Z</time>
      </trkpt>
      <trkpt lat="44.42028" lon="1.81434">
        <ele>308.4</ele>
        <time>2022-04-10T13:07:05Z</time>
      </trkpt>
      <trkpt lat="44.42023" lon="1.81432">
        <ele>308.7</ele>
        <time>2022-04-10T13:07:06Z</time>
      </trkpt>
      <trkpt lat="44.42019" lon="1.8143">
        <ele>308.9</ele>
        <time>2022-04-10T13:07:07Z</time>
      </trkpt>
      <trkpt lat="44.42014" lon="1.81429">
        <ele>309.2</ele>
        <time>2022-04-10T13:07:08Z</time>
      </trkpt>
      <trkpt lat="44.4201" lon="1.81428">
        <ele>309.5</ele>
        <time>2022-04-10T13:07:09Z</time>
      </trkpt>
      <trkpt lat="44.42007" lon="1.81427">
        <ele>309.7</ele>
        <time>2022-04-10T13:07:10Z</time>
      </trkpt>
      <trkpt lat="44.42002" lon="1.81427">
        <ele>310</ele>
        <time>2022-04-10T13:07:11Z</time>
      </trkpt>
      <trkpt lat="44.41998" lon="1.81428">
        <ele>310.3</ele>
        <time>2022-04-10T13:07:12Z</time>
      </trkpt>
      <trkpt lat="44.41994" lon="1.81429">
        <ele>310.6</ele>
        <time>2022-04-10T13:07:13Z</time>
      </trkpt>
      <trkpt lat="44.4199" lon="1.81431">
        <ele>310.8</ele>
        <time>2022-04-10T13:07:14Z</time>
      </trkpt>
      <trkpt lat="44.41988" lon="1.81435">
        <ele>311.1</ele>
        <time>2022-04-10T13:07:15Z</time>
      </trkpt>
      <trkpt lat="44.41983" lon="1.81436">
        <ele>311.4</ele>
        <time>2022-04-10T13:07:16Z</time>
      </trkpt>
      <trkpt lat="44.41975" lon="1.81437">
        <ele>311.9</ele>
        <time>2022-04-10T13:07:18Z</time>
      </trkpt>
      <trkpt lat="44.41971" lon="1.81438">
        <ele>312.3</ele>
        <time>2022-04-10T13:07:19Z</time>
      </trkpt>
      <trkpt lat="44.41966" lon="1.81439">
        <ele>312.6</ele>
        <time>2022-04-10T13:07:20Z</time>
      </trkpt>
      <trkpt lat="44.41963" lon="1.8144">
        <ele>312.8</ele>
        <time>2022-04-10T13:07:21Z</time>
      </trkpt>
      <trkpt lat="44.41961" lon="1.8144">
        <ele>312.9</ele>
        <time>2022-04-10T13:07:22Z</time>
      </trkpt>
      <trkpt lat="44.41964" lon="1.81442">
        <ele>313.2</ele>
        <time>2022-04-10T13:07:23Z</time>
      </trkpt>
      <trkpt lat="44.41963" lon="1.81441">
        <ele>313.3</ele>
        <time>2022-04-10T13:07:24Z</time>
      </trkpt>
      <trkpt lat="44.41961" lon="1.81441">
        <ele>313.4</ele>
        <time>2022-04-10T13:07:25Z</time>
      </trkpt>
      <trkpt lat="44.4196" lon="1.8144">
        <ele>313.5</ele>
        <time>2022-04-10T13:07:26Z</time>
      </trkpt>
      <trkpt lat="44.4196" lon="1.8144">
        <ele>313.5</ele>
        <time>2022-04-10T13:07:27Z</time>
      </trkpt>
      <trkpt lat="44.4196" lon="1.8144">
        <ele>313.5</ele>
        <time>2022-04-10T13:07:28Z</time>
      </trkpt>
      <trkpt lat="44.41961" lon="1.8144">
        <ele>313.5</ele>
        <time>2022-04-10T13:07:30Z</time>
      </trkpt>
      <trkpt lat="44.41961" lon="1.8144">
        <ele>313.5</ele>
        <time>2022-04-10T13:07:31Z</time>
      </trkpt>
      <trkpt lat="44.41958" lon="1.8144">
        <ele>313.7</ele>
        <time>2022-04-10T13:07:38Z</time>
      </trkpt>
      <trkpt lat="44.41955" lon="1.8144">
        <ele>313.9</ele>
        <time>2022-04-10T13:07:39Z</time>
      </trkpt>
      <trkpt lat="44.41951" lon="1.81437">
        <ele>314.2</ele>
        <time>2022-04-10T13:07:41Z</time>
      </trkpt>
      <trkpt lat="44.41947" lon="1.81437">
        <ele>314.4</ele>
        <time>2022-04-10T13:07:42Z</time>
      </trkpt>
      <trkpt lat="44.41943" lon="1.81435">
        <ele>314.8</ele>
        <time>2022-04-10T13:07:43Z</time>
      </trkpt>
      <trkpt lat="44.4194" lon="1.81434">
        <ele>315</ele>
        <time>2022-04-10T13:07:44Z</time>
      </trkpt>
      <trkpt lat="44.41937" lon="1.81435">
        <ele>315.2</ele>
        <time>2022-04-10T13:07:45Z</time>
      </trkpt>
      <trkpt lat="44.41933" lon="1.81436">
        <ele>315.5</ele>
        <time>2022-04-10T13:07:47Z</time>
      </trkpt>
      <trkpt lat="44.4193" lon="1.81436">
        <ele>315.8</ele>
        <time>2022-04-10T13:07:48Z</time>
      </trkpt>
      <trkpt lat="44.41925" lon="1.81437">
        <ele>316.1</ele>
        <time>2022-04-10T13:07:49Z</time>
      </trkpt>
      <trkpt lat="44.41921" lon="1.81438">
        <ele>316.4</ele>
        <time>2022-04-10T13:07:50Z</time>
      </trkpt>
      <trkpt lat="44.41918" lon="1.8144">
        <ele>316.7</ele>
        <time>2022-04-10T13:07:51Z</time>
      </trkpt>
      <trkpt lat="44.41914" lon="1.8144">
        <ele>317</ele>
        <time>2022-04-10T13:07:52Z</time>
      </trkpt>
      <trkpt lat="44.41911" lon="1.81441">
        <ele>317.2</ele>
        <time>2022-04-10T13:07:53Z</time>
      </trkpt>
      <trkpt lat="44.41908" lon="1.8144">
        <ele>317.5</ele>
        <time>2022-04-10T13:07:54Z</time>
      </trkpt>
      <trkpt lat="44.41905" lon="1.81439">
        <ele>317.7</ele>
        <time>2022-04-10T13:07:55Z</time>
      </trkpt>
      <trkpt lat="44.419" lon="1.81438">
        <ele>318.1</ele>
        <time>2022-04-10T13:07:57Z</time>
      </trkpt>
      <trkpt lat="44.41896" lon="1.81437">
        <ele>318.4</ele>
        <time>2022-04-10T13:07:58Z</time>
      </trkpt>
      <trkpt lat="44.41891" lon="1.81434">
        <ele>318.7</ele>
        <time>2022-04-10T13:08:00Z</time>
      </trkpt>
      <trkpt lat="44.41888" lon="1.81432">
        <ele>318.9</ele>
        <time>2022-04-10T13:08:01Z</time>
      </trkpt>
      <trkpt lat="44.41883" lon="1.81428">
        <ele>319.2</ele>
        <time>2022-04-10T13:08:02Z</time>
      </trkpt>
      <trkpt lat="44.41877" lon="1.81424">
        <ele>319.5</ele>
        <time>2022-04-10T13:08:04Z</time>
      </trkpt>
      <trkpt lat="44.41873" lon="1.8142">
        <ele>319.6</ele>
        <time>2022-04-10T13:08:05Z</time>
      </trkpt>
      <trkpt lat="44.41868" lon="1.81416">
        <ele>319.7</ele>
        <time>2022-04-10T13:08:06Z</time>
      </trkpt>
      <trkpt lat="44.41863" lon="1.81414">
        <ele>319.7</ele>
        <time>2022-04-10T13:08:07Z</time>
      </trkpt>
      <trkpt lat="44.41859" lon="1.81413">
        <ele>319.7</ele>
        <time>2022-04-10T13:08:08Z</time>
      </trkpt>
      <trkpt lat="44.41855" lon="1.81412">
        <ele>319.7</ele>
        <time>2022-04-10T13:08:09Z</time>
      </trkpt>
      <trkpt lat="44.4185" lon="1.81412">
        <ele>319.7</ele>
        <time>2022-04-10T13:08:10Z</time>
      </trkpt>
      <trkpt lat="44.41846" lon="1.81413">
        <ele>319.7</ele>
        <time>2022-04-10T13:08:11Z</time>
      </trkpt>
      <trkpt lat="44.41841" lon="1.81415">
        <ele>319.6</ele>
        <time>2022-04-10T13:08:12Z</time>
      </trkpt>
      <trkpt lat="44.41836" lon="1.81416">
        <ele>319.5</ele>
        <time>2022-04-10T13:08:13Z</time>
      </trkpt>
      <trkpt lat="44.41831" lon="1.81416">
        <ele>319.4</ele>
        <time>2022-04-10T13:08:14Z</time>
      </trkpt>
      <trkpt lat="44.41826" lon="1.81417">
        <ele>319.2</ele>
        <time>2022-04-10T13:08:15Z</time>
      </trkpt>
      <trkpt lat="44.41821" lon="1.81418">
        <ele>319</ele>
        <time>2022-04-10T13:08:16Z</time>
      </trkpt>
      <trkpt lat="44.41813" lon="1.81417">
        <ele>318.7</ele>
        <time>2022-04-10T13:08:18Z</time>
      </trkpt>
      <trkpt lat="44.41808" lon="1.81415">
        <ele>318.4</ele>
        <time>2022-04-10T13:08:19Z</time>
      </trkpt>
      <trkpt lat="44.41802" lon="1.81413">
        <ele>318.2</ele>
        <time>2022-04-10T13:08:20Z</time>
      </trkpt>
      <trkpt lat="44.41796" lon="1.81411">
        <ele>318.1</ele>
        <time>2022-04-10T13:08:21Z</time>
      </trkpt>
      <trkpt lat="44.4179" lon="1.8141">
        <ele>317.9</ele>
        <time>2022-04-10T13:08:22Z</time>
      </trkpt>
      <trkpt lat="44.41777" lon="1.81409">
        <ele>317.6</ele>
        <time>2022-04-10T13:08:24Z</time>
      </trkpt>
      <trkpt lat="44.41771" lon="1.81409">
        <ele>317.4</ele>
        <time>2022-04-10T13:08:25Z</time>
      </trkpt>
      <trkpt lat="44.41765" lon="1.81409">
        <ele>317.3</ele>
        <time>2022-04-10T13:08:26Z</time>
      </trkpt>
      <trkpt lat="44.41759" lon="1.81408">
        <ele>317.3</ele>
        <time>2022-04-10T13:08:27Z</time>
      </trkpt>
      <trkpt lat="44.41753" lon="1.81408">
        <ele>317.3</ele>
        <time>2022-04-10T13:08:28Z</time>
      </trkpt>
      <trkpt lat="44.41748" lon="1.81407">
        <ele>317.3</ele>
        <time>2022-04-10T13:08:29Z</time>
      </trkpt>
      <trkpt lat="44.41742" lon="1.81407">
        <ele>317.4</ele>
        <time>2022-04-10T13:08:30Z</time>
      </trkpt>
      <trkpt lat="44.41738" lon="1.81405">
        <ele>317.4</ele>
        <time>2022-04-10T13:08:31Z</time>
      </trkpt>
      <trkpt lat="44.41734" lon="1.81403">
        <ele>317.3</ele>
        <time>2022-04-10T13:08:32Z</time>
      </trkpt>
      <trkpt lat="44.4173" lon="1.814">
        <ele>317.2</ele>
        <time>2022-04-10T13:08:33Z</time>
      </trkpt>
      <trkpt lat="44.41725" lon="1.81396">
        <ele>317.1</ele>
        <time>2022-04-10T13:08:34Z</time>
      </trkpt>
      <trkpt lat="44.41721" lon="1.81392">
        <ele>317</ele>
        <time>2022-04-10T13:08:35Z</time>
      </trkpt>
      <trkpt lat="44.41718" lon="1.81387">
        <ele>316.9</ele>
        <time>2022-04-10T13:08:36Z</time>
      </trkpt>
      <trkpt lat="44.41714" lon="1.81382">
        <ele>316.8</ele>
        <time>2022-04-10T13:08:37Z</time>
      </trkpt>
      <trkpt lat="44.41711" lon="1.81376">
        <ele>316.8</ele>
        <time>2022-04-10T13:08:38Z</time>
      </trkpt>
      <trkpt lat="44.41708" lon="1.81371">
        <ele>316.8</ele>
        <time>2022-04-10T13:08:39Z</time>
      </trkpt>
      <trkpt lat="44.41706" lon="1.81367">
        <ele>316.8</ele>
        <time>2022-04-10T13:08:40Z</time>
      </trkpt>
      <trkpt lat="44.41704" lon="1.81362">
        <ele>316.9</ele>
        <time>2022-04-10T13:08:41Z</time>
      </trkpt>
      <trkpt lat="44.41701" lon="1.81358">
        <ele>316.9</ele>
        <time>2022-04-10T13:08:42Z</time>
      </trkpt>
      <trkpt lat="44.41699" lon="1.81354">
        <ele>317.2</ele>
        <time>2022-04-10T13:08:43Z</time>
      </trkpt>
      <trkpt lat="44.41696" lon="1.81349">
        <ele>317.4</ele>
        <time>2022-04-10T13:08:44Z</time>
      </trkpt>
      <trkpt lat="44.41694" lon="1.81344">
        <ele>317.7</ele>
        <time>2022-04-10T13:08:45Z</time>
      </trkpt>
      <trkpt lat="44.41692" lon="1.8134">
        <ele>317.9</ele>
        <time>2022-04-10T13:08:46Z</time>
      </trkpt>
      <trkpt lat="44.41688" lon="1.81335">
        <ele>318.2</ele>
        <time>2022-04-10T13:08:48Z</time>
      </trkpt>
      <trkpt lat="44.41686" lon="1.81329">
        <ele>318.6</ele>
        <time>2022-04-10T13:08:49Z</time>
      </trkpt>
      <trkpt lat="44.41684" lon="1.81324">
        <ele>318.8</ele>
        <time>2022-04-10T13:08:50Z</time>
      </trkpt>
      <trkpt lat="44.41681" lon="1.81318">
        <ele>319.3</ele>
        <time>2022-04-10T13:08:52Z</time>
      </trkpt>
      <trkpt lat="44.41678" lon="1.81314">
        <ele>319.6</ele>
        <time>2022-04-10T13:08:53Z</time>
      </trkpt>
      <trkpt lat="44.41675" lon="1.8131">
        <ele>319.9</ele>
        <time>2022-04-10T13:08:54Z</time>
      </trkpt>
      <trkpt lat="44.41672" lon="1.81306">
        <ele>320.2</ele>
        <time>2022-04-10T13:08:55Z</time>
      </trkpt>
      <trkpt lat="44.4167" lon="1.81301">
        <ele>320.5</ele>
        <time>2022-04-10T13:08:56Z</time>
      </trkpt>
      <trkpt lat="44.41669" lon="1.81296">
        <ele>320.8</ele>
        <time>2022-04-10T13:08:57Z</time>
      </trkpt>
      <trkpt lat="44.41666" lon="1.81292">
        <ele>321.1</ele>
        <time>2022-04-10T13:08:58Z</time>
      </trkpt>
      <trkpt lat="44.41663" lon="1.81288">
        <ele>321.4</ele>
        <time>2022-04-10T13:09:00Z</time>
      </trkpt>
      <trkpt lat="44.41658" lon="1.81284">
        <ele>321.8</ele>
        <time>2022-04-10T13:09:01Z</time>
      </trkpt>
      <trkpt lat="44.41653" lon="1.81281">
        <ele>322.2</ele>
        <time>2022-04-10T13:09:02Z</time>
      </trkpt>
      <trkpt lat="44.4165" lon="1.81279">
        <ele>322.5</ele>
        <time>2022-04-10T13:09:03Z</time>
      </trkpt>
      <trkpt lat="44.41646" lon="1.81278">
        <ele>322.8</ele>
        <time>2022-04-10T13:09:04Z</time>
      </trkpt>
      <trkpt lat="44.41643" lon="1.81279">
        <ele>323</ele>
        <time>2022-04-10T13:09:05Z</time>
      </trkpt>
      <trkpt lat="44.41639" lon="1.81279">
        <ele>323.3</ele>
        <time>2022-04-10T13:09:06Z</time>
      </trkpt>
      <trkpt lat="44.41637" lon="1.81279">
        <ele>323.4</ele>
        <time>2022-04-10T13:09:07Z</time>
      </trkpt>
      <trkpt lat="44.4163" lon="1.81281">
        <ele>323.9</ele>
        <time>2022-04-10T13:09:09Z</time>
      </trkpt>
      <trkpt lat="44.41626" lon="1.81282">
        <ele>324.2</ele>
        <time>2022-04-10T13:09:10Z</time>
      </trkpt>
      <trkpt lat="44.41623" lon="1.81281">
        <ele>324.5</ele>
        <time>2022-04-10T13:09:11Z</time>
      </trkpt>
      <trkpt lat="44.4162" lon="1.8128">
        <ele>324.7</ele>
        <time>2022-04-10T13:09:12Z</time>
      </trkpt>
      <trkpt lat="44.41617" lon="1.81277">
        <ele>325</ele>
        <time>2022-04-10T13:09:13Z</time>
      </trkpt>
      <trkpt lat="44.41616" lon="1.81276">
        <ele>325.1</ele>
        <time>2022-04-10T13:09:14Z</time>
      </trkpt>
      <trkpt lat="44.41613" lon="1.81275">
        <ele>325.4</ele>
        <time>2022-04-10T13:09:15Z</time>
      </trkpt>
      <trkpt lat="44.4161" lon="1.81273">
        <ele>325.6</ele>
        <time>2022-04-10T13:09:16Z</time>
      </trkpt>
      <trkpt lat="44.41607" lon="1.81271">
        <ele>325.7</ele>
        <time>2022-04-10T13:09:17Z</time>
      </trkpt>
      <trkpt lat="44.41605" lon="1.8127">
        <ele>325.9</ele>
        <time>2022-04-10T13:09:18Z</time>
      </trkpt>
      <trkpt lat="44.416" lon="1.81268">
        <ele>326.1</ele>
        <time>2022-04-10T13:09:20Z</time>
      </trkpt>
      <trkpt lat="44.41597" lon="1.81266">
        <ele>326.2</ele>
        <time>2022-04-10T13:09:21Z</time>
      </trkpt>
      <trkpt lat="44.41592" lon="1.81264">
        <ele>326.3</ele>
        <time>2022-04-10T13:09:22Z</time>
      </trkpt>
      <trkpt lat="44.4159" lon="1.81263">
        <ele>326.3</ele>
        <time>2022-04-10T13:09:23Z</time>
      </trkpt>
      <trkpt lat="44.41586" lon="1.81261">
        <ele>326.3</ele>
        <time>2022-04-10T13:09:24Z</time>
      </trkpt>
      <trkpt lat="44.41583" lon="1.81258">
        <ele>326.3</ele>
        <time>2022-04-10T13:09:25Z</time>
      </trkpt>
      <trkpt lat="44.41578" lon="1.81256">
        <ele>326.2</ele>
        <time>2022-04-10T13:09:26Z</time>
      </trkpt>
      <trkpt lat="44.41574" lon="1.81252">
        <ele>326.2</ele>
        <time>2022-04-10T13:09:28Z</time>
      </trkpt>
      <trkpt lat="44.4157" lon="1.81247">
        <ele>326</ele>
        <time>2022-04-10T13:09:29Z</time>
      </trkpt>
      <trkpt lat="44.41565" lon="1.81241">
        <ele>325.9</ele>
        <time>2022-04-10T13:09:30Z</time>
      </trkpt>
      <trkpt lat="44.41562" lon="1.81238">
        <ele>325.8</ele>
        <time>2022-04-10T13:09:31Z</time>
      </trkpt>
      <trkpt lat="44.4156" lon="1.81233">
        <ele>325.7</ele>
        <time>2022-04-10T13:09:32Z</time>
      </trkpt>
      <trkpt lat="44.41557" lon="1.81229">
        <ele>325.5</ele>
        <time>2022-04-10T13:09:34Z</time>
      </trkpt>
      <trkpt lat="44.41556" lon="1.81226">
        <ele>325.4</ele>
        <time>2022-04-10T13:09:35Z</time>
      </trkpt>
      <trkpt lat="44.41555" lon="1.81222">
        <ele>325.3</ele>
        <time>2022-04-10T13:09:36Z</time>
      </trkpt>
      <trkpt lat="44.41554" lon="1.81216">
        <ele>325.1</ele>
        <time>2022-04-10T13:09:37Z</time>
      </trkpt>
      <trkpt lat="44.41552" lon="1.8121">
        <ele>324.9</ele>
        <time>2022-04-10T13:09:39Z</time>
      </trkpt>
      <trkpt lat="44.41551" lon="1.81206">
        <ele>324.7</ele>
        <time>2022-04-10T13:09:40Z</time>
      </trkpt>
      <trkpt lat="44.41549" lon="1.81201">
        <ele>324.5</ele>
        <time>2022-04-10T13:09:41Z</time>
      </trkpt>
      <trkpt lat="44.41547" lon="1.81193">
        <ele>324.2</ele>
        <time>2022-04-10T13:09:42Z</time>
      </trkpt>
      <trkpt lat="44.41545" lon="1.81188">
        <ele>323.9</ele>
        <time>2022-04-10T13:09:43Z</time>
      </trkpt>
      <trkpt lat="44.41543" lon="1.81181">
        <ele>323.6</ele>
        <time>2022-04-10T13:09:44Z</time>
      </trkpt>
      <trkpt lat="44.4154" lon="1.81175">
        <ele>323.2</ele>
        <time>2022-04-10T13:09:45Z</time>
      </trkpt>
      <trkpt lat="44.41538" lon="1.81168">
        <ele>322.9</ele>
        <time>2022-04-10T13:09:46Z</time>
      </trkpt>
      <trkpt lat="44.41535" lon="1.81162">
        <ele>322.5</ele>
        <time>2022-04-10T13:09:47Z</time>
      </trkpt>
      <trkpt lat="44.41531" lon="1.81155">
        <ele>322.1</ele>
        <time>2022-04-10T13:09:48Z</time>
      </trkpt>
      <trkpt lat="44.41527" lon="1.81147">
        <ele>321.7</ele>
        <time>2022-04-10T13:09:49Z</time>
      </trkpt>
      <trkpt lat="44.41523" lon="1.81139">
        <ele>321.2</ele>
        <time>2022-04-10T13:09:50Z</time>
      </trkpt>
      <trkpt lat="44.41519" lon="1.81131">
        <ele>320.7</ele>
        <time>2022-04-10T13:09:51Z</time>
      </trkpt>
      <trkpt lat="44.41515" lon="1.81122">
        <ele>320.3</ele>
        <time>2022-04-10T13:09:52Z</time>
      </trkpt>
      <trkpt lat="44.41512" lon="1.81113">
        <ele>319.9</ele>
        <time>2022-04-10T13:09:53Z</time>
      </trkpt>
      <trkpt lat="44.4151" lon="1.81103">
        <ele>319.6</ele>
        <time>2022-04-10T13:09:54Z</time>
      </trkpt>
      <trkpt lat="44.41508" lon="1.81093">
        <ele>319.2</ele>
        <time>2022-04-10T13:09:55Z</time>
      </trkpt>
      <trkpt lat="44.41506" lon="1.81082">
        <ele>318.8</ele>
        <time>2022-04-10T13:09:56Z</time>
      </trkpt>
      <trkpt lat="44.41504" lon="1.81071">
        <ele>318.4</ele>
        <time>2022-04-10T13:09:57Z</time>
      </trkpt>
      <trkpt lat="44.41502" lon="1.8106">
        <ele>318</ele>
        <time>2022-04-10T13:09:58Z</time>
      </trkpt>
      <trkpt lat="44.41501" lon="1.81048">
        <ele>317.5</ele>
        <time>2022-04-10T13:09:59Z</time>
      </trkpt>
      <trkpt lat="44.41501" lon="1.81036">
        <ele>317.1</ele>
        <time>2022-04-10T13:10:00Z</time>
      </trkpt>
      <trkpt lat="44.41501" lon="1.81025">
        <ele>316.7</ele>
        <time>2022-04-10T13:10:01Z</time>
      </trkpt>
      <trkpt lat="44.41501" lon="1.81013">
        <ele>316.2</ele>
        <time>2022-04-10T13:10:02Z</time>
      </trkpt>
      <trkpt lat="44.41501" lon="1.81001">
        <ele>315.6</ele>
        <time>2022-04-10T13:10:03Z</time>
      </trkpt>
      <trkpt lat="44.41502" lon="1.80988">
        <ele>315.1</ele>
        <time>2022-04-10T13:10:04Z</time>
      </trkpt>
      <trkpt lat="44.41502" lon="1.80975">
        <ele>314.5</ele>
        <time>2022-04-10T13:10:05Z</time>
      </trkpt>
      <trkpt lat="44.41503" lon="1.80963">
        <ele>314</ele>
        <time>2022-04-10T13:10:06Z</time>
      </trkpt>
      <trkpt lat="44.41504" lon="1.8095">
        <ele>313.4</ele>
        <time>2022-04-10T13:10:07Z</time>
      </trkpt>
      <trkpt lat="44.41505" lon="1.80937">
        <ele>312.8</ele>
        <time>2022-04-10T13:10:08Z</time>
      </trkpt>
      <trkpt lat="44.41504" lon="1.80924">
        <ele>312.1</ele>
        <time>2022-04-10T13:10:09Z</time>
      </trkpt>
      <trkpt lat="44.41502" lon="1.8091">
        <ele>311.3</ele>
        <time>2022-04-10T13:10:10Z</time>
      </trkpt>
      <trkpt lat="44.41498" lon="1.80898">
        <ele>310.4</ele>
        <time>2022-04-10T13:10:11Z</time>
      </trkpt>
      <trkpt lat="44.41492" lon="1.80886">
        <ele>309.5</ele>
        <time>2022-04-10T13:10:12Z</time>
      </trkpt>
      <trkpt lat="44.41486" lon="1.80875">
        <ele>308.6</ele>
        <time>2022-04-10T13:10:13Z</time>
      </trkpt>
      <trkpt lat="44.41481" lon="1.80862">
        <ele>307.8</ele>
        <time>2022-04-10T13:10:14Z</time>
      </trkpt>
      <trkpt lat="44.41476" lon="1.80849">
        <ele>307.1</ele>
        <time>2022-04-10T13:10:15Z</time>
      </trkpt>
      <trkpt lat="44.41472" lon="1.80835">
        <ele>306.7</ele>
        <time>2022-04-10T13:10:16Z</time>
      </trkpt>
      <trkpt lat="44.41468" lon="1.80822">
        <ele>306.5</ele>
        <time>2022-04-10T13:10:17Z</time>
      </trkpt>
      <trkpt lat="44.41465" lon="1.80808">
        <ele>306.4</ele>
        <time>2022-04-10T13:10:18Z</time>
      </trkpt>
      <trkpt lat="44.41463" lon="1.80796">
        <ele>306.4</ele>
        <time>2022-04-10T13:10:19Z</time>
      </trkpt>
      <trkpt lat="44.41462" lon="1.80783">
        <ele>306.5</ele>
        <time>2022-04-10T13:10:20Z</time>
      </trkpt>
      <trkpt lat="44.4146" lon="1.80771">
        <ele>306.6</ele>
        <time>2022-04-10T13:10:21Z</time>
      </trkpt>
      <trkpt lat="44.41458" lon="1.8076">
        <ele>306.8</ele>
        <time>2022-04-10T13:10:22Z</time>
      </trkpt>
      <trkpt lat="44.41457" lon="1.8075">
        <ele>307</ele>
        <time>2022-04-10T13:10:23Z</time>
      </trkpt>
      <trkpt lat="44.41457" lon="1.8074">
        <ele>307.2</ele>
        <time>2022-04-10T13:10:24Z</time>
      </trkpt>
      <trkpt lat="44.41458" lon="1.8073">
        <ele>307.2</ele>
        <time>2022-04-10T13:10:25Z</time>
      </trkpt>
      <trkpt lat="44.41459" lon="1.80721">
        <ele>307.1</ele>
        <time>2022-04-10T13:10:26Z</time>
      </trkpt>
      <trkpt lat="44.41461" lon="1.80712">
        <ele>307</ele>
        <time>2022-04-10T13:10:27Z</time>
      </trkpt>
      <trkpt lat="44.41462" lon="1.80703">
        <ele>306.7</ele>
        <time>2022-04-10T13:10:28Z</time>
      </trkpt>
      <trkpt lat="44.41464" lon="1.80693">
        <ele>306.4</ele>
        <time>2022-04-10T13:10:29Z</time>
      </trkpt>
      <trkpt lat="44.41466" lon="1.80683">
        <ele>306.1</ele>
        <time>2022-04-10T13:10:30Z</time>
      </trkpt>
      <trkpt lat="44.41468" lon="1.80673">
        <ele>305.7</ele>
        <time>2022-04-10T13:10:31Z</time>
      </trkpt>
      <trkpt lat="44.4147" lon="1.80663">
        <ele>305.1</ele>
        <time>2022-04-10T13:10:32Z</time>
      </trkpt>
      <trkpt lat="44.41472" lon="1.80652">
        <ele>304.6</ele>
        <time>2022-04-10T13:10:33Z</time>
      </trkpt>
      <trkpt lat="44.41474" lon="1.80641">
        <ele>304</ele>
        <time>2022-04-10T13:10:34Z</time>
      </trkpt>
      <trkpt lat="44.41475" lon="1.80629">
        <ele>303.3</ele>
        <time>2022-04-10T13:10:35Z</time>
      </trkpt>
      <trkpt lat="44.41475" lon="1.80617">
        <ele>302.6</ele>
        <time>2022-04-10T13:10:36Z</time>
      </trkpt>
      <trkpt lat="44.41473" lon="1.80605">
        <ele>301.9</ele>
        <time>2022-04-10T13:10:37Z</time>
      </trkpt>
      <trkpt lat="44.4147" lon="1.80593">
        <ele>301.2</ele>
        <time>2022-04-10T13:10:38Z</time>
      </trkpt>
      <trkpt lat="44.41466" lon="1.80581">
        <ele>300.6</ele>
        <time>2022-04-10T13:10:39Z</time>
      </trkpt>
      <trkpt lat="44.41461" lon="1.80568">
        <ele>300.1</ele>
        <time>2022-04-10T13:10:40Z</time>
      </trkpt>
      <trkpt lat="44.41457" lon="1.80557">
        <ele>299.8</ele>
        <time>2022-04-10T13:10:41Z</time>
      </trkpt>
      <trkpt lat="44.41452" lon="1.80545">
        <ele>299.6</ele>
        <time>2022-04-10T13:10:42Z</time>
      </trkpt>
      <trkpt lat="44.41448" lon="1.80534">
        <ele>299.4</ele>
        <time>2022-04-10T13:10:43Z</time>
      </trkpt>
      <trkpt lat="44.41444" lon="1.80524">
        <ele>299.4</ele>
        <time>2022-04-10T13:10:44Z</time>
      </trkpt>
      <trkpt lat="44.41439" lon="1.80514">
        <ele>299.3</ele>
        <time>2022-04-10T13:10:45Z</time>
      </trkpt>
      <trkpt lat="44.41435" lon="1.80504">
        <ele>299.4</ele>
        <time>2022-04-10T13:10:46Z</time>
      </trkpt>
      <trkpt lat="44.41431" lon="1.80496">
        <ele>299.5</ele>
        <time>2022-04-10T13:10:47Z</time>
      </trkpt>
      <trkpt lat="44.41427" lon="1.80488">
        <ele>299.7</ele>
        <time>2022-04-10T13:10:48Z</time>
      </trkpt>
      <trkpt lat="44.41423" lon="1.8048">
        <ele>299.9</ele>
        <time>2022-04-10T13:10:49Z</time>
      </trkpt>
      <trkpt lat="44.41419" lon="1.80474">
        <ele>300.1</ele>
        <time>2022-04-10T13:10:50Z</time>
      </trkpt>
      <trkpt lat="44.41416" lon="1.80468">
        <ele>300.4</ele>
        <time>2022-04-10T13:10:51Z</time>
      </trkpt>
      <trkpt lat="44.41413" lon="1.80463">
        <ele>300.6</ele>
        <time>2022-04-10T13:10:52Z</time>
      </trkpt>
      <trkpt lat="44.4141" lon="1.80458">
        <ele>300.9</ele>
        <time>2022-04-10T13:10:53Z</time>
      </trkpt>
      <trkpt lat="44.41407" lon="1.80453">
        <ele>301.2</ele>
        <time>2022-04-10T13:10:54Z</time>
      </trkpt>
      <trkpt lat="44.41405" lon="1.80452">
        <ele>301.3</ele>
        <time>2022-04-10T13:10:55Z</time>
      </trkpt>
      <trkpt lat="44.41403" lon="1.80448">
        <ele>301.5</ele>
        <time>2022-04-10T13:10:56Z</time>
      </trkpt>
      <trkpt lat="44.41401" lon="1.80445">
        <ele>301.6</ele>
        <time>2022-04-10T13:10:57Z</time>
      </trkpt>
      <trkpt lat="44.41399" lon="1.80442">
        <ele>301.8</ele>
        <time>2022-04-10T13:10:58Z</time>
      </trkpt>
      <trkpt lat="44.41397" lon="1.80439">
        <ele>301.9</ele>
        <time>2022-04-10T13:10:59Z</time>
      </trkpt>
      <trkpt lat="44.41395" lon="1.80437">
        <ele>302</ele>
        <time>2022-04-10T13:11:00Z</time>
      </trkpt>
      <trkpt lat="44.41393" lon="1.80435">
        <ele>302</ele>
        <time>2022-04-10T13:11:02Z</time>
      </trkpt>
      <trkpt lat="44.41391" lon="1.80432">
        <ele>302.1</ele>
        <time>2022-04-10T13:11:03Z</time>
      </trkpt>
      <trkpt lat="44.41388" lon="1.80429">
        <ele>302.1</ele>
        <time>2022-04-10T13:11:04Z</time>
      </trkpt>
      <trkpt lat="44.41386" lon="1.80426">
        <ele>302.2</ele>
        <time>2022-04-10T13:11:05Z</time>
      </trkpt>
      <trkpt lat="44.41384" lon="1.80422">
        <ele>302.2</ele>
        <time>2022-04-10T13:11:06Z</time>
      </trkpt>
      <trkpt lat="44.41383" lon="1.80419">
        <ele>302.1</ele>
        <time>2022-04-10T13:11:07Z</time>
      </trkpt>
      <trkpt lat="44.41382" lon="1.80416">
        <ele>302.1</ele>
        <time>2022-04-10T13:11:09Z</time>
      </trkpt>
      <trkpt lat="44.41379" lon="1.80413">
        <ele>302.1</ele>
        <time>2022-04-10T13:11:10Z</time>
      </trkpt>
      <trkpt lat="44.41377" lon="1.80409">
        <ele>302</ele>
        <time>2022-04-10T13:11:11Z</time>
      </trkpt>
      <trkpt lat="44.41376" lon="1.80407">
        <ele>302</ele>
        <time>2022-04-10T13:11:12Z</time>
      </trkpt>
      <trkpt lat="44.41375" lon="1.80405">
        <ele>301.9</ele>
        <time>2022-04-10T13:11:13Z</time>
      </trkpt>
      <trkpt lat="44.41372" lon="1.80401">
        <ele>301.9</ele>
        <time>2022-04-10T13:11:15Z</time>
      </trkpt>
      <trkpt lat="44.4137" lon="1.80397">
        <ele>301.8</ele>
        <time>2022-04-10T13:11:16Z</time>
      </trkpt>
      <trkpt lat="44.41369" lon="1.80396">
        <ele>301.8</ele>
        <time>2022-04-10T13:11:17Z</time>
      </trkpt>
      <trkpt lat="44.41367" lon="1.80393">
        <ele>301.7</ele>
        <time>2022-04-10T13:11:18Z</time>
      </trkpt>
      <trkpt lat="44.41365" lon="1.80389">
        <ele>301.6</ele>
        <time>2022-04-10T13:11:19Z</time>
      </trkpt>
      <trkpt lat="44.41364" lon="1.80387">
        <ele>301.6</ele>
        <time>2022-04-10T13:11:20Z</time>
      </trkpt>
      <trkpt lat="44.41362" lon="1.80385">
        <ele>301.5</ele>
        <time>2022-04-10T13:11:21Z</time>
      </trkpt>
      <trkpt lat="44.4136" lon="1.80383">
        <ele>301.5</ele>
        <time>2022-04-10T13:11:22Z</time>
      </trkpt>
      <trkpt lat="44.41358" lon="1.8038">
        <ele>301.4</ele>
        <time>2022-04-10T13:11:23Z</time>
      </trkpt>
      <trkpt lat="44.41356" lon="1.80377">
        <ele>301.3</ele>
        <time>2022-04-10T13:11:24Z</time>
      </trkpt>
      <trkpt lat="44.41354" lon="1.80375">
        <ele>301.2</ele>
        <time>2022-04-10T13:11:25Z</time>
      </trkpt>
      <trkpt lat="44.41353" lon="1.80374">
        <ele>301.2</ele>
        <time>2022-04-10T13:11:26Z</time>
      </trkpt>
      <trkpt lat="44.41352" lon="1.80373">
        <ele>301.2</ele>
        <time>2022-04-10T13:11:27Z</time>
      </trkpt>
      <trkpt lat="44.41352" lon="1.80373">
        <ele>301.1</ele>
        <time>2022-04-10T13:11:28Z</time>
      </trkpt>
      <trkpt lat="44.41351" lon="1.80373">
        <ele>301.1</ele>
        <time>2022-04-10T13:11:29Z</time>
      </trkpt>
      <trkpt lat="44.41351" lon="1.80372">
        <ele>301.1</ele>
        <time>2022-04-10T13:11:30Z</time>
      </trkpt>
      <trkpt lat="44.4135" lon="1.80372">
        <ele>301.1</ele>
        <time>2022-04-10T13:11:31Z</time>
      </trkpt>
      <trkpt lat="44.41349" lon="1.80371">
        <ele>301</ele>
        <time>2022-04-10T13:11:32Z</time>
      </trkpt>
      <trkpt lat="44.41349" lon="1.80371">
        <ele>301</ele>
        <time>2022-04-10T13:11:34Z</time>
      </trkpt>
      <trkpt lat="44.41348" lon="1.8037">
        <ele>301</ele>
        <time>2022-04-10T13:11:35Z</time>
      </trkpt>
      <trkpt lat="44.41348" lon="1.8037">
        <ele>301</ele>
        <time>2022-04-10T13:11:36Z</time>
      </trkpt>
      <trkpt lat="44.41347" lon="1.80369">
        <ele>300.9</ele>
        <time>2022-04-10T13:11:37Z</time>
      </trkpt>
      <trkpt lat="44.41347" lon="1.80369">
        <ele>300.9</ele>
        <time>2022-04-10T13:17:55Z</time>
      </trkpt>
      <trkpt lat="44.41346" lon="1.80369">
        <ele>300.9</ele>
        <time>2022-04-10T13:17:56Z</time>
      </trkpt>
      <trkpt lat="44.41343" lon="1.80366">
        <ele>300.7</ele>
        <time>2022-04-10T13:17:57Z</time>
      </trkpt>
      <trkpt lat="44.4134" lon="1.80364">
        <ele>300.6</ele>
        <time>2022-04-10T13:17:58Z</time>
      </trkpt>
      <trkpt lat="44.41334" lon="1.8036">
        <ele>300.2</ele>
        <time>2022-04-10T13:17:59Z</time>
      </trkpt>
      <trkpt lat="44.41328" lon="1.80356">
        <ele>299.8</ele>
        <time>2022-04-10T13:18:00Z</time>
      </trkpt>
      <trkpt lat="44.41322" lon="1.80353">
        <ele>299.3</ele>
        <time>2022-04-10T13:18:01Z</time>
      </trkpt>
      <trkpt lat="44.41316" lon="1.80349">
        <ele>298.9</ele>
        <time>2022-04-10T13:18:02Z</time>
      </trkpt>
      <trkpt lat="44.4131" lon="1.80344">
        <ele>298.5</ele>
        <time>2022-04-10T13:18:03Z</time>
      </trkpt>
      <trkpt lat="44.41305" lon="1.80338">
        <ele>298</ele>
        <time>2022-04-10T13:18:04Z</time>
      </trkpt>
      <trkpt lat="44.413" lon="1.80329">
        <ele>297.4</ele>
        <time>2022-04-10T13:18:05Z</time>
      </trkpt>
      <trkpt lat="44.41297" lon="1.80319">
        <ele>296.7</ele>
        <time>2022-04-10T13:18:06Z</time>
      </trkpt>
      <trkpt lat="44.41296" lon="1.80308">
        <ele>296</ele>
        <time>2022-04-10T13:18:07Z</time>
      </trkpt>
      <trkpt lat="44.41297" lon="1.80296">
        <ele>295.2</ele>
        <time>2022-04-10T13:18:08Z</time>
      </trkpt>
      <trkpt lat="44.41298" lon="1.80284">
        <ele>294.3</ele>
        <time>2022-04-10T13:18:09Z</time>
      </trkpt>
      <trkpt lat="44.413" lon="1.80271">
        <ele>293.4</ele>
        <time>2022-04-10T13:18:10Z</time>
      </trkpt>
      <trkpt lat="44.413" lon="1.80258">
        <ele>292.4</ele>
        <time>2022-04-10T13:18:11Z</time>
      </trkpt>
      <trkpt lat="44.41299" lon="1.80245">
        <ele>291.5</ele>
        <time>2022-04-10T13:18:12Z</time>
      </trkpt>
      <trkpt lat="44.41295" lon="1.80232">
        <ele>290.5</ele>
        <time>2022-04-10T13:18:13Z</time>
      </trkpt>
      <trkpt lat="44.4129" lon="1.80221">
        <ele>289.8</ele>
        <time>2022-04-10T13:18:14Z</time>
      </trkpt>
      <trkpt lat="44.41285" lon="1.80212">
        <ele>289.1</ele>
        <time>2022-04-10T13:18:15Z</time>
      </trkpt>
      <trkpt lat="44.4128" lon="1.80207">
        <ele>288.7</ele>
        <time>2022-04-10T13:18:16Z</time>
      </trkpt>
      <trkpt lat="44.41276" lon="1.80203">
        <ele>288.4</ele>
        <time>2022-04-10T13:18:17Z</time>
      </trkpt>
      <trkpt lat="44.41272" lon="1.802">
        <ele>288</ele>
        <time>2022-04-10T13:18:18Z</time>
      </trkpt>
      <trkpt lat="44.41267" lon="1.80199">
        <ele>287.6</ele>
        <time>2022-04-10T13:18:19Z</time>
      </trkpt>
      <trkpt lat="44.41262" lon="1.80197">
        <ele>287.4</ele>
        <time>2022-04-10T13:18:20Z</time>
      </trkpt>
      <trkpt lat="44.41257" lon="1.80196">
        <ele>287.3</ele>
        <time>2022-04-10T13:18:21Z</time>
      </trkpt>
      <trkpt lat="44.41254" lon="1.80197">
        <ele>287.2</ele>
        <time>2022-04-10T13:18:22Z</time>
      </trkpt>
      <trkpt lat="44.41252" lon="1.80197">
        <ele>287.1</ele>
        <time>2022-04-10T13:18:23Z</time>
      </trkpt>
      <trkpt lat="44.41252" lon="1.80198">
        <ele>287.1</ele>
        <time>2022-04-10T13:18:24Z</time>
      </trkpt>
      <trkpt lat="44.41252" lon="1.80198">
        <ele>287.1</ele>
        <time>2022-04-10T13:18:25Z</time>
      </trkpt>
      <trkpt lat="44.41252" lon="1.80199">
        <ele>287.1</ele>
        <time>2022-04-10T13:18:26Z</time>
      </trkpt>
      <trkpt lat="44.41252" lon="1.80199">
        <ele>287.1</ele>
        <time>2022-04-10T13:18:27Z</time>
      </trkpt>
      <trkpt lat="44.41252" lon="1.80199">
        <ele>287.1</ele>
        <time>2022-04-10T13:18:28Z</time>
      </trkpt>
      <trkpt lat="44.41252" lon="1.80199">
        <ele>287.1</ele>
        <time>2022-04-10T13:18:34Z</time>
      </trkpt>
      <trkpt lat="44.41249" lon="1.80198">
        <ele>287</ele>
        <time>2022-04-10T13:19:07Z</time>
      </trkpt>
      <trkpt lat="44.41246" lon="1.80197">
        <ele>286.9</ele>
        <time>2022-04-10T13:19:08Z</time>
      </trkpt>
      <trkpt lat="44.41243" lon="1.80196">
        <ele>286.9</ele>
        <time>2022-04-10T13:19:09Z</time>
      </trkpt>
      <trkpt lat="44.41239" lon="1.80195">
        <ele>286.8</ele>
        <time>2022-04-10T13:19:10Z</time>
      </trkpt>
      <trkpt lat="44.41236" lon="1.80194">
        <ele>286.8</ele>
        <time>2022-04-10T13:19:11Z</time>
      </trkpt>
      <trkpt lat="44.41232" lon="1.80191">
        <ele>286.7</ele>
        <time>2022-04-10T13:19:12Z</time>
      </trkpt>
      <trkpt lat="44.41227" lon="1.80188">
        <ele>286.7</ele>
        <time>2022-04-10T13:19:13Z</time>
      </trkpt>
      <trkpt lat="44.41224" lon="1.80184">
        <ele>286.6</ele>
        <time>2022-04-10T13:19:14Z</time>
      </trkpt>
      <trkpt lat="44.41221" lon="1.8018">
        <ele>286.6</ele>
        <time>2022-04-10T13:19:15Z</time>
      </trkpt>
      <trkpt lat="44.41219" lon="1.80177">
        <ele>286.5</ele>
        <time>2022-04-10T13:19:16Z</time>
      </trkpt>
      <trkpt lat="44.41215" lon="1.80171">
        <ele>286.5</ele>
        <time>2022-04-10T13:19:17Z</time>
      </trkpt>
      <trkpt lat="44.41211" lon="1.80165">
        <ele>286.4</ele>
        <time>2022-04-10T13:19:18Z</time>
      </trkpt>
      <trkpt lat="44.41207" lon="1.80158">
        <ele>286.4</ele>
        <time>2022-04-10T13:19:19Z</time>
      </trkpt>
      <trkpt lat="44.41205" lon="1.80151">
        <ele>286.3</ele>
        <time>2022-04-10T13:19:20Z</time>
      </trkpt>
      <trkpt lat="44.41202" lon="1.80144">
        <ele>286.2</ele>
        <time>2022-04-10T13:19:21Z</time>
      </trkpt>
      <trkpt lat="44.412" lon="1.80136">
        <ele>286.2</ele>
        <time>2022-04-10T13:19:22Z</time>
      </trkpt>
      <trkpt lat="44.41199" lon="1.80127">
        <ele>286.2</ele>
        <time>2022-04-10T13:19:23Z</time>
      </trkpt>
      <trkpt lat="44.41198" lon="1.80118">
        <ele>286.2</ele>
        <time>2022-04-10T13:19:24Z</time>
      </trkpt>
      <trkpt lat="44.41197" lon="1.8011">
        <ele>286.3</ele>
        <time>2022-04-10T13:19:25Z</time>
      </trkpt>
      <trkpt lat="44.41197" lon="1.80102">
        <ele>286.4</ele>
        <time>2022-04-10T13:19:26Z</time>
      </trkpt>
      <trkpt lat="44.41198" lon="1.80094">
        <ele>286.5</ele>
        <time>2022-04-10T13:19:27Z</time>
      </trkpt>
      <trkpt lat="44.41199" lon="1.80087">
        <ele>286.6</ele>
        <time>2022-04-10T13:19:28Z</time>
      </trkpt>
      <trkpt lat="44.412" lon="1.8008">
        <ele>286.6</ele>
        <time>2022-04-10T13:19:29Z</time>
      </trkpt>
      <trkpt lat="44.412" lon="1.80074">
        <ele>286.7</ele>
        <time>2022-04-10T13:19:30Z</time>
      </trkpt>
      <trkpt lat="44.41201" lon="1.80068">
        <ele>286.8</ele>
        <time>2022-04-10T13:19:31Z</time>
      </trkpt>
      <trkpt lat="44.41203" lon="1.80062">
        <ele>286.9</ele>
        <time>2022-04-10T13:19:32Z</time>
      </trkpt>
      <trkpt lat="44.41204" lon="1.80055">
        <ele>286.9</ele>
        <time>2022-04-10T13:19:33Z</time>
      </trkpt>
      <trkpt lat="44.41205" lon="1.80049">
        <ele>287</ele>
        <time>2022-04-10T13:19:34Z</time>
      </trkpt>
      <trkpt lat="44.41207" lon="1.80043">
        <ele>287.1</ele>
        <time>2022-04-10T13:19:35Z</time>
      </trkpt>
      <trkpt lat="44.41209" lon="1.80036">
        <ele>287.2</ele>
        <time>2022-04-10T13:19:36Z</time>
      </trkpt>
      <trkpt lat="44.4121" lon="1.8003">
        <ele>287.2</ele>
        <time>2022-04-10T13:19:37Z</time>
      </trkpt>
      <trkpt lat="44.41211" lon="1.80022">
        <ele>287.3</ele>
        <time>2022-04-10T13:19:38Z</time>
      </trkpt>
      <trkpt lat="44.41212" lon="1.80015">
        <ele>287.4</ele>
        <time>2022-04-10T13:19:39Z</time>
      </trkpt>
      <trkpt lat="44.41214" lon="1.80008">
        <ele>287.5</ele>
        <time>2022-04-10T13:19:40Z</time>
      </trkpt>
      <trkpt lat="44.41215" lon="1.8">
        <ele>287.5</ele>
        <time>2022-04-10T13:19:41Z</time>
      </trkpt>
      <trkpt lat="44.41216" lon="1.79992">
        <ele>287.6</ele>
        <time>2022-04-10T13:19:42Z</time>
      </trkpt>
      <trkpt lat="44.41218" lon="1.79984">
        <ele>287.7</ele>
        <time>2022-04-10T13:19:43Z</time>
      </trkpt>
      <trkpt lat="44.41219" lon="1.79977">
        <ele>287.7</ele>
        <time>2022-04-10T13:19:44Z</time>
      </trkpt>
      <trkpt lat="44.4122" lon="1.7997">
        <ele>287.8</ele>
        <time>2022-04-10T13:19:45Z</time>
      </trkpt>
      <trkpt lat="44.41221" lon="1.79962">
        <ele>287.9</ele>
        <time>2022-04-10T13:19:46Z</time>
      </trkpt>
      <trkpt lat="44.41222" lon="1.79955">
        <ele>287.8</ele>
        <time>2022-04-10T13:19:47Z</time>
      </trkpt>
      <trkpt lat="44.41224" lon="1.79949">
        <ele>287.8</ele>
        <time>2022-04-10T13:19:48Z</time>
      </trkpt>
      <trkpt lat="44.41225" lon="1.79942">
        <ele>287.8</ele>
        <time>2022-04-10T13:19:49Z</time>
      </trkpt>
      <trkpt lat="44.41227" lon="1.79936">
        <ele>287.8</ele>
        <time>2022-04-10T13:19:50Z</time>
      </trkpt>
      <trkpt lat="44.41228" lon="1.7993">
        <ele>287.8</ele>
        <time>2022-04-10T13:19:51Z</time>
      </trkpt>
      <trkpt lat="44.4123" lon="1.79925">
        <ele>287.8</ele>
        <time>2022-04-10T13:19:52Z</time>
      </trkpt>
      <trkpt lat="44.41231" lon="1.7992">
        <ele>287.8</ele>
        <time>2022-04-10T13:19:53Z</time>
      </trkpt>
      <trkpt lat="44.41232" lon="1.79914">
        <ele>287.8</ele>
        <time>2022-04-10T13:19:54Z</time>
      </trkpt>
      <trkpt lat="44.41233" lon="1.7991">
        <ele>287.8</ele>
        <time>2022-04-10T13:19:55Z</time>
      </trkpt>
      <trkpt lat="44.41233" lon="1.79905">
        <ele>287.8</ele>
        <time>2022-04-10T13:19:56Z</time>
      </trkpt>
      <trkpt lat="44.41235" lon="1.799">
        <ele>287.9</ele>
        <time>2022-04-10T13:19:57Z</time>
      </trkpt>
      <trkpt lat="44.41235" lon="1.79896">
        <ele>287.9</ele>
        <time>2022-04-10T13:19:58Z</time>
      </trkpt>
      <trkpt lat="44.41236" lon="1.79895">
        <ele>287.9</ele>
        <time>2022-04-10T13:19:59Z</time>
      </trkpt>
      <trkpt lat="44.41238" lon="1.79888">
        <ele>287.9</ele>
        <time>2022-04-10T13:20:00Z</time>
      </trkpt>
      <trkpt lat="44.41239" lon="1.79882">
        <ele>287.9</ele>
        <time>2022-04-10T13:20:01Z</time>
      </trkpt>
      <trkpt lat="44.4124" lon="1.79876">
        <ele>288</ele>
        <time>2022-04-10T13:20:02Z</time>
      </trkpt>
      <trkpt lat="44.4124" lon="1.79871">
        <ele>288</ele>
        <time>2022-04-10T13:20:03Z</time>
      </trkpt>
      <trkpt lat="44.4124" lon="1.79868">
        <ele>288.2</ele>
        <time>2022-04-10T13:20:04Z</time>
      </trkpt>
      <trkpt lat="44.4124" lon="1.79861">
        <ele>288.4</ele>
        <time>2022-04-10T13:20:06Z</time>
      </trkpt>
      <trkpt lat="44.4124" lon="1.79858">
        <ele>288.6</ele>
        <time>2022-04-10T13:20:07Z</time>
      </trkpt>
      <trkpt lat="44.41241" lon="1.79852">
        <ele>288.8</ele>
        <time>2022-04-10T13:20:08Z</time>
      </trkpt>
      <trkpt lat="44.41241" lon="1.79848">
        <ele>288.9</ele>
        <time>2022-04-10T13:20:09Z</time>
      </trkpt>
      <trkpt lat="44.41241" lon="1.7984">
        <ele>289.2</ele>
        <time>2022-04-10T13:20:11Z</time>
      </trkpt>
      <trkpt lat="44.41241" lon="1.79834">
        <ele>289.4</ele>
        <time>2022-04-10T13:20:12Z</time>
      </trkpt>
      <trkpt lat="44.4124" lon="1.79826">
        <ele>289.7</ele>
        <time>2022-04-10T13:20:13Z</time>
      </trkpt>
      <trkpt lat="44.41239" lon="1.7982">
        <ele>289.9</ele>
        <time>2022-04-10T13:20:14Z</time>
      </trkpt>
      <trkpt lat="44.41239" lon="1.79813">
        <ele>290.1</ele>
        <time>2022-04-10T13:20:15Z</time>
      </trkpt>
      <trkpt lat="44.41239" lon="1.79807">
        <ele>290.3</ele>
        <time>2022-04-10T13:20:16Z</time>
      </trkpt>
      <trkpt lat="44.41238" lon="1.798">
        <ele>290.5</ele>
        <time>2022-04-10T13:20:17Z</time>
      </trkpt>
      <trkpt lat="44.41237" lon="1.79794">
        <ele>290.8</ele>
        <time>2022-04-10T13:20:18Z</time>
      </trkpt>
      <trkpt lat="44.41236" lon="1.79787">
        <ele>291</ele>
        <time>2022-04-10T13:20:19Z</time>
      </trkpt>
      <trkpt lat="44.41234" lon="1.79781">
        <ele>291.2</ele>
        <time>2022-04-10T13:20:20Z</time>
      </trkpt>
      <trkpt lat="44.41233" lon="1.79774">
        <ele>291.5</ele>
        <time>2022-04-10T13:20:21Z</time>
      </trkpt>
      <trkpt lat="44.41229" lon="1.79767">
        <ele>291.7</ele>
        <time>2022-04-10T13:20:23Z</time>
      </trkpt>
      <trkpt lat="44.41228" lon="1.79762">
        <ele>291.9</ele>
        <time>2022-04-10T13:20:24Z</time>
      </trkpt>
      <trkpt lat="44.41226" lon="1.79755">
        <ele>292.1</ele>
        <time>2022-04-10T13:20:25Z</time>
      </trkpt>
      <trkpt lat="44.41224" lon="1.79749">
        <ele>292.3</ele>
        <time>2022-04-10T13:20:26Z</time>
      </trkpt>
      <trkpt lat="44.41221" lon="1.79744">
        <ele>292.3</ele>
        <time>2022-04-10T13:20:27Z</time>
      </trkpt>
      <trkpt lat="44.41218" lon="1.79739">
        <ele>292.3</ele>
        <time>2022-04-10T13:20:28Z</time>
      </trkpt>
      <trkpt lat="44.41217" lon="1.79735">
        <ele>292.3</ele>
        <time>2022-04-10T13:20:29Z</time>
      </trkpt>
      <trkpt lat="44.41214" lon="1.7973">
        <ele>292.2</ele>
        <time>2022-04-10T13:20:30Z</time>
      </trkpt>
      <trkpt lat="44.41212" lon="1.79726">
        <ele>292.1</ele>
        <time>2022-04-10T13:20:31Z</time>
      </trkpt>
      <trkpt lat="44.4121" lon="1.7972">
        <ele>292.1</ele>
        <time>2022-04-10T13:20:32Z</time>
      </trkpt>
      <trkpt lat="44.41208" lon="1.79714">
        <ele>292.1</ele>
        <time>2022-04-10T13:20:33Z</time>
      </trkpt>
      <trkpt lat="44.41205" lon="1.79709">
        <ele>292.2</ele>
        <time>2022-04-10T13:20:34Z</time>
      </trkpt>
      <trkpt lat="44.41202" lon="1.79703">
        <ele>292.3</ele>
        <time>2022-04-10T13:20:35Z</time>
      </trkpt>
      <trkpt lat="44.412" lon="1.79696">
        <ele>292.3</ele>
        <time>2022-04-10T13:20:36Z</time>
      </trkpt>
      <trkpt lat="44.41197" lon="1.7969">
        <ele>292.4</ele>
        <time>2022-04-10T13:20:37Z</time>
      </trkpt>
      <trkpt lat="44.41195" lon="1.79684">
        <ele>292.5</ele>
        <time>2022-04-10T13:20:38Z</time>
      </trkpt>
      <trkpt lat="44.41192" lon="1.79677">
        <ele>292.7</ele>
        <time>2022-04-10T13:20:39Z</time>
      </trkpt>
      <trkpt lat="44.4119" lon="1.7967">
        <ele>292.9</ele>
        <time>2022-04-10T13:20:40Z</time>
      </trkpt>
      <trkpt lat="44.41188" lon="1.79662">
        <ele>293.2</ele>
        <time>2022-04-10T13:20:41Z</time>
      </trkpt>
      <trkpt lat="44.41185" lon="1.79655">
        <ele>293.4</ele>
        <time>2022-04-10T13:20:42Z</time>
      </trkpt>
      <trkpt lat="44.41183" lon="1.79647">
        <ele>293.5</ele>
        <time>2022-04-10T13:20:43Z</time>
      </trkpt>
      <trkpt lat="44.41181" lon="1.7964">
        <ele>293.6</ele>
        <time>2022-04-10T13:20:44Z</time>
      </trkpt>
      <trkpt lat="44.41179" lon="1.79633">
        <ele>293.7</ele>
        <time>2022-04-10T13:20:45Z</time>
      </trkpt>
      <trkpt lat="44.41178" lon="1.79625">
        <ele>293.8</ele>
        <time>2022-04-10T13:20:46Z</time>
      </trkpt>
      <trkpt lat="44.41176" lon="1.79618">
        <ele>293.9</ele>
        <time>2022-04-10T13:20:47Z</time>
      </trkpt>
      <trkpt lat="44.41175" lon="1.7961">
        <ele>293.8</ele>
        <time>2022-04-10T13:20:48Z</time>
      </trkpt>
      <trkpt lat="44.41174" lon="1.79602">
        <ele>293.8</ele>
        <time>2022-04-10T13:20:49Z</time>
      </trkpt>
      <trkpt lat="44.41173" lon="1.79594">
        <ele>293.7</ele>
        <time>2022-04-10T13:20:50Z</time>
      </trkpt>
      <trkpt lat="44.41171" lon="1.79587">
        <ele>293.8</ele>
        <time>2022-04-10T13:20:51Z</time>
      </trkpt>
      <trkpt lat="44.4117" lon="1.79579">
        <ele>293.9</ele>
        <time>2022-04-10T13:20:52Z</time>
      </trkpt>
      <trkpt lat="44.41169" lon="1.79571">
        <ele>294.1</ele>
        <time>2022-04-10T13:20:53Z</time>
      </trkpt>
      <trkpt lat="44.41168" lon="1.79564">
        <ele>294.2</ele>
        <time>2022-04-10T13:20:54Z</time>
      </trkpt>
      <trkpt lat="44.41168" lon="1.79556">
        <ele>294.3</ele>
        <time>2022-04-10T13:20:55Z</time>
      </trkpt>
      <trkpt lat="44.41167" lon="1.79548">
        <ele>294.4</ele>
        <time>2022-04-10T13:20:56Z</time>
      </trkpt>
      <trkpt lat="44.41166" lon="1.7954">
        <ele>294.5</ele>
        <time>2022-04-10T13:20:57Z</time>
      </trkpt>
      <trkpt lat="44.41165" lon="1.79532">
        <ele>294.7</ele>
        <time>2022-04-10T13:20:58Z</time>
      </trkpt>
      <trkpt lat="44.41165" lon="1.79524">
        <ele>294.9</ele>
        <time>2022-04-10T13:20:59Z</time>
      </trkpt>
      <trkpt lat="44.41164" lon="1.79516">
        <ele>295.2</ele>
        <time>2022-04-10T13:21:00Z</time>
      </trkpt>
      <trkpt lat="44.41163" lon="1.79508">
        <ele>295.4</ele>
        <time>2022-04-10T13:21:01Z</time>
      </trkpt>
      <trkpt lat="44.41163" lon="1.795">
        <ele>295.6</ele>
        <time>2022-04-10T13:21:02Z</time>
      </trkpt>
      <trkpt lat="44.41161" lon="1.79492">
        <ele>295.7</ele>
        <time>2022-04-10T13:21:03Z</time>
      </trkpt>
      <trkpt lat="44.4116" lon="1.79484">
        <ele>295.8</ele>
        <time>2022-04-10T13:21:04Z</time>
      </trkpt>
      <trkpt lat="44.41159" lon="1.79477">
        <ele>295.9</ele>
        <time>2022-04-10T13:21:05Z</time>
      </trkpt>
      <trkpt lat="44.41157" lon="1.7947">
        <ele>295.9</ele>
        <time>2022-04-10T13:21:06Z</time>
      </trkpt>
      <trkpt lat="44.41155" lon="1.79464">
        <ele>295.9</ele>
        <time>2022-04-10T13:21:07Z</time>
      </trkpt>
      <trkpt lat="44.41154" lon="1.79457">
        <ele>295.8</ele>
        <time>2022-04-10T13:21:08Z</time>
      </trkpt>
      <trkpt lat="44.41152" lon="1.7945">
        <ele>295.7</ele>
        <time>2022-04-10T13:21:09Z</time>
      </trkpt>
      <trkpt lat="44.41149" lon="1.79443">
        <ele>295.6</ele>
        <time>2022-04-10T13:21:10Z</time>
      </trkpt>
      <trkpt lat="44.41146" lon="1.79436">
        <ele>295.5</ele>
        <time>2022-04-10T13:21:11Z</time>
      </trkpt>
      <trkpt lat="44.41143" lon="1.7943">
        <ele>295.4</ele>
        <time>2022-04-10T13:21:12Z</time>
      </trkpt>
      <trkpt lat="44.41139" lon="1.79424">
        <ele>295.3</ele>
        <time>2022-04-10T13:21:13Z</time>
      </trkpt>
      <trkpt lat="44.41135" lon="1.79418">
        <ele>295.2</ele>
        <time>2022-04-10T13:21:14Z</time>
      </trkpt>
      <trkpt lat="44.4113" lon="1.79412">
        <ele>295</ele>
        <time>2022-04-10T13:21:15Z</time>
      </trkpt>
      <trkpt lat="44.41125" lon="1.79407">
        <ele>294.8</ele>
        <time>2022-04-10T13:21:16Z</time>
      </trkpt>
      <trkpt lat="44.4112" lon="1.79402">
        <ele>294.6</ele>
        <time>2022-04-10T13:21:17Z</time>
      </trkpt>
      <trkpt lat="44.41115" lon="1.79397">
        <ele>294.4</ele>
        <time>2022-04-10T13:21:18Z</time>
      </trkpt>
      <trkpt lat="44.41109" lon="1.79394">
        <ele>294.2</ele>
        <time>2022-04-10T13:21:19Z</time>
      </trkpt>
      <trkpt lat="44.41104" lon="1.7939">
        <ele>294</ele>
        <time>2022-04-10T13:21:20Z</time>
      </trkpt>
      <trkpt lat="44.41098" lon="1.79386">
        <ele>293.8</ele>
        <time>2022-04-10T13:21:21Z</time>
      </trkpt>
      <trkpt lat="44.41092" lon="1.79384">
        <ele>293.6</ele>
        <time>2022-04-10T13:21:22Z</time>
      </trkpt>
      <trkpt lat="44.41086" lon="1.79382">
        <ele>293.4</ele>
        <time>2022-04-10T13:21:23Z</time>
      </trkpt>
      <trkpt lat="44.41079" lon="1.79382">
        <ele>293.2</ele>
        <time>2022-04-10T13:21:24Z</time>
      </trkpt>
      <trkpt lat="44.41073" lon="1.79382">
        <ele>293</ele>
        <time>2022-04-10T13:21:25Z</time>
      </trkpt>
      <trkpt lat="44.41067" lon="1.79383">
        <ele>292.8</ele>
        <time>2022-04-10T13:21:26Z</time>
      </trkpt>
      <trkpt lat="44.41061" lon="1.79383">
        <ele>292.6</ele>
        <time>2022-04-10T13:21:27Z</time>
      </trkpt>
      <trkpt lat="44.41054" lon="1.79385">
        <ele>292.4</ele>
        <time>2022-04-10T13:21:28Z</time>
      </trkpt>
      <trkpt lat="44.41048" lon="1.79387">
        <ele>292.2</ele>
        <time>2022-04-10T13:21:29Z</time>
      </trkpt>
      <trkpt lat="44.41042" lon="1.79389">
        <ele>292</ele>
        <time>2022-04-10T13:21:30Z</time>
      </trkpt>
      <trkpt lat="44.41035" lon="1.7939">
        <ele>291.8</ele>
        <time>2022-04-10T13:21:31Z</time>
      </trkpt>
      <trkpt lat="44.41029" lon="1.79391">
        <ele>291.5</ele>
        <time>2022-04-10T13:21:32Z</time>
      </trkpt>
      <trkpt lat="44.41023" lon="1.79392">
        <ele>291.3</ele>
        <time>2022-04-10T13:21:33Z</time>
      </trkpt>
      <trkpt lat="44.41016" lon="1.79394">
        <ele>291.1</ele>
        <time>2022-04-10T13:21:34Z</time>
      </trkpt>
      <trkpt lat="44.41009" lon="1.79396">
        <ele>290.9</ele>
        <time>2022-04-10T13:21:35Z</time>
      </trkpt>
      <trkpt lat="44.41002" lon="1.79398">
        <ele>290.7</ele>
        <time>2022-04-10T13:21:36Z</time>
      </trkpt>
      <trkpt lat="44.40995" lon="1.79399">
        <ele>290.4</ele>
        <time>2022-04-10T13:21:37Z</time>
      </trkpt>
      <trkpt lat="44.40988" lon="1.79401">
        <ele>290.2</ele>
        <time>2022-04-10T13:21:38Z</time>
      </trkpt>
      <trkpt lat="44.40981" lon="1.79403">
        <ele>290</ele>
        <time>2022-04-10T13:21:39Z</time>
      </trkpt>
      <trkpt lat="44.40973" lon="1.79404">
        <ele>289.7</ele>
        <time>2022-04-10T13:21:40Z</time>
      </trkpt>
      <trkpt lat="44.40966" lon="1.79405">
        <ele>289.5</ele>
        <time>2022-04-10T13:21:41Z</time>
      </trkpt>
      <trkpt lat="44.40958" lon="1.79405">
        <ele>289.2</ele>
        <time>2022-04-10T13:21:42Z</time>
      </trkpt>
      <trkpt lat="44.4095" lon="1.79404">
        <ele>289</ele>
        <time>2022-04-10T13:21:43Z</time>
      </trkpt>
      <trkpt lat="44.40942" lon="1.79402">
        <ele>288.7</ele>
        <time>2022-04-10T13:21:44Z</time>
      </trkpt>
      <trkpt lat="44.40934" lon="1.79399">
        <ele>288.5</ele>
        <time>2022-04-10T13:21:45Z</time>
      </trkpt>
      <trkpt lat="44.40927" lon="1.79395">
        <ele>288.2</ele>
        <time>2022-04-10T13:21:46Z</time>
      </trkpt>
      <trkpt lat="44.4092" lon="1.7939">
        <ele>287.9</ele>
        <time>2022-04-10T13:21:47Z</time>
      </trkpt>
      <trkpt lat="44.40914" lon="1.79385">
        <ele>286.4</ele>
        <time>2022-04-10T13:21:48Z</time>
      </trkpt>
      <trkpt lat="44.40908" lon="1.79378">
        <ele>285.7</ele>
        <time>2022-04-10T13:21:49Z</time>
      </trkpt>
      <trkpt lat="44.40903" lon="1.7937">
        <ele>285.1</ele>
        <time>2022-04-10T13:21:50Z</time>
      </trkpt>
      <trkpt lat="44.40898" lon="1.79362">
        <ele>284.6</ele>
        <time>2022-04-10T13:21:51Z</time>
      </trkpt>
      <trkpt lat="44.40894" lon="1.79353">
        <ele>284.2</ele>
        <time>2022-04-10T13:21:52Z</time>
      </trkpt>
      <trkpt lat="44.40889" lon="1.79345">
        <ele>283.7</ele>
        <time>2022-04-10T13:21:53Z</time>
      </trkpt>
      <trkpt lat="44.40884" lon="1.79337">
        <ele>283.3</ele>
        <time>2022-04-10T13:21:54Z</time>
      </trkpt>
      <trkpt lat="44.4088" lon="1.79331">
        <ele>282.9</ele>
        <time>2022-04-10T13:21:55Z</time>
      </trkpt>
      <trkpt lat="44.40877" lon="1.79328">
        <ele>282.7</ele>
        <time>2022-04-10T13:21:56Z</time>
      </trkpt>
      <trkpt lat="44.40876" lon="1.79327">
        <ele>282.7</ele>
        <time>2022-04-10T13:21:57Z</time>
      </trkpt>
      <trkpt lat="44.40875" lon="1.79327">
        <ele>282.6</ele>
        <time>2022-04-10T13:21:58Z</time>
      </trkpt>
      <trkpt lat="44.40875" lon="1.79328">
        <ele>282.6</ele>
        <time>2022-04-10T13:21:59Z</time>
      </trkpt>
      <trkpt lat="44.40876" lon="1.79328">
        <ele>282.6</ele>
        <time>2022-04-10T13:22:00Z</time>
      </trkpt>
      <trkpt lat="44.40876" lon="1.79328">
        <ele>282.6</ele>
        <time>2022-04-10T13:22:01Z</time>
      </trkpt>
      <trkpt lat="44.40876" lon="1.79328">
        <ele>282.6</ele>
        <time>2022-04-10T13:22:02Z</time>
      </trkpt>
      <trkpt lat="44.40876" lon="1.79328">
        <ele>282.6</ele>
        <time>2022-04-10T13:22:03Z</time>
      </trkpt>
      <trkpt lat="44.40876" lon="1.79328">
        <ele>282.6</ele>
        <time>2022-04-10T13:22:04Z</time>
      </trkpt>
      <trkpt lat="44.40876" lon="1.79328">
        <ele>282.6</ele>
        <time>2022-04-10T13:22:05Z</time>
      </trkpt>
      <trkpt lat="44.40876" lon="1.79328">
        <ele>282.6</ele>
        <time>2022-04-10T13:22:06Z</time>
      </trkpt>
      <trkpt lat="44.40874" lon="1.79329">
        <ele>282.5</ele>
        <time>2022-04-10T13:22:07Z</time>
      </trkpt>
      <trkpt lat="44.40871" lon="1.79328">
        <ele>282.4</ele>
        <time>2022-04-10T13:22:09Z</time>
      </trkpt>
      <trkpt lat="44.4087" lon="1.79327">
        <ele>282.4</ele>
        <time>2022-04-10T13:22:10Z</time>
      </trkpt>
      <trkpt lat="44.40868" lon="1.79321">
        <ele>282.2</ele>
        <time>2022-04-10T13:22:12Z</time>
      </trkpt>
      <trkpt lat="44.40867" lon="1.79316">
        <ele>282.1</ele>
        <time>2022-04-10T13:22:13Z</time>
      </trkpt>
      <trkpt lat="44.40863" lon="1.7931">
        <ele>282</ele>
        <time>2022-04-10T13:22:14Z</time>
      </trkpt>
      <trkpt lat="44.4086" lon="1.79304">
        <ele>282</ele>
        <time>2022-04-10T13:22:15Z</time>
      </trkpt>
      <trkpt lat="44.40857" lon="1.79298">
        <ele>282</ele>
        <time>2022-04-10T13:22:16Z</time>
      </trkpt>
      <trkpt lat="44.40854" lon="1.79292">
        <ele>282</ele>
        <time>2022-04-10T13:22:17Z</time>
      </trkpt>
      <trkpt lat="44.40851" lon="1.79285">
        <ele>282.1</ele>
        <time>2022-04-10T13:22:18Z</time>
      </trkpt>
      <trkpt lat="44.40847" lon="1.79278">
        <ele>282.2</ele>
        <time>2022-04-10T13:22:19Z</time>
      </trkpt>
      <trkpt lat="44.40843" lon="1.79271">
        <ele>282.3</ele>
        <time>2022-04-10T13:22:20Z</time>
      </trkpt>
      <trkpt lat="44.4084" lon="1.79265">
        <ele>282.4</ele>
        <time>2022-04-10T13:22:21Z</time>
      </trkpt>
      <trkpt lat="44.40836" lon="1.79258">
        <ele>282.6</ele>
        <time>2022-04-10T13:22:22Z</time>
      </trkpt>
      <trkpt lat="44.40833" lon="1.79251">
        <ele>282.9</ele>
        <time>2022-04-10T13:22:23Z</time>
      </trkpt>
      <trkpt lat="44.4083" lon="1.79245">
        <ele>283.1</ele>
        <time>2022-04-10T13:22:24Z</time>
      </trkpt>
      <trkpt lat="44.40828" lon="1.79239">
        <ele>283.4</ele>
        <time>2022-04-10T13:22:25Z</time>
      </trkpt>
      <trkpt lat="44.40825" lon="1.79233">
        <ele>283.7</ele>
        <time>2022-04-10T13:22:26Z</time>
      </trkpt>
      <trkpt lat="44.40822" lon="1.79228">
        <ele>284</ele>
        <time>2022-04-10T13:22:27Z</time>
      </trkpt>
      <trkpt lat="44.40819" lon="1.79222">
        <ele>284.3</ele>
        <time>2022-04-10T13:22:28Z</time>
      </trkpt>
      <trkpt lat="44.40816" lon="1.79216">
        <ele>284.7</ele>
        <time>2022-04-10T13:22:29Z</time>
      </trkpt>
      <trkpt lat="44.40813" lon="1.7921">
        <ele>285</ele>
        <time>2022-04-10T13:22:30Z</time>
      </trkpt>
      <trkpt lat="44.4081" lon="1.79205">
        <ele>285.4</ele>
        <time>2022-04-10T13:22:31Z</time>
      </trkpt>
      <trkpt lat="44.40807" lon="1.792">
        <ele>285.7</ele>
        <time>2022-04-10T13:22:32Z</time>
      </trkpt>
      <trkpt lat="44.40805" lon="1.79196">
        <ele>286</ele>
        <time>2022-04-10T13:22:33Z</time>
      </trkpt>
      <trkpt lat="44.40802" lon="1.79191">
        <ele>286.3</ele>
        <time>2022-04-10T13:22:34Z</time>
      </trkpt>
      <trkpt lat="44.408" lon="1.79186">
        <ele>286.6</ele>
        <time>2022-04-10T13:22:35Z</time>
      </trkpt>
      <trkpt lat="44.40797" lon="1.79182">
        <ele>286.9</ele>
        <time>2022-04-10T13:22:36Z</time>
      </trkpt>
      <trkpt lat="44.40795" lon="1.79178">
        <ele>287.2</ele>
        <time>2022-04-10T13:22:37Z</time>
      </trkpt>
      <trkpt lat="44.40794" lon="1.79175">
        <ele>287.4</ele>
        <time>2022-04-10T13:22:38Z</time>
      </trkpt>
      <trkpt lat="44.40794" lon="1.79174">
        <ele>287.5</ele>
        <time>2022-04-10T13:22:39Z</time>
      </trkpt>
      <trkpt lat="44.40791" lon="1.79169">
        <ele>287.8</ele>
        <time>2022-04-10T13:22:40Z</time>
      </trkpt>
      <trkpt lat="44.40788" lon="1.79165">
        <ele>288.2</ele>
        <time>2022-04-10T13:22:41Z</time>
      </trkpt>
      <trkpt lat="44.40785" lon="1.79161">
        <ele>288.5</ele>
        <time>2022-04-10T13:22:42Z</time>
      </trkpt>
      <trkpt lat="44.40783" lon="1.79156">
        <ele>288.8</ele>
        <time>2022-04-10T13:22:43Z</time>
      </trkpt>
      <trkpt lat="44.40781" lon="1.79152">
        <ele>289.1</ele>
        <time>2022-04-10T13:22:44Z</time>
      </trkpt>
      <trkpt lat="44.40778" lon="1.79148">
        <ele>289.4</ele>
        <time>2022-04-10T13:22:45Z</time>
      </trkpt>
      <trkpt lat="44.40776" lon="1.79143">
        <ele>289.7</ele>
        <time>2022-04-10T13:22:46Z</time>
      </trkpt>
      <trkpt lat="44.40774" lon="1.79139">
        <ele>290</ele>
        <time>2022-04-10T13:22:47Z</time>
      </trkpt>
      <trkpt lat="44.40772" lon="1.79135">
        <ele>290.3</ele>
        <time>2022-04-10T13:22:48Z</time>
      </trkpt>
      <trkpt lat="44.4077" lon="1.7913">
        <ele>290.7</ele>
        <time>2022-04-10T13:22:49Z</time>
      </trkpt>
      <trkpt lat="44.40768" lon="1.79126">
        <ele>290.9</ele>
        <time>2022-04-10T13:22:50Z</time>
      </trkpt>
      <trkpt lat="44.40766" lon="1.79121">
        <ele>291.2</ele>
        <time>2022-04-10T13:22:51Z</time>
      </trkpt>
      <trkpt lat="44.40764" lon="1.79116">
        <ele>291.6</ele>
        <time>2022-04-10T13:22:52Z</time>
      </trkpt>
      <trkpt lat="44.40761" lon="1.79111">
        <ele>291.9</ele>
        <time>2022-04-10T13:22:53Z</time>
      </trkpt>
      <trkpt lat="44.40759" lon="1.79106">
        <ele>292.2</ele>
        <time>2022-04-10T13:22:54Z</time>
      </trkpt>
      <trkpt lat="44.40757" lon="1.79101">
        <ele>292.5</ele>
        <time>2022-04-10T13:22:55Z</time>
      </trkpt>
      <trkpt lat="44.40755" lon="1.79097">
        <ele>292.7</ele>
        <time>2022-04-10T13:22:56Z</time>
      </trkpt>
      <trkpt lat="44.40754" lon="1.79093">
        <ele>292.9</ele>
        <time>2022-04-10T13:22:57Z</time>
      </trkpt>
      <trkpt lat="44.40752" lon="1.79088">
        <ele>293.2</ele>
        <time>2022-04-10T13:22:58Z</time>
      </trkpt>
      <trkpt lat="44.4075" lon="1.79083">
        <ele>293.4</ele>
        <time>2022-04-10T13:22:59Z</time>
      </trkpt>
      <trkpt lat="44.40748" lon="1.79078">
        <ele>293.7</ele>
        <time>2022-04-10T13:23:00Z</time>
      </trkpt>
      <trkpt lat="44.40746" lon="1.79073">
        <ele>294</ele>
        <time>2022-04-10T13:23:01Z</time>
      </trkpt>
      <trkpt lat="44.40744" lon="1.79068">
        <ele>294.3</ele>
        <time>2022-04-10T13:23:02Z</time>
      </trkpt>
      <trkpt lat="44.40742" lon="1.79063">
        <ele>294.5</ele>
        <time>2022-04-10T13:23:03Z</time>
      </trkpt>
      <trkpt lat="44.40741" lon="1.79057">
        <ele>294.8</ele>
        <time>2022-04-10T13:23:05Z</time>
      </trkpt>
      <trkpt lat="44.40739" lon="1.79053">
        <ele>295</ele>
        <time>2022-04-10T13:23:06Z</time>
      </trkpt>
      <trkpt lat="44.40738" lon="1.79047">
        <ele>295.3</ele>
        <time>2022-04-10T13:23:07Z</time>
      </trkpt>
      <trkpt lat="44.40735" lon="1.79039">
        <ele>295.7</ele>
        <time>2022-04-10T13:23:08Z</time>
      </trkpt>
      <trkpt lat="44.40733" lon="1.79033">
        <ele>296</ele>
        <time>2022-04-10T13:23:09Z</time>
      </trkpt>
      <trkpt lat="44.40732" lon="1.79029">
        <ele>296.2</ele>
        <time>2022-04-10T13:23:10Z</time>
      </trkpt>
      <trkpt lat="44.4073" lon="1.79024">
        <ele>296.5</ele>
        <time>2022-04-10T13:23:11Z</time>
      </trkpt>
      <trkpt lat="44.40729" lon="1.7902">
        <ele>296.7</ele>
        <time>2022-04-10T13:23:12Z</time>
      </trkpt>
      <trkpt lat="44.40727" lon="1.79015">
        <ele>296.9</ele>
        <time>2022-04-10T13:23:13Z</time>
      </trkpt>
      <trkpt lat="44.40723" lon="1.79004">
        <ele>297.4</ele>
        <time>2022-04-10T13:23:15Z</time>
      </trkpt>
      <trkpt lat="44.40722" lon="1.78998">
        <ele>297.6</ele>
        <time>2022-04-10T13:23:16Z</time>
      </trkpt>
      <trkpt lat="44.4072" lon="1.78992">
        <ele>297.9</ele>
        <time>2022-04-10T13:23:18Z</time>
      </trkpt>
      <trkpt lat="44.40717" lon="1.78988">
        <ele>298.1</ele>
        <time>2022-04-10T13:23:19Z</time>
      </trkpt>
      <trkpt lat="44.40714" lon="1.7898">
        <ele>298.5</ele>
        <time>2022-04-10T13:23:20Z</time>
      </trkpt>
      <trkpt lat="44.40712" lon="1.78975">
        <ele>298.7</ele>
        <time>2022-04-10T13:23:21Z</time>
      </trkpt>
      <trkpt lat="44.4071" lon="1.78969">
        <ele>299</ele>
        <time>2022-04-10T13:23:22Z</time>
      </trkpt>
      <trkpt lat="44.40708" lon="1.78964">
        <ele>299.2</ele>
        <time>2022-04-10T13:23:24Z</time>
      </trkpt>
      <trkpt lat="44.40705" lon="1.78958">
        <ele>299.4</ele>
        <time>2022-04-10T13:23:25Z</time>
      </trkpt>
      <trkpt lat="44.40703" lon="1.78953">
        <ele>299.6</ele>
        <time>2022-04-10T13:23:26Z</time>
      </trkpt>
      <trkpt lat="44.40702" lon="1.78949">
        <ele>299.7</ele>
        <time>2022-04-10T13:23:27Z</time>
      </trkpt>
      <trkpt lat="44.40703" lon="1.78944">
        <ele>300.1</ele>
        <time>2022-04-10T13:23:28Z</time>
      </trkpt>
      <trkpt lat="44.40705" lon="1.78941">
        <ele>300.1</ele>
        <time>2022-04-10T13:23:29Z</time>
      </trkpt>
      <trkpt lat="44.40709" lon="1.78941">
        <ele>300.1</ele>
        <time>2022-04-10T13:23:31Z</time>
      </trkpt>
      <trkpt lat="44.40713" lon="1.78941">
        <ele>300.1</ele>
        <time>2022-04-10T13:23:32Z</time>
      </trkpt>
      <trkpt lat="44.40716" lon="1.78941">
        <ele>300.1</ele>
        <time>2022-04-10T13:23:33Z</time>
      </trkpt>
      <trkpt lat="44.40721" lon="1.78941">
        <ele>300.1</ele>
        <time>2022-04-10T13:23:35Z</time>
      </trkpt>
      <trkpt lat="44.40724" lon="1.78941">
        <ele>300.1</ele>
        <time>2022-04-10T13:23:36Z</time>
      </trkpt>
      <trkpt lat="44.40727" lon="1.78942">
        <ele>300.1</ele>
        <time>2022-04-10T13:23:37Z</time>
      </trkpt>
      <trkpt lat="44.40731" lon="1.78943">
        <ele>300.1</ele>
        <time>2022-04-10T13:23:38Z</time>
      </trkpt>
      <trkpt lat="44.40735" lon="1.78944">
        <ele>300.1</ele>
        <time>2022-04-10T13:23:39Z</time>
      </trkpt>
      <trkpt lat="44.40739" lon="1.78946">
        <ele>300.1</ele>
        <time>2022-04-10T13:23:40Z</time>
      </trkpt>
      <trkpt lat="44.40743" lon="1.78947">
        <ele>300.1</ele>
        <time>2022-04-10T13:23:41Z</time>
      </trkpt>
      <trkpt lat="44.40745" lon="1.78948">
        <ele>300.1</ele>
        <time>2022-04-10T13:23:42Z</time>
      </trkpt>
      <trkpt lat="44.4075" lon="1.7895">
        <ele>300.1</ele>
        <time>2022-04-10T13:23:44Z</time>
      </trkpt>
      <trkpt lat="44.40755" lon="1.78952">
        <ele>300.1</ele>
        <time>2022-04-10T13:23:45Z</time>
      </trkpt>
      <trkpt lat="44.40758" lon="1.78954">
        <ele>300</ele>
        <time>2022-04-10T13:23:46Z</time>
      </trkpt>
      <trkpt lat="44.40761" lon="1.78955">
        <ele>300</ele>
        <time>2022-04-10T13:23:47Z</time>
      </trkpt>
      <trkpt lat="44.40764" lon="1.78956">
        <ele>300</ele>
        <time>2022-04-10T13:23:48Z</time>
      </trkpt>
      <trkpt lat="44.40768" lon="1.78959">
        <ele>300</ele>
        <time>2022-04-10T13:23:49Z</time>
      </trkpt>
      <trkpt lat="44.4077" lon="1.7896">
        <ele>300</ele>
        <time>2022-04-10T13:23:50Z</time>
      </trkpt>
      <trkpt lat="44.40778" lon="1.78963">
        <ele>300</ele>
        <time>2022-04-10T13:23:52Z</time>
      </trkpt>
      <trkpt lat="44.40782" lon="1.78967">
        <ele>300</ele>
        <time>2022-04-10T13:23:53Z</time>
      </trkpt>
      <trkpt lat="44.40784" lon="1.7897">
        <ele>300</ele>
        <time>2022-04-10T13:23:54Z</time>
      </trkpt>
      <trkpt lat="44.40788" lon="1.78973">
        <ele>300</ele>
        <time>2022-04-10T13:23:55Z</time>
      </trkpt>
      <trkpt lat="44.40793" lon="1.78981">
        <ele>300</ele>
        <time>2022-04-10T13:23:57Z</time>
      </trkpt>
      <trkpt lat="44.40797" lon="1.78988">
        <ele>300</ele>
        <time>2022-04-10T13:23:58Z</time>
      </trkpt>
      <trkpt lat="44.40801" lon="1.78992">
        <ele>300</ele>
        <time>2022-04-10T13:23:59Z</time>
      </trkpt>
      <trkpt lat="44.40805" lon="1.78998">
        <ele>300</ele>
        <time>2022-04-10T13:24:00Z</time>
      </trkpt>
      <trkpt lat="44.40808" lon="1.79003">
        <ele>300</ele>
        <time>2022-04-10T13:24:01Z</time>
      </trkpt>
      <trkpt lat="44.4081" lon="1.79006">
        <ele>300</ele>
        <time>2022-04-10T13:24:02Z</time>
      </trkpt>
      <trkpt lat="44.40814" lon="1.79013">
        <ele>300</ele>
        <time>2022-04-10T13:24:03Z</time>
      </trkpt>
      <trkpt lat="44.40818" lon="1.79018">
        <ele>300</ele>
        <time>2022-04-10T13:24:04Z</time>
      </trkpt>
      <trkpt lat="44.40821" lon="1.79024">
        <ele>300</ele>
        <time>2022-04-10T13:24:05Z</time>
      </trkpt>
      <trkpt lat="44.40824" lon="1.7903">
        <ele>300</ele>
        <time>2022-04-10T13:24:06Z</time>
      </trkpt>
      <trkpt lat="44.40827" lon="1.79035">
        <ele>299.9</ele>
        <time>2022-04-10T13:24:07Z</time>
      </trkpt>
      <trkpt lat="44.4083" lon="1.7904">
        <ele>299.9</ele>
        <time>2022-04-10T13:24:08Z</time>
      </trkpt>
      <trkpt lat="44.40833" lon="1.79046">
        <ele>299.9</ele>
        <time>2022-04-10T13:24:09Z</time>
      </trkpt>
      <trkpt lat="44.40836" lon="1.79052">
        <ele>299.9</ele>
        <time>2022-04-10T13:24:10Z</time>
      </trkpt>
      <trkpt lat="44.40839" lon="1.79057">
        <ele>299.9</ele>
        <time>2022-04-10T13:24:11Z</time>
      </trkpt>
      <trkpt lat="44.40843" lon="1.79061">
        <ele>299.9</ele>
        <time>2022-04-10T13:24:12Z</time>
      </trkpt>
      <trkpt lat="44.40846" lon="1.79065">
        <ele>299.9</ele>
        <time>2022-04-10T13:24:13Z</time>
      </trkpt>
      <trkpt lat="44.4085" lon="1.79069">
        <ele>299.9</ele>
        <time>2022-04-10T13:24:14Z</time>
      </trkpt>
      <trkpt lat="44.40854" lon="1.79072">
        <ele>299.9</ele>
        <time>2022-04-10T13:24:15Z</time>
      </trkpt>
      <trkpt lat="44.40858" lon="1.79075">
        <ele>299.9</ele>
        <time>2022-04-10T13:24:16Z</time>
      </trkpt>
      <trkpt lat="44.40863" lon="1.79079">
        <ele>299.9</ele>
        <time>2022-04-10T13:24:17Z</time>
      </trkpt>
      <trkpt lat="44.40867" lon="1.79081">
        <ele>299.9</ele>
        <time>2022-04-10T13:24:18Z</time>
      </trkpt>
      <trkpt lat="44.4087" lon="1.79085">
        <ele>299.9</ele>
        <time>2022-04-10T13:24:19Z</time>
      </trkpt>
      <trkpt lat="44.40873" lon="1.79087">
        <ele>299.9</ele>
        <time>2022-04-10T13:24:20Z</time>
      </trkpt>
      <trkpt lat="44.40878" lon="1.79089">
        <ele>299.9</ele>
        <time>2022-04-10T13:24:21Z</time>
      </trkpt>
      <trkpt lat="44.40883" lon="1.79092">
        <ele>299.9</ele>
        <time>2022-04-10T13:24:22Z</time>
      </trkpt>
      <trkpt lat="44.40888" lon="1.79095">
        <ele>299.9</ele>
        <time>2022-04-10T13:24:23Z</time>
      </trkpt>
      <trkpt lat="44.40894" lon="1.79097">
        <ele>299.9</ele>
        <time>2022-04-10T13:24:24Z</time>
      </trkpt>
      <trkpt lat="44.409" lon="1.79098">
        <ele>299.9</ele>
        <time>2022-04-10T13:24:25Z</time>
      </trkpt>
      <trkpt lat="44.40906" lon="1.79098">
        <ele>299.8</ele>
        <time>2022-04-10T13:24:26Z</time>
      </trkpt>
      <trkpt lat="44.40911" lon="1.79097">
        <ele>299.8</ele>
        <time>2022-04-10T13:24:27Z</time>
      </trkpt>
      <trkpt lat="44.40917" lon="1.79095">
        <ele>299.8</ele>
        <time>2022-04-10T13:24:28Z</time>
      </trkpt>
      <trkpt lat="44.40922" lon="1.79093">
        <ele>299.8</ele>
        <time>2022-04-10T13:24:29Z</time>
      </trkpt>
      <trkpt lat="44.40927" lon="1.7909">
        <ele>299.8</ele>
        <time>2022-04-10T13:24:30Z</time>
      </trkpt>
      <trkpt lat="44.40933" lon="1.79088">
        <ele>299.8</ele>
        <time>2022-04-10T13:24:31Z</time>
      </trkpt>
      <trkpt lat="44.40938" lon="1.79086">
        <ele>299.8</ele>
        <time>2022-04-10T13:24:32Z</time>
      </trkpt>
      <trkpt lat="44.40944" lon="1.79084">
        <ele>299.8</ele>
        <time>2022-04-10T13:24:33Z</time>
      </trkpt>
      <trkpt lat="44.40949" lon="1.79081">
        <ele>299.8</ele>
        <time>2022-04-10T13:24:34Z</time>
      </trkpt>
      <trkpt lat="44.40955" lon="1.79078">
        <ele>299.8</ele>
        <time>2022-04-10T13:24:35Z</time>
      </trkpt>
      <trkpt lat="44.4096" lon="1.79076">
        <ele>299.8</ele>
        <time>2022-04-10T13:24:36Z</time>
      </trkpt>
      <trkpt lat="44.40965" lon="1.79073">
        <ele>299.8</ele>
        <time>2022-04-10T13:24:37Z</time>
      </trkpt>
      <trkpt lat="44.4097" lon="1.79071">
        <ele>299.8</ele>
        <time>2022-04-10T13:24:38Z</time>
      </trkpt>
      <trkpt lat="44.40975" lon="1.79069">
        <ele>299.8</ele>
        <time>2022-04-10T13:24:39Z</time>
      </trkpt>
      <trkpt lat="44.40979" lon="1.79067">
        <ele>299.8</ele>
        <time>2022-04-10T13:24:40Z</time>
      </trkpt>
      <trkpt lat="44.40984" lon="1.79064">
        <ele>299.8</ele>
        <time>2022-04-10T13:24:41Z</time>
      </trkpt>
      <trkpt lat="44.40989" lon="1.79062">
        <ele>299.8</ele>
        <time>2022-04-10T13:24:42Z</time>
      </trkpt>
      <trkpt lat="44.40993" lon="1.7906">
        <ele>299.7</ele>
        <time>2022-04-10T13:24:43Z</time>
      </trkpt>
      <trkpt lat="44.40998" lon="1.79057">
        <ele>299.7</ele>
        <time>2022-04-10T13:24:44Z</time>
      </trkpt>
      <trkpt lat="44.41002" lon="1.79055">
        <ele>299.7</ele>
        <time>2022-04-10T13:24:45Z</time>
      </trkpt>
      <trkpt lat="44.41007" lon="1.79052">
        <ele>299.7</ele>
        <time>2022-04-10T13:24:46Z</time>
      </trkpt>
      <trkpt lat="44.41011" lon="1.79049">
        <ele>299.7</ele>
        <time>2022-04-10T13:24:47Z</time>
      </trkpt>
      <trkpt lat="44.41015" lon="1.79047">
        <ele>299.7</ele>
        <time>2022-04-10T13:24:48Z</time>
      </trkpt>
      <trkpt lat="44.41018" lon="1.79045">
        <ele>299.7</ele>
        <time>2022-04-10T13:24:49Z</time>
      </trkpt>
      <trkpt lat="44.41023" lon="1.79041">
        <ele>299.7</ele>
        <time>2022-04-10T13:24:50Z</time>
      </trkpt>
      <trkpt lat="44.41026" lon="1.79039">
        <ele>299.7</ele>
        <time>2022-04-10T13:24:51Z</time>
      </trkpt>
      <trkpt lat="44.4103" lon="1.79037">
        <ele>299.7</ele>
        <time>2022-04-10T13:24:52Z</time>
      </trkpt>
      <trkpt lat="44.41035" lon="1.79033">
        <ele>299.7</ele>
        <time>2022-04-10T13:24:53Z</time>
      </trkpt>
      <trkpt lat="44.41039" lon="1.7903">
        <ele>299.7</ele>
        <time>2022-04-10T13:24:54Z</time>
      </trkpt>
      <trkpt lat="44.41042" lon="1.79028">
        <ele>299.6</ele>
        <time>2022-04-10T13:24:55Z</time>
      </trkpt>
      <trkpt lat="44.41044" lon="1.79028">
        <ele>299.6</ele>
        <time>2022-04-10T13:24:56Z</time>
      </trkpt>
      <trkpt lat="44.41046" lon="1.79027">
        <ele>299.6</ele>
        <time>2022-04-10T13:24:57Z</time>
      </trkpt>
      <trkpt lat="44.41054" lon="1.79024">
        <ele>299.5</ele>
        <time>2022-04-10T13:24:59Z</time>
      </trkpt>
      <trkpt lat="44.41059" lon="1.79023">
        <ele>299.4</ele>
        <time>2022-04-10T13:25:00Z</time>
      </trkpt>
      <trkpt lat="44.41063" lon="1.79021">
        <ele>299.4</ele>
        <time>2022-04-10T13:25:01Z</time>
      </trkpt>
      <trkpt lat="44.41068" lon="1.79017">
        <ele>299.3</ele>
        <time>2022-04-10T13:25:02Z</time>
      </trkpt>
      <trkpt lat="44.41073" lon="1.79013">
        <ele>299.2</ele>
        <time>2022-04-10T13:25:04Z</time>
      </trkpt>
      <trkpt lat="44.41079" lon="1.79005">
        <ele>299.1</ele>
        <time>2022-04-10T13:25:05Z</time>
      </trkpt>
      <trkpt lat="44.41082" lon="1.79">
        <ele>299</ele>
        <time>2022-04-10T13:25:06Z</time>
      </trkpt>
      <trkpt lat="44.41087" lon="1.78995">
        <ele>299</ele>
        <time>2022-04-10T13:25:07Z</time>
      </trkpt>
      <trkpt lat="44.41091" lon="1.78991">
        <ele>298.9</ele>
        <time>2022-04-10T13:25:08Z</time>
      </trkpt>
      <trkpt lat="44.41096" lon="1.78987">
        <ele>298.8</ele>
        <time>2022-04-10T13:25:09Z</time>
      </trkpt>
      <trkpt lat="44.41101" lon="1.78982">
        <ele>298.8</ele>
        <time>2022-04-10T13:25:10Z</time>
      </trkpt>
      <trkpt lat="44.41106" lon="1.78978">
        <ele>298.7</ele>
        <time>2022-04-10T13:25:11Z</time>
      </trkpt>
      <trkpt lat="44.41112" lon="1.78974">
        <ele>298.6</ele>
        <time>2022-04-10T13:25:12Z</time>
      </trkpt>
      <trkpt lat="44.41118" lon="1.78971">
        <ele>298.5</ele>
        <time>2022-04-10T13:25:13Z</time>
      </trkpt>
      <trkpt lat="44.41125" lon="1.78968">
        <ele>298.4</ele>
        <time>2022-04-10T13:25:14Z</time>
      </trkpt>
      <trkpt lat="44.41132" lon="1.78966">
        <ele>298.3</ele>
        <time>2022-04-10T13:25:15Z</time>
      </trkpt>
      <trkpt lat="44.41138" lon="1.78963">
        <ele>298.3</ele>
        <time>2022-04-10T13:25:16Z</time>
      </trkpt>
      <trkpt lat="44.41145" lon="1.78962">
        <ele>298.2</ele>
        <time>2022-04-10T13:25:17Z</time>
      </trkpt>
      <trkpt lat="44.41152" lon="1.7896">
        <ele>298.1</ele>
        <time>2022-04-10T13:25:18Z</time>
      </trkpt>
      <trkpt lat="44.41159" lon="1.78959">
        <ele>298</ele>
        <time>2022-04-10T13:25:19Z</time>
      </trkpt>
      <trkpt lat="44.41165" lon="1.78957">
        <ele>297.9</ele>
        <time>2022-04-10T13:25:20Z</time>
      </trkpt>
      <trkpt lat="44.41172" lon="1.78956">
        <ele>297.8</ele>
        <time>2022-04-10T13:25:21Z</time>
      </trkpt>
      <trkpt lat="44.41179" lon="1.78956">
        <ele>297.7</ele>
        <time>2022-04-10T13:25:22Z</time>
      </trkpt>
      <trkpt lat="44.41185" lon="1.78956">
        <ele>297.7</ele>
        <time>2022-04-10T13:25:23Z</time>
      </trkpt>
      <trkpt lat="44.41192" lon="1.78955">
        <ele>297.6</ele>
        <time>2022-04-10T13:25:24Z</time>
      </trkpt>
      <trkpt lat="44.41198" lon="1.78953">
        <ele>297.5</ele>
        <time>2022-04-10T13:25:25Z</time>
      </trkpt>
      <trkpt lat="44.41204" lon="1.78952">
        <ele>297.4</ele>
        <time>2022-04-10T13:25:26Z</time>
      </trkpt>
      <trkpt lat="44.4121" lon="1.78951">
        <ele>297.3</ele>
        <time>2022-04-10T13:25:27Z</time>
      </trkpt>
      <trkpt lat="44.41217" lon="1.78948">
        <ele>297.3</ele>
        <time>2022-04-10T13:25:28Z</time>
      </trkpt>
      <trkpt lat="44.41222" lon="1.78945">
        <ele>297.2</ele>
        <time>2022-04-10T13:25:29Z</time>
      </trkpt>
      <trkpt lat="44.41227" lon="1.7894">
        <ele>297.1</ele>
        <time>2022-04-10T13:25:30Z</time>
      </trkpt>
      <trkpt lat="44.41232" lon="1.78936">
        <ele>297</ele>
        <time>2022-04-10T13:25:31Z</time>
      </trkpt>
      <trkpt lat="44.41237" lon="1.78932">
        <ele>297</ele>
        <time>2022-04-10T13:25:32Z</time>
      </trkpt>
      <trkpt lat="44.41242" lon="1.78927">
        <ele>296.9</ele>
        <time>2022-04-10T13:25:33Z</time>
      </trkpt>
      <trkpt lat="44.41247" lon="1.78923">
        <ele>296.8</ele>
        <time>2022-04-10T13:25:34Z</time>
      </trkpt>
      <trkpt lat="44.41252" lon="1.78919">
        <ele>296.7</ele>
        <time>2022-04-10T13:25:35Z</time>
      </trkpt>
      <trkpt lat="44.41257" lon="1.78915">
        <ele>296.7</ele>
        <time>2022-04-10T13:25:36Z</time>
      </trkpt>
      <trkpt lat="44.41261" lon="1.78909">
        <ele>296.6</ele>
        <time>2022-04-10T13:25:37Z</time>
      </trkpt>
      <trkpt lat="44.41265" lon="1.78904">
        <ele>296.5</ele>
        <time>2022-04-10T13:25:38Z</time>
      </trkpt>
      <trkpt lat="44.41269" lon="1.78899">
        <ele>296.5</ele>
        <time>2022-04-10T13:25:39Z</time>
      </trkpt>
      <trkpt lat="44.41273" lon="1.78894">
        <ele>296.5</ele>
        <time>2022-04-10T13:25:40Z</time>
      </trkpt>
      <trkpt lat="44.41276" lon="1.78889">
        <ele>296.5</ele>
        <time>2022-04-10T13:25:41Z</time>
      </trkpt>
      <trkpt lat="44.41279" lon="1.78883">
        <ele>296.5</ele>
        <time>2022-04-10T13:25:42Z</time>
      </trkpt>
      <trkpt lat="44.41282" lon="1.78877">
        <ele>296.6</ele>
        <time>2022-04-10T13:25:43Z</time>
      </trkpt>
      <trkpt lat="44.41286" lon="1.7887">
        <ele>296.6</ele>
        <time>2022-04-10T13:25:44Z</time>
      </trkpt>
      <trkpt lat="44.4129" lon="1.78864">
        <ele>296.7</ele>
        <time>2022-04-10T13:25:45Z</time>
      </trkpt>
      <trkpt lat="44.41293" lon="1.78858">
        <ele>296.7</ele>
        <time>2022-04-10T13:25:46Z</time>
      </trkpt>
      <trkpt lat="44.41297" lon="1.78851">
        <ele>296.7</ele>
        <time>2022-04-10T13:25:47Z</time>
      </trkpt>
      <trkpt lat="44.413" lon="1.78844">
        <ele>296.8</ele>
        <time>2022-04-10T13:25:48Z</time>
      </trkpt>
      <trkpt lat="44.41304" lon="1.78838">
        <ele>296.8</ele>
        <time>2022-04-10T13:25:49Z</time>
      </trkpt>
      <trkpt lat="44.41308" lon="1.78831">
        <ele>296.9</ele>
        <time>2022-04-10T13:25:50Z</time>
      </trkpt>
      <trkpt lat="44.41312" lon="1.78823">
        <ele>296.9</ele>
        <time>2022-04-10T13:25:51Z</time>
      </trkpt>
      <trkpt lat="44.41315" lon="1.78816">
        <ele>297</ele>
        <time>2022-04-10T13:25:52Z</time>
      </trkpt>
      <trkpt lat="44.41319" lon="1.78809">
        <ele>297</ele>
        <time>2022-04-10T13:25:53Z</time>
      </trkpt>
      <trkpt lat="44.41322" lon="1.78802">
        <ele>297</ele>
        <time>2022-04-10T13:25:54Z</time>
      </trkpt>
      <trkpt lat="44.41325" lon="1.78795">
        <ele>297.1</ele>
        <time>2022-04-10T13:25:55Z</time>
      </trkpt>
      <trkpt lat="44.41328" lon="1.78788">
        <ele>297.1</ele>
        <time>2022-04-10T13:25:56Z</time>
      </trkpt>
      <trkpt lat="44.4133" lon="1.78781">
        <ele>297.2</ele>
        <time>2022-04-10T13:25:57Z</time>
      </trkpt>
      <trkpt lat="44.41331" lon="1.78773">
        <ele>297.2</ele>
        <time>2022-04-10T13:25:58Z</time>
      </trkpt>
      <trkpt lat="44.4133" lon="1.78766">
        <ele>297.2</ele>
        <time>2022-04-10T13:25:59Z</time>
      </trkpt>
      <trkpt lat="44.41328" lon="1.7876">
        <ele>297.3</ele>
        <time>2022-04-10T13:26:00Z</time>
      </trkpt>
      <trkpt lat="44.41325" lon="1.78754">
        <ele>297.3</ele>
        <time>2022-04-10T13:26:01Z</time>
      </trkpt>
      <trkpt lat="44.41322" lon="1.78748">
        <ele>297.3</ele>
        <time>2022-04-10T13:26:02Z</time>
      </trkpt>
      <trkpt lat="44.4132" lon="1.78741">
        <ele>297.4</ele>
        <time>2022-04-10T13:26:03Z</time>
      </trkpt>
      <trkpt lat="44.41316" lon="1.78734">
        <ele>297.4</ele>
        <time>2022-04-10T13:26:04Z</time>
      </trkpt>
      <trkpt lat="44.41313" lon="1.78727">
        <ele>297.5</ele>
        <time>2022-04-10T13:26:05Z</time>
      </trkpt>
      <trkpt lat="44.4131" lon="1.7872">
        <ele>297.5</ele>
        <time>2022-04-10T13:26:06Z</time>
      </trkpt>
      <trkpt lat="44.41307" lon="1.78714">
        <ele>297.5</ele>
        <time>2022-04-10T13:26:07Z</time>
      </trkpt>
      <trkpt lat="44.41304" lon="1.78707">
        <ele>297.6</ele>
        <time>2022-04-10T13:26:08Z</time>
      </trkpt>
      <trkpt lat="44.41302" lon="1.787">
        <ele>297.6</ele>
        <time>2022-04-10T13:26:09Z</time>
      </trkpt>
      <trkpt lat="44.413" lon="1.78692">
        <ele>297.6</ele>
        <time>2022-04-10T13:26:10Z</time>
      </trkpt>
      <trkpt lat="44.41298" lon="1.78685">
        <ele>297.7</ele>
        <time>2022-04-10T13:26:11Z</time>
      </trkpt>
      <trkpt lat="44.41298" lon="1.78677">
        <ele>297.7</ele>
        <time>2022-04-10T13:26:12Z</time>
      </trkpt>
      <trkpt lat="44.41297" lon="1.7867">
        <ele>297.8</ele>
        <time>2022-04-10T13:26:13Z</time>
      </trkpt>
      <trkpt lat="44.41297" lon="1.78663">
        <ele>297.9</ele>
        <time>2022-04-10T13:26:14Z</time>
      </trkpt>
      <trkpt lat="44.41296" lon="1.78657">
        <ele>298.1</ele>
        <time>2022-04-10T13:26:15Z</time>
      </trkpt>
      <trkpt lat="44.41295" lon="1.78651">
        <ele>298.2</ele>
        <time>2022-04-10T13:26:16Z</time>
      </trkpt>
      <trkpt lat="44.41293" lon="1.78647">
        <ele>298.3</ele>
        <time>2022-04-10T13:26:17Z</time>
      </trkpt>
      <trkpt lat="44.41291" lon="1.78639">
        <ele>298.5</ele>
        <time>2022-04-10T13:26:18Z</time>
      </trkpt>
      <trkpt lat="44.4129" lon="1.78631">
        <ele>298.6</ele>
        <time>2022-04-10T13:26:19Z</time>
      </trkpt>
      <trkpt lat="44.41289" lon="1.78624">
        <ele>298.8</ele>
        <time>2022-04-10T13:26:20Z</time>
      </trkpt>
      <trkpt lat="44.41289" lon="1.78616">
        <ele>298.9</ele>
        <time>2022-04-10T13:26:21Z</time>
      </trkpt>
      <trkpt lat="44.41289" lon="1.78609">
        <ele>299.1</ele>
        <time>2022-04-10T13:26:22Z</time>
      </trkpt>
      <trkpt lat="44.41289" lon="1.78601">
        <ele>299.2</ele>
        <time>2022-04-10T13:26:23Z</time>
      </trkpt>
      <trkpt lat="44.41289" lon="1.78594">
        <ele>299.4</ele>
        <time>2022-04-10T13:26:24Z</time>
      </trkpt>
      <trkpt lat="44.41289" lon="1.78586">
        <ele>299.5</ele>
        <time>2022-04-10T13:26:25Z</time>
      </trkpt>
      <trkpt lat="44.41289" lon="1.78578">
        <ele>299.7</ele>
        <time>2022-04-10T13:26:26Z</time>
      </trkpt>
      <trkpt lat="44.41289" lon="1.7857">
        <ele>299.8</ele>
        <time>2022-04-10T13:26:27Z</time>
      </trkpt>
      <trkpt lat="44.41289" lon="1.78562">
        <ele>300</ele>
        <time>2022-04-10T13:26:28Z</time>
      </trkpt>
      <trkpt lat="44.41289" lon="1.78554">
        <ele>300.1</ele>
        <time>2022-04-10T13:26:29Z</time>
      </trkpt>
      <trkpt lat="44.41289" lon="1.78546">
        <ele>300.3</ele>
        <time>2022-04-10T13:26:30Z</time>
      </trkpt>
      <trkpt lat="44.41289" lon="1.78539">
        <ele>300.5</ele>
        <time>2022-04-10T13:26:31Z</time>
      </trkpt>
      <trkpt lat="44.41289" lon="1.78531">
        <ele>300.6</ele>
        <time>2022-04-10T13:26:32Z</time>
      </trkpt>
      <trkpt lat="44.41289" lon="1.78523">
        <ele>300.8</ele>
        <time>2022-04-10T13:26:33Z</time>
      </trkpt>
      <trkpt lat="44.41289" lon="1.78515">
        <ele>300.9</ele>
        <time>2022-04-10T13:26:34Z</time>
      </trkpt>
      <trkpt lat="44.41289" lon="1.78507">
        <ele>301.1</ele>
        <time>2022-04-10T13:26:35Z</time>
      </trkpt>
      <trkpt lat="44.41289" lon="1.78499">
        <ele>301.2</ele>
        <time>2022-04-10T13:26:36Z</time>
      </trkpt>
      <trkpt lat="44.41289" lon="1.78491">
        <ele>301.4</ele>
        <time>2022-04-10T13:26:37Z</time>
      </trkpt>
      <trkpt lat="44.41289" lon="1.78485">
        <ele>301.5</ele>
        <time>2022-04-10T13:26:38Z</time>
      </trkpt>
      <trkpt lat="44.4129" lon="1.78478">
        <ele>301.7</ele>
        <time>2022-04-10T13:26:39Z</time>
      </trkpt>
      <trkpt lat="44.4129" lon="1.78471">
        <ele>301.8</ele>
        <time>2022-04-10T13:26:40Z</time>
      </trkpt>
      <trkpt lat="44.41291" lon="1.78464">
        <ele>301.9</ele>
        <time>2022-04-10T13:26:41Z</time>
      </trkpt>
      <trkpt lat="44.41292" lon="1.78458">
        <ele>302.1</ele>
        <time>2022-04-10T13:26:42Z</time>
      </trkpt>
      <trkpt lat="44.41292" lon="1.78453">
        <ele>302.2</ele>
        <time>2022-04-10T13:26:43Z</time>
      </trkpt>
      <trkpt lat="44.41293" lon="1.78447">
        <ele>302.3</ele>
        <time>2022-04-10T13:26:44Z</time>
      </trkpt>
      <trkpt lat="44.41294" lon="1.7844">
        <ele>302.4</ele>
        <time>2022-04-10T13:26:45Z</time>
      </trkpt>
      <trkpt lat="44.41295" lon="1.78433">
        <ele>302.6</ele>
        <time>2022-04-10T13:26:46Z</time>
      </trkpt>
      <trkpt lat="44.41297" lon="1.78426">
        <ele>302.7</ele>
        <time>2022-04-10T13:26:47Z</time>
      </trkpt>
      <trkpt lat="44.41298" lon="1.78419">
        <ele>302.9</ele>
        <time>2022-04-10T13:26:48Z</time>
      </trkpt>
      <trkpt lat="44.41299" lon="1.78412">
        <ele>303</ele>
        <time>2022-04-10T13:26:49Z</time>
      </trkpt>
      <trkpt lat="44.41301" lon="1.78406">
        <ele>303.1</ele>
        <time>2022-04-10T13:26:50Z</time>
      </trkpt>
      <trkpt lat="44.41302" lon="1.78399">
        <ele>303.3</ele>
        <time>2022-04-10T13:26:51Z</time>
      </trkpt>
      <trkpt lat="44.41304" lon="1.78392">
        <ele>303.4</ele>
        <time>2022-04-10T13:26:52Z</time>
      </trkpt>
      <trkpt lat="44.41305" lon="1.78385">
        <ele>303.6</ele>
        <time>2022-04-10T13:26:53Z</time>
      </trkpt>
      <trkpt lat="44.41307" lon="1.78378">
        <ele>303.7</ele>
        <time>2022-04-10T13:26:54Z</time>
      </trkpt>
      <trkpt lat="44.41309" lon="1.7837">
        <ele>303.9</ele>
        <time>2022-04-10T13:26:55Z</time>
      </trkpt>
      <trkpt lat="44.41311" lon="1.78363">
        <ele>304</ele>
        <time>2022-04-10T13:26:56Z</time>
      </trkpt>
      <trkpt lat="44.41314" lon="1.78356">
        <ele>304.2</ele>
        <time>2022-04-10T13:26:57Z</time>
      </trkpt>
      <trkpt lat="44.41316" lon="1.78349">
        <ele>304.3</ele>
        <time>2022-04-10T13:26:58Z</time>
      </trkpt>
      <trkpt lat="44.41318" lon="1.78342">
        <ele>304.5</ele>
        <time>2022-04-10T13:26:59Z</time>
      </trkpt>
      <trkpt lat="44.4132" lon="1.78335">
        <ele>304.6</ele>
        <time>2022-04-10T13:27:00Z</time>
      </trkpt>
      <trkpt lat="44.41322" lon="1.78328">
        <ele>304.8</ele>
        <time>2022-04-10T13:27:01Z</time>
      </trkpt>
      <trkpt lat="44.41325" lon="1.78321">
        <ele>304.9</ele>
        <time>2022-04-10T13:27:02Z</time>
      </trkpt>
      <trkpt lat="44.41327" lon="1.78315">
        <ele>305.1</ele>
        <time>2022-04-10T13:27:03Z</time>
      </trkpt>
      <trkpt lat="44.41329" lon="1.78308">
        <ele>305.2</ele>
        <time>2022-04-10T13:27:04Z</time>
      </trkpt>
      <trkpt lat="44.41332" lon="1.78302">
        <ele>305.3</ele>
        <time>2022-04-10T13:27:05Z</time>
      </trkpt>
      <trkpt lat="44.41334" lon="1.78295">
        <ele>305.3</ele>
        <time>2022-04-10T13:27:06Z</time>
      </trkpt>
      <trkpt lat="44.41336" lon="1.78289">
        <ele>305.3</ele>
        <time>2022-04-10T13:27:07Z</time>
      </trkpt>
      <trkpt lat="44.41338" lon="1.78285">
        <ele>305.3</ele>
        <time>2022-04-10T13:27:08Z</time>
      </trkpt>
      <trkpt lat="44.4134" lon="1.7828">
        <ele>305.3</ele>
        <time>2022-04-10T13:27:09Z</time>
      </trkpt>
      <trkpt lat="44.41343" lon="1.78274">
        <ele>305.3</ele>
        <time>2022-04-10T13:27:10Z</time>
      </trkpt>
      <trkpt lat="44.41346" lon="1.7827">
        <ele>305.2</ele>
        <time>2022-04-10T13:27:11Z</time>
      </trkpt>
      <trkpt lat="44.41348" lon="1.78265">
        <ele>305.2</ele>
        <time>2022-04-10T13:27:12Z</time>
      </trkpt>
      <trkpt lat="44.41351" lon="1.7826">
        <ele>305.2</ele>
        <time>2022-04-10T13:27:13Z</time>
      </trkpt>
      <trkpt lat="44.41353" lon="1.78257">
        <ele>305.2</ele>
        <time>2022-04-10T13:27:14Z</time>
      </trkpt>
      <trkpt lat="44.41357" lon="1.78255">
        <ele>305.2</ele>
        <time>2022-04-10T13:27:16Z</time>
      </trkpt>
      <trkpt lat="44.41361" lon="1.78246">
        <ele>305.2</ele>
        <time>2022-04-10T13:27:17Z</time>
      </trkpt>
      <trkpt lat="44.41364" lon="1.7824">
        <ele>305.2</ele>
        <time>2022-04-10T13:27:18Z</time>
      </trkpt>
      <trkpt lat="44.41367" lon="1.78236">
        <ele>305.2</ele>
        <time>2022-04-10T13:27:19Z</time>
      </trkpt>
      <trkpt lat="44.41369" lon="1.78232">
        <ele>305.2</ele>
        <time>2022-04-10T13:27:20Z</time>
      </trkpt>
      <trkpt lat="44.4137" lon="1.7823">
        <ele>305.2</ele>
        <time>2022-04-10T13:27:21Z</time>
      </trkpt>
      <trkpt lat="44.41372" lon="1.78226">
        <ele>305.1</ele>
        <time>2022-04-10T13:27:22Z</time>
      </trkpt>
      <trkpt lat="44.41374" lon="1.78222">
        <ele>305.1</ele>
        <time>2022-04-10T13:27:23Z</time>
      </trkpt>
      <trkpt lat="44.41377" lon="1.78217">
        <ele>305.1</ele>
        <time>2022-04-10T13:27:24Z</time>
      </trkpt>
      <trkpt lat="44.41382" lon="1.78213">
        <ele>305.1</ele>
        <time>2022-04-10T13:27:25Z</time>
      </trkpt>
      <trkpt lat="44.41386" lon="1.7821">
        <ele>305.2</ele>
        <time>2022-04-10T13:27:26Z</time>
      </trkpt>
      <trkpt lat="44.4139" lon="1.78209">
        <ele>305.3</ele>
        <time>2022-04-10T13:27:27Z</time>
      </trkpt>
      <trkpt lat="44.41396" lon="1.78208">
        <ele>305.3</ele>
        <time>2022-04-10T13:27:28Z</time>
      </trkpt>
      <trkpt lat="44.41402" lon="1.78207">
        <ele>305.3</ele>
        <time>2022-04-10T13:27:29Z</time>
      </trkpt>
      <trkpt lat="44.41407" lon="1.78207">
        <ele>305.3</ele>
        <time>2022-04-10T13:27:30Z</time>
      </trkpt>
      <trkpt lat="44.41413" lon="1.78205">
        <ele>305.3</ele>
        <time>2022-04-10T13:27:31Z</time>
      </trkpt>
      <trkpt lat="44.41418" lon="1.78204">
        <ele>305.3</ele>
        <time>2022-04-10T13:27:32Z</time>
      </trkpt>
      <trkpt lat="44.41424" lon="1.78204">
        <ele>305.3</ele>
        <time>2022-04-10T13:27:33Z</time>
      </trkpt>
      <trkpt lat="44.4143" lon="1.78202">
        <ele>305.3</ele>
        <time>2022-04-10T13:27:34Z</time>
      </trkpt>
      <trkpt lat="44.41436" lon="1.78201">
        <ele>305.3</ele>
        <time>2022-04-10T13:27:35Z</time>
      </trkpt>
      <trkpt lat="44.41441" lon="1.782">
        <ele>305.3</ele>
        <time>2022-04-10T13:27:36Z</time>
      </trkpt>
      <trkpt lat="44.41447" lon="1.782">
        <ele>305.3</ele>
        <time>2022-04-10T13:27:37Z</time>
      </trkpt>
      <trkpt lat="44.41453" lon="1.78199">
        <ele>305.3</ele>
        <time>2022-04-10T13:27:38Z</time>
      </trkpt>
      <trkpt lat="44.41458" lon="1.78198">
        <ele>305.3</ele>
        <time>2022-04-10T13:27:39Z</time>
      </trkpt>
      <trkpt lat="44.41464" lon="1.78196">
        <ele>305.4</ele>
        <time>2022-04-10T13:27:40Z</time>
      </trkpt>
      <trkpt lat="44.41469" lon="1.78195">
        <ele>305.4</ele>
        <time>2022-04-10T13:27:41Z</time>
      </trkpt>
      <trkpt lat="44.41474" lon="1.78195">
        <ele>305.4</ele>
        <time>2022-04-10T13:27:42Z</time>
      </trkpt>
      <trkpt lat="44.41479" lon="1.78194">
        <ele>305.4</ele>
        <time>2022-04-10T13:27:43Z</time>
      </trkpt>
      <trkpt lat="44.41485" lon="1.78194">
        <ele>305.4</ele>
        <time>2022-04-10T13:27:44Z</time>
      </trkpt>
      <trkpt lat="44.4149" lon="1.78193">
        <ele>305.3</ele>
        <time>2022-04-10T13:27:45Z</time>
      </trkpt>
      <trkpt lat="44.41496" lon="1.78193">
        <ele>305.3</ele>
        <time>2022-04-10T13:27:46Z</time>
      </trkpt>
      <trkpt lat="44.41502" lon="1.78193">
        <ele>305.3</ele>
        <time>2022-04-10T13:27:47Z</time>
      </trkpt>
      <trkpt lat="44.41508" lon="1.78193">
        <ele>305.3</ele>
        <time>2022-04-10T13:27:48Z</time>
      </trkpt>
      <trkpt lat="44.41514" lon="1.78193">
        <ele>305.3</ele>
        <time>2022-04-10T13:27:49Z</time>
      </trkpt>
      <trkpt lat="44.4152" lon="1.78193">
        <ele>305.3</ele>
        <time>2022-04-10T13:27:50Z</time>
      </trkpt>
      <trkpt lat="44.41526" lon="1.78193">
        <ele>305.2</ele>
        <time>2022-04-10T13:27:51Z</time>
      </trkpt>
      <trkpt lat="44.41532" lon="1.78194">
        <ele>305.2</ele>
        <time>2022-04-10T13:27:52Z</time>
      </trkpt>
      <trkpt lat="44.41537" lon="1.78194">
        <ele>305.1</ele>
        <time>2022-04-10T13:27:53Z</time>
      </trkpt>
      <trkpt lat="44.41543" lon="1.78195">
        <ele>305.1</ele>
        <time>2022-04-10T13:27:54Z</time>
      </trkpt>
      <trkpt lat="44.41549" lon="1.78195">
        <ele>305.1</ele>
        <time>2022-04-10T13:27:55Z</time>
      </trkpt>
      <trkpt lat="44.41554" lon="1.78195">
        <ele>305</ele>
        <time>2022-04-10T13:27:56Z</time>
      </trkpt>
      <trkpt lat="44.4156" lon="1.78196">
        <ele>305</ele>
        <time>2022-04-10T13:27:57Z</time>
      </trkpt>
      <trkpt lat="44.41567" lon="1.78197">
        <ele>305</ele>
        <time>2022-04-10T13:27:58Z</time>
      </trkpt>
      <trkpt lat="44.41573" lon="1.78197">
        <ele>305</ele>
        <time>2022-04-10T13:27:59Z</time>
      </trkpt>
      <trkpt lat="44.41579" lon="1.78197">
        <ele>305</ele>
        <time>2022-04-10T13:28:00Z</time>
      </trkpt>
      <trkpt lat="44.41585" lon="1.78198">
        <ele>305</ele>
        <time>2022-04-10T13:28:01Z</time>
      </trkpt>
      <trkpt lat="44.41591" lon="1.78199">
        <ele>305</ele>
        <time>2022-04-10T13:28:02Z</time>
      </trkpt>
      <trkpt lat="44.41597" lon="1.78199">
        <ele>305</ele>
        <time>2022-04-10T13:28:03Z</time>
      </trkpt>
      <trkpt lat="44.41603" lon="1.782">
        <ele>305</ele>
        <time>2022-04-10T13:28:04Z</time>
      </trkpt>
      <trkpt lat="44.41609" lon="1.782">
        <ele>305</ele>
        <time>2022-04-10T13:28:05Z</time>
      </trkpt>
      <trkpt lat="44.41616" lon="1.78201">
        <ele>305</ele>
        <time>2022-04-10T13:28:06Z</time>
      </trkpt>
      <trkpt lat="44.41622" lon="1.78202">
        <ele>305</ele>
        <time>2022-04-10T13:28:07Z</time>
      </trkpt>
      <trkpt lat="44.41628" lon="1.78202">
        <ele>305</ele>
        <time>2022-04-10T13:28:08Z</time>
      </trkpt>
      <trkpt lat="44.41634" lon="1.78203">
        <ele>305</ele>
        <time>2022-04-10T13:28:09Z</time>
      </trkpt>
      <trkpt lat="44.41639" lon="1.78203">
        <ele>305</ele>
        <time>2022-04-10T13:28:10Z</time>
      </trkpt>
      <trkpt lat="44.41645" lon="1.78203">
        <ele>305.1</ele>
        <time>2022-04-10T13:28:11Z</time>
      </trkpt>
      <trkpt lat="44.41651" lon="1.78203">
        <ele>305.1</ele>
        <time>2022-04-10T13:28:12Z</time>
      </trkpt>
      <trkpt lat="44.41657" lon="1.78202">
        <ele>305.2</ele>
        <time>2022-04-10T13:28:13Z</time>
      </trkpt>
      <trkpt lat="44.41663" lon="1.782">
        <ele>305.2</ele>
        <time>2022-04-10T13:28:14Z</time>
      </trkpt>
      <trkpt lat="44.41669" lon="1.78199">
        <ele>305.3</ele>
        <time>2022-04-10T13:28:15Z</time>
      </trkpt>
      <trkpt lat="44.41675" lon="1.78198">
        <ele>305.3</ele>
        <time>2022-04-10T13:28:16Z</time>
      </trkpt>
      <trkpt lat="44.41681" lon="1.78197">
        <ele>305.4</ele>
        <time>2022-04-10T13:28:17Z</time>
      </trkpt>
      <trkpt lat="44.41687" lon="1.78196">
        <ele>305.5</ele>
        <time>2022-04-10T13:28:18Z</time>
      </trkpt>
      <trkpt lat="44.41693" lon="1.78194">
        <ele>305.5</ele>
        <time>2022-04-10T13:28:19Z</time>
      </trkpt>
      <trkpt lat="44.417" lon="1.78192">
        <ele>305.5</ele>
        <time>2022-04-10T13:28:20Z</time>
      </trkpt>
      <trkpt lat="44.41706" lon="1.7819">
        <ele>305.4</ele>
        <time>2022-04-10T13:28:21Z</time>
      </trkpt>
      <trkpt lat="44.41712" lon="1.78189">
        <ele>305.4</ele>
        <time>2022-04-10T13:28:22Z</time>
      </trkpt>
      <trkpt lat="44.41718" lon="1.78187">
        <ele>305.4</ele>
        <time>2022-04-10T13:28:23Z</time>
      </trkpt>
      <trkpt lat="44.41723" lon="1.78185">
        <ele>305.3</ele>
        <time>2022-04-10T13:28:24Z</time>
      </trkpt>
      <trkpt lat="44.41729" lon="1.78183">
        <ele>305.3</ele>
        <time>2022-04-10T13:28:25Z</time>
      </trkpt>
      <trkpt lat="44.41735" lon="1.78182">
        <ele>305.2</ele>
        <time>2022-04-10T13:28:26Z</time>
      </trkpt>
      <trkpt lat="44.41741" lon="1.7818">
        <ele>305.2</ele>
        <time>2022-04-10T13:28:27Z</time>
      </trkpt>
      <trkpt lat="44.41747" lon="1.78178">
        <ele>305.1</ele>
        <time>2022-04-10T13:28:28Z</time>
      </trkpt>
      <trkpt lat="44.41753" lon="1.78176">
        <ele>305.1</ele>
        <time>2022-04-10T13:28:29Z</time>
      </trkpt>
      <trkpt lat="44.41758" lon="1.78173">
        <ele>305</ele>
        <time>2022-04-10T13:28:30Z</time>
      </trkpt>
      <trkpt lat="44.41764" lon="1.78171">
        <ele>305</ele>
        <time>2022-04-10T13:28:31Z</time>
      </trkpt>
      <trkpt lat="44.4177" lon="1.78169">
        <ele>305</ele>
        <time>2022-04-10T13:28:32Z</time>
      </trkpt>
      <trkpt lat="44.41776" lon="1.78167">
        <ele>304.9</ele>
        <time>2022-04-10T13:28:33Z</time>
      </trkpt>
      <trkpt lat="44.41781" lon="1.78165">
        <ele>304.9</ele>
        <time>2022-04-10T13:28:34Z</time>
      </trkpt>
      <trkpt lat="44.41787" lon="1.78163">
        <ele>304.9</ele>
        <time>2022-04-10T13:28:35Z</time>
      </trkpt>
      <trkpt lat="44.41793" lon="1.78161">
        <ele>304.9</ele>
        <time>2022-04-10T13:28:36Z</time>
      </trkpt>
      <trkpt lat="44.41798" lon="1.7816">
        <ele>304.8</ele>
        <time>2022-04-10T13:28:37Z</time>
      </trkpt>
      <trkpt lat="44.41804" lon="1.78159">
        <ele>304.8</ele>
        <time>2022-04-10T13:28:38Z</time>
      </trkpt>
      <trkpt lat="44.4181" lon="1.78157">
        <ele>304.8</ele>
        <time>2022-04-10T13:28:39Z</time>
      </trkpt>
      <trkpt lat="44.41816" lon="1.78154">
        <ele>304.7</ele>
        <time>2022-04-10T13:28:40Z</time>
      </trkpt>
      <trkpt lat="44.41821" lon="1.78153">
        <ele>304.7</ele>
        <time>2022-04-10T13:28:41Z</time>
      </trkpt>
      <trkpt lat="44.41827" lon="1.78152">
        <ele>304.6</ele>
        <time>2022-04-10T13:28:42Z</time>
      </trkpt>
      <trkpt lat="44.41833" lon="1.7815">
        <ele>304.5</ele>
        <time>2022-04-10T13:28:43Z</time>
      </trkpt>
      <trkpt lat="44.41839" lon="1.78148">
        <ele>304.4</ele>
        <time>2022-04-10T13:28:44Z</time>
      </trkpt>
      <trkpt lat="44.41845" lon="1.78146">
        <ele>304.4</ele>
        <time>2022-04-10T13:28:45Z</time>
      </trkpt>
      <trkpt lat="44.41851" lon="1.78143">
        <ele>304.3</ele>
        <time>2022-04-10T13:28:46Z</time>
      </trkpt>
      <trkpt lat="44.41857" lon="1.78141">
        <ele>304.2</ele>
        <time>2022-04-10T13:28:47Z</time>
      </trkpt>
      <trkpt lat="44.41863" lon="1.78139">
        <ele>304.2</ele>
        <time>2022-04-10T13:28:48Z</time>
      </trkpt>
      <trkpt lat="44.41869" lon="1.78137">
        <ele>304.2</ele>
        <time>2022-04-10T13:28:49Z</time>
      </trkpt>
      <trkpt lat="44.41875" lon="1.78134">
        <ele>304.1</ele>
        <time>2022-04-10T13:28:50Z</time>
      </trkpt>
      <trkpt lat="44.41881" lon="1.78132">
        <ele>304.1</ele>
        <time>2022-04-10T13:28:51Z</time>
      </trkpt>
      <trkpt lat="44.41887" lon="1.78129">
        <ele>304</ele>
        <time>2022-04-10T13:28:52Z</time>
      </trkpt>
      <trkpt lat="44.41893" lon="1.78126">
        <ele>304</ele>
        <time>2022-04-10T13:28:53Z</time>
      </trkpt>
      <trkpt lat="44.41898" lon="1.78123">
        <ele>303.9</ele>
        <time>2022-04-10T13:28:54Z</time>
      </trkpt>
      <trkpt lat="44.41904" lon="1.78119">
        <ele>303.9</ele>
        <time>2022-04-10T13:28:55Z</time>
      </trkpt>
      <trkpt lat="44.4191" lon="1.78115">
        <ele>303.9</ele>
        <time>2022-04-10T13:28:56Z</time>
      </trkpt>
      <trkpt lat="44.41916" lon="1.78112">
        <ele>303.9</ele>
        <time>2022-04-10T13:28:57Z</time>
      </trkpt>
      <trkpt lat="44.41921" lon="1.78109">
        <ele>303.9</ele>
        <time>2022-04-10T13:28:58Z</time>
      </trkpt>
      <trkpt lat="44.41927" lon="1.78105">
        <ele>303.8</ele>
        <time>2022-04-10T13:28:59Z</time>
      </trkpt>
      <trkpt lat="44.41932" lon="1.78101">
        <ele>303.8</ele>
        <time>2022-04-10T13:29:00Z</time>
      </trkpt>
      <trkpt lat="44.41938" lon="1.78097">
        <ele>303.8</ele>
        <time>2022-04-10T13:29:01Z</time>
      </trkpt>
      <trkpt lat="44.41943" lon="1.78094">
        <ele>303.7</ele>
        <time>2022-04-10T13:29:02Z</time>
      </trkpt>
      <trkpt lat="44.41948" lon="1.7809">
        <ele>303.7</ele>
        <time>2022-04-10T13:29:03Z</time>
      </trkpt>
      <trkpt lat="44.41953" lon="1.78085">
        <ele>303.6</ele>
        <time>2022-04-10T13:29:04Z</time>
      </trkpt>
      <trkpt lat="44.41959" lon="1.78081">
        <ele>303.5</ele>
        <time>2022-04-10T13:29:05Z</time>
      </trkpt>
      <trkpt lat="44.41964" lon="1.78078">
        <ele>303.5</ele>
        <time>2022-04-10T13:29:06Z</time>
      </trkpt>
      <trkpt lat="44.41969" lon="1.78074">
        <ele>303.4</ele>
        <time>2022-04-10T13:29:07Z</time>
      </trkpt>
      <trkpt lat="44.41974" lon="1.7807">
        <ele>303.4</ele>
        <time>2022-04-10T13:29:08Z</time>
      </trkpt>
      <trkpt lat="44.41979" lon="1.78066">
        <ele>303.3</ele>
        <time>2022-04-10T13:29:09Z</time>
      </trkpt>
      <trkpt lat="44.41984" lon="1.78062">
        <ele>303.2</ele>
        <time>2022-04-10T13:29:10Z</time>
      </trkpt>
      <trkpt lat="44.41989" lon="1.78058">
        <ele>303.2</ele>
        <time>2022-04-10T13:29:11Z</time>
      </trkpt>
      <trkpt lat="44.41995" lon="1.78055">
        <ele>303.1</ele>
        <time>2022-04-10T13:29:12Z</time>
      </trkpt>
      <trkpt lat="44.42" lon="1.78051">
        <ele>303.1</ele>
        <time>2022-04-10T13:29:13Z</time>
      </trkpt>
      <trkpt lat="44.42005" lon="1.78048">
        <ele>303</ele>
        <time>2022-04-10T13:29:14Z</time>
      </trkpt>
      <trkpt lat="44.4201" lon="1.78044">
        <ele>303</ele>
        <time>2022-04-10T13:29:15Z</time>
      </trkpt>
      <trkpt lat="44.42015" lon="1.7804">
        <ele>302.9</ele>
        <time>2022-04-10T13:29:16Z</time>
      </trkpt>
      <trkpt lat="44.42021" lon="1.78037">
        <ele>302.9</ele>
        <time>2022-04-10T13:29:17Z</time>
      </trkpt>
      <trkpt lat="44.42027" lon="1.78034">
        <ele>302.9</ele>
        <time>2022-04-10T13:29:18Z</time>
      </trkpt>
      <trkpt lat="44.42032" lon="1.78031">
        <ele>302.8</ele>
        <time>2022-04-10T13:29:19Z</time>
      </trkpt>
      <trkpt lat="44.42038" lon="1.78028">
        <ele>302.8</ele>
        <time>2022-04-10T13:29:20Z</time>
      </trkpt>
      <trkpt lat="44.42043" lon="1.78024">
        <ele>302.8</ele>
        <time>2022-04-10T13:29:21Z</time>
      </trkpt>
      <trkpt lat="44.42049" lon="1.78021">
        <ele>302.8</ele>
        <time>2022-04-10T13:29:22Z</time>
      </trkpt>
      <trkpt lat="44.42054" lon="1.78017">
        <ele>302.8</ele>
        <time>2022-04-10T13:29:23Z</time>
      </trkpt>
      <trkpt lat="44.4206" lon="1.78015">
        <ele>302.8</ele>
        <time>2022-04-10T13:29:24Z</time>
      </trkpt>
      <trkpt lat="44.42065" lon="1.78013">
        <ele>302.7</ele>
        <time>2022-04-10T13:29:25Z</time>
      </trkpt>
      <trkpt lat="44.42071" lon="1.78012">
        <ele>302.7</ele>
        <time>2022-04-10T13:29:26Z</time>
      </trkpt>
      <trkpt lat="44.42077" lon="1.7801">
        <ele>302.6</ele>
        <time>2022-04-10T13:29:27Z</time>
      </trkpt>
      <trkpt lat="44.42082" lon="1.78008">
        <ele>302.5</ele>
        <time>2022-04-10T13:29:28Z</time>
      </trkpt>
      <trkpt lat="44.42088" lon="1.78007">
        <ele>302.5</ele>
        <time>2022-04-10T13:29:29Z</time>
      </trkpt>
      <trkpt lat="44.42094" lon="1.78004">
        <ele>302.4</ele>
        <time>2022-04-10T13:29:30Z</time>
      </trkpt>
      <trkpt lat="44.421" lon="1.78003">
        <ele>302.4</ele>
        <time>2022-04-10T13:29:31Z</time>
      </trkpt>
      <trkpt lat="44.42106" lon="1.78003">
        <ele>302.3</ele>
        <time>2022-04-10T13:29:32Z</time>
      </trkpt>
      <trkpt lat="44.42111" lon="1.78003">
        <ele>302.2</ele>
        <time>2022-04-10T13:29:33Z</time>
      </trkpt>
      <trkpt lat="44.42117" lon="1.78002">
        <ele>302.2</ele>
        <time>2022-04-10T13:29:34Z</time>
      </trkpt>
      <trkpt lat="44.42123" lon="1.78001">
        <ele>302.1</ele>
        <time>2022-04-10T13:29:35Z</time>
      </trkpt>
      <trkpt lat="44.42128" lon="1.78001">
        <ele>302.1</ele>
        <time>2022-04-10T13:29:36Z</time>
      </trkpt>
      <trkpt lat="44.42134" lon="1.78">
        <ele>302</ele>
        <time>2022-04-10T13:29:37Z</time>
      </trkpt>
      <trkpt lat="44.42139" lon="1.77999">
        <ele>302</ele>
        <time>2022-04-10T13:29:38Z</time>
      </trkpt>
      <trkpt lat="44.42145" lon="1.77999">
        <ele>302</ele>
        <time>2022-04-10T13:29:39Z</time>
      </trkpt>
      <trkpt lat="44.42151" lon="1.77999">
        <ele>301.9</ele>
        <time>2022-04-10T13:29:40Z</time>
      </trkpt>
      <trkpt lat="44.42157" lon="1.77998">
        <ele>301.9</ele>
        <time>2022-04-10T13:29:41Z</time>
      </trkpt>
      <trkpt lat="44.42163" lon="1.77997">
        <ele>301.8</ele>
        <time>2022-04-10T13:29:42Z</time>
      </trkpt>
      <trkpt lat="44.42168" lon="1.77995">
        <ele>301.8</ele>
        <time>2022-04-10T13:29:43Z</time>
      </trkpt>
      <trkpt lat="44.42174" lon="1.77994">
        <ele>301.7</ele>
        <time>2022-04-10T13:29:44Z</time>
      </trkpt>
      <trkpt lat="44.4218" lon="1.77992">
        <ele>301.6</ele>
        <time>2022-04-10T13:29:45Z</time>
      </trkpt>
      <trkpt lat="44.42185" lon="1.7799">
        <ele>301.5</ele>
        <time>2022-04-10T13:29:46Z</time>
      </trkpt>
      <trkpt lat="44.42191" lon="1.77988">
        <ele>301.4</ele>
        <time>2022-04-10T13:29:47Z</time>
      </trkpt>
      <trkpt lat="44.42197" lon="1.77985">
        <ele>301.2</ele>
        <time>2022-04-10T13:29:48Z</time>
      </trkpt>
      <trkpt lat="44.42203" lon="1.77983">
        <ele>301.1</ele>
        <time>2022-04-10T13:29:49Z</time>
      </trkpt>
      <trkpt lat="44.42209" lon="1.7798">
        <ele>300.9</ele>
        <time>2022-04-10T13:29:50Z</time>
      </trkpt>
      <trkpt lat="44.42215" lon="1.77977">
        <ele>300.7</ele>
        <time>2022-04-10T13:29:51Z</time>
      </trkpt>
      <trkpt lat="44.42221" lon="1.77973">
        <ele>300.5</ele>
        <time>2022-04-10T13:29:52Z</time>
      </trkpt>
      <trkpt lat="44.42227" lon="1.7797">
        <ele>300.3</ele>
        <time>2022-04-10T13:29:53Z</time>
      </trkpt>
      <trkpt lat="44.42233" lon="1.77967">
        <ele>300.1</ele>
        <time>2022-04-10T13:29:54Z</time>
      </trkpt>
      <trkpt lat="44.42239" lon="1.77963">
        <ele>299.9</ele>
        <time>2022-04-10T13:29:55Z</time>
      </trkpt>
      <trkpt lat="44.42246" lon="1.7796">
        <ele>299.7</ele>
        <time>2022-04-10T13:29:56Z</time>
      </trkpt>
      <trkpt lat="44.42252" lon="1.77956">
        <ele>299.5</ele>
        <time>2022-04-10T13:29:57Z</time>
      </trkpt>
      <trkpt lat="44.42258" lon="1.77953">
        <ele>299.3</ele>
        <time>2022-04-10T13:29:58Z</time>
      </trkpt>
      <trkpt lat="44.42265" lon="1.77949">
        <ele>299</ele>
        <time>2022-04-10T13:29:59Z</time>
      </trkpt>
      <trkpt lat="44.42271" lon="1.77945">
        <ele>298.8</ele>
        <time>2022-04-10T13:30:00Z</time>
      </trkpt>
      <trkpt lat="44.42278" lon="1.77942">
        <ele>298.6</ele>
        <time>2022-04-10T13:30:01Z</time>
      </trkpt>
      <trkpt lat="44.42285" lon="1.77938">
        <ele>298.3</ele>
        <time>2022-04-10T13:30:02Z</time>
      </trkpt>
      <trkpt lat="44.42292" lon="1.77935">
        <ele>298.1</ele>
        <time>2022-04-10T13:30:03Z</time>
      </trkpt>
      <trkpt lat="44.42298" lon="1.77931">
        <ele>297.9</ele>
        <time>2022-04-10T13:30:04Z</time>
      </trkpt>
      <trkpt lat="44.42305" lon="1.77927">
        <ele>297.7</ele>
        <time>2022-04-10T13:30:05Z</time>
      </trkpt>
      <trkpt lat="44.42311" lon="1.77924">
        <ele>297.5</ele>
        <time>2022-04-10T13:30:06Z</time>
      </trkpt>
      <trkpt lat="44.42318" lon="1.77921">
        <ele>297.3</ele>
        <time>2022-04-10T13:30:07Z</time>
      </trkpt>
      <trkpt lat="44.42324" lon="1.77918">
        <ele>297.1</ele>
        <time>2022-04-10T13:30:08Z</time>
      </trkpt>
      <trkpt lat="44.42331" lon="1.77914">
        <ele>296.8</ele>
        <time>2022-04-10T13:30:09Z</time>
      </trkpt>
      <trkpt lat="44.42337" lon="1.77911">
        <ele>296.6</ele>
        <time>2022-04-10T13:30:10Z</time>
      </trkpt>
      <trkpt lat="44.42344" lon="1.77907">
        <ele>296.2</ele>
        <time>2022-04-10T13:30:11Z</time>
      </trkpt>
      <trkpt lat="44.42351" lon="1.77903">
        <ele>295.8</ele>
        <time>2022-04-10T13:30:12Z</time>
      </trkpt>
      <trkpt lat="44.42358" lon="1.779">
        <ele>295.5</ele>
        <time>2022-04-10T13:30:13Z</time>
      </trkpt>
      <trkpt lat="44.42366" lon="1.77898">
        <ele>295.1</ele>
        <time>2022-04-10T13:30:14Z</time>
      </trkpt>
      <trkpt lat="44.42374" lon="1.77897">
        <ele>294.8</ele>
        <time>2022-04-10T13:30:15Z</time>
      </trkpt>
      <trkpt lat="44.42381" lon="1.77896">
        <ele>294.4</ele>
        <time>2022-04-10T13:30:16Z</time>
      </trkpt>
      <trkpt lat="44.42389" lon="1.77896">
        <ele>294.1</ele>
        <time>2022-04-10T13:30:17Z</time>
      </trkpt>
      <trkpt lat="44.42397" lon="1.77895">
        <ele>293.8</ele>
        <time>2022-04-10T13:30:18Z</time>
      </trkpt>
      <trkpt lat="44.42405" lon="1.77895">
        <ele>293.5</ele>
        <time>2022-04-10T13:30:19Z</time>
      </trkpt>
      <trkpt lat="44.42413" lon="1.77895">
        <ele>293.2</ele>
        <time>2022-04-10T13:30:20Z</time>
      </trkpt>
      <trkpt lat="44.42421" lon="1.77896">
        <ele>292.9</ele>
        <time>2022-04-10T13:30:21Z</time>
      </trkpt>
      <trkpt lat="44.42429" lon="1.77896">
        <ele>292.6</ele>
        <time>2022-04-10T13:30:22Z</time>
      </trkpt>
      <trkpt lat="44.42436" lon="1.77895">
        <ele>292.3</ele>
        <time>2022-04-10T13:30:23Z</time>
      </trkpt>
      <trkpt lat="44.42443" lon="1.77894">
        <ele>292</ele>
        <time>2022-04-10T13:30:24Z</time>
      </trkpt>
      <trkpt lat="44.42451" lon="1.77894">
        <ele>291.8</ele>
        <time>2022-04-10T13:30:25Z</time>
      </trkpt>
      <trkpt lat="44.42459" lon="1.77893">
        <ele>291.6</ele>
        <time>2022-04-10T13:30:26Z</time>
      </trkpt>
      <trkpt lat="44.42467" lon="1.77893">
        <ele>291.4</ele>
        <time>2022-04-10T13:30:27Z</time>
      </trkpt>
      <trkpt lat="44.42474" lon="1.77893">
        <ele>291.2</ele>
        <time>2022-04-10T13:30:28Z</time>
      </trkpt>
      <trkpt lat="44.42482" lon="1.77893">
        <ele>291</ele>
        <time>2022-04-10T13:30:29Z</time>
      </trkpt>
      <trkpt lat="44.4249" lon="1.77893">
        <ele>290.9</ele>
        <time>2022-04-10T13:30:30Z</time>
      </trkpt>
      <trkpt lat="44.42497" lon="1.77893">
        <ele>290.7</ele>
        <time>2022-04-10T13:30:31Z</time>
      </trkpt>
      <trkpt lat="44.42504" lon="1.77892">
        <ele>290.9</ele>
        <time>2022-04-10T13:30:32Z</time>
      </trkpt>
      <trkpt lat="44.42511" lon="1.7789">
        <ele>290.9</ele>
        <time>2022-04-10T13:30:33Z</time>
      </trkpt>
      <trkpt lat="44.42516" lon="1.77886">
        <ele>290.7</ele>
        <time>2022-04-10T13:30:34Z</time>
      </trkpt>
      <trkpt lat="44.42522" lon="1.77881">
        <ele>290.6</ele>
        <time>2022-04-10T13:30:35Z</time>
      </trkpt>
      <trkpt lat="44.42527" lon="1.77876">
        <ele>290.4</ele>
        <time>2022-04-10T13:30:36Z</time>
      </trkpt>
      <trkpt lat="44.42532" lon="1.7787">
        <ele>290.2</ele>
        <time>2022-04-10T13:30:37Z</time>
      </trkpt>
      <trkpt lat="44.42538" lon="1.77864">
        <ele>290</ele>
        <time>2022-04-10T13:30:38Z</time>
      </trkpt>
      <trkpt lat="44.42543" lon="1.77858">
        <ele>289.7</ele>
        <time>2022-04-10T13:30:39Z</time>
      </trkpt>
      <trkpt lat="44.42547" lon="1.77852">
        <ele>289.5</ele>
        <time>2022-04-10T13:30:40Z</time>
      </trkpt>
      <trkpt lat="44.42552" lon="1.77845">
        <ele>289.3</ele>
        <time>2022-04-10T13:30:41Z</time>
      </trkpt>
      <trkpt lat="44.42557" lon="1.77838">
        <ele>289.1</ele>
        <time>2022-04-10T13:30:42Z</time>
      </trkpt>
      <trkpt lat="44.42562" lon="1.77832">
        <ele>288.9</ele>
        <time>2022-04-10T13:30:43Z</time>
      </trkpt>
      <trkpt lat="44.42566" lon="1.77825">
        <ele>288.6</ele>
        <time>2022-04-10T13:30:44Z</time>
      </trkpt>
      <trkpt lat="44.42571" lon="1.77818">
        <ele>288.4</ele>
        <time>2022-04-10T13:30:45Z</time>
      </trkpt>
      <trkpt lat="44.42577" lon="1.77811">
        <ele>288.1</ele>
        <time>2022-04-10T13:30:46Z</time>
      </trkpt>
      <trkpt lat="44.42582" lon="1.77804">
        <ele>287.8</ele>
        <time>2022-04-10T13:30:47Z</time>
      </trkpt>
      <trkpt lat="44.42587" lon="1.77797">
        <ele>287.5</ele>
        <time>2022-04-10T13:30:48Z</time>
      </trkpt>
      <trkpt lat="44.42592" lon="1.7779">
        <ele>287.3</ele>
        <time>2022-04-10T13:30:49Z</time>
      </trkpt>
      <trkpt lat="44.42597" lon="1.77783">
        <ele>286.8</ele>
        <time>2022-04-10T13:30:50Z</time>
      </trkpt>
      <trkpt lat="44.42602" lon="1.77776">
        <ele>286.4</ele>
        <time>2022-04-10T13:30:51Z</time>
      </trkpt>
      <trkpt lat="44.42607" lon="1.77769">
        <ele>286.1</ele>
        <time>2022-04-10T13:30:52Z</time>
      </trkpt>
      <trkpt lat="44.42612" lon="1.77762">
        <ele>285.9</ele>
        <time>2022-04-10T13:30:53Z</time>
      </trkpt>
      <trkpt lat="44.42614" lon="1.77753">
        <ele>285.6</ele>
        <time>2022-04-10T13:30:54Z</time>
      </trkpt>
      <trkpt lat="44.42616" lon="1.77743">
        <ele>285.5</ele>
        <time>2022-04-10T13:30:55Z</time>
      </trkpt>
      <trkpt lat="44.42614" lon="1.77734">
        <ele>285.4</ele>
        <time>2022-04-10T13:30:56Z</time>
      </trkpt>
      <trkpt lat="44.42611" lon="1.77726">
        <ele>285.4</ele>
        <time>2022-04-10T13:30:57Z</time>
      </trkpt>
      <trkpt lat="44.42608" lon="1.77718">
        <ele>285.4</ele>
        <time>2022-04-10T13:30:58Z</time>
      </trkpt>
      <trkpt lat="44.42606" lon="1.7771">
        <ele>285.4</ele>
        <time>2022-04-10T13:30:59Z</time>
      </trkpt>
      <trkpt lat="44.42605" lon="1.77703">
        <ele>285.4</ele>
        <time>2022-04-10T13:31:00Z</time>
      </trkpt>
      <trkpt lat="44.42605" lon="1.77697">
        <ele>285.4</ele>
        <time>2022-04-10T13:31:01Z</time>
      </trkpt>
      <trkpt lat="44.42607" lon="1.7769">
        <ele>285.4</ele>
        <time>2022-04-10T13:31:02Z</time>
      </trkpt>
      <trkpt lat="44.42608" lon="1.77687">
        <ele>285.3</ele>
        <time>2022-04-10T13:31:03Z</time>
      </trkpt>
      <trkpt lat="44.4261" lon="1.77679">
        <ele>285.3</ele>
        <time>2022-04-10T13:31:04Z</time>
      </trkpt>
      <trkpt lat="44.42613" lon="1.77672">
        <ele>285.2</ele>
        <time>2022-04-10T13:31:05Z</time>
      </trkpt>
      <trkpt lat="44.42616" lon="1.77666">
        <ele>285.1</ele>
        <time>2022-04-10T13:31:06Z</time>
      </trkpt>
      <trkpt lat="44.4262" lon="1.77659">
        <ele>285</ele>
        <time>2022-04-10T13:31:07Z</time>
      </trkpt>
      <trkpt lat="44.42623" lon="1.77652">
        <ele>284.9</ele>
        <time>2022-04-10T13:31:08Z</time>
      </trkpt>
      <trkpt lat="44.42626" lon="1.77646">
        <ele>284.8</ele>
        <time>2022-04-10T13:31:09Z</time>
      </trkpt>
      <trkpt lat="44.42629" lon="1.77639">
        <ele>284.7</ele>
        <time>2022-04-10T13:31:10Z</time>
      </trkpt>
      <trkpt lat="44.42632" lon="1.77632">
        <ele>284.6</ele>
        <time>2022-04-10T13:31:11Z</time>
      </trkpt>
      <trkpt lat="44.42636" lon="1.77626">
        <ele>284.5</ele>
        <time>2022-04-10T13:31:12Z</time>
      </trkpt>
      <trkpt lat="44.4264" lon="1.77619">
        <ele>284.4</ele>
        <time>2022-04-10T13:31:13Z</time>
      </trkpt>
      <trkpt lat="44.42643" lon="1.77613">
        <ele>284.4</ele>
        <time>2022-04-10T13:31:14Z</time>
      </trkpt>
      <trkpt lat="44.42646" lon="1.77606">
        <ele>284.3</ele>
        <time>2022-04-10T13:31:15Z</time>
      </trkpt>
      <trkpt lat="44.42649" lon="1.77601">
        <ele>284.3</ele>
        <time>2022-04-10T13:31:16Z</time>
      </trkpt>
      <trkpt lat="44.42652" lon="1.77596">
        <ele>284.2</ele>
        <time>2022-04-10T13:31:17Z</time>
      </trkpt>
      <trkpt lat="44.42654" lon="1.77591">
        <ele>284.1</ele>
        <time>2022-04-10T13:31:18Z</time>
      </trkpt>
      <trkpt lat="44.42656" lon="1.77588">
        <ele>284.1</ele>
        <time>2022-04-10T13:31:19Z</time>
      </trkpt>
      <trkpt lat="44.42659" lon="1.77585">
        <ele>284.1</ele>
        <time>2022-04-10T13:31:20Z</time>
      </trkpt>
      <trkpt lat="44.42663" lon="1.77585">
        <ele>284.1</ele>
        <time>2022-04-10T13:31:21Z</time>
      </trkpt>
      <trkpt lat="44.42664" lon="1.77585">
        <ele>284.1</ele>
        <time>2022-04-10T13:31:22Z</time>
      </trkpt>
      <trkpt lat="44.42667" lon="1.77585">
        <ele>284.1</ele>
        <time>2022-04-10T13:31:23Z</time>
      </trkpt>
      <trkpt lat="44.42672" lon="1.77581">
        <ele>284.1</ele>
        <time>2022-04-10T13:31:24Z</time>
      </trkpt>
      <trkpt lat="44.42675" lon="1.77578">
        <ele>284.1</ele>
        <time>2022-04-10T13:31:25Z</time>
      </trkpt>
      <trkpt lat="44.42676" lon="1.77575">
        <ele>284.1</ele>
        <time>2022-04-10T13:31:26Z</time>
      </trkpt>
      <trkpt lat="44.42681" lon="1.77566">
        <ele>284.1</ele>
        <time>2022-04-10T13:31:27Z</time>
      </trkpt>
      <trkpt lat="44.42684" lon="1.77561">
        <ele>284</ele>
        <time>2022-04-10T13:31:28Z</time>
      </trkpt>
      <trkpt lat="44.42687" lon="1.77557">
        <ele>284</ele>
        <time>2022-04-10T13:31:29Z</time>
      </trkpt>
      <trkpt lat="44.42691" lon="1.77552">
        <ele>283.9</ele>
        <time>2022-04-10T13:31:30Z</time>
      </trkpt>
      <trkpt lat="44.42695" lon="1.77547">
        <ele>283.9</ele>
        <time>2022-04-10T13:31:31Z</time>
      </trkpt>
      <trkpt lat="44.42698" lon="1.77543">
        <ele>283.9</ele>
        <time>2022-04-10T13:31:32Z</time>
      </trkpt>
      <trkpt lat="44.42699" lon="1.77538">
        <ele>283.8</ele>
        <time>2022-04-10T13:31:33Z</time>
      </trkpt>
      <trkpt lat="44.42699" lon="1.77535">
        <ele>283.8</ele>
        <time>2022-04-10T13:31:34Z</time>
      </trkpt>
      <trkpt lat="44.42702" lon="1.77529">
        <ele>283.8</ele>
        <time>2022-04-10T13:31:35Z</time>
      </trkpt>
      <trkpt lat="44.42706" lon="1.77524">
        <ele>283.7</ele>
        <time>2022-04-10T13:31:36Z</time>
      </trkpt>
      <trkpt lat="44.42709" lon="1.77521">
        <ele>283.6</ele>
        <time>2022-04-10T13:31:37Z</time>
      </trkpt>
      <trkpt lat="44.42712" lon="1.77519">
        <ele>283.6</ele>
        <time>2022-04-10T13:31:38Z</time>
      </trkpt>
      <trkpt lat="44.42715" lon="1.77518">
        <ele>283.6</ele>
        <time>2022-04-10T13:31:39Z</time>
      </trkpt>
      <trkpt lat="44.42716" lon="1.77518">
        <ele>283.5</ele>
        <time>2022-04-10T13:31:41Z</time>
      </trkpt>
      <trkpt lat="44.42718" lon="1.77518">
        <ele>283.5</ele>
        <time>2022-04-10T13:31:42Z</time>
      </trkpt>
      <trkpt lat="44.42719" lon="1.77518">
        <ele>283.5</ele>
        <time>2022-04-10T13:31:43Z</time>
      </trkpt>
      <trkpt lat="44.4272" lon="1.77516">
        <ele>283.5</ele>
        <time>2022-04-10T13:31:44Z</time>
      </trkpt>
      <trkpt lat="44.42721" lon="1.77514">
        <ele>283.5</ele>
        <time>2022-04-10T13:31:45Z</time>
      </trkpt>
      <trkpt lat="44.42719" lon="1.77512">
        <ele>283.4</ele>
        <time>2022-04-10T13:31:47Z</time>
      </trkpt>
      <trkpt lat="44.42718" lon="1.77511">
        <ele>283.4</ele>
        <time>2022-04-10T13:31:48Z</time>
      </trkpt>
      <trkpt lat="44.42717" lon="1.7751">
        <ele>283.4</ele>
        <time>2022-04-10T13:31:49Z</time>
      </trkpt>
      <trkpt lat="44.42713" lon="1.7751">
        <ele>283.4</ele>
        <time>2022-04-10T13:31:50Z</time>
      </trkpt>
      <trkpt lat="44.42712" lon="1.7751">
        <ele>283.4</ele>
        <time>2022-04-10T13:31:51Z</time>
      </trkpt>
      <trkpt lat="44.42709" lon="1.77508">
        <ele>283.3</ele>
        <time>2022-04-10T13:31:53Z</time>
      </trkpt>
      <trkpt lat="44.42709" lon="1.77508">
        <ele>283.3</ele>
        <time>2022-04-10T13:31:54Z</time>
      </trkpt>
      <trkpt lat="44.42708" lon="1.77507">
        <ele>283.3</ele>
        <time>2022-04-10T13:31:55Z</time>
      </trkpt>
      <trkpt lat="44.42707" lon="1.77505">
        <ele>283.3</ele>
        <time>2022-04-10T13:31:56Z</time>
      </trkpt>
      <trkpt lat="44.42705" lon="1.77505">
        <ele>283.3</ele>
        <time>2022-04-10T13:31:58Z</time>
      </trkpt>
      <trkpt lat="44.42704" lon="1.77507">
        <ele>283.3</ele>
        <time>2022-04-10T13:31:59Z</time>
      </trkpt>
      <trkpt lat="44.42703" lon="1.77509">
        <ele>283.4</ele>
        <time>2022-04-10T13:32:00Z</time>
      </trkpt>
      <trkpt lat="44.42701" lon="1.77514">
        <ele>283.4</ele>
        <time>2022-04-10T13:32:02Z</time>
      </trkpt>
      <trkpt lat="44.427" lon="1.77515">
        <ele>283.4</ele>
        <time>2022-04-10T13:32:03Z</time>
      </trkpt>
      <trkpt lat="44.42699" lon="1.77516">
        <ele>283.4</ele>
        <time>2022-04-10T13:32:04Z</time>
      </trkpt>
      <trkpt lat="44.42698" lon="1.77517">
        <ele>283.4</ele>
        <time>2022-04-10T13:32:05Z</time>
      </trkpt>
      <trkpt lat="44.42699" lon="1.77516">
        <ele>283.5</ele>
        <time>2022-04-10T13:32:06Z</time>
      </trkpt>
      <trkpt lat="44.42699" lon="1.77515">
        <ele>283.5</ele>
        <time>2022-04-10T13:32:07Z</time>
      </trkpt>
      <trkpt lat="44.42699" lon="1.77515">
        <ele>283.5</ele>
        <time>2022-04-10T13:32:08Z</time>
      </trkpt>
      <trkpt lat="44.42699" lon="1.77515">
        <ele>283.5</ele>
        <time>2022-04-10T13:32:09Z</time>
      </trkpt>
      <trkpt lat="44.42699" lon="1.77515">
        <ele>283.5</ele>
        <time>2022-04-10T13:32:10Z</time>
      </trkpt>
      <trkpt lat="44.42699" lon="1.77515">
        <ele>283.5</ele>
        <time>2022-04-10T13:32:11Z</time>
      </trkpt>
      <trkpt lat="44.42699" lon="1.77515">
        <ele>283.5</ele>
        <time>2022-04-10T13:32:12Z</time>
      </trkpt>
      <trkpt lat="44.42699" lon="1.77515">
        <ele>283.5</ele>
        <time>2022-04-10T13:32:13Z</time>
      </trkpt>
      <trkpt lat="44.42699" lon="1.77515">
        <ele>283.5</ele>
        <time>2022-04-10T13:32:14Z</time>
      </trkpt>
      <trkpt lat="44.42699" lon="1.77515">
        <ele>283.5</ele>
        <time>2022-04-10T13:32:15Z</time>
      </trkpt>
      <trkpt lat="44.42699" lon="1.77507">
        <ele>283.5</ele>
        <time>2022-04-10T13:32:19Z</time>
      </trkpt>
      <trkpt lat="44.427" lon="1.77503">
        <ele>283.6</ele>
        <time>2022-04-10T13:32:20Z</time>
      </trkpt>
      <trkpt lat="44.42705" lon="1.77495">
        <ele>283.6</ele>
        <time>2022-04-10T13:32:21Z</time>
      </trkpt>
      <trkpt lat="44.42708" lon="1.77488">
        <ele>283.6</ele>
        <time>2022-04-10T13:32:22Z</time>
      </trkpt>
      <trkpt lat="44.4271" lon="1.77482">
        <ele>283.6</ele>
        <time>2022-04-10T13:32:23Z</time>
      </trkpt>
      <trkpt lat="44.42712" lon="1.77478">
        <ele>283.6</ele>
        <time>2022-04-10T13:32:24Z</time>
      </trkpt>
      <trkpt lat="44.42715" lon="1.77471">
        <ele>283.6</ele>
        <time>2022-04-10T13:32:25Z</time>
      </trkpt>
      <trkpt lat="44.42718" lon="1.77466">
        <ele>283.6</ele>
        <time>2022-04-10T13:32:26Z</time>
      </trkpt>
      <trkpt lat="44.4272" lon="1.77459">
        <ele>283.7</ele>
        <time>2022-04-10T13:32:27Z</time>
      </trkpt>
      <trkpt lat="44.42723" lon="1.77453">
        <ele>283.7</ele>
        <time>2022-04-10T13:32:28Z</time>
      </trkpt>
      <trkpt lat="44.42725" lon="1.77446">
        <ele>283.8</ele>
        <time>2022-04-10T13:32:29Z</time>
      </trkpt>
      <trkpt lat="44.42727" lon="1.7744">
        <ele>283.9</ele>
        <time>2022-04-10T13:32:30Z</time>
      </trkpt>
      <trkpt lat="44.42729" lon="1.77435">
        <ele>284.1</ele>
        <time>2022-04-10T13:32:31Z</time>
      </trkpt>
      <trkpt lat="44.42733" lon="1.77426">
        <ele>284.1</ele>
        <time>2022-04-10T13:32:33Z</time>
      </trkpt>
      <trkpt lat="44.42736" lon="1.7742">
        <ele>284.2</ele>
        <time>2022-04-10T13:32:34Z</time>
      </trkpt>
      <trkpt lat="44.42739" lon="1.77414">
        <ele>284.3</ele>
        <time>2022-04-10T13:32:35Z</time>
      </trkpt>
      <trkpt lat="44.42741" lon="1.7741">
        <ele>284.4</ele>
        <time>2022-04-10T13:32:36Z</time>
      </trkpt>
      <trkpt lat="44.42744" lon="1.77405">
        <ele>284.5</ele>
        <time>2022-04-10T13:32:37Z</time>
      </trkpt>
      <trkpt lat="44.42747" lon="1.77398">
        <ele>284.7</ele>
        <time>2022-04-10T13:32:38Z</time>
      </trkpt>
      <trkpt lat="44.4275" lon="1.7739">
        <ele>284.8</ele>
        <time>2022-04-10T13:32:40Z</time>
      </trkpt>
      <trkpt lat="44.42754" lon="1.77384">
        <ele>284.9</ele>
        <time>2022-04-10T13:32:41Z</time>
      </trkpt>
      <trkpt lat="44.42757" lon="1.77378">
        <ele>284.9</ele>
        <time>2022-04-10T13:32:42Z</time>
      </trkpt>
      <trkpt lat="44.4276" lon="1.7737">
        <ele>285.1</ele>
        <time>2022-04-10T13:32:44Z</time>
      </trkpt>
      <trkpt lat="44.42763" lon="1.77363">
        <ele>285.2</ele>
        <time>2022-04-10T13:32:45Z</time>
      </trkpt>
      <trkpt lat="44.42766" lon="1.77356">
        <ele>285.3</ele>
        <time>2022-04-10T13:32:46Z</time>
      </trkpt>
      <trkpt lat="44.42769" lon="1.77351">
        <ele>285.5</ele>
        <time>2022-04-10T13:32:47Z</time>
      </trkpt>
      <trkpt lat="44.42772" lon="1.77345">
        <ele>285.5</ele>
        <time>2022-04-10T13:32:48Z</time>
      </trkpt>
      <trkpt lat="44.42774" lon="1.7734">
        <ele>285.6</ele>
        <time>2022-04-10T13:32:49Z</time>
      </trkpt>
      <trkpt lat="44.42777" lon="1.77333">
        <ele>285.7</ele>
        <time>2022-04-10T13:32:50Z</time>
      </trkpt>
      <trkpt lat="44.4278" lon="1.77327">
        <ele>285.9</ele>
        <time>2022-04-10T13:32:51Z</time>
      </trkpt>
      <trkpt lat="44.42783" lon="1.7732">
        <ele>286</ele>
        <time>2022-04-10T13:32:52Z</time>
      </trkpt>
      <trkpt lat="44.42786" lon="1.77314">
        <ele>286.2</ele>
        <time>2022-04-10T13:32:53Z</time>
      </trkpt>
      <trkpt lat="44.42789" lon="1.77307">
        <ele>286.3</ele>
        <time>2022-04-10T13:32:54Z</time>
      </trkpt>
      <trkpt lat="44.42792" lon="1.773">
        <ele>286.5</ele>
        <time>2022-04-10T13:32:55Z</time>
      </trkpt>
      <trkpt lat="44.42794" lon="1.77293">
        <ele>286.7</ele>
        <time>2022-04-10T13:32:56Z</time>
      </trkpt>
      <trkpt lat="44.42796" lon="1.77286">
        <ele>286.8</ele>
        <time>2022-04-10T13:32:57Z</time>
      </trkpt>
      <trkpt lat="44.42798" lon="1.7728">
        <ele>286.9</ele>
        <time>2022-04-10T13:32:58Z</time>
      </trkpt>
      <trkpt lat="44.428" lon="1.77274">
        <ele>287</ele>
        <time>2022-04-10T13:32:59Z</time>
      </trkpt>
      <trkpt lat="44.42801" lon="1.77267">
        <ele>287</ele>
        <time>2022-04-10T13:33:00Z</time>
      </trkpt>
      <trkpt lat="44.42803" lon="1.77261">
        <ele>287.1</ele>
        <time>2022-04-10T13:33:01Z</time>
      </trkpt>
      <trkpt lat="44.42804" lon="1.77254">
        <ele>287.2</ele>
        <time>2022-04-10T13:33:02Z</time>
      </trkpt>
      <trkpt lat="44.42806" lon="1.77248">
        <ele>287.2</ele>
        <time>2022-04-10T13:33:03Z</time>
      </trkpt>
      <trkpt lat="44.42807" lon="1.77241">
        <ele>287.2</ele>
        <time>2022-04-10T13:33:04Z</time>
      </trkpt>
      <trkpt lat="44.42808" lon="1.77234">
        <ele>287.2</ele>
        <time>2022-04-10T13:33:05Z</time>
      </trkpt>
      <trkpt lat="44.4281" lon="1.77228">
        <ele>287.3</ele>
        <time>2022-04-10T13:33:06Z</time>
      </trkpt>
      <trkpt lat="44.42812" lon="1.77221">
        <ele>287.3</ele>
        <time>2022-04-10T13:33:07Z</time>
      </trkpt>
      <trkpt lat="44.42813" lon="1.77215">
        <ele>287.4</ele>
        <time>2022-04-10T13:33:08Z</time>
      </trkpt>
      <trkpt lat="44.42815" lon="1.77208">
        <ele>287.4</ele>
        <time>2022-04-10T13:33:09Z</time>
      </trkpt>
      <trkpt lat="44.42817" lon="1.77202">
        <ele>287.5</ele>
        <time>2022-04-10T13:33:10Z</time>
      </trkpt>
      <trkpt lat="44.42819" lon="1.77196">
        <ele>287.5</ele>
        <time>2022-04-10T13:33:11Z</time>
      </trkpt>
      <trkpt lat="44.42821" lon="1.77189">
        <ele>287.5</ele>
        <time>2022-04-10T13:33:12Z</time>
      </trkpt>
      <trkpt lat="44.42823" lon="1.77182">
        <ele>287.6</ele>
        <time>2022-04-10T13:33:13Z</time>
      </trkpt>
      <trkpt lat="44.42825" lon="1.77175">
        <ele>287.6</ele>
        <time>2022-04-10T13:33:14Z</time>
      </trkpt>
      <trkpt lat="44.42827" lon="1.77168">
        <ele>287.6</ele>
        <time>2022-04-10T13:33:15Z</time>
      </trkpt>
      <trkpt lat="44.4283" lon="1.77161">
        <ele>287.6</ele>
        <time>2022-04-10T13:33:16Z</time>
      </trkpt>
      <trkpt lat="44.42832" lon="1.77153">
        <ele>287.6</ele>
        <time>2022-04-10T13:33:17Z</time>
      </trkpt>
      <trkpt lat="44.42835" lon="1.77146">
        <ele>287.6</ele>
        <time>2022-04-10T13:33:18Z</time>
      </trkpt>
      <trkpt lat="44.42838" lon="1.77139">
        <ele>287.7</ele>
        <time>2022-04-10T13:33:19Z</time>
      </trkpt>
      <trkpt lat="44.42842" lon="1.77132">
        <ele>287.7</ele>
        <time>2022-04-10T13:33:20Z</time>
      </trkpt>
      <trkpt lat="44.42846" lon="1.77125">
        <ele>287.9</ele>
        <time>2022-04-10T13:33:21Z</time>
      </trkpt>
      <trkpt lat="44.42849" lon="1.77119">
        <ele>288</ele>
        <time>2022-04-10T13:33:22Z</time>
      </trkpt>
      <trkpt lat="44.42852" lon="1.77112">
        <ele>288.1</ele>
        <time>2022-04-10T13:33:23Z</time>
      </trkpt>
      <trkpt lat="44.42855" lon="1.77106">
        <ele>288.2</ele>
        <time>2022-04-10T13:33:24Z</time>
      </trkpt>
      <trkpt lat="44.42859" lon="1.771">
        <ele>288.3</ele>
        <time>2022-04-10T13:33:25Z</time>
      </trkpt>
      <trkpt lat="44.42862" lon="1.77095">
        <ele>288.4</ele>
        <time>2022-04-10T13:33:26Z</time>
      </trkpt>
      <trkpt lat="44.42865" lon="1.77089">
        <ele>288.4</ele>
        <time>2022-04-10T13:33:27Z</time>
      </trkpt>
      <trkpt lat="44.42868" lon="1.77083">
        <ele>288.5</ele>
        <time>2022-04-10T13:33:28Z</time>
      </trkpt>
      <trkpt lat="44.42872" lon="1.77078">
        <ele>288.6</ele>
        <time>2022-04-10T13:33:29Z</time>
      </trkpt>
      <trkpt lat="44.42874" lon="1.77072">
        <ele>288.6</ele>
        <time>2022-04-10T13:33:30Z</time>
      </trkpt>
      <trkpt lat="44.42877" lon="1.77067">
        <ele>288.7</ele>
        <time>2022-04-10T13:33:31Z</time>
      </trkpt>
      <trkpt lat="44.4288" lon="1.77062">
        <ele>288.7</ele>
        <time>2022-04-10T13:33:32Z</time>
      </trkpt>
      <trkpt lat="44.42882" lon="1.77058">
        <ele>288.8</ele>
        <time>2022-04-10T13:33:33Z</time>
      </trkpt>
      <trkpt lat="44.42884" lon="1.77053">
        <ele>288.9</ele>
        <time>2022-04-10T13:33:34Z</time>
      </trkpt>
      <trkpt lat="44.42886" lon="1.77049">
        <ele>289</ele>
        <time>2022-04-10T13:33:35Z</time>
      </trkpt>
      <trkpt lat="44.42889" lon="1.77045">
        <ele>289.1</ele>
        <time>2022-04-10T13:33:36Z</time>
      </trkpt>
      <trkpt lat="44.42891" lon="1.77042">
        <ele>289.2</ele>
        <time>2022-04-10T13:33:37Z</time>
      </trkpt>
      <trkpt lat="44.42894" lon="1.77037">
        <ele>289.4</ele>
        <time>2022-04-10T13:33:38Z</time>
      </trkpt>
      <trkpt lat="44.42896" lon="1.77034">
        <ele>289.5</ele>
        <time>2022-04-10T13:33:39Z</time>
      </trkpt>
      <trkpt lat="44.42898" lon="1.7703">
        <ele>289.5</ele>
        <time>2022-04-10T13:33:40Z</time>
      </trkpt>
      <trkpt lat="44.42901" lon="1.77026">
        <ele>289.6</ele>
        <time>2022-04-10T13:33:41Z</time>
      </trkpt>
      <trkpt lat="44.42903" lon="1.77023">
        <ele>289.6</ele>
        <time>2022-04-10T13:33:42Z</time>
      </trkpt>
      <trkpt lat="44.42905" lon="1.77019">
        <ele>289.6</ele>
        <time>2022-04-10T13:33:43Z</time>
      </trkpt>
      <trkpt lat="44.42908" lon="1.77014">
        <ele>289.6</ele>
        <time>2022-04-10T13:33:44Z</time>
      </trkpt>
      <trkpt lat="44.4291" lon="1.77011">
        <ele>289.6</ele>
        <time>2022-04-10T13:33:45Z</time>
      </trkpt>
      <trkpt lat="44.42914" lon="1.77005">
        <ele>289.7</ele>
        <time>2022-04-10T13:33:46Z</time>
      </trkpt>
      <trkpt lat="44.42917" lon="1.77001">
        <ele>289.7</ele>
        <time>2022-04-10T13:33:47Z</time>
      </trkpt>
      <trkpt lat="44.4292" lon="1.76997">
        <ele>289.8</ele>
        <time>2022-04-10T13:33:48Z</time>
      </trkpt>
      <trkpt lat="44.42923" lon="1.76993">
        <ele>289.8</ele>
        <time>2022-04-10T13:33:49Z</time>
      </trkpt>
      <trkpt lat="44.42926" lon="1.76989">
        <ele>289.7</ele>
        <time>2022-04-10T13:33:50Z</time>
      </trkpt>
      <trkpt lat="44.42928" lon="1.76985">
        <ele>289.7</ele>
        <time>2022-04-10T13:33:51Z</time>
      </trkpt>
      <trkpt lat="44.42931" lon="1.76981">
        <ele>289.6</ele>
        <time>2022-04-10T13:33:52Z</time>
      </trkpt>
      <trkpt lat="44.42934" lon="1.76979">
        <ele>289.5</ele>
        <time>2022-04-10T13:33:53Z</time>
      </trkpt>
      <trkpt lat="44.42939" lon="1.76975">
        <ele>289.4</ele>
        <time>2022-04-10T13:33:55Z</time>
      </trkpt>
      <trkpt lat="44.42944" lon="1.76972">
        <ele>289.4</ele>
        <time>2022-04-10T13:33:56Z</time>
      </trkpt>
      <trkpt lat="44.42947" lon="1.76969">
        <ele>289.4</ele>
        <time>2022-04-10T13:33:57Z</time>
      </trkpt>
      <trkpt lat="44.4295" lon="1.76968">
        <ele>289.4</ele>
        <time>2022-04-10T13:33:58Z</time>
      </trkpt>
      <trkpt lat="44.42951" lon="1.76968">
        <ele>289.4</ele>
        <time>2022-04-10T13:33:59Z</time>
      </trkpt>
      <trkpt lat="44.42951" lon="1.76967">
        <ele>289.4</ele>
        <time>2022-04-10T13:34:00Z</time>
      </trkpt>
      <trkpt lat="44.42954" lon="1.76967">
        <ele>289.2</ele>
        <time>2022-04-10T13:34:02Z</time>
      </trkpt>
      <trkpt lat="44.42956" lon="1.76965">
        <ele>289.1</ele>
        <time>2022-04-10T13:34:03Z</time>
      </trkpt>
      <trkpt lat="44.42959" lon="1.76963">
        <ele>289</ele>
        <time>2022-04-10T13:34:04Z</time>
      </trkpt>
      <trkpt lat="44.42963" lon="1.76961">
        <ele>288.9</ele>
        <time>2022-04-10T13:34:05Z</time>
      </trkpt>
      <trkpt lat="44.42968" lon="1.76958">
        <ele>288.7</ele>
        <time>2022-04-10T13:34:06Z</time>
      </trkpt>
      <trkpt lat="44.42973" lon="1.76956">
        <ele>288.5</ele>
        <time>2022-04-10T13:34:07Z</time>
      </trkpt>
      <trkpt lat="44.42978" lon="1.76954">
        <ele>288.3</ele>
        <time>2022-04-10T13:34:08Z</time>
      </trkpt>
      <trkpt lat="44.42984" lon="1.76951">
        <ele>288.1</ele>
        <time>2022-04-10T13:34:09Z</time>
      </trkpt>
      <trkpt lat="44.42989" lon="1.76948">
        <ele>288.4</ele>
        <time>2022-04-10T13:34:10Z</time>
      </trkpt>
      <trkpt lat="44.42994" lon="1.76945">
        <ele>288.4</ele>
        <time>2022-04-10T13:34:11Z</time>
      </trkpt>
      <trkpt lat="44.42995" lon="1.76944">
        <ele>288.4</ele>
        <time>2022-04-10T13:34:12Z</time>
      </trkpt>
      <trkpt lat="44.43" lon="1.76938">
        <ele>287.1</ele>
        <time>2022-04-10T13:34:14Z</time>
      </trkpt>
      <trkpt lat="44.43006" lon="1.76929">
        <ele>288.2</ele>
        <time>2022-04-10T13:34:15Z</time>
      </trkpt>
      <trkpt lat="44.43009" lon="1.76925">
        <ele>288.2</ele>
        <time>2022-04-10T13:34:17Z</time>
      </trkpt>
      <trkpt lat="44.43015" lon="1.7692">
        <ele>287.1</ele>
        <time>2022-04-10T13:34:18Z</time>
      </trkpt>
      <trkpt lat="44.43019" lon="1.76918">
        <ele>287.1</ele>
        <time>2022-04-10T13:34:19Z</time>
      </trkpt>
      <trkpt lat="44.43023" lon="1.7692">
        <ele>285.9</ele>
        <time>2022-04-10T13:34:20Z</time>
      </trkpt>
      <trkpt lat="44.4303" lon="1.76927">
        <ele>285.9</ele>
        <time>2022-04-10T13:34:21Z</time>
      </trkpt>
      <trkpt lat="44.43036" lon="1.76933">
        <ele>282.4</ele>
        <time>2022-04-10T13:34:22Z</time>
      </trkpt>
      <trkpt lat="44.43043" lon="1.76942">
        <ele>282.4</ele>
        <time>2022-04-10T13:34:23Z</time>
      </trkpt>
      <trkpt lat="44.43051" lon="1.76951">
        <ele>278</ele>
        <time>2022-04-10T13:34:24Z</time>
      </trkpt>
      <trkpt lat="44.43059" lon="1.7696">
        <ele>278</ele>
        <time>2022-04-10T13:34:25Z</time>
      </trkpt>
      <trkpt lat="44.43068" lon="1.76968">
        <ele>273.5</ele>
        <time>2022-04-10T13:34:26Z</time>
      </trkpt>
      <trkpt lat="44.43078" lon="1.76976">
        <ele>271.8</ele>
        <time>2022-04-10T13:34:27Z</time>
      </trkpt>
      <trkpt lat="44.43087" lon="1.76986">
        <ele>268.6</ele>
        <time>2022-04-10T13:34:28Z</time>
      </trkpt>
      <trkpt lat="44.43097" lon="1.76996">
        <ele>267.3</ele>
        <time>2022-04-10T13:34:29Z</time>
      </trkpt>
      <trkpt lat="44.43107" lon="1.77007">
        <ele>265.7</ele>
        <time>2022-04-10T13:34:30Z</time>
      </trkpt>
      <trkpt lat="44.43117" lon="1.77018">
        <ele>264.6</ele>
        <time>2022-04-10T13:34:31Z</time>
      </trkpt>
      <trkpt lat="44.43126" lon="1.77029">
        <ele>265</ele>
        <time>2022-04-10T13:34:32Z</time>
      </trkpt>
      <trkpt lat="44.43136" lon="1.7704">
        <ele>265.5</ele>
        <time>2022-04-10T13:34:33Z</time>
      </trkpt>
      <trkpt lat="44.43145" lon="1.7705">
        <ele>265.5</ele>
        <time>2022-04-10T13:34:34Z</time>
      </trkpt>
      <trkpt lat="44.43154" lon="1.77061">
        <ele>265.9</ele>
        <time>2022-04-10T13:34:35Z</time>
      </trkpt>
      <trkpt lat="44.43163" lon="1.77071">
        <ele>266.1</ele>
        <time>2022-04-10T13:34:36Z</time>
      </trkpt>
      <trkpt lat="44.43171" lon="1.7708">
        <ele>266.4</ele>
        <time>2022-04-10T13:34:37Z</time>
      </trkpt>
      <trkpt lat="44.43179" lon="1.77086">
        <ele>267</ele>
        <time>2022-04-10T13:34:38Z</time>
      </trkpt>
      <trkpt lat="44.43186" lon="1.77091">
        <ele>267.5</ele>
        <time>2022-04-10T13:34:39Z</time>
      </trkpt>
      <trkpt lat="44.43192" lon="1.77096">
        <ele>267.5</ele>
        <time>2022-04-10T13:34:40Z</time>
      </trkpt>
      <trkpt lat="44.43196" lon="1.77101">
        <ele>268.3</ele>
        <time>2022-04-10T13:34:41Z</time>
      </trkpt>
      <trkpt lat="44.43196" lon="1.77106">
        <ele>269.1</ele>
        <time>2022-04-10T13:34:42Z</time>
      </trkpt>
      <trkpt lat="44.43195" lon="1.7711">
        <ele>269.1</ele>
        <time>2022-04-10T13:34:43Z</time>
      </trkpt>
      <trkpt lat="44.43192" lon="1.77112">
        <ele>268.3</ele>
        <time>2022-04-10T13:34:44Z</time>
      </trkpt>
      <trkpt lat="44.4319" lon="1.77113">
        <ele>268.3</ele>
        <time>2022-04-10T13:34:45Z</time>
      </trkpt>
      <trkpt lat="44.43187" lon="1.77115">
        <ele>268.3</ele>
        <time>2022-04-10T13:34:46Z</time>
      </trkpt>
      <trkpt lat="44.43184" lon="1.77118">
        <ele>268.3</ele>
        <time>2022-04-10T13:34:47Z</time>
      </trkpt>
      <trkpt lat="44.43182" lon="1.7712">
        <ele>267.7</ele>
        <time>2022-04-10T13:34:48Z</time>
      </trkpt>
      <trkpt lat="44.43179" lon="1.77123">
        <ele>268.6</ele>
        <time>2022-04-10T13:34:49Z</time>
      </trkpt>
      <trkpt lat="44.43176" lon="1.77129">
        <ele>268.6</ele>
        <time>2022-04-10T13:34:51Z</time>
      </trkpt>
      <trkpt lat="44.43173" lon="1.77132">
        <ele>268.6</ele>
        <time>2022-04-10T13:34:52Z</time>
      </trkpt>
      <trkpt lat="44.43172" lon="1.77136">
        <ele>268.6</ele>
        <time>2022-04-10T13:34:53Z</time>
      </trkpt>
      <trkpt lat="44.43173" lon="1.7714">
        <ele>269.7</ele>
        <time>2022-04-10T13:34:54Z</time>
      </trkpt>
      <trkpt lat="44.43174" lon="1.77143">
        <ele>269.7</ele>
        <time>2022-04-10T13:34:55Z</time>
      </trkpt>
      <trkpt lat="44.43177" lon="1.77146">
        <ele>269.7</ele>
        <time>2022-04-10T13:34:56Z</time>
      </trkpt>
      <trkpt lat="44.43178" lon="1.77147">
        <ele>269.7</ele>
        <time>2022-04-10T13:34:57Z</time>
      </trkpt>
      <trkpt lat="44.43182" lon="1.77151">
        <ele>269.7</ele>
        <time>2022-04-10T13:34:58Z</time>
      </trkpt>
      <trkpt lat="44.43183" lon="1.77152">
        <ele>270.4</ele>
        <time>2022-04-10T13:34:59Z</time>
      </trkpt>
      <trkpt lat="44.43185" lon="1.77154">
        <ele>270.4</ele>
        <time>2022-04-10T13:35:00Z</time>
      </trkpt>
      <trkpt lat="44.43188" lon="1.77156">
        <ele>271.4</ele>
        <time>2022-04-10T13:35:01Z</time>
      </trkpt>
      <trkpt lat="44.43189" lon="1.77157">
        <ele>271.4</ele>
        <time>2022-04-10T13:35:02Z</time>
      </trkpt>
      <trkpt lat="44.43191" lon="1.77158">
        <ele>271.3</ele>
        <time>2022-04-10T13:35:03Z</time>
      </trkpt>
      <trkpt lat="44.43192" lon="1.77159">
        <ele>271.3</ele>
        <time>2022-04-10T13:35:05Z</time>
      </trkpt>
      <trkpt lat="44.43193" lon="1.77159">
        <ele>271.3</ele>
        <time>2022-04-10T13:35:06Z</time>
      </trkpt>
      <trkpt lat="44.43195" lon="1.77158">
        <ele>272</ele>
        <time>2022-04-10T13:35:07Z</time>
      </trkpt>
      <trkpt lat="44.43195" lon="1.77158">
        <ele>272</ele>
        <time>2022-04-10T13:35:08Z</time>
      </trkpt>
      <trkpt lat="44.43195" lon="1.77157">
        <ele>272</ele>
        <time>2022-04-10T13:35:09Z</time>
      </trkpt>
      <trkpt lat="44.43195" lon="1.77156">
        <ele>272</ele>
        <time>2022-04-10T13:35:11Z</time>
      </trkpt>
      <trkpt lat="44.43195" lon="1.77156">
        <ele>272</ele>
        <time>2022-04-10T13:35:12Z</time>
      </trkpt>
      <trkpt lat="44.43195" lon="1.77156">
        <ele>272</ele>
        <time>2022-04-10T13:35:13Z</time>
      </trkpt>
      <trkpt lat="44.43195" lon="1.77156">
        <ele>272</ele>
        <time>2022-04-10T13:35:14Z</time>
      </trkpt>
      <trkpt lat="44.43195" lon="1.77156">
        <ele>272</ele>
        <time>2022-04-10T13:35:15Z</time>
      </trkpt>
      <trkpt lat="44.43195" lon="1.77156">
        <ele>272</ele>
        <time>2022-04-10T13:35:16Z</time>
      </trkpt>
      <trkpt lat="44.43195" lon="1.77155">
        <ele>272</ele>
        <time>2022-04-10T13:35:17Z</time>
      </trkpt>
      <trkpt lat="44.43195" lon="1.77155">
        <ele>272</ele>
        <time>2022-04-10T13:35:18Z</time>
      </trkpt>
      <trkpt lat="44.43192" lon="1.7716">
        <ele>271.3</ele>
        <time>2022-04-10T13:35:32Z</time>
      </trkpt>
      <trkpt lat="44.4319" lon="1.77164">
        <ele>271.3</ele>
        <time>2022-04-10T13:35:33Z</time>
      </trkpt>
      <trkpt lat="44.4319" lon="1.77168">
        <ele>271.3</ele>
        <time>2022-04-10T13:35:34Z</time>
      </trkpt>
      <trkpt lat="44.4319" lon="1.7717">
        <ele>271.3</ele>
        <time>2022-04-10T13:35:35Z</time>
      </trkpt>
      <trkpt lat="44.4319" lon="1.77173">
        <ele>272.3</ele>
        <time>2022-04-10T13:35:36Z</time>
      </trkpt>
      <trkpt lat="44.43191" lon="1.77179">
        <ele>272.3</ele>
        <time>2022-04-10T13:35:38Z</time>
      </trkpt>
      <trkpt lat="44.43191" lon="1.77184">
        <ele>272.3</ele>
        <time>2022-04-10T13:35:39Z</time>
      </trkpt>
      <trkpt lat="44.43191" lon="1.77188">
        <ele>272.3</ele>
        <time>2022-04-10T13:35:40Z</time>
      </trkpt>
      <trkpt lat="44.43191" lon="1.77192">
        <ele>273.4</ele>
        <time>2022-04-10T13:35:41Z</time>
      </trkpt>
      <trkpt lat="44.43192" lon="1.77196">
        <ele>273.4</ele>
        <time>2022-04-10T13:35:42Z</time>
      </trkpt>
      <trkpt lat="44.43193" lon="1.77201">
        <ele>273.4</ele>
        <time>2022-04-10T13:35:43Z</time>
      </trkpt>
      <trkpt lat="44.43193" lon="1.77205">
        <ele>273.4</ele>
        <time>2022-04-10T13:35:44Z</time>
      </trkpt>
      <trkpt lat="44.43192" lon="1.7721">
        <ele>274.5</ele>
        <time>2022-04-10T13:35:45Z</time>
      </trkpt>
      <trkpt lat="44.43192" lon="1.77216">
        <ele>274.5</ele>
        <time>2022-04-10T13:35:46Z</time>
      </trkpt>
      <trkpt lat="44.43193" lon="1.77222">
        <ele>274.5</ele>
        <time>2022-04-10T13:35:47Z</time>
      </trkpt>
      <trkpt lat="44.43194" lon="1.77228">
        <ele>275.7</ele>
        <time>2022-04-10T13:35:49Z</time>
      </trkpt>
      <trkpt lat="44.43194" lon="1.77234">
        <ele>276.4</ele>
        <time>2022-04-10T13:35:50Z</time>
      </trkpt>
      <trkpt lat="44.43195" lon="1.77238">
        <ele>276.4</ele>
        <time>2022-04-10T13:35:51Z</time>
      </trkpt>
      <trkpt lat="44.43195" lon="1.77244">
        <ele>277.5</ele>
        <time>2022-04-10T13:35:52Z</time>
      </trkpt>
      <trkpt lat="44.43195" lon="1.7725">
        <ele>277.5</ele>
        <time>2022-04-10T13:35:53Z</time>
      </trkpt>
      <trkpt lat="44.43196" lon="1.77255">
        <ele>277.5</ele>
        <time>2022-04-10T13:35:54Z</time>
      </trkpt>
      <trkpt lat="44.43197" lon="1.77259">
        <ele>278.5</ele>
        <time>2022-04-10T13:35:55Z</time>
      </trkpt>
      <trkpt lat="44.43197" lon="1.77264">
        <ele>278.5</ele>
        <time>2022-04-10T13:35:56Z</time>
      </trkpt>
      <trkpt lat="44.43198" lon="1.7727">
        <ele>278.5</ele>
        <time>2022-04-10T13:35:57Z</time>
      </trkpt>
      <trkpt lat="44.43199" lon="1.77275">
        <ele>279.5</ele>
        <time>2022-04-10T13:35:58Z</time>
      </trkpt>
      <trkpt lat="44.432" lon="1.77279">
        <ele>279.5</ele>
        <time>2022-04-10T13:35:59Z</time>
      </trkpt>
      <trkpt lat="44.43201" lon="1.77283">
        <ele>279.5</ele>
        <time>2022-04-10T13:36:00Z</time>
      </trkpt>
      <trkpt lat="44.43201" lon="1.77286">
        <ele>279.5</ele>
        <time>2022-04-10T13:36:01Z</time>
      </trkpt>
      <trkpt lat="44.43204" lon="1.77293">
        <ele>280.3</ele>
        <time>2022-04-10T13:36:03Z</time>
      </trkpt>
      <trkpt lat="44.43205" lon="1.77297">
        <ele>280.3</ele>
        <time>2022-04-10T13:36:04Z</time>
      </trkpt>
      <trkpt lat="44.43206" lon="1.773">
        <ele>281</ele>
        <time>2022-04-10T13:36:05Z</time>
      </trkpt>
      <trkpt lat="44.43208" lon="1.77304">
        <ele>281</ele>
        <time>2022-04-10T13:36:06Z</time>
      </trkpt>
      <trkpt lat="44.43209" lon="1.77307">
        <ele>281</ele>
        <time>2022-04-10T13:36:07Z</time>
      </trkpt>
      <trkpt lat="44.4321" lon="1.77312">
        <ele>281.7</ele>
        <time>2022-04-10T13:36:09Z</time>
      </trkpt>
      <trkpt lat="44.43212" lon="1.77316">
        <ele>281.7</ele>
        <time>2022-04-10T13:36:10Z</time>
      </trkpt>
      <trkpt lat="44.43213" lon="1.77321">
        <ele>281.7</ele>
        <time>2022-04-10T13:36:11Z</time>
      </trkpt>
      <trkpt lat="44.43214" lon="1.77323">
        <ele>281.7</ele>
        <time>2022-04-10T13:36:12Z</time>
      </trkpt>
      <trkpt lat="44.43215" lon="1.77326">
        <ele>281.7</ele>
        <time>2022-04-10T13:36:13Z</time>
      </trkpt>
      <trkpt lat="44.43216" lon="1.7733">
        <ele>282.5</ele>
        <time>2022-04-10T13:36:15Z</time>
      </trkpt>
      <trkpt lat="44.43218" lon="1.77336">
        <ele>282.5</ele>
        <time>2022-04-10T13:36:16Z</time>
      </trkpt>
      <trkpt lat="44.4322" lon="1.77339">
        <ele>283.4</ele>
        <time>2022-04-10T13:36:17Z</time>
      </trkpt>
      <trkpt lat="44.43222" lon="1.77342">
        <ele>283.4</ele>
        <time>2022-04-10T13:36:18Z</time>
      </trkpt>
      <trkpt lat="44.43223" lon="1.77346">
        <ele>284.4</ele>
        <time>2022-04-10T13:36:19Z</time>
      </trkpt>
      <trkpt lat="44.43225" lon="1.77351">
        <ele>284.4</ele>
        <time>2022-04-10T13:36:21Z</time>
      </trkpt>
      <trkpt lat="44.43227" lon="1.77354">
        <ele>284.4</ele>
        <time>2022-04-10T13:36:22Z</time>
      </trkpt>
      <trkpt lat="44.43228" lon="1.77358">
        <ele>284.4</ele>
        <time>2022-04-10T13:36:23Z</time>
      </trkpt>
      <trkpt lat="44.4323" lon="1.77363">
        <ele>285.7</ele>
        <time>2022-04-10T13:36:24Z</time>
      </trkpt>
      <trkpt lat="44.43231" lon="1.77365">
        <ele>286.3</ele>
        <time>2022-04-10T13:36:25Z</time>
      </trkpt>
      <trkpt lat="44.43233" lon="1.7737">
        <ele>286.3</ele>
        <time>2022-04-10T13:36:27Z</time>
      </trkpt>
      <trkpt lat="44.43234" lon="1.77376">
        <ele>286.3</ele>
        <time>2022-04-10T13:36:28Z</time>
      </trkpt>
      <trkpt lat="44.43236" lon="1.77379">
        <ele>287.5</ele>
        <time>2022-04-10T13:36:29Z</time>
      </trkpt>
      <trkpt lat="44.43238" lon="1.77384">
        <ele>287.5</ele>
        <time>2022-04-10T13:36:30Z</time>
      </trkpt>
      <trkpt lat="44.43238" lon="1.77385">
        <ele>287.5</ele>
        <time>2022-04-10T13:36:31Z</time>
      </trkpt>
      <trkpt lat="44.4324" lon="1.7739">
        <ele>287.5</ele>
        <time>2022-04-10T13:36:32Z</time>
      </trkpt>
      <trkpt lat="44.43241" lon="1.77392">
        <ele>287.5</ele>
        <time>2022-04-10T13:36:33Z</time>
      </trkpt>
      <trkpt lat="44.43243" lon="1.77398">
        <ele>288.7</ele>
        <time>2022-04-10T13:36:35Z</time>
      </trkpt>
      <trkpt lat="44.43244" lon="1.77402">
        <ele>289</ele>
        <time>2022-04-10T13:36:36Z</time>
      </trkpt>
      <trkpt lat="44.43246" lon="1.77407">
        <ele>289</ele>
        <time>2022-04-10T13:36:37Z</time>
      </trkpt>
      <trkpt lat="44.43246" lon="1.77409">
        <ele>289</ele>
        <time>2022-04-10T13:36:38Z</time>
      </trkpt>
      <trkpt lat="44.43248" lon="1.77412">
        <ele>288.9</ele>
        <time>2022-04-10T13:36:39Z</time>
      </trkpt>
      <trkpt lat="44.4325" lon="1.77417">
        <ele>290</ele>
        <time>2022-04-10T13:36:41Z</time>
      </trkpt>
      <trkpt lat="44.43252" lon="1.77424">
        <ele>290</ele>
        <time>2022-04-10T13:36:42Z</time>
      </trkpt>
      <trkpt lat="44.43254" lon="1.77428">
        <ele>290</ele>
        <time>2022-04-10T13:36:43Z</time>
      </trkpt>
      <trkpt lat="44.43255" lon="1.77432">
        <ele>290.9</ele>
        <time>2022-04-10T13:36:44Z</time>
      </trkpt>
      <trkpt lat="44.43257" lon="1.77437">
        <ele>291.4</ele>
        <time>2022-04-10T13:36:45Z</time>
      </trkpt>
      <trkpt lat="44.43258" lon="1.77438">
        <ele>291.4</ele>
        <time>2022-04-10T13:36:46Z</time>
      </trkpt>
      <trkpt lat="44.43259" lon="1.77442">
        <ele>291.4</ele>
        <time>2022-04-10T13:36:47Z</time>
      </trkpt>
      <trkpt lat="44.43261" lon="1.77445">
        <ele>291.4</ele>
        <time>2022-04-10T13:36:48Z</time>
      </trkpt>
      <trkpt lat="44.43263" lon="1.77451">
        <ele>292.3</ele>
        <time>2022-04-10T13:36:50Z</time>
      </trkpt>
      <trkpt lat="44.43265" lon="1.77456">
        <ele>292.3</ele>
        <time>2022-04-10T13:36:51Z</time>
      </trkpt>
      <trkpt lat="44.43267" lon="1.77462">
        <ele>292.3</ele>
        <time>2022-04-10T13:36:53Z</time>
      </trkpt>
      <trkpt lat="44.4327" lon="1.77469">
        <ele>292.8</ele>
        <time>2022-04-10T13:36:54Z</time>
      </trkpt>
      <trkpt lat="44.43271" lon="1.77474">
        <ele>293.2</ele>
        <time>2022-04-10T13:36:55Z</time>
      </trkpt>
      <trkpt lat="44.43273" lon="1.77479">
        <ele>293.6</ele>
        <time>2022-04-10T13:36:56Z</time>
      </trkpt>
      <trkpt lat="44.43275" lon="1.77484">
        <ele>294</ele>
        <time>2022-04-10T13:36:57Z</time>
      </trkpt>
      <trkpt lat="44.43276" lon="1.7749">
        <ele>294.3</ele>
        <time>2022-04-10T13:36:58Z</time>
      </trkpt>
      <trkpt lat="44.43278" lon="1.77495">
        <ele>294.7</ele>
        <time>2022-04-10T13:36:59Z</time>
      </trkpt>
      <trkpt lat="44.4328" lon="1.77499">
        <ele>295</ele>
        <time>2022-04-10T13:37:01Z</time>
      </trkpt>
      <trkpt lat="44.43281" lon="1.77504">
        <ele>295.3</ele>
        <time>2022-04-10T13:37:02Z</time>
      </trkpt>
      <trkpt lat="44.43284" lon="1.77509">
        <ele>295.6</ele>
        <time>2022-04-10T13:37:03Z</time>
      </trkpt>
      <trkpt lat="44.43285" lon="1.77514">
        <ele>295.9</ele>
        <time>2022-04-10T13:37:04Z</time>
      </trkpt>
      <trkpt lat="44.43286" lon="1.77517">
        <ele>296.2</ele>
        <time>2022-04-10T13:37:05Z</time>
      </trkpt>
      <trkpt lat="44.43288" lon="1.77522">
        <ele>296.4</ele>
        <time>2022-04-10T13:37:06Z</time>
      </trkpt>
      <trkpt lat="44.43289" lon="1.77526">
        <ele>296.7</ele>
        <time>2022-04-10T13:37:07Z</time>
      </trkpt>
      <trkpt lat="44.43291" lon="1.77531">
        <ele>297</ele>
        <time>2022-04-10T13:37:08Z</time>
      </trkpt>
      <trkpt lat="44.43292" lon="1.77535">
        <ele>297.2</ele>
        <time>2022-04-10T13:37:09Z</time>
      </trkpt>
      <trkpt lat="44.43293" lon="1.77539">
        <ele>297.4</ele>
        <time>2022-04-10T13:37:10Z</time>
      </trkpt>
      <trkpt lat="44.43293" lon="1.77541">
        <ele>297.5</ele>
        <time>2022-04-10T13:37:11Z</time>
      </trkpt>
      <trkpt lat="44.43295" lon="1.77544">
        <ele>297.7</ele>
        <time>2022-04-10T13:37:13Z</time>
      </trkpt>
      <trkpt lat="44.43296" lon="1.77548">
        <ele>298</ele>
        <time>2022-04-10T13:37:14Z</time>
      </trkpt>
      <trkpt lat="44.43299" lon="1.77553">
        <ele>298.2</ele>
        <time>2022-04-10T13:37:15Z</time>
      </trkpt>
      <trkpt lat="44.43299" lon="1.77555">
        <ele>298.4</ele>
        <time>2022-04-10T13:37:16Z</time>
      </trkpt>
      <trkpt lat="44.43301" lon="1.77559">
        <ele>298.6</ele>
        <time>2022-04-10T13:37:17Z</time>
      </trkpt>
      <trkpt lat="44.43303" lon="1.77563">
        <ele>298.9</ele>
        <time>2022-04-10T13:37:18Z</time>
      </trkpt>
      <trkpt lat="44.43306" lon="1.77569">
        <ele>299.2</ele>
        <time>2022-04-10T13:37:20Z</time>
      </trkpt>
      <trkpt lat="44.43309" lon="1.77573">
        <ele>299.5</ele>
        <time>2022-04-10T13:37:21Z</time>
      </trkpt>
      <trkpt lat="44.43311" lon="1.77577">
        <ele>299.7</ele>
        <time>2022-04-10T13:37:22Z</time>
      </trkpt>
      <trkpt lat="44.43312" lon="1.77577">
        <ele>299.8</ele>
        <time>2022-04-10T13:37:23Z</time>
      </trkpt>
      <trkpt lat="44.43316" lon="1.77579">
        <ele>300</ele>
        <time>2022-04-10T13:37:25Z</time>
      </trkpt>
      <trkpt lat="44.43317" lon="1.77581">
        <ele>300.2</ele>
        <time>2022-04-10T13:37:26Z</time>
      </trkpt>
      <trkpt lat="44.43317" lon="1.77582">
        <ele>300.2</ele>
        <time>2022-04-10T13:37:27Z</time>
      </trkpt>
      <trkpt lat="44.43317" lon="1.77583">
        <ele>300.3</ele>
        <time>2022-04-10T13:37:28Z</time>
      </trkpt>
      <trkpt lat="44.43317" lon="1.77584">
        <ele>300.3</ele>
        <time>2022-04-10T13:37:29Z</time>
      </trkpt>
      <trkpt lat="44.43317" lon="1.77585">
        <ele>300.4</ele>
        <time>2022-04-10T13:37:30Z</time>
      </trkpt>
      <trkpt lat="44.43318" lon="1.77586">
        <ele>300.4</ele>
        <time>2022-04-10T13:37:31Z</time>
      </trkpt>
      <trkpt lat="44.43318" lon="1.77587">
        <ele>300.5</ele>
        <time>2022-04-10T13:37:33Z</time>
      </trkpt>
      <trkpt lat="44.43318" lon="1.77588">
        <ele>300.5</ele>
        <time>2022-04-10T13:37:34Z</time>
      </trkpt>
      <trkpt lat="44.43318" lon="1.77589">
        <ele>300.5</ele>
        <time>2022-04-10T13:37:35Z</time>
      </trkpt>
      <trkpt lat="44.43318" lon="1.7759">
        <ele>300.6</ele>
        <time>2022-04-10T13:37:36Z</time>
      </trkpt>
      <trkpt lat="44.43318" lon="1.7759">
        <ele>300.6</ele>
        <time>2022-04-10T13:38:24Z</time>
      </trkpt>
      <trkpt lat="44.43318" lon="1.77591">
        <ele>300.7</ele>
        <time>2022-04-10T13:38:25Z</time>
      </trkpt>
      <trkpt lat="44.43318" lon="1.77595">
        <ele>300.9</ele>
        <time>2022-04-10T13:38:26Z</time>
      </trkpt>
      <trkpt lat="44.43319" lon="1.77596">
        <ele>300.9</ele>
        <time>2022-04-10T13:38:28Z</time>
      </trkpt>
      <trkpt lat="44.43319" lon="1.77598">
        <ele>301</ele>
        <time>2022-04-10T13:38:29Z</time>
      </trkpt>
      <trkpt lat="44.43321" lon="1.77604">
        <ele>301.3</ele>
        <time>2022-04-10T13:38:30Z</time>
      </trkpt>
      <trkpt lat="44.43324" lon="1.77606">
        <ele>301.6</ele>
        <time>2022-04-10T13:38:31Z</time>
      </trkpt>
      <trkpt lat="44.43325" lon="1.77612">
        <ele>301.9</ele>
        <time>2022-04-10T13:38:32Z</time>
      </trkpt>
      <trkpt lat="44.43327" lon="1.77618">
        <ele>302.2</ele>
        <time>2022-04-10T13:38:34Z</time>
      </trkpt>
      <trkpt lat="44.4333" lon="1.77623">
        <ele>302.5</ele>
        <time>2022-04-10T13:38:35Z</time>
      </trkpt>
      <trkpt lat="44.43333" lon="1.77627">
        <ele>302.8</ele>
        <time>2022-04-10T13:38:36Z</time>
      </trkpt>
      <trkpt lat="44.43338" lon="1.77635">
        <ele>303.4</ele>
        <time>2022-04-10T13:38:38Z</time>
      </trkpt>
      <trkpt lat="44.4334" lon="1.77639">
        <ele>303.7</ele>
        <time>2022-04-10T13:38:39Z</time>
      </trkpt>
      <trkpt lat="44.43343" lon="1.77643">
        <ele>304</ele>
        <time>2022-04-10T13:38:40Z</time>
      </trkpt>
      <trkpt lat="44.43346" lon="1.77647">
        <ele>304.3</ele>
        <time>2022-04-10T13:38:41Z</time>
      </trkpt>
      <trkpt lat="44.43348" lon="1.77651">
        <ele>304.5</ele>
        <time>2022-04-10T13:38:42Z</time>
      </trkpt>
      <trkpt lat="44.43351" lon="1.77655">
        <ele>304.8</ele>
        <time>2022-04-10T13:38:43Z</time>
      </trkpt>
      <trkpt lat="44.43353" lon="1.77659">
        <ele>305.1</ele>
        <time>2022-04-10T13:38:44Z</time>
      </trkpt>
      <trkpt lat="44.43356" lon="1.77664">
        <ele>305.4</ele>
        <time>2022-04-10T13:38:46Z</time>
      </trkpt>
      <trkpt lat="44.43358" lon="1.77667">
        <ele>305.7</ele>
        <time>2022-04-10T13:38:47Z</time>
      </trkpt>
      <trkpt lat="44.43361" lon="1.77671">
        <ele>306</ele>
        <time>2022-04-10T13:38:48Z</time>
      </trkpt>
      <trkpt lat="44.43364" lon="1.77676">
        <ele>306.4</ele>
        <time>2022-04-10T13:38:49Z</time>
      </trkpt>
      <trkpt lat="44.43366" lon="1.77679">
        <ele>306.7</ele>
        <time>2022-04-10T13:38:50Z</time>
      </trkpt>
      <trkpt lat="44.43369" lon="1.77682">
        <ele>307</ele>
        <time>2022-04-10T13:38:51Z</time>
      </trkpt>
      <trkpt lat="44.43371" lon="1.77687">
        <ele>307.4</ele>
        <time>2022-04-10T13:38:53Z</time>
      </trkpt>
      <trkpt lat="44.43375" lon="1.77692">
        <ele>307.9</ele>
        <time>2022-04-10T13:38:54Z</time>
      </trkpt>
      <trkpt lat="44.43377" lon="1.77695">
        <ele>308.3</ele>
        <time>2022-04-10T13:38:55Z</time>
      </trkpt>
      <trkpt lat="44.4338" lon="1.77698">
        <ele>308.6</ele>
        <time>2022-04-10T13:38:56Z</time>
      </trkpt>
      <trkpt lat="44.43382" lon="1.777">
        <ele>308.9</ele>
        <time>2022-04-10T13:38:57Z</time>
      </trkpt>
      <trkpt lat="44.43384" lon="1.77704">
        <ele>309.3</ele>
        <time>2022-04-10T13:38:59Z</time>
      </trkpt>
      <trkpt lat="44.43384" lon="1.77705">
        <ele>309.4</ele>
        <time>2022-04-10T13:39:00Z</time>
      </trkpt>
      <trkpt lat="44.43388" lon="1.77707">
        <ele>309.8</ele>
        <time>2022-04-10T13:39:01Z</time>
      </trkpt>
      <trkpt lat="44.43389" lon="1.77707">
        <ele>309.8</ele>
        <time>2022-04-10T13:39:02Z</time>
      </trkpt>
      <trkpt lat="44.43392" lon="1.77707">
        <ele>309.9</ele>
        <time>2022-04-10T13:39:03Z</time>
      </trkpt>
      <trkpt lat="44.43393" lon="1.77707">
        <ele>310</ele>
        <time>2022-04-10T13:39:04Z</time>
      </trkpt>
      <trkpt lat="44.43397" lon="1.77708">
        <ele>310.1</ele>
        <time>2022-04-10T13:39:06Z</time>
      </trkpt>
      <trkpt lat="44.43401" lon="1.77709">
        <ele>310.3</ele>
        <time>2022-04-10T13:39:07Z</time>
      </trkpt>
      <trkpt lat="44.43402" lon="1.77709">
        <ele>310.3</ele>
        <time>2022-04-10T13:39:08Z</time>
      </trkpt>
      <trkpt lat="44.43406" lon="1.77708">
        <ele>310.4</ele>
        <time>2022-04-10T13:39:09Z</time>
      </trkpt>
      <trkpt lat="44.43409" lon="1.77707">
        <ele>310.6</ele>
        <time>2022-04-10T13:39:10Z</time>
      </trkpt>
      <trkpt lat="44.43413" lon="1.77708">
        <ele>310.7</ele>
        <time>2022-04-10T13:39:12Z</time>
      </trkpt>
      <trkpt lat="44.43416" lon="1.77708">
        <ele>310.8</ele>
        <time>2022-04-10T13:39:13Z</time>
      </trkpt>
      <trkpt lat="44.4342" lon="1.77707">
        <ele>311</ele>
        <time>2022-04-10T13:39:14Z</time>
      </trkpt>
      <trkpt lat="44.43424" lon="1.77706">
        <ele>311.2</ele>
        <time>2022-04-10T13:39:15Z</time>
      </trkpt>
      <trkpt lat="44.43428" lon="1.77705">
        <ele>311.3</ele>
        <time>2022-04-10T13:39:16Z</time>
      </trkpt>
      <trkpt lat="44.43431" lon="1.77705">
        <ele>311.4</ele>
        <time>2022-04-10T13:39:17Z</time>
      </trkpt>
      <trkpt lat="44.43434" lon="1.77705">
        <ele>311.5</ele>
        <time>2022-04-10T13:39:18Z</time>
      </trkpt>
      <trkpt lat="44.43439" lon="1.77704">
        <ele>311.7</ele>
        <time>2022-04-10T13:39:19Z</time>
      </trkpt>
      <trkpt lat="44.43441" lon="1.77704">
        <ele>311.8</ele>
        <time>2022-04-10T13:39:20Z</time>
      </trkpt>
      <trkpt lat="44.43445" lon="1.77704">
        <ele>311.5</ele>
        <time>2022-04-10T13:39:21Z</time>
      </trkpt>
      <trkpt lat="44.4345" lon="1.77702">
        <ele>311.5</ele>
        <time>2022-04-10T13:39:22Z</time>
      </trkpt>
      <trkpt lat="44.43454" lon="1.77701">
        <ele>312.1</ele>
        <time>2022-04-10T13:39:23Z</time>
      </trkpt>
      <trkpt lat="44.43457" lon="1.77701">
        <ele>312</ele>
        <time>2022-04-10T13:39:24Z</time>
      </trkpt>
      <trkpt lat="44.43463" lon="1.77699">
        <ele>312</ele>
        <time>2022-04-10T13:39:26Z</time>
      </trkpt>
      <trkpt lat="44.43469" lon="1.77698">
        <ele>312.7</ele>
        <time>2022-04-10T13:39:27Z</time>
      </trkpt>
      <trkpt lat="44.43473" lon="1.77698">
        <ele>312.7</ele>
        <time>2022-04-10T13:39:28Z</time>
      </trkpt>
      <trkpt lat="44.43476" lon="1.77697">
        <ele>313.6</ele>
        <time>2022-04-10T13:39:29Z</time>
      </trkpt>
      <trkpt lat="44.4348" lon="1.77695">
        <ele>313.5</ele>
        <time>2022-04-10T13:39:30Z</time>
      </trkpt>
      <trkpt lat="44.43484" lon="1.77694">
        <ele>313.5</ele>
        <time>2022-04-10T13:39:31Z</time>
      </trkpt>
      <trkpt lat="44.43489" lon="1.77691">
        <ele>314.1</ele>
        <time>2022-04-10T13:39:33Z</time>
      </trkpt>
      <trkpt lat="44.43492" lon="1.77688">
        <ele>314</ele>
        <time>2022-04-10T13:39:34Z</time>
      </trkpt>
      <trkpt lat="44.43498" lon="1.77685">
        <ele>313.6</ele>
        <time>2022-04-10T13:39:35Z</time>
      </trkpt>
      <trkpt lat="44.43501" lon="1.77684">
        <ele>314.5</ele>
        <time>2022-04-10T13:39:36Z</time>
      </trkpt>
      <trkpt lat="44.43505" lon="1.77681">
        <ele>314.4</ele>
        <time>2022-04-10T13:39:38Z</time>
      </trkpt>
      <trkpt lat="44.43509" lon="1.77679">
        <ele>314.4</ele>
        <time>2022-04-10T13:39:39Z</time>
      </trkpt>
      <trkpt lat="44.43512" lon="1.77677">
        <ele>314.3</ele>
        <time>2022-04-10T13:39:40Z</time>
      </trkpt>
      <trkpt lat="44.43517" lon="1.77674">
        <ele>314.8</ele>
        <time>2022-04-10T13:39:41Z</time>
      </trkpt>
      <trkpt lat="44.4352" lon="1.77673">
        <ele>314.8</ele>
        <time>2022-04-10T13:39:42Z</time>
      </trkpt>
      <trkpt lat="44.43522" lon="1.77673">
        <ele>314.7</ele>
        <time>2022-04-10T13:39:43Z</time>
      </trkpt>
      <trkpt lat="44.43526" lon="1.77671">
        <ele>315.3</ele>
        <time>2022-04-10T13:39:45Z</time>
      </trkpt>
      <trkpt lat="44.4353" lon="1.7767">
        <ele>315.2</ele>
        <time>2022-04-10T13:39:46Z</time>
      </trkpt>
      <trkpt lat="44.43533" lon="1.77669">
        <ele>314.9</ele>
        <time>2022-04-10T13:39:47Z</time>
      </trkpt>
      <trkpt lat="44.43537" lon="1.77669">
        <ele>314.8</ele>
        <time>2022-04-10T13:39:48Z</time>
      </trkpt>
      <trkpt lat="44.43542" lon="1.77668">
        <ele>315.4</ele>
        <time>2022-04-10T13:39:50Z</time>
      </trkpt>
      <trkpt lat="44.43545" lon="1.77667">
        <ele>315.4</ele>
        <time>2022-04-10T13:39:51Z</time>
      </trkpt>
      <trkpt lat="44.43548" lon="1.77667">
        <ele>315.3</ele>
        <time>2022-04-10T13:39:52Z</time>
      </trkpt>
      <trkpt lat="44.43552" lon="1.77666">
        <ele>316.3</ele>
        <time>2022-04-10T13:39:53Z</time>
      </trkpt>
      <trkpt lat="44.43556" lon="1.77666">
        <ele>316.2</ele>
        <time>2022-04-10T13:39:54Z</time>
      </trkpt>
      <trkpt lat="44.43557" lon="1.77665">
        <ele>316.2</ele>
        <time>2022-04-10T13:39:55Z</time>
      </trkpt>
      <trkpt lat="44.43561" lon="1.77664">
        <ele>316.1</ele>
        <time>2022-04-10T13:39:56Z</time>
      </trkpt>
      <trkpt lat="44.43562" lon="1.77664">
        <ele>317.3</ele>
        <time>2022-04-10T13:39:57Z</time>
      </trkpt>
      <trkpt lat="44.43565" lon="1.77663">
        <ele>317.2</ele>
        <time>2022-04-10T13:39:58Z</time>
      </trkpt>
      <trkpt lat="44.43568" lon="1.77663">
        <ele>317.2</ele>
        <time>2022-04-10T13:39:59Z</time>
      </trkpt>
      <trkpt lat="44.43571" lon="1.77663">
        <ele>317.1</ele>
        <time>2022-04-10T13:40:00Z</time>
      </trkpt>
      <trkpt lat="44.43574" lon="1.77663">
        <ele>317.1</ele>
        <time>2022-04-10T13:40:01Z</time>
      </trkpt>
      <trkpt lat="44.43579" lon="1.77664">
        <ele>318.2</ele>
        <time>2022-04-10T13:40:03Z</time>
      </trkpt>
      <trkpt lat="44.43582" lon="1.77664">
        <ele>318.1</ele>
        <time>2022-04-10T13:40:04Z</time>
      </trkpt>
      <trkpt lat="44.43586" lon="1.77664">
        <ele>318.1</ele>
        <time>2022-04-10T13:40:05Z</time>
      </trkpt>
      <trkpt lat="44.4359" lon="1.77665">
        <ele>319.2</ele>
        <time>2022-04-10T13:40:07Z</time>
      </trkpt>
      <trkpt lat="44.43595" lon="1.77665">
        <ele>319.1</ele>
        <time>2022-04-10T13:40:08Z</time>
      </trkpt>
      <trkpt lat="44.436" lon="1.77665">
        <ele>320.1</ele>
        <time>2022-04-10T13:40:09Z</time>
      </trkpt>
      <trkpt lat="44.43605" lon="1.77665">
        <ele>320</ele>
        <time>2022-04-10T13:40:11Z</time>
      </trkpt>
      <trkpt lat="44.43609" lon="1.77665">
        <ele>320</ele>
        <time>2022-04-10T13:40:12Z</time>
      </trkpt>
      <trkpt lat="44.43613" lon="1.77665">
        <ele>321</ele>
        <time>2022-04-10T13:40:13Z</time>
      </trkpt>
      <trkpt lat="44.43616" lon="1.77666">
        <ele>320.9</ele>
        <time>2022-04-10T13:40:14Z</time>
      </trkpt>
      <trkpt lat="44.4362" lon="1.77667">
        <ele>320.9</ele>
        <time>2022-04-10T13:40:16Z</time>
      </trkpt>
      <trkpt lat="44.43626" lon="1.77668">
        <ele>321.7</ele>
        <time>2022-04-10T13:40:17Z</time>
      </trkpt>
      <trkpt lat="44.4363" lon="1.77669">
        <ele>321.6</ele>
        <time>2022-04-10T13:40:18Z</time>
      </trkpt>
      <trkpt lat="44.43633" lon="1.7767">
        <ele>320.2</ele>
        <time>2022-04-10T13:40:19Z</time>
      </trkpt>
      <trkpt lat="44.43637" lon="1.77672">
        <ele>320.7</ele>
        <time>2022-04-10T13:40:20Z</time>
      </trkpt>
      <trkpt lat="44.43643" lon="1.77674">
        <ele>320.7</ele>
        <time>2022-04-10T13:40:22Z</time>
      </trkpt>
      <trkpt lat="44.43647" lon="1.77676">
        <ele>320.6</ele>
        <time>2022-04-10T13:40:23Z</time>
      </trkpt>
      <trkpt lat="44.4365" lon="1.77677">
        <ele>321</ele>
        <time>2022-04-10T13:40:24Z</time>
      </trkpt>
      <trkpt lat="44.43654" lon="1.77678">
        <ele>321</ele>
        <time>2022-04-10T13:40:25Z</time>
      </trkpt>
      <trkpt lat="44.43659" lon="1.77679">
        <ele>320.9</ele>
        <time>2022-04-10T13:40:26Z</time>
      </trkpt>
      <trkpt lat="44.43664" lon="1.77679">
        <ele>321.1</ele>
        <time>2022-04-10T13:40:27Z</time>
      </trkpt>
      <trkpt lat="44.43667" lon="1.77681">
        <ele>321.2</ele>
        <time>2022-04-10T13:40:28Z</time>
      </trkpt>
      <trkpt lat="44.43673" lon="1.77682">
        <ele>321.4</ele>
        <time>2022-04-10T13:40:30Z</time>
      </trkpt>
      <trkpt lat="44.43678" lon="1.77683">
        <ele>321.6</ele>
        <time>2022-04-10T13:40:31Z</time>
      </trkpt>
      <trkpt lat="44.43683" lon="1.77684">
        <ele>321.8</ele>
        <time>2022-04-10T13:40:32Z</time>
      </trkpt>
      <trkpt lat="44.43688" lon="1.77684">
        <ele>321.9</ele>
        <time>2022-04-10T13:40:33Z</time>
      </trkpt>
      <trkpt lat="44.43692" lon="1.77684">
        <ele>322.1</ele>
        <time>2022-04-10T13:40:34Z</time>
      </trkpt>
      <trkpt lat="44.43697" lon="1.77685">
        <ele>322.2</ele>
        <time>2022-04-10T13:40:36Z</time>
      </trkpt>
      <trkpt lat="44.43704" lon="1.77686">
        <ele>322.5</ele>
        <time>2022-04-10T13:40:37Z</time>
      </trkpt>
      <trkpt lat="44.43713" lon="1.77687">
        <ele>322.8</ele>
        <time>2022-04-10T13:40:38Z</time>
      </trkpt>
      <trkpt lat="44.43718" lon="1.77687">
        <ele>323</ele>
        <time>2022-04-10T13:40:39Z</time>
      </trkpt>
      <trkpt lat="44.43724" lon="1.77687">
        <ele>323.2</ele>
        <time>2022-04-10T13:40:40Z</time>
      </trkpt>
      <trkpt lat="44.4373" lon="1.77688">
        <ele>323.4</ele>
        <time>2022-04-10T13:40:41Z</time>
      </trkpt>
      <trkpt lat="44.43736" lon="1.77689">
        <ele>323.6</ele>
        <time>2022-04-10T13:40:42Z</time>
      </trkpt>
      <trkpt lat="44.43742" lon="1.77689">
        <ele>323.8</ele>
        <time>2022-04-10T13:40:43Z</time>
      </trkpt>
      <trkpt lat="44.43748" lon="1.77689">
        <ele>324</ele>
        <time>2022-04-10T13:40:44Z</time>
      </trkpt>
      <trkpt lat="44.43755" lon="1.7769">
        <ele>324.2</ele>
        <time>2022-04-10T13:40:45Z</time>
      </trkpt>
      <trkpt lat="44.43762" lon="1.77691">
        <ele>324.5</ele>
        <time>2022-04-10T13:40:46Z</time>
      </trkpt>
      <trkpt lat="44.43769" lon="1.77692">
        <ele>324.7</ele>
        <time>2022-04-10T13:40:47Z</time>
      </trkpt>
      <trkpt lat="44.43775" lon="1.77692">
        <ele>324.9</ele>
        <time>2022-04-10T13:40:48Z</time>
      </trkpt>
      <trkpt lat="44.43781" lon="1.77693">
        <ele>325</ele>
        <time>2022-04-10T13:40:49Z</time>
      </trkpt>
      <trkpt lat="44.43787" lon="1.77693">
        <ele>325.3</ele>
        <time>2022-04-10T13:40:50Z</time>
      </trkpt>
      <trkpt lat="44.43793" lon="1.77692">
        <ele>325.5</ele>
        <time>2022-04-10T13:40:51Z</time>
      </trkpt>
      <trkpt lat="44.43799" lon="1.77692">
        <ele>325.7</ele>
        <time>2022-04-10T13:40:52Z</time>
      </trkpt>
      <trkpt lat="44.43803" lon="1.77692">
        <ele>325.9</ele>
        <time>2022-04-10T13:40:53Z</time>
      </trkpt>
      <trkpt lat="44.43807" lon="1.77691">
        <ele>326.1</ele>
        <time>2022-04-10T13:40:54Z</time>
      </trkpt>
      <trkpt lat="44.43812" lon="1.77691">
        <ele>326.3</ele>
        <time>2022-04-10T13:40:55Z</time>
      </trkpt>
      <trkpt lat="44.43815" lon="1.77692">
        <ele>326.4</ele>
        <time>2022-04-10T13:40:56Z</time>
      </trkpt>
      <trkpt lat="44.43819" lon="1.77692">
        <ele>326.6</ele>
        <time>2022-04-10T13:40:57Z</time>
      </trkpt>
      <trkpt lat="44.43823" lon="1.77693">
        <ele>326.8</ele>
        <time>2022-04-10T13:40:58Z</time>
      </trkpt>
      <trkpt lat="44.43823" lon="1.77693">
        <ele>326.8</ele>
        <time>2022-04-10T13:40:59Z</time>
      </trkpt>
      <trkpt lat="44.43828" lon="1.77695">
        <ele>327</ele>
        <time>2022-04-10T13:41:01Z</time>
      </trkpt>
      <trkpt lat="44.43829" lon="1.77696">
        <ele>327.1</ele>
        <time>2022-04-10T13:41:02Z</time>
      </trkpt>
      <trkpt lat="44.43831" lon="1.77697">
        <ele>327.1</ele>
        <time>2022-04-10T13:41:03Z</time>
      </trkpt>
      <trkpt lat="44.43833" lon="1.77697">
        <ele>327.2</ele>
        <time>2022-04-10T13:41:04Z</time>
      </trkpt>
      <trkpt lat="44.43837" lon="1.77697">
        <ele>327.4</ele>
        <time>2022-04-10T13:41:06Z</time>
      </trkpt>
      <trkpt lat="44.4384" lon="1.77698">
        <ele>327.5</ele>
        <time>2022-04-10T13:41:07Z</time>
      </trkpt>
      <trkpt lat="44.43844" lon="1.77699">
        <ele>327.7</ele>
        <time>2022-04-10T13:41:08Z</time>
      </trkpt>
      <trkpt lat="44.43848" lon="1.77701">
        <ele>327.8</ele>
        <time>2022-04-10T13:41:09Z</time>
      </trkpt>
      <trkpt lat="44.43853" lon="1.77703">
        <ele>328.1</ele>
        <time>2022-04-10T13:41:10Z</time>
      </trkpt>
      <trkpt lat="44.43858" lon="1.77705">
        <ele>328.3</ele>
        <time>2022-04-10T13:41:11Z</time>
      </trkpt>
      <trkpt lat="44.43864" lon="1.77708">
        <ele>328.5</ele>
        <time>2022-04-10T13:41:13Z</time>
      </trkpt>
      <trkpt lat="44.43868" lon="1.77711">
        <ele>328.7</ele>
        <time>2022-04-10T13:41:14Z</time>
      </trkpt>
      <trkpt lat="44.43873" lon="1.77714">
        <ele>328.9</ele>
        <time>2022-04-10T13:41:15Z</time>
      </trkpt>
      <trkpt lat="44.43876" lon="1.77716">
        <ele>329.1</ele>
        <time>2022-04-10T13:41:16Z</time>
      </trkpt>
      <trkpt lat="44.43879" lon="1.77717">
        <ele>329.2</ele>
        <time>2022-04-10T13:41:17Z</time>
      </trkpt>
      <trkpt lat="44.43881" lon="1.77719">
        <ele>329.3</ele>
        <time>2022-04-10T13:41:18Z</time>
      </trkpt>
      <trkpt lat="44.43884" lon="1.7772">
        <ele>329.5</ele>
        <time>2022-04-10T13:41:19Z</time>
      </trkpt>
      <trkpt lat="44.43887" lon="1.77722">
        <ele>329.6</ele>
        <time>2022-04-10T13:41:20Z</time>
      </trkpt>
      <trkpt lat="44.4389" lon="1.77723">
        <ele>329.8</ele>
        <time>2022-04-10T13:41:21Z</time>
      </trkpt>
      <trkpt lat="44.43892" lon="1.77724">
        <ele>329.8</ele>
        <time>2022-04-10T13:41:22Z</time>
      </trkpt>
      <trkpt lat="44.43895" lon="1.77725">
        <ele>330</ele>
        <time>2022-04-10T13:41:23Z</time>
      </trkpt>
      <trkpt lat="44.43898" lon="1.77727">
        <ele>330.1</ele>
        <time>2022-04-10T13:41:25Z</time>
      </trkpt>
      <trkpt lat="44.43901" lon="1.77729">
        <ele>330.3</ele>
        <time>2022-04-10T13:41:26Z</time>
      </trkpt>
      <trkpt lat="44.43906" lon="1.77732">
        <ele>330.5</ele>
        <time>2022-04-10T13:41:27Z</time>
      </trkpt>
      <trkpt lat="44.43909" lon="1.77735">
        <ele>330.7</ele>
        <time>2022-04-10T13:41:28Z</time>
      </trkpt>
      <trkpt lat="44.43913" lon="1.77738">
        <ele>330.9</ele>
        <time>2022-04-10T13:41:29Z</time>
      </trkpt>
      <trkpt lat="44.43917" lon="1.7774">
        <ele>331.1</ele>
        <time>2022-04-10T13:41:31Z</time>
      </trkpt>
      <trkpt lat="44.4392" lon="1.77741">
        <ele>331.3</ele>
        <time>2022-04-10T13:41:32Z</time>
      </trkpt>
      <trkpt lat="44.43925" lon="1.77743">
        <ele>331.3</ele>
        <time>2022-04-10T13:41:33Z</time>
      </trkpt>
      <trkpt lat="44.43929" lon="1.77744">
        <ele>331.3</ele>
        <time>2022-04-10T13:41:34Z</time>
      </trkpt>
      <trkpt lat="44.43932" lon="1.77746">
        <ele>331.9</ele>
        <time>2022-04-10T13:41:35Z</time>
      </trkpt>
      <trkpt lat="44.43933" lon="1.77747">
        <ele>331.9</ele>
        <time>2022-04-10T13:41:36Z</time>
      </trkpt>
      <trkpt lat="44.43936" lon="1.77751">
        <ele>332</ele>
        <time>2022-04-10T13:41:38Z</time>
      </trkpt>
      <trkpt lat="44.43936" lon="1.77755">
        <ele>332</ele>
        <time>2022-04-10T13:41:39Z</time>
      </trkpt>
      <trkpt lat="44.43935" lon="1.77756">
        <ele>328.9</ele>
        <time>2022-04-10T13:41:40Z</time>
      </trkpt>
      <trkpt lat="44.43935" lon="1.77758">
        <ele>328.9</ele>
        <time>2022-04-10T13:41:41Z</time>
      </trkpt>
      <trkpt lat="44.43934" lon="1.7776">
        <ele>329</ele>
        <time>2022-04-10T13:41:42Z</time>
      </trkpt>
      <trkpt lat="44.43934" lon="1.7776">
        <ele>328.9</ele>
        <time>2022-04-10T13:41:43Z</time>
      </trkpt>
      <trkpt lat="44.43933" lon="1.77761">
        <ele>328.8</ele>
        <time>2022-04-10T13:41:44Z</time>
      </trkpt>
      <trkpt lat="44.43932" lon="1.77762">
        <ele>328.6</ele>
        <time>2022-04-10T13:41:45Z</time>
      </trkpt>
      <trkpt lat="44.43932" lon="1.77763">
        <ele>328.5</ele>
        <time>2022-04-10T13:41:46Z</time>
      </trkpt>
      <trkpt lat="44.43931" lon="1.77764">
        <ele>328.4</ele>
        <time>2022-04-10T13:41:47Z</time>
      </trkpt>
      <trkpt lat="44.43929" lon="1.77768">
        <ele>328</ele>
        <time>2022-04-10T13:41:48Z</time>
      </trkpt>
      <trkpt lat="44.43923" lon="1.77775">
        <ele>326.9</ele>
        <time>2022-04-10T13:41:49Z</time>
      </trkpt>
      <trkpt lat="44.43918" lon="1.77781">
        <ele>326</ele>
        <time>2022-04-10T13:41:50Z</time>
      </trkpt>
      <trkpt lat="44.43913" lon="1.77787">
        <ele>325.1</ele>
        <time>2022-04-10T13:41:51Z</time>
      </trkpt>
      <trkpt lat="44.43907" lon="1.77794">
        <ele>324</ele>
        <time>2022-04-10T13:41:52Z</time>
      </trkpt>
      <trkpt lat="44.43901" lon="1.77801">
        <ele>322.8</ele>
        <time>2022-04-10T13:41:53Z</time>
      </trkpt>
      <trkpt lat="44.43895" lon="1.77809">
        <ele>321.6</ele>
        <time>2022-04-10T13:41:54Z</time>
      </trkpt>
      <trkpt lat="44.43888" lon="1.77818">
        <ele>320.2</ele>
        <time>2022-04-10T13:41:55Z</time>
      </trkpt>
      <trkpt lat="44.43882" lon="1.77825">
        <ele>318.8</ele>
        <time>2022-04-10T13:41:56Z</time>
      </trkpt>
      <trkpt lat="44.43877" lon="1.77833">
        <ele>317.6</ele>
        <time>2022-04-10T13:41:57Z</time>
      </trkpt>
      <trkpt lat="44.43872" lon="1.77841">
        <ele>316.3</ele>
        <time>2022-04-10T13:41:58Z</time>
      </trkpt>
      <trkpt lat="44.43867" lon="1.77847">
        <ele>315</ele>
        <time>2022-04-10T13:41:59Z</time>
      </trkpt>
      <trkpt lat="44.4386" lon="1.77853">
        <ele>313.7</ele>
        <time>2022-04-10T13:42:00Z</time>
      </trkpt>
      <trkpt lat="44.43853" lon="1.77859">
        <ele>312.5</ele>
        <time>2022-04-10T13:42:01Z</time>
      </trkpt>
      <trkpt lat="44.43847" lon="1.77864">
        <ele>311.5</ele>
        <time>2022-04-10T13:42:02Z</time>
      </trkpt>
      <trkpt lat="44.43842" lon="1.7787">
        <ele>310.6</ele>
        <time>2022-04-10T13:42:03Z</time>
      </trkpt>
      <trkpt lat="44.43838" lon="1.77874">
        <ele>310.1</ele>
        <time>2022-04-10T13:42:04Z</time>
      </trkpt>
      <trkpt lat="44.43836" lon="1.77878">
        <ele>309.7</ele>
        <time>2022-04-10T13:42:05Z</time>
      </trkpt>
      <trkpt lat="44.43835" lon="1.7788">
        <ele>309.6</ele>
        <time>2022-04-10T13:42:06Z</time>
      </trkpt>
      <trkpt lat="44.43835" lon="1.77882">
        <ele>309.5</ele>
        <time>2022-04-10T13:42:07Z</time>
      </trkpt>
      <trkpt lat="44.43835" lon="1.77884">
        <ele>309.4</ele>
        <time>2022-04-10T13:42:08Z</time>
      </trkpt>
      <trkpt lat="44.43835" lon="1.77885">
        <ele>309.3</ele>
        <time>2022-04-10T13:42:09Z</time>
      </trkpt>
      <trkpt lat="44.43835" lon="1.77887">
        <ele>309.3</ele>
        <time>2022-04-10T13:42:10Z</time>
      </trkpt>
      <trkpt lat="44.43835" lon="1.77888">
        <ele>309.2</ele>
        <time>2022-04-10T13:42:11Z</time>
      </trkpt>
      <trkpt lat="44.43836" lon="1.77893">
        <ele>309.1</ele>
        <time>2022-04-10T13:42:13Z</time>
      </trkpt>
      <trkpt lat="44.43837" lon="1.77899">
        <ele>308.9</ele>
        <time>2022-04-10T13:42:14Z</time>
      </trkpt>
      <trkpt lat="44.4384" lon="1.77905">
        <ele>308.8</ele>
        <time>2022-04-10T13:42:15Z</time>
      </trkpt>
      <trkpt lat="44.43842" lon="1.77909">
        <ele>308.8</ele>
        <time>2022-04-10T13:42:16Z</time>
      </trkpt>
      <trkpt lat="44.43846" lon="1.77914">
        <ele>308.8</ele>
        <time>2022-04-10T13:42:17Z</time>
      </trkpt>
      <trkpt lat="44.43852" lon="1.7792">
        <ele>308.8</ele>
        <time>2022-04-10T13:42:19Z</time>
      </trkpt>
      <trkpt lat="44.43855" lon="1.77924">
        <ele>308.8</ele>
        <time>2022-04-10T13:42:20Z</time>
      </trkpt>
      <trkpt lat="44.43859" lon="1.77928">
        <ele>308.8</ele>
        <time>2022-04-10T13:42:21Z</time>
      </trkpt>
      <trkpt lat="44.43863" lon="1.77933">
        <ele>308.8</ele>
        <time>2022-04-10T13:42:22Z</time>
      </trkpt>
      <trkpt lat="44.43867" lon="1.77938">
        <ele>308.8</ele>
        <time>2022-04-10T13:42:23Z</time>
      </trkpt>
      <trkpt lat="44.4387" lon="1.77944">
        <ele>308.8</ele>
        <time>2022-04-10T13:42:24Z</time>
      </trkpt>
      <trkpt lat="44.43873" lon="1.77951">
        <ele>308.7</ele>
        <time>2022-04-10T13:42:25Z</time>
      </trkpt>
      <trkpt lat="44.43874" lon="1.77959">
        <ele>308.7</ele>
        <time>2022-04-10T13:42:26Z</time>
      </trkpt>
      <trkpt lat="44.43875" lon="1.77967">
        <ele>308.8</ele>
        <time>2022-04-10T13:42:27Z</time>
      </trkpt>
      <trkpt lat="44.43875" lon="1.77975">
        <ele>308.8</ele>
        <time>2022-04-10T13:42:28Z</time>
      </trkpt>
      <trkpt lat="44.43874" lon="1.77982">
        <ele>309</ele>
        <time>2022-04-10T13:42:29Z</time>
      </trkpt>
      <trkpt lat="44.43872" lon="1.77988">
        <ele>309.1</ele>
        <time>2022-04-10T13:42:30Z</time>
      </trkpt>
      <trkpt lat="44.43872" lon="1.77995">
        <ele>309.3</ele>
        <time>2022-04-10T13:42:32Z</time>
      </trkpt>
      <trkpt lat="44.43871" lon="1.77999">
        <ele>309.5</ele>
        <time>2022-04-10T13:42:33Z</time>
      </trkpt>
      <trkpt lat="44.43871" lon="1.78005">
        <ele>309.8</ele>
        <time>2022-04-10T13:42:34Z</time>
      </trkpt>
      <trkpt lat="44.4387" lon="1.7801">
        <ele>309.9</ele>
        <time>2022-04-10T13:42:35Z</time>
      </trkpt>
      <trkpt lat="44.43869" lon="1.78012">
        <ele>310</ele>
        <time>2022-04-10T13:42:36Z</time>
      </trkpt>
      <trkpt lat="44.43868" lon="1.78013">
        <ele>310.1</ele>
        <time>2022-04-10T13:42:37Z</time>
      </trkpt>
      <trkpt lat="44.43867" lon="1.78015">
        <ele>310.2</ele>
        <time>2022-04-10T13:42:39Z</time>
      </trkpt>
      <trkpt lat="44.43866" lon="1.78019">
        <ele>310.4</ele>
        <time>2022-04-10T13:42:40Z</time>
      </trkpt>
      <trkpt lat="44.43865" lon="1.78021">
        <ele>310.5</ele>
        <time>2022-04-10T13:42:41Z</time>
      </trkpt>
      <trkpt lat="44.43865" lon="1.78026">
        <ele>310.6</ele>
        <time>2022-04-10T13:42:42Z</time>
      </trkpt>
      <trkpt lat="44.43865" lon="1.7803">
        <ele>310.8</ele>
        <time>2022-04-10T13:42:43Z</time>
      </trkpt>
      <trkpt lat="44.43865" lon="1.78031">
        <ele>310.8</ele>
        <time>2022-04-10T13:42:44Z</time>
      </trkpt>
      <trkpt lat="44.43866" lon="1.78033">
        <ele>310.9</ele>
        <time>2022-04-10T13:42:45Z</time>
      </trkpt>
      <trkpt lat="44.43866" lon="1.78036">
        <ele>311</ele>
        <time>2022-04-10T13:42:46Z</time>
      </trkpt>
      <trkpt lat="44.43868" lon="1.78043">
        <ele>311.2</ele>
        <time>2022-04-10T13:42:48Z</time>
      </trkpt>
      <trkpt lat="44.43867" lon="1.78045">
        <ele>311.3</ele>
        <time>2022-04-10T13:42:49Z</time>
      </trkpt>
      <trkpt lat="44.43867" lon="1.78048">
        <ele>311.4</ele>
        <time>2022-04-10T13:42:50Z</time>
      </trkpt>
      <trkpt lat="44.43868" lon="1.78053">
        <ele>311.5</ele>
        <time>2022-04-10T13:42:51Z</time>
      </trkpt>
      <trkpt lat="44.43869" lon="1.78055">
        <ele>311.6</ele>
        <time>2022-04-10T13:42:52Z</time>
      </trkpt>
      <trkpt lat="44.43869" lon="1.78066">
        <ele>311.9</ele>
        <time>2022-04-10T13:42:54Z</time>
      </trkpt>
      <trkpt lat="44.43868" lon="1.78073">
        <ele>312.1</ele>
        <time>2022-04-10T13:42:55Z</time>
      </trkpt>
      <trkpt lat="44.43868" lon="1.78078">
        <ele>312.2</ele>
        <time>2022-04-10T13:42:56Z</time>
      </trkpt>
      <trkpt lat="44.4387" lon="1.78081">
        <ele>312.3</ele>
        <time>2022-04-10T13:42:57Z</time>
      </trkpt>
      <trkpt lat="44.43871" lon="1.78091">
        <ele>312.5</ele>
        <time>2022-04-10T13:42:59Z</time>
      </trkpt>
      <trkpt lat="44.43873" lon="1.78097">
        <ele>312.7</ele>
        <time>2022-04-10T13:43:00Z</time>
      </trkpt>
      <trkpt lat="44.43875" lon="1.781">
        <ele>312.8</ele>
        <time>2022-04-10T13:43:01Z</time>
      </trkpt>
      <trkpt lat="44.43876" lon="1.78104">
        <ele>312.9</ele>
        <time>2022-04-10T13:43:02Z</time>
      </trkpt>
      <trkpt lat="44.43877" lon="1.78108">
        <ele>312.9</ele>
        <time>2022-04-10T13:43:03Z</time>
      </trkpt>
      <trkpt lat="44.43878" lon="1.78112">
        <ele>313</ele>
        <time>2022-04-10T13:43:04Z</time>
      </trkpt>
      <trkpt lat="44.43881" lon="1.78115">
        <ele>313.1</ele>
        <time>2022-04-10T13:43:06Z</time>
      </trkpt>
      <trkpt lat="44.43883" lon="1.78119">
        <ele>313.1</ele>
        <time>2022-04-10T13:43:07Z</time>
      </trkpt>
      <trkpt lat="44.43885" lon="1.78122">
        <ele>313.2</ele>
        <time>2022-04-10T13:43:08Z</time>
      </trkpt>
      <trkpt lat="44.43888" lon="1.78126">
        <ele>313.3</ele>
        <time>2022-04-10T13:43:09Z</time>
      </trkpt>
      <trkpt lat="44.4389" lon="1.78129">
        <ele>313.4</ele>
        <time>2022-04-10T13:43:10Z</time>
      </trkpt>
      <trkpt lat="44.43891" lon="1.7813">
        <ele>313.4</ele>
        <time>2022-04-10T13:43:11Z</time>
      </trkpt>
      <trkpt lat="44.43893" lon="1.78134">
        <ele>313.5</ele>
        <time>2022-04-10T13:43:12Z</time>
      </trkpt>
      <trkpt lat="44.43893" lon="1.78136">
        <ele>313.5</ele>
        <time>2022-04-10T13:43:13Z</time>
      </trkpt>
      <trkpt lat="44.43896" lon="1.7814">
        <ele>313.6</ele>
        <time>2022-04-10T13:43:14Z</time>
      </trkpt>
      <trkpt lat="44.43897" lon="1.78141">
        <ele>313.6</ele>
        <time>2022-04-10T13:43:15Z</time>
      </trkpt>
      <trkpt lat="44.43899" lon="1.78146">
        <ele>313.7</ele>
        <time>2022-04-10T13:43:16Z</time>
      </trkpt>
      <trkpt lat="44.43901" lon="1.78148">
        <ele>313.7</ele>
        <time>2022-04-10T13:43:17Z</time>
      </trkpt>
      <trkpt lat="44.43904" lon="1.78152">
        <ele>313.7</ele>
        <time>2022-04-10T13:43:19Z</time>
      </trkpt>
      <trkpt lat="44.43907" lon="1.78155">
        <ele>313.7</ele>
        <time>2022-04-10T13:43:20Z</time>
      </trkpt>
      <trkpt lat="44.4391" lon="1.78159">
        <ele>313.7</ele>
        <time>2022-04-10T13:43:21Z</time>
      </trkpt>
      <trkpt lat="44.43915" lon="1.78163">
        <ele>313.6</ele>
        <time>2022-04-10T13:43:22Z</time>
      </trkpt>
      <trkpt lat="44.43919" lon="1.78167">
        <ele>313.5</ele>
        <time>2022-04-10T13:43:23Z</time>
      </trkpt>
      <trkpt lat="44.43929" lon="1.78172">
        <ele>313.2</ele>
        <time>2022-04-10T13:43:25Z</time>
      </trkpt>
      <trkpt lat="44.43934" lon="1.78173">
        <ele>313</ele>
        <time>2022-04-10T13:43:26Z</time>
      </trkpt>
      <trkpt lat="44.4394" lon="1.78175">
        <ele>312.8</ele>
        <time>2022-04-10T13:43:27Z</time>
      </trkpt>
      <trkpt lat="44.43945" lon="1.78176">
        <ele>312.6</ele>
        <time>2022-04-10T13:43:28Z</time>
      </trkpt>
      <trkpt lat="44.43951" lon="1.78177">
        <ele>312.4</ele>
        <time>2022-04-10T13:43:29Z</time>
      </trkpt>
      <trkpt lat="44.43956" lon="1.78178">
        <ele>312.1</ele>
        <time>2022-04-10T13:43:30Z</time>
      </trkpt>
      <trkpt lat="44.43962" lon="1.7818">
        <ele>311.9</ele>
        <time>2022-04-10T13:43:31Z</time>
      </trkpt>
      <trkpt lat="44.43968" lon="1.78182">
        <ele>311.6</ele>
        <time>2022-04-10T13:43:32Z</time>
      </trkpt>
      <trkpt lat="44.43974" lon="1.78182">
        <ele>311.3</ele>
        <time>2022-04-10T13:43:33Z</time>
      </trkpt>
      <trkpt lat="44.43979" lon="1.78183">
        <ele>311</ele>
        <time>2022-04-10T13:43:34Z</time>
      </trkpt>
      <trkpt lat="44.43983" lon="1.7818">
        <ele>310.8</ele>
        <time>2022-04-10T13:43:36Z</time>
      </trkpt>
      <trkpt lat="44.43988" lon="1.78182">
        <ele>310.6</ele>
        <time>2022-04-10T13:43:37Z</time>
      </trkpt>
      <trkpt lat="44.43993" lon="1.78184">
        <ele>310.2</ele>
        <time>2022-04-10T13:43:38Z</time>
      </trkpt>
      <trkpt lat="44.43997" lon="1.78184">
        <ele>310</ele>
        <time>2022-04-10T13:43:39Z</time>
      </trkpt>
      <trkpt lat="44.44" lon="1.78185">
        <ele>309.7</ele>
        <time>2022-04-10T13:43:40Z</time>
      </trkpt>
      <trkpt lat="44.44005" lon="1.78186">
        <ele>309.4</ele>
        <time>2022-04-10T13:43:41Z</time>
      </trkpt>
      <trkpt lat="44.44009" lon="1.78186">
        <ele>309</ele>
        <time>2022-04-10T13:43:42Z</time>
      </trkpt>
      <trkpt lat="44.44015" lon="1.78189">
        <ele>308.5</ele>
        <time>2022-04-10T13:43:44Z</time>
      </trkpt>
      <trkpt lat="44.44017" lon="1.78191">
        <ele>308.3</ele>
        <time>2022-04-10T13:43:45Z</time>
      </trkpt>
      <trkpt lat="44.44018" lon="1.78192">
        <ele>308.2</ele>
        <time>2022-04-10T13:43:46Z</time>
      </trkpt>
      <trkpt lat="44.44018" lon="1.78191">
        <ele>308.2</ele>
        <time>2022-04-10T13:43:47Z</time>
      </trkpt>
      <trkpt lat="44.44017" lon="1.7819">
        <ele>308.1</ele>
        <time>2022-04-10T13:43:48Z</time>
      </trkpt>
      <trkpt lat="44.44017" lon="1.7819">
        <ele>308.1</ele>
        <time>2022-04-10T13:43:49Z</time>
      </trkpt>
      <trkpt lat="44.44017" lon="1.7819">
        <ele>308.1</ele>
        <time>2022-04-10T13:43:50Z</time>
      </trkpt>
      <trkpt lat="44.44017" lon="1.7819">
        <ele>308.1</ele>
        <time>2022-04-10T13:43:52Z</time>
      </trkpt>
      <trkpt lat="44.44016" lon="1.7819">
        <ele>308.1</ele>
        <time>2022-04-10T13:43:53Z</time>
      </trkpt>
      <trkpt lat="44.44016" lon="1.7819">
        <ele>308.1</ele>
        <time>2022-04-10T13:43:54Z</time>
      </trkpt>
      <trkpt lat="44.44016" lon="1.7819">
        <ele>308.1</ele>
        <time>2022-04-10T13:43:55Z</time>
      </trkpt>
      <trkpt lat="44.44016" lon="1.7819">
        <ele>308.1</ele>
        <time>2022-04-10T13:43:56Z</time>
      </trkpt>
      <trkpt lat="44.44026" lon="1.78197">
        <ele>307.1</ele>
        <time>2022-04-10T13:45:47Z</time>
      </trkpt>
      <trkpt lat="44.44026" lon="1.78201">
        <ele>306.9</ele>
        <time>2022-04-10T13:45:48Z</time>
      </trkpt>
      <trkpt lat="44.44026" lon="1.78207">
        <ele>306.6</ele>
        <time>2022-04-10T13:45:49Z</time>
      </trkpt>
      <trkpt lat="44.44025" lon="1.78211">
        <ele>306.3</ele>
        <time>2022-04-10T13:45:50Z</time>
      </trkpt>
      <trkpt lat="44.44025" lon="1.78214">
        <ele>306.1</ele>
        <time>2022-04-10T13:45:51Z</time>
      </trkpt>
      <trkpt lat="44.44026" lon="1.78216">
        <ele>306</ele>
        <time>2022-04-10T13:45:52Z</time>
      </trkpt>
      <trkpt lat="44.44026" lon="1.78217">
        <ele>305.9</ele>
        <time>2022-04-10T13:45:53Z</time>
      </trkpt>
      <trkpt lat="44.44027" lon="1.78219">
        <ele>305.8</ele>
        <time>2022-04-10T13:45:54Z</time>
      </trkpt>
      <trkpt lat="44.44027" lon="1.78221">
        <ele>305.7</ele>
        <time>2022-04-10T13:45:55Z</time>
      </trkpt>
      <trkpt lat="44.44029" lon="1.78224">
        <ele>305.5</ele>
        <time>2022-04-10T13:45:56Z</time>
      </trkpt>
      <trkpt lat="44.44029" lon="1.78226">
        <ele>305.4</ele>
        <time>2022-04-10T13:45:57Z</time>
      </trkpt>
      <trkpt lat="44.44031" lon="1.7823">
        <ele>305.1</ele>
        <time>2022-04-10T13:45:58Z</time>
      </trkpt>
      <trkpt lat="44.44031" lon="1.78233">
        <ele>304.9</ele>
        <time>2022-04-10T13:45:59Z</time>
      </trkpt>
      <trkpt lat="44.44033" lon="1.78237">
        <ele>304.6</ele>
        <time>2022-04-10T13:46:00Z</time>
      </trkpt>
      <trkpt lat="44.44035" lon="1.78241">
        <ele>304.3</ele>
        <time>2022-04-10T13:46:01Z</time>
      </trkpt>
      <trkpt lat="44.44038" lon="1.78248">
        <ele>303.9</ele>
        <time>2022-04-10T13:46:02Z</time>
      </trkpt>
      <trkpt lat="44.44041" lon="1.78253">
        <ele>303.4</ele>
        <time>2022-04-10T13:46:03Z</time>
      </trkpt>
      <trkpt lat="44.44044" lon="1.7826">
        <ele>302.9</ele>
        <time>2022-04-10T13:46:04Z</time>
      </trkpt>
      <trkpt lat="44.44047" lon="1.78266">
        <ele>302.5</ele>
        <time>2022-04-10T13:46:05Z</time>
      </trkpt>
      <trkpt lat="44.44049" lon="1.78269">
        <ele>302.2</ele>
        <time>2022-04-10T13:46:06Z</time>
      </trkpt>
      <trkpt lat="44.44051" lon="1.78274">
        <ele>301.8</ele>
        <time>2022-04-10T13:46:07Z</time>
      </trkpt>
      <trkpt lat="44.44054" lon="1.78278">
        <ele>301.6</ele>
        <time>2022-04-10T13:46:09Z</time>
      </trkpt>
      <trkpt lat="44.44054" lon="1.78278">
        <ele>301.5</ele>
        <time>2022-04-10T13:46:10Z</time>
      </trkpt>
      <trkpt lat="44.44054" lon="1.78278">
        <ele>301.5</ele>
        <time>2022-04-10T13:46:11Z</time>
      </trkpt>
      <trkpt lat="44.44055" lon="1.78278">
        <ele>301.5</ele>
        <time>2022-04-10T13:46:12Z</time>
      </trkpt>
      <trkpt lat="44.44055" lon="1.78278">
        <ele>301.4</ele>
        <time>2022-04-10T13:46:13Z</time>
      </trkpt>
      <trkpt lat="44.44055" lon="1.78278">
        <ele>301.4</ele>
        <time>2022-04-10T13:46:14Z</time>
      </trkpt>
      <trkpt lat="44.44055" lon="1.78278">
        <ele>301.4</ele>
        <time>2022-04-10T13:46:15Z</time>
      </trkpt>
      <trkpt lat="44.44056" lon="1.78278">
        <ele>301.4</ele>
        <time>2022-04-10T13:46:16Z</time>
      </trkpt>
      <trkpt lat="44.44056" lon="1.78278">
        <ele>301.3</ele>
        <time>2022-04-10T13:46:17Z</time>
      </trkpt>
      <trkpt lat="44.44056" lon="1.78278">
        <ele>301.3</ele>
        <time>2022-04-10T13:46:18Z</time>
      </trkpt>
      <trkpt lat="44.44057" lon="1.78279">
        <ele>301.3</ele>
        <time>2022-04-10T13:46:19Z</time>
      </trkpt>
      <trkpt lat="44.44057" lon="1.78279">
        <ele>301.3</ele>
        <time>2022-04-10T13:46:20Z</time>
      </trkpt>
      <trkpt lat="44.44057" lon="1.78279">
        <ele>301.3</ele>
        <time>2022-04-10T13:46:20Z</time>
      </trkpt>
      <trkpt lat="44.4406" lon="1.78278">
        <ele>301</ele>
        <time>2022-04-10T13:46:21Z</time>
      </trkpt>
      <trkpt lat="44.44063" lon="1.78276">
        <ele>300.7</ele>
        <time>2022-04-10T13:46:22Z</time>
      </trkpt>
      <trkpt lat="44.44066" lon="1.78272">
        <ele>300.4</ele>
        <time>2022-04-10T13:46:23Z</time>
      </trkpt>
      <trkpt lat="44.4407" lon="1.78269">
        <ele>300</ele>
        <time>2022-04-10T13:46:24Z</time>
      </trkpt>
      <trkpt lat="44.44074" lon="1.78266">
        <ele>299.6</ele>
        <time>2022-04-10T13:46:25Z</time>
      </trkpt>
      <trkpt lat="44.44081" lon="1.78261">
        <ele>299</ele>
        <time>2022-04-10T13:46:27Z</time>
      </trkpt>
      <trkpt lat="44.44085" lon="1.78258">
        <ele>298.7</ele>
        <time>2022-04-10T13:46:28Z</time>
      </trkpt>
      <trkpt lat="44.44089" lon="1.78256">
        <ele>298.3</ele>
        <time>2022-04-10T13:46:29Z</time>
      </trkpt>
      <trkpt lat="44.44093" lon="1.78253">
        <ele>298</ele>
        <time>2022-04-10T13:46:30Z</time>
      </trkpt>
      <trkpt lat="44.44096" lon="1.78253">
        <ele>297.7</ele>
        <time>2022-04-10T13:46:31Z</time>
      </trkpt>
      <trkpt lat="44.44099" lon="1.78251">
        <ele>297.4</ele>
        <time>2022-04-10T13:46:32Z</time>
      </trkpt>
      <trkpt lat="44.44102" lon="1.7825">
        <ele>297.2</ele>
        <time>2022-04-10T13:46:33Z</time>
      </trkpt>
      <trkpt lat="44.44107" lon="1.78249">
        <ele>296.7</ele>
        <time>2022-04-10T13:46:35Z</time>
      </trkpt>
      <trkpt lat="44.44112" lon="1.78248">
        <ele>296.2</ele>
        <time>2022-04-10T13:46:36Z</time>
      </trkpt>
      <trkpt lat="44.44116" lon="1.78247">
        <ele>295.9</ele>
        <time>2022-04-10T13:46:37Z</time>
      </trkpt>
      <trkpt lat="44.44119" lon="1.78246">
        <ele>295.5</ele>
        <time>2022-04-10T13:46:38Z</time>
      </trkpt>
      <trkpt lat="44.44122" lon="1.78245">
        <ele>295.2</ele>
        <time>2022-04-10T13:46:39Z</time>
      </trkpt>
      <trkpt lat="44.44129" lon="1.78242">
        <ele>294.5</ele>
        <time>2022-04-10T13:46:41Z</time>
      </trkpt>
      <trkpt lat="44.44135" lon="1.78241">
        <ele>293.8</ele>
        <time>2022-04-10T13:46:42Z</time>
      </trkpt>
      <trkpt lat="44.44141" lon="1.7824">
        <ele>293.1</ele>
        <time>2022-04-10T13:46:43Z</time>
      </trkpt>
      <trkpt lat="44.44147" lon="1.78237">
        <ele>292.4</ele>
        <time>2022-04-10T13:46:44Z</time>
      </trkpt>
      <trkpt lat="44.44152" lon="1.78235">
        <ele>292.4</ele>
        <time>2022-04-10T13:46:45Z</time>
      </trkpt>
      <trkpt lat="44.44156" lon="1.78232">
        <ele>292.3</ele>
        <time>2022-04-10T13:46:46Z</time>
      </trkpt>
      <trkpt lat="44.44161" lon="1.7823">
        <ele>292.2</ele>
        <time>2022-04-10T13:46:47Z</time>
      </trkpt>
      <trkpt lat="44.44166" lon="1.78226">
        <ele>292</ele>
        <time>2022-04-10T13:46:48Z</time>
      </trkpt>
      <trkpt lat="44.44168" lon="1.78225">
        <ele>291.9</ele>
        <time>2022-04-10T13:46:49Z</time>
      </trkpt>
      <trkpt lat="44.44172" lon="1.78223">
        <ele>291.8</ele>
        <time>2022-04-10T13:46:51Z</time>
      </trkpt>
      <trkpt lat="44.44175" lon="1.78219">
        <ele>291.6</ele>
        <time>2022-04-10T13:46:52Z</time>
      </trkpt>
      <trkpt lat="44.4418" lon="1.78218">
        <ele>291.4</ele>
        <time>2022-04-10T13:46:53Z</time>
      </trkpt>
      <trkpt lat="44.44187" lon="1.78215">
        <ele>291</ele>
        <time>2022-04-10T13:46:55Z</time>
      </trkpt>
      <trkpt lat="44.44193" lon="1.78212">
        <ele>290.7</ele>
        <time>2022-04-10T13:46:56Z</time>
      </trkpt>
      <trkpt lat="44.442" lon="1.78209">
        <ele>290.1</ele>
        <time>2022-04-10T13:46:58Z</time>
      </trkpt>
      <trkpt lat="44.44205" lon="1.78208">
        <ele>289.6</ele>
        <time>2022-04-10T13:46:59Z</time>
      </trkpt>
      <trkpt lat="44.44211" lon="1.78207">
        <ele>289.2</ele>
        <time>2022-04-10T13:47:00Z</time>
      </trkpt>
      <trkpt lat="44.44214" lon="1.78207">
        <ele>289</ele>
        <time>2022-04-10T13:47:01Z</time>
      </trkpt>
      <trkpt lat="44.4422" lon="1.78207">
        <ele>288.8</ele>
        <time>2022-04-10T13:47:03Z</time>
      </trkpt>
      <trkpt lat="44.44224" lon="1.78207">
        <ele>288.7</ele>
        <time>2022-04-10T13:47:04Z</time>
      </trkpt>
      <trkpt lat="44.44227" lon="1.78206">
        <ele>288.6</ele>
        <time>2022-04-10T13:47:05Z</time>
      </trkpt>
      <trkpt lat="44.44232" lon="1.78205">
        <ele>288.6</ele>
        <time>2022-04-10T13:47:06Z</time>
      </trkpt>
      <trkpt lat="44.44236" lon="1.78203">
        <ele>288.6</ele>
        <time>2022-04-10T13:47:07Z</time>
      </trkpt>
      <trkpt lat="44.44241" lon="1.78202">
        <ele>288.6</ele>
        <time>2022-04-10T13:47:09Z</time>
      </trkpt>
      <trkpt lat="44.44245" lon="1.782">
        <ele>288.6</ele>
        <time>2022-04-10T13:47:10Z</time>
      </trkpt>
      <trkpt lat="44.4425" lon="1.78199">
        <ele>288.8</ele>
        <time>2022-04-10T13:47:11Z</time>
      </trkpt>
      <trkpt lat="44.44253" lon="1.78197">
        <ele>288.9</ele>
        <time>2022-04-10T13:47:12Z</time>
      </trkpt>
      <trkpt lat="44.44255" lon="1.78194">
        <ele>289</ele>
        <time>2022-04-10T13:47:13Z</time>
      </trkpt>
      <trkpt lat="44.4426" lon="1.78191">
        <ele>289.2</ele>
        <time>2022-04-10T13:47:15Z</time>
      </trkpt>
      <trkpt lat="44.44263" lon="1.7819">
        <ele>289.4</ele>
        <time>2022-04-10T13:47:16Z</time>
      </trkpt>
      <trkpt lat="44.44266" lon="1.78188">
        <ele>289.6</ele>
        <time>2022-04-10T13:47:17Z</time>
      </trkpt>
      <trkpt lat="44.44268" lon="1.78187">
        <ele>289.6</ele>
        <time>2022-04-10T13:47:18Z</time>
      </trkpt>
      <trkpt lat="44.44272" lon="1.78186">
        <ele>289.8</ele>
        <time>2022-04-10T13:47:19Z</time>
      </trkpt>
      <trkpt lat="44.44275" lon="1.78184">
        <ele>289.9</ele>
        <time>2022-04-10T13:47:20Z</time>
      </trkpt>
      <trkpt lat="44.44286" lon="1.78183">
        <ele>290.1</ele>
        <time>2022-04-10T13:47:22Z</time>
      </trkpt>
      <trkpt lat="44.44297" lon="1.78182">
        <ele>289.9</ele>
        <time>2022-04-10T13:47:24Z</time>
      </trkpt>
      <trkpt lat="44.44302" lon="1.78182">
        <ele>289.8</ele>
        <time>2022-04-10T13:47:25Z</time>
      </trkpt>
      <trkpt lat="44.44308" lon="1.78182">
        <ele>289.6</ele>
        <time>2022-04-10T13:47:26Z</time>
      </trkpt>
      <trkpt lat="44.44314" lon="1.78181">
        <ele>289.4</ele>
        <time>2022-04-10T13:47:27Z</time>
      </trkpt>
      <trkpt lat="44.4432" lon="1.7818">
        <ele>289.3</ele>
        <time>2022-04-10T13:47:28Z</time>
      </trkpt>
      <trkpt lat="44.44325" lon="1.78179">
        <ele>289.1</ele>
        <time>2022-04-10T13:47:29Z</time>
      </trkpt>
      <trkpt lat="44.44332" lon="1.78177">
        <ele>289</ele>
        <time>2022-04-10T13:47:30Z</time>
      </trkpt>
      <trkpt lat="44.44338" lon="1.78176">
        <ele>288.9</ele>
        <time>2022-04-10T13:47:31Z</time>
      </trkpt>
      <trkpt lat="44.44344" lon="1.78174">
        <ele>288.7</ele>
        <time>2022-04-10T13:47:32Z</time>
      </trkpt>
      <trkpt lat="44.44351" lon="1.78173">
        <ele>288.6</ele>
        <time>2022-04-10T13:47:33Z</time>
      </trkpt>
      <trkpt lat="44.44357" lon="1.78171">
        <ele>288.4</ele>
        <time>2022-04-10T13:47:34Z</time>
      </trkpt>
      <trkpt lat="44.44363" lon="1.78169">
        <ele>288.2</ele>
        <time>2022-04-10T13:47:35Z</time>
      </trkpt>
      <trkpt lat="44.44369" lon="1.78168">
        <ele>288.1</ele>
        <time>2022-04-10T13:47:36Z</time>
      </trkpt>
      <trkpt lat="44.44375" lon="1.78167">
        <ele>288</ele>
        <time>2022-04-10T13:47:37Z</time>
      </trkpt>
      <trkpt lat="44.44381" lon="1.78167">
        <ele>287.8</ele>
        <time>2022-04-10T13:47:38Z</time>
      </trkpt>
      <trkpt lat="44.44386" lon="1.78168">
        <ele>287.7</ele>
        <time>2022-04-10T13:47:39Z</time>
      </trkpt>
      <trkpt lat="44.44391" lon="1.7817">
        <ele>287.7</ele>
        <time>2022-04-10T13:47:40Z</time>
      </trkpt>
      <trkpt lat="44.44395" lon="1.78172">
        <ele>287.6</ele>
        <time>2022-04-10T13:47:41Z</time>
      </trkpt>
      <trkpt lat="44.44399" lon="1.78174">
        <ele>287.6</ele>
        <time>2022-04-10T13:47:42Z</time>
      </trkpt>
      <trkpt lat="44.44404" lon="1.78177">
        <ele>287.7</ele>
        <time>2022-04-10T13:47:43Z</time>
      </trkpt>
      <trkpt lat="44.44407" lon="1.7818">
        <ele>287.7</ele>
        <time>2022-04-10T13:47:44Z</time>
      </trkpt>
      <trkpt lat="44.4441" lon="1.78183">
        <ele>287.8</ele>
        <time>2022-04-10T13:47:45Z</time>
      </trkpt>
      <trkpt lat="44.44415" lon="1.78188">
        <ele>288</ele>
        <time>2022-04-10T13:47:47Z</time>
      </trkpt>
      <trkpt lat="44.44417" lon="1.7819">
        <ele>288.1</ele>
        <time>2022-04-10T13:47:48Z</time>
      </trkpt>
      <trkpt lat="44.44422" lon="1.78193">
        <ele>288.2</ele>
        <time>2022-04-10T13:47:49Z</time>
      </trkpt>
      <trkpt lat="44.44424" lon="1.78195">
        <ele>288.3</ele>
        <time>2022-04-10T13:47:50Z</time>
      </trkpt>
      <trkpt lat="44.44427" lon="1.78198">
        <ele>288.4</ele>
        <time>2022-04-10T13:47:51Z</time>
      </trkpt>
      <trkpt lat="44.4443" lon="1.782">
        <ele>288.6</ele>
        <time>2022-04-10T13:47:52Z</time>
      </trkpt>
      <trkpt lat="44.44433" lon="1.78202">
        <ele>288.8</ele>
        <time>2022-04-10T13:47:54Z</time>
      </trkpt>
      <trkpt lat="44.44436" lon="1.78204">
        <ele>289</ele>
        <time>2022-04-10T13:47:55Z</time>
      </trkpt>
      <trkpt lat="44.44437" lon="1.78206">
        <ele>289.1</ele>
        <time>2022-04-10T13:47:56Z</time>
      </trkpt>
      <trkpt lat="44.44439" lon="1.78207">
        <ele>289.2</ele>
        <time>2022-04-10T13:47:57Z</time>
      </trkpt>
      <trkpt lat="44.44439" lon="1.78208">
        <ele>289.2</ele>
        <time>2022-04-10T13:47:58Z</time>
      </trkpt>
      <trkpt lat="44.44442" lon="1.78211">
        <ele>289.4</ele>
        <time>2022-04-10T13:48:00Z</time>
      </trkpt>
      <trkpt lat="44.44443" lon="1.78212">
        <ele>289.5</ele>
        <time>2022-04-10T13:48:01Z</time>
      </trkpt>
      <trkpt lat="44.44444" lon="1.78214">
        <ele>289.6</ele>
        <time>2022-04-10T13:48:02Z</time>
      </trkpt>
      <trkpt lat="44.44445" lon="1.78215">
        <ele>289.8</ele>
        <time>2022-04-10T13:48:03Z</time>
      </trkpt>
      <trkpt lat="44.44446" lon="1.78217">
        <ele>289.9</ele>
        <time>2022-04-10T13:48:04Z</time>
      </trkpt>
      <trkpt lat="44.44449" lon="1.78219">
        <ele>290.1</ele>
        <time>2022-04-10T13:48:05Z</time>
      </trkpt>
      <trkpt lat="44.4445" lon="1.78219">
        <ele>290.2</ele>
        <time>2022-04-10T13:48:06Z</time>
      </trkpt>
      <trkpt lat="44.44452" lon="1.78222">
        <ele>290.4</ele>
        <time>2022-04-10T13:48:08Z</time>
      </trkpt>
      <trkpt lat="44.44453" lon="1.78224">
        <ele>290.5</ele>
        <time>2022-04-10T13:48:09Z</time>
      </trkpt>
      <trkpt lat="44.44454" lon="1.78225">
        <ele>290.7</ele>
        <time>2022-04-10T13:48:10Z</time>
      </trkpt>
      <trkpt lat="44.44455" lon="1.78226">
        <ele>290.8</ele>
        <time>2022-04-10T13:48:11Z</time>
      </trkpt>
      <trkpt lat="44.44458" lon="1.78229">
        <ele>291.1</ele>
        <time>2022-04-10T13:48:13Z</time>
      </trkpt>
      <trkpt lat="44.4446" lon="1.78232">
        <ele>291.4</ele>
        <time>2022-04-10T13:48:14Z</time>
      </trkpt>
      <trkpt lat="44.44461" lon="1.78233">
        <ele>291.5</ele>
        <time>2022-04-10T13:48:15Z</time>
      </trkpt>
      <trkpt lat="44.44462" lon="1.78234">
        <ele>291.6</ele>
        <time>2022-04-10T13:48:16Z</time>
      </trkpt>
      <trkpt lat="44.44464" lon="1.78235">
        <ele>291.8</ele>
        <time>2022-04-10T13:48:18Z</time>
      </trkpt>
      <trkpt lat="44.44464" lon="1.78237">
        <ele>291.9</ele>
        <time>2022-04-10T13:48:20Z</time>
      </trkpt>
      <trkpt lat="44.44465" lon="1.78239">
        <ele>292.1</ele>
        <time>2022-04-10T13:48:21Z</time>
      </trkpt>
      <trkpt lat="44.44469" lon="1.78242">
        <ele>292.5</ele>
        <time>2022-04-10T13:48:22Z</time>
      </trkpt>
      <trkpt lat="44.44472" lon="1.78245">
        <ele>292.8</ele>
        <time>2022-04-10T13:48:23Z</time>
      </trkpt>
      <trkpt lat="44.44473" lon="1.78246">
        <ele>293</ele>
        <time>2022-04-10T13:48:24Z</time>
      </trkpt>
      <trkpt lat="44.44474" lon="1.78248">
        <ele>293.1</ele>
        <time>2022-04-10T13:48:25Z</time>
      </trkpt>
      <trkpt lat="44.44477" lon="1.7825">
        <ele>293.4</ele>
        <time>2022-04-10T13:48:26Z</time>
      </trkpt>
      <trkpt lat="44.44477" lon="1.78251">
        <ele>293.5</ele>
        <time>2022-04-10T13:48:27Z</time>
      </trkpt>
      <trkpt lat="44.44479" lon="1.78252">
        <ele>293.6</ele>
        <time>2022-04-10T13:48:28Z</time>
      </trkpt>
      <trkpt lat="44.4448" lon="1.78254">
        <ele>293.8</ele>
        <time>2022-04-10T13:48:29Z</time>
      </trkpt>
      <trkpt lat="44.44481" lon="1.78256">
        <ele>293.9</ele>
        <time>2022-04-10T13:48:30Z</time>
      </trkpt>
      <trkpt lat="44.44482" lon="1.78257">
        <ele>294</ele>
        <time>2022-04-10T13:48:31Z</time>
      </trkpt>
      <trkpt lat="44.44483" lon="1.78257">
        <ele>294.1</ele>
        <time>2022-04-10T13:48:32Z</time>
      </trkpt>
      <trkpt lat="44.44484" lon="1.78258">
        <ele>294.2</ele>
        <time>2022-04-10T13:48:33Z</time>
      </trkpt>
      <trkpt lat="44.44485" lon="1.7826">
        <ele>294.3</ele>
        <time>2022-04-10T13:48:34Z</time>
      </trkpt>
      <trkpt lat="44.44486" lon="1.7826">
        <ele>294.4</ele>
        <time>2022-04-10T13:48:35Z</time>
      </trkpt>
      <trkpt lat="44.44488" lon="1.78261">
        <ele>294.5</ele>
        <time>2022-04-10T13:48:36Z</time>
      </trkpt>
      <trkpt lat="44.4449" lon="1.78263">
        <ele>294.7</ele>
        <time>2022-04-10T13:48:38Z</time>
      </trkpt>
      <trkpt lat="44.44491" lon="1.78264">
        <ele>294.8</ele>
        <time>2022-04-10T13:48:39Z</time>
      </trkpt>
      <trkpt lat="44.44492" lon="1.78266">
        <ele>294.9</ele>
        <time>2022-04-10T13:48:40Z</time>
      </trkpt>
      <trkpt lat="44.44493" lon="1.78266">
        <ele>295</ele>
        <time>2022-04-10T13:48:41Z</time>
      </trkpt>
      <trkpt lat="44.44494" lon="1.78266">
        <ele>295.1</ele>
        <time>2022-04-10T13:48:42Z</time>
      </trkpt>
      <trkpt lat="44.44496" lon="1.78267">
        <ele>295.2</ele>
        <time>2022-04-10T13:48:43Z</time>
      </trkpt>
      <trkpt lat="44.44497" lon="1.78268">
        <ele>295.3</ele>
        <time>2022-04-10T13:48:44Z</time>
      </trkpt>
      <trkpt lat="44.44499" lon="1.78268">
        <ele>295.4</ele>
        <time>2022-04-10T13:48:45Z</time>
      </trkpt>
      <trkpt lat="44.44503" lon="1.78272">
        <ele>295.9</ele>
        <time>2022-04-10T13:48:47Z</time>
      </trkpt>
      <trkpt lat="44.44507" lon="1.78275">
        <ele>296.2</ele>
        <time>2022-04-10T13:48:48Z</time>
      </trkpt>
      <trkpt lat="44.44511" lon="1.78278">
        <ele>296.6</ele>
        <time>2022-04-10T13:48:49Z</time>
      </trkpt>
      <trkpt lat="44.44514" lon="1.7828">
        <ele>296.9</ele>
        <time>2022-04-10T13:48:50Z</time>
      </trkpt>
      <trkpt lat="44.44519" lon="1.78281">
        <ele>297.3</ele>
        <time>2022-04-10T13:48:52Z</time>
      </trkpt>
      <trkpt lat="44.4452" lon="1.78282">
        <ele>297.5</ele>
        <time>2022-04-10T13:48:53Z</time>
      </trkpt>
      <trkpt lat="44.44521" lon="1.78282">
        <ele>297.6</ele>
        <time>2022-04-10T13:48:54Z</time>
      </trkpt>
      <trkpt lat="44.44524" lon="1.78283">
        <ele>297.9</ele>
        <time>2022-04-10T13:48:55Z</time>
      </trkpt>
      <trkpt lat="44.44525" lon="1.78283">
        <ele>297.9</ele>
        <time>2022-04-10T13:48:56Z</time>
      </trkpt>
      <trkpt lat="44.44528" lon="1.78283">
        <ele>298.2</ele>
        <time>2022-04-10T13:48:57Z</time>
      </trkpt>
      <trkpt lat="44.44529" lon="1.78284">
        <ele>298.3</ele>
        <time>2022-04-10T13:48:58Z</time>
      </trkpt>
      <trkpt lat="44.44531" lon="1.78285">
        <ele>298.6</ele>
        <time>2022-04-10T13:48:59Z</time>
      </trkpt>
      <trkpt lat="44.44532" lon="1.78286">
        <ele>298.6</ele>
        <time>2022-04-10T13:49:00Z</time>
      </trkpt>
      <trkpt lat="44.44534" lon="1.78286">
        <ele>298.8</ele>
        <time>2022-04-10T13:49:01Z</time>
      </trkpt>
      <trkpt lat="44.44537" lon="1.78288">
        <ele>299</ele>
        <time>2022-04-10T13:49:03Z</time>
      </trkpt>
      <trkpt lat="44.4454" lon="1.78288">
        <ele>299.3</ele>
        <time>2022-04-10T13:49:04Z</time>
      </trkpt>
      <trkpt lat="44.44544" lon="1.78289">
        <ele>299.6</ele>
        <time>2022-04-10T13:49:05Z</time>
      </trkpt>
      <trkpt lat="44.44548" lon="1.78292">
        <ele>299.9</ele>
        <time>2022-04-10T13:49:07Z</time>
      </trkpt>
      <trkpt lat="44.44553" lon="1.78292">
        <ele>300.1</ele>
        <time>2022-04-10T13:49:08Z</time>
      </trkpt>
      <trkpt lat="44.44557" lon="1.78292">
        <ele>300.3</ele>
        <time>2022-04-10T13:49:10Z</time>
      </trkpt>
      <trkpt lat="44.4456" lon="1.78293">
        <ele>300.4</ele>
        <time>2022-04-10T13:49:11Z</time>
      </trkpt>
      <trkpt lat="44.44566" lon="1.78294">
        <ele>300.6</ele>
        <time>2022-04-10T13:49:12Z</time>
      </trkpt>
      <trkpt lat="44.44569" lon="1.78294">
        <ele>300.6</ele>
        <time>2022-04-10T13:49:13Z</time>
      </trkpt>
      <trkpt lat="44.44573" lon="1.78293">
        <ele>300.6</ele>
        <time>2022-04-10T13:49:14Z</time>
      </trkpt>
      <trkpt lat="44.44576" lon="1.78293">
        <ele>300.6</ele>
        <time>2022-04-10T13:49:15Z</time>
      </trkpt>
      <trkpt lat="44.44579" lon="1.78294">
        <ele>300.5</ele>
        <time>2022-04-10T13:49:16Z</time>
      </trkpt>
      <trkpt lat="44.44583" lon="1.78293">
        <ele>300.4</ele>
        <time>2022-04-10T13:49:17Z</time>
      </trkpt>
      <trkpt lat="44.44587" lon="1.78291">
        <ele>300.3</ele>
        <time>2022-04-10T13:49:18Z</time>
      </trkpt>
      <trkpt lat="44.44592" lon="1.78288">
        <ele>300.1</ele>
        <time>2022-04-10T13:49:19Z</time>
      </trkpt>
      <trkpt lat="44.44597" lon="1.78284">
        <ele>299.9</ele>
        <time>2022-04-10T13:49:20Z</time>
      </trkpt>
      <trkpt lat="44.44602" lon="1.78279">
        <ele>299.7</ele>
        <time>2022-04-10T13:49:21Z</time>
      </trkpt>
      <trkpt lat="44.44607" lon="1.78275">
        <ele>299.5</ele>
        <time>2022-04-10T13:49:22Z</time>
      </trkpt>
      <trkpt lat="44.44612" lon="1.7827">
        <ele>299.2</ele>
        <time>2022-04-10T13:49:23Z</time>
      </trkpt>
      <trkpt lat="44.44618" lon="1.78265">
        <ele>298.9</ele>
        <time>2022-04-10T13:49:24Z</time>
      </trkpt>
      <trkpt lat="44.44623" lon="1.78258">
        <ele>298.4</ele>
        <time>2022-04-10T13:49:25Z</time>
      </trkpt>
      <trkpt lat="44.44628" lon="1.78252">
        <ele>297.9</ele>
        <time>2022-04-10T13:49:26Z</time>
      </trkpt>
      <trkpt lat="44.44634" lon="1.78244">
        <ele>297.3</ele>
        <time>2022-04-10T13:49:27Z</time>
      </trkpt>
      <trkpt lat="44.4464" lon="1.78237">
        <ele>296.8</ele>
        <time>2022-04-10T13:49:28Z</time>
      </trkpt>
      <trkpt lat="44.44646" lon="1.7823">
        <ele>296.3</ele>
        <time>2022-04-10T13:49:29Z</time>
      </trkpt>
      <trkpt lat="44.44652" lon="1.78223">
        <ele>295.7</ele>
        <time>2022-04-10T13:49:30Z</time>
      </trkpt>
      <trkpt lat="44.44659" lon="1.78216">
        <ele>295.1</ele>
        <time>2022-04-10T13:49:31Z</time>
      </trkpt>
      <trkpt lat="44.44666" lon="1.7821">
        <ele>294.5</ele>
        <time>2022-04-10T13:49:32Z</time>
      </trkpt>
      <trkpt lat="44.44674" lon="1.78204">
        <ele>294</ele>
        <time>2022-04-10T13:49:33Z</time>
      </trkpt>
      <trkpt lat="44.44681" lon="1.78199">
        <ele>293.7</ele>
        <time>2022-04-10T13:49:34Z</time>
      </trkpt>
      <trkpt lat="44.44689" lon="1.78196">
        <ele>293.6</ele>
        <time>2022-04-10T13:49:35Z</time>
      </trkpt>
      <trkpt lat="44.44697" lon="1.78194">
        <ele>293.6</ele>
        <time>2022-04-10T13:49:36Z</time>
      </trkpt>
      <trkpt lat="44.44704" lon="1.78194">
        <ele>293.8</ele>
        <time>2022-04-10T13:49:37Z</time>
      </trkpt>
      <trkpt lat="44.4471" lon="1.78196">
        <ele>293.9</ele>
        <time>2022-04-10T13:49:38Z</time>
      </trkpt>
      <trkpt lat="44.44715" lon="1.78197">
        <ele>294.1</ele>
        <time>2022-04-10T13:49:39Z</time>
      </trkpt>
      <trkpt lat="44.4472" lon="1.78198">
        <ele>294.2</ele>
        <time>2022-04-10T13:49:40Z</time>
      </trkpt>
      <trkpt lat="44.44722" lon="1.78199">
        <ele>294.3</ele>
        <time>2022-04-10T13:49:41Z</time>
      </trkpt>
      <trkpt lat="44.44726" lon="1.782">
        <ele>294.5</ele>
        <time>2022-04-10T13:49:42Z</time>
      </trkpt>
      <trkpt lat="44.4473" lon="1.78201">
        <ele>294.7</ele>
        <time>2022-04-10T13:49:43Z</time>
      </trkpt>
      <trkpt lat="44.44733" lon="1.78201">
        <ele>294.9</ele>
        <time>2022-04-10T13:49:44Z</time>
      </trkpt>
      <trkpt lat="44.44738" lon="1.78202">
        <ele>295.1</ele>
        <time>2022-04-10T13:49:45Z</time>
      </trkpt>
      <trkpt lat="44.44743" lon="1.78202">
        <ele>295.4</ele>
        <time>2022-04-10T13:49:46Z</time>
      </trkpt>
      <trkpt lat="44.44749" lon="1.78203">
        <ele>295.7</ele>
        <time>2022-04-10T13:49:47Z</time>
      </trkpt>
      <trkpt lat="44.44755" lon="1.78203">
        <ele>296.1</ele>
        <time>2022-04-10T13:49:48Z</time>
      </trkpt>
      <trkpt lat="44.4476" lon="1.78203">
        <ele>296.5</ele>
        <time>2022-04-10T13:49:49Z</time>
      </trkpt>
      <trkpt lat="44.44765" lon="1.78203">
        <ele>296.9</ele>
        <time>2022-04-10T13:49:50Z</time>
      </trkpt>
      <trkpt lat="44.4477" lon="1.78203">
        <ele>297.3</ele>
        <time>2022-04-10T13:49:51Z</time>
      </trkpt>
      <trkpt lat="44.44773" lon="1.78203">
        <ele>297.5</ele>
        <time>2022-04-10T13:49:52Z</time>
      </trkpt>
      <trkpt lat="44.44778" lon="1.78202">
        <ele>297.9</ele>
        <time>2022-04-10T13:49:53Z</time>
      </trkpt>
      <trkpt lat="44.44784" lon="1.78203">
        <ele>298.4</ele>
        <time>2022-04-10T13:49:55Z</time>
      </trkpt>
      <trkpt lat="44.44789" lon="1.78201">
        <ele>298.8</ele>
        <time>2022-04-10T13:49:56Z</time>
      </trkpt>
      <trkpt lat="44.44793" lon="1.782">
        <ele>298.9</ele>
        <time>2022-04-10T13:49:57Z</time>
      </trkpt>
      <trkpt lat="44.44799" lon="1.78199">
        <ele>299.1</ele>
        <time>2022-04-10T13:49:58Z</time>
      </trkpt>
      <trkpt lat="44.44804" lon="1.78198">
        <ele>299.2</ele>
        <time>2022-04-10T13:49:59Z</time>
      </trkpt>
      <trkpt lat="44.44808" lon="1.78197">
        <ele>299.3</ele>
        <time>2022-04-10T13:50:00Z</time>
      </trkpt>
      <trkpt lat="44.44811" lon="1.78196">
        <ele>299.4</ele>
        <time>2022-04-10T13:50:01Z</time>
      </trkpt>
      <trkpt lat="44.44815" lon="1.78194">
        <ele>299.5</ele>
        <time>2022-04-10T13:50:02Z</time>
      </trkpt>
      <trkpt lat="44.4482" lon="1.78192">
        <ele>299.5</ele>
        <time>2022-04-10T13:50:03Z</time>
      </trkpt>
      <trkpt lat="44.44826" lon="1.78191">
        <ele>299.6</ele>
        <time>2022-04-10T13:50:04Z</time>
      </trkpt>
      <trkpt lat="44.44831" lon="1.78189">
        <ele>299.6</ele>
        <time>2022-04-10T13:50:05Z</time>
      </trkpt>
      <trkpt lat="44.44837" lon="1.78187">
        <ele>299.7</ele>
        <time>2022-04-10T13:50:06Z</time>
      </trkpt>
      <trkpt lat="44.44842" lon="1.78185">
        <ele>299.7</ele>
        <time>2022-04-10T13:50:07Z</time>
      </trkpt>
      <trkpt lat="44.44847" lon="1.78183">
        <ele>299.7</ele>
        <time>2022-04-10T13:50:08Z</time>
      </trkpt>
      <trkpt lat="44.44852" lon="1.7818">
        <ele>299.8</ele>
        <time>2022-04-10T13:50:09Z</time>
      </trkpt>
      <trkpt lat="44.44857" lon="1.78176">
        <ele>299.8</ele>
        <time>2022-04-10T13:50:10Z</time>
      </trkpt>
      <trkpt lat="44.44862" lon="1.78173">
        <ele>299.8</ele>
        <time>2022-04-10T13:50:11Z</time>
      </trkpt>
      <trkpt lat="44.44867" lon="1.7817">
        <ele>299.8</ele>
        <time>2022-04-10T13:50:12Z</time>
      </trkpt>
      <trkpt lat="44.44872" lon="1.78165">
        <ele>299.7</ele>
        <time>2022-04-10T13:50:13Z</time>
      </trkpt>
      <trkpt lat="44.44876" lon="1.78161">
        <ele>299.7</ele>
        <time>2022-04-10T13:50:14Z</time>
      </trkpt>
      <trkpt lat="44.4488" lon="1.78155">
        <ele>299.8</ele>
        <time>2022-04-10T13:50:15Z</time>
      </trkpt>
      <trkpt lat="44.44884" lon="1.78149">
        <ele>299.8</ele>
        <time>2022-04-10T13:50:16Z</time>
      </trkpt>
      <trkpt lat="44.44888" lon="1.78144">
        <ele>299.8</ele>
        <time>2022-04-10T13:50:17Z</time>
      </trkpt>
      <trkpt lat="44.44891" lon="1.78138">
        <ele>299.8</ele>
        <time>2022-04-10T13:50:18Z</time>
      </trkpt>
      <trkpt lat="44.44894" lon="1.78132">
        <ele>299.7</ele>
        <time>2022-04-10T13:50:19Z</time>
      </trkpt>
      <trkpt lat="44.44897" lon="1.78125">
        <ele>299.6</ele>
        <time>2022-04-10T13:50:20Z</time>
      </trkpt>
      <trkpt lat="44.44899" lon="1.78118">
        <ele>299.5</ele>
        <time>2022-04-10T13:50:21Z</time>
      </trkpt>
      <trkpt lat="44.44901" lon="1.7811">
        <ele>299.3</ele>
        <time>2022-04-10T13:50:22Z</time>
      </trkpt>
      <trkpt lat="44.44903" lon="1.78102">
        <ele>299.1</ele>
        <time>2022-04-10T13:50:23Z</time>
      </trkpt>
      <trkpt lat="44.44904" lon="1.78095">
        <ele>298.9</ele>
        <time>2022-04-10T13:50:24Z</time>
      </trkpt>
      <trkpt lat="44.44905" lon="1.78086">
        <ele>298.6</ele>
        <time>2022-04-10T13:50:25Z</time>
      </trkpt>
      <trkpt lat="44.44906" lon="1.78078">
        <ele>298.3</ele>
        <time>2022-04-10T13:50:26Z</time>
      </trkpt>
      <trkpt lat="44.44907" lon="1.7807">
        <ele>298.1</ele>
        <time>2022-04-10T13:50:27Z</time>
      </trkpt>
      <trkpt lat="44.44908" lon="1.78061">
        <ele>297.7</ele>
        <time>2022-04-10T13:50:28Z</time>
      </trkpt>
      <trkpt lat="44.44909" lon="1.78052">
        <ele>297.3</ele>
        <time>2022-04-10T13:50:29Z</time>
      </trkpt>
      <trkpt lat="44.44911" lon="1.78043">
        <ele>296.9</ele>
        <time>2022-04-10T13:50:30Z</time>
      </trkpt>
      <trkpt lat="44.44914" lon="1.78033">
        <ele>296.5</ele>
        <time>2022-04-10T13:50:31Z</time>
      </trkpt>
      <trkpt lat="44.44917" lon="1.78022">
        <ele>296</ele>
        <time>2022-04-10T13:50:32Z</time>
      </trkpt>
      <trkpt lat="44.44922" lon="1.78012">
        <ele>295.6</ele>
        <time>2022-04-10T13:50:33Z</time>
      </trkpt>
      <trkpt lat="44.44927" lon="1.78004">
        <ele>295.1</ele>
        <time>2022-04-10T13:50:34Z</time>
      </trkpt>
      <trkpt lat="44.44933" lon="1.78">
        <ele>294.8</ele>
        <time>2022-04-10T13:50:35Z</time>
      </trkpt>
      <trkpt lat="44.4494" lon="1.77997">
        <ele>294.5</ele>
        <time>2022-04-10T13:50:36Z</time>
      </trkpt>
      <trkpt lat="44.44946" lon="1.77995">
        <ele>294.2</ele>
        <time>2022-04-10T13:50:37Z</time>
      </trkpt>
      <trkpt lat="44.44953" lon="1.77993">
        <ele>293.9</ele>
        <time>2022-04-10T13:50:38Z</time>
      </trkpt>
      <trkpt lat="44.4496" lon="1.77993">
        <ele>293.5</ele>
        <time>2022-04-10T13:50:39Z</time>
      </trkpt>
      <trkpt lat="44.44966" lon="1.77994">
        <ele>293.2</ele>
        <time>2022-04-10T13:50:40Z</time>
      </trkpt>
      <trkpt lat="44.44972" lon="1.77996">
        <ele>292.9</ele>
        <time>2022-04-10T13:50:41Z</time>
      </trkpt>
      <trkpt lat="44.44979" lon="1.77999">
        <ele>292.6</ele>
        <time>2022-04-10T13:50:42Z</time>
      </trkpt>
      <trkpt lat="44.44985" lon="1.78002">
        <ele>292.4</ele>
        <time>2022-04-10T13:50:43Z</time>
      </trkpt>
      <trkpt lat="44.44991" lon="1.78004">
        <ele>292.2</ele>
        <time>2022-04-10T13:50:44Z</time>
      </trkpt>
      <trkpt lat="44.44997" lon="1.78006">
        <ele>292.1</ele>
        <time>2022-04-10T13:50:45Z</time>
      </trkpt>
      <trkpt lat="44.45003" lon="1.78008">
        <ele>292.1</ele>
        <time>2022-04-10T13:50:46Z</time>
      </trkpt>
      <trkpt lat="44.45008" lon="1.7801">
        <ele>292</ele>
        <time>2022-04-10T13:50:47Z</time>
      </trkpt>
      <trkpt lat="44.45014" lon="1.78012">
        <ele>292</ele>
        <time>2022-04-10T13:50:48Z</time>
      </trkpt>
      <trkpt lat="44.4502" lon="1.78014">
        <ele>292.1</ele>
        <time>2022-04-10T13:50:49Z</time>
      </trkpt>
      <trkpt lat="44.45026" lon="1.78016">
        <ele>292.1</ele>
        <time>2022-04-10T13:50:50Z</time>
      </trkpt>
      <trkpt lat="44.45032" lon="1.78018">
        <ele>292.2</ele>
        <time>2022-04-10T13:50:51Z</time>
      </trkpt>
      <trkpt lat="44.45037" lon="1.7802">
        <ele>292.2</ele>
        <time>2022-04-10T13:50:52Z</time>
      </trkpt>
      <trkpt lat="44.45043" lon="1.78021">
        <ele>292.2</ele>
        <time>2022-04-10T13:50:53Z</time>
      </trkpt>
      <trkpt lat="44.45049" lon="1.78023">
        <ele>292.3</ele>
        <time>2022-04-10T13:50:54Z</time>
      </trkpt>
      <trkpt lat="44.45054" lon="1.78025">
        <ele>292.4</ele>
        <time>2022-04-10T13:50:55Z</time>
      </trkpt>
      <trkpt lat="44.4506" lon="1.78027">
        <ele>292.4</ele>
        <time>2022-04-10T13:50:56Z</time>
      </trkpt>
      <trkpt lat="44.45066" lon="1.78029">
        <ele>292.5</ele>
        <time>2022-04-10T13:50:57Z</time>
      </trkpt>
      <trkpt lat="44.45071" lon="1.7803">
        <ele>292.5</ele>
        <time>2022-04-10T13:50:58Z</time>
      </trkpt>
      <trkpt lat="44.45076" lon="1.78032">
        <ele>292.6</ele>
        <time>2022-04-10T13:50:59Z</time>
      </trkpt>
      <trkpt lat="44.45082" lon="1.78034">
        <ele>292.7</ele>
        <time>2022-04-10T13:51:00Z</time>
      </trkpt>
      <trkpt lat="44.45087" lon="1.78036">
        <ele>292.8</ele>
        <time>2022-04-10T13:51:01Z</time>
      </trkpt>
      <trkpt lat="44.45092" lon="1.78036">
        <ele>292.8</ele>
        <time>2022-04-10T13:51:02Z</time>
      </trkpt>
      <trkpt lat="44.45097" lon="1.78037">
        <ele>292.9</ele>
        <time>2022-04-10T13:51:03Z</time>
      </trkpt>
      <trkpt lat="44.45102" lon="1.78037">
        <ele>293</ele>
        <time>2022-04-10T13:51:04Z</time>
      </trkpt>
      <trkpt lat="44.45106" lon="1.78036">
        <ele>293.1</ele>
        <time>2022-04-10T13:51:05Z</time>
      </trkpt>
      <trkpt lat="44.45111" lon="1.78035">
        <ele>293.2</ele>
        <time>2022-04-10T13:51:06Z</time>
      </trkpt>
      <trkpt lat="44.45114" lon="1.78035">
        <ele>293.3</ele>
        <time>2022-04-10T13:51:07Z</time>
      </trkpt>
      <trkpt lat="44.45118" lon="1.78036">
        <ele>293.4</ele>
        <time>2022-04-10T13:51:08Z</time>
      </trkpt>
      <trkpt lat="44.45124" lon="1.78037">
        <ele>293.5</ele>
        <time>2022-04-10T13:51:09Z</time>
      </trkpt>
      <trkpt lat="44.4513" lon="1.78038">
        <ele>293.6</ele>
        <time>2022-04-10T13:51:10Z</time>
      </trkpt>
      <trkpt lat="44.45136" lon="1.7804">
        <ele>293.6</ele>
        <time>2022-04-10T13:51:11Z</time>
      </trkpt>
      <trkpt lat="44.45141" lon="1.78041">
        <ele>293.6</ele>
        <time>2022-04-10T13:51:12Z</time>
      </trkpt>
      <trkpt lat="44.45147" lon="1.78042">
        <ele>293.5</ele>
        <time>2022-04-10T13:51:13Z</time>
      </trkpt>
      <trkpt lat="44.45153" lon="1.78043">
        <ele>293.4</ele>
        <time>2022-04-10T13:51:14Z</time>
      </trkpt>
      <trkpt lat="44.45159" lon="1.78045">
        <ele>293.3</ele>
        <time>2022-04-10T13:51:15Z</time>
      </trkpt>
      <trkpt lat="44.45165" lon="1.78046">
        <ele>293.3</ele>
        <time>2022-04-10T13:51:16Z</time>
      </trkpt>
      <trkpt lat="44.45171" lon="1.78048">
        <ele>293.3</ele>
        <time>2022-04-10T13:51:17Z</time>
      </trkpt>
      <trkpt lat="44.45176" lon="1.78048">
        <ele>293.2</ele>
        <time>2022-04-10T13:51:18Z</time>
      </trkpt>
      <trkpt lat="44.45182" lon="1.78048">
        <ele>293.2</ele>
        <time>2022-04-10T13:51:19Z</time>
      </trkpt>
      <trkpt lat="44.45188" lon="1.78047">
        <ele>293.2</ele>
        <time>2022-04-10T13:51:20Z</time>
      </trkpt>
      <trkpt lat="44.45194" lon="1.78047">
        <ele>293.1</ele>
        <time>2022-04-10T13:51:21Z</time>
      </trkpt>
      <trkpt lat="44.452" lon="1.78047">
        <ele>293</ele>
        <time>2022-04-10T13:51:22Z</time>
      </trkpt>
      <trkpt lat="44.45206" lon="1.78046">
        <ele>293</ele>
        <time>2022-04-10T13:51:23Z</time>
      </trkpt>
      <trkpt lat="44.45212" lon="1.78045">
        <ele>292.9</ele>
        <time>2022-04-10T13:51:24Z</time>
      </trkpt>
      <trkpt lat="44.45218" lon="1.78044">
        <ele>292.8</ele>
        <time>2022-04-10T13:51:25Z</time>
      </trkpt>
      <trkpt lat="44.45224" lon="1.78044">
        <ele>292.8</ele>
        <time>2022-04-10T13:51:26Z</time>
      </trkpt>
      <trkpt lat="44.4523" lon="1.78043">
        <ele>292.8</ele>
        <time>2022-04-10T13:51:27Z</time>
      </trkpt>
      <trkpt lat="44.45235" lon="1.78043">
        <ele>292.8</ele>
        <time>2022-04-10T13:51:28Z</time>
      </trkpt>
      <trkpt lat="44.45241" lon="1.78044">
        <ele>292.9</ele>
        <time>2022-04-10T13:51:29Z</time>
      </trkpt>
      <trkpt lat="44.45247" lon="1.78045">
        <ele>293.1</ele>
        <time>2022-04-10T13:51:30Z</time>
      </trkpt>
      <trkpt lat="44.45252" lon="1.78046">
        <ele>293.3</ele>
        <time>2022-04-10T13:51:31Z</time>
      </trkpt>
      <trkpt lat="44.45255" lon="1.78046">
        <ele>293.4</ele>
        <time>2022-04-10T13:51:32Z</time>
      </trkpt>
      <trkpt lat="44.45261" lon="1.78047">
        <ele>293.7</ele>
        <time>2022-04-10T13:51:33Z</time>
      </trkpt>
      <trkpt lat="44.45267" lon="1.78048">
        <ele>294</ele>
        <time>2022-04-10T13:51:34Z</time>
      </trkpt>
      <trkpt lat="44.45272" lon="1.78049">
        <ele>294.3</ele>
        <time>2022-04-10T13:51:35Z</time>
      </trkpt>
      <trkpt lat="44.45277" lon="1.7805">
        <ele>294.7</ele>
        <time>2022-04-10T13:51:36Z</time>
      </trkpt>
      <trkpt lat="44.45282" lon="1.78051">
        <ele>295</ele>
        <time>2022-04-10T13:51:37Z</time>
      </trkpt>
      <trkpt lat="44.45287" lon="1.78052">
        <ele>295.4</ele>
        <time>2022-04-10T13:51:38Z</time>
      </trkpt>
      <trkpt lat="44.45292" lon="1.78052">
        <ele>295.8</ele>
        <time>2022-04-10T13:51:39Z</time>
      </trkpt>
      <trkpt lat="44.45297" lon="1.78053">
        <ele>296.1</ele>
        <time>2022-04-10T13:51:40Z</time>
      </trkpt>
      <trkpt lat="44.45301" lon="1.78053">
        <ele>296.4</ele>
        <time>2022-04-10T13:51:41Z</time>
      </trkpt>
      <trkpt lat="44.45304" lon="1.78053">
        <ele>296.6</ele>
        <time>2022-04-10T13:51:42Z</time>
      </trkpt>
      <trkpt lat="44.45308" lon="1.78053">
        <ele>296.9</ele>
        <time>2022-04-10T13:51:43Z</time>
      </trkpt>
      <trkpt lat="44.45313" lon="1.78054">
        <ele>297.2</ele>
        <time>2022-04-10T13:51:44Z</time>
      </trkpt>
      <trkpt lat="44.45316" lon="1.78058">
        <ele>297.4</ele>
        <time>2022-04-10T13:51:46Z</time>
      </trkpt>
      <trkpt lat="44.45325" lon="1.78057">
        <ele>297.9</ele>
        <time>2022-04-10T13:51:47Z</time>
      </trkpt>
      <trkpt lat="44.4533" lon="1.78057">
        <ele>298.3</ele>
        <time>2022-04-10T13:51:48Z</time>
      </trkpt>
      <trkpt lat="44.45335" lon="1.78057">
        <ele>298.5</ele>
        <time>2022-04-10T13:51:49Z</time>
      </trkpt>
      <trkpt lat="44.45339" lon="1.78058">
        <ele>298.8</ele>
        <time>2022-04-10T13:51:50Z</time>
      </trkpt>
      <trkpt lat="44.45342" lon="1.78058">
        <ele>299</ele>
        <time>2022-04-10T13:51:51Z</time>
      </trkpt>
      <trkpt lat="44.45346" lon="1.78057">
        <ele>299.1</ele>
        <time>2022-04-10T13:51:52Z</time>
      </trkpt>
      <trkpt lat="44.45351" lon="1.78056">
        <ele>299.3</ele>
        <time>2022-04-10T13:51:53Z</time>
      </trkpt>
      <trkpt lat="44.45355" lon="1.78055">
        <ele>299.5</ele>
        <time>2022-04-10T13:51:54Z</time>
      </trkpt>
      <trkpt lat="44.45359" lon="1.78055">
        <ele>299.7</ele>
        <time>2022-04-10T13:51:55Z</time>
      </trkpt>
      <trkpt lat="44.45363" lon="1.78053">
        <ele>299.9</ele>
        <time>2022-04-10T13:51:56Z</time>
      </trkpt>
      <trkpt lat="44.45367" lon="1.78052">
        <ele>300.1</ele>
        <time>2022-04-10T13:51:57Z</time>
      </trkpt>
      <trkpt lat="44.4537" lon="1.78051">
        <ele>300.3</ele>
        <time>2022-04-10T13:51:58Z</time>
      </trkpt>
      <trkpt lat="44.45373" lon="1.78049">
        <ele>300.5</ele>
        <time>2022-04-10T13:51:59Z</time>
      </trkpt>
      <trkpt lat="44.45377" lon="1.78047">
        <ele>300.8</ele>
        <time>2022-04-10T13:52:00Z</time>
      </trkpt>
      <trkpt lat="44.45383" lon="1.78044">
        <ele>301.2</ele>
        <time>2022-04-10T13:52:02Z</time>
      </trkpt>
      <trkpt lat="44.45386" lon="1.78042">
        <ele>301.5</ele>
        <time>2022-04-10T13:52:03Z</time>
      </trkpt>
      <trkpt lat="44.45387" lon="1.78041">
        <ele>301.5</ele>
        <time>2022-04-10T13:52:04Z</time>
      </trkpt>
      <trkpt lat="44.4539" lon="1.78039">
        <ele>301.7</ele>
        <time>2022-04-10T13:52:05Z</time>
      </trkpt>
      <trkpt lat="44.45391" lon="1.78038">
        <ele>301.7</ele>
        <time>2022-04-10T13:52:06Z</time>
      </trkpt>
      <trkpt lat="44.45393" lon="1.78037">
        <ele>301.9</ele>
        <time>2022-04-10T13:52:07Z</time>
      </trkpt>
      <trkpt lat="44.45394" lon="1.78037">
        <ele>301.9</ele>
        <time>2022-04-10T13:52:08Z</time>
      </trkpt>
      <trkpt lat="44.45398" lon="1.78036">
        <ele>302.1</ele>
        <time>2022-04-10T13:52:09Z</time>
      </trkpt>
      <trkpt lat="44.45401" lon="1.78035">
        <ele>302.2</ele>
        <time>2022-04-10T13:52:10Z</time>
      </trkpt>
      <trkpt lat="44.45402" lon="1.78035">
        <ele>302.3</ele>
        <time>2022-04-10T13:52:11Z</time>
      </trkpt>
      <trkpt lat="44.45405" lon="1.78035">
        <ele>302.4</ele>
        <time>2022-04-10T13:52:12Z</time>
      </trkpt>
      <trkpt lat="44.45408" lon="1.78034">
        <ele>302.5</ele>
        <time>2022-04-10T13:52:13Z</time>
      </trkpt>
      <trkpt lat="44.45411" lon="1.78034">
        <ele>302.7</ele>
        <time>2022-04-10T13:52:14Z</time>
      </trkpt>
      <trkpt lat="44.45413" lon="1.78032">
        <ele>302.8</ele>
        <time>2022-04-10T13:52:15Z</time>
      </trkpt>
      <trkpt lat="44.45416" lon="1.78035">
        <ele>302.9</ele>
        <time>2022-04-10T13:52:16Z</time>
      </trkpt>
      <trkpt lat="44.45417" lon="1.78036">
        <ele>303.5</ele>
        <time>2022-04-10T13:52:17Z</time>
      </trkpt>
      <trkpt lat="44.45421" lon="1.7804">
        <ele>303.1</ele>
        <time>2022-04-10T13:52:19Z</time>
      </trkpt>
      <trkpt lat="44.45426" lon="1.78043">
        <ele>302.7</ele>
        <time>2022-04-10T13:52:20Z</time>
      </trkpt>
      <trkpt lat="44.4543" lon="1.78046">
        <ele>302.3</ele>
        <time>2022-04-10T13:52:21Z</time>
      </trkpt>
      <trkpt lat="44.45434" lon="1.7805">
        <ele>301.9</ele>
        <time>2022-04-10T13:52:22Z</time>
      </trkpt>
      <trkpt lat="44.45438" lon="1.78053">
        <ele>301.6</ele>
        <time>2022-04-10T13:52:23Z</time>
      </trkpt>
      <trkpt lat="44.45442" lon="1.78056">
        <ele>301.2</ele>
        <time>2022-04-10T13:52:24Z</time>
      </trkpt>
      <trkpt lat="44.45446" lon="1.78059">
        <ele>300.9</ele>
        <time>2022-04-10T13:52:25Z</time>
      </trkpt>
      <trkpt lat="44.45454" lon="1.78065">
        <ele>300.2</ele>
        <time>2022-04-10T13:52:27Z</time>
      </trkpt>
      <trkpt lat="44.45461" lon="1.78069">
        <ele>299.7</ele>
        <time>2022-04-10T13:52:28Z</time>
      </trkpt>
      <trkpt lat="44.45465" lon="1.7807">
        <ele>299.4</ele>
        <time>2022-04-10T13:52:30Z</time>
      </trkpt>
      <trkpt lat="44.45471" lon="1.78074">
        <ele>299</ele>
        <time>2022-04-10T13:52:31Z</time>
      </trkpt>
      <trkpt lat="44.45478" lon="1.78082">
        <ele>298.6</ele>
        <time>2022-04-10T13:52:33Z</time>
      </trkpt>
      <trkpt lat="44.45483" lon="1.78088">
        <ele>298.4</ele>
        <time>2022-04-10T13:52:34Z</time>
      </trkpt>
      <trkpt lat="44.45487" lon="1.78092">
        <ele>298.2</ele>
        <time>2022-04-10T13:52:36Z</time>
      </trkpt>
      <trkpt lat="44.45491" lon="1.78098">
        <ele>298</ele>
        <time>2022-04-10T13:52:37Z</time>
      </trkpt>
      <trkpt lat="44.45493" lon="1.78102">
        <ele>297.9</ele>
        <time>2022-04-10T13:52:38Z</time>
      </trkpt>
      <trkpt lat="44.45496" lon="1.78106">
        <ele>297.9</ele>
        <time>2022-04-10T13:52:39Z</time>
      </trkpt>
      <trkpt lat="44.455" lon="1.7811">
        <ele>297.8</ele>
        <time>2022-04-10T13:52:40Z</time>
      </trkpt>
      <trkpt lat="44.45502" lon="1.78114">
        <ele>297.8</ele>
        <time>2022-04-10T13:52:41Z</time>
      </trkpt>
      <trkpt lat="44.45506" lon="1.78118">
        <ele>297.8</ele>
        <time>2022-04-10T13:52:43Z</time>
      </trkpt>
      <trkpt lat="44.45511" lon="1.78125">
        <ele>297.9</ele>
        <time>2022-04-10T13:52:44Z</time>
      </trkpt>
      <trkpt lat="44.45515" lon="1.78129">
        <ele>297.9</ele>
        <time>2022-04-10T13:52:45Z</time>
      </trkpt>
      <trkpt lat="44.45518" lon="1.78133">
        <ele>298</ele>
        <time>2022-04-10T13:52:46Z</time>
      </trkpt>
      <trkpt lat="44.45522" lon="1.78137">
        <ele>298</ele>
        <time>2022-04-10T13:52:47Z</time>
      </trkpt>
      <trkpt lat="44.45526" lon="1.7814">
        <ele>298</ele>
        <time>2022-04-10T13:52:48Z</time>
      </trkpt>
      <trkpt lat="44.4553" lon="1.78141">
        <ele>298</ele>
        <time>2022-04-10T13:52:50Z</time>
      </trkpt>
      <trkpt lat="44.45537" lon="1.78142">
        <ele>298</ele>
        <time>2022-04-10T13:52:51Z</time>
      </trkpt>
      <trkpt lat="44.45541" lon="1.78143">
        <ele>297.9</ele>
        <time>2022-04-10T13:52:52Z</time>
      </trkpt>
      <trkpt lat="44.45546" lon="1.78143">
        <ele>297.8</ele>
        <time>2022-04-10T13:52:53Z</time>
      </trkpt>
      <trkpt lat="44.45549" lon="1.78144">
        <ele>297.8</ele>
        <time>2022-04-10T13:52:54Z</time>
      </trkpt>
      <trkpt lat="44.45556" lon="1.78146">
        <ele>297.6</ele>
        <time>2022-04-10T13:52:56Z</time>
      </trkpt>
      <trkpt lat="44.45562" lon="1.78147">
        <ele>297.5</ele>
        <time>2022-04-10T13:52:57Z</time>
      </trkpt>
      <trkpt lat="44.45566" lon="1.78149">
        <ele>297.4</ele>
        <time>2022-04-10T13:52:58Z</time>
      </trkpt>
      <trkpt lat="44.45572" lon="1.78151">
        <ele>297.2</ele>
        <time>2022-04-10T13:53:00Z</time>
      </trkpt>
      <trkpt lat="44.45577" lon="1.78152">
        <ele>297.1</ele>
        <time>2022-04-10T13:53:01Z</time>
      </trkpt>
      <trkpt lat="44.45583" lon="1.78153">
        <ele>297</ele>
        <time>2022-04-10T13:53:02Z</time>
      </trkpt>
      <trkpt lat="44.45587" lon="1.78152">
        <ele>296.9</ele>
        <time>2022-04-10T13:53:03Z</time>
      </trkpt>
      <trkpt lat="44.45594" lon="1.78153">
        <ele>296.7</ele>
        <time>2022-04-10T13:53:05Z</time>
      </trkpt>
      <trkpt lat="44.45598" lon="1.78152">
        <ele>296.5</ele>
        <time>2022-04-10T13:53:06Z</time>
      </trkpt>
      <trkpt lat="44.45604" lon="1.78151">
        <ele>296.3</ele>
        <time>2022-04-10T13:53:07Z</time>
      </trkpt>
      <trkpt lat="44.45608" lon="1.78152">
        <ele>296.2</ele>
        <time>2022-04-10T13:53:08Z</time>
      </trkpt>
      <trkpt lat="44.45613" lon="1.78154">
        <ele>296</ele>
        <time>2022-04-10T13:53:10Z</time>
      </trkpt>
      <trkpt lat="44.45617" lon="1.78154">
        <ele>295.8</ele>
        <time>2022-04-10T13:53:11Z</time>
      </trkpt>
      <trkpt lat="44.45623" lon="1.78154">
        <ele>295.6</ele>
        <time>2022-04-10T13:53:12Z</time>
      </trkpt>
      <trkpt lat="44.45627" lon="1.78156">
        <ele>295.5</ele>
        <time>2022-04-10T13:53:13Z</time>
      </trkpt>
      <trkpt lat="44.45631" lon="1.78156">
        <ele>295.5</ele>
        <time>2022-04-10T13:53:14Z</time>
      </trkpt>
      <trkpt lat="44.45634" lon="1.78156">
        <ele>295.5</ele>
        <time>2022-04-10T13:53:15Z</time>
      </trkpt>
      <trkpt lat="44.45638" lon="1.78157">
        <ele>295.5</ele>
        <time>2022-04-10T13:53:16Z</time>
      </trkpt>
      <trkpt lat="44.45642" lon="1.78158">
        <ele>295.5</ele>
        <time>2022-04-10T13:53:17Z</time>
      </trkpt>
      <trkpt lat="44.45645" lon="1.78158">
        <ele>295.5</ele>
        <time>2022-04-10T13:53:18Z</time>
      </trkpt>
      <trkpt lat="44.4565" lon="1.78159">
        <ele>295.5</ele>
        <time>2022-04-10T13:53:19Z</time>
      </trkpt>
      <trkpt lat="44.45654" lon="1.78159">
        <ele>295.5</ele>
        <time>2022-04-10T13:53:20Z</time>
      </trkpt>
      <trkpt lat="44.45657" lon="1.78159">
        <ele>295.5</ele>
        <time>2022-04-10T13:53:21Z</time>
      </trkpt>
      <trkpt lat="44.45661" lon="1.78159">
        <ele>295.4</ele>
        <time>2022-04-10T13:53:22Z</time>
      </trkpt>
      <trkpt lat="44.45665" lon="1.78158">
        <ele>295.3</ele>
        <time>2022-04-10T13:53:23Z</time>
      </trkpt>
      <trkpt lat="44.45668" lon="1.78158">
        <ele>295.3</ele>
        <time>2022-04-10T13:53:24Z</time>
      </trkpt>
      <trkpt lat="44.45673" lon="1.78159">
        <ele>295.1</ele>
        <time>2022-04-10T13:53:25Z</time>
      </trkpt>
      <trkpt lat="44.45678" lon="1.78161">
        <ele>295.1</ele>
        <time>2022-04-10T13:53:26Z</time>
      </trkpt>
      <trkpt lat="44.45683" lon="1.78161">
        <ele>295</ele>
        <time>2022-04-10T13:53:27Z</time>
      </trkpt>
      <trkpt lat="44.45687" lon="1.78162">
        <ele>294.9</ele>
        <time>2022-04-10T13:53:28Z</time>
      </trkpt>
      <trkpt lat="44.45691" lon="1.78162">
        <ele>294.8</ele>
        <time>2022-04-10T13:53:29Z</time>
      </trkpt>
      <trkpt lat="44.45695" lon="1.78162">
        <ele>294.7</ele>
        <time>2022-04-10T13:53:30Z</time>
      </trkpt>
      <trkpt lat="44.45699" lon="1.78162">
        <ele>294.6</ele>
        <time>2022-04-10T13:53:31Z</time>
      </trkpt>
      <trkpt lat="44.45703" lon="1.78162">
        <ele>294.4</ele>
        <time>2022-04-10T13:53:32Z</time>
      </trkpt>
      <trkpt lat="44.45711" lon="1.78163">
        <ele>294</ele>
        <time>2022-04-10T13:53:33Z</time>
      </trkpt>
      <trkpt lat="44.45718" lon="1.78163">
        <ele>293.5</ele>
        <time>2022-04-10T13:53:34Z</time>
      </trkpt>
      <trkpt lat="44.45725" lon="1.78164">
        <ele>293</ele>
        <time>2022-04-10T13:53:35Z</time>
      </trkpt>
      <trkpt lat="44.45732" lon="1.78165">
        <ele>292.3</ele>
        <time>2022-04-10T13:53:36Z</time>
      </trkpt>
      <trkpt lat="44.45738" lon="1.78166">
        <ele>291.5</ele>
        <time>2022-04-10T13:53:37Z</time>
      </trkpt>
      <trkpt lat="44.45744" lon="1.78166">
        <ele>290.8</ele>
        <time>2022-04-10T13:53:38Z</time>
      </trkpt>
      <trkpt lat="44.45748" lon="1.78167">
        <ele>290.2</ele>
        <time>2022-04-10T13:53:39Z</time>
      </trkpt>
      <trkpt lat="44.45754" lon="1.78168">
        <ele>289.5</ele>
        <time>2022-04-10T13:53:41Z</time>
      </trkpt>
      <trkpt lat="44.45758" lon="1.78169">
        <ele>288.8</ele>
        <time>2022-04-10T13:53:42Z</time>
      </trkpt>
      <trkpt lat="44.45763" lon="1.78168">
        <ele>287.9</ele>
        <time>2022-04-10T13:53:43Z</time>
      </trkpt>
      <trkpt lat="44.45767" lon="1.78167">
        <ele>287.2</ele>
        <time>2022-04-10T13:53:44Z</time>
      </trkpt>
      <trkpt lat="44.45769" lon="1.78165">
        <ele>286.5</ele>
        <time>2022-04-10T13:53:45Z</time>
      </trkpt>
      <trkpt lat="44.45775" lon="1.78162">
        <ele>285.3</ele>
        <time>2022-04-10T13:53:47Z</time>
      </trkpt>
      <trkpt lat="44.45778" lon="1.78161">
        <ele>284.6</ele>
        <time>2022-04-10T13:53:48Z</time>
      </trkpt>
      <trkpt lat="44.45781" lon="1.78161">
        <ele>283.9</ele>
        <time>2022-04-10T13:53:50Z</time>
      </trkpt>
      <trkpt lat="44.45785" lon="1.78161">
        <ele>282.8</ele>
        <time>2022-04-10T13:53:51Z</time>
      </trkpt>
      <trkpt lat="44.45789" lon="1.7816">
        <ele>282</ele>
        <time>2022-04-10T13:53:52Z</time>
      </trkpt>
      <trkpt lat="44.4579" lon="1.7816">
        <ele>281.7</ele>
        <time>2022-04-10T13:53:53Z</time>
      </trkpt>
      <trkpt lat="44.45795" lon="1.7816">
        <ele>280.8</ele>
        <time>2022-04-10T13:53:55Z</time>
      </trkpt>
      <trkpt lat="44.45799" lon="1.78159">
        <ele>279.9</ele>
        <time>2022-04-10T13:53:56Z</time>
      </trkpt>
      <trkpt lat="44.45805" lon="1.78158">
        <ele>278.8</ele>
        <time>2022-04-10T13:53:57Z</time>
      </trkpt>
      <trkpt lat="44.45809" lon="1.78159">
        <ele>278</ele>
        <time>2022-04-10T13:53:58Z</time>
      </trkpt>
      <trkpt lat="44.45812" lon="1.78159">
        <ele>277.3</ele>
        <time>2022-04-10T13:53:59Z</time>
      </trkpt>
      <trkpt lat="44.45817" lon="1.78159">
        <ele>276.3</ele>
        <time>2022-04-10T13:54:00Z</time>
      </trkpt>
      <trkpt lat="44.45821" lon="1.78159">
        <ele>275.4</ele>
        <time>2022-04-10T13:54:01Z</time>
      </trkpt>
      <trkpt lat="44.45826" lon="1.78157">
        <ele>274.4</ele>
        <time>2022-04-10T13:54:02Z</time>
      </trkpt>
      <trkpt lat="44.45831" lon="1.78156">
        <ele>273.5</ele>
        <time>2022-04-10T13:54:03Z</time>
      </trkpt>
      <trkpt lat="44.45836" lon="1.78156">
        <ele>272.7</ele>
        <time>2022-04-10T13:54:04Z</time>
      </trkpt>
      <trkpt lat="44.45841" lon="1.78154">
        <ele>271.8</ele>
        <time>2022-04-10T13:54:06Z</time>
      </trkpt>
      <trkpt lat="44.45845" lon="1.78154">
        <ele>271.1</ele>
        <time>2022-04-10T13:54:07Z</time>
      </trkpt>
      <trkpt lat="44.45848" lon="1.78154">
        <ele>270.6</ele>
        <time>2022-04-10T13:54:08Z</time>
      </trkpt>
      <trkpt lat="44.45852" lon="1.78154">
        <ele>269.9</ele>
        <time>2022-04-10T13:54:09Z</time>
      </trkpt>
      <trkpt lat="44.45857" lon="1.78155">
        <ele>269.1</ele>
        <time>2022-04-10T13:54:10Z</time>
      </trkpt>
      <trkpt lat="44.45865" lon="1.78153">
        <ele>267.5</ele>
        <time>2022-04-10T13:54:12Z</time>
      </trkpt>
      <trkpt lat="44.45872" lon="1.78152">
        <ele>266.4</ele>
        <time>2022-04-10T13:54:13Z</time>
      </trkpt>
      <trkpt lat="44.45878" lon="1.78151">
        <ele>265.3</ele>
        <time>2022-04-10T13:54:14Z</time>
      </trkpt>
      <trkpt lat="44.45882" lon="1.78149">
        <ele>264.6</ele>
        <time>2022-04-10T13:54:15Z</time>
      </trkpt>
      <trkpt lat="44.45887" lon="1.78149">
        <ele>263.8</ele>
        <time>2022-04-10T13:54:16Z</time>
      </trkpt>
      <trkpt lat="44.45893" lon="1.78147">
        <ele>262.7</ele>
        <time>2022-04-10T13:54:17Z</time>
      </trkpt>
      <trkpt lat="44.45899" lon="1.78145">
        <ele>261.8</ele>
        <time>2022-04-10T13:54:18Z</time>
      </trkpt>
      <trkpt lat="44.45905" lon="1.78144">
        <ele>261</ele>
        <time>2022-04-10T13:54:19Z</time>
      </trkpt>
      <trkpt lat="44.4591" lon="1.78143">
        <ele>260.4</ele>
        <time>2022-04-10T13:54:20Z</time>
      </trkpt>
      <trkpt lat="44.45916" lon="1.78142">
        <ele>259.8</ele>
        <time>2022-04-10T13:54:21Z</time>
      </trkpt>
      <trkpt lat="44.45921" lon="1.78142">
        <ele>259.1</ele>
        <time>2022-04-10T13:54:22Z</time>
      </trkpt>
      <trkpt lat="44.45927" lon="1.7814">
        <ele>258.2</ele>
        <time>2022-04-10T13:54:23Z</time>
      </trkpt>
      <trkpt lat="44.45932" lon="1.78139">
        <ele>257.4</ele>
        <time>2022-04-10T13:54:24Z</time>
      </trkpt>
      <trkpt lat="44.45936" lon="1.78137">
        <ele>256.8</ele>
        <time>2022-04-10T13:54:25Z</time>
      </trkpt>
      <trkpt lat="44.45939" lon="1.78137">
        <ele>256.3</ele>
        <time>2022-04-10T13:54:26Z</time>
      </trkpt>
      <trkpt lat="44.45943" lon="1.78135">
        <ele>255.8</ele>
        <time>2022-04-10T13:54:27Z</time>
      </trkpt>
      <trkpt lat="44.45948" lon="1.78134">
        <ele>255</ele>
        <time>2022-04-10T13:54:28Z</time>
      </trkpt>
      <trkpt lat="44.45952" lon="1.78134">
        <ele>254.3</ele>
        <time>2022-04-10T13:54:29Z</time>
      </trkpt>
      <trkpt lat="44.45955" lon="1.78135">
        <ele>253.6</ele>
        <time>2022-04-10T13:54:30Z</time>
      </trkpt>
      <trkpt lat="44.45958" lon="1.78135">
        <ele>253</ele>
        <time>2022-04-10T13:54:31Z</time>
      </trkpt>
      <trkpt lat="44.45959" lon="1.78135">
        <ele>252.8</ele>
        <time>2022-04-10T13:54:32Z</time>
      </trkpt>
      <trkpt lat="44.45963" lon="1.78134">
        <ele>251.2</ele>
        <time>2022-04-10T13:54:33Z</time>
      </trkpt>
      <trkpt lat="44.45965" lon="1.78133">
        <ele>250.6</ele>
        <time>2022-04-10T13:54:34Z</time>
      </trkpt>
      <trkpt lat="44.45968" lon="1.7813">
        <ele>249.1</ele>
        <time>2022-04-10T13:54:35Z</time>
      </trkpt>
      <trkpt lat="44.45971" lon="1.78127">
        <ele>247.5</ele>
        <time>2022-04-10T13:54:36Z</time>
      </trkpt>
      <trkpt lat="44.45976" lon="1.78123">
        <ele>245.6</ele>
        <time>2022-04-10T13:54:37Z</time>
      </trkpt>
      <trkpt lat="44.45981" lon="1.78118">
        <ele>243.3</ele>
        <time>2022-04-10T13:54:38Z</time>
      </trkpt>
      <trkpt lat="44.45987" lon="1.78113">
        <ele>241</ele>
        <time>2022-04-10T13:54:39Z</time>
      </trkpt>
      <trkpt lat="44.45993" lon="1.78106">
        <ele>238.6</ele>
        <time>2022-04-10T13:54:40Z</time>
      </trkpt>
      <trkpt lat="44.45999" lon="1.78097">
        <ele>236.1</ele>
        <time>2022-04-10T13:54:41Z</time>
      </trkpt>
      <trkpt lat="44.46007" lon="1.78087">
        <ele>233.2</ele>
        <time>2022-04-10T13:54:42Z</time>
      </trkpt>
      <trkpt lat="44.46016" lon="1.78076">
        <ele>230.4</ele>
        <time>2022-04-10T13:54:43Z</time>
      </trkpt>
      <trkpt lat="44.46024" lon="1.78067">
        <ele>227.8</ele>
        <time>2022-04-10T13:54:44Z</time>
      </trkpt>
      <trkpt lat="44.46032" lon="1.78057">
        <ele>225</ele>
        <time>2022-04-10T13:54:45Z</time>
      </trkpt>
      <trkpt lat="44.46042" lon="1.7805">
        <ele>222.2</ele>
        <time>2022-04-10T13:54:46Z</time>
      </trkpt>
      <trkpt lat="44.46051" lon="1.78043">
        <ele>219.6</ele>
        <time>2022-04-10T13:54:47Z</time>
      </trkpt>
      <trkpt lat="44.4606" lon="1.78037">
        <ele>217.1</ele>
        <time>2022-04-10T13:54:48Z</time>
      </trkpt>
      <trkpt lat="44.4607" lon="1.78031">
        <ele>214.6</ele>
        <time>2022-04-10T13:54:49Z</time>
      </trkpt>
      <trkpt lat="44.46081" lon="1.78025">
        <ele>213.6</ele>
        <time>2022-04-10T13:54:50Z</time>
      </trkpt>
      <trkpt lat="44.4609" lon="1.78017">
        <ele>212.7</ele>
        <time>2022-04-10T13:54:51Z</time>
      </trkpt>
      <trkpt lat="44.46099" lon="1.78007">
        <ele>211.8</ele>
        <time>2022-04-10T13:54:52Z</time>
      </trkpt>
      <trkpt lat="44.46108" lon="1.77997">
        <ele>210.8</ele>
        <time>2022-04-10T13:54:53Z</time>
      </trkpt>
      <trkpt lat="44.46117" lon="1.77988">
        <ele>209.9</ele>
        <time>2022-04-10T13:54:54Z</time>
      </trkpt>
      <trkpt lat="44.46127" lon="1.77981">
        <ele>208.9</ele>
        <time>2022-04-10T13:54:55Z</time>
      </trkpt>
      <trkpt lat="44.46138" lon="1.77975">
        <ele>208</ele>
        <time>2022-04-10T13:54:56Z</time>
      </trkpt>
      <trkpt lat="44.46149" lon="1.77971">
        <ele>207.1</ele>
        <time>2022-04-10T13:54:57Z</time>
      </trkpt>
      <trkpt lat="44.46161" lon="1.77967">
        <ele>206.3</ele>
        <time>2022-04-10T13:54:58Z</time>
      </trkpt>
      <trkpt lat="44.46172" lon="1.77963">
        <ele>205.4</ele>
        <time>2022-04-10T13:54:59Z</time>
      </trkpt>
      <trkpt lat="44.46183" lon="1.7796">
        <ele>204.5</ele>
        <time>2022-04-10T13:55:00Z</time>
      </trkpt>
      <trkpt lat="44.46195" lon="1.77957">
        <ele>203.5</ele>
        <time>2022-04-10T13:55:01Z</time>
      </trkpt>
      <trkpt lat="44.46207" lon="1.77954">
        <ele>202.4</ele>
        <time>2022-04-10T13:55:02Z</time>
      </trkpt>
      <trkpt lat="44.46219" lon="1.77951">
        <ele>201.3</ele>
        <time>2022-04-10T13:55:03Z</time>
      </trkpt>
      <trkpt lat="44.46229" lon="1.77948">
        <ele>200.4</ele>
        <time>2022-04-10T13:55:04Z</time>
      </trkpt>
      <trkpt lat="44.46238" lon="1.77946">
        <ele>199.5</ele>
        <time>2022-04-10T13:55:05Z</time>
      </trkpt>
      <trkpt lat="44.46246" lon="1.77943">
        <ele>198.8</ele>
        <time>2022-04-10T13:55:06Z</time>
      </trkpt>
      <trkpt lat="44.46253" lon="1.77939">
        <ele>198.1</ele>
        <time>2022-04-10T13:55:07Z</time>
      </trkpt>
      <trkpt lat="44.46259" lon="1.77936">
        <ele>197.4</ele>
        <time>2022-04-10T13:55:08Z</time>
      </trkpt>
      <trkpt lat="44.46265" lon="1.77932">
        <ele>196.7</ele>
        <time>2022-04-10T13:55:09Z</time>
      </trkpt>
      <trkpt lat="44.4627" lon="1.77928">
        <ele>196.1</ele>
        <time>2022-04-10T13:55:10Z</time>
      </trkpt>
      <trkpt lat="44.46276" lon="1.77925">
        <ele>195.4</ele>
        <time>2022-04-10T13:55:11Z</time>
      </trkpt>
      <trkpt lat="44.46281" lon="1.77922">
        <ele>194.9</ele>
        <time>2022-04-10T13:55:12Z</time>
      </trkpt>
      <trkpt lat="44.46285" lon="1.7792">
        <ele>194.4</ele>
        <time>2022-04-10T13:55:13Z</time>
      </trkpt>
      <trkpt lat="44.46289" lon="1.77919">
        <ele>194</ele>
        <time>2022-04-10T13:55:14Z</time>
      </trkpt>
      <trkpt lat="44.46292" lon="1.77919">
        <ele>193.7</ele>
        <time>2022-04-10T13:55:15Z</time>
      </trkpt>
      <trkpt lat="44.46298" lon="1.77919">
        <ele>193.1</ele>
        <time>2022-04-10T13:55:16Z</time>
      </trkpt>
      <trkpt lat="44.46304" lon="1.77919">
        <ele>192.5</ele>
        <time>2022-04-10T13:55:17Z</time>
      </trkpt>
      <trkpt lat="44.4631" lon="1.77919">
        <ele>191.9</ele>
        <time>2022-04-10T13:55:18Z</time>
      </trkpt>
      <trkpt lat="44.46316" lon="1.77918">
        <ele>191.3</ele>
        <time>2022-04-10T13:55:19Z</time>
      </trkpt>
      <trkpt lat="44.46322" lon="1.77917">
        <ele>190.8</ele>
        <time>2022-04-10T13:55:20Z</time>
      </trkpt>
      <trkpt lat="44.46327" lon="1.77916">
        <ele>190.4</ele>
        <time>2022-04-10T13:55:21Z</time>
      </trkpt>
      <trkpt lat="44.4633" lon="1.77916">
        <ele>190.2</ele>
        <time>2022-04-10T13:55:22Z</time>
      </trkpt>
      <trkpt lat="44.46331" lon="1.77916">
        <ele>190.2</ele>
        <time>2022-04-10T13:55:23Z</time>
      </trkpt>
      <trkpt lat="44.46331" lon="1.77916">
        <ele>190.1</ele>
        <time>2022-04-10T13:55:24Z</time>
      </trkpt>
      <trkpt lat="44.4633" lon="1.77916">
        <ele>190.1</ele>
        <time>2022-04-10T13:55:25Z</time>
      </trkpt>
      <trkpt lat="44.4633" lon="1.77916">
        <ele>190.1</ele>
        <time>2022-04-10T13:55:26Z</time>
      </trkpt>
      <trkpt lat="44.4633" lon="1.77916">
        <ele>190.1</ele>
        <time>2022-04-10T13:55:27Z</time>
      </trkpt>
      <trkpt lat="44.4633" lon="1.77916">
        <ele>190.1</ele>
        <time>2022-04-10T13:55:28Z</time>
      </trkpt>
      <trkpt lat="44.4633" lon="1.77916">
        <ele>190.1</ele>
        <time>2022-04-10T13:55:29Z</time>
      </trkpt>
      <trkpt lat="44.4633" lon="1.77916">
        <ele>190.1</ele>
        <time>2022-04-10T13:55:30Z</time>
      </trkpt>
      <trkpt lat="44.4633" lon="1.77916">
        <ele>190.1</ele>
        <time>2022-04-10T13:55:31Z</time>
      </trkpt>
      <trkpt lat="44.4633" lon="1.77916">
        <ele>190.1</ele>
        <time>2022-04-10T13:55:32Z</time>
      </trkpt>
      <trkpt lat="44.46334" lon="1.77911">
        <ele>189.7</ele>
        <time>2022-04-10T13:55:56Z</time>
      </trkpt>
      <trkpt lat="44.46337" lon="1.77909">
        <ele>189.6</ele>
        <time>2022-04-10T13:55:57Z</time>
      </trkpt>
      <trkpt lat="44.46339" lon="1.77907">
        <ele>189.4</ele>
        <time>2022-04-10T13:55:58Z</time>
      </trkpt>
      <trkpt lat="44.46341" lon="1.77903">
        <ele>189.2</ele>
        <time>2022-04-10T13:55:59Z</time>
      </trkpt>
      <trkpt lat="44.46341" lon="1.77902">
        <ele>189.2</ele>
        <time>2022-04-10T13:56:00Z</time>
      </trkpt>
      <trkpt lat="44.46342" lon="1.77902">
        <ele>189.2</ele>
        <time>2022-04-10T13:56:01Z</time>
      </trkpt>
      <trkpt lat="44.46342" lon="1.77902">
        <ele>189.1</ele>
        <time>2022-04-10T13:56:02Z</time>
      </trkpt>
      <trkpt lat="44.46342" lon="1.77901">
        <ele>188.9</ele>
        <time>2022-04-10T13:56:03Z</time>
      </trkpt>
      <trkpt lat="44.46342" lon="1.77901">
        <ele>188.9</ele>
        <time>2022-04-10T13:56:04Z</time>
      </trkpt>
      <trkpt lat="44.46342" lon="1.77901">
        <ele>188.9</ele>
        <time>2022-04-10T13:56:05Z</time>
      </trkpt>
      <trkpt lat="44.46342" lon="1.77901">
        <ele>188.9</ele>
        <time>2022-04-10T13:56:06Z</time>
      </trkpt>
      <trkpt lat="44.46342" lon="1.77901">
        <ele>188.9</ele>
        <time>2022-04-10T13:56:07Z</time>
      </trkpt>
      <trkpt lat="44.46342" lon="1.77901">
        <ele>188.9</ele>
        <time>2022-04-10T13:56:08Z</time>
      </trkpt>
      <trkpt lat="44.46342" lon="1.77901">
        <ele>188.9</ele>
        <time>2022-04-10T13:56:09Z</time>
      </trkpt>
      <trkpt lat="44.46342" lon="1.77901">
        <ele>188.9</ele>
        <time>2022-04-10T13:56:10Z</time>
      </trkpt>
      <trkpt lat="44.46346" lon="1.77899">
        <ele>187.5</ele>
        <time>2022-04-10T13:56:14Z</time>
      </trkpt>
      <trkpt lat="44.46349" lon="1.77896">
        <ele>186.4</ele>
        <time>2022-04-10T13:56:16Z</time>
      </trkpt>
      <trkpt lat="44.46351" lon="1.77893">
        <ele>185.4</ele>
        <time>2022-04-10T13:56:17Z</time>
      </trkpt>
      <trkpt lat="44.46357" lon="1.77883">
        <ele>182.1</ele>
        <time>2022-04-10T13:56:18Z</time>
      </trkpt>
      <trkpt lat="44.4636" lon="1.77876">
        <ele>181.1</ele>
        <time>2022-04-10T13:56:19Z</time>
      </trkpt>
      <trkpt lat="44.46363" lon="1.77871">
        <ele>180.7</ele>
        <time>2022-04-10T13:56:20Z</time>
      </trkpt>
      <trkpt lat="44.46365" lon="1.77866">
        <ele>180.2</ele>
        <time>2022-04-10T13:56:21Z</time>
      </trkpt>
      <trkpt lat="44.46368" lon="1.77864">
        <ele>179.8</ele>
        <time>2022-04-10T13:56:23Z</time>
      </trkpt>
      <trkpt lat="44.46372" lon="1.7786">
        <ele>179.1</ele>
        <time>2022-04-10T13:56:24Z</time>
      </trkpt>
      <trkpt lat="44.46375" lon="1.77856">
        <ele>178.4</ele>
        <time>2022-04-10T13:56:25Z</time>
      </trkpt>
      <trkpt lat="44.46379" lon="1.7785">
        <ele>177.7</ele>
        <time>2022-04-10T13:56:26Z</time>
      </trkpt>
      <trkpt lat="44.46384" lon="1.77838">
        <ele>176.5</ele>
        <time>2022-04-10T13:56:27Z</time>
      </trkpt>
      <trkpt lat="44.46388" lon="1.77831">
        <ele>175.7</ele>
        <time>2022-04-10T13:56:28Z</time>
      </trkpt>
      <trkpt lat="44.46391" lon="1.77824">
        <ele>175.1</ele>
        <time>2022-04-10T13:56:29Z</time>
      </trkpt>
      <trkpt lat="44.46393" lon="1.77818">
        <ele>174.5</ele>
        <time>2022-04-10T13:56:31Z</time>
      </trkpt>
      <trkpt lat="44.46397" lon="1.77814">
        <ele>171.9</ele>
        <time>2022-04-10T13:56:32Z</time>
      </trkpt>
      <trkpt lat="44.46399" lon="1.77814">
        <ele>171.2</ele>
        <time>2022-04-10T13:56:33Z</time>
      </trkpt>
      <trkpt lat="44.46398" lon="1.77815">
        <ele>170.9</ele>
        <time>2022-04-10T13:56:34Z</time>
      </trkpt>
      <trkpt lat="44.46398" lon="1.77813">
        <ele>170.6</ele>
        <time>2022-04-10T13:56:35Z</time>
      </trkpt>
      <trkpt lat="44.46397" lon="1.77812">
        <ele>170.2</ele>
        <time>2022-04-10T13:56:36Z</time>
      </trkpt>
      <trkpt lat="44.46396" lon="1.7781">
        <ele>169.8</ele>
        <time>2022-04-10T13:56:37Z</time>
      </trkpt>
      <trkpt lat="44.46394" lon="1.77807">
        <ele>168.9</ele>
        <time>2022-04-10T13:56:38Z</time>
      </trkpt>
      <trkpt lat="44.46387" lon="1.77801">
        <ele>166.7</ele>
        <time>2022-04-10T13:56:40Z</time>
      </trkpt>
      <trkpt lat="44.46381" lon="1.77798">
        <ele>165.4</ele>
        <time>2022-04-10T13:56:41Z</time>
      </trkpt>
      <trkpt lat="44.46373" lon="1.77794">
        <ele>163.8</ele>
        <time>2022-04-10T13:56:42Z</time>
      </trkpt>
      <trkpt lat="44.46366" lon="1.77792">
        <ele>162.5</ele>
        <time>2022-04-10T13:56:43Z</time>
      </trkpt>
      <trkpt lat="44.4636" lon="1.77791">
        <ele>161.4</ele>
        <time>2022-04-10T13:56:44Z</time>
      </trkpt>
      <trkpt lat="44.46355" lon="1.77788">
        <ele>160.5</ele>
        <time>2022-04-10T13:56:45Z</time>
      </trkpt>
      <trkpt lat="44.46352" lon="1.77782">
        <ele>159.6</ele>
        <time>2022-04-10T13:56:46Z</time>
      </trkpt>
      <trkpt lat="44.46349" lon="1.77773">
        <ele>158.4</ele>
        <time>2022-04-10T13:56:47Z</time>
      </trkpt>
      <trkpt lat="44.46348" lon="1.77763">
        <ele>156.9</ele>
        <time>2022-04-10T13:56:48Z</time>
      </trkpt>
      <trkpt lat="44.46349" lon="1.7775">
        <ele>155.4</ele>
        <time>2022-04-10T13:56:49Z</time>
      </trkpt>
      <trkpt lat="44.4635" lon="1.77738">
        <ele>154</ele>
        <time>2022-04-10T13:56:50Z</time>
      </trkpt>
      <trkpt lat="44.46351" lon="1.77725">
        <ele>152.7</ele>
        <time>2022-04-10T13:56:51Z</time>
      </trkpt>
      <trkpt lat="44.46353" lon="1.77712">
        <ele>151.3</ele>
        <time>2022-04-10T13:56:52Z</time>
      </trkpt>
      <trkpt lat="44.46355" lon="1.77698">
        <ele>149.9</ele>
        <time>2022-04-10T13:56:53Z</time>
      </trkpt>
      <trkpt lat="44.46357" lon="1.77685">
        <ele>148.5</ele>
        <time>2022-04-10T13:56:54Z</time>
      </trkpt>
      <trkpt lat="44.46359" lon="1.77671">
        <ele>147.5</ele>
        <time>2022-04-10T13:56:55Z</time>
      </trkpt>
      <trkpt lat="44.46361" lon="1.77658">
        <ele>146.8</ele>
        <time>2022-04-10T13:56:56Z</time>
      </trkpt>
      <trkpt lat="44.46363" lon="1.77644">
        <ele>146.2</ele>
        <time>2022-04-10T13:56:57Z</time>
      </trkpt>
      <trkpt lat="44.46364" lon="1.77632">
        <ele>145.8</ele>
        <time>2022-04-10T13:56:58Z</time>
      </trkpt>
      <trkpt lat="44.46366" lon="1.77619">
        <ele>145.3</ele>
        <time>2022-04-10T13:56:59Z</time>
      </trkpt>
      <trkpt lat="44.46367" lon="1.77606">
        <ele>144.9</ele>
        <time>2022-04-10T13:57:00Z</time>
      </trkpt>
      <trkpt lat="44.46369" lon="1.77595">
        <ele>144.6</ele>
        <time>2022-04-10T13:57:01Z</time>
      </trkpt>
      <trkpt lat="44.4637" lon="1.77588">
        <ele>144.3</ele>
        <time>2022-04-10T13:57:02Z</time>
      </trkpt>
      <trkpt lat="44.46371" lon="1.77584">
        <ele>144.2</ele>
        <time>2022-04-10T13:57:03Z</time>
      </trkpt>
      <trkpt lat="44.46372" lon="1.77581">
        <ele>144.1</ele>
        <time>2022-04-10T13:57:04Z</time>
      </trkpt>
      <trkpt lat="44.46374" lon="1.77581">
        <ele>144.1</ele>
        <time>2022-04-10T13:57:05Z</time>
      </trkpt>
      <trkpt lat="44.46376" lon="1.77583">
        <ele>144</ele>
        <time>2022-04-10T13:57:06Z</time>
      </trkpt>
      <trkpt lat="44.46377" lon="1.77584">
        <ele>143.9</ele>
        <time>2022-04-10T13:57:07Z</time>
      </trkpt>
      <trkpt lat="44.4638" lon="1.77585">
        <ele>143.9</ele>
        <time>2022-04-10T13:57:08Z</time>
      </trkpt>
      <trkpt lat="44.46381" lon="1.77586">
        <ele>143.9</ele>
        <time>2022-04-10T13:57:09Z</time>
      </trkpt>
      <trkpt lat="44.46381" lon="1.77585">
        <ele>143.9</ele>
        <time>2022-04-10T13:57:10Z</time>
      </trkpt>
      <trkpt lat="44.46384" lon="1.77585">
        <ele>143.9</ele>
        <time>2022-04-10T13:57:11Z</time>
      </trkpt>
      <trkpt lat="44.46387" lon="1.77588">
        <ele>143.8</ele>
        <time>2022-04-10T13:57:12Z</time>
      </trkpt>
      <trkpt lat="44.4639" lon="1.7759">
        <ele>143.8</ele>
        <time>2022-04-10T13:57:13Z</time>
      </trkpt>
      <trkpt lat="44.46394" lon="1.77592">
        <ele>143.8</ele>
        <time>2022-04-10T13:57:14Z</time>
      </trkpt>
      <trkpt lat="44.46397" lon="1.77593">
        <ele>143.8</ele>
        <time>2022-04-10T13:57:15Z</time>
      </trkpt>
      <trkpt lat="44.46401" lon="1.77594">
        <ele>143.8</ele>
        <time>2022-04-10T13:57:16Z</time>
      </trkpt>
      <trkpt lat="44.46402" lon="1.77594">
        <ele>143.8</ele>
        <time>2022-04-10T13:57:17Z</time>
      </trkpt>
      <trkpt lat="44.46407" lon="1.77596">
        <ele>143.8</ele>
        <time>2022-04-10T13:57:19Z</time>
      </trkpt>
      <trkpt lat="44.4641" lon="1.77598">
        <ele>143.8</ele>
        <time>2022-04-10T13:57:20Z</time>
      </trkpt>
      <trkpt lat="44.46416" lon="1.776">
        <ele>143.8</ele>
        <time>2022-04-10T13:57:21Z</time>
      </trkpt>
      <trkpt lat="44.46419" lon="1.77601">
        <ele>143.8</ele>
        <time>2022-04-10T13:57:22Z</time>
      </trkpt>
      <trkpt lat="44.46423" lon="1.77603">
        <ele>143.8</ele>
        <time>2022-04-10T13:57:23Z</time>
      </trkpt>
      <trkpt lat="44.4643" lon="1.77604">
        <ele>143.8</ele>
        <time>2022-04-10T13:57:25Z</time>
      </trkpt>
      <trkpt lat="44.46435" lon="1.77605">
        <ele>143.8</ele>
        <time>2022-04-10T13:57:26Z</time>
      </trkpt>
      <trkpt lat="44.4644" lon="1.77606">
        <ele>143.8</ele>
        <time>2022-04-10T13:57:27Z</time>
      </trkpt>
      <trkpt lat="44.46444" lon="1.77606">
        <ele>143.8</ele>
        <time>2022-04-10T13:57:28Z</time>
      </trkpt>
      <trkpt lat="44.46448" lon="1.77606">
        <ele>143.8</ele>
        <time>2022-04-10T13:57:29Z</time>
      </trkpt>
      <trkpt lat="44.46456" lon="1.77605">
        <ele>143.7</ele>
        <time>2022-04-10T13:57:31Z</time>
      </trkpt>
      <trkpt lat="44.46461" lon="1.77603">
        <ele>143.7</ele>
        <time>2022-04-10T13:57:32Z</time>
      </trkpt>
      <trkpt lat="44.46465" lon="1.77603">
        <ele>143.7</ele>
        <time>2022-04-10T13:57:33Z</time>
      </trkpt>
      <trkpt lat="44.46469" lon="1.77603">
        <ele>143.8</ele>
        <time>2022-04-10T13:57:34Z</time>
      </trkpt>
      <trkpt lat="44.46473" lon="1.77602">
        <ele>143.8</ele>
        <time>2022-04-10T13:57:35Z</time>
      </trkpt>
      <trkpt lat="44.46476" lon="1.77602">
        <ele>143.8</ele>
        <time>2022-04-10T13:57:36Z</time>
      </trkpt>
      <trkpt lat="44.46479" lon="1.77601">
        <ele>143.8</ele>
        <time>2022-04-10T13:57:37Z</time>
      </trkpt>
      <trkpt lat="44.46484" lon="1.776">
        <ele>143.8</ele>
        <time>2022-04-10T13:57:38Z</time>
      </trkpt>
      <trkpt lat="44.46488" lon="1.77599">
        <ele>143.8</ele>
        <time>2022-04-10T13:57:39Z</time>
      </trkpt>
      <trkpt lat="44.46491" lon="1.77597">
        <ele>143.8</ele>
        <time>2022-04-10T13:57:40Z</time>
      </trkpt>
      <trkpt lat="44.46494" lon="1.77596">
        <ele>143.8</ele>
        <time>2022-04-10T13:57:41Z</time>
      </trkpt>
      <trkpt lat="44.46499" lon="1.77595">
        <ele>143.9</ele>
        <time>2022-04-10T13:57:42Z</time>
      </trkpt>
      <trkpt lat="44.46502" lon="1.77594">
        <ele>143.9</ele>
        <time>2022-04-10T13:57:43Z</time>
      </trkpt>
      <trkpt lat="44.46507" lon="1.77592">
        <ele>143.9</ele>
        <time>2022-04-10T13:57:44Z</time>
      </trkpt>
      <trkpt lat="44.46511" lon="1.7759">
        <ele>143.9</ele>
        <time>2022-04-10T13:57:45Z</time>
      </trkpt>
      <trkpt lat="44.46516" lon="1.77589">
        <ele>143.9</ele>
        <time>2022-04-10T13:57:46Z</time>
      </trkpt>
      <trkpt lat="44.46519" lon="1.77588">
        <ele>143.9</ele>
        <time>2022-04-10T13:57:47Z</time>
      </trkpt>
      <trkpt lat="44.46525" lon="1.77586">
        <ele>144</ele>
        <time>2022-04-10T13:57:48Z</time>
      </trkpt>
      <trkpt lat="44.4653" lon="1.77584">
        <ele>144</ele>
        <time>2022-04-10T13:57:49Z</time>
      </trkpt>
      <trkpt lat="44.46534" lon="1.77583">
        <ele>144</ele>
        <time>2022-04-10T13:57:50Z</time>
      </trkpt>
      <trkpt lat="44.46539" lon="1.77581">
        <ele>144.1</ele>
        <time>2022-04-10T13:57:51Z</time>
      </trkpt>
      <trkpt lat="44.46543" lon="1.7758">
        <ele>144.1</ele>
        <time>2022-04-10T13:57:52Z</time>
      </trkpt>
      <trkpt lat="44.46549" lon="1.77578">
        <ele>144.1</ele>
        <time>2022-04-10T13:57:53Z</time>
      </trkpt>
      <trkpt lat="44.46554" lon="1.77576">
        <ele>144.2</ele>
        <time>2022-04-10T13:57:54Z</time>
      </trkpt>
      <trkpt lat="44.46559" lon="1.77574">
        <ele>144.2</ele>
        <time>2022-04-10T13:57:55Z</time>
      </trkpt>
      <trkpt lat="44.46564" lon="1.77571">
        <ele>144.3</ele>
        <time>2022-04-10T13:57:56Z</time>
      </trkpt>
      <trkpt lat="44.46569" lon="1.77569">
        <ele>144.3</ele>
        <time>2022-04-10T13:57:57Z</time>
      </trkpt>
      <trkpt lat="44.46575" lon="1.77567">
        <ele>144.3</ele>
        <time>2022-04-10T13:57:58Z</time>
      </trkpt>
      <trkpt lat="44.4658" lon="1.77565">
        <ele>144.3</ele>
        <time>2022-04-10T13:57:59Z</time>
      </trkpt>
      <trkpt lat="44.46585" lon="1.77563">
        <ele>144.3</ele>
        <time>2022-04-10T13:58:00Z</time>
      </trkpt>
      <trkpt lat="44.46591" lon="1.77561">
        <ele>144.4</ele>
        <time>2022-04-10T13:58:01Z</time>
      </trkpt>
      <trkpt lat="44.46596" lon="1.77559">
        <ele>144.4</ele>
        <time>2022-04-10T13:58:02Z</time>
      </trkpt>
      <trkpt lat="44.46601" lon="1.77557">
        <ele>144.4</ele>
        <time>2022-04-10T13:58:03Z</time>
      </trkpt>
      <trkpt lat="44.46606" lon="1.77556">
        <ele>144.4</ele>
        <time>2022-04-10T13:58:04Z</time>
      </trkpt>
      <trkpt lat="44.46612" lon="1.77555">
        <ele>144.4</ele>
        <time>2022-04-10T13:58:05Z</time>
      </trkpt>
      <trkpt lat="44.46618" lon="1.77554">
        <ele>144.4</ele>
        <time>2022-04-10T13:58:06Z</time>
      </trkpt>
      <trkpt lat="44.46623" lon="1.77552">
        <ele>144.5</ele>
        <time>2022-04-10T13:58:07Z</time>
      </trkpt>
      <trkpt lat="44.46629" lon="1.77551">
        <ele>144.5</ele>
        <time>2022-04-10T13:58:08Z</time>
      </trkpt>
      <trkpt lat="44.46635" lon="1.7755">
        <ele>144.5</ele>
        <time>2022-04-10T13:58:09Z</time>
      </trkpt>
      <trkpt lat="44.46641" lon="1.77549">
        <ele>144.5</ele>
        <time>2022-04-10T13:58:10Z</time>
      </trkpt>
      <trkpt lat="44.46647" lon="1.77549">
        <ele>144.5</ele>
        <time>2022-04-10T13:58:11Z</time>
      </trkpt>
      <trkpt lat="44.46652" lon="1.7755">
        <ele>144.5</ele>
        <time>2022-04-10T13:58:12Z</time>
      </trkpt>
      <trkpt lat="44.46658" lon="1.77552">
        <ele>144.5</ele>
        <time>2022-04-10T13:58:13Z</time>
      </trkpt>
      <trkpt lat="44.46664" lon="1.77552">
        <ele>144.5</ele>
        <time>2022-04-10T13:58:14Z</time>
      </trkpt>
      <trkpt lat="44.46669" lon="1.77553">
        <ele>144.5</ele>
        <time>2022-04-10T13:58:15Z</time>
      </trkpt>
      <trkpt lat="44.46675" lon="1.77554">
        <ele>144.4</ele>
        <time>2022-04-10T13:58:16Z</time>
      </trkpt>
      <trkpt lat="44.46681" lon="1.77555">
        <ele>144.4</ele>
        <time>2022-04-10T13:58:17Z</time>
      </trkpt>
      <trkpt lat="44.46687" lon="1.77556">
        <ele>144.4</ele>
        <time>2022-04-10T13:58:18Z</time>
      </trkpt>
      <trkpt lat="44.46692" lon="1.77558">
        <ele>144.4</ele>
        <time>2022-04-10T13:58:19Z</time>
      </trkpt>
      <trkpt lat="44.46698" lon="1.77559">
        <ele>144.4</ele>
        <time>2022-04-10T13:58:20Z</time>
      </trkpt>
      <trkpt lat="44.46703" lon="1.7756">
        <ele>144.4</ele>
        <time>2022-04-10T13:58:21Z</time>
      </trkpt>
      <trkpt lat="44.46709" lon="1.77561">
        <ele>144.3</ele>
        <time>2022-04-10T13:58:22Z</time>
      </trkpt>
      <trkpt lat="44.46714" lon="1.77562">
        <ele>144.3</ele>
        <time>2022-04-10T13:58:23Z</time>
      </trkpt>
      <trkpt lat="44.4672" lon="1.77563">
        <ele>144.3</ele>
        <time>2022-04-10T13:58:24Z</time>
      </trkpt>
      <trkpt lat="44.46725" lon="1.77565">
        <ele>144.3</ele>
        <time>2022-04-10T13:58:25Z</time>
      </trkpt>
      <trkpt lat="44.46731" lon="1.77566">
        <ele>144.3</ele>
        <time>2022-04-10T13:58:26Z</time>
      </trkpt>
      <trkpt lat="44.46736" lon="1.77568">
        <ele>144.2</ele>
        <time>2022-04-10T13:58:27Z</time>
      </trkpt>
      <trkpt lat="44.46742" lon="1.77569">
        <ele>144.2</ele>
        <time>2022-04-10T13:58:28Z</time>
      </trkpt>
      <trkpt lat="44.46747" lon="1.7757">
        <ele>144.2</ele>
        <time>2022-04-10T13:58:29Z</time>
      </trkpt>
      <trkpt lat="44.46753" lon="1.77571">
        <ele>144.3</ele>
        <time>2022-04-10T13:58:30Z</time>
      </trkpt>
      <trkpt lat="44.46758" lon="1.77573">
        <ele>144.3</ele>
        <time>2022-04-10T13:58:31Z</time>
      </trkpt>
      <trkpt lat="44.46764" lon="1.77574">
        <ele>144.3</ele>
        <time>2022-04-10T13:58:32Z</time>
      </trkpt>
      <trkpt lat="44.46769" lon="1.77575">
        <ele>144.3</ele>
        <time>2022-04-10T13:58:33Z</time>
      </trkpt>
      <trkpt lat="44.46775" lon="1.77576">
        <ele>144.3</ele>
        <time>2022-04-10T13:58:34Z</time>
      </trkpt>
      <trkpt lat="44.4678" lon="1.77577">
        <ele>144.3</ele>
        <time>2022-04-10T13:58:35Z</time>
      </trkpt>
      <trkpt lat="44.46786" lon="1.77578">
        <ele>144.3</ele>
        <time>2022-04-10T13:58:36Z</time>
      </trkpt>
      <trkpt lat="44.46791" lon="1.77579">
        <ele>144.3</ele>
        <time>2022-04-10T13:58:37Z</time>
      </trkpt>
      <trkpt lat="44.46797" lon="1.7758">
        <ele>144.3</ele>
        <time>2022-04-10T13:58:38Z</time>
      </trkpt>
      <trkpt lat="44.46803" lon="1.77581">
        <ele>144.4</ele>
        <time>2022-04-10T13:58:39Z</time>
      </trkpt>
      <trkpt lat="44.46808" lon="1.7758">
        <ele>144.4</ele>
        <time>2022-04-10T13:58:40Z</time>
      </trkpt>
      <trkpt lat="44.46814" lon="1.7758">
        <ele>144.4</ele>
        <time>2022-04-10T13:58:41Z</time>
      </trkpt>
      <trkpt lat="44.4682" lon="1.77579">
        <ele>144.5</ele>
        <time>2022-04-10T13:58:42Z</time>
      </trkpt>
      <trkpt lat="44.46825" lon="1.77579">
        <ele>144.5</ele>
        <time>2022-04-10T13:58:43Z</time>
      </trkpt>
      <trkpt lat="44.46831" lon="1.77578">
        <ele>144.5</ele>
        <time>2022-04-10T13:58:44Z</time>
      </trkpt>
      <trkpt lat="44.46837" lon="1.77578">
        <ele>144.5</ele>
        <time>2022-04-10T13:58:45Z</time>
      </trkpt>
      <trkpt lat="44.46843" lon="1.77577">
        <ele>144.6</ele>
        <time>2022-04-10T13:58:46Z</time>
      </trkpt>
      <trkpt lat="44.46849" lon="1.77576">
        <ele>144.6</ele>
        <time>2022-04-10T13:58:47Z</time>
      </trkpt>
      <trkpt lat="44.46855" lon="1.77574">
        <ele>144.6</ele>
        <time>2022-04-10T13:58:48Z</time>
      </trkpt>
      <trkpt lat="44.46861" lon="1.77573">
        <ele>144.7</ele>
        <time>2022-04-10T13:58:49Z</time>
      </trkpt>
      <trkpt lat="44.46867" lon="1.77572">
        <ele>144.7</ele>
        <time>2022-04-10T13:58:50Z</time>
      </trkpt>
      <trkpt lat="44.46873" lon="1.77571">
        <ele>144.7</ele>
        <time>2022-04-10T13:58:51Z</time>
      </trkpt>
      <trkpt lat="44.46879" lon="1.77569">
        <ele>144.7</ele>
        <time>2022-04-10T13:58:52Z</time>
      </trkpt>
      <trkpt lat="44.46885" lon="1.77568">
        <ele>144.7</ele>
        <time>2022-04-10T13:58:53Z</time>
      </trkpt>
      <trkpt lat="44.46892" lon="1.77567">
        <ele>144.8</ele>
        <time>2022-04-10T13:58:54Z</time>
      </trkpt>
      <trkpt lat="44.46898" lon="1.77566">
        <ele>144.8</ele>
        <time>2022-04-10T13:58:55Z</time>
      </trkpt>
      <trkpt lat="44.46904" lon="1.77565">
        <ele>144.8</ele>
        <time>2022-04-10T13:58:56Z</time>
      </trkpt>
      <trkpt lat="44.46909" lon="1.77564">
        <ele>144.8</ele>
        <time>2022-04-10T13:58:57Z</time>
      </trkpt>
      <trkpt lat="44.46915" lon="1.77564">
        <ele>144.9</ele>
        <time>2022-04-10T13:58:58Z</time>
      </trkpt>
      <trkpt lat="44.46921" lon="1.77563">
        <ele>145</ele>
        <time>2022-04-10T13:58:59Z</time>
      </trkpt>
      <trkpt lat="44.46927" lon="1.77562">
        <ele>145</ele>
        <time>2022-04-10T13:59:00Z</time>
      </trkpt>
      <trkpt lat="44.46933" lon="1.77562">
        <ele>145.1</ele>
        <time>2022-04-10T13:59:01Z</time>
      </trkpt>
      <trkpt lat="44.46938" lon="1.77562">
        <ele>145.2</ele>
        <time>2022-04-10T13:59:02Z</time>
      </trkpt>
      <trkpt lat="44.46944" lon="1.77562">
        <ele>145.3</ele>
        <time>2022-04-10T13:59:03Z</time>
      </trkpt>
      <trkpt lat="44.4695" lon="1.77562">
        <ele>145.4</ele>
        <time>2022-04-10T13:59:04Z</time>
      </trkpt>
      <trkpt lat="44.46955" lon="1.77564">
        <ele>145.5</ele>
        <time>2022-04-10T13:59:05Z</time>
      </trkpt>
      <trkpt lat="44.46961" lon="1.77565">
        <ele>145.6</ele>
        <time>2022-04-10T13:59:06Z</time>
      </trkpt>
      <trkpt lat="44.46966" lon="1.77566">
        <ele>145.8</ele>
        <time>2022-04-10T13:59:07Z</time>
      </trkpt>
      <trkpt lat="44.46972" lon="1.77568">
        <ele>145.9</ele>
        <time>2022-04-10T13:59:08Z</time>
      </trkpt>
      <trkpt lat="44.46977" lon="1.7757">
        <ele>146</ele>
        <time>2022-04-10T13:59:09Z</time>
      </trkpt>
      <trkpt lat="44.46982" lon="1.77572">
        <ele>146.2</ele>
        <time>2022-04-10T13:59:10Z</time>
      </trkpt>
      <trkpt lat="44.46987" lon="1.77574">
        <ele>146.3</ele>
        <time>2022-04-10T13:59:11Z</time>
      </trkpt>
      <trkpt lat="44.46993" lon="1.77577">
        <ele>146.5</ele>
        <time>2022-04-10T13:59:12Z</time>
      </trkpt>
      <trkpt lat="44.46998" lon="1.77579">
        <ele>146.6</ele>
        <time>2022-04-10T13:59:13Z</time>
      </trkpt>
      <trkpt lat="44.47003" lon="1.77581">
        <ele>146.8</ele>
        <time>2022-04-10T13:59:14Z</time>
      </trkpt>
      <trkpt lat="44.47009" lon="1.77584">
        <ele>146.9</ele>
        <time>2022-04-10T13:59:15Z</time>
      </trkpt>
      <trkpt lat="44.47014" lon="1.77586">
        <ele>147.1</ele>
        <time>2022-04-10T13:59:16Z</time>
      </trkpt>
      <trkpt lat="44.47019" lon="1.77589">
        <ele>147.2</ele>
        <time>2022-04-10T13:59:17Z</time>
      </trkpt>
      <trkpt lat="44.47025" lon="1.77591">
        <ele>147.4</ele>
        <time>2022-04-10T13:59:18Z</time>
      </trkpt>
      <trkpt lat="44.4703" lon="1.77594">
        <ele>147.5</ele>
        <time>2022-04-10T13:59:19Z</time>
      </trkpt>
      <trkpt lat="44.47035" lon="1.77597">
        <ele>147.6</ele>
        <time>2022-04-10T13:59:20Z</time>
      </trkpt>
      <trkpt lat="44.4704" lon="1.776">
        <ele>147.8</ele>
        <time>2022-04-10T13:59:21Z</time>
      </trkpt>
      <trkpt lat="44.47046" lon="1.77603">
        <ele>148</ele>
        <time>2022-04-10T13:59:22Z</time>
      </trkpt>
      <trkpt lat="44.47051" lon="1.77606">
        <ele>148.1</ele>
        <time>2022-04-10T13:59:23Z</time>
      </trkpt>
      <trkpt lat="44.47056" lon="1.77609">
        <ele>148.3</ele>
        <time>2022-04-10T13:59:24Z</time>
      </trkpt>
      <trkpt lat="44.47061" lon="1.77612">
        <ele>148.5</ele>
        <time>2022-04-10T13:59:25Z</time>
      </trkpt>
      <trkpt lat="44.47066" lon="1.77616">
        <ele>148.6</ele>
        <time>2022-04-10T13:59:26Z</time>
      </trkpt>
      <trkpt lat="44.47071" lon="1.7762">
        <ele>148.7</ele>
        <time>2022-04-10T13:59:27Z</time>
      </trkpt>
      <trkpt lat="44.47075" lon="1.77624">
        <ele>148.9</ele>
        <time>2022-04-10T13:59:28Z</time>
      </trkpt>
      <trkpt lat="44.47079" lon="1.77629">
        <ele>149</ele>
        <time>2022-04-10T13:59:29Z</time>
      </trkpt>
      <trkpt lat="44.47084" lon="1.77634">
        <ele>149.1</ele>
        <time>2022-04-10T13:59:30Z</time>
      </trkpt>
      <trkpt lat="44.47088" lon="1.77639">
        <ele>149.3</ele>
        <time>2022-04-10T13:59:31Z</time>
      </trkpt>
      <trkpt lat="44.47092" lon="1.77644">
        <ele>149.4</ele>
        <time>2022-04-10T13:59:32Z</time>
      </trkpt>
      <trkpt lat="44.47097" lon="1.7765">
        <ele>149.6</ele>
        <time>2022-04-10T13:59:33Z</time>
      </trkpt>
      <trkpt lat="44.47101" lon="1.77655">
        <ele>149.8</ele>
        <time>2022-04-10T13:59:34Z</time>
      </trkpt>
      <trkpt lat="44.47105" lon="1.77661">
        <ele>149.9</ele>
        <time>2022-04-10T13:59:35Z</time>
      </trkpt>
      <trkpt lat="44.47109" lon="1.77666">
        <ele>150.1</ele>
        <time>2022-04-10T13:59:36Z</time>
      </trkpt>
      <trkpt lat="44.47113" lon="1.77672">
        <ele>150.2</ele>
        <time>2022-04-10T13:59:37Z</time>
      </trkpt>
      <trkpt lat="44.47116" lon="1.77677">
        <ele>150.4</ele>
        <time>2022-04-10T13:59:38Z</time>
      </trkpt>
      <trkpt lat="44.4712" lon="1.77683">
        <ele>150.5</ele>
        <time>2022-04-10T13:59:39Z</time>
      </trkpt>
      <trkpt lat="44.47123" lon="1.77689">
        <ele>150.7</ele>
        <time>2022-04-10T13:59:40Z</time>
      </trkpt>
      <trkpt lat="44.47128" lon="1.77695">
        <ele>150.9</ele>
        <time>2022-04-10T13:59:41Z</time>
      </trkpt>
      <trkpt lat="44.47131" lon="1.77701">
        <ele>151</ele>
        <time>2022-04-10T13:59:42Z</time>
      </trkpt>
      <trkpt lat="44.47135" lon="1.77707">
        <ele>151.2</ele>
        <time>2022-04-10T13:59:43Z</time>
      </trkpt>
      <trkpt lat="44.47138" lon="1.77714">
        <ele>151.3</ele>
        <time>2022-04-10T13:59:44Z</time>
      </trkpt>
      <trkpt lat="44.47141" lon="1.7772">
        <ele>151.4</ele>
        <time>2022-04-10T13:59:45Z</time>
      </trkpt>
      <trkpt lat="44.47143" lon="1.77727">
        <ele>151.5</ele>
        <time>2022-04-10T13:59:46Z</time>
      </trkpt>
      <trkpt lat="44.47146" lon="1.77734">
        <ele>151.6</ele>
        <time>2022-04-10T13:59:47Z</time>
      </trkpt>
      <trkpt lat="44.47148" lon="1.77741">
        <ele>151.6</ele>
        <time>2022-04-10T13:59:48Z</time>
      </trkpt>
      <trkpt lat="44.47149" lon="1.77748">
        <ele>151.6</ele>
        <time>2022-04-10T13:59:49Z</time>
      </trkpt>
      <trkpt lat="44.47151" lon="1.77756">
        <ele>151.6</ele>
        <time>2022-04-10T13:59:50Z</time>
      </trkpt>
      <trkpt lat="44.47152" lon="1.77764">
        <ele>151.5</ele>
        <time>2022-04-10T13:59:51Z</time>
      </trkpt>
      <trkpt lat="44.47152" lon="1.77772">
        <ele>151.4</ele>
        <time>2022-04-10T13:59:52Z</time>
      </trkpt>
      <trkpt lat="44.47152" lon="1.7778">
        <ele>151.3</ele>
        <time>2022-04-10T13:59:53Z</time>
      </trkpt>
      <trkpt lat="44.47151" lon="1.77788">
        <ele>151.2</ele>
        <time>2022-04-10T13:59:54Z</time>
      </trkpt>
      <trkpt lat="44.47149" lon="1.77797">
        <ele>151</ele>
        <time>2022-04-10T13:59:55Z</time>
      </trkpt>
      <trkpt lat="44.47148" lon="1.77806">
        <ele>150.8</ele>
        <time>2022-04-10T13:59:56Z</time>
      </trkpt>
      <trkpt lat="44.47146" lon="1.77814">
        <ele>150.7</ele>
        <time>2022-04-10T13:59:57Z</time>
      </trkpt>
      <trkpt lat="44.47143" lon="1.77822">
        <ele>150.5</ele>
        <time>2022-04-10T13:59:58Z</time>
      </trkpt>
      <trkpt lat="44.4714" lon="1.77829">
        <ele>150.3</ele>
        <time>2022-04-10T13:59:59Z</time>
      </trkpt>
      <trkpt lat="44.47137" lon="1.77835">
        <ele>150.2</ele>
        <time>2022-04-10T14:00:00Z</time>
      </trkpt>
      <trkpt lat="44.47134" lon="1.77841">
        <ele>150.1</ele>
        <time>2022-04-10T14:00:01Z</time>
      </trkpt>
      <trkpt lat="44.4713" lon="1.77847">
        <ele>149.9</ele>
        <time>2022-04-10T14:00:02Z</time>
      </trkpt>
      <trkpt lat="44.47127" lon="1.77854">
        <ele>149.8</ele>
        <time>2022-04-10T14:00:03Z</time>
      </trkpt>
      <trkpt lat="44.47123" lon="1.77861">
        <ele>149.7</ele>
        <time>2022-04-10T14:00:04Z</time>
      </trkpt>
      <trkpt lat="44.47119" lon="1.77868">
        <ele>149.5</ele>
        <time>2022-04-10T14:00:05Z</time>
      </trkpt>
      <trkpt lat="44.47116" lon="1.77876">
        <ele>149.4</ele>
        <time>2022-04-10T14:00:06Z</time>
      </trkpt>
      <trkpt lat="44.47113" lon="1.77883">
        <ele>149.3</ele>
        <time>2022-04-10T14:00:07Z</time>
      </trkpt>
      <trkpt lat="44.4711" lon="1.77891">
        <ele>149.2</ele>
        <time>2022-04-10T14:00:08Z</time>
      </trkpt>
      <trkpt lat="44.47107" lon="1.77899">
        <ele>149.1</ele>
        <time>2022-04-10T14:00:09Z</time>
      </trkpt>
      <trkpt lat="44.47103" lon="1.77906">
        <ele>149.1</ele>
        <time>2022-04-10T14:00:10Z</time>
      </trkpt>
      <trkpt lat="44.471" lon="1.77913">
        <ele>149</ele>
        <time>2022-04-10T14:00:11Z</time>
      </trkpt>
      <trkpt lat="44.47097" lon="1.77921">
        <ele>149</ele>
        <time>2022-04-10T14:00:12Z</time>
      </trkpt>
      <trkpt lat="44.47095" lon="1.77928">
        <ele>148.9</ele>
        <time>2022-04-10T14:00:13Z</time>
      </trkpt>
      <trkpt lat="44.47095" lon="1.77936">
        <ele>148.9</ele>
        <time>2022-04-10T14:00:14Z</time>
      </trkpt>
      <trkpt lat="44.47096" lon="1.77942">
        <ele>148.8</ele>
        <time>2022-04-10T14:00:15Z</time>
      </trkpt>
      <trkpt lat="44.47097" lon="1.77947">
        <ele>148.8</ele>
        <time>2022-04-10T14:00:16Z</time>
      </trkpt>
      <trkpt lat="44.47099" lon="1.77952">
        <ele>148.8</ele>
        <time>2022-04-10T14:00:17Z</time>
      </trkpt>
      <trkpt lat="44.47101" lon="1.77956">
        <ele>148.5</ele>
        <time>2022-04-10T14:00:18Z</time>
      </trkpt>
      <trkpt lat="44.47103" lon="1.77959">
        <ele>148.4</ele>
        <time>2022-04-10T14:00:19Z</time>
      </trkpt>
      <trkpt lat="44.47105" lon="1.77962">
        <ele>148.3</ele>
        <time>2022-04-10T14:00:20Z</time>
      </trkpt>
      <trkpt lat="44.47109" lon="1.77963">
        <ele>148.2</ele>
        <time>2022-04-10T14:00:21Z</time>
      </trkpt>
      <trkpt lat="44.47111" lon="1.77962">
        <ele>148.1</ele>
        <time>2022-04-10T14:00:22Z</time>
      </trkpt>
      <trkpt lat="44.47115" lon="1.77962">
        <ele>148</ele>
        <time>2022-04-10T14:00:23Z</time>
      </trkpt>
      <trkpt lat="44.47118" lon="1.77961">
        <ele>147.8</ele>
        <time>2022-04-10T14:00:24Z</time>
      </trkpt>
      <trkpt lat="44.47123" lon="1.77961">
        <ele>147.7</ele>
        <time>2022-04-10T14:00:26Z</time>
      </trkpt>
      <trkpt lat="44.47129" lon="1.7796">
        <ele>147.5</ele>
        <time>2022-04-10T14:00:27Z</time>
      </trkpt>
      <trkpt lat="44.47134" lon="1.77959">
        <ele>147.4</ele>
        <time>2022-04-10T14:00:28Z</time>
      </trkpt>
      <trkpt lat="44.4714" lon="1.77956">
        <ele>147.2</ele>
        <time>2022-04-10T14:00:29Z</time>
      </trkpt>
      <trkpt lat="44.47145" lon="1.77955">
        <ele>147.1</ele>
        <time>2022-04-10T14:00:30Z</time>
      </trkpt>
      <trkpt lat="44.4715" lon="1.77954">
        <ele>146.9</ele>
        <time>2022-04-10T14:00:31Z</time>
      </trkpt>
      <trkpt lat="44.47156" lon="1.77952">
        <ele>146.9</ele>
        <time>2022-04-10T14:00:32Z</time>
      </trkpt>
      <trkpt lat="44.47161" lon="1.77951">
        <ele>146.8</ele>
        <time>2022-04-10T14:00:33Z</time>
      </trkpt>
      <trkpt lat="44.47166" lon="1.7795">
        <ele>146.7</ele>
        <time>2022-04-10T14:00:34Z</time>
      </trkpt>
      <trkpt lat="44.47171" lon="1.77947">
        <ele>146.6</ele>
        <time>2022-04-10T14:00:35Z</time>
      </trkpt>
      <trkpt lat="44.47176" lon="1.77945">
        <ele>146.5</ele>
        <time>2022-04-10T14:00:36Z</time>
      </trkpt>
      <trkpt lat="44.47181" lon="1.77943">
        <ele>146.4</ele>
        <time>2022-04-10T14:00:37Z</time>
      </trkpt>
      <trkpt lat="44.47186" lon="1.77941">
        <ele>146.2</ele>
        <time>2022-04-10T14:00:38Z</time>
      </trkpt>
      <trkpt lat="44.47192" lon="1.77938">
        <ele>146.1</ele>
        <time>2022-04-10T14:00:39Z</time>
      </trkpt>
      <trkpt lat="44.47196" lon="1.77934">
        <ele>146</ele>
        <time>2022-04-10T14:00:40Z</time>
      </trkpt>
      <trkpt lat="44.47202" lon="1.77932">
        <ele>145.9</ele>
        <time>2022-04-10T14:00:41Z</time>
      </trkpt>
      <trkpt lat="44.47207" lon="1.7793">
        <ele>145.7</ele>
        <time>2022-04-10T14:00:42Z</time>
      </trkpt>
      <trkpt lat="44.47212" lon="1.77928">
        <ele>145.6</ele>
        <time>2022-04-10T14:00:43Z</time>
      </trkpt>
      <trkpt lat="44.47217" lon="1.77925">
        <ele>145.4</ele>
        <time>2022-04-10T14:00:44Z</time>
      </trkpt>
      <trkpt lat="44.47222" lon="1.77921">
        <ele>145.3</ele>
        <time>2022-04-10T14:00:45Z</time>
      </trkpt>
      <trkpt lat="44.47228" lon="1.77919">
        <ele>145.1</ele>
        <time>2022-04-10T14:00:46Z</time>
      </trkpt>
      <trkpt lat="44.47233" lon="1.77917">
        <ele>145</ele>
        <time>2022-04-10T14:00:47Z</time>
      </trkpt>
      <trkpt lat="44.47239" lon="1.77915">
        <ele>144.9</ele>
        <time>2022-04-10T14:00:48Z</time>
      </trkpt>
      <trkpt lat="44.47244" lon="1.77913">
        <ele>144.8</ele>
        <time>2022-04-10T14:00:49Z</time>
      </trkpt>
      <trkpt lat="44.4725" lon="1.77911">
        <ele>144.7</ele>
        <time>2022-04-10T14:00:50Z</time>
      </trkpt>
      <trkpt lat="44.47256" lon="1.7791">
        <ele>144.6</ele>
        <time>2022-04-10T14:00:51Z</time>
      </trkpt>
      <trkpt lat="44.47262" lon="1.7791">
        <ele>144.6</ele>
        <time>2022-04-10T14:00:52Z</time>
      </trkpt>
      <trkpt lat="44.47268" lon="1.7791">
        <ele>144.6</ele>
        <time>2022-04-10T14:00:53Z</time>
      </trkpt>
      <trkpt lat="44.47274" lon="1.77911">
        <ele>144.6</ele>
        <time>2022-04-10T14:00:54Z</time>
      </trkpt>
      <trkpt lat="44.47279" lon="1.77912">
        <ele>144.6</ele>
        <time>2022-04-10T14:00:55Z</time>
      </trkpt>
      <trkpt lat="44.47285" lon="1.77914">
        <ele>144.6</ele>
        <time>2022-04-10T14:00:56Z</time>
      </trkpt>
      <trkpt lat="44.4729" lon="1.77916">
        <ele>144.6</ele>
        <time>2022-04-10T14:00:57Z</time>
      </trkpt>
      <trkpt lat="44.47295" lon="1.77918">
        <ele>144.7</ele>
        <time>2022-04-10T14:00:58Z</time>
      </trkpt>
      <trkpt lat="44.47299" lon="1.7792">
        <ele>144.8</ele>
        <time>2022-04-10T14:00:59Z</time>
      </trkpt>
      <trkpt lat="44.47303" lon="1.77923">
        <ele>144.8</ele>
        <time>2022-04-10T14:01:00Z</time>
      </trkpt>
      <trkpt lat="44.47306" lon="1.77925">
        <ele>144.8</ele>
        <time>2022-04-10T14:01:01Z</time>
      </trkpt>
      <trkpt lat="44.47308" lon="1.77928">
        <ele>144.9</ele>
        <time>2022-04-10T14:01:02Z</time>
      </trkpt>
      <trkpt lat="44.47311" lon="1.77931">
        <ele>144.9</ele>
        <time>2022-04-10T14:01:03Z</time>
      </trkpt>
      <trkpt lat="44.47315" lon="1.77935">
        <ele>145</ele>
        <time>2022-04-10T14:01:04Z</time>
      </trkpt>
      <trkpt lat="44.47319" lon="1.77939">
        <ele>145</ele>
        <time>2022-04-10T14:01:05Z</time>
      </trkpt>
      <trkpt lat="44.47324" lon="1.77943">
        <ele>145.1</ele>
        <time>2022-04-10T14:01:06Z</time>
      </trkpt>
      <trkpt lat="44.47328" lon="1.77948">
        <ele>145.2</ele>
        <time>2022-04-10T14:01:07Z</time>
      </trkpt>
      <trkpt lat="44.47333" lon="1.77952">
        <ele>145.3</ele>
        <time>2022-04-10T14:01:08Z</time>
      </trkpt>
      <trkpt lat="44.47337" lon="1.77957">
        <ele>145.3</ele>
        <time>2022-04-10T14:01:09Z</time>
      </trkpt>
      <trkpt lat="44.47342" lon="1.77961">
        <ele>145.5</ele>
        <time>2022-04-10T14:01:10Z</time>
      </trkpt>
      <trkpt lat="44.47346" lon="1.77966">
        <ele>145.6</ele>
        <time>2022-04-10T14:01:11Z</time>
      </trkpt>
      <trkpt lat="44.47351" lon="1.77971">
        <ele>145.7</ele>
        <time>2022-04-10T14:01:12Z</time>
      </trkpt>
      <trkpt lat="44.47355" lon="1.77976">
        <ele>145.8</ele>
        <time>2022-04-10T14:01:13Z</time>
      </trkpt>
      <trkpt lat="44.47359" lon="1.7798">
        <ele>145.9</ele>
        <time>2022-04-10T14:01:14Z</time>
      </trkpt>
      <trkpt lat="44.47364" lon="1.77985">
        <ele>146</ele>
        <time>2022-04-10T14:01:15Z</time>
      </trkpt>
      <trkpt lat="44.47368" lon="1.7799">
        <ele>146.1</ele>
        <time>2022-04-10T14:01:16Z</time>
      </trkpt>
      <trkpt lat="44.47372" lon="1.77995">
        <ele>146.2</ele>
        <time>2022-04-10T14:01:17Z</time>
      </trkpt>
      <trkpt lat="44.47377" lon="1.78">
        <ele>146.3</ele>
        <time>2022-04-10T14:01:18Z</time>
      </trkpt>
      <trkpt lat="44.47381" lon="1.78005">
        <ele>146.5</ele>
        <time>2022-04-10T14:01:19Z</time>
      </trkpt>
      <trkpt lat="44.47386" lon="1.7801">
        <ele>146.6</ele>
        <time>2022-04-10T14:01:20Z</time>
      </trkpt>
      <trkpt lat="44.4739" lon="1.78015">
        <ele>146.7</ele>
        <time>2022-04-10T14:01:21Z</time>
      </trkpt>
      <trkpt lat="44.47394" lon="1.78019">
        <ele>146.9</ele>
        <time>2022-04-10T14:01:22Z</time>
      </trkpt>
      <trkpt lat="44.47399" lon="1.78024">
        <ele>147</ele>
        <time>2022-04-10T14:01:23Z</time>
      </trkpt>
      <trkpt lat="44.47403" lon="1.78029">
        <ele>147.1</ele>
        <time>2022-04-10T14:01:24Z</time>
      </trkpt>
      <trkpt lat="44.47407" lon="1.78034">
        <ele>147.2</ele>
        <time>2022-04-10T14:01:25Z</time>
      </trkpt>
      <trkpt lat="44.47412" lon="1.78039">
        <ele>147.4</ele>
        <time>2022-04-10T14:01:26Z</time>
      </trkpt>
      <trkpt lat="44.47416" lon="1.78044">
        <ele>147.5</ele>
        <time>2022-04-10T14:01:27Z</time>
      </trkpt>
      <trkpt lat="44.4742" lon="1.7805">
        <ele>147.6</ele>
        <time>2022-04-10T14:01:28Z</time>
      </trkpt>
      <trkpt lat="44.47423" lon="1.78056">
        <ele>147.6</ele>
        <time>2022-04-10T14:01:29Z</time>
      </trkpt>
      <trkpt lat="44.47424" lon="1.78063">
        <ele>147.7</ele>
        <time>2022-04-10T14:01:30Z</time>
      </trkpt>
      <trkpt lat="44.47424" lon="1.7807">
        <ele>147.7</ele>
        <time>2022-04-10T14:01:31Z</time>
      </trkpt>
      <trkpt lat="44.47423" lon="1.78076">
        <ele>147.8</ele>
        <time>2022-04-10T14:01:32Z</time>
      </trkpt>
      <trkpt lat="44.47421" lon="1.7808">
        <ele>147.8</ele>
        <time>2022-04-10T14:01:33Z</time>
      </trkpt>
      <trkpt lat="44.47418" lon="1.78085">
        <ele>147.8</ele>
        <time>2022-04-10T14:01:34Z</time>
      </trkpt>
      <trkpt lat="44.47414" lon="1.78089">
        <ele>147.8</ele>
        <time>2022-04-10T14:01:35Z</time>
      </trkpt>
      <trkpt lat="44.4741" lon="1.78092">
        <ele>147.8</ele>
        <time>2022-04-10T14:01:36Z</time>
      </trkpt>
      <trkpt lat="44.47408" lon="1.78095">
        <ele>147.8</ele>
        <time>2022-04-10T14:01:37Z</time>
      </trkpt>
      <trkpt lat="44.47403" lon="1.78101">
        <ele>147.8</ele>
        <time>2022-04-10T14:01:38Z</time>
      </trkpt>
      <trkpt lat="44.47399" lon="1.78106">
        <ele>147.8</ele>
        <time>2022-04-10T14:01:39Z</time>
      </trkpt>
      <trkpt lat="44.47395" lon="1.78113">
        <ele>147.9</ele>
        <time>2022-04-10T14:01:40Z</time>
      </trkpt>
      <trkpt lat="44.47391" lon="1.78119">
        <ele>147.9</ele>
        <time>2022-04-10T14:01:41Z</time>
      </trkpt>
      <trkpt lat="44.47387" lon="1.78126">
        <ele>147.9</ele>
        <time>2022-04-10T14:01:42Z</time>
      </trkpt>
      <trkpt lat="44.47383" lon="1.78132">
        <ele>147.9</ele>
        <time>2022-04-10T14:01:43Z</time>
      </trkpt>
      <trkpt lat="44.47379" lon="1.78138">
        <ele>147.9</ele>
        <time>2022-04-10T14:01:44Z</time>
      </trkpt>
      <trkpt lat="44.47374" lon="1.78144">
        <ele>147.9</ele>
        <time>2022-04-10T14:01:45Z</time>
      </trkpt>
      <trkpt lat="44.4737" lon="1.78149">
        <ele>147.9</ele>
        <time>2022-04-10T14:01:46Z</time>
      </trkpt>
      <trkpt lat="44.47365" lon="1.78155">
        <ele>147.9</ele>
        <time>2022-04-10T14:01:47Z</time>
      </trkpt>
      <trkpt lat="44.47361" lon="1.7816">
        <ele>147.9</ele>
        <time>2022-04-10T14:01:48Z</time>
      </trkpt>
      <trkpt lat="44.47356" lon="1.78166">
        <ele>147.9</ele>
        <time>2022-04-10T14:01:49Z</time>
      </trkpt>
      <trkpt lat="44.47351" lon="1.78172">
        <ele>147.9</ele>
        <time>2022-04-10T14:01:50Z</time>
      </trkpt>
      <trkpt lat="44.47346" lon="1.78179">
        <ele>148</ele>
        <time>2022-04-10T14:01:51Z</time>
      </trkpt>
      <trkpt lat="44.47342" lon="1.78185">
        <ele>148</ele>
        <time>2022-04-10T14:01:52Z</time>
      </trkpt>
      <trkpt lat="44.47337" lon="1.78192">
        <ele>148</ele>
        <time>2022-04-10T14:01:53Z</time>
      </trkpt>
      <trkpt lat="44.47333" lon="1.78199">
        <ele>148</ele>
        <time>2022-04-10T14:01:54Z</time>
      </trkpt>
      <trkpt lat="44.47328" lon="1.78205">
        <ele>148</ele>
        <time>2022-04-10T14:01:55Z</time>
      </trkpt>
      <trkpt lat="44.47324" lon="1.78211">
        <ele>148</ele>
        <time>2022-04-10T14:01:56Z</time>
      </trkpt>
      <trkpt lat="44.4732" lon="1.78217">
        <ele>148.1</ele>
        <time>2022-04-10T14:01:57Z</time>
      </trkpt>
      <trkpt lat="44.47316" lon="1.78224">
        <ele>148.1</ele>
        <time>2022-04-10T14:01:58Z</time>
      </trkpt>
      <trkpt lat="44.47312" lon="1.7823">
        <ele>148.2</ele>
        <time>2022-04-10T14:01:59Z</time>
      </trkpt>
      <trkpt lat="44.47308" lon="1.78236">
        <ele>148.2</ele>
        <time>2022-04-10T14:02:00Z</time>
      </trkpt>
      <trkpt lat="44.47304" lon="1.78242">
        <ele>148.2</ele>
        <time>2022-04-10T14:02:01Z</time>
      </trkpt>
      <trkpt lat="44.47301" lon="1.7825">
        <ele>148.2</ele>
        <time>2022-04-10T14:02:02Z</time>
      </trkpt>
      <trkpt lat="44.47297" lon="1.78257">
        <ele>148.2</ele>
        <time>2022-04-10T14:02:03Z</time>
      </trkpt>
      <trkpt lat="44.47294" lon="1.78265">
        <ele>148.3</ele>
        <time>2022-04-10T14:02:04Z</time>
      </trkpt>
      <trkpt lat="44.47292" lon="1.78273">
        <ele>148.3</ele>
        <time>2022-04-10T14:02:05Z</time>
      </trkpt>
      <trkpt lat="44.4729" lon="1.7828">
        <ele>148.3</ele>
        <time>2022-04-10T14:02:06Z</time>
      </trkpt>
      <trkpt lat="44.47289" lon="1.78289">
        <ele>148.3</ele>
        <time>2022-04-10T14:02:07Z</time>
      </trkpt>
      <trkpt lat="44.47289" lon="1.78297">
        <ele>148.3</ele>
        <time>2022-04-10T14:02:08Z</time>
      </trkpt>
      <trkpt lat="44.47289" lon="1.78306">
        <ele>148.4</ele>
        <time>2022-04-10T14:02:09Z</time>
      </trkpt>
      <trkpt lat="44.47288" lon="1.78314">
        <ele>148.4</ele>
        <time>2022-04-10T14:02:10Z</time>
      </trkpt>
      <trkpt lat="44.47286" lon="1.78321">
        <ele>148.4</ele>
        <time>2022-04-10T14:02:11Z</time>
      </trkpt>
      <trkpt lat="44.47282" lon="1.78327">
        <ele>148.4</ele>
        <time>2022-04-10T14:02:12Z</time>
      </trkpt>
      <trkpt lat="44.47278" lon="1.7833">
        <ele>148.4</ele>
        <time>2022-04-10T14:02:13Z</time>
      </trkpt>
      <trkpt lat="44.47276" lon="1.78331">
        <ele>148.4</ele>
        <time>2022-04-10T14:02:14Z</time>
      </trkpt>
      <trkpt lat="44.47275" lon="1.78332">
        <ele>148.4</ele>
        <time>2022-04-10T14:02:15Z</time>
      </trkpt>
      <trkpt lat="44.47275" lon="1.78332">
        <ele>148.4</ele>
        <time>2022-04-10T14:02:16Z</time>
      </trkpt>
      <trkpt lat="44.47274" lon="1.78332">
        <ele>148.4</ele>
        <time>2022-04-10T14:02:17Z</time>
      </trkpt>
      <trkpt lat="44.47273" lon="1.78332">
        <ele>148.4</ele>
        <time>2022-04-10T14:02:18Z</time>
      </trkpt>
      <trkpt lat="44.47273" lon="1.78332">
        <ele>148.4</ele>
        <time>2022-04-10T14:02:19Z</time>
      </trkpt>
      <trkpt lat="44.47272" lon="1.78333">
        <ele>148.4</ele>
        <time>2022-04-10T14:02:20Z</time>
      </trkpt>
      <trkpt lat="44.47271" lon="1.78333">
        <ele>148.4</ele>
        <time>2022-04-10T14:02:21Z</time>
      </trkpt>
      <trkpt lat="44.4727" lon="1.78333">
        <ele>148.4</ele>
        <time>2022-04-10T14:02:22Z</time>
      </trkpt>
      <trkpt lat="44.4727" lon="1.78333">
        <ele>148.4</ele>
        <time>2022-04-10T14:02:23Z</time>
      </trkpt>
      <trkpt lat="44.47269" lon="1.78334">
        <ele>148.4</ele>
        <time>2022-04-10T14:02:24Z</time>
      </trkpt>
      <trkpt lat="44.47268" lon="1.78334">
        <ele>148.4</ele>
        <time>2022-04-10T14:02:32Z</time>
      </trkpt>
      <trkpt lat="44.47268" lon="1.78334">
        <ele>148.5</ele>
        <time>2022-04-10T14:02:33Z</time>
      </trkpt>
      <trkpt lat="44.47267" lon="1.78334">
        <ele>148.5</ele>
        <time>2022-04-10T14:02:34Z</time>
      </trkpt>
      <trkpt lat="44.47263" lon="1.78337">
        <ele>148.5</ele>
        <time>2022-04-10T14:02:35Z</time>
      </trkpt>
      <trkpt lat="44.47262" lon="1.78338">
        <ele>148.5</ele>
        <time>2022-04-10T14:02:36Z</time>
      </trkpt>
      <trkpt lat="44.47259" lon="1.7834">
        <ele>148.5</ele>
        <time>2022-04-10T14:02:37Z</time>
      </trkpt>
      <trkpt lat="44.47258" lon="1.78341">
        <ele>148.8</ele>
        <time>2022-04-10T14:02:38Z</time>
      </trkpt>
      <trkpt lat="44.47256" lon="1.78343">
        <ele>148.8</ele>
        <time>2022-04-10T14:02:39Z</time>
      </trkpt>
      <trkpt lat="44.47256" lon="1.78344">
        <ele>148.8</ele>
        <time>2022-04-10T14:02:40Z</time>
      </trkpt>
      <trkpt lat="44.47253" lon="1.78346">
        <ele>148.8</ele>
        <time>2022-04-10T14:02:41Z</time>
      </trkpt>
      <trkpt lat="44.47252" lon="1.78346">
        <ele>148.8</ele>
        <time>2022-04-10T14:02:42Z</time>
      </trkpt>
      <trkpt lat="44.47249" lon="1.78346">
        <ele>148.8</ele>
        <time>2022-04-10T14:02:43Z</time>
      </trkpt>
      <trkpt lat="44.47248" lon="1.78346">
        <ele>150.3</ele>
        <time>2022-04-10T14:02:44Z</time>
      </trkpt>
      <trkpt lat="44.47246" lon="1.78345">
        <ele>150.6</ele>
        <time>2022-04-10T14:02:45Z</time>
      </trkpt>
      <trkpt lat="44.47245" lon="1.78345">
        <ele>151</ele>
        <time>2022-04-10T14:02:46Z</time>
      </trkpt>
      <trkpt lat="44.47244" lon="1.78346">
        <ele>151.1</ele>
        <time>2022-04-10T14:02:47Z</time>
      </trkpt>
      <trkpt lat="44.47245" lon="1.78346">
        <ele>151.3</ele>
        <time>2022-04-10T14:02:48Z</time>
      </trkpt>
      <trkpt lat="44.47246" lon="1.78346">
        <ele>151.4</ele>
        <time>2022-04-10T14:02:49Z</time>
      </trkpt>
      <trkpt lat="44.47247" lon="1.78346">
        <ele>151.6</ele>
        <time>2022-04-10T14:02:50Z</time>
      </trkpt>
      <trkpt lat="44.47248" lon="1.78347">
        <ele>151.8</ele>
        <time>2022-04-10T14:02:51Z</time>
      </trkpt>
      <trkpt lat="44.47252" lon="1.78347">
        <ele>152.5</ele>
        <time>2022-04-10T14:02:52Z</time>
      </trkpt>
      <trkpt lat="44.47253" lon="1.78347">
        <ele>152.8</ele>
        <time>2022-04-10T14:02:53Z</time>
      </trkpt>
      <trkpt lat="44.47254" lon="1.78348">
        <ele>153.2</ele>
        <time>2022-04-10T14:02:54Z</time>
      </trkpt>
      <trkpt lat="44.47256" lon="1.7835">
        <ele>153.6</ele>
        <time>2022-04-10T14:02:55Z</time>
      </trkpt>
      <trkpt lat="44.47257" lon="1.78352">
        <ele>153.9</ele>
        <time>2022-04-10T14:02:56Z</time>
      </trkpt>
      <trkpt lat="44.47258" lon="1.78353">
        <ele>154.2</ele>
        <time>2022-04-10T14:02:57Z</time>
      </trkpt>
      <trkpt lat="44.47259" lon="1.78357">
        <ele>154.8</ele>
        <time>2022-04-10T14:02:58Z</time>
      </trkpt>
      <trkpt lat="44.47259" lon="1.78359">
        <ele>155.1</ele>
        <time>2022-04-10T14:02:59Z</time>
      </trkpt>
      <trkpt lat="44.47261" lon="1.78363">
        <ele>155.8</ele>
        <time>2022-04-10T14:03:00Z</time>
      </trkpt>
      <trkpt lat="44.47263" lon="1.78368">
        <ele>156.7</ele>
        <time>2022-04-10T14:03:01Z</time>
      </trkpt>
      <trkpt lat="44.47266" lon="1.78374">
        <ele>157.7</ele>
        <time>2022-04-10T14:03:03Z</time>
      </trkpt>
      <trkpt lat="44.47269" lon="1.7838">
        <ele>158.8</ele>
        <time>2022-04-10T14:03:04Z</time>
      </trkpt>
      <trkpt lat="44.4727" lon="1.78384">
        <ele>159.5</ele>
        <time>2022-04-10T14:03:05Z</time>
      </trkpt>
      <trkpt lat="44.47271" lon="1.78388">
        <ele>160.1</ele>
        <time>2022-04-10T14:03:06Z</time>
      </trkpt>
      <trkpt lat="44.47272" lon="1.78393">
        <ele>160.9</ele>
        <time>2022-04-10T14:03:07Z</time>
      </trkpt>
      <trkpt lat="44.47274" lon="1.78399">
        <ele>161.8</ele>
        <time>2022-04-10T14:03:09Z</time>
      </trkpt>
      <trkpt lat="44.47275" lon="1.78405">
        <ele>162.7</ele>
        <time>2022-04-10T14:03:10Z</time>
      </trkpt>
      <trkpt lat="44.47276" lon="1.78409">
        <ele>163.3</ele>
        <time>2022-04-10T14:03:11Z</time>
      </trkpt>
      <trkpt lat="44.47278" lon="1.78413">
        <ele>163.9</ele>
        <time>2022-04-10T14:03:12Z</time>
      </trkpt>
      <trkpt lat="44.4728" lon="1.78418">
        <ele>164.7</ele>
        <time>2022-04-10T14:03:13Z</time>
      </trkpt>
      <trkpt lat="44.47281" lon="1.78419">
        <ele>165</ele>
        <time>2022-04-10T14:03:14Z</time>
      </trkpt>
      <trkpt lat="44.47284" lon="1.78425">
        <ele>165.9</ele>
        <time>2022-04-10T14:03:16Z</time>
      </trkpt>
      <trkpt lat="44.47287" lon="1.7843">
        <ele>166.8</ele>
        <time>2022-04-10T14:03:17Z</time>
      </trkpt>
      <trkpt lat="44.47289" lon="1.78434">
        <ele>167.5</ele>
        <time>2022-04-10T14:03:18Z</time>
      </trkpt>
      <trkpt lat="44.4729" lon="1.78436">
        <ele>167.8</ele>
        <time>2022-04-10T14:03:19Z</time>
      </trkpt>
      <trkpt lat="44.47292" lon="1.78443">
        <ele>168.9</ele>
        <time>2022-04-10T14:03:21Z</time>
      </trkpt>
      <trkpt lat="44.47296" lon="1.7845">
        <ele>169.1</ele>
        <time>2022-04-10T14:03:23Z</time>
      </trkpt>
      <trkpt lat="44.47298" lon="1.78455">
        <ele>169.1</ele>
        <time>2022-04-10T14:03:24Z</time>
      </trkpt>
      <trkpt lat="44.47299" lon="1.7846">
        <ele>169.2</ele>
        <time>2022-04-10T14:03:25Z</time>
      </trkpt>
      <trkpt lat="44.47299" lon="1.78464">
        <ele>169.3</ele>
        <time>2022-04-10T14:03:26Z</time>
      </trkpt>
      <trkpt lat="44.47302" lon="1.78467">
        <ele>169.4</ele>
        <time>2022-04-10T14:03:27Z</time>
      </trkpt>
      <trkpt lat="44.47304" lon="1.78472">
        <ele>169.5</ele>
        <time>2022-04-10T14:03:28Z</time>
      </trkpt>
      <trkpt lat="44.47306" lon="1.78476">
        <ele>169.6</ele>
        <time>2022-04-10T14:03:29Z</time>
      </trkpt>
      <trkpt lat="44.4731" lon="1.78483">
        <ele>169.8</ele>
        <time>2022-04-10T14:03:31Z</time>
      </trkpt>
      <trkpt lat="44.47314" lon="1.78489">
        <ele>170</ele>
        <time>2022-04-10T14:03:32Z</time>
      </trkpt>
      <trkpt lat="44.47317" lon="1.78495">
        <ele>170.3</ele>
        <time>2022-04-10T14:03:34Z</time>
      </trkpt>
      <trkpt lat="44.47321" lon="1.785">
        <ele>170.6</ele>
        <time>2022-04-10T14:03:35Z</time>
      </trkpt>
      <trkpt lat="44.47325" lon="1.78507">
        <ele>171</ele>
        <time>2022-04-10T14:03:36Z</time>
      </trkpt>
      <trkpt lat="44.47329" lon="1.78512">
        <ele>171.2</ele>
        <time>2022-04-10T14:03:37Z</time>
      </trkpt>
      <trkpt lat="44.47331" lon="1.78514">
        <ele>171.4</ele>
        <time>2022-04-10T14:03:38Z</time>
      </trkpt>
      <trkpt lat="44.47336" lon="1.78521">
        <ele>171.7</ele>
        <time>2022-04-10T14:03:40Z</time>
      </trkpt>
      <trkpt lat="44.4734" lon="1.78531">
        <ele>172.1</ele>
        <time>2022-04-10T14:03:41Z</time>
      </trkpt>
      <trkpt lat="44.47343" lon="1.78537">
        <ele>172.4</ele>
        <time>2022-04-10T14:03:42Z</time>
      </trkpt>
      <trkpt lat="44.47346" lon="1.78542">
        <ele>172.7</ele>
        <time>2022-04-10T14:03:43Z</time>
      </trkpt>
      <trkpt lat="44.47352" lon="1.78548">
        <ele>173.1</ele>
        <time>2022-04-10T14:03:45Z</time>
      </trkpt>
      <trkpt lat="44.47355" lon="1.78553">
        <ele>173.3</ele>
        <time>2022-04-10T14:03:46Z</time>
      </trkpt>
      <trkpt lat="44.4736" lon="1.78559">
        <ele>173.7</ele>
        <time>2022-04-10T14:03:47Z</time>
      </trkpt>
      <trkpt lat="44.47363" lon="1.78564">
        <ele>173.9</ele>
        <time>2022-04-10T14:03:48Z</time>
      </trkpt>
      <trkpt lat="44.47365" lon="1.78567">
        <ele>174.1</ele>
        <time>2022-04-10T14:03:49Z</time>
      </trkpt>
      <trkpt lat="44.47368" lon="1.78572">
        <ele>174.3</ele>
        <time>2022-04-10T14:03:50Z</time>
      </trkpt>
      <trkpt lat="44.47373" lon="1.78579">
        <ele>174.7</ele>
        <time>2022-04-10T14:03:51Z</time>
      </trkpt>
      <trkpt lat="44.47376" lon="1.78584">
        <ele>175</ele>
        <time>2022-04-10T14:03:52Z</time>
      </trkpt>
      <trkpt lat="44.4738" lon="1.78589">
        <ele>175.3</ele>
        <time>2022-04-10T14:03:53Z</time>
      </trkpt>
      <trkpt lat="44.47383" lon="1.78593">
        <ele>175.5</ele>
        <time>2022-04-10T14:03:54Z</time>
      </trkpt>
      <trkpt lat="44.47387" lon="1.78597">
        <ele>175.8</ele>
        <time>2022-04-10T14:03:55Z</time>
      </trkpt>
      <trkpt lat="44.47389" lon="1.78598">
        <ele>175.9</ele>
        <time>2022-04-10T14:03:56Z</time>
      </trkpt>
      <trkpt lat="44.47393" lon="1.78605">
        <ele>176.1</ele>
        <time>2022-04-10T14:03:57Z</time>
      </trkpt>
      <trkpt lat="44.47396" lon="1.7861">
        <ele>176.3</ele>
        <time>2022-04-10T14:03:58Z</time>
      </trkpt>
      <trkpt lat="44.47401" lon="1.78615">
        <ele>176.5</ele>
        <time>2022-04-10T14:03:59Z</time>
      </trkpt>
      <trkpt lat="44.47405" lon="1.7862">
        <ele>176.7</ele>
        <time>2022-04-10T14:04:00Z</time>
      </trkpt>
      <trkpt lat="44.47408" lon="1.78624">
        <ele>176.8</ele>
        <time>2022-04-10T14:04:01Z</time>
      </trkpt>
      <trkpt lat="44.47409" lon="1.78627">
        <ele>176.9</ele>
        <time>2022-04-10T14:04:02Z</time>
      </trkpt>
      <trkpt lat="44.47415" lon="1.78633">
        <ele>177</ele>
        <time>2022-04-10T14:04:04Z</time>
      </trkpt>
      <trkpt lat="44.47417" lon="1.78636">
        <ele>180</ele>
        <time>2022-04-10T14:04:05Z</time>
      </trkpt>
      <trkpt lat="44.47417" lon="1.78641">
        <ele>180.5</ele>
        <time>2022-04-10T14:04:06Z</time>
      </trkpt>
      <trkpt lat="44.47416" lon="1.78643">
        <ele>180.7</ele>
        <time>2022-04-10T14:04:07Z</time>
      </trkpt>
      <trkpt lat="44.47413" lon="1.78643">
        <ele>181.1</ele>
        <time>2022-04-10T14:04:09Z</time>
      </trkpt>
      <trkpt lat="44.47412" lon="1.78641">
        <ele>181.5</ele>
        <time>2022-04-10T14:04:10Z</time>
      </trkpt>
      <trkpt lat="44.47409" lon="1.78637">
        <ele>182</ele>
        <time>2022-04-10T14:04:12Z</time>
      </trkpt>
      <trkpt lat="44.47406" lon="1.78634">
        <ele>182.6</ele>
        <time>2022-04-10T14:04:13Z</time>
      </trkpt>
      <trkpt lat="44.47404" lon="1.78631">
        <ele>183.1</ele>
        <time>2022-04-10T14:04:14Z</time>
      </trkpt>
      <trkpt lat="44.47403" lon="1.7863">
        <ele>183.2</ele>
        <time>2022-04-10T14:04:15Z</time>
      </trkpt>
      <trkpt lat="44.47397" lon="1.78627">
        <ele>184.1</ele>
        <time>2022-04-10T14:04:17Z</time>
      </trkpt>
      <trkpt lat="44.47392" lon="1.78626">
        <ele>184.9</ele>
        <time>2022-04-10T14:04:18Z</time>
      </trkpt>
      <trkpt lat="44.47384" lon="1.78622">
        <ele>186.3</ele>
        <time>2022-04-10T14:04:19Z</time>
      </trkpt>
      <trkpt lat="44.47379" lon="1.7862">
        <ele>187.2</ele>
        <time>2022-04-10T14:04:20Z</time>
      </trkpt>
      <trkpt lat="44.47374" lon="1.78618">
        <ele>188.1</ele>
        <time>2022-04-10T14:04:21Z</time>
      </trkpt>
      <trkpt lat="44.47369" lon="1.78616">
        <ele>188.9</ele>
        <time>2022-04-10T14:04:22Z</time>
      </trkpt>
      <trkpt lat="44.47364" lon="1.78616">
        <ele>190.3</ele>
        <time>2022-04-10T14:04:23Z</time>
      </trkpt>
      <trkpt lat="44.47362" lon="1.78616">
        <ele>190.7</ele>
        <time>2022-04-10T14:04:24Z</time>
      </trkpt>
      <trkpt lat="44.47359" lon="1.78618">
        <ele>191.2</ele>
        <time>2022-04-10T14:04:25Z</time>
      </trkpt>
      <trkpt lat="44.47357" lon="1.78621">
        <ele>191.5</ele>
        <time>2022-04-10T14:04:27Z</time>
      </trkpt>
      <trkpt lat="44.47359" lon="1.78623">
        <ele>191.8</ele>
        <time>2022-04-10T14:04:28Z</time>
      </trkpt>
      <trkpt lat="44.47363" lon="1.78624">
        <ele>192.4</ele>
        <time>2022-04-10T14:04:29Z</time>
      </trkpt>
      <trkpt lat="44.47366" lon="1.78627">
        <ele>193</ele>
        <time>2022-04-10T14:04:31Z</time>
      </trkpt>
      <trkpt lat="44.47368" lon="1.78631">
        <ele>193.6</ele>
        <time>2022-04-10T14:04:32Z</time>
      </trkpt>
      <trkpt lat="44.47369" lon="1.78633">
        <ele>193.8</ele>
        <time>2022-04-10T14:04:33Z</time>
      </trkpt>
      <trkpt lat="44.47372" lon="1.78636">
        <ele>194.3</ele>
        <time>2022-04-10T14:04:34Z</time>
      </trkpt>
      <trkpt lat="44.47375" lon="1.78639">
        <ele>194.9</ele>
        <time>2022-04-10T14:04:35Z</time>
      </trkpt>
      <trkpt lat="44.47377" lon="1.78643">
        <ele>195.4</ele>
        <time>2022-04-10T14:04:37Z</time>
      </trkpt>
      <trkpt lat="44.4738" lon="1.78646">
        <ele>195.9</ele>
        <time>2022-04-10T14:04:38Z</time>
      </trkpt>
      <trkpt lat="44.47382" lon="1.78649">
        <ele>196.4</ele>
        <time>2022-04-10T14:04:39Z</time>
      </trkpt>
      <trkpt lat="44.47385" lon="1.78654">
        <ele>197</ele>
        <time>2022-04-10T14:04:40Z</time>
      </trkpt>
      <trkpt lat="44.47389" lon="1.78659">
        <ele>197.8</ele>
        <time>2022-04-10T14:04:41Z</time>
      </trkpt>
      <trkpt lat="44.47391" lon="1.78662">
        <ele>198.4</ele>
        <time>2022-04-10T14:04:42Z</time>
      </trkpt>
      <trkpt lat="44.47395" lon="1.78666">
        <ele>199</ele>
        <time>2022-04-10T14:04:44Z</time>
      </trkpt>
      <trkpt lat="44.47398" lon="1.78672">
        <ele>199.9</ele>
        <time>2022-04-10T14:04:45Z</time>
      </trkpt>
      <trkpt lat="44.47401" lon="1.78676">
        <ele>200.6</ele>
        <time>2022-04-10T14:04:46Z</time>
      </trkpt>
      <trkpt lat="44.47403" lon="1.78681">
        <ele>201.3</ele>
        <time>2022-04-10T14:04:47Z</time>
      </trkpt>
      <trkpt lat="44.47406" lon="1.78684">
        <ele>201.9</ele>
        <time>2022-04-10T14:04:48Z</time>
      </trkpt>
      <trkpt lat="44.4741" lon="1.78688">
        <ele>202.7</ele>
        <time>2022-04-10T14:04:50Z</time>
      </trkpt>
      <trkpt lat="44.47413" lon="1.78695">
        <ele>203.7</ele>
        <time>2022-04-10T14:04:51Z</time>
      </trkpt>
      <trkpt lat="44.47415" lon="1.787">
        <ele>204.4</ele>
        <time>2022-04-10T14:04:52Z</time>
      </trkpt>
      <trkpt lat="44.47417" lon="1.78704">
        <ele>205</ele>
        <time>2022-04-10T14:04:53Z</time>
      </trkpt>
      <trkpt lat="44.47419" lon="1.78708">
        <ele>205.6</ele>
        <time>2022-04-10T14:04:54Z</time>
      </trkpt>
      <trkpt lat="44.47422" lon="1.78713">
        <ele>206.4</ele>
        <time>2022-04-10T14:04:56Z</time>
      </trkpt>
      <trkpt lat="44.47425" lon="1.78718">
        <ele>207</ele>
        <time>2022-04-10T14:04:57Z</time>
      </trkpt>
      <trkpt lat="44.47428" lon="1.78722">
        <ele>207.6</ele>
        <time>2022-04-10T14:04:58Z</time>
      </trkpt>
      <trkpt lat="44.4743" lon="1.78727">
        <ele>208.1</ele>
        <time>2022-04-10T14:04:59Z</time>
      </trkpt>
      <trkpt lat="44.47432" lon="1.78733">
        <ele>208.7</ele>
        <time>2022-04-10T14:05:00Z</time>
      </trkpt>
      <trkpt lat="44.47434" lon="1.78737">
        <ele>209.1</ele>
        <time>2022-04-10T14:05:01Z</time>
      </trkpt>
      <trkpt lat="44.47436" lon="1.78741">
        <ele>209.4</ele>
        <time>2022-04-10T14:05:02Z</time>
      </trkpt>
      <trkpt lat="44.47442" lon="1.7875">
        <ele>210.3</ele>
        <time>2022-04-10T14:05:04Z</time>
      </trkpt>
      <trkpt lat="44.47447" lon="1.78756">
        <ele>210.9</ele>
        <time>2022-04-10T14:05:05Z</time>
      </trkpt>
      <trkpt lat="44.47451" lon="1.78762">
        <ele>211.6</ele>
        <time>2022-04-10T14:05:06Z</time>
      </trkpt>
      <trkpt lat="44.47455" lon="1.78768">
        <ele>212.3</ele>
        <time>2022-04-10T14:05:07Z</time>
      </trkpt>
      <trkpt lat="44.47459" lon="1.78773">
        <ele>213</ele>
        <time>2022-04-10T14:05:08Z</time>
      </trkpt>
      <trkpt lat="44.47463" lon="1.78779">
        <ele>213.9</ele>
        <time>2022-04-10T14:05:09Z</time>
      </trkpt>
      <trkpt lat="44.47467" lon="1.78784">
        <ele>214.7</ele>
        <time>2022-04-10T14:05:10Z</time>
      </trkpt>
      <trkpt lat="44.47471" lon="1.7879">
        <ele>215.5</ele>
        <time>2022-04-10T14:05:11Z</time>
      </trkpt>
      <trkpt lat="44.47475" lon="1.78794">
        <ele>216.3</ele>
        <time>2022-04-10T14:05:12Z</time>
      </trkpt>
      <trkpt lat="44.47479" lon="1.78798">
        <ele>217.2</ele>
        <time>2022-04-10T14:05:14Z</time>
      </trkpt>
      <trkpt lat="44.47486" lon="1.78807">
        <ele>218.7</ele>
        <time>2022-04-10T14:05:15Z</time>
      </trkpt>
      <trkpt lat="44.47488" lon="1.78809">
        <ele>219.2</ele>
        <time>2022-04-10T14:05:16Z</time>
      </trkpt>
      <trkpt lat="44.47491" lon="1.78812">
        <ele>219.9</ele>
        <time>2022-04-10T14:05:17Z</time>
      </trkpt>
      <trkpt lat="44.47495" lon="1.78819">
        <ele>221</ele>
        <time>2022-04-10T14:05:19Z</time>
      </trkpt>
      <trkpt lat="44.47498" lon="1.78824">
        <ele>221.9</ele>
        <time>2022-04-10T14:05:20Z</time>
      </trkpt>
      <trkpt lat="44.47502" lon="1.7883">
        <ele>222.8</ele>
        <time>2022-04-10T14:05:21Z</time>
      </trkpt>
      <trkpt lat="44.47505" lon="1.78833">
        <ele>223.3</ele>
        <time>2022-04-10T14:05:22Z</time>
      </trkpt>
      <trkpt lat="44.47509" lon="1.78838">
        <ele>224.1</ele>
        <time>2022-04-10T14:05:24Z</time>
      </trkpt>
      <trkpt lat="44.47511" lon="1.78844">
        <ele>224.9</ele>
        <time>2022-04-10T14:05:25Z</time>
      </trkpt>
      <trkpt lat="44.47513" lon="1.78848">
        <ele>225.5</ele>
        <time>2022-04-10T14:05:26Z</time>
      </trkpt>
      <trkpt lat="44.47516" lon="1.78854">
        <ele>226.3</ele>
        <time>2022-04-10T14:05:27Z</time>
      </trkpt>
      <trkpt lat="44.47518" lon="1.78859">
        <ele>227</ele>
        <time>2022-04-10T14:05:28Z</time>
      </trkpt>
      <trkpt lat="44.47521" lon="1.78864">
        <ele>227.8</ele>
        <time>2022-04-10T14:05:29Z</time>
      </trkpt>
      <trkpt lat="44.47523" lon="1.78869">
        <ele>228.5</ele>
        <time>2022-04-10T14:05:31Z</time>
      </trkpt>
      <trkpt lat="44.47525" lon="1.78876">
        <ele>229.4</ele>
        <time>2022-04-10T14:05:32Z</time>
      </trkpt>
      <trkpt lat="44.47527" lon="1.78881">
        <ele>230.1</ele>
        <time>2022-04-10T14:05:33Z</time>
      </trkpt>
      <trkpt lat="44.47528" lon="1.78887">
        <ele>230.6</ele>
        <time>2022-04-10T14:05:34Z</time>
      </trkpt>
      <trkpt lat="44.47529" lon="1.7889">
        <ele>231</ele>
        <time>2022-04-10T14:05:35Z</time>
      </trkpt>
      <trkpt lat="44.47531" lon="1.78895">
        <ele>231.6</ele>
        <time>2022-04-10T14:05:37Z</time>
      </trkpt>
      <trkpt lat="44.47532" lon="1.78902">
        <ele>232.3</ele>
        <time>2022-04-10T14:05:38Z</time>
      </trkpt>
      <trkpt lat="44.47534" lon="1.78912">
        <ele>233.1</ele>
        <time>2022-04-10T14:05:39Z</time>
      </trkpt>
      <trkpt lat="44.47535" lon="1.78918">
        <ele>233.7</ele>
        <time>2022-04-10T14:05:40Z</time>
      </trkpt>
      <trkpt lat="44.47537" lon="1.78923">
        <ele>234.1</ele>
        <time>2022-04-10T14:05:41Z</time>
      </trkpt>
      <trkpt lat="44.47539" lon="1.78928">
        <ele>234.6</ele>
        <time>2022-04-10T14:05:42Z</time>
      </trkpt>
      <trkpt lat="44.47542" lon="1.78932">
        <ele>235</ele>
        <time>2022-04-10T14:05:43Z</time>
      </trkpt>
      <trkpt lat="44.47546" lon="1.78939">
        <ele>235.7</ele>
        <time>2022-04-10T14:05:45Z</time>
      </trkpt>
      <trkpt lat="44.47553" lon="1.78949">
        <ele>236.6</ele>
        <time>2022-04-10T14:05:46Z</time>
      </trkpt>
      <trkpt lat="44.47556" lon="1.78954">
        <ele>237.1</ele>
        <time>2022-04-10T14:05:47Z</time>
      </trkpt>
      <trkpt lat="44.47559" lon="1.78956">
        <ele>237.5</ele>
        <time>2022-04-10T14:05:49Z</time>
      </trkpt>
      <trkpt lat="44.47565" lon="1.7897">
        <ele>238.5</ele>
        <time>2022-04-10T14:05:50Z</time>
      </trkpt>
      <trkpt lat="44.47567" lon="1.78976">
        <ele>239</ele>
        <time>2022-04-10T14:05:51Z</time>
      </trkpt>
      <trkpt lat="44.47569" lon="1.78983">
        <ele>239.5</ele>
        <time>2022-04-10T14:05:52Z</time>
      </trkpt>
      <trkpt lat="44.47572" lon="1.78995">
        <ele>240.6</ele>
        <time>2022-04-10T14:05:54Z</time>
      </trkpt>
      <trkpt lat="44.47575" lon="1.79003">
        <ele>241.4</ele>
        <time>2022-04-10T14:05:55Z</time>
      </trkpt>
      <trkpt lat="44.47577" lon="1.79011">
        <ele>242.3</ele>
        <time>2022-04-10T14:05:56Z</time>
      </trkpt>
      <trkpt lat="44.47577" lon="1.79019">
        <ele>243.1</ele>
        <time>2022-04-10T14:05:57Z</time>
      </trkpt>
      <trkpt lat="44.47577" lon="1.79026">
        <ele>243.9</ele>
        <time>2022-04-10T14:05:58Z</time>
      </trkpt>
      <trkpt lat="44.47577" lon="1.7903">
        <ele>244.4</ele>
        <time>2022-04-10T14:05:59Z</time>
      </trkpt>
      <trkpt lat="44.47578" lon="1.79038">
        <ele>245.5</ele>
        <time>2022-04-10T14:06:01Z</time>
      </trkpt>
      <trkpt lat="44.47577" lon="1.79045">
        <ele>246.5</ele>
        <time>2022-04-10T14:06:02Z</time>
      </trkpt>
      <trkpt lat="44.47577" lon="1.79051">
        <ele>247.3</ele>
        <time>2022-04-10T14:06:03Z</time>
      </trkpt>
      <trkpt lat="44.47577" lon="1.79055">
        <ele>247.9</ele>
        <time>2022-04-10T14:06:04Z</time>
      </trkpt>
      <trkpt lat="44.47577" lon="1.7906">
        <ele>248.5</ele>
        <time>2022-04-10T14:06:05Z</time>
      </trkpt>
      <trkpt lat="44.47577" lon="1.79061">
        <ele>248.7</ele>
        <time>2022-04-10T14:06:06Z</time>
      </trkpt>
      <trkpt lat="44.47578" lon="1.79065">
        <ele>249.2</ele>
        <time>2022-04-10T14:06:07Z</time>
      </trkpt>
      <trkpt lat="44.47577" lon="1.79069">
        <ele>249.7</ele>
        <time>2022-04-10T14:06:09Z</time>
      </trkpt>
      <trkpt lat="44.47577" lon="1.79074">
        <ele>250.4</ele>
        <time>2022-04-10T14:06:10Z</time>
      </trkpt>
      <trkpt lat="44.47578" lon="1.79076">
        <ele>250.6</ele>
        <time>2022-04-10T14:06:11Z</time>
      </trkpt>
      <trkpt lat="44.47578" lon="1.7908">
        <ele>251.1</ele>
        <time>2022-04-10T14:06:12Z</time>
      </trkpt>
      <trkpt lat="44.47578" lon="1.79085">
        <ele>251.6</ele>
        <time>2022-04-10T14:06:14Z</time>
      </trkpt>
      <trkpt lat="44.47578" lon="1.7909">
        <ele>252.3</ele>
        <time>2022-04-10T14:06:15Z</time>
      </trkpt>
      <trkpt lat="44.47577" lon="1.79095">
        <ele>252.8</ele>
        <time>2022-04-10T14:06:16Z</time>
      </trkpt>
      <trkpt lat="44.47577" lon="1.79097">
        <ele>253.1</ele>
        <time>2022-04-10T14:06:17Z</time>
      </trkpt>
      <trkpt lat="44.47577" lon="1.79103">
        <ele>253.8</ele>
        <time>2022-04-10T14:06:18Z</time>
      </trkpt>
      <trkpt lat="44.47577" lon="1.79108">
        <ele>254.4</ele>
        <time>2022-04-10T14:06:20Z</time>
      </trkpt>
      <trkpt lat="44.47577" lon="1.79115">
        <ele>255.1</ele>
        <time>2022-04-10T14:06:21Z</time>
      </trkpt>
      <trkpt lat="44.47577" lon="1.79122">
        <ele>255.9</ele>
        <time>2022-04-10T14:06:23Z</time>
      </trkpt>
      <trkpt lat="44.47577" lon="1.79127">
        <ele>256.3</ele>
        <time>2022-04-10T14:06:24Z</time>
      </trkpt>
      <trkpt lat="44.47578" lon="1.79132">
        <ele>256.7</ele>
        <time>2022-04-10T14:06:25Z</time>
      </trkpt>
      <trkpt lat="44.47582" lon="1.79142">
        <ele>257.5</ele>
        <time>2022-04-10T14:06:27Z</time>
      </trkpt>
      <trkpt lat="44.47587" lon="1.79151">
        <ele>258.1</ele>
        <time>2022-04-10T14:06:28Z</time>
      </trkpt>
      <trkpt lat="44.47591" lon="1.79158">
        <ele>258.4</ele>
        <time>2022-04-10T14:06:29Z</time>
      </trkpt>
      <trkpt lat="44.47594" lon="1.79165">
        <ele>258.8</ele>
        <time>2022-04-10T14:06:30Z</time>
      </trkpt>
      <trkpt lat="44.47598" lon="1.79171">
        <ele>259.1</ele>
        <time>2022-04-10T14:06:31Z</time>
      </trkpt>
      <trkpt lat="44.47601" lon="1.79176">
        <ele>259.5</ele>
        <time>2022-04-10T14:06:32Z</time>
      </trkpt>
      <trkpt lat="44.47603" lon="1.7918">
        <ele>259.7</ele>
        <time>2022-04-10T14:06:33Z</time>
      </trkpt>
      <trkpt lat="44.47605" lon="1.79186">
        <ele>260</ele>
        <time>2022-04-10T14:06:34Z</time>
      </trkpt>
      <trkpt lat="44.47606" lon="1.7919">
        <ele>260.2</ele>
        <time>2022-04-10T14:06:35Z</time>
      </trkpt>
      <trkpt lat="44.47608" lon="1.79194">
        <ele>260.4</ele>
        <time>2022-04-10T14:06:36Z</time>
      </trkpt>
      <trkpt lat="44.4761" lon="1.79197">
        <ele>260.6</ele>
        <time>2022-04-10T14:06:37Z</time>
      </trkpt>
      <trkpt lat="44.47613" lon="1.79201">
        <ele>260.6</ele>
        <time>2022-04-10T14:06:38Z</time>
      </trkpt>
      <trkpt lat="44.47614" lon="1.79202">
        <ele>260.6</ele>
        <time>2022-04-10T14:06:39Z</time>
      </trkpt>
      <trkpt lat="44.47616" lon="1.79204">
        <ele>260.5</ele>
        <time>2022-04-10T14:06:40Z</time>
      </trkpt>
      <trkpt lat="44.47622" lon="1.79208">
        <ele>260.3</ele>
        <time>2022-04-10T14:06:42Z</time>
      </trkpt>
      <trkpt lat="44.47627" lon="1.7921">
        <ele>260.2</ele>
        <time>2022-04-10T14:06:43Z</time>
      </trkpt>
      <trkpt lat="44.47632" lon="1.79211">
        <ele>260.1</ele>
        <time>2022-04-10T14:06:44Z</time>
      </trkpt>
      <trkpt lat="44.47636" lon="1.79213">
        <ele>260</ele>
        <time>2022-04-10T14:06:45Z</time>
      </trkpt>
      <trkpt lat="44.4764" lon="1.79216">
        <ele>260</ele>
        <time>2022-04-10T14:06:47Z</time>
      </trkpt>
      <trkpt lat="44.47644" lon="1.79219">
        <ele>259.9</ele>
        <time>2022-04-10T14:06:48Z</time>
      </trkpt>
      <trkpt lat="44.47647" lon="1.79221">
        <ele>259.8</ele>
        <time>2022-04-10T14:06:49Z</time>
      </trkpt>
      <trkpt lat="44.47651" lon="1.79224">
        <ele>259.7</ele>
        <time>2022-04-10T14:06:50Z</time>
      </trkpt>
      <trkpt lat="44.47653" lon="1.79226">
        <ele>259.7</ele>
        <time>2022-04-10T14:06:51Z</time>
      </trkpt>
      <trkpt lat="44.47657" lon="1.79229">
        <ele>259.6</ele>
        <time>2022-04-10T14:06:53Z</time>
      </trkpt>
      <trkpt lat="44.47658" lon="1.79233">
        <ele>259.6</ele>
        <time>2022-04-10T14:06:54Z</time>
      </trkpt>
      <trkpt lat="44.47659" lon="1.79237">
        <ele>259.5</ele>
        <time>2022-04-10T14:06:55Z</time>
      </trkpt>
      <trkpt lat="44.47661" lon="1.79238">
        <ele>259.5</ele>
        <time>2022-04-10T14:06:56Z</time>
      </trkpt>
      <trkpt lat="44.47659" lon="1.79236">
        <ele>259.4</ele>
        <time>2022-04-10T14:06:57Z</time>
      </trkpt>
      <trkpt lat="44.47658" lon="1.79235">
        <ele>259.4</ele>
        <time>2022-04-10T14:06:58Z</time>
      </trkpt>
      <trkpt lat="44.47658" lon="1.79234">
        <ele>259.4</ele>
        <time>2022-04-10T14:07:00Z</time>
      </trkpt>
      <trkpt lat="44.47658" lon="1.79234">
        <ele>259.4</ele>
        <time>2022-04-10T14:07:01Z</time>
      </trkpt>
      <trkpt lat="44.47658" lon="1.79234">
        <ele>259.4</ele>
        <time>2022-04-10T14:07:02Z</time>
      </trkpt>
      <trkpt lat="44.47658" lon="1.79234">
        <ele>259.4</ele>
        <time>2022-04-10T14:07:03Z</time>
      </trkpt>
      <trkpt lat="44.47658" lon="1.79234">
        <ele>259.4</ele>
        <time>2022-04-10T14:07:04Z</time>
      </trkpt>
      <trkpt lat="44.47658" lon="1.79234">
        <ele>259.4</ele>
        <time>2022-04-10T14:07:05Z</time>
      </trkpt>
      <trkpt lat="44.47657" lon="1.7923">
        <ele>259.3</ele>
        <time>2022-04-10T14:08:43Z</time>
      </trkpt>
      <trkpt lat="44.47658" lon="1.79226">
        <ele>259.3</ele>
        <time>2022-04-10T14:08:44Z</time>
      </trkpt>
      <trkpt lat="44.47658" lon="1.79221">
        <ele>259.2</ele>
        <time>2022-04-10T14:08:45Z</time>
      </trkpt>
      <trkpt lat="44.47658" lon="1.7922">
        <ele>259.2</ele>
        <time>2022-04-10T14:08:46Z</time>
      </trkpt>
      <trkpt lat="44.47659" lon="1.79218">
        <ele>259.2</ele>
        <time>2022-04-10T14:08:47Z</time>
      </trkpt>
      <trkpt lat="44.4766" lon="1.79216">
        <ele>259.2</ele>
        <time>2022-04-10T14:08:48Z</time>
      </trkpt>
      <trkpt lat="44.4766" lon="1.79215">
        <ele>259.2</ele>
        <time>2022-04-10T14:08:49Z</time>
      </trkpt>
      <trkpt lat="44.4766" lon="1.79216">
        <ele>259.2</ele>
        <time>2022-04-10T14:08:50Z</time>
      </trkpt>
      <trkpt lat="44.4766" lon="1.79216">
        <ele>259.2</ele>
        <time>2022-04-10T14:08:51Z</time>
      </trkpt>
      <trkpt lat="44.4766" lon="1.79216">
        <ele>259.2</ele>
        <time>2022-04-10T14:08:52Z</time>
      </trkpt>
      <trkpt lat="44.4766" lon="1.79217">
        <ele>259.2</ele>
        <time>2022-04-10T14:08:53Z</time>
      </trkpt>
      <trkpt lat="44.4766" lon="1.79217">
        <ele>259.2</ele>
        <time>2022-04-10T14:08:54Z</time>
      </trkpt>
      <trkpt lat="44.4766" lon="1.79218">
        <ele>259.2</ele>
        <time>2022-04-10T14:08:55Z</time>
      </trkpt>
      <trkpt lat="44.4766" lon="1.79218">
        <ele>259.2</ele>
        <time>2022-04-10T14:08:56Z</time>
      </trkpt>
      <trkpt lat="44.4766" lon="1.79218">
        <ele>259.1</ele>
        <time>2022-04-10T14:08:57Z</time>
      </trkpt>
      <trkpt lat="44.4766" lon="1.79219">
        <ele>259.1</ele>
        <time>2022-04-10T14:08:58Z</time>
      </trkpt>
      <trkpt lat="44.47659" lon="1.79219">
        <ele>259.1</ele>
        <time>2022-04-10T14:08:59Z</time>
      </trkpt>
      <trkpt lat="44.47659" lon="1.7922">
        <ele>259.1</ele>
        <time>2022-04-10T14:09:59Z</time>
      </trkpt>
      <trkpt lat="44.47659" lon="1.7922">
        <ele>259.1</ele>
        <time>2022-04-10T14:10:00Z</time>
      </trkpt>
      <trkpt lat="44.47659" lon="1.79221">
        <ele>259.1</ele>
        <time>2022-04-10T14:10:01Z</time>
      </trkpt>
      <trkpt lat="44.47659" lon="1.79218">
        <ele>259.1</ele>
        <time>2022-04-10T14:10:02Z</time>
      </trkpt>
      <trkpt lat="44.4766" lon="1.79217">
        <ele>259.1</ele>
        <time>2022-04-10T14:10:03Z</time>
      </trkpt>
      <trkpt lat="44.4766" lon="1.79216">
        <ele>259.1</ele>
        <time>2022-04-10T14:10:04Z</time>
      </trkpt>
      <trkpt lat="44.4766" lon="1.79216">
        <ele>259.1</ele>
        <time>2022-04-10T14:10:05Z</time>
      </trkpt>
      <trkpt lat="44.4766" lon="1.79216">
        <ele>259.1</ele>
        <time>2022-04-10T14:10:06Z</time>
      </trkpt>
      <trkpt lat="44.4766" lon="1.79216">
        <ele>259.1</ele>
        <time>2022-04-10T14:10:07Z</time>
      </trkpt>
      <trkpt lat="44.4766" lon="1.79216">
        <ele>259.1</ele>
        <time>2022-04-10T14:10:08Z</time>
      </trkpt>
      <trkpt lat="44.4766" lon="1.79216">
        <ele>259.1</ele>
        <time>2022-04-10T14:10:09Z</time>
      </trkpt>
      <trkpt lat="44.4766" lon="1.79216">
        <ele>259.1</ele>
        <time>2022-04-10T14:10:10Z</time>
      </trkpt>
      <trkpt lat="44.4766" lon="1.79216">
        <ele>259.1</ele>
        <time>2022-04-10T14:10:11Z</time>
      </trkpt>
      <trkpt lat="44.4766" lon="1.79216">
        <ele>259.1</ele>
        <time>2022-04-10T14:10:12Z</time>
      </trkpt>
      <trkpt lat="44.47658" lon="1.79221">
        <ele>259.1</ele>
        <time>2022-04-10T14:11:08Z</time>
      </trkpt>
      <trkpt lat="44.47657" lon="1.79224">
        <ele>259</ele>
        <time>2022-04-10T14:11:09Z</time>
      </trkpt>
      <trkpt lat="44.47656" lon="1.79225">
        <ele>259</ele>
        <time>2022-04-10T14:11:10Z</time>
      </trkpt>
      <trkpt lat="44.47656" lon="1.79226">
        <ele>259</ele>
        <time>2022-04-10T14:11:11Z</time>
      </trkpt>
      <trkpt lat="44.47656" lon="1.79228">
        <ele>259</ele>
        <time>2022-04-10T14:11:12Z</time>
      </trkpt>
      <trkpt lat="44.47656" lon="1.79229">
        <ele>259</ele>
        <time>2022-04-10T14:11:13Z</time>
      </trkpt>
      <trkpt lat="44.47656" lon="1.7923">
        <ele>259</ele>
        <time>2022-04-10T14:11:14Z</time>
      </trkpt>
      <trkpt lat="44.47656" lon="1.79231">
        <ele>259</ele>
        <time>2022-04-10T14:11:15Z</time>
      </trkpt>
      <trkpt lat="44.47656" lon="1.79231">
        <ele>259</ele>
        <time>2022-04-10T14:11:16Z</time>
      </trkpt>
      <trkpt lat="44.47656" lon="1.79231">
        <ele>259</ele>
        <time>2022-04-10T14:11:17Z</time>
      </trkpt>
      <trkpt lat="44.47656" lon="1.79231">
        <ele>259</ele>
        <time>2022-04-10T14:11:18Z</time>
      </trkpt>
      <trkpt lat="44.47656" lon="1.79231">
        <ele>259</ele>
        <time>2022-04-10T14:11:19Z</time>
      </trkpt>
      <trkpt lat="44.47656" lon="1.79231">
        <ele>259</ele>
        <time>2022-04-10T14:11:20Z</time>
      </trkpt>
      <trkpt lat="44.47656" lon="1.79231">
        <ele>259</ele>
        <time>2022-04-10T14:11:21Z</time>
      </trkpt>
      <trkpt lat="44.4766" lon="1.79221">
        <ele>258.9</ele>
        <time>2022-04-10T14:17:53Z</time>
      </trkpt>
      <trkpt lat="44.4766" lon="1.79218">
        <ele>258.9</ele>
        <time>2022-04-10T14:17:54Z</time>
      </trkpt>
      <trkpt lat="44.47661" lon="1.79216">
        <ele>258.9</ele>
        <time>2022-04-10T14:17:55Z</time>
      </trkpt>
      <trkpt lat="44.47661" lon="1.79215">
        <ele>258.9</ele>
        <time>2022-04-10T14:17:56Z</time>
      </trkpt>
      <trkpt lat="44.47661" lon="1.79215">
        <ele>258.9</ele>
        <time>2022-04-10T14:17:57Z</time>
      </trkpt>
      <trkpt lat="44.47662" lon="1.79215">
        <ele>258.9</ele>
        <time>2022-04-10T14:17:58Z</time>
      </trkpt>
      <trkpt lat="44.47662" lon="1.79215">
        <ele>258.9</ele>
        <time>2022-04-10T14:17:59Z</time>
      </trkpt>
      <trkpt lat="44.47662" lon="1.79215">
        <ele>258.9</ele>
        <time>2022-04-10T14:18:00Z</time>
      </trkpt>
      <trkpt lat="44.47662" lon="1.79215">
        <ele>258.9</ele>
        <time>2022-04-10T14:18:01Z</time>
      </trkpt>
      <trkpt lat="44.47662" lon="1.79215">
        <ele>258.9</ele>
        <time>2022-04-10T14:18:02Z</time>
      </trkpt>
      <trkpt lat="44.47662" lon="1.79215">
        <ele>258.9</ele>
        <time>2022-04-10T14:18:03Z</time>
      </trkpt>
      <trkpt lat="44.47662" lon="1.79215">
        <ele>258.9</ele>
        <time>2022-04-10T14:18:04Z</time>
      </trkpt>
      <trkpt lat="44.47661" lon="1.79221">
        <ele>258.9</ele>
        <time>2022-04-10T14:21:23Z</time>
      </trkpt>
      <trkpt lat="44.47663" lon="1.79217">
        <ele>258.9</ele>
        <time>2022-04-10T14:21:24Z</time>
      </trkpt>
      <trkpt lat="44.47666" lon="1.79226">
        <ele>258.8</ele>
        <time>2022-04-10T14:21:26Z</time>
      </trkpt>
      <trkpt lat="44.47669" lon="1.79227">
        <ele>258.8</ele>
        <time>2022-04-10T14:21:27Z</time>
      </trkpt>
      <trkpt lat="44.47674" lon="1.79229">
        <ele>258.8</ele>
        <time>2022-04-10T14:21:29Z</time>
      </trkpt>
      <trkpt lat="44.47679" lon="1.79229">
        <ele>258.8</ele>
        <time>2022-04-10T14:21:30Z</time>
      </trkpt>
      <trkpt lat="44.47682" lon="1.79228">
        <ele>258.8</ele>
        <time>2022-04-10T14:21:31Z</time>
      </trkpt>
      <trkpt lat="44.47683" lon="1.79228">
        <ele>258.8</ele>
        <time>2022-04-10T14:21:32Z</time>
      </trkpt>
      <trkpt lat="44.47685" lon="1.79228">
        <ele>259.1</ele>
        <time>2022-04-10T14:21:33Z</time>
      </trkpt>
      <trkpt lat="44.47687" lon="1.7923">
        <ele>259.5</ele>
        <time>2022-04-10T14:21:35Z</time>
      </trkpt>
      <trkpt lat="44.4769" lon="1.79231">
        <ele>260</ele>
        <time>2022-04-10T14:21:36Z</time>
      </trkpt>
      <trkpt lat="44.47692" lon="1.79232">
        <ele>260.2</ele>
        <time>2022-04-10T14:21:37Z</time>
      </trkpt>
      <trkpt lat="44.47693" lon="1.79233">
        <ele>260.4</ele>
        <time>2022-04-10T14:21:38Z</time>
      </trkpt>
      <trkpt lat="44.47694" lon="1.79235">
        <ele>260.6</ele>
        <time>2022-04-10T14:21:39Z</time>
      </trkpt>
      <trkpt lat="44.47696" lon="1.79234">
        <ele>260.8</ele>
        <time>2022-04-10T14:21:40Z</time>
      </trkpt>
      <trkpt lat="44.47698" lon="1.79235">
        <ele>261</ele>
        <time>2022-04-10T14:21:41Z</time>
      </trkpt>
      <trkpt lat="44.47703" lon="1.79238">
        <ele>261.4</ele>
        <time>2022-04-10T14:21:43Z</time>
      </trkpt>
      <trkpt lat="44.47708" lon="1.79244">
        <ele>261.8</ele>
        <time>2022-04-10T14:21:44Z</time>
      </trkpt>
      <trkpt lat="44.47711" lon="1.7925">
        <ele>261.9</ele>
        <time>2022-04-10T14:21:45Z</time>
      </trkpt>
      <trkpt lat="44.47715" lon="1.79255">
        <ele>262</ele>
        <time>2022-04-10T14:21:46Z</time>
      </trkpt>
      <trkpt lat="44.4772" lon="1.7926">
        <ele>262.1</ele>
        <time>2022-04-10T14:21:47Z</time>
      </trkpt>
      <trkpt lat="44.47724" lon="1.79264">
        <ele>262.1</ele>
        <time>2022-04-10T14:21:48Z</time>
      </trkpt>
      <trkpt lat="44.47729" lon="1.79269">
        <ele>262.2</ele>
        <time>2022-04-10T14:21:49Z</time>
      </trkpt>
      <trkpt lat="44.47734" lon="1.79274">
        <ele>262.3</ele>
        <time>2022-04-10T14:21:50Z</time>
      </trkpt>
      <trkpt lat="44.47739" lon="1.79279">
        <ele>262.4</ele>
        <time>2022-04-10T14:21:51Z</time>
      </trkpt>
      <trkpt lat="44.47743" lon="1.79285">
        <ele>262.5</ele>
        <time>2022-04-10T14:21:52Z</time>
      </trkpt>
      <trkpt lat="44.47747" lon="1.79291">
        <ele>262.6</ele>
        <time>2022-04-10T14:21:53Z</time>
      </trkpt>
      <trkpt lat="44.47752" lon="1.79297">
        <ele>262.7</ele>
        <time>2022-04-10T14:21:54Z</time>
      </trkpt>
      <trkpt lat="44.47756" lon="1.79302">
        <ele>262.8</ele>
        <time>2022-04-10T14:21:55Z</time>
      </trkpt>
      <trkpt lat="44.4776" lon="1.79308">
        <ele>262.9</ele>
        <time>2022-04-10T14:21:56Z</time>
      </trkpt>
      <trkpt lat="44.47765" lon="1.79314">
        <ele>263</ele>
        <time>2022-04-10T14:21:57Z</time>
      </trkpt>
      <trkpt lat="44.4777" lon="1.7932">
        <ele>263.1</ele>
        <time>2022-04-10T14:21:58Z</time>
      </trkpt>
      <trkpt lat="44.47775" lon="1.79325">
        <ele>263.3</ele>
        <time>2022-04-10T14:21:59Z</time>
      </trkpt>
      <trkpt lat="44.47779" lon="1.79329">
        <ele>263.5</ele>
        <time>2022-04-10T14:22:00Z</time>
      </trkpt>
      <trkpt lat="44.47784" lon="1.79335">
        <ele>263.7</ele>
        <time>2022-04-10T14:22:01Z</time>
      </trkpt>
      <trkpt lat="44.47788" lon="1.7934">
        <ele>263.8</ele>
        <time>2022-04-10T14:22:02Z</time>
      </trkpt>
      <trkpt lat="44.47792" lon="1.79346">
        <ele>264</ele>
        <time>2022-04-10T14:22:03Z</time>
      </trkpt>
      <trkpt lat="44.47797" lon="1.79351">
        <ele>264.1</ele>
        <time>2022-04-10T14:22:04Z</time>
      </trkpt>
      <trkpt lat="44.47803" lon="1.79355">
        <ele>264.4</ele>
        <time>2022-04-10T14:22:05Z</time>
      </trkpt>
      <trkpt lat="44.47809" lon="1.79358">
        <ele>264.6</ele>
        <time>2022-04-10T14:22:06Z</time>
      </trkpt>
      <trkpt lat="44.47814" lon="1.7936">
        <ele>264.9</ele>
        <time>2022-04-10T14:22:07Z</time>
      </trkpt>
      <trkpt lat="44.47818" lon="1.79361">
        <ele>265.1</ele>
        <time>2022-04-10T14:22:08Z</time>
      </trkpt>
      <trkpt lat="44.4782" lon="1.79361">
        <ele>265.1</ele>
        <time>2022-04-10T14:22:09Z</time>
      </trkpt>
      <trkpt lat="44.4782" lon="1.79361">
        <ele>265.2</ele>
        <time>2022-04-10T14:22:10Z</time>
      </trkpt>
      <trkpt lat="44.4782" lon="1.79361">
        <ele>265.2</ele>
        <time>2022-04-10T14:22:11Z</time>
      </trkpt>
      <trkpt lat="44.4782" lon="1.79361">
        <ele>265.2</ele>
        <time>2022-04-10T14:22:12Z</time>
      </trkpt>
      <trkpt lat="44.4782" lon="1.79361">
        <ele>265.2</ele>
        <time>2022-04-10T14:22:13Z</time>
      </trkpt>
      <trkpt lat="44.4782" lon="1.79361">
        <ele>265.2</ele>
        <time>2022-04-10T14:22:14Z</time>
      </trkpt>
      <trkpt lat="44.4782" lon="1.79361">
        <ele>265.2</ele>
        <time>2022-04-10T14:22:15Z</time>
      </trkpt>
      <trkpt lat="44.4782" lon="1.79361">
        <ele>265.2</ele>
        <time>2022-04-10T14:22:16Z</time>
      </trkpt>
      <trkpt lat="44.4782" lon="1.79361">
        <ele>265.2</ele>
        <time>2022-04-10T14:22:17Z</time>
      </trkpt>
      <trkpt lat="44.4782" lon="1.79361">
        <ele>265.2</ele>
        <time>2022-04-10T14:22:18Z</time>
      </trkpt>
      <trkpt lat="44.4782" lon="1.79361">
        <ele>265.2</ele>
        <time>2022-04-10T14:22:19Z</time>
      </trkpt>
      <trkpt lat="44.47828" lon="1.79357">
        <ele>265.6</ele>
        <time>2022-04-10T14:22:22Z</time>
      </trkpt>
      <trkpt lat="44.47835" lon="1.79354">
        <ele>266</ele>
        <time>2022-04-10T14:22:24Z</time>
      </trkpt>
      <trkpt lat="44.4784" lon="1.79354">
        <ele>266.4</ele>
        <time>2022-04-10T14:22:25Z</time>
      </trkpt>
      <trkpt lat="44.47844" lon="1.79353">
        <ele>266.7</ele>
        <time>2022-04-10T14:22:26Z</time>
      </trkpt>
      <trkpt lat="44.4785" lon="1.79355">
        <ele>267.3</ele>
        <time>2022-04-10T14:22:27Z</time>
      </trkpt>
      <trkpt lat="44.47855" lon="1.79357">
        <ele>267.7</ele>
        <time>2022-04-10T14:22:28Z</time>
      </trkpt>
      <trkpt lat="44.47861" lon="1.7936">
        <ele>268.1</ele>
        <time>2022-04-10T14:22:29Z</time>
      </trkpt>
      <trkpt lat="44.47866" lon="1.79362">
        <ele>268.5</ele>
        <time>2022-04-10T14:22:30Z</time>
      </trkpt>
      <trkpt lat="44.4787" lon="1.79365">
        <ele>268.8</ele>
        <time>2022-04-10T14:22:31Z</time>
      </trkpt>
      <trkpt lat="44.47876" lon="1.7937">
        <ele>269.2</ele>
        <time>2022-04-10T14:22:33Z</time>
      </trkpt>
      <trkpt lat="44.47881" lon="1.79381">
        <ele>269.8</ele>
        <time>2022-04-10T14:22:34Z</time>
      </trkpt>
      <trkpt lat="44.47885" lon="1.79387">
        <ele>270.2</ele>
        <time>2022-04-10T14:22:35Z</time>
      </trkpt>
      <trkpt lat="44.47888" lon="1.79393">
        <ele>270.6</ele>
        <time>2022-04-10T14:22:36Z</time>
      </trkpt>
      <trkpt lat="44.47891" lon="1.79399">
        <ele>271</ele>
        <time>2022-04-10T14:22:37Z</time>
      </trkpt>
      <trkpt lat="44.47893" lon="1.79405">
        <ele>271.4</ele>
        <time>2022-04-10T14:22:38Z</time>
      </trkpt>
      <trkpt lat="44.47894" lon="1.79409">
        <ele>271.6</ele>
        <time>2022-04-10T14:22:39Z</time>
      </trkpt>
      <trkpt lat="44.47895" lon="1.79416">
        <ele>272</ele>
        <time>2022-04-10T14:22:41Z</time>
      </trkpt>
      <trkpt lat="44.47897" lon="1.79419">
        <ele>272.3</ele>
        <time>2022-04-10T14:22:42Z</time>
      </trkpt>
      <trkpt lat="44.47899" lon="1.7942">
        <ele>272.4</ele>
        <time>2022-04-10T14:22:43Z</time>
      </trkpt>
      <trkpt lat="44.47902" lon="1.79424">
        <ele>272.7</ele>
        <time>2022-04-10T14:22:44Z</time>
      </trkpt>
      <trkpt lat="44.47908" lon="1.79429">
        <ele>273.2</ele>
        <time>2022-04-10T14:22:45Z</time>
      </trkpt>
      <trkpt lat="44.47911" lon="1.79431">
        <ele>273.4</ele>
        <time>2022-04-10T14:22:46Z</time>
      </trkpt>
      <trkpt lat="44.47916" lon="1.79439">
        <ele>273.7</ele>
        <time>2022-04-10T14:22:48Z</time>
      </trkpt>
      <trkpt lat="44.4792" lon="1.79445">
        <ele>274</ele>
        <time>2022-04-10T14:22:49Z</time>
      </trkpt>
      <trkpt lat="44.47923" lon="1.79451">
        <ele>274.2</ele>
        <time>2022-04-10T14:22:50Z</time>
      </trkpt>
      <trkpt lat="44.47926" lon="1.79456">
        <ele>274.4</ele>
        <time>2022-04-10T14:22:51Z</time>
      </trkpt>
      <trkpt lat="44.47929" lon="1.79459">
        <ele>274.6</ele>
        <time>2022-04-10T14:22:52Z</time>
      </trkpt>
      <trkpt lat="44.47931" lon="1.79459">
        <ele>274.6</ele>
        <time>2022-04-10T14:22:53Z</time>
      </trkpt>
      <trkpt lat="44.47931" lon="1.79458">
        <ele>274.7</ele>
        <time>2022-04-10T14:22:54Z</time>
      </trkpt>
      <trkpt lat="44.47932" lon="1.79456">
        <ele>274.7</ele>
        <time>2022-04-10T14:22:56Z</time>
      </trkpt>
      <trkpt lat="44.47934" lon="1.79457">
        <ele>274.8</ele>
        <time>2022-04-10T14:22:57Z</time>
      </trkpt>
      <trkpt lat="44.47936" lon="1.79457">
        <ele>274.9</ele>
        <time>2022-04-10T14:22:58Z</time>
      </trkpt>
      <trkpt lat="44.47938" lon="1.79458">
        <ele>275</ele>
        <time>2022-04-10T14:23:00Z</time>
      </trkpt>
      <trkpt lat="44.47941" lon="1.79459">
        <ele>275</ele>
        <time>2022-04-10T14:23:01Z</time>
      </trkpt>
      <trkpt lat="44.47946" lon="1.79461">
        <ele>275.2</ele>
        <time>2022-04-10T14:23:02Z</time>
      </trkpt>
      <trkpt lat="44.47951" lon="1.79462">
        <ele>275.4</ele>
        <time>2022-04-10T14:23:03Z</time>
      </trkpt>
      <trkpt lat="44.47955" lon="1.79463">
        <ele>275.5</ele>
        <time>2022-04-10T14:23:04Z</time>
      </trkpt>
      <trkpt lat="44.47961" lon="1.79465">
        <ele>275.7</ele>
        <time>2022-04-10T14:23:06Z</time>
      </trkpt>
      <trkpt lat="44.47963" lon="1.79468">
        <ele>275.8</ele>
        <time>2022-04-10T14:23:07Z</time>
      </trkpt>
      <trkpt lat="44.47966" lon="1.79472">
        <ele>276</ele>
        <time>2022-04-10T14:23:08Z</time>
      </trkpt>
      <trkpt lat="44.47969" lon="1.79476">
        <ele>276.1</ele>
        <time>2022-04-10T14:23:09Z</time>
      </trkpt>
      <trkpt lat="44.47971" lon="1.7948">
        <ele>276.3</ele>
        <time>2022-04-10T14:23:10Z</time>
      </trkpt>
      <trkpt lat="44.47975" lon="1.79484">
        <ele>276.5</ele>
        <time>2022-04-10T14:23:11Z</time>
      </trkpt>
      <trkpt lat="44.47978" lon="1.79492">
        <ele>276.7</ele>
        <time>2022-04-10T14:23:13Z</time>
      </trkpt>
      <trkpt lat="44.47981" lon="1.79495">
        <ele>276.8</ele>
        <time>2022-04-10T14:23:14Z</time>
      </trkpt>
      <trkpt lat="44.47985" lon="1.79497">
        <ele>277</ele>
        <time>2022-04-10T14:23:15Z</time>
      </trkpt>
      <trkpt lat="44.47989" lon="1.79503">
        <ele>277.1</ele>
        <time>2022-04-10T14:23:16Z</time>
      </trkpt>
      <trkpt lat="44.47993" lon="1.79508">
        <ele>277.2</ele>
        <time>2022-04-10T14:23:17Z</time>
      </trkpt>
      <trkpt lat="44.47997" lon="1.79513">
        <ele>277.4</ele>
        <time>2022-04-10T14:23:18Z</time>
      </trkpt>
      <trkpt lat="44.47999" lon="1.79519">
        <ele>277.5</ele>
        <time>2022-04-10T14:23:19Z</time>
      </trkpt>
      <trkpt lat="44.48002" lon="1.79525">
        <ele>277.7</ele>
        <time>2022-04-10T14:23:20Z</time>
      </trkpt>
      <trkpt lat="44.48004" lon="1.79531">
        <ele>277.8</ele>
        <time>2022-04-10T14:23:21Z</time>
      </trkpt>
      <trkpt lat="44.48006" lon="1.79536">
        <ele>277.9</ele>
        <time>2022-04-10T14:23:22Z</time>
      </trkpt>
      <trkpt lat="44.48008" lon="1.79542">
        <ele>278.1</ele>
        <time>2022-04-10T14:23:23Z</time>
      </trkpt>
      <trkpt lat="44.4801" lon="1.79549">
        <ele>278.2</ele>
        <time>2022-04-10T14:23:24Z</time>
      </trkpt>
      <trkpt lat="44.48011" lon="1.79553">
        <ele>278.3</ele>
        <time>2022-04-10T14:23:25Z</time>
      </trkpt>
      <trkpt lat="44.48014" lon="1.79561">
        <ele>278.4</ele>
        <time>2022-04-10T14:23:27Z</time>
      </trkpt>
      <trkpt lat="44.48014" lon="1.79567">
        <ele>278.5</ele>
        <time>2022-04-10T14:23:28Z</time>
      </trkpt>
      <trkpt lat="44.48015" lon="1.79574">
        <ele>278.6</ele>
        <time>2022-04-10T14:23:29Z</time>
      </trkpt>
      <trkpt lat="44.48016" lon="1.7958">
        <ele>278.7</ele>
        <time>2022-04-10T14:23:30Z</time>
      </trkpt>
      <trkpt lat="44.48017" lon="1.79585">
        <ele>278.8</ele>
        <time>2022-04-10T14:23:31Z</time>
      </trkpt>
      <trkpt lat="44.48019" lon="1.79587">
        <ele>278.9</ele>
        <time>2022-04-10T14:23:32Z</time>
      </trkpt>
      <trkpt lat="44.48022" lon="1.7959">
        <ele>279</ele>
        <time>2022-04-10T14:23:34Z</time>
      </trkpt>
      <trkpt lat="44.48025" lon="1.79593">
        <ele>279.1</ele>
        <time>2022-04-10T14:23:35Z</time>
      </trkpt>
      <trkpt lat="44.48028" lon="1.79597">
        <ele>279.2</ele>
        <time>2022-04-10T14:23:36Z</time>
      </trkpt>
      <trkpt lat="44.48031" lon="1.79602">
        <ele>279.4</ele>
        <time>2022-04-10T14:23:37Z</time>
      </trkpt>
      <trkpt lat="44.48034" lon="1.79609">
        <ele>279.5</ele>
        <time>2022-04-10T14:23:38Z</time>
      </trkpt>
      <trkpt lat="44.48035" lon="1.79615">
        <ele>279.7</ele>
        <time>2022-04-10T14:23:39Z</time>
      </trkpt>
      <trkpt lat="44.48037" lon="1.79623">
        <ele>279.8</ele>
        <time>2022-04-10T14:23:40Z</time>
      </trkpt>
      <trkpt lat="44.48039" lon="1.7963">
        <ele>280</ele>
        <time>2022-04-10T14:23:41Z</time>
      </trkpt>
      <trkpt lat="44.48042" lon="1.79636">
        <ele>280.2</ele>
        <time>2022-04-10T14:23:42Z</time>
      </trkpt>
      <trkpt lat="44.48045" lon="1.79639">
        <ele>280.3</ele>
        <time>2022-04-10T14:23:44Z</time>
      </trkpt>
      <trkpt lat="44.48048" lon="1.79645">
        <ele>280.4</ele>
        <time>2022-04-10T14:23:45Z</time>
      </trkpt>
      <trkpt lat="44.48051" lon="1.79649">
        <ele>280.6</ele>
        <time>2022-04-10T14:23:46Z</time>
      </trkpt>
      <trkpt lat="44.48053" lon="1.79653">
        <ele>280.8</ele>
        <time>2022-04-10T14:23:47Z</time>
      </trkpt>
      <trkpt lat="44.48055" lon="1.79657">
        <ele>281</ele>
        <time>2022-04-10T14:23:48Z</time>
      </trkpt>
      <trkpt lat="44.48056" lon="1.79659">
        <ele>281</ele>
        <time>2022-04-10T14:23:49Z</time>
      </trkpt>
      <trkpt lat="44.48056" lon="1.79664">
        <ele>281.3</ele>
        <time>2022-04-10T14:23:51Z</time>
      </trkpt>
      <trkpt lat="44.48057" lon="1.79669">
        <ele>281.4</ele>
        <time>2022-04-10T14:23:52Z</time>
      </trkpt>
      <trkpt lat="44.48059" lon="1.79673">
        <ele>281.7</ele>
        <time>2022-04-10T14:23:53Z</time>
      </trkpt>
      <trkpt lat="44.48062" lon="1.7968">
        <ele>282</ele>
        <time>2022-04-10T14:23:54Z</time>
      </trkpt>
      <trkpt lat="44.48064" lon="1.79687">
        <ele>282.4</ele>
        <time>2022-04-10T14:23:55Z</time>
      </trkpt>
      <trkpt lat="44.48066" lon="1.79693">
        <ele>282.7</ele>
        <time>2022-04-10T14:23:56Z</time>
      </trkpt>
      <trkpt lat="44.48067" lon="1.79696">
        <ele>282.8</ele>
        <time>2022-04-10T14:23:57Z</time>
      </trkpt>
      <trkpt lat="44.4807" lon="1.79706">
        <ele>283.2</ele>
        <time>2022-04-10T14:23:59Z</time>
      </trkpt>
      <trkpt lat="44.48074" lon="1.79711">
        <ele>283.4</ele>
        <time>2022-04-10T14:24:00Z</time>
      </trkpt>
      <trkpt lat="44.48077" lon="1.79714">
        <ele>283.5</ele>
        <time>2022-04-10T14:24:01Z</time>
      </trkpt>
      <trkpt lat="44.48078" lon="1.79728">
        <ele>283.8</ele>
        <time>2022-04-10T14:24:02Z</time>
      </trkpt>
      <trkpt lat="44.48079" lon="1.79735">
        <ele>283.9</ele>
        <time>2022-04-10T14:24:03Z</time>
      </trkpt>
      <trkpt lat="44.4808" lon="1.79742">
        <ele>284.1</ele>
        <time>2022-04-10T14:24:04Z</time>
      </trkpt>
      <trkpt lat="44.48082" lon="1.79746">
        <ele>284.3</ele>
        <time>2022-04-10T14:24:05Z</time>
      </trkpt>
      <trkpt lat="44.48084" lon="1.79754">
        <ele>284.5</ele>
        <time>2022-04-10T14:24:06Z</time>
      </trkpt>
      <trkpt lat="44.48085" lon="1.79763">
        <ele>284.7</ele>
        <time>2022-04-10T14:24:07Z</time>
      </trkpt>
      <trkpt lat="44.48085" lon="1.79771">
        <ele>284.8</ele>
        <time>2022-04-10T14:24:08Z</time>
      </trkpt>
      <trkpt lat="44.48084" lon="1.79779">
        <ele>284.9</ele>
        <time>2022-04-10T14:24:09Z</time>
      </trkpt>
      <trkpt lat="44.48084" lon="1.79784">
        <ele>285</ele>
        <time>2022-04-10T14:24:11Z</time>
      </trkpt>
      <trkpt lat="44.48085" lon="1.79788">
        <ele>285.1</ele>
        <time>2022-04-10T14:24:12Z</time>
      </trkpt>
      <trkpt lat="44.4809" lon="1.79794">
        <ele>285.3</ele>
        <time>2022-04-10T14:24:13Z</time>
      </trkpt>
      <trkpt lat="44.48093" lon="1.79797">
        <ele>285.3</ele>
        <time>2022-04-10T14:24:14Z</time>
      </trkpt>
      <trkpt lat="44.48098" lon="1.79804">
        <ele>285.4</ele>
        <time>2022-04-10T14:24:15Z</time>
      </trkpt>
      <trkpt lat="44.48102" lon="1.79809">
        <ele>285.4</ele>
        <time>2022-04-10T14:24:16Z</time>
      </trkpt>
      <trkpt lat="44.48107" lon="1.79813">
        <ele>285.5</ele>
        <time>2022-04-10T14:24:17Z</time>
      </trkpt>
      <trkpt lat="44.48111" lon="1.79817">
        <ele>285.6</ele>
        <time>2022-04-10T14:24:18Z</time>
      </trkpt>
      <trkpt lat="44.48117" lon="1.79821">
        <ele>285.6</ele>
        <time>2022-04-10T14:24:19Z</time>
      </trkpt>
      <trkpt lat="44.48123" lon="1.79826">
        <ele>285.6</ele>
        <time>2022-04-10T14:24:20Z</time>
      </trkpt>
      <trkpt lat="44.48129" lon="1.7983">
        <ele>285.5</ele>
        <time>2022-04-10T14:24:21Z</time>
      </trkpt>
      <trkpt lat="44.48135" lon="1.79835">
        <ele>285.4</ele>
        <time>2022-04-10T14:24:22Z</time>
      </trkpt>
      <trkpt lat="44.48141" lon="1.7984">
        <ele>285.2</ele>
        <time>2022-04-10T14:24:23Z</time>
      </trkpt>
      <trkpt lat="44.48147" lon="1.79845">
        <ele>285</ele>
        <time>2022-04-10T14:24:24Z</time>
      </trkpt>
      <trkpt lat="44.48154" lon="1.79851">
        <ele>284.7</ele>
        <time>2022-04-10T14:24:25Z</time>
      </trkpt>
      <trkpt lat="44.48161" lon="1.79855">
        <ele>284.4</ele>
        <time>2022-04-10T14:24:26Z</time>
      </trkpt>
      <trkpt lat="44.48168" lon="1.79859">
        <ele>284.1</ele>
        <time>2022-04-10T14:24:27Z</time>
      </trkpt>
      <trkpt lat="44.48174" lon="1.79862">
        <ele>283.9</ele>
        <time>2022-04-10T14:24:28Z</time>
      </trkpt>
      <trkpt lat="44.48179" lon="1.79867">
        <ele>283.6</ele>
        <time>2022-04-10T14:24:29Z</time>
      </trkpt>
      <trkpt lat="44.48184" lon="1.79873">
        <ele>283</ele>
        <time>2022-04-10T14:24:30Z</time>
      </trkpt>
      <trkpt lat="44.48188" lon="1.7988">
        <ele>282.3</ele>
        <time>2022-04-10T14:24:31Z</time>
      </trkpt>
      <trkpt lat="44.48191" lon="1.79886">
        <ele>281.6</ele>
        <time>2022-04-10T14:24:32Z</time>
      </trkpt>
      <trkpt lat="44.48194" lon="1.79891">
        <ele>280.8</ele>
        <time>2022-04-10T14:24:33Z</time>
      </trkpt>
      <trkpt lat="44.48198" lon="1.79896">
        <ele>280.1</ele>
        <time>2022-04-10T14:24:34Z</time>
      </trkpt>
      <trkpt lat="44.48202" lon="1.799">
        <ele>279.3</ele>
        <time>2022-04-10T14:24:35Z</time>
      </trkpt>
      <trkpt lat="44.48206" lon="1.79905">
        <ele>278.6</ele>
        <time>2022-04-10T14:24:36Z</time>
      </trkpt>
      <trkpt lat="44.4821" lon="1.7991">
        <ele>277.8</ele>
        <time>2022-04-10T14:24:37Z</time>
      </trkpt>
      <trkpt lat="44.48215" lon="1.79916">
        <ele>277</ele>
        <time>2022-04-10T14:24:38Z</time>
      </trkpt>
      <trkpt lat="44.48219" lon="1.79922">
        <ele>276.2</ele>
        <time>2022-04-10T14:24:39Z</time>
      </trkpt>
      <trkpt lat="44.48222" lon="1.79929">
        <ele>275.5</ele>
        <time>2022-04-10T14:24:40Z</time>
      </trkpt>
      <trkpt lat="44.48225" lon="1.79936">
        <ele>274.8</ele>
        <time>2022-04-10T14:24:41Z</time>
      </trkpt>
      <trkpt lat="44.48227" lon="1.79943">
        <ele>274.1</ele>
        <time>2022-04-10T14:24:42Z</time>
      </trkpt>
      <trkpt lat="44.48227" lon="1.79948">
        <ele>273.8</ele>
        <time>2022-04-10T14:24:43Z</time>
      </trkpt>
      <trkpt lat="44.48224" lon="1.7995">
        <ele>273.4</ele>
        <time>2022-04-10T14:24:44Z</time>
      </trkpt>
      <trkpt lat="44.48223" lon="1.7995">
        <ele>273.2</ele>
        <time>2022-04-10T14:24:45Z</time>
      </trkpt>
      <trkpt lat="44.4822" lon="1.7995">
        <ele>272.8</ele>
        <time>2022-04-10T14:24:46Z</time>
      </trkpt>
      <trkpt lat="44.48214" lon="1.7995">
        <ele>270.3</ele>
        <time>2022-04-10T14:24:47Z</time>
      </trkpt>
      <trkpt lat="44.48209" lon="1.7995">
        <ele>268.4</ele>
        <time>2022-04-10T14:24:48Z</time>
      </trkpt>
      <trkpt lat="44.48205" lon="1.79949">
        <ele>267.3</ele>
        <time>2022-04-10T14:24:49Z</time>
      </trkpt>
      <trkpt lat="44.48202" lon="1.7995">
        <ele>266.4</ele>
        <time>2022-04-10T14:24:50Z</time>
      </trkpt>
      <trkpt lat="44.482" lon="1.79949">
        <ele>265.6</ele>
        <time>2022-04-10T14:24:51Z</time>
      </trkpt>
      <trkpt lat="44.48191" lon="1.7995">
        <ele>263.1</ele>
        <time>2022-04-10T14:24:52Z</time>
      </trkpt>
      <trkpt lat="44.48184" lon="1.79952">
        <ele>261.2</ele>
        <time>2022-04-10T14:24:53Z</time>
      </trkpt>
      <trkpt lat="44.48178" lon="1.79954">
        <ele>259.1</ele>
        <time>2022-04-10T14:24:54Z</time>
      </trkpt>
      <trkpt lat="44.48171" lon="1.79959">
        <ele>256.9</ele>
        <time>2022-04-10T14:24:55Z</time>
      </trkpt>
      <trkpt lat="44.48165" lon="1.79964">
        <ele>254.6</ele>
        <time>2022-04-10T14:24:56Z</time>
      </trkpt>
      <trkpt lat="44.4816" lon="1.7997">
        <ele>252.2</ele>
        <time>2022-04-10T14:24:57Z</time>
      </trkpt>
      <trkpt lat="44.48155" lon="1.79977">
        <ele>251.5</ele>
        <time>2022-04-10T14:24:58Z</time>
      </trkpt>
      <trkpt lat="44.48151" lon="1.79982">
        <ele>251.1</ele>
        <time>2022-04-10T14:24:59Z</time>
      </trkpt>
      <trkpt lat="44.48147" lon="1.79988">
        <ele>250.7</ele>
        <time>2022-04-10T14:25:00Z</time>
      </trkpt>
      <trkpt lat="44.48145" lon="1.79988">
        <ele>250.6</ele>
        <time>2022-04-10T14:25:01Z</time>
      </trkpt>
      <trkpt lat="44.48139" lon="1.79993">
        <ele>250.1</ele>
        <time>2022-04-10T14:25:03Z</time>
      </trkpt>
      <trkpt lat="44.4813" lon="1.8">
        <ele>249.3</ele>
        <time>2022-04-10T14:25:04Z</time>
      </trkpt>
      <trkpt lat="44.48126" lon="1.80004">
        <ele>249</ele>
        <time>2022-04-10T14:25:05Z</time>
      </trkpt>
      <trkpt lat="44.48122" lon="1.80009">
        <ele>248.6</ele>
        <time>2022-04-10T14:25:07Z</time>
      </trkpt>
      <trkpt lat="44.48119" lon="1.80015">
        <ele>248.3</ele>
        <time>2022-04-10T14:25:08Z</time>
      </trkpt>
      <trkpt lat="44.48115" lon="1.80022">
        <ele>248</ele>
        <time>2022-04-10T14:25:09Z</time>
      </trkpt>
      <trkpt lat="44.48113" lon="1.80028">
        <ele>247.7</ele>
        <time>2022-04-10T14:25:10Z</time>
      </trkpt>
      <trkpt lat="44.48109" lon="1.80036">
        <ele>247.3</ele>
        <time>2022-04-10T14:25:11Z</time>
      </trkpt>
      <trkpt lat="44.48106" lon="1.80043">
        <ele>246.9</ele>
        <time>2022-04-10T14:25:12Z</time>
      </trkpt>
      <trkpt lat="44.48103" lon="1.80049">
        <ele>246.6</ele>
        <time>2022-04-10T14:25:13Z</time>
      </trkpt>
      <trkpt lat="44.48101" lon="1.80055">
        <ele>246.3</ele>
        <time>2022-04-10T14:25:14Z</time>
      </trkpt>
      <trkpt lat="44.481" lon="1.80061">
        <ele>245.9</ele>
        <time>2022-04-10T14:25:15Z</time>
      </trkpt>
      <trkpt lat="44.48099" lon="1.80065">
        <ele>245.7</ele>
        <time>2022-04-10T14:25:16Z</time>
      </trkpt>
      <trkpt lat="44.48099" lon="1.80066">
        <ele>245.6</ele>
        <time>2022-04-10T14:25:17Z</time>
      </trkpt>
      <trkpt lat="44.48099" lon="1.80069">
        <ele>245.4</ele>
        <time>2022-04-10T14:25:18Z</time>
      </trkpt>
      <trkpt lat="44.48098" lon="1.80069">
        <ele>245.4</ele>
        <time>2022-04-10T14:25:19Z</time>
      </trkpt>
      <trkpt lat="44.48099" lon="1.80069">
        <ele>245.3</ele>
        <time>2022-04-10T14:25:20Z</time>
      </trkpt>
      <trkpt lat="44.48099" lon="1.80069">
        <ele>245.3</ele>
        <time>2022-04-10T14:25:21Z</time>
      </trkpt>
      <trkpt lat="44.48099" lon="1.80069">
        <ele>245.3</ele>
        <time>2022-04-10T14:25:22Z</time>
      </trkpt>
      <trkpt lat="44.48099" lon="1.80069">
        <ele>245.2</ele>
        <time>2022-04-10T14:25:23Z</time>
      </trkpt>
      <trkpt lat="44.48099" lon="1.80069">
        <ele>245.2</ele>
        <time>2022-04-10T14:25:24Z</time>
      </trkpt>
      <trkpt lat="44.48099" lon="1.80072">
        <ele>245.1</ele>
        <time>2022-04-10T14:25:26Z</time>
      </trkpt>
      <trkpt lat="44.48099" lon="1.80073">
        <ele>245</ele>
        <time>2022-04-10T14:25:27Z</time>
      </trkpt>
      <trkpt lat="44.48098" lon="1.80087">
        <ele>244.2</ele>
        <time>2022-04-10T14:25:31Z</time>
      </trkpt>
      <trkpt lat="44.48097" lon="1.80094">
        <ele>243.8</ele>
        <time>2022-04-10T14:25:32Z</time>
      </trkpt>
      <trkpt lat="44.48096" lon="1.80093">
        <ele>243.7</ele>
        <time>2022-04-10T14:25:33Z</time>
      </trkpt>
      <trkpt lat="44.48096" lon="1.80092">
        <ele>243.6</ele>
        <time>2022-04-10T14:25:34Z</time>
      </trkpt>
      <trkpt lat="44.48095" lon="1.80091">
        <ele>243.6</ele>
        <time>2022-04-10T14:25:35Z</time>
      </trkpt>
      <trkpt lat="44.48095" lon="1.8009">
        <ele>243.5</ele>
        <time>2022-04-10T14:25:36Z</time>
      </trkpt>
      <trkpt lat="44.48095" lon="1.80089">
        <ele>243.5</ele>
        <time>2022-04-10T14:25:37Z</time>
      </trkpt>
      <trkpt lat="44.48095" lon="1.80088">
        <ele>243.4</ele>
        <time>2022-04-10T14:25:38Z</time>
      </trkpt>
      <trkpt lat="44.48095" lon="1.80087">
        <ele>243.3</ele>
        <time>2022-04-10T14:25:39Z</time>
      </trkpt>
      <trkpt lat="44.48094" lon="1.80086">
        <ele>243.3</ele>
        <time>2022-04-10T14:25:40Z</time>
      </trkpt>
      <trkpt lat="44.48094" lon="1.80085">
        <ele>243.2</ele>
        <time>2022-04-10T14:25:41Z</time>
      </trkpt>
      <trkpt lat="44.48094" lon="1.80084">
        <ele>243.2</ele>
        <time>2022-04-10T14:25:42Z</time>
      </trkpt>
      <trkpt lat="44.48094" lon="1.80083">
        <ele>243.1</ele>
        <time>2022-04-10T14:26:17Z</time>
      </trkpt>
      <trkpt lat="44.48094" lon="1.80082">
        <ele>243.1</ele>
        <time>2022-04-10T14:26:18Z</time>
      </trkpt>
      <trkpt lat="44.48094" lon="1.80075">
        <ele>243.4</ele>
        <time>2022-04-10T14:26:20Z</time>
      </trkpt>
      <trkpt lat="44.48097" lon="1.80068">
        <ele>244</ele>
        <time>2022-04-10T14:26:21Z</time>
      </trkpt>
      <trkpt lat="44.48098" lon="1.80061">
        <ele>244.5</ele>
        <time>2022-04-10T14:26:22Z</time>
      </trkpt>
      <trkpt lat="44.48099" lon="1.80054">
        <ele>245</ele>
        <time>2022-04-10T14:26:23Z</time>
      </trkpt>
      <trkpt lat="44.481" lon="1.80049">
        <ele>245.4</ele>
        <time>2022-04-10T14:26:24Z</time>
      </trkpt>
      <trkpt lat="44.48103" lon="1.80041">
        <ele>246</ele>
        <time>2022-04-10T14:26:26Z</time>
      </trkpt>
      <trkpt lat="44.48109" lon="1.80032">
        <ele>246.7</ele>
        <time>2022-04-10T14:26:27Z</time>
      </trkpt>
      <trkpt lat="44.48112" lon="1.80027">
        <ele>247.1</ele>
        <time>2022-04-10T14:26:28Z</time>
      </trkpt>
      <trkpt lat="44.48116" lon="1.80021">
        <ele>247.5</ele>
        <time>2022-04-10T14:26:29Z</time>
      </trkpt>
      <trkpt lat="44.4812" lon="1.80015">
        <ele>247.9</ele>
        <time>2022-04-10T14:26:30Z</time>
      </trkpt>
      <trkpt lat="44.48124" lon="1.80009">
        <ele>248.3</ele>
        <time>2022-04-10T14:26:31Z</time>
      </trkpt>
      <trkpt lat="44.4813" lon="1.80004">
        <ele>248.7</ele>
        <time>2022-04-10T14:26:32Z</time>
      </trkpt>
      <trkpt lat="44.48135" lon="1.79999">
        <ele>249.2</ele>
        <time>2022-04-10T14:26:33Z</time>
      </trkpt>
      <trkpt lat="44.4814" lon="1.79994">
        <ele>249.7</ele>
        <time>2022-04-10T14:26:34Z</time>
      </trkpt>
      <trkpt lat="44.48144" lon="1.79989">
        <ele>250.2</ele>
        <time>2022-04-10T14:26:35Z</time>
      </trkpt>
      <trkpt lat="44.48148" lon="1.79983">
        <ele>250.8</ele>
        <time>2022-04-10T14:26:36Z</time>
      </trkpt>
      <trkpt lat="44.48153" lon="1.79976">
        <ele>251.3</ele>
        <time>2022-04-10T14:26:37Z</time>
      </trkpt>
      <trkpt lat="44.48158" lon="1.79971">
        <ele>251.7</ele>
        <time>2022-04-10T14:26:38Z</time>
      </trkpt>
      <trkpt lat="44.48163" lon="1.79966">
        <ele>253.7</ele>
        <time>2022-04-10T14:26:39Z</time>
      </trkpt>
      <trkpt lat="44.48168" lon="1.79962">
        <ele>255.7</ele>
        <time>2022-04-10T14:26:40Z</time>
      </trkpt>
      <trkpt lat="44.48173" lon="1.7996">
        <ele>257.5</ele>
        <time>2022-04-10T14:26:41Z</time>
      </trkpt>
      <trkpt lat="44.48177" lon="1.79958">
        <ele>259</ele>
        <time>2022-04-10T14:26:42Z</time>
      </trkpt>
      <trkpt lat="44.4818" lon="1.79958">
        <ele>259.9</ele>
        <time>2022-04-10T14:26:43Z</time>
      </trkpt>
      <trkpt lat="44.48184" lon="1.79959">
        <ele>261</ele>
        <time>2022-04-10T14:26:44Z</time>
      </trkpt>
      <trkpt lat="44.48189" lon="1.79959">
        <ele>262.5</ele>
        <time>2022-04-10T14:26:45Z</time>
      </trkpt>
      <trkpt lat="44.48193" lon="1.79959">
        <ele>263.7</ele>
        <time>2022-04-10T14:26:46Z</time>
      </trkpt>
      <trkpt lat="44.48198" lon="1.79959">
        <ele>265.3</ele>
        <time>2022-04-10T14:26:47Z</time>
      </trkpt>
      <trkpt lat="44.48203" lon="1.79959">
        <ele>266.7</ele>
        <time>2022-04-10T14:26:48Z</time>
      </trkpt>
      <trkpt lat="44.48207" lon="1.79959">
        <ele>268.2</ele>
        <time>2022-04-10T14:26:49Z</time>
      </trkpt>
      <trkpt lat="44.48213" lon="1.7996">
        <ele>270</ele>
        <time>2022-04-10T14:26:50Z</time>
      </trkpt>
      <trkpt lat="44.48218" lon="1.7996">
        <ele>271.9</ele>
        <time>2022-04-10T14:26:51Z</time>
      </trkpt>
      <trkpt lat="44.48223" lon="1.7996">
        <ele>272.3</ele>
        <time>2022-04-10T14:26:52Z</time>
      </trkpt>
      <trkpt lat="44.48225" lon="1.79962">
        <ele>272.3</ele>
        <time>2022-04-10T14:26:53Z</time>
      </trkpt>
      <trkpt lat="44.48232" lon="1.79962">
        <ele>272.2</ele>
        <time>2022-04-10T14:26:55Z</time>
      </trkpt>
      <trkpt lat="44.48238" lon="1.79965">
        <ele>272.3</ele>
        <time>2022-04-10T14:26:56Z</time>
      </trkpt>
      <trkpt lat="44.48242" lon="1.79966">
        <ele>272.4</ele>
        <time>2022-04-10T14:26:57Z</time>
      </trkpt>
      <trkpt lat="44.48245" lon="1.79967">
        <ele>272.6</ele>
        <time>2022-04-10T14:26:58Z</time>
      </trkpt>
      <trkpt lat="44.48247" lon="1.79968">
        <ele>272.7</ele>
        <time>2022-04-10T14:26:59Z</time>
      </trkpt>
      <trkpt lat="44.4825" lon="1.79971">
        <ele>272.9</ele>
        <time>2022-04-10T14:27:01Z</time>
      </trkpt>
      <trkpt lat="44.48253" lon="1.79972">
        <ele>273.2</ele>
        <time>2022-04-10T14:27:02Z</time>
      </trkpt>
      <trkpt lat="44.48258" lon="1.79974">
        <ele>273.6</ele>
        <time>2022-04-10T14:27:03Z</time>
      </trkpt>
      <trkpt lat="44.48261" lon="1.79975">
        <ele>273.9</ele>
        <time>2022-04-10T14:27:04Z</time>
      </trkpt>
      <trkpt lat="44.48265" lon="1.79976">
        <ele>274.3</ele>
        <time>2022-04-10T14:27:06Z</time>
      </trkpt>
      <trkpt lat="44.48268" lon="1.79977">
        <ele>274.6</ele>
        <time>2022-04-10T14:27:07Z</time>
      </trkpt>
      <trkpt lat="44.48271" lon="1.79979">
        <ele>274.9</ele>
        <time>2022-04-10T14:27:08Z</time>
      </trkpt>
      <trkpt lat="44.48275" lon="1.79979">
        <ele>275.3</ele>
        <time>2022-04-10T14:27:09Z</time>
      </trkpt>
      <trkpt lat="44.48276" lon="1.79979">
        <ele>275.4</ele>
        <time>2022-04-10T14:27:10Z</time>
      </trkpt>
      <trkpt lat="44.48279" lon="1.7998">
        <ele>275.6</ele>
        <time>2022-04-10T14:27:11Z</time>
      </trkpt>
      <trkpt lat="44.48282" lon="1.79983">
        <ele>275.9</ele>
        <time>2022-04-10T14:27:12Z</time>
      </trkpt>
      <trkpt lat="44.48285" lon="1.79984">
        <ele>276.2</ele>
        <time>2022-04-10T14:27:14Z</time>
      </trkpt>
      <trkpt lat="44.48289" lon="1.79987">
        <ele>276.5</ele>
        <time>2022-04-10T14:27:15Z</time>
      </trkpt>
      <trkpt lat="44.48295" lon="1.7999">
        <ele>276.9</ele>
        <time>2022-04-10T14:27:17Z</time>
      </trkpt>
      <trkpt lat="44.48301" lon="1.79991">
        <ele>277.1</ele>
        <time>2022-04-10T14:27:18Z</time>
      </trkpt>
      <trkpt lat="44.48305" lon="1.79992">
        <ele>277.3</ele>
        <time>2022-04-10T14:27:19Z</time>
      </trkpt>
      <trkpt lat="44.48312" lon="1.79993">
        <ele>277.6</ele>
        <time>2022-04-10T14:27:20Z</time>
      </trkpt>
      <trkpt lat="44.48317" lon="1.79993">
        <ele>278</ele>
        <time>2022-04-10T14:27:21Z</time>
      </trkpt>
      <trkpt lat="44.48323" lon="1.79994">
        <ele>278.4</ele>
        <time>2022-04-10T14:27:22Z</time>
      </trkpt>
      <trkpt lat="44.48328" lon="1.79995">
        <ele>278.8</ele>
        <time>2022-04-10T14:27:23Z</time>
      </trkpt>
      <trkpt lat="44.48332" lon="1.79996">
        <ele>279.2</ele>
        <time>2022-04-10T14:27:24Z</time>
      </trkpt>
      <trkpt lat="44.48335" lon="1.79996">
        <ele>279.6</ele>
        <time>2022-04-10T14:27:25Z</time>
      </trkpt>
      <trkpt lat="44.48339" lon="1.79997">
        <ele>279.9</ele>
        <time>2022-04-10T14:27:27Z</time>
      </trkpt>
      <trkpt lat="44.48342" lon="1.79997">
        <ele>280.4</ele>
        <time>2022-04-10T14:27:28Z</time>
      </trkpt>
      <trkpt lat="44.48345" lon="1.79998">
        <ele>280.8</ele>
        <time>2022-04-10T14:27:29Z</time>
      </trkpt>
      <trkpt lat="44.48348" lon="1.8">
        <ele>281.3</ele>
        <time>2022-04-10T14:27:30Z</time>
      </trkpt>
      <trkpt lat="44.48353" lon="1.80002">
        <ele>281.9</ele>
        <time>2022-04-10T14:27:32Z</time>
      </trkpt>
      <trkpt lat="44.48358" lon="1.80006">
        <ele>282.6</ele>
        <time>2022-04-10T14:27:33Z</time>
      </trkpt>
      <trkpt lat="44.4836" lon="1.80008">
        <ele>283</ele>
        <time>2022-04-10T14:27:34Z</time>
      </trkpt>
      <trkpt lat="44.48363" lon="1.80009">
        <ele>283.4</ele>
        <time>2022-04-10T14:27:35Z</time>
      </trkpt>
      <trkpt lat="44.48366" lon="1.80009">
        <ele>283.8</ele>
        <time>2022-04-10T14:27:36Z</time>
      </trkpt>
      <trkpt lat="44.48369" lon="1.80011">
        <ele>284.1</ele>
        <time>2022-04-10T14:27:37Z</time>
      </trkpt>
      <trkpt lat="44.48373" lon="1.80013">
        <ele>284.7</ele>
        <time>2022-04-10T14:27:39Z</time>
      </trkpt>
      <trkpt lat="44.48377" lon="1.80015">
        <ele>285.2</ele>
        <time>2022-04-10T14:27:40Z</time>
      </trkpt>
      <trkpt lat="44.4838" lon="1.80017">
        <ele>285.7</ele>
        <time>2022-04-10T14:27:41Z</time>
      </trkpt>
      <trkpt lat="44.48385" lon="1.8002">
        <ele>286.4</ele>
        <time>2022-04-10T14:27:42Z</time>
      </trkpt>
      <trkpt lat="44.48388" lon="1.80022">
        <ele>286.9</ele>
        <time>2022-04-10T14:27:43Z</time>
      </trkpt>
      <trkpt lat="44.48391" lon="1.80025">
        <ele>287.4</ele>
        <time>2022-04-10T14:27:45Z</time>
      </trkpt>
      <trkpt lat="44.48394" lon="1.80028">
        <ele>287.8</ele>
        <time>2022-04-10T14:27:46Z</time>
      </trkpt>
      <trkpt lat="44.48395" lon="1.80029">
        <ele>287.9</ele>
        <time>2022-04-10T14:27:47Z</time>
      </trkpt>
      <trkpt lat="44.48398" lon="1.80031">
        <ele>288.2</ele>
        <time>2022-04-10T14:27:48Z</time>
      </trkpt>
      <trkpt lat="44.484" lon="1.80031">
        <ele>288.3</ele>
        <time>2022-04-10T14:27:49Z</time>
      </trkpt>
      <trkpt lat="44.48402" lon="1.80035">
        <ele>288.6</ele>
        <time>2022-04-10T14:27:50Z</time>
      </trkpt>
      <trkpt lat="44.48403" lon="1.80036">
        <ele>288.8</ele>
        <time>2022-04-10T14:27:51Z</time>
      </trkpt>
      <trkpt lat="44.48404" lon="1.80045">
        <ele>289.3</ele>
        <time>2022-04-10T14:27:53Z</time>
      </trkpt>
      <trkpt lat="44.48404" lon="1.8005">
        <ele>289.6</ele>
        <time>2022-04-10T14:27:54Z</time>
      </trkpt>
      <trkpt lat="44.48403" lon="1.80052">
        <ele>289.9</ele>
        <time>2022-04-10T14:27:55Z</time>
      </trkpt>
      <trkpt lat="44.48396" lon="1.80055">
        <ele>290.6</ele>
        <time>2022-04-10T14:27:57Z</time>
      </trkpt>
      <trkpt lat="44.48394" lon="1.80057">
        <ele>290.9</ele>
        <time>2022-04-10T14:27:58Z</time>
      </trkpt>
      <trkpt lat="44.48392" lon="1.80063">
        <ele>291.4</ele>
        <time>2022-04-10T14:28:00Z</time>
      </trkpt>
      <trkpt lat="44.48394" lon="1.80066">
        <ele>291.8</ele>
        <time>2022-04-10T14:28:01Z</time>
      </trkpt>
      <trkpt lat="44.48397" lon="1.80069">
        <ele>292.1</ele>
        <time>2022-04-10T14:28:02Z</time>
      </trkpt>
      <trkpt lat="44.48399" lon="1.80072">
        <ele>292.4</ele>
        <time>2022-04-10T14:28:03Z</time>
      </trkpt>
      <trkpt lat="44.48403" lon="1.80078">
        <ele>293</ele>
        <time>2022-04-10T14:28:05Z</time>
      </trkpt>
      <trkpt lat="44.48405" lon="1.80082">
        <ele>293.3</ele>
        <time>2022-04-10T14:28:06Z</time>
      </trkpt>
      <trkpt lat="44.48407" lon="1.80085">
        <ele>293.6</ele>
        <time>2022-04-10T14:28:07Z</time>
      </trkpt>
      <trkpt lat="44.4841" lon="1.80088">
        <ele>293.9</ele>
        <time>2022-04-10T14:28:08Z</time>
      </trkpt>
      <trkpt lat="44.48413" lon="1.8009">
        <ele>294.2</ele>
        <time>2022-04-10T14:28:09Z</time>
      </trkpt>
      <trkpt lat="44.48415" lon="1.80095">
        <ele>294.6</ele>
        <time>2022-04-10T14:28:11Z</time>
      </trkpt>
      <trkpt lat="44.48418" lon="1.80099">
        <ele>295</ele>
        <time>2022-04-10T14:28:12Z</time>
      </trkpt>
      <trkpt lat="44.48419" lon="1.801">
        <ele>295.1</ele>
        <time>2022-04-10T14:28:13Z</time>
      </trkpt>
      <trkpt lat="44.48421" lon="1.80104">
        <ele>295.5</ele>
        <time>2022-04-10T14:28:14Z</time>
      </trkpt>
      <trkpt lat="44.48424" lon="1.80106">
        <ele>295.7</ele>
        <time>2022-04-10T14:28:15Z</time>
      </trkpt>
      <trkpt lat="44.48428" lon="1.80109">
        <ele>296</ele>
        <time>2022-04-10T14:28:17Z</time>
      </trkpt>
      <trkpt lat="44.48432" lon="1.80113">
        <ele>296.3</ele>
        <time>2022-04-10T14:28:18Z</time>
      </trkpt>
      <trkpt lat="44.48438" lon="1.80112">
        <ele>296.7</ele>
        <time>2022-04-10T14:28:20Z</time>
      </trkpt>
      <trkpt lat="44.48441" lon="1.8011">
        <ele>297</ele>
        <time>2022-04-10T14:28:21Z</time>
      </trkpt>
      <trkpt lat="44.48442" lon="1.80109">
        <ele>297.1</ele>
        <time>2022-04-10T14:28:22Z</time>
      </trkpt>
      <trkpt lat="44.48446" lon="1.80106">
        <ele>297.4</ele>
        <time>2022-04-10T14:28:23Z</time>
      </trkpt>
      <trkpt lat="44.4845" lon="1.80102">
        <ele>297.8</ele>
        <time>2022-04-10T14:28:25Z</time>
      </trkpt>
      <trkpt lat="44.48452" lon="1.80098">
        <ele>298</ele>
        <time>2022-04-10T14:28:26Z</time>
      </trkpt>
      <trkpt lat="44.48455" lon="1.80094">
        <ele>298.3</ele>
        <time>2022-04-10T14:28:27Z</time>
      </trkpt>
      <trkpt lat="44.48456" lon="1.8009">
        <ele>298.6</ele>
        <time>2022-04-10T14:28:28Z</time>
      </trkpt>
      <trkpt lat="44.48457" lon="1.80084">
        <ele>298.9</ele>
        <time>2022-04-10T14:28:29Z</time>
      </trkpt>
      <trkpt lat="44.48457" lon="1.80081">
        <ele>299</ele>
        <time>2022-04-10T14:28:30Z</time>
      </trkpt>
      <trkpt lat="44.48457" lon="1.80076">
        <ele>299.3</ele>
        <time>2022-04-10T14:28:31Z</time>
      </trkpt>
      <trkpt lat="44.48457" lon="1.80067">
        <ele>299.7</ele>
        <time>2022-04-10T14:28:33Z</time>
      </trkpt>
      <trkpt lat="44.48456" lon="1.8006">
        <ele>300</ele>
        <time>2022-04-10T14:28:34Z</time>
      </trkpt>
      <trkpt lat="44.48456" lon="1.80053">
        <ele>300.3</ele>
        <time>2022-04-10T14:28:35Z</time>
      </trkpt>
      <trkpt lat="44.48456" lon="1.8005">
        <ele>300.4</ele>
        <time>2022-04-10T14:28:36Z</time>
      </trkpt>
      <trkpt lat="44.48454" lon="1.80041">
        <ele>300.9</ele>
        <time>2022-04-10T14:28:38Z</time>
      </trkpt>
      <trkpt lat="44.48453" lon="1.80036">
        <ele>301.3</ele>
        <time>2022-04-10T14:28:39Z</time>
      </trkpt>
      <trkpt lat="44.48452" lon="1.80029">
        <ele>301.7</ele>
        <time>2022-04-10T14:28:41Z</time>
      </trkpt>
      <trkpt lat="44.4845" lon="1.80023">
        <ele>302</ele>
        <time>2022-04-10T14:28:42Z</time>
      </trkpt>
      <trkpt lat="44.48448" lon="1.80018">
        <ele>302.3</ele>
        <time>2022-04-10T14:28:43Z</time>
      </trkpt>
      <trkpt lat="44.48446" lon="1.80012">
        <ele>302.6</ele>
        <time>2022-04-10T14:28:44Z</time>
      </trkpt>
      <trkpt lat="44.48445" lon="1.80007">
        <ele>303</ele>
        <time>2022-04-10T14:28:45Z</time>
      </trkpt>
      <trkpt lat="44.48444" lon="1.79997">
        <ele>303.6</ele>
        <time>2022-04-10T14:28:47Z</time>
      </trkpt>
      <trkpt lat="44.48442" lon="1.7999">
        <ele>304.1</ele>
        <time>2022-04-10T14:28:48Z</time>
      </trkpt>
      <trkpt lat="44.48439" lon="1.79982">
        <ele>304.6</ele>
        <time>2022-04-10T14:28:50Z</time>
      </trkpt>
      <trkpt lat="44.48436" lon="1.79976">
        <ele>305</ele>
        <time>2022-04-10T14:28:51Z</time>
      </trkpt>
      <trkpt lat="44.48433" lon="1.79969">
        <ele>305.6</ele>
        <time>2022-04-10T14:28:53Z</time>
      </trkpt>
      <trkpt lat="44.4843" lon="1.79963">
        <ele>306.1</ele>
        <time>2022-04-10T14:28:54Z</time>
      </trkpt>
      <trkpt lat="44.48428" lon="1.79958">
        <ele>306.4</ele>
        <time>2022-04-10T14:28:55Z</time>
      </trkpt>
      <trkpt lat="44.48426" lon="1.79953">
        <ele>306.7</ele>
        <time>2022-04-10T14:28:57Z</time>
      </trkpt>
      <trkpt lat="44.48424" lon="1.79948">
        <ele>306.9</ele>
        <time>2022-04-10T14:28:58Z</time>
      </trkpt>
      <trkpt lat="44.48421" lon="1.79944">
        <ele>307.1</ele>
        <time>2022-04-10T14:28:59Z</time>
      </trkpt>
      <trkpt lat="44.48418" lon="1.79935">
        <ele>307.4</ele>
        <time>2022-04-10T14:29:00Z</time>
      </trkpt>
      <trkpt lat="44.48415" lon="1.7993">
        <ele>307.6</ele>
        <time>2022-04-10T14:29:01Z</time>
      </trkpt>
      <trkpt lat="44.48413" lon="1.79926">
        <ele>307.8</ele>
        <time>2022-04-10T14:29:02Z</time>
      </trkpt>
      <trkpt lat="44.4841" lon="1.79921">
        <ele>307.9</ele>
        <time>2022-04-10T14:29:03Z</time>
      </trkpt>
      <trkpt lat="44.48408" lon="1.79916">
        <ele>308.1</ele>
        <time>2022-04-10T14:29:04Z</time>
      </trkpt>
      <trkpt lat="44.48405" lon="1.79913">
        <ele>308.2</ele>
        <time>2022-04-10T14:29:05Z</time>
      </trkpt>
      <trkpt lat="44.48402" lon="1.79909">
        <ele>308.3</ele>
        <time>2022-04-10T14:29:06Z</time>
      </trkpt>
      <trkpt lat="44.48399" lon="1.79904">
        <ele>308.4</ele>
        <time>2022-04-10T14:29:07Z</time>
      </trkpt>
      <trkpt lat="44.48397" lon="1.79898">
        <ele>308.5</ele>
        <time>2022-04-10T14:29:08Z</time>
      </trkpt>
      <trkpt lat="44.48394" lon="1.79893">
        <ele>308.6</ele>
        <time>2022-04-10T14:29:09Z</time>
      </trkpt>
      <trkpt lat="44.48393" lon="1.7989">
        <ele>308.7</ele>
        <time>2022-04-10T14:29:11Z</time>
      </trkpt>
      <trkpt lat="44.48394" lon="1.79884">
        <ele>308.8</ele>
        <time>2022-04-10T14:29:12Z</time>
      </trkpt>
      <trkpt lat="44.48396" lon="1.79888">
        <ele>308.9</ele>
        <time>2022-04-10T14:29:13Z</time>
      </trkpt>
      <trkpt lat="44.48396" lon="1.79889">
        <ele>309</ele>
        <time>2022-04-10T14:29:14Z</time>
      </trkpt>
      <trkpt lat="44.48397" lon="1.79891">
        <ele>309</ele>
        <time>2022-04-10T14:29:15Z</time>
      </trkpt>
      <trkpt lat="44.48399" lon="1.79893">
        <ele>309</ele>
        <time>2022-04-10T14:29:16Z</time>
      </trkpt>
      <trkpt lat="44.48402" lon="1.79896">
        <ele>309.1</ele>
        <time>2022-04-10T14:29:17Z</time>
      </trkpt>
      <trkpt lat="44.48405" lon="1.799">
        <ele>309.1</ele>
        <time>2022-04-10T14:29:18Z</time>
      </trkpt>
      <trkpt lat="44.48409" lon="1.79904">
        <ele>309.1</ele>
        <time>2022-04-10T14:29:19Z</time>
      </trkpt>
      <trkpt lat="44.48413" lon="1.79907">
        <ele>309.2</ele>
        <time>2022-04-10T14:29:20Z</time>
      </trkpt>
      <trkpt lat="44.48417" lon="1.79911">
        <ele>309.2</ele>
        <time>2022-04-10T14:29:21Z</time>
      </trkpt>
      <trkpt lat="44.48421" lon="1.79916">
        <ele>309.2</ele>
        <time>2022-04-10T14:29:22Z</time>
      </trkpt>
      <trkpt lat="44.48425" lon="1.79919">
        <ele>309.2</ele>
        <time>2022-04-10T14:29:23Z</time>
      </trkpt>
      <trkpt lat="44.48429" lon="1.79921">
        <ele>309.2</ele>
        <time>2022-04-10T14:29:25Z</time>
      </trkpt>
      <trkpt lat="44.48432" lon="1.79921">
        <ele>309.1</ele>
        <time>2022-04-10T14:29:26Z</time>
      </trkpt>
      <trkpt lat="44.48436" lon="1.79922">
        <ele>309.1</ele>
        <time>2022-04-10T14:29:27Z</time>
      </trkpt>
      <trkpt lat="44.48439" lon="1.79927">
        <ele>308.9</ele>
        <time>2022-04-10T14:29:28Z</time>
      </trkpt>
      <trkpt lat="44.48446" lon="1.79937">
        <ele>308.1</ele>
        <time>2022-04-10T14:29:29Z</time>
      </trkpt>
      <trkpt lat="44.48449" lon="1.79944">
        <ele>307.7</ele>
        <time>2022-04-10T14:29:30Z</time>
      </trkpt>
      <trkpt lat="44.48452" lon="1.79952">
        <ele>307.3</ele>
        <time>2022-04-10T14:29:31Z</time>
      </trkpt>
      <trkpt lat="44.48455" lon="1.79959">
        <ele>307</ele>
        <time>2022-04-10T14:29:32Z</time>
      </trkpt>
      <trkpt lat="44.48459" lon="1.79967">
        <ele>306.8</ele>
        <time>2022-04-10T14:29:33Z</time>
      </trkpt>
      <trkpt lat="44.48462" lon="1.79974">
        <ele>306.6</ele>
        <time>2022-04-10T14:29:34Z</time>
      </trkpt>
      <trkpt lat="44.48464" lon="1.79981">
        <ele>306.6</ele>
        <time>2022-04-10T14:29:35Z</time>
      </trkpt>
      <trkpt lat="44.48467" lon="1.79988">
        <ele>306.6</ele>
        <time>2022-04-10T14:29:36Z</time>
      </trkpt>
      <trkpt lat="44.4847" lon="1.79995">
        <ele>306.6</ele>
        <time>2022-04-10T14:29:37Z</time>
      </trkpt>
      <trkpt lat="44.48473" lon="1.80001">
        <ele>306.7</ele>
        <time>2022-04-10T14:29:38Z</time>
      </trkpt>
      <trkpt lat="44.48476" lon="1.80006">
        <ele>306.9</ele>
        <time>2022-04-10T14:29:39Z</time>
      </trkpt>
      <trkpt lat="44.48479" lon="1.80011">
        <ele>307</ele>
        <time>2022-04-10T14:29:40Z</time>
      </trkpt>
      <trkpt lat="44.48482" lon="1.80016">
        <ele>307.2</ele>
        <time>2022-04-10T14:29:41Z</time>
      </trkpt>
      <trkpt lat="44.48485" lon="1.8002">
        <ele>307.4</ele>
        <time>2022-04-10T14:29:42Z</time>
      </trkpt>
      <trkpt lat="44.48488" lon="1.80024">
        <ele>307.6</ele>
        <time>2022-04-10T14:29:43Z</time>
      </trkpt>
      <trkpt lat="44.48491" lon="1.80027">
        <ele>307.8</ele>
        <time>2022-04-10T14:29:44Z</time>
      </trkpt>
      <trkpt lat="44.48493" lon="1.8003">
        <ele>307.7</ele>
        <time>2022-04-10T14:29:45Z</time>
      </trkpt>
      <trkpt lat="44.48495" lon="1.80032">
        <ele>307.5</ele>
        <time>2022-04-10T14:29:46Z</time>
      </trkpt>
      <trkpt lat="44.48497" lon="1.80032">
        <ele>307.2</ele>
        <time>2022-04-10T14:29:47Z</time>
      </trkpt>
      <trkpt lat="44.48498" lon="1.80029">
        <ele>307</ele>
        <time>2022-04-10T14:29:48Z</time>
      </trkpt>
      <trkpt lat="44.48498" lon="1.80029">
        <ele>307</ele>
        <time>2022-04-10T14:29:49Z</time>
      </trkpt>
      <trkpt lat="44.48499" lon="1.80026">
        <ele>306.7</ele>
        <time>2022-04-10T14:29:50Z</time>
      </trkpt>
      <trkpt lat="44.48501" lon="1.80021">
        <ele>306.1</ele>
        <time>2022-04-10T14:29:52Z</time>
      </trkpt>
      <trkpt lat="44.48504" lon="1.80019">
        <ele>305.7</ele>
        <time>2022-04-10T14:29:53Z</time>
      </trkpt>
      <trkpt lat="44.48506" lon="1.80016">
        <ele>305.3</ele>
        <time>2022-04-10T14:29:54Z</time>
      </trkpt>
      <trkpt lat="44.4851" lon="1.80014">
        <ele>304.7</ele>
        <time>2022-04-10T14:29:55Z</time>
      </trkpt>
      <trkpt lat="44.48514" lon="1.80012">
        <ele>304.1</ele>
        <time>2022-04-10T14:29:56Z</time>
      </trkpt>
      <trkpt lat="44.48522" lon="1.80009">
        <ele>302.9</ele>
        <time>2022-04-10T14:29:57Z</time>
      </trkpt>
      <trkpt lat="44.48528" lon="1.80005">
        <ele>302</ele>
        <time>2022-04-10T14:29:58Z</time>
      </trkpt>
      <trkpt lat="44.48534" lon="1.8">
        <ele>301.1</ele>
        <time>2022-04-10T14:29:59Z</time>
      </trkpt>
      <trkpt lat="44.4854" lon="1.79994">
        <ele>300.1</ele>
        <time>2022-04-10T14:30:00Z</time>
      </trkpt>
      <trkpt lat="44.48547" lon="1.79987">
        <ele>299.2</ele>
        <time>2022-04-10T14:30:01Z</time>
      </trkpt>
      <trkpt lat="44.48555" lon="1.79979">
        <ele>298.3</ele>
        <time>2022-04-10T14:30:02Z</time>
      </trkpt>
      <trkpt lat="44.48562" lon="1.79972">
        <ele>297.3</ele>
        <time>2022-04-10T14:30:03Z</time>
      </trkpt>
      <trkpt lat="44.4857" lon="1.79964">
        <ele>296.3</ele>
        <time>2022-04-10T14:30:04Z</time>
      </trkpt>
      <trkpt lat="44.48577" lon="1.79956">
        <ele>295.4</ele>
        <time>2022-04-10T14:30:05Z</time>
      </trkpt>
      <trkpt lat="44.48585" lon="1.79948">
        <ele>294.5</ele>
        <time>2022-04-10T14:30:06Z</time>
      </trkpt>
      <trkpt lat="44.48593" lon="1.79941">
        <ele>293.7</ele>
        <time>2022-04-10T14:30:07Z</time>
      </trkpt>
      <trkpt lat="44.48602" lon="1.79935">
        <ele>292.8</ele>
        <time>2022-04-10T14:30:08Z</time>
      </trkpt>
      <trkpt lat="44.48611" lon="1.79928">
        <ele>291.9</ele>
        <time>2022-04-10T14:30:09Z</time>
      </trkpt>
      <trkpt lat="44.48619" lon="1.79921">
        <ele>291.1</ele>
        <time>2022-04-10T14:30:10Z</time>
      </trkpt>
      <trkpt lat="44.48628" lon="1.79914">
        <ele>290.3</ele>
        <time>2022-04-10T14:30:11Z</time>
      </trkpt>
      <trkpt lat="44.48636" lon="1.79906">
        <ele>289.5</ele>
        <time>2022-04-10T14:30:12Z</time>
      </trkpt>
      <trkpt lat="44.48645" lon="1.79899">
        <ele>288.6</ele>
        <time>2022-04-10T14:30:13Z</time>
      </trkpt>
      <trkpt lat="44.48653" lon="1.79891">
        <ele>287.6</ele>
        <time>2022-04-10T14:30:14Z</time>
      </trkpt>
      <trkpt lat="44.48662" lon="1.79884">
        <ele>286.7</ele>
        <time>2022-04-10T14:30:15Z</time>
      </trkpt>
      <trkpt lat="44.4867" lon="1.79876">
        <ele>285.7</ele>
        <time>2022-04-10T14:30:16Z</time>
      </trkpt>
      <trkpt lat="44.48678" lon="1.79868">
        <ele>284.6</ele>
        <time>2022-04-10T14:30:17Z</time>
      </trkpt>
      <trkpt lat="44.48687" lon="1.79859">
        <ele>283.5</ele>
        <time>2022-04-10T14:30:18Z</time>
      </trkpt>
      <trkpt lat="44.48696" lon="1.7985">
        <ele>282.5</ele>
        <time>2022-04-10T14:30:19Z</time>
      </trkpt>
      <trkpt lat="44.48705" lon="1.79842">
        <ele>281.3</ele>
        <time>2022-04-10T14:30:20Z</time>
      </trkpt>
      <trkpt lat="44.48713" lon="1.79835">
        <ele>280.1</ele>
        <time>2022-04-10T14:30:21Z</time>
      </trkpt>
      <trkpt lat="44.48722" lon="1.79828">
        <ele>279</ele>
        <time>2022-04-10T14:30:22Z</time>
      </trkpt>
      <trkpt lat="44.48732" lon="1.79821">
        <ele>278</ele>
        <time>2022-04-10T14:30:23Z</time>
      </trkpt>
      <trkpt lat="44.48742" lon="1.79815">
        <ele>277.1</ele>
        <time>2022-04-10T14:30:24Z</time>
      </trkpt>
      <trkpt lat="44.48752" lon="1.79808">
        <ele>276.1</ele>
        <time>2022-04-10T14:30:25Z</time>
      </trkpt>
      <trkpt lat="44.48762" lon="1.79802">
        <ele>275.1</ele>
        <time>2022-04-10T14:30:26Z</time>
      </trkpt>
      <trkpt lat="44.48772" lon="1.79796">
        <ele>274.1</ele>
        <time>2022-04-10T14:30:27Z</time>
      </trkpt>
      <trkpt lat="44.48782" lon="1.7979">
        <ele>273.1</ele>
        <time>2022-04-10T14:30:28Z</time>
      </trkpt>
      <trkpt lat="44.48793" lon="1.79784">
        <ele>272.1</ele>
        <time>2022-04-10T14:30:29Z</time>
      </trkpt>
      <trkpt lat="44.48803" lon="1.79778">
        <ele>271.3</ele>
        <time>2022-04-10T14:30:30Z</time>
      </trkpt>
      <trkpt lat="44.48814" lon="1.79773">
        <ele>270.5</ele>
        <time>2022-04-10T14:30:31Z</time>
      </trkpt>
      <trkpt lat="44.48825" lon="1.79767">
        <ele>269.5</ele>
        <time>2022-04-10T14:30:32Z</time>
      </trkpt>
      <trkpt lat="44.48835" lon="1.79761">
        <ele>268.6</ele>
        <time>2022-04-10T14:30:33Z</time>
      </trkpt>
      <trkpt lat="44.48846" lon="1.79755">
        <ele>267.6</ele>
        <time>2022-04-10T14:30:34Z</time>
      </trkpt>
      <trkpt lat="44.48857" lon="1.7975">
        <ele>266.7</ele>
        <time>2022-04-10T14:30:35Z</time>
      </trkpt>
      <trkpt lat="44.48868" lon="1.79744">
        <ele>265.9</ele>
        <time>2022-04-10T14:30:36Z</time>
      </trkpt>
      <trkpt lat="44.48879" lon="1.79739">
        <ele>264.9</ele>
        <time>2022-04-10T14:30:37Z</time>
      </trkpt>
      <trkpt lat="44.4889" lon="1.79733">
        <ele>263.9</ele>
        <time>2022-04-10T14:30:38Z</time>
      </trkpt>
      <trkpt lat="44.48901" lon="1.79728">
        <ele>263</ele>
        <time>2022-04-10T14:30:39Z</time>
      </trkpt>
      <trkpt lat="44.48912" lon="1.79724">
        <ele>262.3</ele>
        <time>2022-04-10T14:30:40Z</time>
      </trkpt>
      <trkpt lat="44.48923" lon="1.79718">
        <ele>261.6</ele>
        <time>2022-04-10T14:30:41Z</time>
      </trkpt>
      <trkpt lat="44.48932" lon="1.79713">
        <ele>261.1</ele>
        <time>2022-04-10T14:30:42Z</time>
      </trkpt>
      <trkpt lat="44.48939" lon="1.79709">
        <ele>260.8</ele>
        <time>2022-04-10T14:30:43Z</time>
      </trkpt>
      <trkpt lat="44.48946" lon="1.79707">
        <ele>260.5</ele>
        <time>2022-04-10T14:30:44Z</time>
      </trkpt>
      <trkpt lat="44.48953" lon="1.79704">
        <ele>260</ele>
        <time>2022-04-10T14:30:45Z</time>
      </trkpt>
      <trkpt lat="44.48959" lon="1.79701">
        <ele>259.2</ele>
        <time>2022-04-10T14:30:46Z</time>
      </trkpt>
      <trkpt lat="44.48965" lon="1.79696">
        <ele>258.3</ele>
        <time>2022-04-10T14:30:47Z</time>
      </trkpt>
      <trkpt lat="44.48969" lon="1.79693">
        <ele>257.6</ele>
        <time>2022-04-10T14:30:48Z</time>
      </trkpt>
      <trkpt lat="44.48972" lon="1.79689">
        <ele>257</ele>
        <time>2022-04-10T14:30:49Z</time>
      </trkpt>
      <trkpt lat="44.48976" lon="1.79683">
        <ele>256.3</ele>
        <time>2022-04-10T14:30:50Z</time>
      </trkpt>
      <trkpt lat="44.4898" lon="1.79676">
        <ele>255.5</ele>
        <time>2022-04-10T14:30:51Z</time>
      </trkpt>
      <trkpt lat="44.48985" lon="1.79669">
        <ele>254.8</ele>
        <time>2022-04-10T14:30:52Z</time>
      </trkpt>
      <trkpt lat="44.4899" lon="1.79663">
        <ele>254.1</ele>
        <time>2022-04-10T14:30:53Z</time>
      </trkpt>
      <trkpt lat="44.48995" lon="1.79658">
        <ele>253.5</ele>
        <time>2022-04-10T14:30:54Z</time>
      </trkpt>
      <trkpt lat="44.48998" lon="1.79654">
        <ele>253</ele>
        <time>2022-04-10T14:30:55Z</time>
      </trkpt>
      <trkpt lat="44.49" lon="1.79651">
        <ele>252.7</ele>
        <time>2022-04-10T14:30:56Z</time>
      </trkpt>
      <trkpt lat="44.49001" lon="1.7965">
        <ele>252.6</ele>
        <time>2022-04-10T14:30:57Z</time>
      </trkpt>
      <trkpt lat="44.49002" lon="1.79646">
        <ele>252.3</ele>
        <time>2022-04-10T14:30:58Z</time>
      </trkpt>
      <trkpt lat="44.49002" lon="1.79641">
        <ele>251.9</ele>
        <time>2022-04-10T14:30:59Z</time>
      </trkpt>
      <trkpt lat="44.49001" lon="1.79638">
        <ele>251.7</ele>
        <time>2022-04-10T14:31:00Z</time>
      </trkpt>
      <trkpt lat="44.49005" lon="1.79628">
        <ele>251</ele>
        <time>2022-04-10T14:31:01Z</time>
      </trkpt>
      <trkpt lat="44.49008" lon="1.79621">
        <ele>250.5</ele>
        <time>2022-04-10T14:31:02Z</time>
      </trkpt>
      <trkpt lat="44.49012" lon="1.79613">
        <ele>250</ele>
        <time>2022-04-10T14:31:03Z</time>
      </trkpt>
      <trkpt lat="44.49017" lon="1.79605">
        <ele>249.5</ele>
        <time>2022-04-10T14:31:04Z</time>
      </trkpt>
      <trkpt lat="44.49021" lon="1.79596">
        <ele>248.9</ele>
        <time>2022-04-10T14:31:05Z</time>
      </trkpt>
      <trkpt lat="44.49023" lon="1.79586">
        <ele>248.3</ele>
        <time>2022-04-10T14:31:06Z</time>
      </trkpt>
      <trkpt lat="44.49025" lon="1.79576">
        <ele>247.5</ele>
        <time>2022-04-10T14:31:07Z</time>
      </trkpt>
      <trkpt lat="44.49027" lon="1.79564">
        <ele>246.5</ele>
        <time>2022-04-10T14:31:08Z</time>
      </trkpt>
      <trkpt lat="44.4903" lon="1.79551">
        <ele>245.3</ele>
        <time>2022-04-10T14:31:09Z</time>
      </trkpt>
      <trkpt lat="44.49033" lon="1.79539">
        <ele>244.2</ele>
        <time>2022-04-10T14:31:10Z</time>
      </trkpt>
      <trkpt lat="44.49036" lon="1.79529">
        <ele>243.2</ele>
        <time>2022-04-10T14:31:11Z</time>
      </trkpt>
      <trkpt lat="44.49039" lon="1.79522">
        <ele>242.3</ele>
        <time>2022-04-10T14:31:12Z</time>
      </trkpt>
      <trkpt lat="44.49041" lon="1.79516">
        <ele>241.6</ele>
        <time>2022-04-10T14:31:13Z</time>
      </trkpt>
      <trkpt lat="44.49042" lon="1.79512">
        <ele>241.2</ele>
        <time>2022-04-10T14:31:14Z</time>
      </trkpt>
      <trkpt lat="44.49044" lon="1.79509">
        <ele>240.8</ele>
        <time>2022-04-10T14:31:15Z</time>
      </trkpt>
      <trkpt lat="44.49047" lon="1.79507">
        <ele>240.5</ele>
        <time>2022-04-10T14:31:16Z</time>
      </trkpt>
      <trkpt lat="44.49051" lon="1.79507">
        <ele>240.2</ele>
        <time>2022-04-10T14:31:17Z</time>
      </trkpt>
      <trkpt lat="44.49053" lon="1.7951">
        <ele>239.9</ele>
        <time>2022-04-10T14:31:18Z</time>
      </trkpt>
      <trkpt lat="44.49056" lon="1.79516">
        <ele>239.6</ele>
        <time>2022-04-10T14:31:19Z</time>
      </trkpt>
      <trkpt lat="44.49058" lon="1.79521">
        <ele>239.4</ele>
        <time>2022-04-10T14:31:20Z</time>
      </trkpt>
      <trkpt lat="44.49061" lon="1.79528">
        <ele>239</ele>
        <time>2022-04-10T14:31:21Z</time>
      </trkpt>
      <trkpt lat="44.49063" lon="1.79535">
        <ele>238.7</ele>
        <time>2022-04-10T14:31:22Z</time>
      </trkpt>
      <trkpt lat="44.49066" lon="1.79542">
        <ele>238.2</ele>
        <time>2022-04-10T14:31:23Z</time>
      </trkpt>
      <trkpt lat="44.49069" lon="1.79549">
        <ele>237.7</ele>
        <time>2022-04-10T14:31:24Z</time>
      </trkpt>
      <trkpt lat="44.49072" lon="1.79557">
        <ele>237.1</ele>
        <time>2022-04-10T14:31:25Z</time>
      </trkpt>
      <trkpt lat="44.49075" lon="1.79564">
        <ele>236.4</ele>
        <time>2022-04-10T14:31:26Z</time>
      </trkpt>
      <trkpt lat="44.49079" lon="1.79572">
        <ele>235.6</ele>
        <time>2022-04-10T14:31:27Z</time>
      </trkpt>
      <trkpt lat="44.49083" lon="1.7958">
        <ele>234.8</ele>
        <time>2022-04-10T14:31:28Z</time>
      </trkpt>
      <trkpt lat="44.49087" lon="1.79589">
        <ele>234.1</ele>
        <time>2022-04-10T14:31:29Z</time>
      </trkpt>
      <trkpt lat="44.49091" lon="1.79599">
        <ele>233.4</ele>
        <time>2022-04-10T14:31:30Z</time>
      </trkpt>
      <trkpt lat="44.49095" lon="1.79611">
        <ele>232.6</ele>
        <time>2022-04-10T14:31:31Z</time>
      </trkpt>
      <trkpt lat="44.49099" lon="1.79623">
        <ele>231.8</ele>
        <time>2022-04-10T14:31:32Z</time>
      </trkpt>
      <trkpt lat="44.49103" lon="1.79635">
        <ele>231.1</ele>
        <time>2022-04-10T14:31:33Z</time>
      </trkpt>
      <trkpt lat="44.49106" lon="1.79648">
        <ele>230.4</ele>
        <time>2022-04-10T14:31:34Z</time>
      </trkpt>
      <trkpt lat="44.4911" lon="1.79661">
        <ele>229.4</ele>
        <time>2022-04-10T14:31:35Z</time>
      </trkpt>
      <trkpt lat="44.49114" lon="1.79673">
        <ele>228.4</ele>
        <time>2022-04-10T14:31:36Z</time>
      </trkpt>
      <trkpt lat="44.49117" lon="1.79685">
        <ele>227.6</ele>
        <time>2022-04-10T14:31:37Z</time>
      </trkpt>
      <trkpt lat="44.4912" lon="1.79695">
        <ele>227.1</ele>
        <time>2022-04-10T14:31:38Z</time>
      </trkpt>
      <trkpt lat="44.49124" lon="1.79703">
        <ele>226.6</ele>
        <time>2022-04-10T14:31:39Z</time>
      </trkpt>
      <trkpt lat="44.49128" lon="1.79708">
        <ele>226.1</ele>
        <time>2022-04-10T14:31:40Z</time>
      </trkpt>
      <trkpt lat="44.49131" lon="1.79709">
        <ele>225.7</ele>
        <time>2022-04-10T14:31:41Z</time>
      </trkpt>
      <trkpt lat="44.49135" lon="1.79708">
        <ele>225.3</ele>
        <time>2022-04-10T14:31:42Z</time>
      </trkpt>
      <trkpt lat="44.49137" lon="1.79708">
        <ele>225.1</ele>
        <time>2022-04-10T14:31:43Z</time>
      </trkpt>
      <trkpt lat="44.4914" lon="1.79709">
        <ele>224.6</ele>
        <time>2022-04-10T14:31:44Z</time>
      </trkpt>
      <trkpt lat="44.49142" lon="1.79709">
        <ele>224.6</ele>
        <time>2022-04-10T14:31:45Z</time>
      </trkpt>
      <trkpt lat="44.49144" lon="1.79708">
        <ele>224.6</ele>
        <time>2022-04-10T14:31:46Z</time>
      </trkpt>
      <trkpt lat="44.49144" lon="1.79709">
        <ele>224.6</ele>
        <time>2022-04-10T14:31:47Z</time>
      </trkpt>
      <trkpt lat="44.49144" lon="1.7971">
        <ele>224.6</ele>
        <time>2022-04-10T14:31:48Z</time>
      </trkpt>
      <trkpt lat="44.49144" lon="1.79711">
        <ele>224.6</ele>
        <time>2022-04-10T14:31:50Z</time>
      </trkpt>
      <trkpt lat="44.49144" lon="1.79713">
        <ele>227.2</ele>
        <time>2022-04-10T14:31:51Z</time>
      </trkpt>
      <trkpt lat="44.49144" lon="1.79714">
        <ele>227.2</ele>
        <time>2022-04-10T14:31:52Z</time>
      </trkpt>
      <trkpt lat="44.49144" lon="1.79715">
        <ele>227.2</ele>
        <time>2022-04-10T14:31:53Z</time>
      </trkpt>
      <trkpt lat="44.49144" lon="1.79716">
        <ele>227.2</ele>
        <time>2022-04-10T14:31:54Z</time>
      </trkpt>
      <trkpt lat="44.49144" lon="1.79718">
        <ele>227.2</ele>
        <time>2022-04-10T14:31:55Z</time>
      </trkpt>
      <trkpt lat="44.49144" lon="1.79719">
        <ele>227.2</ele>
        <time>2022-04-10T14:31:56Z</time>
      </trkpt>
      <trkpt lat="44.49144" lon="1.7972">
        <ele>227.2</ele>
        <time>2022-04-10T14:31:57Z</time>
      </trkpt>
      <trkpt lat="44.49144" lon="1.79721">
        <ele>227.2</ele>
        <time>2022-04-10T14:32:19Z</time>
      </trkpt>
      <trkpt lat="44.49144" lon="1.79722">
        <ele>227.2</ele>
        <time>2022-04-10T14:32:20Z</time>
      </trkpt>
      <trkpt lat="44.49144" lon="1.79726">
        <ele>227.2</ele>
        <time>2022-04-10T14:32:21Z</time>
      </trkpt>
      <trkpt lat="44.49143" lon="1.79732">
        <ele>229.9</ele>
        <time>2022-04-10T14:32:22Z</time>
      </trkpt>
      <trkpt lat="44.49143" lon="1.79733">
        <ele>229.8</ele>
        <time>2022-04-10T14:32:23Z</time>
      </trkpt>
      <trkpt lat="44.49143" lon="1.79738">
        <ele>229.8</ele>
        <time>2022-04-10T14:32:24Z</time>
      </trkpt>
      <trkpt lat="44.49142" lon="1.79746">
        <ele>229.8</ele>
        <time>2022-04-10T14:32:26Z</time>
      </trkpt>
      <trkpt lat="44.49141" lon="1.79752">
        <ele>232.7</ele>
        <time>2022-04-10T14:32:28Z</time>
      </trkpt>
      <trkpt lat="44.4914" lon="1.79757">
        <ele>232.7</ele>
        <time>2022-04-10T14:32:29Z</time>
      </trkpt>
      <trkpt lat="44.4914" lon="1.79761">
        <ele>232.7</ele>
        <time>2022-04-10T14:32:30Z</time>
      </trkpt>
      <trkpt lat="44.49139" lon="1.79762">
        <ele>232.7</ele>
        <time>2022-04-10T14:32:31Z</time>
      </trkpt>
      <trkpt lat="44.49139" lon="1.79764">
        <ele>235.4</ele>
        <time>2022-04-10T14:32:32Z</time>
      </trkpt>
      <trkpt lat="44.49138" lon="1.79768">
        <ele>235.4</ele>
        <time>2022-04-10T14:32:34Z</time>
      </trkpt>
      <trkpt lat="44.49137" lon="1.79774">
        <ele>235.4</ele>
        <time>2022-04-10T14:32:35Z</time>
      </trkpt>
      <trkpt lat="44.49136" lon="1.79776">
        <ele>231.9</ele>
        <time>2022-04-10T14:32:36Z</time>
      </trkpt>
      <trkpt lat="44.49136" lon="1.79779">
        <ele>231.9</ele>
        <time>2022-04-10T14:32:37Z</time>
      </trkpt>
      <trkpt lat="44.49135" lon="1.79785">
        <ele>234.6</ele>
        <time>2022-04-10T14:32:39Z</time>
      </trkpt>
      <trkpt lat="44.49135" lon="1.7979">
        <ele>234.6</ele>
        <time>2022-04-10T14:32:40Z</time>
      </trkpt>
      <trkpt lat="44.49135" lon="1.79791">
        <ele>234.6</ele>
        <time>2022-04-10T14:32:41Z</time>
      </trkpt>
      <trkpt lat="44.49134" lon="1.79796">
        <ele>234.6</ele>
        <time>2022-04-10T14:32:42Z</time>
      </trkpt>
      <trkpt lat="44.49134" lon="1.79797">
        <ele>234.6</ele>
        <time>2022-04-10T14:32:43Z</time>
      </trkpt>
      <trkpt lat="44.49134" lon="1.79802">
        <ele>236.7</ele>
        <time>2022-04-10T14:32:44Z</time>
      </trkpt>
      <trkpt lat="44.49134" lon="1.79804">
        <ele>236.7</ele>
        <time>2022-04-10T14:32:45Z</time>
      </trkpt>
      <trkpt lat="44.49134" lon="1.79809">
        <ele>236.7</ele>
        <time>2022-04-10T14:32:46Z</time>
      </trkpt>
      <trkpt lat="44.49134" lon="1.79811">
        <ele>236.7</ele>
        <time>2022-04-10T14:32:47Z</time>
      </trkpt>
      <trkpt lat="44.49134" lon="1.79815">
        <ele>236.7</ele>
        <time>2022-04-10T14:32:48Z</time>
      </trkpt>
      <trkpt lat="44.49134" lon="1.7982">
        <ele>238.3</ele>
        <time>2022-04-10T14:32:49Z</time>
      </trkpt>
      <trkpt lat="44.49135" lon="1.79826">
        <ele>238.3</ele>
        <time>2022-04-10T14:32:51Z</time>
      </trkpt>
      <trkpt lat="44.49134" lon="1.7983">
        <ele>238.3</ele>
        <time>2022-04-10T14:32:52Z</time>
      </trkpt>
      <trkpt lat="44.49134" lon="1.79831">
        <ele>238.2</ele>
        <time>2022-04-10T14:32:53Z</time>
      </trkpt>
      <trkpt lat="44.49134" lon="1.79833">
        <ele>239.7</ele>
        <time>2022-04-10T14:32:55Z</time>
      </trkpt>
      <trkpt lat="44.49134" lon="1.79836">
        <ele>239.7</ele>
        <time>2022-04-10T14:32:56Z</time>
      </trkpt>
      <trkpt lat="44.49134" lon="1.79839">
        <ele>239.7</ele>
        <time>2022-04-10T14:32:57Z</time>
      </trkpt>
      <trkpt lat="44.49133" lon="1.79843">
        <ele>239.7</ele>
        <time>2022-04-10T14:32:59Z</time>
      </trkpt>
      <trkpt lat="44.49131" lon="1.7985">
        <ele>240.5</ele>
        <time>2022-04-10T14:33:00Z</time>
      </trkpt>
      <trkpt lat="44.49129" lon="1.79855">
        <ele>240.5</ele>
        <time>2022-04-10T14:33:01Z</time>
      </trkpt>
      <trkpt lat="44.49127" lon="1.7986">
        <ele>240.5</ele>
        <time>2022-04-10T14:33:02Z</time>
      </trkpt>
      <trkpt lat="44.49122" lon="1.79867">
        <ele>238.9</ele>
        <time>2022-04-10T14:33:04Z</time>
      </trkpt>
      <trkpt lat="44.49117" lon="1.7987">
        <ele>238.9</ele>
        <time>2022-04-10T14:33:06Z</time>
      </trkpt>
      <trkpt lat="44.49113" lon="1.79871">
        <ele>238.9</ele>
        <time>2022-04-10T14:33:07Z</time>
      </trkpt>
      <trkpt lat="44.4911" lon="1.7987">
        <ele>237.1</ele>
        <time>2022-04-10T14:33:08Z</time>
      </trkpt>
      <trkpt lat="44.49107" lon="1.79868">
        <ele>237.1</ele>
        <time>2022-04-10T14:33:09Z</time>
      </trkpt>
      <trkpt lat="44.49106" lon="1.79865">
        <ele>236.3</ele>
        <time>2022-04-10T14:33:10Z</time>
      </trkpt>
      <trkpt lat="44.49104" lon="1.79861">
        <ele>236.3</ele>
        <time>2022-04-10T14:33:11Z</time>
      </trkpt>
      <trkpt lat="44.49102" lon="1.79852">
        <ele>236.3</ele>
        <time>2022-04-10T14:33:13Z</time>
      </trkpt>
      <trkpt lat="44.49101" lon="1.79848">
        <ele>235.1</ele>
        <time>2022-04-10T14:33:14Z</time>
      </trkpt>
      <trkpt lat="44.49101" lon="1.79845">
        <ele>235.1</ele>
        <time>2022-04-10T14:33:15Z</time>
      </trkpt>
      <trkpt lat="44.49099" lon="1.79841">
        <ele>233.9</ele>
        <time>2022-04-10T14:33:16Z</time>
      </trkpt>
      <trkpt lat="44.49097" lon="1.79836">
        <ele>233.9</ele>
        <time>2022-04-10T14:33:17Z</time>
      </trkpt>
      <trkpt lat="44.49094" lon="1.79831">
        <ele>232.2</ele>
        <time>2022-04-10T14:33:18Z</time>
      </trkpt>
      <trkpt lat="44.49091" lon="1.79827">
        <ele>232.2</ele>
        <time>2022-04-10T14:33:19Z</time>
      </trkpt>
      <trkpt lat="44.49087" lon="1.79821">
        <ele>232.2</ele>
        <time>2022-04-10T14:33:20Z</time>
      </trkpt>
      <trkpt lat="44.49084" lon="1.79816">
        <ele>231.3</ele>
        <time>2022-04-10T14:33:21Z</time>
      </trkpt>
      <trkpt lat="44.49081" lon="1.7981">
        <ele>229.5</ele>
        <time>2022-04-10T14:33:22Z</time>
      </trkpt>
      <trkpt lat="44.49078" lon="1.79806">
        <ele>229.5</ele>
        <time>2022-04-10T14:33:23Z</time>
      </trkpt>
      <trkpt lat="44.49072" lon="1.79797">
        <ele>228.1</ele>
        <time>2022-04-10T14:33:25Z</time>
      </trkpt>
      <trkpt lat="44.49066" lon="1.79792">
        <ele>228.1</ele>
        <time>2022-04-10T14:33:26Z</time>
      </trkpt>
      <trkpt lat="44.49062" lon="1.79788">
        <ele>229</ele>
        <time>2022-04-10T14:33:27Z</time>
      </trkpt>
      <trkpt lat="44.49058" lon="1.79784">
        <ele>229</ele>
        <time>2022-04-10T14:33:28Z</time>
      </trkpt>
      <trkpt lat="44.49054" lon="1.79781">
        <ele>227.4</ele>
        <time>2022-04-10T14:33:29Z</time>
      </trkpt>
      <trkpt lat="44.49047" lon="1.79774">
        <ele>228.5</ele>
        <time>2022-04-10T14:33:31Z</time>
      </trkpt>
      <trkpt lat="44.49045" lon="1.7977">
        <ele>228.5</ele>
        <time>2022-04-10T14:33:32Z</time>
      </trkpt>
      <trkpt lat="44.49042" lon="1.79765">
        <ele>228.5</ele>
        <time>2022-04-10T14:33:33Z</time>
      </trkpt>
      <trkpt lat="44.49039" lon="1.79762">
        <ele>226.9</ele>
        <time>2022-04-10T14:33:34Z</time>
      </trkpt>
      <trkpt lat="44.49036" lon="1.79758">
        <ele>228</ele>
        <time>2022-04-10T14:33:35Z</time>
      </trkpt>
      <trkpt lat="44.49035" lon="1.79754">
        <ele>228</ele>
        <time>2022-04-10T14:33:36Z</time>
      </trkpt>
      <trkpt lat="44.49031" lon="1.79749">
        <ele>228</ele>
        <time>2022-04-10T14:33:37Z</time>
      </trkpt>
      <trkpt lat="44.49029" lon="1.79743">
        <ele>226.6</ele>
        <time>2022-04-10T14:33:39Z</time>
      </trkpt>
      <trkpt lat="44.4903" lon="1.79733">
        <ele>226.6</ele>
        <time>2022-04-10T14:33:40Z</time>
      </trkpt>
      <trkpt lat="44.49032" lon="1.79726">
        <ele>225.7</ele>
        <time>2022-04-10T14:33:42Z</time>
      </trkpt>
      <trkpt lat="44.49028" lon="1.79729">
        <ele>225.7</ele>
        <time>2022-04-10T14:33:43Z</time>
      </trkpt>
      <trkpt lat="44.49025" lon="1.79726">
        <ele>227.5</ele>
        <time>2022-04-10T14:33:44Z</time>
      </trkpt>
      <trkpt lat="44.49032" lon="1.79723">
        <ele>225.7</ele>
        <time>2022-04-10T14:33:45Z</time>
      </trkpt>
      <trkpt lat="44.49036" lon="1.79711">
        <ele>224.9</ele>
        <time>2022-04-10T14:33:46Z</time>
      </trkpt>
      <trkpt lat="44.49038" lon="1.79704">
        <ele>224.9</ele>
        <time>2022-04-10T14:33:47Z</time>
      </trkpt>
      <trkpt lat="44.4904" lon="1.79696">
        <ele>223.1</ele>
        <time>2022-04-10T14:33:48Z</time>
      </trkpt>
      <trkpt lat="44.49041" lon="1.7969">
        <ele>221.9</ele>
        <time>2022-04-10T14:33:49Z</time>
      </trkpt>
      <trkpt lat="44.4904" lon="1.79683">
        <ele>221.9</ele>
        <time>2022-04-10T14:33:51Z</time>
      </trkpt>
      <trkpt lat="44.49042" lon="1.79679">
        <ele>221.9</ele>
        <time>2022-04-10T14:33:52Z</time>
      </trkpt>
      <trkpt lat="44.49044" lon="1.79675">
        <ele>220.9</ele>
        <time>2022-04-10T14:33:53Z</time>
      </trkpt>
      <trkpt lat="44.49046" lon="1.79671">
        <ele>220.9</ele>
        <time>2022-04-10T14:33:54Z</time>
      </trkpt>
      <trkpt lat="44.49047" lon="1.7967">
        <ele>220.9</ele>
        <time>2022-04-10T14:33:55Z</time>
      </trkpt>
      <trkpt lat="44.49048" lon="1.79669">
        <ele>220.9</ele>
        <time>2022-04-10T14:33:56Z</time>
      </trkpt>
      <trkpt lat="44.49048" lon="1.79669">
        <ele>220.9</ele>
        <time>2022-04-10T14:33:57Z</time>
      </trkpt>
      <trkpt lat="44.49048" lon="1.79669">
        <ele>220.9</ele>
        <time>2022-04-10T14:33:58Z</time>
      </trkpt>
      <trkpt lat="44.49048" lon="1.79669">
        <ele>220.9</ele>
        <time>2022-04-10T14:33:59Z</time>
      </trkpt>
      <trkpt lat="44.49048" lon="1.79669">
        <ele>220.9</ele>
        <time>2022-04-10T14:34:00Z</time>
      </trkpt>
      <trkpt lat="44.49048" lon="1.79669">
        <ele>220.9</ele>
        <time>2022-04-10T14:34:01Z</time>
      </trkpt>
      <trkpt lat="44.49048" lon="1.79669">
        <ele>220.9</ele>
        <time>2022-04-10T14:34:02Z</time>
      </trkpt>
      <trkpt lat="44.49049" lon="1.7967">
        <ele>220.9</ele>
        <time>2022-04-10T14:34:03Z</time>
      </trkpt>
      <trkpt lat="44.49049" lon="1.79671">
        <ele>220.9</ele>
        <time>2022-04-10T14:34:05Z</time>
      </trkpt>
      <trkpt lat="44.4905" lon="1.79687">
        <ele>221.8</ele>
        <time>2022-04-10T14:34:11Z</time>
      </trkpt>
      <trkpt lat="44.49051" lon="1.79692">
        <ele>219.8</ele>
        <time>2022-04-10T14:34:12Z</time>
      </trkpt>
      <trkpt lat="44.49057" lon="1.79701">
        <ele>221.2</ele>
        <time>2022-04-10T14:34:13Z</time>
      </trkpt>
      <trkpt lat="44.49062" lon="1.79704">
        <ele>221.2</ele>
        <time>2022-04-10T14:34:14Z</time>
      </trkpt>
      <trkpt lat="44.49067" lon="1.79705">
        <ele>219.7</ele>
        <time>2022-04-10T14:34:15Z</time>
      </trkpt>
      <trkpt lat="44.4907" lon="1.79702">
        <ele>219.7</ele>
        <time>2022-04-10T14:34:17Z</time>
      </trkpt>
      <trkpt lat="44.49076" lon="1.79696">
        <ele>218.7</ele>
        <time>2022-04-10T14:34:18Z</time>
      </trkpt>
      <trkpt lat="44.4908" lon="1.79696">
        <ele>218.7</ele>
        <time>2022-04-10T14:34:19Z</time>
      </trkpt>
      <trkpt lat="44.49086" lon="1.79698">
        <ele>218.7</ele>
        <time>2022-04-10T14:34:20Z</time>
      </trkpt>
      <trkpt lat="44.49091" lon="1.79704">
        <ele>218.4</ele>
        <time>2022-04-10T14:34:21Z</time>
      </trkpt>
      <trkpt lat="44.49094" lon="1.79711">
        <ele>218.4</ele>
        <time>2022-04-10T14:34:22Z</time>
      </trkpt>
      <trkpt lat="44.49097" lon="1.79718">
        <ele>220</ele>
        <time>2022-04-10T14:34:23Z</time>
      </trkpt>
      <trkpt lat="44.491" lon="1.79726">
        <ele>220.4</ele>
        <time>2022-04-10T14:34:24Z</time>
      </trkpt>
      <trkpt lat="44.49103" lon="1.79733">
        <ele>222.4</ele>
        <time>2022-04-10T14:34:25Z</time>
      </trkpt>
      <trkpt lat="44.49106" lon="1.7974">
        <ele>222.4</ele>
        <time>2022-04-10T14:34:26Z</time>
      </trkpt>
      <trkpt lat="44.49109" lon="1.79747">
        <ele>224.7</ele>
        <time>2022-04-10T14:34:27Z</time>
      </trkpt>
      <trkpt lat="44.49112" lon="1.79754">
        <ele>226.7</ele>
        <time>2022-04-10T14:34:28Z</time>
      </trkpt>
      <trkpt lat="44.49114" lon="1.79762">
        <ele>226.7</ele>
        <time>2022-04-10T14:34:29Z</time>
      </trkpt>
      <trkpt lat="44.49116" lon="1.79769">
        <ele>229.1</ele>
        <time>2022-04-10T14:34:30Z</time>
      </trkpt>
      <trkpt lat="44.49117" lon="1.79776">
        <ele>229.1</ele>
        <time>2022-04-10T14:34:31Z</time>
      </trkpt>
      <trkpt lat="44.49119" lon="1.79781">
        <ele>231.7</ele>
        <time>2022-04-10T14:34:32Z</time>
      </trkpt>
      <trkpt lat="44.4912" lon="1.79786">
        <ele>231.7</ele>
        <time>2022-04-10T14:34:33Z</time>
      </trkpt>
      <trkpt lat="44.49123" lon="1.79789">
        <ele>231.7</ele>
        <time>2022-04-10T14:34:34Z</time>
      </trkpt>
      <trkpt lat="44.49124" lon="1.7979">
        <ele>231.7</ele>
        <time>2022-04-10T14:34:35Z</time>
      </trkpt>
      <trkpt lat="44.49128" lon="1.79789">
        <ele>234.3</ele>
        <time>2022-04-10T14:34:36Z</time>
      </trkpt>
      <trkpt lat="44.4913" lon="1.79788">
        <ele>234.3</ele>
        <time>2022-04-10T14:34:37Z</time>
      </trkpt>
      <trkpt lat="44.49133" lon="1.79782">
        <ele>234.3</ele>
        <time>2022-04-10T14:34:38Z</time>
      </trkpt>
      <trkpt lat="44.49135" lon="1.79772">
        <ele>231.6</ele>
        <time>2022-04-10T14:34:39Z</time>
      </trkpt>
      <trkpt lat="44.49138" lon="1.79761">
        <ele>232.3</ele>
        <time>2022-04-10T14:34:40Z</time>
      </trkpt>
      <trkpt lat="44.4914" lon="1.79748">
        <ele>232.3</ele>
        <time>2022-04-10T14:34:41Z</time>
      </trkpt>
      <trkpt lat="44.49141" lon="1.79736">
        <ele>229.5</ele>
        <time>2022-04-10T14:34:42Z</time>
      </trkpt>
      <trkpt lat="44.49142" lon="1.79725">
        <ele>226.8</ele>
        <time>2022-04-10T14:34:43Z</time>
      </trkpt>
      <trkpt lat="44.49143" lon="1.79714">
        <ele>226.8</ele>
        <time>2022-04-10T14:34:44Z</time>
      </trkpt>
      <trkpt lat="44.49145" lon="1.79702">
        <ele>224.2</ele>
        <time>2022-04-10T14:34:45Z</time>
      </trkpt>
      <trkpt lat="44.49148" lon="1.7969">
        <ele>222.9</ele>
        <time>2022-04-10T14:34:46Z</time>
      </trkpt>
      <trkpt lat="44.49152" lon="1.79677">
        <ele>221.4</ele>
        <time>2022-04-10T14:34:47Z</time>
      </trkpt>
      <trkpt lat="44.49156" lon="1.79665">
        <ele>219.8</ele>
        <time>2022-04-10T14:34:48Z</time>
      </trkpt>
      <trkpt lat="44.49161" lon="1.79651">
        <ele>218.2</ele>
        <time>2022-04-10T14:34:49Z</time>
      </trkpt>
      <trkpt lat="44.49166" lon="1.79635">
        <ele>216.5</ele>
        <time>2022-04-10T14:34:50Z</time>
      </trkpt>
      <trkpt lat="44.4917" lon="1.79618">
        <ele>214.7</ele>
        <time>2022-04-10T14:34:51Z</time>
      </trkpt>
      <trkpt lat="44.49174" lon="1.79601">
        <ele>212.9</ele>
        <time>2022-04-10T14:34:52Z</time>
      </trkpt>
      <trkpt lat="44.49177" lon="1.79582">
        <ele>211.2</ele>
        <time>2022-04-10T14:34:53Z</time>
      </trkpt>
      <trkpt lat="44.4918" lon="1.79563">
        <ele>209.6</ele>
        <time>2022-04-10T14:34:54Z</time>
      </trkpt>
      <trkpt lat="44.49184" lon="1.79545">
        <ele>208</ele>
        <time>2022-04-10T14:34:55Z</time>
      </trkpt>
      <trkpt lat="44.49187" lon="1.79529">
        <ele>206.6</ele>
        <time>2022-04-10T14:34:56Z</time>
      </trkpt>
      <trkpt lat="44.4919" lon="1.79514">
        <ele>205.4</ele>
        <time>2022-04-10T14:34:57Z</time>
      </trkpt>
      <trkpt lat="44.49194" lon="1.79498">
        <ele>203.9</ele>
        <time>2022-04-10T14:34:58Z</time>
      </trkpt>
      <trkpt lat="44.49197" lon="1.79483">
        <ele>202.3</ele>
        <time>2022-04-10T14:34:59Z</time>
      </trkpt>
      <trkpt lat="44.492" lon="1.79466">
        <ele>200.8</ele>
        <time>2022-04-10T14:35:00Z</time>
      </trkpt>
      <trkpt lat="44.49202" lon="1.7945">
        <ele>199.3</ele>
        <time>2022-04-10T14:35:01Z</time>
      </trkpt>
      <trkpt lat="44.49205" lon="1.79433">
        <ele>198</ele>
        <time>2022-04-10T14:35:02Z</time>
      </trkpt>
      <trkpt lat="44.49207" lon="1.79419">
        <ele>196.8</ele>
        <time>2022-04-10T14:35:03Z</time>
      </trkpt>
      <trkpt lat="44.49208" lon="1.79405">
        <ele>195.5</ele>
        <time>2022-04-10T14:35:04Z</time>
      </trkpt>
      <trkpt lat="44.49207" lon="1.79391">
        <ele>194.2</ele>
        <time>2022-04-10T14:35:05Z</time>
      </trkpt>
      <trkpt lat="44.49205" lon="1.79378">
        <ele>193</ele>
        <time>2022-04-10T14:35:06Z</time>
      </trkpt>
      <trkpt lat="44.49203" lon="1.79366">
        <ele>191.9</ele>
        <time>2022-04-10T14:35:07Z</time>
      </trkpt>
      <trkpt lat="44.49201" lon="1.79355">
        <ele>191</ele>
        <time>2022-04-10T14:35:08Z</time>
      </trkpt>
      <trkpt lat="44.49201" lon="1.79343">
        <ele>190.1</ele>
        <time>2022-04-10T14:35:09Z</time>
      </trkpt>
      <trkpt lat="44.49202" lon="1.79331">
        <ele>189.1</ele>
        <time>2022-04-10T14:35:10Z</time>
      </trkpt>
      <trkpt lat="44.49204" lon="1.79318">
        <ele>188.3</ele>
        <time>2022-04-10T14:35:11Z</time>
      </trkpt>
      <trkpt lat="44.49208" lon="1.79305">
        <ele>187.4</ele>
        <time>2022-04-10T14:35:12Z</time>
      </trkpt>
      <trkpt lat="44.49212" lon="1.79292">
        <ele>186.4</ele>
        <time>2022-04-10T14:35:13Z</time>
      </trkpt>
      <trkpt lat="44.49217" lon="1.79278">
        <ele>185.5</ele>
        <time>2022-04-10T14:35:14Z</time>
      </trkpt>
      <trkpt lat="44.49221" lon="1.79266">
        <ele>184.7</ele>
        <time>2022-04-10T14:35:15Z</time>
      </trkpt>
      <trkpt lat="44.49225" lon="1.79255">
        <ele>183.8</ele>
        <time>2022-04-10T14:35:16Z</time>
      </trkpt>
      <trkpt lat="44.49228" lon="1.79246">
        <ele>183</ele>
        <time>2022-04-10T14:35:17Z</time>
      </trkpt>
      <trkpt lat="44.4923" lon="1.79239">
        <ele>182.4</ele>
        <time>2022-04-10T14:35:18Z</time>
      </trkpt>
      <trkpt lat="44.4923" lon="1.79233">
        <ele>182</ele>
        <time>2022-04-10T14:35:19Z</time>
      </trkpt>
      <trkpt lat="44.49228" lon="1.7923">
        <ele>181.7</ele>
        <time>2022-04-10T14:35:20Z</time>
      </trkpt>
      <trkpt lat="44.49225" lon="1.79226">
        <ele>181.3</ele>
        <time>2022-04-10T14:35:21Z</time>
      </trkpt>
      <trkpt lat="44.4922" lon="1.79223">
        <ele>180.8</ele>
        <time>2022-04-10T14:35:22Z</time>
      </trkpt>
      <trkpt lat="44.49216" lon="1.79217">
        <ele>180.2</ele>
        <time>2022-04-10T14:35:23Z</time>
      </trkpt>
      <trkpt lat="44.49213" lon="1.79208">
        <ele>179.6</ele>
        <time>2022-04-10T14:35:24Z</time>
      </trkpt>
      <trkpt lat="44.49211" lon="1.79199">
        <ele>178.8</ele>
        <time>2022-04-10T14:35:25Z</time>
      </trkpt>
      <trkpt lat="44.4921" lon="1.7919">
        <ele>177.9</ele>
        <time>2022-04-10T14:35:26Z</time>
      </trkpt>
      <trkpt lat="44.4921" lon="1.79182">
        <ele>177.2</ele>
        <time>2022-04-10T14:35:27Z</time>
      </trkpt>
      <trkpt lat="44.49209" lon="1.79176">
        <ele>176.7</ele>
        <time>2022-04-10T14:35:28Z</time>
      </trkpt>
      <trkpt lat="44.49208" lon="1.79169">
        <ele>176.3</ele>
        <time>2022-04-10T14:35:29Z</time>
      </trkpt>
      <trkpt lat="44.49206" lon="1.79164">
        <ele>176</ele>
        <time>2022-04-10T14:35:30Z</time>
      </trkpt>
      <trkpt lat="44.49206" lon="1.79162">
        <ele>176</ele>
        <time>2022-04-10T14:35:31Z</time>
      </trkpt>
      <trkpt lat="44.49205" lon="1.7916">
        <ele>175.9</ele>
        <time>2022-04-10T14:35:32Z</time>
      </trkpt>
      <trkpt lat="44.49205" lon="1.79158">
        <ele>175.9</ele>
        <time>2022-04-10T14:35:33Z</time>
      </trkpt>
      <trkpt lat="44.49204" lon="1.79158">
        <ele>175.9</ele>
        <time>2022-04-10T14:35:34Z</time>
      </trkpt>
      <trkpt lat="44.49204" lon="1.79157">
        <ele>175.9</ele>
        <time>2022-04-10T14:35:35Z</time>
      </trkpt>
      <trkpt lat="44.49203" lon="1.79157">
        <ele>175.9</ele>
        <time>2022-04-10T14:35:36Z</time>
      </trkpt>
      <trkpt lat="44.49203" lon="1.79157">
        <ele>175.9</ele>
        <time>2022-04-10T14:35:37Z</time>
      </trkpt>
      <trkpt lat="44.49202" lon="1.79157">
        <ele>175.9</ele>
        <time>2022-04-10T14:35:38Z</time>
      </trkpt>
      <trkpt lat="44.49202" lon="1.79156">
        <ele>175.9</ele>
        <time>2022-04-10T14:35:39Z</time>
      </trkpt>
      <trkpt lat="44.49202" lon="1.79156">
        <ele>175.9</ele>
        <time>2022-04-10T14:35:40Z</time>
      </trkpt>
      <trkpt lat="44.49201" lon="1.79156">
        <ele>175.9</ele>
        <time>2022-04-10T14:35:41Z</time>
      </trkpt>
      <trkpt lat="44.49201" lon="1.79155">
        <ele>175.9</ele>
        <time>2022-04-10T14:35:42Z</time>
      </trkpt>
      <trkpt lat="44.492" lon="1.79155">
        <ele>175.9</ele>
        <time>2022-04-10T14:35:43Z</time>
      </trkpt>
      <trkpt lat="44.492" lon="1.79155">
        <ele>175.9</ele>
        <time>2022-04-10T14:35:44Z</time>
      </trkpt>
      <trkpt lat="44.49199" lon="1.79154">
        <ele>175.9</ele>
        <time>2022-04-10T14:39:48Z</time>
      </trkpt>
      <trkpt lat="44.49199" lon="1.79154">
        <ele>175.9</ele>
        <time>2022-04-10T14:39:49Z</time>
      </trkpt>
      <trkpt lat="44.49198" lon="1.79148">
        <ele>175.9</ele>
        <time>2022-04-10T14:39:50Z</time>
      </trkpt>
      <trkpt lat="44.49198" lon="1.79138">
        <ele>176</ele>
        <time>2022-04-10T14:39:51Z</time>
      </trkpt>
      <trkpt lat="44.49197" lon="1.7913">
        <ele>176.2</ele>
        <time>2022-04-10T14:39:52Z</time>
      </trkpt>
      <trkpt lat="44.49196" lon="1.79122">
        <ele>176.3</ele>
        <time>2022-04-10T14:39:53Z</time>
      </trkpt>
      <trkpt lat="44.49195" lon="1.79114">
        <ele>176.5</ele>
        <time>2022-04-10T14:39:54Z</time>
      </trkpt>
      <trkpt lat="44.49195" lon="1.79105">
        <ele>176.8</ele>
        <time>2022-04-10T14:39:55Z</time>
      </trkpt>
      <trkpt lat="44.49195" lon="1.79097">
        <ele>177.1</ele>
        <time>2022-04-10T14:39:56Z</time>
      </trkpt>
      <trkpt lat="44.49195" lon="1.79089">
        <ele>177.5</ele>
        <time>2022-04-10T14:39:57Z</time>
      </trkpt>
      <trkpt lat="44.49195" lon="1.7908">
        <ele>177.9</ele>
        <time>2022-04-10T14:39:58Z</time>
      </trkpt>
      <trkpt lat="44.49195" lon="1.79072">
        <ele>178.3</ele>
        <time>2022-04-10T14:39:59Z</time>
      </trkpt>
      <trkpt lat="44.49195" lon="1.79065">
        <ele>178.7</ele>
        <time>2022-04-10T14:40:00Z</time>
      </trkpt>
      <trkpt lat="44.49196" lon="1.79058">
        <ele>179.1</ele>
        <time>2022-04-10T14:40:01Z</time>
      </trkpt>
      <trkpt lat="44.49198" lon="1.79051">
        <ele>179.5</ele>
        <time>2022-04-10T14:40:02Z</time>
      </trkpt>
      <trkpt lat="44.492" lon="1.79046">
        <ele>179.8</ele>
        <time>2022-04-10T14:40:03Z</time>
      </trkpt>
      <trkpt lat="44.49204" lon="1.79042">
        <ele>180.2</ele>
        <time>2022-04-10T14:40:04Z</time>
      </trkpt>
      <trkpt lat="44.49205" lon="1.79039">
        <ele>180.4</ele>
        <time>2022-04-10T14:40:05Z</time>
      </trkpt>
      <trkpt lat="44.4921" lon="1.79033">
        <ele>180.9</ele>
        <time>2022-04-10T14:40:06Z</time>
      </trkpt>
      <trkpt lat="44.49213" lon="1.79028">
        <ele>181.4</ele>
        <time>2022-04-10T14:40:07Z</time>
      </trkpt>
      <trkpt lat="44.49214" lon="1.79024">
        <ele>181.6</ele>
        <time>2022-04-10T14:40:08Z</time>
      </trkpt>
      <trkpt lat="44.49216" lon="1.79019">
        <ele>182</ele>
        <time>2022-04-10T14:40:09Z</time>
      </trkpt>
      <trkpt lat="44.4922" lon="1.79016">
        <ele>183</ele>
        <time>2022-04-10T14:40:10Z</time>
      </trkpt>
      <trkpt lat="44.49222" lon="1.79013">
        <ele>183.3</ele>
        <time>2022-04-10T14:40:11Z</time>
      </trkpt>
      <trkpt lat="44.49225" lon="1.7901">
        <ele>183.8</ele>
        <time>2022-04-10T14:40:13Z</time>
      </trkpt>
      <trkpt lat="44.49228" lon="1.79009">
        <ele>184.2</ele>
        <time>2022-04-10T14:40:14Z</time>
      </trkpt>
      <trkpt lat="44.49229" lon="1.79005">
        <ele>184.6</ele>
        <time>2022-04-10T14:40:15Z</time>
      </trkpt>
      <trkpt lat="44.49232" lon="1.79003">
        <ele>185</ele>
        <time>2022-04-10T14:40:16Z</time>
      </trkpt>
      <trkpt lat="44.49238" lon="1.79001">
        <ele>185.7</ele>
        <time>2022-04-10T14:40:18Z</time>
      </trkpt>
      <trkpt lat="44.49243" lon="1.79">
        <ele>186.3</ele>
        <time>2022-04-10T14:40:19Z</time>
      </trkpt>
      <trkpt lat="44.49247" lon="1.79">
        <ele>186.8</ele>
        <time>2022-04-10T14:40:20Z</time>
      </trkpt>
      <trkpt lat="44.49251" lon="1.78999">
        <ele>187.3</ele>
        <time>2022-04-10T14:40:21Z</time>
      </trkpt>
      <trkpt lat="44.49254" lon="1.78999">
        <ele>187.7</ele>
        <time>2022-04-10T14:40:22Z</time>
      </trkpt>
      <trkpt lat="44.49258" lon="1.78999">
        <ele>188.2</ele>
        <time>2022-04-10T14:40:23Z</time>
      </trkpt>
      <trkpt lat="44.49264" lon="1.79">
        <ele>189</ele>
        <time>2022-04-10T14:40:25Z</time>
      </trkpt>
      <trkpt lat="44.49269" lon="1.79001">
        <ele>189.6</ele>
        <time>2022-04-10T14:40:26Z</time>
      </trkpt>
      <trkpt lat="44.49272" lon="1.79003">
        <ele>190</ele>
        <time>2022-04-10T14:40:27Z</time>
      </trkpt>
      <trkpt lat="44.49273" lon="1.79003">
        <ele>190.1</ele>
        <time>2022-04-10T14:40:28Z</time>
      </trkpt>
      <trkpt lat="44.49276" lon="1.79003">
        <ele>190.5</ele>
        <time>2022-04-10T14:40:30Z</time>
      </trkpt>
      <trkpt lat="44.4928" lon="1.79005">
        <ele>191</ele>
        <time>2022-04-10T14:40:31Z</time>
      </trkpt>
      <trkpt lat="44.49284" lon="1.79006">
        <ele>191.6</ele>
        <time>2022-04-10T14:40:32Z</time>
      </trkpt>
      <trkpt lat="44.49289" lon="1.79008">
        <ele>192.2</ele>
        <time>2022-04-10T14:40:33Z</time>
      </trkpt>
      <trkpt lat="44.49292" lon="1.7901">
        <ele>192.6</ele>
        <time>2022-04-10T14:40:34Z</time>
      </trkpt>
      <trkpt lat="44.49296" lon="1.79015">
        <ele>193.3</ele>
        <time>2022-04-10T14:40:36Z</time>
      </trkpt>
      <trkpt lat="44.49302" lon="1.79019">
        <ele>194.1</ele>
        <time>2022-04-10T14:40:37Z</time>
      </trkpt>
      <trkpt lat="44.49306" lon="1.79021">
        <ele>194.6</ele>
        <time>2022-04-10T14:40:38Z</time>
      </trkpt>
      <trkpt lat="44.4931" lon="1.79024">
        <ele>195.2</ele>
        <time>2022-04-10T14:40:39Z</time>
      </trkpt>
      <trkpt lat="44.49314" lon="1.79028">
        <ele>195.9</ele>
        <time>2022-04-10T14:40:40Z</time>
      </trkpt>
      <trkpt lat="44.49318" lon="1.79032">
        <ele>196.5</ele>
        <time>2022-04-10T14:40:41Z</time>
      </trkpt>
      <trkpt lat="44.49322" lon="1.79036">
        <ele>197.1</ele>
        <time>2022-04-10T14:40:43Z</time>
      </trkpt>
      <trkpt lat="44.49327" lon="1.7904">
        <ele>197.7</ele>
        <time>2022-04-10T14:40:44Z</time>
      </trkpt>
      <trkpt lat="44.4933" lon="1.79042">
        <ele>198.1</ele>
        <time>2022-04-10T14:40:45Z</time>
      </trkpt>
      <trkpt lat="44.49333" lon="1.79044">
        <ele>198.5</ele>
        <time>2022-04-10T14:40:46Z</time>
      </trkpt>
      <trkpt lat="44.49336" lon="1.79047">
        <ele>199</ele>
        <time>2022-04-10T14:40:47Z</time>
      </trkpt>
      <trkpt lat="44.49338" lon="1.79049">
        <ele>199.4</ele>
        <time>2022-04-10T14:40:48Z</time>
      </trkpt>
      <trkpt lat="44.49342" lon="1.79054">
        <ele>200</ele>
        <time>2022-04-10T14:40:50Z</time>
      </trkpt>
      <trkpt lat="44.49346" lon="1.79057">
        <ele>200.6</ele>
        <time>2022-04-10T14:40:51Z</time>
      </trkpt>
      <trkpt lat="44.4935" lon="1.79061">
        <ele>201.2</ele>
        <time>2022-04-10T14:40:52Z</time>
      </trkpt>
      <trkpt lat="44.49354" lon="1.79064">
        <ele>201.7</ele>
        <time>2022-04-10T14:40:53Z</time>
      </trkpt>
      <trkpt lat="44.49359" lon="1.79067">
        <ele>202.4</ele>
        <time>2022-04-10T14:40:55Z</time>
      </trkpt>
      <trkpt lat="44.49363" lon="1.79069">
        <ele>202.9</ele>
        <time>2022-04-10T14:40:56Z</time>
      </trkpt>
      <trkpt lat="44.49368" lon="1.79072">
        <ele>203.6</ele>
        <time>2022-04-10T14:40:57Z</time>
      </trkpt>
      <trkpt lat="44.49371" lon="1.79075">
        <ele>204.2</ele>
        <time>2022-04-10T14:40:58Z</time>
      </trkpt>
      <trkpt lat="44.49375" lon="1.7908">
        <ele>204.7</ele>
        <time>2022-04-10T14:41:00Z</time>
      </trkpt>
      <trkpt lat="44.49384" lon="1.79089">
        <ele>206.1</ele>
        <time>2022-04-10T14:41:01Z</time>
      </trkpt>
      <trkpt lat="44.49388" lon="1.79095">
        <ele>206.9</ele>
        <time>2022-04-10T14:41:02Z</time>
      </trkpt>
      <trkpt lat="44.49392" lon="1.79102">
        <ele>207.7</ele>
        <time>2022-04-10T14:41:03Z</time>
      </trkpt>
      <trkpt lat="44.49398" lon="1.79109">
        <ele>208.6</ele>
        <time>2022-04-10T14:41:04Z</time>
      </trkpt>
      <trkpt lat="44.49402" lon="1.79116">
        <ele>209.5</ele>
        <time>2022-04-10T14:41:05Z</time>
      </trkpt>
      <trkpt lat="44.49407" lon="1.79123">
        <ele>210.3</ele>
        <time>2022-04-10T14:41:06Z</time>
      </trkpt>
      <trkpt lat="44.49412" lon="1.7913">
        <ele>211.2</ele>
        <time>2022-04-10T14:41:07Z</time>
      </trkpt>
      <trkpt lat="44.49415" lon="1.79136">
        <ele>211.8</ele>
        <time>2022-04-10T14:41:08Z</time>
      </trkpt>
      <trkpt lat="44.49417" lon="1.7914">
        <ele>212.3</ele>
        <time>2022-04-10T14:41:09Z</time>
      </trkpt>
      <trkpt lat="44.49418" lon="1.79141">
        <ele>212.5</ele>
        <time>2022-04-10T14:41:11Z</time>
      </trkpt>
      <trkpt lat="44.49419" lon="1.79143">
        <ele>212.7</ele>
        <time>2022-04-10T14:41:12Z</time>
      </trkpt>
      <trkpt lat="44.49419" lon="1.79146">
        <ele>212.9</ele>
        <time>2022-04-10T14:41:13Z</time>
      </trkpt>
      <trkpt lat="44.49419" lon="1.79146">
        <ele>213</ele>
        <time>2022-04-10T14:41:14Z</time>
      </trkpt>
      <trkpt lat="44.49418" lon="1.79146">
        <ele>213</ele>
        <time>2022-04-10T14:41:15Z</time>
      </trkpt>
      <trkpt lat="44.49418" lon="1.79146">
        <ele>213.1</ele>
        <time>2022-04-10T14:41:16Z</time>
      </trkpt>
      <trkpt lat="44.49417" lon="1.79146">
        <ele>213.2</ele>
        <time>2022-04-10T14:41:17Z</time>
      </trkpt>
      <trkpt lat="44.49417" lon="1.79146">
        <ele>213.2</ele>
        <time>2022-04-10T14:41:18Z</time>
      </trkpt>
      <trkpt lat="44.49416" lon="1.79145">
        <ele>213.3</ele>
        <time>2022-04-10T14:41:19Z</time>
      </trkpt>
      <trkpt lat="44.49416" lon="1.79145">
        <ele>213.4</ele>
        <time>2022-04-10T14:41:20Z</time>
      </trkpt>
      <trkpt lat="44.49415" lon="1.79145">
        <ele>213.4</ele>
        <time>2022-04-10T14:41:21Z</time>
      </trkpt>
      <trkpt lat="44.49415" lon="1.79145">
        <ele>213.5</ele>
        <time>2022-04-10T14:41:22Z</time>
      </trkpt>
      <trkpt lat="44.49414" lon="1.79145">
        <ele>213.6</ele>
        <time>2022-04-10T14:41:24Z</time>
      </trkpt>
      <trkpt lat="44.49414" lon="1.79145">
        <ele>213.6</ele>
        <time>2022-04-10T14:45:06Z</time>
      </trkpt>
      <trkpt lat="44.49413" lon="1.79145">
        <ele>213.7</ele>
        <time>2022-04-10T14:45:07Z</time>
      </trkpt>
      <trkpt lat="44.49413" lon="1.79144">
        <ele>213.8</ele>
        <time>2022-04-10T14:45:08Z</time>
      </trkpt>
      <trkpt lat="44.49412" lon="1.79144">
        <ele>213.8</ele>
        <time>2022-04-10T14:45:09Z</time>
      </trkpt>
      <trkpt lat="44.49412" lon="1.79146">
        <ele>214</ele>
        <time>2022-04-10T14:45:10Z</time>
      </trkpt>
      <trkpt lat="44.49413" lon="1.79147">
        <ele>214.1</ele>
        <time>2022-04-10T14:45:11Z</time>
      </trkpt>
      <trkpt lat="44.49413" lon="1.79148">
        <ele>214.2</ele>
        <time>2022-04-10T14:45:12Z</time>
      </trkpt>
      <trkpt lat="44.49414" lon="1.79149">
        <ele>214.3</ele>
        <time>2022-04-10T14:45:13Z</time>
      </trkpt>
      <trkpt lat="44.49414" lon="1.79149">
        <ele>214.4</ele>
        <time>2022-04-10T14:45:14Z</time>
      </trkpt>
      <trkpt lat="44.49414" lon="1.79149">
        <ele>214.4</ele>
        <time>2022-04-10T14:45:15Z</time>
      </trkpt>
      <trkpt lat="44.49415" lon="1.7915">
        <ele>214.5</ele>
        <time>2022-04-10T14:45:16Z</time>
      </trkpt>
      <trkpt lat="44.49415" lon="1.7915">
        <ele>214.5</ele>
        <time>2022-04-10T14:45:17Z</time>
      </trkpt>
      <trkpt lat="44.49415" lon="1.7915">
        <ele>214.5</ele>
        <time>2022-04-10T14:45:18Z</time>
      </trkpt>
      <trkpt lat="44.49415" lon="1.7915">
        <ele>214.6</ele>
        <time>2022-04-10T14:45:19Z</time>
      </trkpt>
      <trkpt lat="44.49415" lon="1.7915">
        <ele>214.6</ele>
        <time>2022-04-10T14:45:20Z</time>
      </trkpt>
      <trkpt lat="44.49419" lon="1.79148">
        <ele>215.1</ele>
        <time>2022-04-10T14:45:48Z</time>
      </trkpt>
      <trkpt lat="44.49422" lon="1.79148">
        <ele>215.4</ele>
        <time>2022-04-10T14:45:49Z</time>
      </trkpt>
      <trkpt lat="44.49423" lon="1.79148">
        <ele>215.5</ele>
        <time>2022-04-10T14:45:50Z</time>
      </trkpt>
      <trkpt lat="44.49423" lon="1.79148">
        <ele>215.6</ele>
        <time>2022-04-10T14:45:51Z</time>
      </trkpt>
      <trkpt lat="44.49423" lon="1.79148">
        <ele>215.6</ele>
        <time>2022-04-10T14:45:52Z</time>
      </trkpt>
      <trkpt lat="44.49423" lon="1.79149">
        <ele>215.6</ele>
        <time>2022-04-10T14:45:53Z</time>
      </trkpt>
      <trkpt lat="44.49423" lon="1.79149">
        <ele>215.6</ele>
        <time>2022-04-10T14:45:54Z</time>
      </trkpt>
      <trkpt lat="44.49423" lon="1.79149">
        <ele>215.6</ele>
        <time>2022-04-10T14:45:55Z</time>
      </trkpt>
      <trkpt lat="44.49423" lon="1.79149">
        <ele>215.6</ele>
        <time>2022-04-10T14:45:56Z</time>
      </trkpt>
      <trkpt lat="44.49423" lon="1.79149">
        <ele>215.6</ele>
        <time>2022-04-10T14:45:57Z</time>
      </trkpt>
      <trkpt lat="44.49423" lon="1.79149">
        <ele>215.6</ele>
        <time>2022-04-10T14:45:58Z</time>
      </trkpt>
      <trkpt lat="44.49423" lon="1.79149">
        <ele>215.6</ele>
        <time>2022-04-10T14:45:59Z</time>
      </trkpt>
      <trkpt lat="44.49422" lon="1.79142">
        <ele>216.2</ele>
        <time>2022-04-10T14:47:58Z</time>
      </trkpt>
      <trkpt lat="44.49421" lon="1.79139">
        <ele>216.5</ele>
        <time>2022-04-10T14:47:59Z</time>
      </trkpt>
      <trkpt lat="44.49421" lon="1.79137">
        <ele>216.7</ele>
        <time>2022-04-10T14:48:00Z</time>
      </trkpt>
      <trkpt lat="44.49421" lon="1.79135">
        <ele>216.8</ele>
        <time>2022-04-10T14:48:01Z</time>
      </trkpt>
      <trkpt lat="44.49421" lon="1.79135">
        <ele>216.9</ele>
        <time>2022-04-10T14:48:02Z</time>
      </trkpt>
      <trkpt lat="44.4942" lon="1.79134">
        <ele>216.9</ele>
        <time>2022-04-10T14:48:03Z</time>
      </trkpt>
      <trkpt lat="44.4942" lon="1.79134">
        <ele>216.9</ele>
        <time>2022-04-10T14:48:04Z</time>
      </trkpt>
      <trkpt lat="44.4942" lon="1.79134">
        <ele>216.9</ele>
        <time>2022-04-10T14:48:05Z</time>
      </trkpt>
      <trkpt lat="44.4942" lon="1.79134">
        <ele>216.9</ele>
        <time>2022-04-10T14:48:06Z</time>
      </trkpt>
      <trkpt lat="44.4942" lon="1.79134">
        <ele>216.9</ele>
        <time>2022-04-10T14:48:07Z</time>
      </trkpt>
      <trkpt lat="44.4942" lon="1.79134">
        <ele>216.9</ele>
        <time>2022-04-10T14:48:08Z</time>
      </trkpt>
      <trkpt lat="44.4942" lon="1.79134">
        <ele>216.9</ele>
        <time>2022-04-10T14:48:09Z</time>
      </trkpt>
      <trkpt lat="44.4942" lon="1.79134">
        <ele>216.9</ele>
        <time>2022-04-10T14:48:10Z</time>
      </trkpt>
      <trkpt lat="44.4942" lon="1.79134">
        <ele>217</ele>
        <time>2022-04-10T14:48:11Z</time>
      </trkpt>
      <trkpt lat="44.4942" lon="1.79134">
        <ele>217</ele>
        <time>2022-04-10T14:48:12Z</time>
      </trkpt>
      <trkpt lat="44.4942" lon="1.79134">
        <ele>217</ele>
        <time>2022-04-10T14:48:13Z</time>
      </trkpt>
      <trkpt lat="44.4942" lon="1.79134">
        <ele>217</ele>
        <time>2022-04-10T14:48:14Z</time>
      </trkpt>
      <trkpt lat="44.4942" lon="1.79134">
        <ele>217</ele>
        <time>2022-04-10T14:48:15Z</time>
      </trkpt>
      <trkpt lat="44.4942" lon="1.79134">
        <ele>217</ele>
        <time>2022-04-10T14:48:16Z</time>
      </trkpt>
      <trkpt lat="44.4942" lon="1.79134">
        <ele>217</ele>
        <time>2022-04-10T14:48:17Z</time>
      </trkpt>
      <trkpt lat="44.4942" lon="1.79134">
        <ele>217</ele>
        <time>2022-04-10T14:48:18Z</time>
      </trkpt>
      <trkpt lat="44.4942" lon="1.79134">
        <ele>217</ele>
        <time>2022-04-10T14:48:19Z</time>
      </trkpt>
      <trkpt lat="44.4942" lon="1.79134">
        <ele>217</ele>
        <time>2022-04-10T14:48:20Z</time>
      </trkpt>
      <trkpt lat="44.4942" lon="1.79134">
        <ele>217</ele>
        <time>2022-04-10T14:48:21Z</time>
      </trkpt>
      <trkpt lat="44.4942" lon="1.79134">
        <ele>217</ele>
        <time>2022-04-10T14:48:22Z</time>
      </trkpt>
      <trkpt lat="44.4942" lon="1.79134">
        <ele>217</ele>
        <time>2022-04-10T14:48:23Z</time>
      </trkpt>
      <trkpt lat="44.4942" lon="1.79134">
        <ele>217</ele>
        <time>2022-04-10T14:48:24Z</time>
      </trkpt>
      <trkpt lat="44.4942" lon="1.79134">
        <ele>217</ele>
        <time>2022-04-10T14:48:25Z</time>
      </trkpt>
      <trkpt lat="44.4942" lon="1.79134">
        <ele>217</ele>
        <time>2022-04-10T14:48:26Z</time>
      </trkpt>
      <trkpt lat="44.4942" lon="1.79134">
        <ele>217.1</ele>
        <time>2022-04-10T14:48:27Z</time>
      </trkpt>
      <trkpt lat="44.4942" lon="1.79134">
        <ele>217.1</ele>
        <time>2022-04-10T14:48:28Z</time>
      </trkpt>
      <trkpt lat="44.4942" lon="1.79134">
        <ele>217.1</ele>
        <time>2022-04-10T14:48:29Z</time>
      </trkpt>
      <trkpt lat="44.4942" lon="1.79134">
        <ele>217.1</ele>
        <time>2022-04-10T14:48:30Z</time>
      </trkpt>
      <trkpt lat="44.49419" lon="1.79134">
        <ele>217.1</ele>
        <time>2022-04-10T14:48:31Z</time>
      </trkpt>
      <trkpt lat="44.49419" lon="1.79134">
        <ele>217.1</ele>
        <time>2022-04-10T14:48:32Z</time>
      </trkpt>
      <trkpt lat="44.49419" lon="1.79134">
        <ele>217.1</ele>
        <time>2022-04-10T14:48:33Z</time>
      </trkpt>
      <trkpt lat="44.49419" lon="1.79134">
        <ele>217.1</ele>
        <time>2022-04-10T14:48:34Z</time>
      </trkpt>
      <trkpt lat="44.49419" lon="1.79134">
        <ele>217.1</ele>
        <time>2022-04-10T14:48:35Z</time>
      </trkpt>
      <trkpt lat="44.49419" lon="1.79134">
        <ele>217.1</ele>
        <time>2022-04-10T14:48:36Z</time>
      </trkpt>
      <trkpt lat="44.49419" lon="1.79134">
        <ele>217.1</ele>
        <time>2022-04-10T14:48:37Z</time>
      </trkpt>
      <trkpt lat="44.49419" lon="1.79134">
        <ele>217.1</ele>
        <time>2022-04-10T14:48:38Z</time>
      </trkpt>
      <trkpt lat="44.49419" lon="1.79134">
        <ele>217.1</ele>
        <time>2022-04-10T14:48:39Z</time>
      </trkpt>
      <trkpt lat="44.49419" lon="1.79134">
        <ele>217.1</ele>
        <time>2022-04-10T14:48:40Z</time>
      </trkpt>
      <trkpt lat="44.49419" lon="1.79134">
        <ele>217.1</ele>
        <time>2022-04-10T14:48:41Z</time>
      </trkpt>
      <trkpt lat="44.49419" lon="1.79134">
        <ele>217.1</ele>
        <time>2022-04-10T14:48:42Z</time>
      </trkpt>
      <trkpt lat="44.49419" lon="1.79134">
        <ele>217.1</ele>
        <time>2022-04-10T14:48:43Z</time>
      </trkpt>
      <trkpt lat="44.49419" lon="1.79134">
        <ele>217.1</ele>
        <time>2022-04-10T14:48:44Z</time>
      </trkpt>
      <trkpt lat="44.49419" lon="1.79134">
        <ele>217.2</ele>
        <time>2022-04-10T14:48:45Z</time>
      </trkpt>
      <trkpt lat="44.49419" lon="1.79134">
        <ele>217.2</ele>
        <time>2022-04-10T14:48:47Z</time>
      </trkpt>
      <trkpt lat="44.49419" lon="1.79134">
        <ele>217.2</ele>
        <time>2022-04-10T14:48:48Z</time>
      </trkpt>
      <trkpt lat="44.49419" lon="1.79134">
        <ele>217.2</ele>
        <time>2022-04-10T14:48:49Z</time>
      </trkpt>
      <trkpt lat="44.49419" lon="1.79134">
        <ele>217.2</ele>
        <time>2022-04-10T14:48:50Z</time>
      </trkpt>
      <trkpt lat="44.49419" lon="1.79134">
        <ele>217.2</ele>
        <time>2022-04-10T14:48:51Z</time>
      </trkpt>
      <trkpt lat="44.49419" lon="1.79134">
        <ele>217.2</ele>
        <time>2022-04-10T14:48:52Z</time>
      </trkpt>
      <trkpt lat="44.49419" lon="1.79134">
        <ele>217.2</ele>
        <time>2022-04-10T14:48:53Z</time>
      </trkpt>
      <trkpt lat="44.49419" lon="1.79134">
        <ele>217.2</ele>
        <time>2022-04-10T14:48:54Z</time>
      </trkpt>
      <trkpt lat="44.49419" lon="1.79134">
        <ele>217.2</ele>
        <time>2022-04-10T14:48:55Z</time>
      </trkpt>
      <trkpt lat="44.49419" lon="1.79134">
        <ele>217.2</ele>
        <time>2022-04-10T14:48:56Z</time>
      </trkpt>
      <trkpt lat="44.49419" lon="1.79134">
        <ele>217.2</ele>
        <time>2022-04-10T14:48:57Z</time>
      </trkpt>
      <trkpt lat="44.49419" lon="1.79133">
        <ele>217.2</ele>
        <time>2022-04-10T14:48:58Z</time>
      </trkpt>
      <trkpt lat="44.49419" lon="1.79133">
        <ele>217.2</ele>
        <time>2022-04-10T14:48:59Z</time>
      </trkpt>
      <trkpt lat="44.49418" lon="1.79133">
        <ele>217.2</ele>
        <time>2022-04-10T14:49:00Z</time>
      </trkpt>
      <trkpt lat="44.49418" lon="1.79133">
        <ele>217.2</ele>
        <time>2022-04-10T14:49:01Z</time>
      </trkpt>
      <trkpt lat="44.49418" lon="1.79133">
        <ele>217.2</ele>
        <time>2022-04-10T14:49:02Z</time>
      </trkpt>
      <trkpt lat="44.49418" lon="1.79133">
        <ele>217.2</ele>
        <time>2022-04-10T14:49:03Z</time>
      </trkpt>
      <trkpt lat="44.49418" lon="1.79133">
        <ele>217.2</ele>
        <time>2022-04-10T14:49:04Z</time>
      </trkpt>
      <trkpt lat="44.49418" lon="1.79133">
        <ele>217.2</ele>
        <time>2022-04-10T14:49:05Z</time>
      </trkpt>
      <trkpt lat="44.49418" lon="1.79133">
        <ele>217.3</ele>
        <time>2022-04-10T14:49:06Z</time>
      </trkpt>
      <trkpt lat="44.49418" lon="1.79133">
        <ele>217.3</ele>
        <time>2022-04-10T14:49:07Z</time>
      </trkpt>
      <trkpt lat="44.49418" lon="1.79133">
        <ele>217.3</ele>
        <time>2022-04-10T14:49:08Z</time>
      </trkpt>
      <trkpt lat="44.49418" lon="1.79133">
        <ele>217.3</ele>
        <time>2022-04-10T14:49:09Z</time>
      </trkpt>
      <trkpt lat="44.49418" lon="1.79133">
        <ele>217.3</ele>
        <time>2022-04-10T14:49:10Z</time>
      </trkpt>
      <trkpt lat="44.49418" lon="1.79133">
        <ele>217.3</ele>
        <time>2022-04-10T14:49:11Z</time>
      </trkpt>
      <trkpt lat="44.49418" lon="1.79133">
        <ele>217.3</ele>
        <time>2022-04-10T14:49:12Z</time>
      </trkpt>
      <trkpt lat="44.49418" lon="1.79133">
        <ele>217.3</ele>
        <time>2022-04-10T14:49:13Z</time>
      </trkpt>
      <trkpt lat="44.49418" lon="1.79133">
        <ele>217.3</ele>
        <time>2022-04-10T14:49:14Z</time>
      </trkpt>
      <trkpt lat="44.49418" lon="1.79133">
        <ele>217.3</ele>
        <time>2022-04-10T14:49:15Z</time>
      </trkpt>
      <trkpt lat="44.49418" lon="1.79133">
        <ele>217.3</ele>
        <time>2022-04-10T14:49:16Z</time>
      </trkpt>
      <trkpt lat="44.49418" lon="1.79133">
        <ele>217.3</ele>
        <time>2022-04-10T14:49:17Z</time>
      </trkpt>
      <trkpt lat="44.49418" lon="1.79133">
        <ele>217.3</ele>
        <time>2022-04-10T14:49:18Z</time>
      </trkpt>
      <trkpt lat="44.49418" lon="1.79133">
        <ele>217.3</ele>
        <time>2022-04-10T14:49:19Z</time>
      </trkpt>
      <trkpt lat="44.49418" lon="1.79133">
        <ele>217.3</ele>
        <time>2022-04-10T14:49:20Z</time>
      </trkpt>
      <trkpt lat="44.49418" lon="1.79133">
        <ele>217.3</ele>
        <time>2022-04-10T14:49:21Z</time>
      </trkpt>
      <trkpt lat="44.49418" lon="1.79133">
        <ele>217.3</ele>
        <time>2022-04-10T14:49:22Z</time>
      </trkpt>
      <trkpt lat="44.49418" lon="1.79133">
        <ele>217.4</ele>
        <time>2022-04-10T14:49:23Z</time>
      </trkpt>
      <trkpt lat="44.49418" lon="1.79133">
        <ele>217.4</ele>
        <time>2022-04-10T14:49:24Z</time>
      </trkpt>
      <trkpt lat="44.49418" lon="1.79133">
        <ele>217.4</ele>
        <time>2022-04-10T14:49:25Z</time>
      </trkpt>
      <trkpt lat="44.49418" lon="1.79133">
        <ele>217.4</ele>
        <time>2022-04-10T14:49:26Z</time>
      </trkpt>
      <trkpt lat="44.49418" lon="1.79133">
        <ele>217.4</ele>
        <time>2022-04-10T14:49:27Z</time>
      </trkpt>
      <trkpt lat="44.49417" lon="1.79133">
        <ele>217.4</ele>
        <time>2022-04-10T14:49:28Z</time>
      </trkpt>
      <trkpt lat="44.49417" lon="1.79133">
        <ele>217.4</ele>
        <time>2022-04-10T14:49:29Z</time>
      </trkpt>
      <trkpt lat="44.49417" lon="1.79133">
        <ele>217.4</ele>
        <time>2022-04-10T14:49:30Z</time>
      </trkpt>
      <trkpt lat="44.49417" lon="1.79133">
        <ele>217.4</ele>
        <time>2022-04-10T14:49:31Z</time>
      </trkpt>
      <trkpt lat="44.49417" lon="1.79133">
        <ele>217.4</ele>
        <time>2022-04-10T14:49:32Z</time>
      </trkpt>
      <trkpt lat="44.49417" lon="1.79133">
        <ele>217.4</ele>
        <time>2022-04-10T14:49:33Z</time>
      </trkpt>
      <trkpt lat="44.49417" lon="1.79133">
        <ele>217.4</ele>
        <time>2022-04-10T14:49:34Z</time>
      </trkpt>
      <trkpt lat="44.49417" lon="1.79133">
        <ele>217.4</ele>
        <time>2022-04-10T14:49:35Z</time>
      </trkpt>
      <trkpt lat="44.49417" lon="1.79133">
        <ele>217.4</ele>
        <time>2022-04-10T14:49:36Z</time>
      </trkpt>
      <trkpt lat="44.49417" lon="1.79133">
        <ele>217.4</ele>
        <time>2022-04-10T14:49:37Z</time>
      </trkpt>
      <trkpt lat="44.49417" lon="1.79133">
        <ele>217.4</ele>
        <time>2022-04-10T14:49:38Z</time>
      </trkpt>
      <trkpt lat="44.49417" lon="1.79133">
        <ele>217.5</ele>
        <time>2022-04-10T14:49:39Z</time>
      </trkpt>
      <trkpt lat="44.49417" lon="1.79133">
        <ele>217.5</ele>
        <time>2022-04-10T14:49:40Z</time>
      </trkpt>
      <trkpt lat="44.49417" lon="1.79133">
        <ele>217.5</ele>
        <time>2022-04-10T14:49:41Z</time>
      </trkpt>
      <trkpt lat="44.49417" lon="1.79133">
        <ele>217.5</ele>
        <time>2022-04-10T14:49:42Z</time>
      </trkpt>
      <trkpt lat="44.49417" lon="1.79133">
        <ele>217.5</ele>
        <time>2022-04-10T14:49:43Z</time>
      </trkpt>
      <trkpt lat="44.49417" lon="1.79133">
        <ele>217.5</ele>
        <time>2022-04-10T14:49:44Z</time>
      </trkpt>
      <trkpt lat="44.49417" lon="1.79133">
        <ele>217.5</ele>
        <time>2022-04-10T14:49:45Z</time>
      </trkpt>
      <trkpt lat="44.49417" lon="1.79133">
        <ele>217.5</ele>
        <time>2022-04-10T14:49:46Z</time>
      </trkpt>
      <trkpt lat="44.49417" lon="1.79133">
        <ele>217.5</ele>
        <time>2022-04-10T14:49:47Z</time>
      </trkpt>
      <trkpt lat="44.49417" lon="1.79133">
        <ele>217.5</ele>
        <time>2022-04-10T14:49:48Z</time>
      </trkpt>
      <trkpt lat="44.49417" lon="1.79133">
        <ele>217.5</ele>
        <time>2022-04-10T14:49:49Z</time>
      </trkpt>
      <trkpt lat="44.49417" lon="1.79133">
        <ele>217.5</ele>
        <time>2022-04-10T14:49:50Z</time>
      </trkpt>
      <trkpt lat="44.49417" lon="1.79133">
        <ele>217.5</ele>
        <time>2022-04-10T14:49:51Z</time>
      </trkpt>
      <trkpt lat="44.49417" lon="1.79133">
        <ele>217.5</ele>
        <time>2022-04-10T14:49:52Z</time>
      </trkpt>
      <trkpt lat="44.49417" lon="1.79133">
        <ele>217.5</ele>
        <time>2022-04-10T14:49:53Z</time>
      </trkpt>
      <trkpt lat="44.49417" lon="1.79133">
        <ele>217.5</ele>
        <time>2022-04-10T14:49:54Z</time>
      </trkpt>
      <trkpt lat="44.49417" lon="1.79133">
        <ele>217.5</ele>
        <time>2022-04-10T14:49:55Z</time>
      </trkpt>
      <trkpt lat="44.49417" lon="1.79133">
        <ele>217.5</ele>
        <time>2022-04-10T14:49:56Z</time>
      </trkpt>
      <trkpt lat="44.49416" lon="1.79132">
        <ele>217.5</ele>
        <time>2022-04-10T14:49:57Z</time>
      </trkpt>
      <trkpt lat="44.49416" lon="1.79132">
        <ele>217.5</ele>
        <time>2022-04-10T14:49:58Z</time>
      </trkpt>
      <trkpt lat="44.49416" lon="1.79132">
        <ele>217.5</ele>
        <time>2022-04-10T14:49:59Z</time>
      </trkpt>
      <trkpt lat="44.49416" lon="1.79132">
        <ele>217.6</ele>
        <time>2022-04-10T14:50:00Z</time>
      </trkpt>
      <trkpt lat="44.49416" lon="1.79132">
        <ele>217.6</ele>
        <time>2022-04-10T14:50:01Z</time>
      </trkpt>
      <trkpt lat="44.49416" lon="1.79132">
        <ele>217.6</ele>
        <time>2022-04-10T14:50:02Z</time>
      </trkpt>
      <trkpt lat="44.49416" lon="1.79132">
        <ele>217.6</ele>
        <time>2022-04-10T14:50:03Z</time>
      </trkpt>
      <trkpt lat="44.49416" lon="1.79132">
        <ele>217.6</ele>
        <time>2022-04-10T14:50:04Z</time>
      </trkpt>
      <trkpt lat="44.49416" lon="1.79132">
        <ele>217.6</ele>
        <time>2022-04-10T14:50:05Z</time>
      </trkpt>
      <trkpt lat="44.49416" lon="1.79132">
        <ele>217.6</ele>
        <time>2022-04-10T14:50:06Z</time>
      </trkpt>
      <trkpt lat="44.49416" lon="1.79132">
        <ele>217.6</ele>
        <time>2022-04-10T14:50:07Z</time>
      </trkpt>
      <trkpt lat="44.49416" lon="1.79132">
        <ele>217.6</ele>
        <time>2022-04-10T14:50:08Z</time>
      </trkpt>
      <trkpt lat="44.49416" lon="1.79132">
        <ele>217.6</ele>
        <time>2022-04-10T14:50:09Z</time>
      </trkpt>
      <trkpt lat="44.49416" lon="1.79132">
        <ele>217.6</ele>
        <time>2022-04-10T14:50:10Z</time>
      </trkpt>
      <trkpt lat="44.49416" lon="1.79132">
        <ele>217.6</ele>
        <time>2022-04-10T14:50:11Z</time>
      </trkpt>
      <trkpt lat="44.49416" lon="1.79132">
        <ele>217.6</ele>
        <time>2022-04-10T14:50:12Z</time>
      </trkpt>
      <trkpt lat="44.49416" lon="1.79132">
        <ele>217.6</ele>
        <time>2022-04-10T14:50:13Z</time>
      </trkpt>
      <trkpt lat="44.49416" lon="1.79132">
        <ele>217.6</ele>
        <time>2022-04-10T14:50:14Z</time>
      </trkpt>
      <trkpt lat="44.49416" lon="1.79132">
        <ele>217.6</ele>
        <time>2022-04-10T14:50:15Z</time>
      </trkpt>
      <trkpt lat="44.49416" lon="1.79132">
        <ele>217.6</ele>
        <time>2022-04-10T14:50:16Z</time>
      </trkpt>
      <trkpt lat="44.49416" lon="1.79132">
        <ele>217.7</ele>
        <time>2022-04-10T14:50:17Z</time>
      </trkpt>
      <trkpt lat="44.49416" lon="1.79132">
        <ele>217.7</ele>
        <time>2022-04-10T14:50:18Z</time>
      </trkpt>
      <trkpt lat="44.49416" lon="1.79132">
        <ele>217.7</ele>
        <time>2022-04-10T14:50:19Z</time>
      </trkpt>
      <trkpt lat="44.49416" lon="1.79132">
        <ele>217.7</ele>
        <time>2022-04-10T14:50:20Z</time>
      </trkpt>
      <trkpt lat="44.49416" lon="1.79132">
        <ele>217.7</ele>
        <time>2022-04-10T14:50:21Z</time>
      </trkpt>
      <trkpt lat="44.49416" lon="1.79132">
        <ele>217.7</ele>
        <time>2022-04-10T14:50:22Z</time>
      </trkpt>
      <trkpt lat="44.49416" lon="1.79132">
        <ele>217.7</ele>
        <time>2022-04-10T14:50:23Z</time>
      </trkpt>
      <trkpt lat="44.49416" lon="1.79132">
        <ele>217.7</ele>
        <time>2022-04-10T14:50:24Z</time>
      </trkpt>
      <trkpt lat="44.49415" lon="1.79132">
        <ele>217.7</ele>
        <time>2022-04-10T14:50:25Z</time>
      </trkpt>
      <trkpt lat="44.49415" lon="1.79132">
        <ele>217.7</ele>
        <time>2022-04-10T14:50:26Z</time>
      </trkpt>
      <trkpt lat="44.49415" lon="1.79132">
        <ele>217.7</ele>
        <time>2022-04-10T14:50:27Z</time>
      </trkpt>
      <trkpt lat="44.49415" lon="1.79132">
        <ele>217.7</ele>
        <time>2022-04-10T14:50:28Z</time>
      </trkpt>
      <trkpt lat="44.49415" lon="1.79132">
        <ele>217.7</ele>
        <time>2022-04-10T14:50:29Z</time>
      </trkpt>
      <trkpt lat="44.49415" lon="1.79132">
        <ele>217.7</ele>
        <time>2022-04-10T14:50:30Z</time>
      </trkpt>
      <trkpt lat="44.49415" lon="1.79132">
        <ele>217.7</ele>
        <time>2022-04-10T14:50:31Z</time>
      </trkpt>
      <trkpt lat="44.49415" lon="1.79132">
        <ele>217.7</ele>
        <time>2022-04-10T14:50:32Z</time>
      </trkpt>
      <trkpt lat="44.49415" lon="1.79132">
        <ele>217.7</ele>
        <time>2022-04-10T14:50:33Z</time>
      </trkpt>
      <trkpt lat="44.49415" lon="1.79132">
        <ele>217.8</ele>
        <time>2022-04-10T14:50:34Z</time>
      </trkpt>
      <trkpt lat="44.49415" lon="1.79132">
        <ele>217.8</ele>
        <time>2022-04-10T14:50:35Z</time>
      </trkpt>
      <trkpt lat="44.49415" lon="1.79132">
        <ele>217.8</ele>
        <time>2022-04-10T14:50:36Z</time>
      </trkpt>
      <trkpt lat="44.49415" lon="1.79132">
        <ele>217.8</ele>
        <time>2022-04-10T14:50:37Z</time>
      </trkpt>
      <trkpt lat="44.49415" lon="1.79132">
        <ele>217.8</ele>
        <time>2022-04-10T14:50:38Z</time>
      </trkpt>
      <trkpt lat="44.49415" lon="1.79132">
        <ele>217.8</ele>
        <time>2022-04-10T14:50:39Z</time>
      </trkpt>
      <trkpt lat="44.49415" lon="1.79132">
        <ele>217.8</ele>
        <time>2022-04-10T14:50:40Z</time>
      </trkpt>
      <trkpt lat="44.49415" lon="1.79132">
        <ele>217.8</ele>
        <time>2022-04-10T14:50:41Z</time>
      </trkpt>
      <trkpt lat="44.49415" lon="1.79132">
        <ele>217.8</ele>
        <time>2022-04-10T14:50:42Z</time>
      </trkpt>
      <trkpt lat="44.49415" lon="1.79132">
        <ele>217.8</ele>
        <time>2022-04-10T14:50:43Z</time>
      </trkpt>
      <trkpt lat="44.49415" lon="1.79132">
        <ele>217.8</ele>
        <time>2022-04-10T14:50:44Z</time>
      </trkpt>
      <trkpt lat="44.49415" lon="1.79132">
        <ele>217.8</ele>
        <time>2022-04-10T14:50:45Z</time>
      </trkpt>
      <trkpt lat="44.49415" lon="1.79132">
        <ele>217.8</ele>
        <time>2022-04-10T14:50:46Z</time>
      </trkpt>
      <trkpt lat="44.49415" lon="1.79132">
        <ele>217.8</ele>
        <time>2022-04-10T14:50:47Z</time>
      </trkpt>
      <trkpt lat="44.49415" lon="1.79132">
        <ele>217.8</ele>
        <time>2022-04-10T14:50:48Z</time>
      </trkpt>
      <trkpt lat="44.49415" lon="1.79132">
        <ele>217.8</ele>
        <time>2022-04-10T14:50:49Z</time>
      </trkpt>
      <trkpt lat="44.49415" lon="1.79132">
        <ele>217.9</ele>
        <time>2022-04-10T14:50:50Z</time>
      </trkpt>
      <trkpt lat="44.49415" lon="1.79132">
        <ele>217.9</ele>
        <time>2022-04-10T14:50:51Z</time>
      </trkpt>
      <trkpt lat="44.49415" lon="1.79132">
        <ele>217.9</ele>
        <time>2022-04-10T14:50:52Z</time>
      </trkpt>
      <trkpt lat="44.49414" lon="1.79132">
        <ele>217.9</ele>
        <time>2022-04-10T14:50:53Z</time>
      </trkpt>
      <trkpt lat="44.49414" lon="1.79132">
        <ele>217.9</ele>
        <time>2022-04-10T14:50:54Z</time>
      </trkpt>
      <trkpt lat="44.49412" lon="1.79131">
        <ele>218.2</ele>
        <time>2022-04-10T14:50:55Z</time>
      </trkpt>
      <trkpt lat="44.49411" lon="1.79131">
        <ele>218.3</ele>
        <time>2022-04-10T14:50:56Z</time>
      </trkpt>
      <trkpt lat="44.49411" lon="1.79131">
        <ele>218.3</ele>
        <time>2022-04-10T14:50:57Z</time>
      </trkpt>
      <trkpt lat="44.49411" lon="1.79131">
        <ele>218.4</ele>
        <time>2022-04-10T14:50:58Z</time>
      </trkpt>
      <trkpt lat="44.49411" lon="1.79131">
        <ele>218.4</ele>
        <time>2022-04-10T14:50:59Z</time>
      </trkpt>
      <trkpt lat="44.49411" lon="1.79132">
        <ele>218.4</ele>
        <time>2022-04-10T14:51:00Z</time>
      </trkpt>
      <trkpt lat="44.49411" lon="1.79132">
        <ele>218.4</ele>
        <time>2022-04-10T14:51:01Z</time>
      </trkpt>
      <trkpt lat="44.49411" lon="1.79132">
        <ele>218.4</ele>
        <time>2022-04-10T14:51:02Z</time>
      </trkpt>
      <trkpt lat="44.49412" lon="1.79132">
        <ele>218.5</ele>
        <time>2022-04-10T14:51:03Z</time>
      </trkpt>
      <trkpt lat="44.49412" lon="1.79132">
        <ele>218.5</ele>
        <time>2022-04-10T14:51:04Z</time>
      </trkpt>
      <trkpt lat="44.49412" lon="1.79132">
        <ele>218.5</ele>
        <time>2022-04-10T14:51:05Z</time>
      </trkpt>
      <trkpt lat="44.49412" lon="1.79133">
        <ele>218.5</ele>
        <time>2022-04-10T14:51:06Z</time>
      </trkpt>
      <trkpt lat="44.49412" lon="1.79133">
        <ele>218.6</ele>
        <time>2022-04-10T14:51:07Z</time>
      </trkpt>
      <trkpt lat="44.49412" lon="1.79133">
        <ele>218.6</ele>
        <time>2022-04-10T14:51:08Z</time>
      </trkpt>
      <trkpt lat="44.49412" lon="1.79133">
        <ele>218.6</ele>
        <time>2022-04-10T14:51:09Z</time>
      </trkpt>
      <trkpt lat="44.49412" lon="1.79133">
        <ele>218.6</ele>
        <time>2022-04-10T14:51:10Z</time>
      </trkpt>
      <trkpt lat="44.49413" lon="1.79133">
        <ele>218.6</ele>
        <time>2022-04-10T14:51:11Z</time>
      </trkpt>
      <trkpt lat="44.49413" lon="1.79134">
        <ele>218.7</ele>
        <time>2022-04-10T14:51:12Z</time>
      </trkpt>
      <trkpt lat="44.49413" lon="1.79134">
        <ele>218.7</ele>
        <time>2022-04-10T14:51:13Z</time>
      </trkpt>
      <trkpt lat="44.49413" lon="1.79134">
        <ele>218.7</ele>
        <time>2022-04-10T14:51:14Z</time>
      </trkpt>
      <trkpt lat="44.49413" lon="1.79134">
        <ele>218.7</ele>
        <time>2022-04-10T14:51:15Z</time>
      </trkpt>
      <trkpt lat="44.49413" lon="1.79134">
        <ele>218.8</ele>
        <time>2022-04-10T14:51:16Z</time>
      </trkpt>
      <trkpt lat="44.49413" lon="1.79134">
        <ele>218.8</ele>
        <time>2022-04-10T14:51:17Z</time>
      </trkpt>
      <trkpt lat="44.49413" lon="1.79135">
        <ele>218.8</ele>
        <time>2022-04-10T14:51:18Z</time>
      </trkpt>
      <trkpt lat="44.49414" lon="1.79135">
        <ele>218.8</ele>
        <time>2022-04-10T14:51:19Z</time>
      </trkpt>
      <trkpt lat="44.49414" lon="1.79135">
        <ele>218.8</ele>
        <time>2022-04-10T14:51:20Z</time>
      </trkpt>
      <trkpt lat="44.49414" lon="1.79135">
        <ele>218.9</ele>
        <time>2022-04-10T14:51:21Z</time>
      </trkpt>
      <trkpt lat="44.49414" lon="1.79135">
        <ele>218.9</ele>
        <time>2022-04-10T14:51:22Z</time>
      </trkpt>
      <trkpt lat="44.49414" lon="1.79135">
        <ele>218.9</ele>
        <time>2022-04-10T14:51:23Z</time>
      </trkpt>
      <trkpt lat="44.49414" lon="1.79135">
        <ele>218.9</ele>
        <time>2022-04-10T14:51:24Z</time>
      </trkpt>
      <trkpt lat="44.49414" lon="1.79136">
        <ele>218.9</ele>
        <time>2022-04-10T14:51:25Z</time>
      </trkpt>
      <trkpt lat="44.49414" lon="1.79136">
        <ele>219</ele>
        <time>2022-04-10T14:51:26Z</time>
      </trkpt>
      <trkpt lat="44.49418" lon="1.79138">
        <ele>219.4</ele>
        <time>2022-04-10T14:51:27Z</time>
      </trkpt>
      <trkpt lat="44.49418" lon="1.79139">
        <ele>219.5</ele>
        <time>2022-04-10T14:51:28Z</time>
      </trkpt>
      <trkpt lat="44.49422" lon="1.79141">
        <ele>220</ele>
        <time>2022-04-10T14:51:29Z</time>
      </trkpt>
      <trkpt lat="44.49423" lon="1.79142">
        <ele>220.2</ele>
        <time>2022-04-10T14:51:30Z</time>
      </trkpt>
      <trkpt lat="44.49426" lon="1.79144">
        <ele>220.6</ele>
        <time>2022-04-10T14:51:31Z</time>
      </trkpt>
      <trkpt lat="44.49427" lon="1.79145">
        <ele>220.8</ele>
        <time>2022-04-10T14:51:32Z</time>
      </trkpt>
      <trkpt lat="44.49429" lon="1.79147">
        <ele>221</ele>
        <time>2022-04-10T14:51:33Z</time>
      </trkpt>
      <trkpt lat="44.49431" lon="1.7915">
        <ele>221.5</ele>
        <time>2022-04-10T14:51:35Z</time>
      </trkpt>
      <trkpt lat="44.49434" lon="1.79153">
        <ele>221.8</ele>
        <time>2022-04-10T14:51:37Z</time>
      </trkpt>
      <trkpt lat="44.49436" lon="1.79156">
        <ele>222.2</ele>
        <time>2022-04-10T14:51:38Z</time>
      </trkpt>
      <trkpt lat="44.49438" lon="1.7916">
        <ele>222.7</ele>
        <time>2022-04-10T14:51:39Z</time>
      </trkpt>
      <trkpt lat="44.49441" lon="1.79163">
        <ele>223.1</ele>
        <time>2022-04-10T14:51:40Z</time>
      </trkpt>
      <trkpt lat="44.49444" lon="1.79165">
        <ele>223.5</ele>
        <time>2022-04-10T14:51:41Z</time>
      </trkpt>
      <trkpt lat="44.49447" lon="1.79167">
        <ele>223</ele>
        <time>2022-04-10T14:51:42Z</time>
      </trkpt>
      <trkpt lat="44.49451" lon="1.7917">
        <ele>222.5</ele>
        <time>2022-04-10T14:51:43Z</time>
      </trkpt>
      <trkpt lat="44.49457" lon="1.79174">
        <ele>223.2</ele>
        <time>2022-04-10T14:51:45Z</time>
      </trkpt>
      <trkpt lat="44.49462" lon="1.79176">
        <ele>222.7</ele>
        <time>2022-04-10T14:51:46Z</time>
      </trkpt>
      <trkpt lat="44.49466" lon="1.79179">
        <ele>222.2</ele>
        <time>2022-04-10T14:51:47Z</time>
      </trkpt>
      <trkpt lat="44.4947" lon="1.79181">
        <ele>219.4</ele>
        <time>2022-04-10T14:51:48Z</time>
      </trkpt>
      <trkpt lat="44.49476" lon="1.79185">
        <ele>218.9</ele>
        <time>2022-04-10T14:51:49Z</time>
      </trkpt>
      <trkpt lat="44.49481" lon="1.79187">
        <ele>218.6</ele>
        <time>2022-04-10T14:51:50Z</time>
      </trkpt>
      <trkpt lat="44.49486" lon="1.7919">
        <ele>218.1</ele>
        <time>2022-04-10T14:51:51Z</time>
      </trkpt>
      <trkpt lat="44.49494" lon="1.79193">
        <ele>217.4</ele>
        <time>2022-04-10T14:51:53Z</time>
      </trkpt>
      <trkpt lat="44.49501" lon="1.79197">
        <ele>217</ele>
        <time>2022-04-10T14:51:55Z</time>
      </trkpt>
      <trkpt lat="44.49506" lon="1.79199">
        <ele>213.8</ele>
        <time>2022-04-10T14:51:56Z</time>
      </trkpt>
      <trkpt lat="44.49511" lon="1.79201">
        <ele>213.3</ele>
        <time>2022-04-10T14:51:57Z</time>
      </trkpt>
      <trkpt lat="44.49515" lon="1.79202">
        <ele>212.9</ele>
        <time>2022-04-10T14:51:58Z</time>
      </trkpt>
      <trkpt lat="44.49518" lon="1.79202">
        <ele>211.8</ele>
        <time>2022-04-10T14:51:59Z</time>
      </trkpt>
      <trkpt lat="44.49519" lon="1.79202">
        <ele>211.3</ele>
        <time>2022-04-10T14:52:00Z</time>
      </trkpt>
      <trkpt lat="44.4952" lon="1.79204">
        <ele>210.8</ele>
        <time>2022-04-10T14:52:02Z</time>
      </trkpt>
      <trkpt lat="44.49521" lon="1.79204">
        <ele>210.3</ele>
        <time>2022-04-10T14:52:03Z</time>
      </trkpt>
      <trkpt lat="44.49523" lon="1.79203">
        <ele>209.9</ele>
        <time>2022-04-10T14:52:04Z</time>
      </trkpt>
      <trkpt lat="44.49524" lon="1.79203">
        <ele>209.4</ele>
        <time>2022-04-10T14:52:06Z</time>
      </trkpt>
      <trkpt lat="44.49526" lon="1.79202">
        <ele>208.9</ele>
        <time>2022-04-10T14:52:07Z</time>
      </trkpt>
      <trkpt lat="44.49532" lon="1.79201">
        <ele>207.8</ele>
        <time>2022-04-10T14:52:08Z</time>
      </trkpt>
      <trkpt lat="44.49537" lon="1.792">
        <ele>207.3</ele>
        <time>2022-04-10T14:52:09Z</time>
      </trkpt>
      <trkpt lat="44.49543" lon="1.792">
        <ele>206.2</ele>
        <time>2022-04-10T14:52:10Z</time>
      </trkpt>
      <trkpt lat="44.49547" lon="1.79199">
        <ele>205.7</ele>
        <time>2022-04-10T14:52:11Z</time>
      </trkpt>
      <trkpt lat="44.49555" lon="1.79198">
        <ele>204.7</ele>
        <time>2022-04-10T14:52:13Z</time>
      </trkpt>
      <trkpt lat="44.49561" lon="1.79197">
        <ele>206.4</ele>
        <time>2022-04-10T14:52:14Z</time>
      </trkpt>
      <trkpt lat="44.49572" lon="1.79196">
        <ele>205.4</ele>
        <time>2022-04-10T14:52:15Z</time>
      </trkpt>
      <trkpt lat="44.49579" lon="1.79196">
        <ele>204.6</ele>
        <time>2022-04-10T14:52:16Z</time>
      </trkpt>
      <trkpt lat="44.49585" lon="1.79196">
        <ele>204.1</ele>
        <time>2022-04-10T14:52:17Z</time>
      </trkpt>
      <trkpt lat="44.49591" lon="1.79195">
        <ele>204</ele>
        <time>2022-04-10T14:52:18Z</time>
      </trkpt>
      <trkpt lat="44.49598" lon="1.79193">
        <ele>203.5</ele>
        <time>2022-04-10T14:52:19Z</time>
      </trkpt>
      <trkpt lat="44.49604" lon="1.79192">
        <ele>203.9</ele>
        <time>2022-04-10T14:52:20Z</time>
      </trkpt>
      <trkpt lat="44.4961" lon="1.79191">
        <ele>203.4</ele>
        <time>2022-04-10T14:52:21Z</time>
      </trkpt>
      <trkpt lat="44.49616" lon="1.7919">
        <ele>204.1</ele>
        <time>2022-04-10T14:52:22Z</time>
      </trkpt>
      <trkpt lat="44.49622" lon="1.7919">
        <ele>203.6</ele>
        <time>2022-04-10T14:52:23Z</time>
      </trkpt>
      <trkpt lat="44.49628" lon="1.7919">
        <ele>204</ele>
        <time>2022-04-10T14:52:24Z</time>
      </trkpt>
      <trkpt lat="44.49633" lon="1.7919">
        <ele>203.5</ele>
        <time>2022-04-10T14:52:25Z</time>
      </trkpt>
      <trkpt lat="44.49637" lon="1.79188">
        <ele>203.1</ele>
        <time>2022-04-10T14:52:26Z</time>
      </trkpt>
      <trkpt lat="44.49642" lon="1.79189">
        <ele>203.1</ele>
        <time>2022-04-10T14:52:28Z</time>
      </trkpt>
      <trkpt lat="44.49645" lon="1.7919">
        <ele>202.6</ele>
        <time>2022-04-10T14:52:29Z</time>
      </trkpt>
      <trkpt lat="44.49644" lon="1.79194">
        <ele>202.2</ele>
        <time>2022-04-10T14:52:30Z</time>
      </trkpt>
      <trkpt lat="44.49647" lon="1.79192">
        <ele>201.7</ele>
        <time>2022-04-10T14:52:31Z</time>
      </trkpt>
      <trkpt lat="44.49649" lon="1.79191">
        <ele>201.2</ele>
        <time>2022-04-10T14:52:32Z</time>
      </trkpt>
      <trkpt lat="44.4965" lon="1.7919">
        <ele>200.7</ele>
        <time>2022-04-10T14:52:33Z</time>
      </trkpt>
      <trkpt lat="44.4965" lon="1.7919">
        <ele>200.2</ele>
        <time>2022-04-10T14:52:34Z</time>
      </trkpt>
      <trkpt lat="44.49651" lon="1.79196">
        <ele>199.9</ele>
        <time>2022-04-10T14:52:36Z</time>
      </trkpt>
      <trkpt lat="44.49652" lon="1.79201">
        <ele>198.4</ele>
        <time>2022-04-10T14:52:37Z</time>
      </trkpt>
      <trkpt lat="44.49652" lon="1.79208">
        <ele>197.9</ele>
        <time>2022-04-10T14:52:38Z</time>
      </trkpt>
      <trkpt lat="44.49651" lon="1.79213">
        <ele>197.4</ele>
        <time>2022-04-10T14:52:39Z</time>
      </trkpt>
      <trkpt lat="44.49644" lon="1.79217">
        <ele>195.9</ele>
        <time>2022-04-10T14:52:41Z</time>
      </trkpt>
      <trkpt lat="44.4964" lon="1.7922">
        <ele>195.4</ele>
        <time>2022-04-10T14:52:42Z</time>
      </trkpt>
      <trkpt lat="44.49632" lon="1.79226">
        <ele>194</ele>
        <time>2022-04-10T14:52:43Z</time>
      </trkpt>
      <trkpt lat="44.49627" lon="1.7923">
        <ele>193.5</ele>
        <time>2022-04-10T14:52:44Z</time>
      </trkpt>
      <trkpt lat="44.49623" lon="1.79235">
        <ele>191.7</ele>
        <time>2022-04-10T14:52:45Z</time>
      </trkpt>
      <trkpt lat="44.4962" lon="1.79239">
        <ele>191.2</ele>
        <time>2022-04-10T14:52:46Z</time>
      </trkpt>
      <trkpt lat="44.49617" lon="1.79243">
        <ele>190.7</ele>
        <time>2022-04-10T14:52:47Z</time>
      </trkpt>
      <trkpt lat="44.49615" lon="1.79247">
        <ele>190.2</ele>
        <time>2022-04-10T14:52:48Z</time>
      </trkpt>
      <trkpt lat="44.49614" lon="1.79252">
        <ele>189.9</ele>
        <time>2022-04-10T14:52:49Z</time>
      </trkpt>
      <trkpt lat="44.49615" lon="1.79257">
        <ele>189.4</ele>
        <time>2022-04-10T14:52:50Z</time>
      </trkpt>
      <trkpt lat="44.49615" lon="1.79258">
        <ele>188.9</ele>
        <time>2022-04-10T14:52:51Z</time>
      </trkpt>
      <trkpt lat="44.49616" lon="1.79263">
        <ele>188.4</ele>
        <time>2022-04-10T14:52:52Z</time>
      </trkpt>
      <trkpt lat="44.49617" lon="1.79266">
        <ele>187.9</ele>
        <time>2022-04-10T14:52:53Z</time>
      </trkpt>
      <trkpt lat="44.49618" lon="1.79269">
        <ele>188.1</ele>
        <time>2022-04-10T14:52:54Z</time>
      </trkpt>
      <trkpt lat="44.49621" lon="1.79276">
        <ele>187.6</ele>
        <time>2022-04-10T14:52:56Z</time>
      </trkpt>
      <trkpt lat="44.49623" lon="1.79281">
        <ele>187.1</ele>
        <time>2022-04-10T14:52:58Z</time>
      </trkpt>
      <trkpt lat="44.49623" lon="1.79281">
        <ele>186.6</ele>
        <time>2022-04-10T14:52:59Z</time>
      </trkpt>
      <trkpt lat="44.49624" lon="1.79282">
        <ele>186.1</ele>
        <time>2022-04-10T14:53:00Z</time>
      </trkpt>
      <trkpt lat="44.49624" lon="1.79282">
        <ele>185.6</ele>
        <time>2022-04-10T14:53:01Z</time>
      </trkpt>
      <trkpt lat="44.49624" lon="1.79282">
        <ele>185.2</ele>
        <time>2022-04-10T14:53:02Z</time>
      </trkpt>
      <trkpt lat="44.49625" lon="1.79283">
        <ele>184.7</ele>
        <time>2022-04-10T14:53:03Z</time>
      </trkpt>
      <trkpt lat="44.49625" lon="1.79283">
        <ele>184.9</ele>
        <time>2022-04-10T14:53:04Z</time>
      </trkpt>
      <trkpt lat="44.49626" lon="1.79284">
        <ele>184.4</ele>
        <time>2022-04-10T14:53:05Z</time>
      </trkpt>
      <trkpt lat="44.49626" lon="1.79284">
        <ele>183.9</ele>
        <time>2022-04-10T14:53:06Z</time>
      </trkpt>
      <trkpt lat="44.49626" lon="1.79284">
        <ele>184</ele>
        <time>2022-04-10T14:53:07Z</time>
      </trkpt>
      <trkpt lat="44.49627" lon="1.79285">
        <ele>183.5</ele>
        <time>2022-04-10T14:53:09Z</time>
      </trkpt>
      <trkpt lat="44.49627" lon="1.79285">
        <ele>183</ele>
        <time>2022-04-10T14:53:10Z</time>
      </trkpt>
      <trkpt lat="44.49631" lon="1.79292">
        <ele>182.5</ele>
        <time>2022-04-10T14:53:11Z</time>
      </trkpt>
      <trkpt lat="44.49635" lon="1.79298">
        <ele>182.1</ele>
        <time>2022-04-10T14:53:12Z</time>
      </trkpt>
      <trkpt lat="44.4964" lon="1.79306">
        <ele>182.3</ele>
        <time>2022-04-10T14:53:14Z</time>
      </trkpt>
      <trkpt lat="44.49643" lon="1.79312">
        <ele>181.8</ele>
        <time>2022-04-10T14:53:15Z</time>
      </trkpt>
      <trkpt lat="44.49648" lon="1.79323">
        <ele>181.1</ele>
        <time>2022-04-10T14:53:16Z</time>
      </trkpt>
      <trkpt lat="44.49652" lon="1.79329">
        <ele>181.7</ele>
        <time>2022-04-10T14:53:17Z</time>
      </trkpt>
      <trkpt lat="44.49656" lon="1.79335">
        <ele>181.4</ele>
        <time>2022-04-10T14:53:18Z</time>
      </trkpt>
      <trkpt lat="44.4966" lon="1.79341">
        <ele>180.9</ele>
        <time>2022-04-10T14:53:19Z</time>
      </trkpt>
      <trkpt lat="44.49663" lon="1.79346">
        <ele>182.2</ele>
        <time>2022-04-10T14:53:20Z</time>
      </trkpt>
      <trkpt lat="44.49666" lon="1.79351">
        <ele>181.7</ele>
        <time>2022-04-10T14:53:21Z</time>
      </trkpt>
      <trkpt lat="44.49669" lon="1.79359">
        <ele>181.1</ele>
        <time>2022-04-10T14:53:23Z</time>
      </trkpt>
      <trkpt lat="44.49675" lon="1.79368">
        <ele>181.2</ele>
        <time>2022-04-10T14:53:24Z</time>
      </trkpt>
      <trkpt lat="44.49679" lon="1.79373">
        <ele>181.3</ele>
        <time>2022-04-10T14:53:25Z</time>
      </trkpt>
      <trkpt lat="44.49684" lon="1.79378">
        <ele>181.4</ele>
        <time>2022-04-10T14:53:26Z</time>
      </trkpt>
      <trkpt lat="44.49688" lon="1.79383">
        <ele>181.5</ele>
        <time>2022-04-10T14:53:27Z</time>
      </trkpt>
      <trkpt lat="44.49693" lon="1.79388">
        <ele>181.6</ele>
        <time>2022-04-10T14:53:28Z</time>
      </trkpt>
      <trkpt lat="44.49697" lon="1.79394">
        <ele>181.7</ele>
        <time>2022-04-10T14:53:29Z</time>
      </trkpt>
      <trkpt lat="44.497" lon="1.79399">
        <ele>181.8</ele>
        <time>2022-04-10T14:53:30Z</time>
      </trkpt>
      <trkpt lat="44.49705" lon="1.79403">
        <ele>181.8</ele>
        <time>2022-04-10T14:53:31Z</time>
      </trkpt>
      <trkpt lat="44.49709" lon="1.79408">
        <ele>181.9</ele>
        <time>2022-04-10T14:53:32Z</time>
      </trkpt>
      <trkpt lat="44.49713" lon="1.79413">
        <ele>182</ele>
        <time>2022-04-10T14:53:33Z</time>
      </trkpt>
      <trkpt lat="44.49718" lon="1.79418">
        <ele>182.1</ele>
        <time>2022-04-10T14:53:34Z</time>
      </trkpt>
      <trkpt lat="44.49723" lon="1.79422">
        <ele>182.1</ele>
        <time>2022-04-10T14:53:35Z</time>
      </trkpt>
      <trkpt lat="44.49728" lon="1.79426">
        <ele>182.2</ele>
        <time>2022-04-10T14:53:36Z</time>
      </trkpt>
      <trkpt lat="44.4973" lon="1.79429">
        <ele>182.2</ele>
        <time>2022-04-10T14:53:37Z</time>
      </trkpt>
      <trkpt lat="44.49733" lon="1.79433">
        <ele>182.3</ele>
        <time>2022-04-10T14:53:38Z</time>
      </trkpt>
      <trkpt lat="44.49736" lon="1.79438">
        <ele>182.3</ele>
        <time>2022-04-10T14:53:39Z</time>
      </trkpt>
      <trkpt lat="44.4974" lon="1.79444">
        <ele>182.4</ele>
        <time>2022-04-10T14:53:40Z</time>
      </trkpt>
      <trkpt lat="44.49744" lon="1.7945">
        <ele>182.4</ele>
        <time>2022-04-10T14:53:41Z</time>
      </trkpt>
      <trkpt lat="44.49748" lon="1.79455">
        <ele>182.5</ele>
        <time>2022-04-10T14:53:42Z</time>
      </trkpt>
      <trkpt lat="44.49752" lon="1.7946">
        <ele>182.5</ele>
        <time>2022-04-10T14:53:43Z</time>
      </trkpt>
      <trkpt lat="44.49756" lon="1.79464">
        <ele>182.6</ele>
        <time>2022-04-10T14:53:44Z</time>
      </trkpt>
      <trkpt lat="44.49761" lon="1.79469">
        <ele>182.7</ele>
        <time>2022-04-10T14:53:45Z</time>
      </trkpt>
      <trkpt lat="44.49765" lon="1.79473">
        <ele>182.7</ele>
        <time>2022-04-10T14:53:46Z</time>
      </trkpt>
      <trkpt lat="44.4977" lon="1.79476">
        <ele>182.8</ele>
        <time>2022-04-10T14:53:48Z</time>
      </trkpt>
      <trkpt lat="44.49773" lon="1.79478">
        <ele>182.8</ele>
        <time>2022-04-10T14:53:49Z</time>
      </trkpt>
      <trkpt lat="44.49775" lon="1.79477">
        <ele>182.9</ele>
        <time>2022-04-10T14:53:50Z</time>
      </trkpt>
      <trkpt lat="44.49776" lon="1.79476">
        <ele>182.9</ele>
        <time>2022-04-10T14:53:51Z</time>
      </trkpt>
      <trkpt lat="44.4979" lon="1.79498">
        <ele>183.2</ele>
        <time>2022-04-10T14:53:52Z</time>
      </trkpt>
      <trkpt lat="44.49791" lon="1.79499">
        <ele>183.2</ele>
        <time>2022-04-10T14:53:53Z</time>
      </trkpt>
      <trkpt lat="44.49797" lon="1.79506">
        <ele>183.4</ele>
        <time>2022-04-10T14:53:54Z</time>
      </trkpt>
      <trkpt lat="44.49801" lon="1.79513">
        <ele>183.4</ele>
        <time>2022-04-10T14:53:55Z</time>
      </trkpt>
      <trkpt lat="44.49805" lon="1.79519">
        <ele>183.5</ele>
        <time>2022-04-10T14:53:56Z</time>
      </trkpt>
      <trkpt lat="44.49808" lon="1.79525">
        <ele>183.6</ele>
        <time>2022-04-10T14:53:57Z</time>
      </trkpt>
      <trkpt lat="44.49812" lon="1.79531">
        <ele>183.6</ele>
        <time>2022-04-10T14:53:58Z</time>
      </trkpt>
      <trkpt lat="44.49816" lon="1.79536">
        <ele>183.7</ele>
        <time>2022-04-10T14:53:59Z</time>
      </trkpt>
      <trkpt lat="44.49819" lon="1.79542">
        <ele>183.8</ele>
        <time>2022-04-10T14:54:00Z</time>
      </trkpt>
      <trkpt lat="44.49823" lon="1.79549">
        <ele>183.9</ele>
        <time>2022-04-10T14:54:01Z</time>
      </trkpt>
      <trkpt lat="44.49826" lon="1.79555">
        <ele>183.9</ele>
        <time>2022-04-10T14:54:02Z</time>
      </trkpt>
      <trkpt lat="44.4983" lon="1.79562">
        <ele>184</ele>
        <time>2022-04-10T14:54:03Z</time>
      </trkpt>
      <trkpt lat="44.49834" lon="1.79567">
        <ele>184.1</ele>
        <time>2022-04-10T14:54:04Z</time>
      </trkpt>
      <trkpt lat="44.49837" lon="1.79573">
        <ele>184.2</ele>
        <time>2022-04-10T14:54:05Z</time>
      </trkpt>
      <trkpt lat="44.49841" lon="1.79579">
        <ele>184.3</ele>
        <time>2022-04-10T14:54:06Z</time>
      </trkpt>
      <trkpt lat="44.49844" lon="1.79585">
        <ele>184.3</ele>
        <time>2022-04-10T14:54:07Z</time>
      </trkpt>
      <trkpt lat="44.49847" lon="1.79591">
        <ele>184.4</ele>
        <time>2022-04-10T14:54:08Z</time>
      </trkpt>
      <trkpt lat="44.4985" lon="1.79596">
        <ele>184.5</ele>
        <time>2022-04-10T14:54:09Z</time>
      </trkpt>
      <trkpt lat="44.49852" lon="1.79599">
        <ele>184.5</ele>
        <time>2022-04-10T14:54:10Z</time>
      </trkpt>
      <trkpt lat="44.49854" lon="1.79603">
        <ele>184.6</ele>
        <time>2022-04-10T14:54:11Z</time>
      </trkpt>
      <trkpt lat="44.49858" lon="1.79608">
        <ele>184.6</ele>
        <time>2022-04-10T14:54:12Z</time>
      </trkpt>
      <trkpt lat="44.49862" lon="1.79613">
        <ele>184.7</ele>
        <time>2022-04-10T14:54:13Z</time>
      </trkpt>
      <trkpt lat="44.49866" lon="1.79618">
        <ele>184.8</ele>
        <time>2022-04-10T14:54:14Z</time>
      </trkpt>
      <trkpt lat="44.4987" lon="1.79622">
        <ele>184.9</ele>
        <time>2022-04-10T14:54:15Z</time>
      </trkpt>
      <trkpt lat="44.49873" lon="1.79627">
        <ele>184.9</ele>
        <time>2022-04-10T14:54:17Z</time>
      </trkpt>
      <trkpt lat="44.49877" lon="1.79632">
        <ele>185</ele>
        <time>2022-04-10T14:54:18Z</time>
      </trkpt>
      <trkpt lat="44.49879" lon="1.79637">
        <ele>185.1</ele>
        <time>2022-04-10T14:54:19Z</time>
      </trkpt>
      <trkpt lat="44.49882" lon="1.79642">
        <ele>185.2</ele>
        <time>2022-04-10T14:54:20Z</time>
      </trkpt>
      <trkpt lat="44.49884" lon="1.79647">
        <ele>185.3</ele>
        <time>2022-04-10T14:54:21Z</time>
      </trkpt>
      <trkpt lat="44.49886" lon="1.7965">
        <ele>185.4</ele>
        <time>2022-04-10T14:54:22Z</time>
      </trkpt>
      <trkpt lat="44.49889" lon="1.79657">
        <ele>185.5</ele>
        <time>2022-04-10T14:54:23Z</time>
      </trkpt>
      <trkpt lat="44.49891" lon="1.79661">
        <ele>185.6</ele>
        <time>2022-04-10T14:54:25Z</time>
      </trkpt>
      <trkpt lat="44.49893" lon="1.79664">
        <ele>185.7</ele>
        <time>2022-04-10T14:54:26Z</time>
      </trkpt>
      <trkpt lat="44.49895" lon="1.7967">
        <ele>185.8</ele>
        <time>2022-04-10T14:54:27Z</time>
      </trkpt>
      <trkpt lat="44.49899" lon="1.79674">
        <ele>185.9</ele>
        <time>2022-04-10T14:54:28Z</time>
      </trkpt>
      <trkpt lat="44.49903" lon="1.7968">
        <ele>186</ele>
        <time>2022-04-10T14:54:29Z</time>
      </trkpt>
      <trkpt lat="44.49906" lon="1.79685">
        <ele>186.1</ele>
        <time>2022-04-10T14:54:30Z</time>
      </trkpt>
      <trkpt lat="44.49909" lon="1.79688">
        <ele>186.1</ele>
        <time>2022-04-10T14:54:31Z</time>
      </trkpt>
      <trkpt lat="44.49914" lon="1.79695">
        <ele>186.2</ele>
        <time>2022-04-10T14:54:32Z</time>
      </trkpt>
      <trkpt lat="44.49918" lon="1.797">
        <ele>186.3</ele>
        <time>2022-04-10T14:54:33Z</time>
      </trkpt>
      <trkpt lat="44.49922" lon="1.79705">
        <ele>186.4</ele>
        <time>2022-04-10T14:54:34Z</time>
      </trkpt>
      <trkpt lat="44.49925" lon="1.79711">
        <ele>187.4</ele>
        <time>2022-04-10T14:54:35Z</time>
      </trkpt>
      <trkpt lat="44.4993" lon="1.79717">
        <ele>187.6</ele>
        <time>2022-04-10T14:54:36Z</time>
      </trkpt>
      <trkpt lat="44.49935" lon="1.79722">
        <ele>187.8</ele>
        <time>2022-04-10T14:54:37Z</time>
      </trkpt>
      <trkpt lat="44.49939" lon="1.79727">
        <ele>187.9</ele>
        <time>2022-04-10T14:54:38Z</time>
      </trkpt>
      <trkpt lat="44.49941" lon="1.7973">
        <ele>188</ele>
        <time>2022-04-10T14:54:39Z</time>
      </trkpt>
      <trkpt lat="44.49945" lon="1.79737">
        <ele>188.2</ele>
        <time>2022-04-10T14:54:40Z</time>
      </trkpt>
      <trkpt lat="44.49949" lon="1.79742">
        <ele>188.3</ele>
        <time>2022-04-10T14:54:41Z</time>
      </trkpt>
      <trkpt lat="44.49952" lon="1.79749">
        <ele>188.5</ele>
        <time>2022-04-10T14:54:42Z</time>
      </trkpt>
      <trkpt lat="44.49956" lon="1.79754">
        <ele>188.6</ele>
        <time>2022-04-10T14:54:43Z</time>
      </trkpt>
      <trkpt lat="44.49957" lon="1.79758">
        <ele>188.7</ele>
        <time>2022-04-10T14:54:44Z</time>
      </trkpt>
      <trkpt lat="44.49957" lon="1.79766">
        <ele>188.9</ele>
        <time>2022-04-10T14:54:46Z</time>
      </trkpt>
      <trkpt lat="44.49959" lon="1.79768">
        <ele>189</ele>
        <time>2022-04-10T14:54:47Z</time>
      </trkpt>
      <trkpt lat="44.4996" lon="1.79768">
        <ele>189</ele>
        <time>2022-04-10T14:54:48Z</time>
      </trkpt>
      <trkpt lat="44.49961" lon="1.79769">
        <ele>189</ele>
        <time>2022-04-10T14:54:49Z</time>
      </trkpt>
      <trkpt lat="44.49962" lon="1.79769">
        <ele>189.1</ele>
        <time>2022-04-10T14:54:50Z</time>
      </trkpt>
      <trkpt lat="44.49962" lon="1.79768">
        <ele>189.1</ele>
        <time>2022-04-10T14:54:51Z</time>
      </trkpt>
      <trkpt lat="44.49962" lon="1.79768">
        <ele>189.1</ele>
        <time>2022-04-10T14:54:52Z</time>
      </trkpt>
      <trkpt lat="44.49963" lon="1.79768">
        <ele>189.1</ele>
        <time>2022-04-10T14:54:53Z</time>
      </trkpt>
      <trkpt lat="44.49964" lon="1.79769">
        <ele>189.1</ele>
        <time>2022-04-10T14:54:54Z</time>
      </trkpt>
      <trkpt lat="44.49965" lon="1.7977">
        <ele>189.2</ele>
        <time>2022-04-10T14:54:55Z</time>
      </trkpt>
      <trkpt lat="44.49965" lon="1.79771">
        <ele>189.2</ele>
        <time>2022-04-10T14:54:56Z</time>
      </trkpt>
      <trkpt lat="44.49966" lon="1.79773">
        <ele>189.3</ele>
        <time>2022-04-10T14:54:57Z</time>
      </trkpt>
      <trkpt lat="44.49964" lon="1.79773">
        <ele>189.2</ele>
        <time>2022-04-10T14:54:58Z</time>
      </trkpt>
      <trkpt lat="44.49963" lon="1.79772">
        <ele>189.1</ele>
        <time>2022-04-10T14:54:59Z</time>
      </trkpt>
      <trkpt lat="44.49962" lon="1.79772">
        <ele>189.1</ele>
        <time>2022-04-10T14:55:00Z</time>
      </trkpt>
      <trkpt lat="44.4996" lon="1.79767">
        <ele>188.9</ele>
        <time>2022-04-10T14:55:01Z</time>
      </trkpt>
      <trkpt lat="44.49959" lon="1.79766">
        <ele>188.8</ele>
        <time>2022-04-10T14:55:02Z</time>
      </trkpt>
      <trkpt lat="44.49957" lon="1.79763">
        <ele>188.7</ele>
        <time>2022-04-10T14:55:03Z</time>
      </trkpt>
      <trkpt lat="44.49952" lon="1.79762">
        <ele>188.5</ele>
        <time>2022-04-10T14:55:04Z</time>
      </trkpt>
      <trkpt lat="44.49947" lon="1.79759">
        <ele>188.3</ele>
        <time>2022-04-10T14:55:05Z</time>
      </trkpt>
      <trkpt lat="44.49941" lon="1.79756">
        <ele>188</ele>
        <time>2022-04-10T14:55:06Z</time>
      </trkpt>
      <trkpt lat="44.49934" lon="1.79755">
        <ele>187.8</ele>
        <time>2022-04-10T14:55:07Z</time>
      </trkpt>
      <trkpt lat="44.49928" lon="1.79756">
        <ele>187.6</ele>
        <time>2022-04-10T14:55:08Z</time>
      </trkpt>
      <trkpt lat="44.49922" lon="1.79758">
        <ele>187.3</ele>
        <time>2022-04-10T14:55:09Z</time>
      </trkpt>
      <trkpt lat="44.49915" lon="1.7976">
        <ele>187.1</ele>
        <time>2022-04-10T14:55:10Z</time>
      </trkpt>
      <trkpt lat="44.49909" lon="1.79761">
        <ele>186.9</ele>
        <time>2022-04-10T14:55:11Z</time>
      </trkpt>
      <trkpt lat="44.49904" lon="1.79761">
        <ele>186.7</ele>
        <time>2022-04-10T14:55:12Z</time>
      </trkpt>
      <trkpt lat="44.499" lon="1.79762">
        <ele>186.6</ele>
        <time>2022-04-10T14:55:13Z</time>
      </trkpt>
      <trkpt lat="44.49898" lon="1.79766">
        <ele>186.5</ele>
        <time>2022-04-10T14:55:15Z</time>
      </trkpt>
      <trkpt lat="44.49897" lon="1.79768">
        <ele>186.7</ele>
        <time>2022-04-10T14:55:16Z</time>
      </trkpt>
      <trkpt lat="44.49899" lon="1.79775">
        <ele>186.8</ele>
        <time>2022-04-10T14:55:17Z</time>
      </trkpt>
      <trkpt lat="44.49903" lon="1.79778">
        <ele>186.9</ele>
        <time>2022-04-10T14:55:18Z</time>
      </trkpt>
      <trkpt lat="44.49905" lon="1.79782">
        <ele>186.9</ele>
        <time>2022-04-10T14:55:19Z</time>
      </trkpt>
      <trkpt lat="44.49908" lon="1.7979">
        <ele>187</ele>
        <time>2022-04-10T14:55:20Z</time>
      </trkpt>
      <trkpt lat="44.49913" lon="1.79798">
        <ele>186.9</ele>
        <time>2022-04-10T14:55:22Z</time>
      </trkpt>
      <trkpt lat="44.49917" lon="1.79805">
        <ele>186.9</ele>
        <time>2022-04-10T14:55:23Z</time>
      </trkpt>
      <trkpt lat="44.4992" lon="1.79811">
        <ele>186.9</ele>
        <time>2022-04-10T14:55:24Z</time>
      </trkpt>
      <trkpt lat="44.49923" lon="1.79817">
        <ele>187</ele>
        <time>2022-04-10T14:55:25Z</time>
      </trkpt>
      <trkpt lat="44.49926" lon="1.79822">
        <ele>187.1</ele>
        <time>2022-04-10T14:55:26Z</time>
      </trkpt>
      <trkpt lat="44.49929" lon="1.79827">
        <ele>187.1</ele>
        <time>2022-04-10T14:55:27Z</time>
      </trkpt>
      <trkpt lat="44.49932" lon="1.7983">
        <ele>187.2</ele>
        <time>2022-04-10T14:55:28Z</time>
      </trkpt>
      <trkpt lat="44.49935" lon="1.79835">
        <ele>187.3</ele>
        <time>2022-04-10T14:55:29Z</time>
      </trkpt>
      <trkpt lat="44.49937" lon="1.7984">
        <ele>187.4</ele>
        <time>2022-04-10T14:55:30Z</time>
      </trkpt>
      <trkpt lat="44.4994" lon="1.79844">
        <ele>187.6</ele>
        <time>2022-04-10T14:55:31Z</time>
      </trkpt>
      <trkpt lat="44.49942" lon="1.79847">
        <ele>187.8</ele>
        <time>2022-04-10T14:55:32Z</time>
      </trkpt>
      <trkpt lat="44.49944" lon="1.79852">
        <ele>188</ele>
        <time>2022-04-10T14:55:33Z</time>
      </trkpt>
      <trkpt lat="44.49949" lon="1.79861">
        <ele>188.4</ele>
        <time>2022-04-10T14:55:35Z</time>
      </trkpt>
      <trkpt lat="44.49952" lon="1.79866">
        <ele>188.7</ele>
        <time>2022-04-10T14:55:36Z</time>
      </trkpt>
      <trkpt lat="44.49956" lon="1.7987">
        <ele>189</ele>
        <time>2022-04-10T14:55:37Z</time>
      </trkpt>
      <trkpt lat="44.49959" lon="1.79874">
        <ele>189.2</ele>
        <time>2022-04-10T14:55:38Z</time>
      </trkpt>
      <trkpt lat="44.49961" lon="1.79879">
        <ele>189.4</ele>
        <time>2022-04-10T14:55:39Z</time>
      </trkpt>
      <trkpt lat="44.49964" lon="1.79883">
        <ele>189.6</ele>
        <time>2022-04-10T14:55:41Z</time>
      </trkpt>
      <trkpt lat="44.49966" lon="1.7989">
        <ele>189.8</ele>
        <time>2022-04-10T14:55:42Z</time>
      </trkpt>
      <trkpt lat="44.49968" lon="1.79893">
        <ele>190</ele>
        <time>2022-04-10T14:55:43Z</time>
      </trkpt>
      <trkpt lat="44.49971" lon="1.79896">
        <ele>190.2</ele>
        <time>2022-04-10T14:55:44Z</time>
      </trkpt>
      <trkpt lat="44.49974" lon="1.79901">
        <ele>190.4</ele>
        <time>2022-04-10T14:55:45Z</time>
      </trkpt>
      <trkpt lat="44.49977" lon="1.79908">
        <ele>190.7</ele>
        <time>2022-04-10T14:55:47Z</time>
      </trkpt>
      <trkpt lat="44.4998" lon="1.79914">
        <ele>190.9</ele>
        <time>2022-04-10T14:55:48Z</time>
      </trkpt>
      <trkpt lat="44.49982" lon="1.79919">
        <ele>191.1</ele>
        <time>2022-04-10T14:55:49Z</time>
      </trkpt>
      <trkpt lat="44.49984" lon="1.79924">
        <ele>191.4</ele>
        <time>2022-04-10T14:55:50Z</time>
      </trkpt>
      <trkpt lat="44.49987" lon="1.7993">
        <ele>191.7</ele>
        <time>2022-04-10T14:55:51Z</time>
      </trkpt>
      <trkpt lat="44.49991" lon="1.79937">
        <ele>192.1</ele>
        <time>2022-04-10T14:55:53Z</time>
      </trkpt>
      <trkpt lat="44.49994" lon="1.79941">
        <ele>192.3</ele>
        <time>2022-04-10T14:55:54Z</time>
      </trkpt>
      <trkpt lat="44.50001" lon="1.7995">
        <ele>192.7</ele>
        <time>2022-04-10T14:55:55Z</time>
      </trkpt>
      <trkpt lat="44.50005" lon="1.79955">
        <ele>192.9</ele>
        <time>2022-04-10T14:55:56Z</time>
      </trkpt>
      <trkpt lat="44.50008" lon="1.7996">
        <ele>193.1</ele>
        <time>2022-04-10T14:55:57Z</time>
      </trkpt>
      <trkpt lat="44.5001" lon="1.79964">
        <ele>193.3</ele>
        <time>2022-04-10T14:55:58Z</time>
      </trkpt>
      <trkpt lat="44.50012" lon="1.79969">
        <ele>193.4</ele>
        <time>2022-04-10T14:55:59Z</time>
      </trkpt>
      <trkpt lat="44.50016" lon="1.79975">
        <ele>193.7</ele>
        <time>2022-04-10T14:56:00Z</time>
      </trkpt>
      <trkpt lat="44.50019" lon="1.7998">
        <ele>194</ele>
        <time>2022-04-10T14:56:01Z</time>
      </trkpt>
      <trkpt lat="44.50022" lon="1.79985">
        <ele>194.2</ele>
        <time>2022-04-10T14:56:02Z</time>
      </trkpt>
      <trkpt lat="44.50026" lon="1.79991">
        <ele>194.6</ele>
        <time>2022-04-10T14:56:03Z</time>
      </trkpt>
      <trkpt lat="44.50029" lon="1.79996">
        <ele>194.9</ele>
        <time>2022-04-10T14:56:04Z</time>
      </trkpt>
      <trkpt lat="44.50033" lon="1.80001">
        <ele>195.3</ele>
        <time>2022-04-10T14:56:05Z</time>
      </trkpt>
      <trkpt lat="44.50037" lon="1.80005">
        <ele>195.7</ele>
        <time>2022-04-10T14:56:06Z</time>
      </trkpt>
      <trkpt lat="44.5004" lon="1.8001">
        <ele>196</ele>
        <time>2022-04-10T14:56:07Z</time>
      </trkpt>
      <trkpt lat="44.50044" lon="1.80015">
        <ele>196.4</ele>
        <time>2022-04-10T14:56:08Z</time>
      </trkpt>
      <trkpt lat="44.50047" lon="1.8002">
        <ele>196.8</ele>
        <time>2022-04-10T14:56:09Z</time>
      </trkpt>
      <trkpt lat="44.50051" lon="1.80025">
        <ele>197.1</ele>
        <time>2022-04-10T14:56:10Z</time>
      </trkpt>
      <trkpt lat="44.50055" lon="1.8003">
        <ele>197.5</ele>
        <time>2022-04-10T14:56:11Z</time>
      </trkpt>
      <trkpt lat="44.50058" lon="1.80034">
        <ele>197.8</ele>
        <time>2022-04-10T14:56:12Z</time>
      </trkpt>
      <trkpt lat="44.50061" lon="1.80041">
        <ele>198.1</ele>
        <time>2022-04-10T14:56:13Z</time>
      </trkpt>
      <trkpt lat="44.50065" lon="1.80047">
        <ele>198.5</ele>
        <time>2022-04-10T14:56:14Z</time>
      </trkpt>
      <trkpt lat="44.50068" lon="1.80054">
        <ele>198.9</ele>
        <time>2022-04-10T14:56:15Z</time>
      </trkpt>
      <trkpt lat="44.50071" lon="1.8006">
        <ele>199.3</ele>
        <time>2022-04-10T14:56:16Z</time>
      </trkpt>
      <trkpt lat="44.50074" lon="1.80066">
        <ele>199.7</ele>
        <time>2022-04-10T14:56:17Z</time>
      </trkpt>
      <trkpt lat="44.50077" lon="1.80073">
        <ele>200.1</ele>
        <time>2022-04-10T14:56:18Z</time>
      </trkpt>
      <trkpt lat="44.50079" lon="1.80079">
        <ele>200.5</ele>
        <time>2022-04-10T14:56:19Z</time>
      </trkpt>
      <trkpt lat="44.50081" lon="1.80086">
        <ele>201</ele>
        <time>2022-04-10T14:56:20Z</time>
      </trkpt>
      <trkpt lat="44.50082" lon="1.80094">
        <ele>201.3</ele>
        <time>2022-04-10T14:56:21Z</time>
      </trkpt>
      <trkpt lat="44.50085" lon="1.80101">
        <ele>201.6</ele>
        <time>2022-04-10T14:56:22Z</time>
      </trkpt>
      <trkpt lat="44.50087" lon="1.80108">
        <ele>201.8</ele>
        <time>2022-04-10T14:56:23Z</time>
      </trkpt>
      <trkpt lat="44.5009" lon="1.80114">
        <ele>202</ele>
        <time>2022-04-10T14:56:24Z</time>
      </trkpt>
      <trkpt lat="44.50092" lon="1.80121">
        <ele>202.2</ele>
        <time>2022-04-10T14:56:25Z</time>
      </trkpt>
      <trkpt lat="44.50095" lon="1.80128">
        <ele>202.4</ele>
        <time>2022-04-10T14:56:26Z</time>
      </trkpt>
      <trkpt lat="44.50097" lon="1.80134">
        <ele>202.7</ele>
        <time>2022-04-10T14:56:27Z</time>
      </trkpt>
      <trkpt lat="44.501" lon="1.80142">
        <ele>202.9</ele>
        <time>2022-04-10T14:56:28Z</time>
      </trkpt>
      <trkpt lat="44.50102" lon="1.80149">
        <ele>203.1</ele>
        <time>2022-04-10T14:56:29Z</time>
      </trkpt>
      <trkpt lat="44.50104" lon="1.80156">
        <ele>203.4</ele>
        <time>2022-04-10T14:56:30Z</time>
      </trkpt>
      <trkpt lat="44.50107" lon="1.80163">
        <ele>203.6</ele>
        <time>2022-04-10T14:56:31Z</time>
      </trkpt>
      <trkpt lat="44.5011" lon="1.8017">
        <ele>203.8</ele>
        <time>2022-04-10T14:56:32Z</time>
      </trkpt>
      <trkpt lat="44.50113" lon="1.80177">
        <ele>204.1</ele>
        <time>2022-04-10T14:56:33Z</time>
      </trkpt>
      <trkpt lat="44.50116" lon="1.80183">
        <ele>204.3</ele>
        <time>2022-04-10T14:56:34Z</time>
      </trkpt>
      <trkpt lat="44.50119" lon="1.80189">
        <ele>204.5</ele>
        <time>2022-04-10T14:56:35Z</time>
      </trkpt>
      <trkpt lat="44.50121" lon="1.80195">
        <ele>204.7</ele>
        <time>2022-04-10T14:56:36Z</time>
      </trkpt>
      <trkpt lat="44.50123" lon="1.80202">
        <ele>204.9</ele>
        <time>2022-04-10T14:56:37Z</time>
      </trkpt>
      <trkpt lat="44.50125" lon="1.80208">
        <ele>205.1</ele>
        <time>2022-04-10T14:56:38Z</time>
      </trkpt>
      <trkpt lat="44.50127" lon="1.80214">
        <ele>205.3</ele>
        <time>2022-04-10T14:56:39Z</time>
      </trkpt>
      <trkpt lat="44.50129" lon="1.80221">
        <ele>205.5</ele>
        <time>2022-04-10T14:56:40Z</time>
      </trkpt>
      <trkpt lat="44.50131" lon="1.80227">
        <ele>205.7</ele>
        <time>2022-04-10T14:56:41Z</time>
      </trkpt>
      <trkpt lat="44.50133" lon="1.80234">
        <ele>205.9</ele>
        <time>2022-04-10T14:56:42Z</time>
      </trkpt>
      <trkpt lat="44.50134" lon="1.80241">
        <ele>206.2</ele>
        <time>2022-04-10T14:56:43Z</time>
      </trkpt>
      <trkpt lat="44.50136" lon="1.80248">
        <ele>206.4</ele>
        <time>2022-04-10T14:56:44Z</time>
      </trkpt>
      <trkpt lat="44.50137" lon="1.80255">
        <ele>206.6</ele>
        <time>2022-04-10T14:56:45Z</time>
      </trkpt>
      <trkpt lat="44.50139" lon="1.80263">
        <ele>206.8</ele>
        <time>2022-04-10T14:56:46Z</time>
      </trkpt>
      <trkpt lat="44.50141" lon="1.8027">
        <ele>207</ele>
        <time>2022-04-10T14:56:47Z</time>
      </trkpt>
      <trkpt lat="44.50143" lon="1.80277">
        <ele>207.3</ele>
        <time>2022-04-10T14:56:48Z</time>
      </trkpt>
      <trkpt lat="44.50144" lon="1.80283">
        <ele>207.4</ele>
        <time>2022-04-10T14:56:49Z</time>
      </trkpt>
      <trkpt lat="44.50147" lon="1.80291">
        <ele>207.7</ele>
        <time>2022-04-10T14:56:50Z</time>
      </trkpt>
      <trkpt lat="44.50149" lon="1.80298">
        <ele>207.9</ele>
        <time>2022-04-10T14:56:51Z</time>
      </trkpt>
      <trkpt lat="44.50152" lon="1.80306">
        <ele>208.2</ele>
        <time>2022-04-10T14:56:52Z</time>
      </trkpt>
      <trkpt lat="44.50157" lon="1.80313">
        <ele>208.5</ele>
        <time>2022-04-10T14:56:53Z</time>
      </trkpt>
      <trkpt lat="44.50162" lon="1.80319">
        <ele>208.7</ele>
        <time>2022-04-10T14:56:54Z</time>
      </trkpt>
      <trkpt lat="44.50167" lon="1.80325">
        <ele>209</ele>
        <time>2022-04-10T14:56:55Z</time>
      </trkpt>
      <trkpt lat="44.50173" lon="1.8033">
        <ele>209.3</ele>
        <time>2022-04-10T14:56:56Z</time>
      </trkpt>
      <trkpt lat="44.50179" lon="1.80335">
        <ele>209.6</ele>
        <time>2022-04-10T14:56:57Z</time>
      </trkpt>
      <trkpt lat="44.50184" lon="1.80339">
        <ele>209.8</ele>
        <time>2022-04-10T14:56:58Z</time>
      </trkpt>
      <trkpt lat="44.50189" lon="1.80343">
        <ele>210.1</ele>
        <time>2022-04-10T14:56:59Z</time>
      </trkpt>
      <trkpt lat="44.50193" lon="1.80348">
        <ele>210.3</ele>
        <time>2022-04-10T14:57:00Z</time>
      </trkpt>
      <trkpt lat="44.50197" lon="1.80352">
        <ele>210.5</ele>
        <time>2022-04-10T14:57:01Z</time>
      </trkpt>
      <trkpt lat="44.50202" lon="1.80356">
        <ele>210.7</ele>
        <time>2022-04-10T14:57:02Z</time>
      </trkpt>
      <trkpt lat="44.50206" lon="1.8036">
        <ele>210.9</ele>
        <time>2022-04-10T14:57:03Z</time>
      </trkpt>
      <trkpt lat="44.50211" lon="1.80363">
        <ele>211.1</ele>
        <time>2022-04-10T14:57:04Z</time>
      </trkpt>
      <trkpt lat="44.50214" lon="1.80367">
        <ele>211.3</ele>
        <time>2022-04-10T14:57:05Z</time>
      </trkpt>
      <trkpt lat="44.50217" lon="1.80369">
        <ele>211.4</ele>
        <time>2022-04-10T14:57:06Z</time>
      </trkpt>
      <trkpt lat="44.50222" lon="1.80373">
        <ele>211.7</ele>
        <time>2022-04-10T14:57:07Z</time>
      </trkpt>
      <trkpt lat="44.50227" lon="1.80377">
        <ele>211.9</ele>
        <time>2022-04-10T14:57:08Z</time>
      </trkpt>
      <trkpt lat="44.50232" lon="1.80382">
        <ele>212.2</ele>
        <time>2022-04-10T14:57:09Z</time>
      </trkpt>
      <trkpt lat="44.50236" lon="1.80388">
        <ele>212.4</ele>
        <time>2022-04-10T14:57:10Z</time>
      </trkpt>
      <trkpt lat="44.5024" lon="1.80394">
        <ele>212.6</ele>
        <time>2022-04-10T14:57:11Z</time>
      </trkpt>
      <trkpt lat="44.50244" lon="1.804">
        <ele>212.9</ele>
        <time>2022-04-10T14:57:12Z</time>
      </trkpt>
      <trkpt lat="44.50248" lon="1.80407">
        <ele>213.1</ele>
        <time>2022-04-10T14:57:13Z</time>
      </trkpt>
      <trkpt lat="44.50252" lon="1.80413">
        <ele>213.4</ele>
        <time>2022-04-10T14:57:14Z</time>
      </trkpt>
      <trkpt lat="44.50254" lon="1.80418">
        <ele>213.6</ele>
        <time>2022-04-10T14:57:15Z</time>
      </trkpt>
      <trkpt lat="44.50257" lon="1.80422">
        <ele>213.7</ele>
        <time>2022-04-10T14:57:16Z</time>
      </trkpt>
      <trkpt lat="44.50259" lon="1.80427">
        <ele>213.9</ele>
        <time>2022-04-10T14:57:17Z</time>
      </trkpt>
      <trkpt lat="44.5026" lon="1.80429">
        <ele>213.9</ele>
        <time>2022-04-10T14:57:18Z</time>
      </trkpt>
      <trkpt lat="44.50262" lon="1.80433">
        <ele>214.1</ele>
        <time>2022-04-10T14:57:19Z</time>
      </trkpt>
      <trkpt lat="44.50263" lon="1.80437">
        <ele>214.2</ele>
        <time>2022-04-10T14:57:20Z</time>
      </trkpt>
      <trkpt lat="44.50264" lon="1.80442">
        <ele>214.4</ele>
        <time>2022-04-10T14:57:21Z</time>
      </trkpt>
      <trkpt lat="44.50265" lon="1.80446">
        <ele>214.5</ele>
        <time>2022-04-10T14:57:22Z</time>
      </trkpt>
      <trkpt lat="44.50265" lon="1.80447">
        <ele>214.5</ele>
        <time>2022-04-10T14:57:23Z</time>
      </trkpt>
      <trkpt lat="44.50266" lon="1.80449">
        <ele>214.6</ele>
        <time>2022-04-10T14:57:24Z</time>
      </trkpt>
      <trkpt lat="44.50266" lon="1.80451">
        <ele>214.7</ele>
        <time>2022-04-10T14:57:25Z</time>
      </trkpt>
      <trkpt lat="44.50266" lon="1.80456">
        <ele>214.8</ele>
        <time>2022-04-10T14:57:26Z</time>
      </trkpt>
      <trkpt lat="44.50266" lon="1.80458">
        <ele>214.9</ele>
        <time>2022-04-10T14:57:27Z</time>
      </trkpt>
      <trkpt lat="44.50266" lon="1.80462">
        <ele>215</ele>
        <time>2022-04-10T14:57:28Z</time>
      </trkpt>
      <trkpt lat="44.5027" lon="1.8047">
        <ele>215.2</ele>
        <time>2022-04-10T14:57:30Z</time>
      </trkpt>
      <trkpt lat="44.50276" lon="1.80481">
        <ele>215.7</ele>
        <time>2022-04-10T14:57:31Z</time>
      </trkpt>
      <trkpt lat="44.5028" lon="1.80484">
        <ele>215.8</ele>
        <time>2022-04-10T14:57:33Z</time>
      </trkpt>
      <trkpt lat="44.50284" lon="1.80489">
        <ele>216.1</ele>
        <time>2022-04-10T14:57:34Z</time>
      </trkpt>
      <trkpt lat="44.50287" lon="1.80495">
        <ele>216.3</ele>
        <time>2022-04-10T14:57:35Z</time>
      </trkpt>
      <trkpt lat="44.5029" lon="1.805">
        <ele>216.5</ele>
        <time>2022-04-10T14:57:36Z</time>
      </trkpt>
      <trkpt lat="44.50294" lon="1.80504">
        <ele>216.7</ele>
        <time>2022-04-10T14:57:37Z</time>
      </trkpt>
      <trkpt lat="44.50295" lon="1.8051">
        <ele>216.8</ele>
        <time>2022-04-10T14:57:38Z</time>
      </trkpt>
      <trkpt lat="44.50296" lon="1.80514">
        <ele>216.8</ele>
        <time>2022-04-10T14:57:39Z</time>
      </trkpt>
      <trkpt lat="44.50296" lon="1.80517">
        <ele>215.7</ele>
        <time>2022-04-10T14:57:40Z</time>
      </trkpt>
      <trkpt lat="44.50296" lon="1.80518">
        <ele>215.6</ele>
        <time>2022-04-10T14:57:41Z</time>
      </trkpt>
      <trkpt lat="44.50296" lon="1.80519">
        <ele>215.5</ele>
        <time>2022-04-10T14:57:42Z</time>
      </trkpt>
      <trkpt lat="44.50297" lon="1.8052">
        <ele>215.3</ele>
        <time>2022-04-10T14:57:43Z</time>
      </trkpt>
      <trkpt lat="44.50296" lon="1.80523">
        <ele>215.1</ele>
        <time>2022-04-10T14:57:44Z</time>
      </trkpt>
      <trkpt lat="44.50294" lon="1.80524">
        <ele>214.9</ele>
        <time>2022-04-10T14:57:45Z</time>
      </trkpt>
      <trkpt lat="44.50284" lon="1.80527">
        <ele>214.5</ele>
        <time>2022-04-10T14:57:47Z</time>
      </trkpt>
      <trkpt lat="44.5028" lon="1.8053">
        <ele>214.5</ele>
        <time>2022-04-10T14:57:48Z</time>
      </trkpt>
      <trkpt lat="44.50274" lon="1.80534">
        <ele>214.5</ele>
        <time>2022-04-10T14:57:49Z</time>
      </trkpt>
      <trkpt lat="44.5027" lon="1.80536">
        <ele>214.4</ele>
        <time>2022-04-10T14:57:50Z</time>
      </trkpt>
      <trkpt lat="44.50265" lon="1.80539">
        <ele>214.4</ele>
        <time>2022-04-10T14:57:52Z</time>
      </trkpt>
      <trkpt lat="44.50256" lon="1.80546">
        <ele>214.5</ele>
        <time>2022-04-10T14:57:53Z</time>
      </trkpt>
      <trkpt lat="44.50251" lon="1.80549">
        <ele>214.5</ele>
        <time>2022-04-10T14:57:54Z</time>
      </trkpt>
      <trkpt lat="44.50246" lon="1.80552">
        <ele>214.5</ele>
        <time>2022-04-10T14:57:55Z</time>
      </trkpt>
      <trkpt lat="44.50241" lon="1.80555">
        <ele>214.6</ele>
        <time>2022-04-10T14:57:56Z</time>
      </trkpt>
      <trkpt lat="44.50236" lon="1.80558">
        <ele>214.6</ele>
        <time>2022-04-10T14:57:57Z</time>
      </trkpt>
      <trkpt lat="44.50231" lon="1.80562">
        <ele>214.7</ele>
        <time>2022-04-10T14:57:58Z</time>
      </trkpt>
      <trkpt lat="44.50226" lon="1.80566">
        <ele>214.8</ele>
        <time>2022-04-10T14:57:59Z</time>
      </trkpt>
      <trkpt lat="44.50221" lon="1.8057">
        <ele>215</ele>
        <time>2022-04-10T14:58:00Z</time>
      </trkpt>
      <trkpt lat="44.50217" lon="1.80574">
        <ele>215.2</ele>
        <time>2022-04-10T14:58:01Z</time>
      </trkpt>
      <trkpt lat="44.50214" lon="1.80578">
        <ele>215.5</ele>
        <time>2022-04-10T14:58:02Z</time>
      </trkpt>
      <trkpt lat="44.5021" lon="1.80582">
        <ele>215.8</ele>
        <time>2022-04-10T14:58:03Z</time>
      </trkpt>
      <trkpt lat="44.50207" lon="1.80586">
        <ele>216</ele>
        <time>2022-04-10T14:58:04Z</time>
      </trkpt>
      <trkpt lat="44.50203" lon="1.80592">
        <ele>216.4</ele>
        <time>2022-04-10T14:58:05Z</time>
      </trkpt>
      <trkpt lat="44.50199" lon="1.80598">
        <ele>216.8</ele>
        <time>2022-04-10T14:58:07Z</time>
      </trkpt>
      <trkpt lat="44.50193" lon="1.80608">
        <ele>217.4</ele>
        <time>2022-04-10T14:58:08Z</time>
      </trkpt>
      <trkpt lat="44.50189" lon="1.80614">
        <ele>217.8</ele>
        <time>2022-04-10T14:58:09Z</time>
      </trkpt>
      <trkpt lat="44.50185" lon="1.80621">
        <ele>218.2</ele>
        <time>2022-04-10T14:58:10Z</time>
      </trkpt>
      <trkpt lat="44.50182" lon="1.80627">
        <ele>218.6</ele>
        <time>2022-04-10T14:58:11Z</time>
      </trkpt>
      <trkpt lat="44.50178" lon="1.80633">
        <ele>219.1</ele>
        <time>2022-04-10T14:58:12Z</time>
      </trkpt>
      <trkpt lat="44.50174" lon="1.80639">
        <ele>219.6</ele>
        <time>2022-04-10T14:58:13Z</time>
      </trkpt>
      <trkpt lat="44.5017" lon="1.80644">
        <ele>220.1</ele>
        <time>2022-04-10T14:58:14Z</time>
      </trkpt>
      <trkpt lat="44.50166" lon="1.8065">
        <ele>220.6</ele>
        <time>2022-04-10T14:58:15Z</time>
      </trkpt>
      <trkpt lat="44.50162" lon="1.80654">
        <ele>221.1</ele>
        <time>2022-04-10T14:58:16Z</time>
      </trkpt>
      <trkpt lat="44.5016" lon="1.80661">
        <ele>221.5</ele>
        <time>2022-04-10T14:58:17Z</time>
      </trkpt>
      <trkpt lat="44.50157" lon="1.80664">
        <ele>221.9</ele>
        <time>2022-04-10T14:58:18Z</time>
      </trkpt>
      <trkpt lat="44.50153" lon="1.80671">
        <ele>222.6</ele>
        <time>2022-04-10T14:58:19Z</time>
      </trkpt>
      <trkpt lat="44.5015" lon="1.80676">
        <ele>223.2</ele>
        <time>2022-04-10T14:58:20Z</time>
      </trkpt>
      <trkpt lat="44.50148" lon="1.80682">
        <ele>223.8</ele>
        <time>2022-04-10T14:58:22Z</time>
      </trkpt>
      <trkpt lat="44.50144" lon="1.8069">
        <ele>224.7</ele>
        <time>2022-04-10T14:58:23Z</time>
      </trkpt>
      <trkpt lat="44.5014" lon="1.80697">
        <ele>225.5</ele>
        <time>2022-04-10T14:58:24Z</time>
      </trkpt>
      <trkpt lat="44.50137" lon="1.80703">
        <ele>226.1</ele>
        <time>2022-04-10T14:58:25Z</time>
      </trkpt>
      <trkpt lat="44.50135" lon="1.80708">
        <ele>226.7</ele>
        <time>2022-04-10T14:58:26Z</time>
      </trkpt>
      <trkpt lat="44.50132" lon="1.80715">
        <ele>227.4</ele>
        <time>2022-04-10T14:58:27Z</time>
      </trkpt>
      <trkpt lat="44.5013" lon="1.80719">
        <ele>227.9</ele>
        <time>2022-04-10T14:58:28Z</time>
      </trkpt>
      <trkpt lat="44.50127" lon="1.80726">
        <ele>228.6</ele>
        <time>2022-04-10T14:58:29Z</time>
      </trkpt>
      <trkpt lat="44.50125" lon="1.80732">
        <ele>229.3</ele>
        <time>2022-04-10T14:58:31Z</time>
      </trkpt>
      <trkpt lat="44.50124" lon="1.80736">
        <ele>229.8</ele>
        <time>2022-04-10T14:58:32Z</time>
      </trkpt>
      <trkpt lat="44.50122" lon="1.80741">
        <ele>230.3</ele>
        <time>2022-04-10T14:58:33Z</time>
      </trkpt>
      <trkpt lat="44.50119" lon="1.8075">
        <ele>231.2</ele>
        <time>2022-04-10T14:58:35Z</time>
      </trkpt>
      <trkpt lat="44.50117" lon="1.80757">
        <ele>232</ele>
        <time>2022-04-10T14:58:36Z</time>
      </trkpt>
      <trkpt lat="44.50115" lon="1.80762">
        <ele>232.5</ele>
        <time>2022-04-10T14:58:37Z</time>
      </trkpt>
      <trkpt lat="44.50112" lon="1.80769">
        <ele>233.3</ele>
        <time>2022-04-10T14:58:38Z</time>
      </trkpt>
      <trkpt lat="44.50111" lon="1.80774">
        <ele>233.8</ele>
        <time>2022-04-10T14:58:39Z</time>
      </trkpt>
      <trkpt lat="44.50109" lon="1.80779">
        <ele>234.3</ele>
        <time>2022-04-10T14:58:40Z</time>
      </trkpt>
      <trkpt lat="44.50108" lon="1.80783">
        <ele>234.7</ele>
        <time>2022-04-10T14:58:41Z</time>
      </trkpt>
      <trkpt lat="44.50106" lon="1.80789">
        <ele>235.4</ele>
        <time>2022-04-10T14:58:42Z</time>
      </trkpt>
      <trkpt lat="44.50104" lon="1.80795">
        <ele>236.1</ele>
        <time>2022-04-10T14:58:43Z</time>
      </trkpt>
      <trkpt lat="44.50102" lon="1.80802">
        <ele>236.7</ele>
        <time>2022-04-10T14:58:44Z</time>
      </trkpt>
      <trkpt lat="44.501" lon="1.80807">
        <ele>237.3</ele>
        <time>2022-04-10T14:58:45Z</time>
      </trkpt>
      <trkpt lat="44.50098" lon="1.80812">
        <ele>237.8</ele>
        <time>2022-04-10T14:58:46Z</time>
      </trkpt>
      <trkpt lat="44.50095" lon="1.80819">
        <ele>238.4</ele>
        <time>2022-04-10T14:58:48Z</time>
      </trkpt>
      <trkpt lat="44.50092" lon="1.80825">
        <ele>239.1</ele>
        <time>2022-04-10T14:58:49Z</time>
      </trkpt>
      <trkpt lat="44.50089" lon="1.80831">
        <ele>239.8</ele>
        <time>2022-04-10T14:58:50Z</time>
      </trkpt>
      <trkpt lat="44.50087" lon="1.80836">
        <ele>240.3</ele>
        <time>2022-04-10T14:58:51Z</time>
      </trkpt>
      <trkpt lat="44.50084" lon="1.8084">
        <ele>240.8</ele>
        <time>2022-04-10T14:58:52Z</time>
      </trkpt>
      <trkpt lat="44.50082" lon="1.80845">
        <ele>241.3</ele>
        <time>2022-04-10T14:58:53Z</time>
      </trkpt>
      <trkpt lat="44.50083" lon="1.80848">
        <ele>241.6</ele>
        <time>2022-04-10T14:58:55Z</time>
      </trkpt>
      <trkpt lat="44.50082" lon="1.80853">
        <ele>242</ele>
        <time>2022-04-10T14:58:56Z</time>
      </trkpt>
      <trkpt lat="44.5008" lon="1.80857">
        <ele>242.5</ele>
        <time>2022-04-10T14:58:57Z</time>
      </trkpt>
      <trkpt lat="44.50069" lon="1.80878">
        <ele>244.6</ele>
        <time>2022-04-10T14:58:59Z</time>
      </trkpt>
      <trkpt lat="44.50065" lon="1.80888">
        <ele>245.5</ele>
        <time>2022-04-10T14:59:01Z</time>
      </trkpt>
      <trkpt lat="44.50063" lon="1.80895">
        <ele>246.1</ele>
        <time>2022-04-10T14:59:02Z</time>
      </trkpt>
      <trkpt lat="44.50061" lon="1.80902">
        <ele>246.8</ele>
        <time>2022-04-10T14:59:03Z</time>
      </trkpt>
      <trkpt lat="44.50059" lon="1.80909">
        <ele>247.3</ele>
        <time>2022-04-10T14:59:04Z</time>
      </trkpt>
      <trkpt lat="44.50058" lon="1.80916">
        <ele>247.9</ele>
        <time>2022-04-10T14:59:06Z</time>
      </trkpt>
      <trkpt lat="44.50057" lon="1.80923">
        <ele>248.5</ele>
        <time>2022-04-10T14:59:07Z</time>
      </trkpt>
      <trkpt lat="44.50056" lon="1.80929">
        <ele>249.1</ele>
        <time>2022-04-10T14:59:08Z</time>
      </trkpt>
      <trkpt lat="44.50054" lon="1.80933">
        <ele>249.5</ele>
        <time>2022-04-10T14:59:09Z</time>
      </trkpt>
      <trkpt lat="44.50054" lon="1.80939">
        <ele>250</ele>
        <time>2022-04-10T14:59:10Z</time>
      </trkpt>
      <trkpt lat="44.50053" lon="1.80945">
        <ele>250.6</ele>
        <time>2022-04-10T14:59:11Z</time>
      </trkpt>
      <trkpt lat="44.50051" lon="1.80952">
        <ele>251.3</ele>
        <time>2022-04-10T14:59:13Z</time>
      </trkpt>
      <trkpt lat="44.5005" lon="1.8096">
        <ele>252.1</ele>
        <time>2022-04-10T14:59:14Z</time>
      </trkpt>
      <trkpt lat="44.50049" lon="1.80967">
        <ele>252.8</ele>
        <time>2022-04-10T14:59:15Z</time>
      </trkpt>
      <trkpt lat="44.50047" lon="1.80972">
        <ele>253.4</ele>
        <time>2022-04-10T14:59:16Z</time>
      </trkpt>
      <trkpt lat="44.50047" lon="1.80977">
        <ele>253.8</ele>
        <time>2022-04-10T14:59:17Z</time>
      </trkpt>
      <trkpt lat="44.50046" lon="1.8098">
        <ele>254.2</ele>
        <time>2022-04-10T14:59:18Z</time>
      </trkpt>
      <trkpt lat="44.50044" lon="1.80988">
        <ele>255.1</ele>
        <time>2022-04-10T14:59:20Z</time>
      </trkpt>
      <trkpt lat="44.50042" lon="1.80994">
        <ele>255.8</ele>
        <time>2022-04-10T14:59:21Z</time>
      </trkpt>
      <trkpt lat="44.50041" lon="1.81001">
        <ele>256.6</ele>
        <time>2022-04-10T14:59:22Z</time>
      </trkpt>
      <trkpt lat="44.5004" lon="1.81006">
        <ele>257.2</ele>
        <time>2022-04-10T14:59:23Z</time>
      </trkpt>
      <trkpt lat="44.50038" lon="1.81012">
        <ele>257.9</ele>
        <time>2022-04-10T14:59:25Z</time>
      </trkpt>
      <trkpt lat="44.50037" lon="1.81018">
        <ele>258.7</ele>
        <time>2022-04-10T14:59:26Z</time>
      </trkpt>
      <trkpt lat="44.50036" lon="1.81026">
        <ele>259.5</ele>
        <time>2022-04-10T14:59:27Z</time>
      </trkpt>
      <trkpt lat="44.50035" lon="1.81031">
        <ele>260.2</ele>
        <time>2022-04-10T14:59:28Z</time>
      </trkpt>
      <trkpt lat="44.50033" lon="1.81037">
        <ele>260.8</ele>
        <time>2022-04-10T14:59:29Z</time>
      </trkpt>
      <trkpt lat="44.50033" lon="1.81042">
        <ele>261.4</ele>
        <time>2022-04-10T14:59:30Z</time>
      </trkpt>
      <trkpt lat="44.50032" lon="1.81048">
        <ele>262.1</ele>
        <time>2022-04-10T14:59:32Z</time>
      </trkpt>
      <trkpt lat="44.50032" lon="1.81055">
        <ele>262.9</ele>
        <time>2022-04-10T14:59:33Z</time>
      </trkpt>
      <trkpt lat="44.50032" lon="1.81061">
        <ele>263.5</ele>
        <time>2022-04-10T14:59:34Z</time>
      </trkpt>
      <trkpt lat="44.50032" lon="1.81066">
        <ele>264</ele>
        <time>2022-04-10T14:59:35Z</time>
      </trkpt>
      <trkpt lat="44.50031" lon="1.81071">
        <ele>264.6</ele>
        <time>2022-04-10T14:59:36Z</time>
      </trkpt>
      <trkpt lat="44.50032" lon="1.81075">
        <ele>265.1</ele>
        <time>2022-04-10T14:59:38Z</time>
      </trkpt>
      <trkpt lat="44.50033" lon="1.8108">
        <ele>265.6</ele>
        <time>2022-04-10T14:59:39Z</time>
      </trkpt>
      <trkpt lat="44.50035" lon="1.81086">
        <ele>266.4</ele>
        <time>2022-04-10T14:59:40Z</time>
      </trkpt>
      <trkpt lat="44.50037" lon="1.81093">
        <ele>267.4</ele>
        <time>2022-04-10T14:59:42Z</time>
      </trkpt>
      <trkpt lat="44.50038" lon="1.81098">
        <ele>268</ele>
        <time>2022-04-10T14:59:43Z</time>
      </trkpt>
      <trkpt lat="44.50038" lon="1.81102">
        <ele>268.5</ele>
        <time>2022-04-10T14:59:44Z</time>
      </trkpt>
      <trkpt lat="44.50039" lon="1.81109">
        <ele>269.4</ele>
        <time>2022-04-10T14:59:46Z</time>
      </trkpt>
      <trkpt lat="44.50041" lon="1.81113">
        <ele>270</ele>
        <time>2022-04-10T14:59:47Z</time>
      </trkpt>
      <trkpt lat="44.50043" lon="1.81117">
        <ele>270.7</ele>
        <time>2022-04-10T14:59:48Z</time>
      </trkpt>
      <trkpt lat="44.50044" lon="1.81122">
        <ele>271.3</ele>
        <time>2022-04-10T14:59:49Z</time>
      </trkpt>
      <trkpt lat="44.50046" lon="1.81126">
        <ele>272.1</ele>
        <time>2022-04-10T14:59:50Z</time>
      </trkpt>
      <trkpt lat="44.50047" lon="1.81128">
        <ele>272.5</ele>
        <time>2022-04-10T14:59:51Z</time>
      </trkpt>
      <trkpt lat="44.5005" lon="1.81134">
        <ele>273.5</ele>
        <time>2022-04-10T14:59:53Z</time>
      </trkpt>
      <trkpt lat="44.50054" lon="1.81139">
        <ele>274.7</ele>
        <time>2022-04-10T14:59:54Z</time>
      </trkpt>
      <trkpt lat="44.50056" lon="1.81142">
        <ele>275.4</ele>
        <time>2022-04-10T14:59:55Z</time>
      </trkpt>
      <trkpt lat="44.50058" lon="1.81146">
        <ele>276.2</ele>
        <time>2022-04-10T14:59:56Z</time>
      </trkpt>
      <trkpt lat="44.50062" lon="1.81151">
        <ele>277.2</ele>
        <time>2022-04-10T14:59:57Z</time>
      </trkpt>
      <trkpt lat="44.50065" lon="1.81154">
        <ele>278.2</ele>
        <time>2022-04-10T14:59:59Z</time>
      </trkpt>
      <trkpt lat="44.5007" lon="1.81159">
        <ele>279.4</ele>
        <time>2022-04-10T15:00:00Z</time>
      </trkpt>
      <trkpt lat="44.50073" lon="1.81163">
        <ele>280.2</ele>
        <time>2022-04-10T15:00:01Z</time>
      </trkpt>
      <trkpt lat="44.50076" lon="1.81169">
        <ele>281.4</ele>
        <time>2022-04-10T15:00:03Z</time>
      </trkpt>
      <trkpt lat="44.50077" lon="1.81172">
        <ele>281.9</ele>
        <time>2022-04-10T15:00:04Z</time>
      </trkpt>
      <trkpt lat="44.50078" lon="1.81175">
        <ele>282.4</ele>
        <time>2022-04-10T15:00:05Z</time>
      </trkpt>
      <trkpt lat="44.50078" lon="1.8118">
        <ele>283.1</ele>
        <time>2022-04-10T15:00:06Z</time>
      </trkpt>
      <trkpt lat="44.50078" lon="1.81181">
        <ele>283.4</ele>
        <time>2022-04-10T15:00:07Z</time>
      </trkpt>
      <trkpt lat="44.50079" lon="1.81186">
        <ele>284.1</ele>
        <time>2022-04-10T15:00:08Z</time>
      </trkpt>
      <trkpt lat="44.50079" lon="1.81188">
        <ele>284.5</ele>
        <time>2022-04-10T15:00:09Z</time>
      </trkpt>
      <trkpt lat="44.50079" lon="1.81192">
        <ele>285.1</ele>
        <time>2022-04-10T15:00:11Z</time>
      </trkpt>
      <trkpt lat="44.50081" lon="1.81197">
        <ele>285.9</ele>
        <time>2022-04-10T15:00:12Z</time>
      </trkpt>
      <trkpt lat="44.50081" lon="1.812">
        <ele>286.5</ele>
        <time>2022-04-10T15:00:13Z</time>
      </trkpt>
      <trkpt lat="44.50081" lon="1.81202">
        <ele>286.8</ele>
        <time>2022-04-10T15:00:14Z</time>
      </trkpt>
      <trkpt lat="44.5008" lon="1.81205">
        <ele>287.3</ele>
        <time>2022-04-10T15:00:15Z</time>
      </trkpt>
      <trkpt lat="44.5008" lon="1.8121">
        <ele>288.3</ele>
        <time>2022-04-10T15:00:17Z</time>
      </trkpt>
      <trkpt lat="44.5008" lon="1.81215">
        <ele>289.1</ele>
        <time>2022-04-10T15:00:18Z</time>
      </trkpt>
      <trkpt lat="44.5008" lon="1.8122">
        <ele>289.8</ele>
        <time>2022-04-10T15:00:19Z</time>
      </trkpt>
      <trkpt lat="44.5008" lon="1.81224">
        <ele>290.6</ele>
        <time>2022-04-10T15:00:20Z</time>
      </trkpt>
      <trkpt lat="44.50079" lon="1.8123">
        <ele>291.4</ele>
        <time>2022-04-10T15:00:21Z</time>
      </trkpt>
      <trkpt lat="44.50079" lon="1.81232">
        <ele>291.7</ele>
        <time>2022-04-10T15:00:22Z</time>
      </trkpt>
      <trkpt lat="44.50078" lon="1.81237">
        <ele>292.6</ele>
        <time>2022-04-10T15:00:24Z</time>
      </trkpt>
      <trkpt lat="44.50078" lon="1.81243">
        <ele>293.3</ele>
        <time>2022-04-10T15:00:25Z</time>
      </trkpt>
      <trkpt lat="44.50077" lon="1.81245">
        <ele>293.7</ele>
        <time>2022-04-10T15:00:26Z</time>
      </trkpt>
      <trkpt lat="44.50076" lon="1.81249">
        <ele>294.3</ele>
        <time>2022-04-10T15:00:27Z</time>
      </trkpt>
      <trkpt lat="44.50076" lon="1.8125">
        <ele>294.5</ele>
        <time>2022-04-10T15:00:28Z</time>
      </trkpt>
      <trkpt lat="44.50075" lon="1.81255">
        <ele>295.1</ele>
        <time>2022-04-10T15:00:29Z</time>
      </trkpt>
      <trkpt lat="44.50076" lon="1.81258">
        <ele>295.7</ele>
        <time>2022-04-10T15:00:30Z</time>
      </trkpt>
      <trkpt lat="44.50076" lon="1.81266">
        <ele>296.8</ele>
        <time>2022-04-10T15:00:32Z</time>
      </trkpt>
      <trkpt lat="44.50076" lon="1.8127">
        <ele>297.4</ele>
        <time>2022-04-10T15:00:33Z</time>
      </trkpt>
      <trkpt lat="44.50076" lon="1.81273">
        <ele>297.9</ele>
        <time>2022-04-10T15:00:34Z</time>
      </trkpt>
      <trkpt lat="44.50076" lon="1.81278">
        <ele>298.6</ele>
        <time>2022-04-10T15:00:36Z</time>
      </trkpt>
      <trkpt lat="44.50076" lon="1.81283">
        <ele>299.3</ele>
        <time>2022-04-10T15:00:37Z</time>
      </trkpt>
      <trkpt lat="44.50077" lon="1.81288">
        <ele>300.1</ele>
        <time>2022-04-10T15:00:38Z</time>
      </trkpt>
      <trkpt lat="44.50078" lon="1.81293">
        <ele>300.9</ele>
        <time>2022-04-10T15:00:39Z</time>
      </trkpt>
      <trkpt lat="44.50078" lon="1.81295">
        <ele>301.1</ele>
        <time>2022-04-10T15:00:40Z</time>
      </trkpt>
      <trkpt lat="44.50079" lon="1.813">
        <ele>301.9</ele>
        <time>2022-04-10T15:00:42Z</time>
      </trkpt>
      <trkpt lat="44.50078" lon="1.81305">
        <ele>302.6</ele>
        <time>2022-04-10T15:00:43Z</time>
      </trkpt>
      <trkpt lat="44.50078" lon="1.8131">
        <ele>303.3</ele>
        <time>2022-04-10T15:00:44Z</time>
      </trkpt>
      <trkpt lat="44.50078" lon="1.81314">
        <ele>303.8</ele>
        <time>2022-04-10T15:00:45Z</time>
      </trkpt>
      <trkpt lat="44.50078" lon="1.81318">
        <ele>304.4</ele>
        <time>2022-04-10T15:00:46Z</time>
      </trkpt>
      <trkpt lat="44.50078" lon="1.81322">
        <ele>304.9</ele>
        <time>2022-04-10T15:00:47Z</time>
      </trkpt>
      <trkpt lat="44.50078" lon="1.81323">
        <ele>305.1</ele>
        <time>2022-04-10T15:00:48Z</time>
      </trkpt>
      <trkpt lat="44.50077" lon="1.81327">
        <ele>305.6</ele>
        <time>2022-04-10T15:00:49Z</time>
      </trkpt>
      <trkpt lat="44.50077" lon="1.81332">
        <ele>306.1</ele>
        <time>2022-04-10T15:00:50Z</time>
      </trkpt>
      <trkpt lat="44.50077" lon="1.81336">
        <ele>306.6</ele>
        <time>2022-04-10T15:00:51Z</time>
      </trkpt>
      <trkpt lat="44.50076" lon="1.8134">
        <ele>307.1</ele>
        <time>2022-04-10T15:00:52Z</time>
      </trkpt>
      <trkpt lat="44.50076" lon="1.81342">
        <ele>307.2</ele>
        <time>2022-04-10T15:00:53Z</time>
      </trkpt>
      <trkpt lat="44.50076" lon="1.81343">
        <ele>307.3</ele>
        <time>2022-04-10T15:00:54Z</time>
      </trkpt>
      <trkpt lat="44.50076" lon="1.81343">
        <ele>307.4</ele>
        <time>2022-04-10T15:00:56Z</time>
      </trkpt>
      <trkpt lat="44.50076" lon="1.81343">
        <ele>307.4</ele>
        <time>2022-04-10T15:00:57Z</time>
      </trkpt>
      <trkpt lat="44.50076" lon="1.81343">
        <ele>307.4</ele>
        <time>2022-04-10T15:00:58Z</time>
      </trkpt>
      <trkpt lat="44.50076" lon="1.81343">
        <ele>307.4</ele>
        <time>2022-04-10T15:00:59Z</time>
      </trkpt>
      <trkpt lat="44.50076" lon="1.81342">
        <ele>307.5</ele>
        <time>2022-04-10T15:01:01Z</time>
      </trkpt>
      <trkpt lat="44.50076" lon="1.81342">
        <ele>307.5</ele>
        <time>2022-04-10T15:01:02Z</time>
      </trkpt>
      <trkpt lat="44.50076" lon="1.81342">
        <ele>307.5</ele>
        <time>2022-04-10T15:01:03Z</time>
      </trkpt>
      <trkpt lat="44.50076" lon="1.81342">
        <ele>307.5</ele>
        <time>2022-04-10T15:01:04Z</time>
      </trkpt>
      <trkpt lat="44.50077" lon="1.81346">
        <ele>308</ele>
        <time>2022-04-10T15:01:06Z</time>
      </trkpt>
      <trkpt lat="44.50077" lon="1.81352">
        <ele>308.6</ele>
        <time>2022-04-10T15:01:08Z</time>
      </trkpt>
      <trkpt lat="44.50076" lon="1.81356">
        <ele>309.2</ele>
        <time>2022-04-10T15:01:09Z</time>
      </trkpt>
      <trkpt lat="44.50076" lon="1.8136">
        <ele>309.7</ele>
        <time>2022-04-10T15:01:10Z</time>
      </trkpt>
      <trkpt lat="44.50076" lon="1.81361">
        <ele>309.9</ele>
        <time>2022-04-10T15:01:11Z</time>
      </trkpt>
      <trkpt lat="44.50076" lon="1.81362">
        <ele>310</ele>
        <time>2022-04-10T15:01:12Z</time>
      </trkpt>
      <trkpt lat="44.50076" lon="1.81362">
        <ele>310</ele>
        <time>2022-04-10T15:01:13Z</time>
      </trkpt>
      <trkpt lat="44.50075" lon="1.81362">
        <ele>310</ele>
        <time>2022-04-10T15:01:14Z</time>
      </trkpt>
      <trkpt lat="44.50075" lon="1.81362">
        <ele>310</ele>
        <time>2022-04-10T15:01:15Z</time>
      </trkpt>
      <trkpt lat="44.50075" lon="1.81362">
        <ele>310</ele>
        <time>2022-04-10T15:01:16Z</time>
      </trkpt>
      <trkpt lat="44.50076" lon="1.81363">
        <ele>310.1</ele>
        <time>2022-04-10T15:01:17Z</time>
      </trkpt>
      <trkpt lat="44.50075" lon="1.81363">
        <ele>310.1</ele>
        <time>2022-04-10T15:01:18Z</time>
      </trkpt>
      <trkpt lat="44.50075" lon="1.81363">
        <ele>310.1</ele>
        <time>2022-04-10T15:01:19Z</time>
      </trkpt>
      <trkpt lat="44.50075" lon="1.81363">
        <ele>310.1</ele>
        <time>2022-04-10T15:01:20Z</time>
      </trkpt>
      <trkpt lat="44.50075" lon="1.81362">
        <ele>310.1</ele>
        <time>2022-04-10T15:01:21Z</time>
      </trkpt>
      <trkpt lat="44.50071" lon="1.81352">
        <ele>311.6</ele>
        <time>2022-04-10T15:01:34Z</time>
      </trkpt>
      <trkpt lat="44.50069" lon="1.81348">
        <ele>313.6</ele>
        <time>2022-04-10T15:01:35Z</time>
      </trkpt>
      <trkpt lat="44.50067" lon="1.81345">
        <ele>314.1</ele>
        <time>2022-04-10T15:01:36Z</time>
      </trkpt>
      <trkpt lat="44.50064" lon="1.81341">
        <ele>314.7</ele>
        <time>2022-04-10T15:01:37Z</time>
      </trkpt>
      <trkpt lat="44.50062" lon="1.81338">
        <ele>315.1</ele>
        <time>2022-04-10T15:01:38Z</time>
      </trkpt>
      <trkpt lat="44.50059" lon="1.81335">
        <ele>315.6</ele>
        <time>2022-04-10T15:01:39Z</time>
      </trkpt>
      <trkpt lat="44.50057" lon="1.81333">
        <ele>316.1</ele>
        <time>2022-04-10T15:01:40Z</time>
      </trkpt>
      <trkpt lat="44.50054" lon="1.81331">
        <ele>316.7</ele>
        <time>2022-04-10T15:01:41Z</time>
      </trkpt>
      <trkpt lat="44.5005" lon="1.81329">
        <ele>317.3</ele>
        <time>2022-04-10T15:01:42Z</time>
      </trkpt>
      <trkpt lat="44.50046" lon="1.81327">
        <ele>318</ele>
        <time>2022-04-10T15:01:43Z</time>
      </trkpt>
      <trkpt lat="44.50044" lon="1.81325">
        <ele>318.6</ele>
        <time>2022-04-10T15:01:44Z</time>
      </trkpt>
      <trkpt lat="44.5004" lon="1.81322">
        <ele>319.6</ele>
        <time>2022-04-10T15:01:46Z</time>
      </trkpt>
      <trkpt lat="44.50037" lon="1.8132">
        <ele>320.2</ele>
        <time>2022-04-10T15:01:47Z</time>
      </trkpt>
      <trkpt lat="44.50034" lon="1.81319">
        <ele>320.8</ele>
        <time>2022-04-10T15:01:48Z</time>
      </trkpt>
      <trkpt lat="44.50029" lon="1.81316">
        <ele>321.7</ele>
        <time>2022-04-10T15:01:50Z</time>
      </trkpt>
      <trkpt lat="44.50026" lon="1.81314">
        <ele>322.3</ele>
        <time>2022-04-10T15:01:51Z</time>
      </trkpt>
      <trkpt lat="44.50023" lon="1.81313">
        <ele>322.8</ele>
        <time>2022-04-10T15:01:52Z</time>
      </trkpt>
      <trkpt lat="44.5002" lon="1.81311">
        <ele>323.4</ele>
        <time>2022-04-10T15:01:53Z</time>
      </trkpt>
      <trkpt lat="44.50017" lon="1.8131">
        <ele>323.9</ele>
        <time>2022-04-10T15:01:54Z</time>
      </trkpt>
      <trkpt lat="44.50014" lon="1.81309">
        <ele>324.4</ele>
        <time>2022-04-10T15:01:55Z</time>
      </trkpt>
      <trkpt lat="44.50011" lon="1.81309">
        <ele>324.8</ele>
        <time>2022-04-10T15:01:56Z</time>
      </trkpt>
      <trkpt lat="44.50007" lon="1.81308">
        <ele>325.4</ele>
        <time>2022-04-10T15:01:57Z</time>
      </trkpt>
      <trkpt lat="44.50006" lon="1.81308">
        <ele>325.6</ele>
        <time>2022-04-10T15:01:58Z</time>
      </trkpt>
      <trkpt lat="44.50001" lon="1.81309">
        <ele>326.2</ele>
        <time>2022-04-10T15:02:00Z</time>
      </trkpt>
      <trkpt lat="44.49995" lon="1.81309">
        <ele>326.9</ele>
        <time>2022-04-10T15:02:01Z</time>
      </trkpt>
      <trkpt lat="44.49993" lon="1.81309">
        <ele>327.3</ele>
        <time>2022-04-10T15:02:02Z</time>
      </trkpt>
      <trkpt lat="44.49989" lon="1.8131">
        <ele>327.6</ele>
        <time>2022-04-10T15:02:03Z</time>
      </trkpt>
      <trkpt lat="44.49985" lon="1.8131">
        <ele>328.1</ele>
        <time>2022-04-10T15:02:05Z</time>
      </trkpt>
      <trkpt lat="44.4998" lon="1.81313">
        <ele>328.6</ele>
        <time>2022-04-10T15:02:06Z</time>
      </trkpt>
      <trkpt lat="44.49977" lon="1.81316">
        <ele>329</ele>
        <time>2022-04-10T15:02:07Z</time>
      </trkpt>
      <trkpt lat="44.49975" lon="1.8132">
        <ele>329.4</ele>
        <time>2022-04-10T15:02:08Z</time>
      </trkpt>
      <trkpt lat="44.49973" lon="1.81324">
        <ele>329.7</ele>
        <time>2022-04-10T15:02:09Z</time>
      </trkpt>
      <trkpt lat="44.49971" lon="1.81327">
        <ele>330.1</ele>
        <time>2022-04-10T15:02:10Z</time>
      </trkpt>
      <trkpt lat="44.49969" lon="1.81336">
        <ele>331</ele>
        <time>2022-04-10T15:02:12Z</time>
      </trkpt>
      <trkpt lat="44.49966" lon="1.8134">
        <ele>331.5</ele>
        <time>2022-04-10T15:02:14Z</time>
      </trkpt>
      <trkpt lat="44.49963" lon="1.81345">
        <ele>332.1</ele>
        <time>2022-04-10T15:02:15Z</time>
      </trkpt>
      <trkpt lat="44.49961" lon="1.81349">
        <ele>332.6</ele>
        <time>2022-04-10T15:02:16Z</time>
      </trkpt>
      <trkpt lat="44.49959" lon="1.81353">
        <ele>333.1</ele>
        <time>2022-04-10T15:02:17Z</time>
      </trkpt>
      <trkpt lat="44.49957" lon="1.81357">
        <ele>333.5</ele>
        <time>2022-04-10T15:02:18Z</time>
      </trkpt>
      <trkpt lat="44.49956" lon="1.81359">
        <ele>333.7</ele>
        <time>2022-04-10T15:02:19Z</time>
      </trkpt>
      <trkpt lat="44.49954" lon="1.81363">
        <ele>334.1</ele>
        <time>2022-04-10T15:02:20Z</time>
      </trkpt>
      <trkpt lat="44.49952" lon="1.81368">
        <ele>334.6</ele>
        <time>2022-04-10T15:02:22Z</time>
      </trkpt>
      <trkpt lat="44.49949" lon="1.81372">
        <ele>335</ele>
        <time>2022-04-10T15:02:23Z</time>
      </trkpt>
      <trkpt lat="44.49945" lon="1.81378">
        <ele>335.6</ele>
        <time>2022-04-10T15:02:25Z</time>
      </trkpt>
      <trkpt lat="44.49943" lon="1.81384">
        <ele>336.1</ele>
        <time>2022-04-10T15:02:26Z</time>
      </trkpt>
      <trkpt lat="44.49939" lon="1.81387">
        <ele>336.5</ele>
        <time>2022-04-10T15:02:27Z</time>
      </trkpt>
      <trkpt lat="44.49936" lon="1.81389">
        <ele>336.8</ele>
        <time>2022-04-10T15:02:28Z</time>
      </trkpt>
      <trkpt lat="44.49932" lon="1.81392">
        <ele>337.2</ele>
        <time>2022-04-10T15:02:29Z</time>
      </trkpt>
      <trkpt lat="44.49928" lon="1.81396">
        <ele>337.6</ele>
        <time>2022-04-10T15:02:31Z</time>
      </trkpt>
      <trkpt lat="44.49924" lon="1.81399">
        <ele>338.1</ele>
        <time>2022-04-10T15:02:32Z</time>
      </trkpt>
      <trkpt lat="44.4992" lon="1.81401">
        <ele>338.4</ele>
        <time>2022-04-10T15:02:33Z</time>
      </trkpt>
      <trkpt lat="44.49917" lon="1.81404">
        <ele>338.7</ele>
        <time>2022-04-10T15:02:34Z</time>
      </trkpt>
      <trkpt lat="44.49915" lon="1.81407">
        <ele>339</ele>
        <time>2022-04-10T15:02:35Z</time>
      </trkpt>
      <trkpt lat="44.49912" lon="1.81412">
        <ele>339.4</ele>
        <time>2022-04-10T15:02:37Z</time>
      </trkpt>
      <trkpt lat="44.4991" lon="1.81416">
        <ele>339.7</ele>
        <time>2022-04-10T15:02:38Z</time>
      </trkpt>
      <trkpt lat="44.49908" lon="1.81421">
        <ele>340.1</ele>
        <time>2022-04-10T15:02:39Z</time>
      </trkpt>
      <trkpt lat="44.49907" lon="1.81426">
        <ele>340.4</ele>
        <time>2022-04-10T15:02:40Z</time>
      </trkpt>
      <trkpt lat="44.49905" lon="1.81429">
        <ele>340.7</ele>
        <time>2022-04-10T15:02:41Z</time>
      </trkpt>
      <trkpt lat="44.49901" lon="1.81436">
        <ele>341.2</ele>
        <time>2022-04-10T15:02:43Z</time>
      </trkpt>
      <trkpt lat="44.49899" lon="1.8144">
        <ele>341.5</ele>
        <time>2022-04-10T15:02:44Z</time>
      </trkpt>
      <trkpt lat="44.49897" lon="1.81444">
        <ele>341.9</ele>
        <time>2022-04-10T15:02:45Z</time>
      </trkpt>
      <trkpt lat="44.49895" lon="1.81448">
        <ele>342.2</ele>
        <time>2022-04-10T15:02:46Z</time>
      </trkpt>
      <trkpt lat="44.49893" lon="1.81452">
        <ele>342.5</ele>
        <time>2022-04-10T15:02:47Z</time>
      </trkpt>
      <trkpt lat="44.49889" lon="1.81455">
        <ele>342.8</ele>
        <time>2022-04-10T15:02:48Z</time>
      </trkpt>
      <trkpt lat="44.49888" lon="1.81459">
        <ele>343</ele>
        <time>2022-04-10T15:02:49Z</time>
      </trkpt>
      <trkpt lat="44.49886" lon="1.81462">
        <ele>343.3</ele>
        <time>2022-04-10T15:02:51Z</time>
      </trkpt>
      <trkpt lat="44.49883" lon="1.81465">
        <ele>343.6</ele>
        <time>2022-04-10T15:02:52Z</time>
      </trkpt>
      <trkpt lat="44.4988" lon="1.8147">
        <ele>343.9</ele>
        <time>2022-04-10T15:02:53Z</time>
      </trkpt>
      <trkpt lat="44.49878" lon="1.81473">
        <ele>344.2</ele>
        <time>2022-04-10T15:02:54Z</time>
      </trkpt>
      <trkpt lat="44.49876" lon="1.81475">
        <ele>344.4</ele>
        <time>2022-04-10T15:02:55Z</time>
      </trkpt>
      <trkpt lat="44.49871" lon="1.81481">
        <ele>345</ele>
        <time>2022-04-10T15:02:57Z</time>
      </trkpt>
      <trkpt lat="44.49867" lon="1.81487">
        <ele>345.6</ele>
        <time>2022-04-10T15:02:58Z</time>
      </trkpt>
      <trkpt lat="44.49863" lon="1.81493">
        <ele>346.1</ele>
        <time>2022-04-10T15:02:59Z</time>
      </trkpt>
      <trkpt lat="44.4986" lon="1.81498">
        <ele>346.5</ele>
        <time>2022-04-10T15:03:00Z</time>
      </trkpt>
      <trkpt lat="44.49856" lon="1.81502">
        <ele>347</ele>
        <time>2022-04-10T15:03:01Z</time>
      </trkpt>
      <trkpt lat="44.49853" lon="1.81505">
        <ele>347.3</ele>
        <time>2022-04-10T15:03:02Z</time>
      </trkpt>
      <trkpt lat="44.4985" lon="1.81514">
        <ele>347.9</ele>
        <time>2022-04-10T15:03:04Z</time>
      </trkpt>
      <trkpt lat="44.49847" lon="1.81518">
        <ele>348.2</ele>
        <time>2022-04-10T15:03:05Z</time>
      </trkpt>
      <trkpt lat="44.49843" lon="1.81523">
        <ele>348.6</ele>
        <time>2022-04-10T15:03:06Z</time>
      </trkpt>
      <trkpt lat="44.49839" lon="1.81526">
        <ele>348.9</ele>
        <time>2022-04-10T15:03:07Z</time>
      </trkpt>
      <trkpt lat="44.49833" lon="1.81529">
        <ele>349.4</ele>
        <time>2022-04-10T15:03:08Z</time>
      </trkpt>
      <trkpt lat="44.49828" lon="1.81534">
        <ele>349.8</ele>
        <time>2022-04-10T15:03:10Z</time>
      </trkpt>
      <trkpt lat="44.49825" lon="1.81539">
        <ele>350.2</ele>
        <time>2022-04-10T15:03:11Z</time>
      </trkpt>
      <trkpt lat="44.49822" lon="1.81544">
        <ele>350.6</ele>
        <time>2022-04-10T15:03:12Z</time>
      </trkpt>
      <trkpt lat="44.49819" lon="1.81548">
        <ele>350.8</ele>
        <time>2022-04-10T15:03:13Z</time>
      </trkpt>
      <trkpt lat="44.49816" lon="1.81552">
        <ele>351.2</ele>
        <time>2022-04-10T15:03:14Z</time>
      </trkpt>
      <trkpt lat="44.49814" lon="1.81554">
        <ele>351.3</ele>
        <time>2022-04-10T15:03:15Z</time>
      </trkpt>
      <trkpt lat="44.49809" lon="1.81559">
        <ele>351.8</ele>
        <time>2022-04-10T15:03:17Z</time>
      </trkpt>
      <trkpt lat="44.49805" lon="1.81564">
        <ele>352.3</ele>
        <time>2022-04-10T15:03:18Z</time>
      </trkpt>
      <trkpt lat="44.498" lon="1.81569">
        <ele>352.8</ele>
        <time>2022-04-10T15:03:19Z</time>
      </trkpt>
      <trkpt lat="44.49798" lon="1.81572">
        <ele>353</ele>
        <time>2022-04-10T15:03:20Z</time>
      </trkpt>
      <trkpt lat="44.49793" lon="1.81579">
        <ele>353.4</ele>
        <time>2022-04-10T15:03:22Z</time>
      </trkpt>
      <trkpt lat="44.49788" lon="1.81585">
        <ele>353.8</ele>
        <time>2022-04-10T15:03:23Z</time>
      </trkpt>
      <trkpt lat="44.49785" lon="1.81588">
        <ele>354.1</ele>
        <time>2022-04-10T15:03:24Z</time>
      </trkpt>
      <trkpt lat="44.49782" lon="1.81593">
        <ele>354.4</ele>
        <time>2022-04-10T15:03:25Z</time>
      </trkpt>
      <trkpt lat="44.49779" lon="1.81598">
        <ele>354.7</ele>
        <time>2022-04-10T15:03:26Z</time>
      </trkpt>
      <trkpt lat="44.49777" lon="1.81603">
        <ele>355</ele>
        <time>2022-04-10T15:03:28Z</time>
      </trkpt>
      <trkpt lat="44.49774" lon="1.8161">
        <ele>355.5</ele>
        <time>2022-04-10T15:03:29Z</time>
      </trkpt>
      <trkpt lat="44.49772" lon="1.81614">
        <ele>355.7</ele>
        <time>2022-04-10T15:03:30Z</time>
      </trkpt>
      <trkpt lat="44.49769" lon="1.81621">
        <ele>357.9</ele>
        <time>2022-04-10T15:03:31Z</time>
      </trkpt>
      <trkpt lat="44.49768" lon="1.81627">
        <ele>358.4</ele>
        <time>2022-04-10T15:03:32Z</time>
      </trkpt>
      <trkpt lat="44.49769" lon="1.81633">
        <ele>358.8</ele>
        <time>2022-04-10T15:03:33Z</time>
      </trkpt>
      <trkpt lat="44.49771" lon="1.81638">
        <ele>359.2</ele>
        <time>2022-04-10T15:03:34Z</time>
      </trkpt>
      <trkpt lat="44.49773" lon="1.81644">
        <ele>359.7</ele>
        <time>2022-04-10T15:03:35Z</time>
      </trkpt>
      <trkpt lat="44.49774" lon="1.8165">
        <ele>360.1</ele>
        <time>2022-04-10T15:03:36Z</time>
      </trkpt>
      <trkpt lat="44.4978" lon="1.8166">
        <ele>361.2</ele>
        <time>2022-04-10T15:03:38Z</time>
      </trkpt>
      <trkpt lat="44.49782" lon="1.81666">
        <ele>361.6</ele>
        <time>2022-04-10T15:03:39Z</time>
      </trkpt>
      <trkpt lat="44.49784" lon="1.81672">
        <ele>362.2</ele>
        <time>2022-04-10T15:03:40Z</time>
      </trkpt>
      <trkpt lat="44.49786" lon="1.81678">
        <ele>362.7</ele>
        <time>2022-04-10T15:03:41Z</time>
      </trkpt>
      <trkpt lat="44.49788" lon="1.81682">
        <ele>363.1</ele>
        <time>2022-04-10T15:03:42Z</time>
      </trkpt>
      <trkpt lat="44.49791" lon="1.81688">
        <ele>363.8</ele>
        <time>2022-04-10T15:03:43Z</time>
      </trkpt>
      <trkpt lat="44.49794" lon="1.81693">
        <ele>364.3</ele>
        <time>2022-04-10T15:03:44Z</time>
      </trkpt>
      <trkpt lat="44.49796" lon="1.81697">
        <ele>364.8</ele>
        <time>2022-04-10T15:03:45Z</time>
      </trkpt>
      <trkpt lat="44.498" lon="1.81706">
        <ele>365.8</ele>
        <time>2022-04-10T15:03:47Z</time>
      </trkpt>
      <trkpt lat="44.49803" lon="1.81711">
        <ele>366.3</ele>
        <time>2022-04-10T15:03:48Z</time>
      </trkpt>
      <trkpt lat="44.49805" lon="1.81716">
        <ele>366.8</ele>
        <time>2022-04-10T15:03:49Z</time>
      </trkpt>
      <trkpt lat="44.49808" lon="1.8172">
        <ele>367.4</ele>
        <time>2022-04-10T15:03:50Z</time>
      </trkpt>
      <trkpt lat="44.49811" lon="1.81724">
        <ele>367.7</ele>
        <time>2022-04-10T15:03:51Z</time>
      </trkpt>
      <trkpt lat="44.49816" lon="1.81728">
        <ele>367.8</ele>
        <time>2022-04-10T15:03:53Z</time>
      </trkpt>
      <trkpt lat="44.49818" lon="1.8173">
        <ele>367.9</ele>
        <time>2022-04-10T15:03:54Z</time>
      </trkpt>
      <trkpt lat="44.49823" lon="1.81734">
        <ele>367.9</ele>
        <time>2022-04-10T15:03:55Z</time>
      </trkpt>
      <trkpt lat="44.49828" lon="1.81736">
        <ele>367.9</ele>
        <time>2022-04-10T15:03:56Z</time>
      </trkpt>
      <trkpt lat="44.49832" lon="1.81736">
        <ele>367.9</ele>
        <time>2022-04-10T15:03:57Z</time>
      </trkpt>
      <trkpt lat="44.49837" lon="1.81736">
        <ele>367.8</ele>
        <time>2022-04-10T15:03:59Z</time>
      </trkpt>
      <trkpt lat="44.49842" lon="1.81736">
        <ele>367.7</ele>
        <time>2022-04-10T15:04:00Z</time>
      </trkpt>
      <trkpt lat="44.49848" lon="1.81736">
        <ele>367.6</ele>
        <time>2022-04-10T15:04:01Z</time>
      </trkpt>
      <trkpt lat="44.49853" lon="1.81737">
        <ele>367.4</ele>
        <time>2022-04-10T15:04:02Z</time>
      </trkpt>
      <trkpt lat="44.49858" lon="1.81738">
        <ele>367.2</ele>
        <time>2022-04-10T15:04:03Z</time>
      </trkpt>
      <trkpt lat="44.49863" lon="1.81738">
        <ele>367.1</ele>
        <time>2022-04-10T15:04:04Z</time>
      </trkpt>
      <trkpt lat="44.49868" lon="1.81738">
        <ele>366.9</ele>
        <time>2022-04-10T15:04:05Z</time>
      </trkpt>
      <trkpt lat="44.49874" lon="1.81738">
        <ele>366.7</ele>
        <time>2022-04-10T15:04:06Z</time>
      </trkpt>
      <trkpt lat="44.4988" lon="1.81739">
        <ele>366.5</ele>
        <time>2022-04-10T15:04:07Z</time>
      </trkpt>
      <trkpt lat="44.49885" lon="1.8174">
        <ele>366.4</ele>
        <time>2022-04-10T15:04:08Z</time>
      </trkpt>
      <trkpt lat="44.49891" lon="1.81741">
        <ele>366.2</ele>
        <time>2022-04-10T15:04:09Z</time>
      </trkpt>
      <trkpt lat="44.49896" lon="1.81742">
        <ele>366.1</ele>
        <time>2022-04-10T15:04:10Z</time>
      </trkpt>
      <trkpt lat="44.49901" lon="1.81742">
        <ele>366</ele>
        <time>2022-04-10T15:04:11Z</time>
      </trkpt>
      <trkpt lat="44.49907" lon="1.81743">
        <ele>365.9</ele>
        <time>2022-04-10T15:04:12Z</time>
      </trkpt>
      <trkpt lat="44.49913" lon="1.81745">
        <ele>365.7</ele>
        <time>2022-04-10T15:04:13Z</time>
      </trkpt>
      <trkpt lat="44.49918" lon="1.81747">
        <ele>365.6</ele>
        <time>2022-04-10T15:04:14Z</time>
      </trkpt>
      <trkpt lat="44.49924" lon="1.8175">
        <ele>365.4</ele>
        <time>2022-04-10T15:04:15Z</time>
      </trkpt>
      <trkpt lat="44.49929" lon="1.81753">
        <ele>365.3</ele>
        <time>2022-04-10T15:04:16Z</time>
      </trkpt>
      <trkpt lat="44.49935" lon="1.81756">
        <ele>365.2</ele>
        <time>2022-04-10T15:04:17Z</time>
      </trkpt>
      <trkpt lat="44.4994" lon="1.81759">
        <ele>365.2</ele>
        <time>2022-04-10T15:04:18Z</time>
      </trkpt>
      <trkpt lat="44.49945" lon="1.81762">
        <ele>365.2</ele>
        <time>2022-04-10T15:04:19Z</time>
      </trkpt>
      <trkpt lat="44.4995" lon="1.81766">
        <ele>365.2</ele>
        <time>2022-04-10T15:04:20Z</time>
      </trkpt>
      <trkpt lat="44.49955" lon="1.81769">
        <ele>365.2</ele>
        <time>2022-04-10T15:04:21Z</time>
      </trkpt>
      <trkpt lat="44.4996" lon="1.81772">
        <ele>365.2</ele>
        <time>2022-04-10T15:04:22Z</time>
      </trkpt>
      <trkpt lat="44.49964" lon="1.81775">
        <ele>365.2</ele>
        <time>2022-04-10T15:04:23Z</time>
      </trkpt>
      <trkpt lat="44.49969" lon="1.81777">
        <ele>365.2</ele>
        <time>2022-04-10T15:04:24Z</time>
      </trkpt>
      <trkpt lat="44.49974" lon="1.81778">
        <ele>365.3</ele>
        <time>2022-04-10T15:04:25Z</time>
      </trkpt>
      <trkpt lat="44.49979" lon="1.81779">
        <ele>365.3</ele>
        <time>2022-04-10T15:04:26Z</time>
      </trkpt>
      <trkpt lat="44.49982" lon="1.8178">
        <ele>365.3</ele>
        <time>2022-04-10T15:04:27Z</time>
      </trkpt>
      <trkpt lat="44.49989" lon="1.8178">
        <ele>365.3</ele>
        <time>2022-04-10T15:04:28Z</time>
      </trkpt>
      <trkpt lat="44.49995" lon="1.8178">
        <ele>365.4</ele>
        <time>2022-04-10T15:04:29Z</time>
      </trkpt>
      <trkpt lat="44.50001" lon="1.8178">
        <ele>365.4</ele>
        <time>2022-04-10T15:04:30Z</time>
      </trkpt>
      <trkpt lat="44.50008" lon="1.81779">
        <ele>365.5</ele>
        <time>2022-04-10T15:04:31Z</time>
      </trkpt>
      <trkpt lat="44.50013" lon="1.81779">
        <ele>365.5</ele>
        <time>2022-04-10T15:04:32Z</time>
      </trkpt>
      <trkpt lat="44.50019" lon="1.81778">
        <ele>365.6</ele>
        <time>2022-04-10T15:04:33Z</time>
      </trkpt>
      <trkpt lat="44.50024" lon="1.81777">
        <ele>365.6</ele>
        <time>2022-04-10T15:04:34Z</time>
      </trkpt>
      <trkpt lat="44.5003" lon="1.81775">
        <ele>365.7</ele>
        <time>2022-04-10T15:04:35Z</time>
      </trkpt>
      <trkpt lat="44.50036" lon="1.81774">
        <ele>365.7</ele>
        <time>2022-04-10T15:04:36Z</time>
      </trkpt>
      <trkpt lat="44.50041" lon="1.81772">
        <ele>365.7</ele>
        <time>2022-04-10T15:04:37Z</time>
      </trkpt>
      <trkpt lat="44.50046" lon="1.81771">
        <ele>365.8</ele>
        <time>2022-04-10T15:04:38Z</time>
      </trkpt>
      <trkpt lat="44.50052" lon="1.8177">
        <ele>365.8</ele>
        <time>2022-04-10T15:04:39Z</time>
      </trkpt>
      <trkpt lat="44.50057" lon="1.81769">
        <ele>365.8</ele>
        <time>2022-04-10T15:04:40Z</time>
      </trkpt>
      <trkpt lat="44.50062" lon="1.81767">
        <ele>365.8</ele>
        <time>2022-04-10T15:04:41Z</time>
      </trkpt>
      <trkpt lat="44.50068" lon="1.81765">
        <ele>365.9</ele>
        <time>2022-04-10T15:04:42Z</time>
      </trkpt>
      <trkpt lat="44.50073" lon="1.81763">
        <ele>366</ele>
        <time>2022-04-10T15:04:43Z</time>
      </trkpt>
      <trkpt lat="44.50078" lon="1.81761">
        <ele>366.1</ele>
        <time>2022-04-10T15:04:44Z</time>
      </trkpt>
      <trkpt lat="44.50083" lon="1.8176">
        <ele>366.1</ele>
        <time>2022-04-10T15:04:45Z</time>
      </trkpt>
      <trkpt lat="44.50088" lon="1.81759">
        <ele>366.2</ele>
        <time>2022-04-10T15:04:46Z</time>
      </trkpt>
      <trkpt lat="44.50093" lon="1.81757">
        <ele>366.3</ele>
        <time>2022-04-10T15:04:47Z</time>
      </trkpt>
      <trkpt lat="44.50099" lon="1.81756">
        <ele>366.3</ele>
        <time>2022-04-10T15:04:48Z</time>
      </trkpt>
      <trkpt lat="44.50103" lon="1.81755">
        <ele>366.4</ele>
        <time>2022-04-10T15:04:49Z</time>
      </trkpt>
      <trkpt lat="44.50108" lon="1.81755">
        <ele>366.5</ele>
        <time>2022-04-10T15:04:50Z</time>
      </trkpt>
      <trkpt lat="44.50111" lon="1.81755">
        <ele>366.6</ele>
        <time>2022-04-10T15:04:51Z</time>
      </trkpt>
      <trkpt lat="44.50116" lon="1.81755">
        <ele>366.7</ele>
        <time>2022-04-10T15:04:52Z</time>
      </trkpt>
      <trkpt lat="44.50119" lon="1.81755">
        <ele>366.9</ele>
        <time>2022-04-10T15:04:53Z</time>
      </trkpt>
      <trkpt lat="44.50122" lon="1.81757">
        <ele>366.9</ele>
        <time>2022-04-10T15:04:54Z</time>
      </trkpt>
      <trkpt lat="44.50125" lon="1.81759">
        <ele>366.9</ele>
        <time>2022-04-10T15:04:55Z</time>
      </trkpt>
      <trkpt lat="44.50128" lon="1.81761">
        <ele>366.9</ele>
        <time>2022-04-10T15:04:56Z</time>
      </trkpt>
      <trkpt lat="44.50131" lon="1.81764">
        <ele>366.9</ele>
        <time>2022-04-10T15:04:57Z</time>
      </trkpt>
      <trkpt lat="44.50133" lon="1.81767">
        <ele>366.9</ele>
        <time>2022-04-10T15:04:58Z</time>
      </trkpt>
      <trkpt lat="44.50134" lon="1.81769">
        <ele>366.9</ele>
        <time>2022-04-10T15:04:59Z</time>
      </trkpt>
      <trkpt lat="44.50136" lon="1.81773">
        <ele>366.8</ele>
        <time>2022-04-10T15:05:00Z</time>
      </trkpt>
      <trkpt lat="44.50136" lon="1.81775">
        <ele>366.8</ele>
        <time>2022-04-10T15:05:01Z</time>
      </trkpt>
      <trkpt lat="44.50137" lon="1.81777">
        <ele>366.7</ele>
        <time>2022-04-10T15:05:02Z</time>
      </trkpt>
      <trkpt lat="44.50138" lon="1.81779">
        <ele>366.7</ele>
        <time>2022-04-10T15:05:03Z</time>
      </trkpt>
      <trkpt lat="44.50139" lon="1.81781">
        <ele>366.7</ele>
        <time>2022-04-10T15:05:04Z</time>
      </trkpt>
      <trkpt lat="44.50142" lon="1.81778">
        <ele>366.6</ele>
        <time>2022-04-10T15:05:05Z</time>
      </trkpt>
      <trkpt lat="44.50143" lon="1.81776">
        <ele>366.6</ele>
        <time>2022-04-10T15:05:06Z</time>
      </trkpt>
      <trkpt lat="44.50146" lon="1.81773">
        <ele>366.5</ele>
        <time>2022-04-10T15:05:07Z</time>
      </trkpt>
      <trkpt lat="44.50149" lon="1.8177">
        <ele>366.6</ele>
        <time>2022-04-10T15:05:08Z</time>
      </trkpt>
      <trkpt lat="44.5015" lon="1.81766">
        <ele>366.6</ele>
        <time>2022-04-10T15:05:09Z</time>
      </trkpt>
      <trkpt lat="44.50151" lon="1.81765">
        <ele>366.6</ele>
        <time>2022-04-10T15:05:10Z</time>
      </trkpt>
      <trkpt lat="44.50149" lon="1.81762">
        <ele>366.7</ele>
        <time>2022-04-10T15:05:12Z</time>
      </trkpt>
      <trkpt lat="44.50149" lon="1.81763">
        <ele>366.7</ele>
        <time>2022-04-10T15:05:13Z</time>
      </trkpt>
      <trkpt lat="44.50149" lon="1.81765">
        <ele>366.7</ele>
        <time>2022-04-10T15:05:14Z</time>
      </trkpt>
      <trkpt lat="44.50148" lon="1.81766">
        <ele>366.7</ele>
        <time>2022-04-10T15:05:15Z</time>
      </trkpt>
      <trkpt lat="44.50147" lon="1.81773">
        <ele>366.7</ele>
        <time>2022-04-10T15:05:16Z</time>
      </trkpt>
      <trkpt lat="44.50147" lon="1.81775">
        <ele>366.8</ele>
        <time>2022-04-10T15:05:17Z</time>
      </trkpt>
      <trkpt lat="44.50142" lon="1.81779">
        <ele>366.8</ele>
        <time>2022-04-10T15:05:19Z</time>
      </trkpt>
      <trkpt lat="44.50138" lon="1.81777">
        <ele>366.9</ele>
        <time>2022-04-10T15:05:20Z</time>
      </trkpt>
      <trkpt lat="44.50137" lon="1.81775">
        <ele>366.9</ele>
        <time>2022-04-10T15:05:21Z</time>
      </trkpt>
      <trkpt lat="44.50136" lon="1.8177">
        <ele>366.9</ele>
        <time>2022-04-10T15:05:22Z</time>
      </trkpt>
      <trkpt lat="44.50134" lon="1.81767">
        <ele>366.9</ele>
        <time>2022-04-10T15:05:23Z</time>
      </trkpt>
      <trkpt lat="44.50131" lon="1.81763">
        <ele>366.9</ele>
        <time>2022-04-10T15:05:24Z</time>
      </trkpt>
      <trkpt lat="44.50127" lon="1.8176">
        <ele>366.9</ele>
        <time>2022-04-10T15:05:25Z</time>
      </trkpt>
      <trkpt lat="44.50123" lon="1.8176">
        <ele>366.9</ele>
        <time>2022-04-10T15:05:26Z</time>
      </trkpt>
      <trkpt lat="44.50119" lon="1.81764">
        <ele>367</ele>
        <time>2022-04-10T15:05:27Z</time>
      </trkpt>
      <trkpt lat="44.50117" lon="1.81766">
        <ele>367.1</ele>
        <time>2022-04-10T15:05:28Z</time>
      </trkpt>
      <trkpt lat="44.50114" lon="1.81772">
        <ele>367.3</ele>
        <time>2022-04-10T15:05:29Z</time>
      </trkpt>
      <trkpt lat="44.50113" lon="1.81778">
        <ele>367.5</ele>
        <time>2022-04-10T15:05:30Z</time>
      </trkpt>
      <trkpt lat="44.50112" lon="1.81786">
        <ele>367.9</ele>
        <time>2022-04-10T15:05:32Z</time>
      </trkpt>
      <trkpt lat="44.5011" lon="1.81797">
        <ele>368.5</ele>
        <time>2022-04-10T15:05:33Z</time>
      </trkpt>
      <trkpt lat="44.50108" lon="1.81803">
        <ele>368.9</ele>
        <time>2022-04-10T15:05:34Z</time>
      </trkpt>
      <trkpt lat="44.50106" lon="1.81809">
        <ele>369.3</ele>
        <time>2022-04-10T15:05:35Z</time>
      </trkpt>
      <trkpt lat="44.50103" lon="1.81815">
        <ele>369.6</ele>
        <time>2022-04-10T15:05:36Z</time>
      </trkpt>
      <trkpt lat="44.501" lon="1.81819">
        <ele>370</ele>
        <time>2022-04-10T15:05:37Z</time>
      </trkpt>
      <trkpt lat="44.50097" lon="1.81825">
        <ele>370.6</ele>
        <time>2022-04-10T15:05:38Z</time>
      </trkpt>
      <trkpt lat="44.50094" lon="1.8183">
        <ele>371.1</ele>
        <time>2022-04-10T15:05:39Z</time>
      </trkpt>
      <trkpt lat="44.50092" lon="1.81836">
        <ele>371.8</ele>
        <time>2022-04-10T15:05:40Z</time>
      </trkpt>
      <trkpt lat="44.50089" lon="1.81842">
        <ele>372.4</ele>
        <time>2022-04-10T15:05:41Z</time>
      </trkpt>
      <trkpt lat="44.50087" lon="1.81847">
        <ele>373</ele>
        <time>2022-04-10T15:05:42Z</time>
      </trkpt>
      <trkpt lat="44.50083" lon="1.81855">
        <ele>373.8</ele>
        <time>2022-04-10T15:05:44Z</time>
      </trkpt>
      <trkpt lat="44.50081" lon="1.81861">
        <ele>374.4</ele>
        <time>2022-04-10T15:05:45Z</time>
      </trkpt>
      <trkpt lat="44.50079" lon="1.81865">
        <ele>374.8</ele>
        <time>2022-04-10T15:05:46Z</time>
      </trkpt>
      <trkpt lat="44.50076" lon="1.81869">
        <ele>375.4</ele>
        <time>2022-04-10T15:05:47Z</time>
      </trkpt>
      <trkpt lat="44.50072" lon="1.81874">
        <ele>376.1</ele>
        <time>2022-04-10T15:05:48Z</time>
      </trkpt>
      <trkpt lat="44.50069" lon="1.81877">
        <ele>376.5</ele>
        <time>2022-04-10T15:05:49Z</time>
      </trkpt>
      <trkpt lat="44.50066" lon="1.81879">
        <ele>376.9</ele>
        <time>2022-04-10T15:05:50Z</time>
      </trkpt>
      <trkpt lat="44.50064" lon="1.81881">
        <ele>377.2</ele>
        <time>2022-04-10T15:05:51Z</time>
      </trkpt>
      <trkpt lat="44.50061" lon="1.81883">
        <ele>377.4</ele>
        <time>2022-04-10T15:05:52Z</time>
      </trkpt>
      <trkpt lat="44.50056" lon="1.81886">
        <ele>377.7</ele>
        <time>2022-04-10T15:05:53Z</time>
      </trkpt>
      <trkpt lat="44.50052" lon="1.81889">
        <ele>378</ele>
        <time>2022-04-10T15:05:54Z</time>
      </trkpt>
      <trkpt lat="44.5005" lon="1.81892">
        <ele>378.1</ele>
        <time>2022-04-10T15:05:55Z</time>
      </trkpt>
      <trkpt lat="44.50046" lon="1.81895">
        <ele>378.4</ele>
        <time>2022-04-10T15:05:56Z</time>
      </trkpt>
      <trkpt lat="44.5004" lon="1.819">
        <ele>378.8</ele>
        <time>2022-04-10T15:05:58Z</time>
      </trkpt>
      <trkpt lat="44.50033" lon="1.81905">
        <ele>379.3</ele>
        <time>2022-04-10T15:05:59Z</time>
      </trkpt>
      <trkpt lat="44.5003" lon="1.81907">
        <ele>379.4</ele>
        <time>2022-04-10T15:06:00Z</time>
      </trkpt>
      <trkpt lat="44.50025" lon="1.8191">
        <ele>379.7</ele>
        <time>2022-04-10T15:06:01Z</time>
      </trkpt>
      <trkpt lat="44.5002" lon="1.81912">
        <ele>379.8</ele>
        <time>2022-04-10T15:06:02Z</time>
      </trkpt>
      <trkpt lat="44.50015" lon="1.81913">
        <ele>380</ele>
        <time>2022-04-10T15:06:03Z</time>
      </trkpt>
      <trkpt lat="44.5001" lon="1.81914">
        <ele>380.1</ele>
        <time>2022-04-10T15:06:04Z</time>
      </trkpt>
      <trkpt lat="44.50005" lon="1.81914">
        <ele>380.2</ele>
        <time>2022-04-10T15:06:05Z</time>
      </trkpt>
      <trkpt lat="44.5" lon="1.81915">
        <ele>380.3</ele>
        <time>2022-04-10T15:06:06Z</time>
      </trkpt>
      <trkpt lat="44.49995" lon="1.81916">
        <ele>380.4</ele>
        <time>2022-04-10T15:06:07Z</time>
      </trkpt>
      <trkpt lat="44.4999" lon="1.81918">
        <ele>380.4</ele>
        <time>2022-04-10T15:06:08Z</time>
      </trkpt>
      <trkpt lat="44.49985" lon="1.8192">
        <ele>380.4</ele>
        <time>2022-04-10T15:06:09Z</time>
      </trkpt>
      <trkpt lat="44.49979" lon="1.81922">
        <ele>380.4</ele>
        <time>2022-04-10T15:06:10Z</time>
      </trkpt>
      <trkpt lat="44.49974" lon="1.81924">
        <ele>380.4</ele>
        <time>2022-04-10T15:06:11Z</time>
      </trkpt>
      <trkpt lat="44.49968" lon="1.81927">
        <ele>380.5</ele>
        <time>2022-04-10T15:06:12Z</time>
      </trkpt>
      <trkpt lat="44.49963" lon="1.81928">
        <ele>380.5</ele>
        <time>2022-04-10T15:06:13Z</time>
      </trkpt>
      <trkpt lat="44.49959" lon="1.81928">
        <ele>380.6</ele>
        <time>2022-04-10T15:06:14Z</time>
      </trkpt>
      <trkpt lat="44.49954" lon="1.81928">
        <ele>380.7</ele>
        <time>2022-04-10T15:06:15Z</time>
      </trkpt>
      <trkpt lat="44.49949" lon="1.81928">
        <ele>380.7</ele>
        <time>2022-04-10T15:06:16Z</time>
      </trkpt>
      <trkpt lat="44.49944" lon="1.81928">
        <ele>380.8</ele>
        <time>2022-04-10T15:06:17Z</time>
      </trkpt>
      <trkpt lat="44.49939" lon="1.81928">
        <ele>380.8</ele>
        <time>2022-04-10T15:06:18Z</time>
      </trkpt>
      <trkpt lat="44.49933" lon="1.81929">
        <ele>380.9</ele>
        <time>2022-04-10T15:06:19Z</time>
      </trkpt>
      <trkpt lat="44.49928" lon="1.81929">
        <ele>381</ele>
        <time>2022-04-10T15:06:20Z</time>
      </trkpt>
      <trkpt lat="44.49923" lon="1.81929">
        <ele>381.1</ele>
        <time>2022-04-10T15:06:21Z</time>
      </trkpt>
      <trkpt lat="44.49918" lon="1.81929">
        <ele>381.2</ele>
        <time>2022-04-10T15:06:22Z</time>
      </trkpt>
      <trkpt lat="44.49914" lon="1.81929">
        <ele>381.3</ele>
        <time>2022-04-10T15:06:23Z</time>
      </trkpt>
      <trkpt lat="44.49909" lon="1.81931">
        <ele>381.4</ele>
        <time>2022-04-10T15:06:24Z</time>
      </trkpt>
      <trkpt lat="44.49904" lon="1.81932">
        <ele>381.4</ele>
        <time>2022-04-10T15:06:25Z</time>
      </trkpt>
      <trkpt lat="44.49898" lon="1.81933">
        <ele>381.4</ele>
        <time>2022-04-10T15:06:26Z</time>
      </trkpt>
      <trkpt lat="44.49892" lon="1.81934">
        <ele>381.4</ele>
        <time>2022-04-10T15:06:27Z</time>
      </trkpt>
      <trkpt lat="44.49886" lon="1.81935">
        <ele>381.4</ele>
        <time>2022-04-10T15:06:28Z</time>
      </trkpt>
      <trkpt lat="44.4988" lon="1.81936">
        <ele>381.5</ele>
        <time>2022-04-10T15:06:29Z</time>
      </trkpt>
      <trkpt lat="44.49874" lon="1.81937">
        <ele>381.5</ele>
        <time>2022-04-10T15:06:30Z</time>
      </trkpt>
      <trkpt lat="44.49868" lon="1.81938">
        <ele>381.5</ele>
        <time>2022-04-10T15:06:31Z</time>
      </trkpt>
      <trkpt lat="44.49862" lon="1.81938">
        <ele>381.5</ele>
        <time>2022-04-10T15:06:32Z</time>
      </trkpt>
      <trkpt lat="44.49857" lon="1.81939">
        <ele>381.6</ele>
        <time>2022-04-10T15:06:33Z</time>
      </trkpt>
      <trkpt lat="44.49851" lon="1.81939">
        <ele>381.6</ele>
        <time>2022-04-10T15:06:34Z</time>
      </trkpt>
      <trkpt lat="44.49845" lon="1.81941">
        <ele>381.6</ele>
        <time>2022-04-10T15:06:35Z</time>
      </trkpt>
      <trkpt lat="44.49839" lon="1.81943">
        <ele>381.6</ele>
        <time>2022-04-10T15:06:36Z</time>
      </trkpt>
      <trkpt lat="44.49834" lon="1.81947">
        <ele>381.5</ele>
        <time>2022-04-10T15:06:37Z</time>
      </trkpt>
      <trkpt lat="44.4983" lon="1.81953">
        <ele>381.5</ele>
        <time>2022-04-10T15:06:38Z</time>
      </trkpt>
      <trkpt lat="44.49828" lon="1.81959">
        <ele>381.5</ele>
        <time>2022-04-10T15:06:39Z</time>
      </trkpt>
      <trkpt lat="44.49827" lon="1.81966">
        <ele>381.5</ele>
        <time>2022-04-10T15:06:40Z</time>
      </trkpt>
      <trkpt lat="44.49826" lon="1.81973">
        <ele>381.5</ele>
        <time>2022-04-10T15:06:41Z</time>
      </trkpt>
      <trkpt lat="44.49826" lon="1.81981">
        <ele>381.6</ele>
        <time>2022-04-10T15:06:42Z</time>
      </trkpt>
      <trkpt lat="44.49827" lon="1.81989">
        <ele>381.6</ele>
        <time>2022-04-10T15:06:43Z</time>
      </trkpt>
      <trkpt lat="44.49827" lon="1.81997">
        <ele>381.7</ele>
        <time>2022-04-10T15:06:44Z</time>
      </trkpt>
      <trkpt lat="44.49828" lon="1.82005">
        <ele>381.8</ele>
        <time>2022-04-10T15:06:45Z</time>
      </trkpt>
      <trkpt lat="44.49829" lon="1.82012">
        <ele>381.9</ele>
        <time>2022-04-10T15:06:46Z</time>
      </trkpt>
      <trkpt lat="44.49829" lon="1.82017">
        <ele>382</ele>
        <time>2022-04-10T15:06:47Z</time>
      </trkpt>
      <trkpt lat="44.4983" lon="1.82024">
        <ele>382.1</ele>
        <time>2022-04-10T15:06:48Z</time>
      </trkpt>
      <trkpt lat="44.49829" lon="1.82032">
        <ele>382.1</ele>
        <time>2022-04-10T15:06:49Z</time>
      </trkpt>
      <trkpt lat="44.49827" lon="1.82039">
        <ele>382</ele>
        <time>2022-04-10T15:06:50Z</time>
      </trkpt>
      <trkpt lat="44.49824" lon="1.82044">
        <ele>381.7</ele>
        <time>2022-04-10T15:06:51Z</time>
      </trkpt>
      <trkpt lat="44.4982" lon="1.82047">
        <ele>381.3</ele>
        <time>2022-04-10T15:06:52Z</time>
      </trkpt>
      <trkpt lat="44.49817" lon="1.8205">
        <ele>380.9</ele>
        <time>2022-04-10T15:06:53Z</time>
      </trkpt>
      <trkpt lat="44.49813" lon="1.82053">
        <ele>380.4</ele>
        <time>2022-04-10T15:06:54Z</time>
      </trkpt>
      <trkpt lat="44.49808" lon="1.82059">
        <ele>379.7</ele>
        <time>2022-04-10T15:06:55Z</time>
      </trkpt>
      <trkpt lat="44.49805" lon="1.82065">
        <ele>378.8</ele>
        <time>2022-04-10T15:06:56Z</time>
      </trkpt>
      <trkpt lat="44.49803" lon="1.82073">
        <ele>378.7</ele>
        <time>2022-04-10T15:06:57Z</time>
      </trkpt>
      <trkpt lat="44.49802" lon="1.82081">
        <ele>378.6</ele>
        <time>2022-04-10T15:06:58Z</time>
      </trkpt>
      <trkpt lat="44.49801" lon="1.82089">
        <ele>378.5</ele>
        <time>2022-04-10T15:06:59Z</time>
      </trkpt>
      <trkpt lat="44.498" lon="1.82098">
        <ele>378.5</ele>
        <time>2022-04-10T15:07:00Z</time>
      </trkpt>
      <trkpt lat="44.49798" lon="1.82106">
        <ele>378.5</ele>
        <time>2022-04-10T15:07:01Z</time>
      </trkpt>
      <trkpt lat="44.49795" lon="1.82113">
        <ele>378.6</ele>
        <time>2022-04-10T15:07:02Z</time>
      </trkpt>
      <trkpt lat="44.49791" lon="1.82119">
        <ele>378.9</ele>
        <time>2022-04-10T15:07:04Z</time>
      </trkpt>
      <trkpt lat="44.49789" lon="1.82123">
        <ele>379.2</ele>
        <time>2022-04-10T15:07:05Z</time>
      </trkpt>
      <trkpt lat="44.49785" lon="1.8213">
        <ele>379.6</ele>
        <time>2022-04-10T15:07:06Z</time>
      </trkpt>
      <trkpt lat="44.49783" lon="1.82135">
        <ele>380</ele>
        <time>2022-04-10T15:07:07Z</time>
      </trkpt>
      <trkpt lat="44.4978" lon="1.8214">
        <ele>380.5</ele>
        <time>2022-04-10T15:07:08Z</time>
      </trkpt>
      <trkpt lat="44.49777" lon="1.82144">
        <ele>380.9</ele>
        <time>2022-04-10T15:07:09Z</time>
      </trkpt>
      <trkpt lat="44.49774" lon="1.82148">
        <ele>381.4</ele>
        <time>2022-04-10T15:07:10Z</time>
      </trkpt>
      <trkpt lat="44.49771" lon="1.82153">
        <ele>381.9</ele>
        <time>2022-04-10T15:07:11Z</time>
      </trkpt>
      <trkpt lat="44.49769" lon="1.82157">
        <ele>382.4</ele>
        <time>2022-04-10T15:07:12Z</time>
      </trkpt>
      <trkpt lat="44.49765" lon="1.82161">
        <ele>382.9</ele>
        <time>2022-04-10T15:07:13Z</time>
      </trkpt>
      <trkpt lat="44.49763" lon="1.82164">
        <ele>383.3</ele>
        <time>2022-04-10T15:07:14Z</time>
      </trkpt>
      <trkpt lat="44.49761" lon="1.82167">
        <ele>383.7</ele>
        <time>2022-04-10T15:07:15Z</time>
      </trkpt>
      <trkpt lat="44.49759" lon="1.82171">
        <ele>384.1</ele>
        <time>2022-04-10T15:07:16Z</time>
      </trkpt>
      <trkpt lat="44.49758" lon="1.82173">
        <ele>384.2</ele>
        <time>2022-04-10T15:07:17Z</time>
      </trkpt>
      <trkpt lat="44.49756" lon="1.82176">
        <ele>384.6</ele>
        <time>2022-04-10T15:07:18Z</time>
      </trkpt>
      <trkpt lat="44.49755" lon="1.82177">
        <ele>384.7</ele>
        <time>2022-04-10T15:07:19Z</time>
      </trkpt>
      <trkpt lat="44.49753" lon="1.82181">
        <ele>385</ele>
        <time>2022-04-10T15:07:20Z</time>
      </trkpt>
      <trkpt lat="44.49752" lon="1.82182">
        <ele>385.1</ele>
        <time>2022-04-10T15:07:21Z</time>
      </trkpt>
      <trkpt lat="44.49749" lon="1.82188">
        <ele>385.4</ele>
        <time>2022-04-10T15:07:23Z</time>
      </trkpt>
      <trkpt lat="44.49746" lon="1.82192">
        <ele>385.7</ele>
        <time>2022-04-10T15:07:24Z</time>
      </trkpt>
      <trkpt lat="44.49743" lon="1.82195">
        <ele>385.9</ele>
        <time>2022-04-10T15:07:25Z</time>
      </trkpt>
      <trkpt lat="44.49739" lon="1.82197">
        <ele>386</ele>
        <time>2022-04-10T15:07:26Z</time>
      </trkpt>
      <trkpt lat="44.49736" lon="1.82198">
        <ele>386.2</ele>
        <time>2022-04-10T15:07:27Z</time>
      </trkpt>
      <trkpt lat="44.49732" lon="1.82198">
        <ele>386.3</ele>
        <time>2022-04-10T15:07:28Z</time>
      </trkpt>
      <trkpt lat="44.49729" lon="1.822">
        <ele>386.4</ele>
        <time>2022-04-10T15:07:29Z</time>
      </trkpt>
      <trkpt lat="44.49725" lon="1.82202">
        <ele>386.6</ele>
        <time>2022-04-10T15:07:30Z</time>
      </trkpt>
      <trkpt lat="44.49722" lon="1.82202">
        <ele>386.6</ele>
        <time>2022-04-10T15:07:31Z</time>
      </trkpt>
      <trkpt lat="44.49719" lon="1.82203">
        <ele>386.7</ele>
        <time>2022-04-10T15:07:32Z</time>
      </trkpt>
      <trkpt lat="44.49715" lon="1.82203">
        <ele>386.8</ele>
        <time>2022-04-10T15:07:33Z</time>
      </trkpt>
      <trkpt lat="44.49711" lon="1.82201">
        <ele>386.9</ele>
        <time>2022-04-10T15:07:34Z</time>
      </trkpt>
      <trkpt lat="44.49707" lon="1.822">
        <ele>386.9</ele>
        <time>2022-04-10T15:07:35Z</time>
      </trkpt>
      <trkpt lat="44.49703" lon="1.82199">
        <ele>386.9</ele>
        <time>2022-04-10T15:07:36Z</time>
      </trkpt>
      <trkpt lat="44.49699" lon="1.82199">
        <ele>386.9</ele>
        <time>2022-04-10T15:07:37Z</time>
      </trkpt>
      <trkpt lat="44.49694" lon="1.82198">
        <ele>386.8</ele>
        <time>2022-04-10T15:07:38Z</time>
      </trkpt>
      <trkpt lat="44.49689" lon="1.82198">
        <ele>386.7</ele>
        <time>2022-04-10T15:07:39Z</time>
      </trkpt>
      <trkpt lat="44.49683" lon="1.82197">
        <ele>386.5</ele>
        <time>2022-04-10T15:07:40Z</time>
      </trkpt>
      <trkpt lat="44.49677" lon="1.82197">
        <ele>386.3</ele>
        <time>2022-04-10T15:07:41Z</time>
      </trkpt>
      <trkpt lat="44.49671" lon="1.82196">
        <ele>386.1</ele>
        <time>2022-04-10T15:07:42Z</time>
      </trkpt>
      <trkpt lat="44.49665" lon="1.82196">
        <ele>386</ele>
        <time>2022-04-10T15:07:43Z</time>
      </trkpt>
      <trkpt lat="44.4966" lon="1.82197">
        <ele>385.9</ele>
        <time>2022-04-10T15:07:44Z</time>
      </trkpt>
      <trkpt lat="44.49654" lon="1.82197">
        <ele>385.8</ele>
        <time>2022-04-10T15:07:45Z</time>
      </trkpt>
      <trkpt lat="44.49649" lon="1.82197">
        <ele>385.8</ele>
        <time>2022-04-10T15:07:46Z</time>
      </trkpt>
      <trkpt lat="44.49644" lon="1.82197">
        <ele>385.7</ele>
        <time>2022-04-10T15:07:47Z</time>
      </trkpt>
      <trkpt lat="44.49639" lon="1.82198">
        <ele>385.7</ele>
        <time>2022-04-10T15:07:48Z</time>
      </trkpt>
      <trkpt lat="44.49634" lon="1.82199">
        <ele>385.6</ele>
        <time>2022-04-10T15:07:49Z</time>
      </trkpt>
      <trkpt lat="44.49628" lon="1.822">
        <ele>385.6</ele>
        <time>2022-04-10T15:07:50Z</time>
      </trkpt>
      <trkpt lat="44.49623" lon="1.82201">
        <ele>385.4</ele>
        <time>2022-04-10T15:07:51Z</time>
      </trkpt>
      <trkpt lat="44.49617" lon="1.82202">
        <ele>385.2</ele>
        <time>2022-04-10T15:07:52Z</time>
      </trkpt>
      <trkpt lat="44.49611" lon="1.82203">
        <ele>384.9</ele>
        <time>2022-04-10T15:07:53Z</time>
      </trkpt>
      <trkpt lat="44.49604" lon="1.82206">
        <ele>384.5</ele>
        <time>2022-04-10T15:07:54Z</time>
      </trkpt>
      <trkpt lat="44.49599" lon="1.8221">
        <ele>384</ele>
        <time>2022-04-10T15:07:55Z</time>
      </trkpt>
      <trkpt lat="44.49594" lon="1.82216">
        <ele>383.6</ele>
        <time>2022-04-10T15:07:56Z</time>
      </trkpt>
      <trkpt lat="44.49589" lon="1.82222">
        <ele>383.3</ele>
        <time>2022-04-10T15:07:57Z</time>
      </trkpt>
      <trkpt lat="44.49585" lon="1.82228">
        <ele>383.1</ele>
        <time>2022-04-10T15:07:58Z</time>
      </trkpt>
      <trkpt lat="44.49582" lon="1.82234">
        <ele>382.9</ele>
        <time>2022-04-10T15:07:59Z</time>
      </trkpt>
      <trkpt lat="44.49579" lon="1.82242">
        <ele>382.6</ele>
        <time>2022-04-10T15:08:00Z</time>
      </trkpt>
      <trkpt lat="44.49577" lon="1.82249">
        <ele>382.4</ele>
        <time>2022-04-10T15:08:01Z</time>
      </trkpt>
      <trkpt lat="44.49575" lon="1.82255">
        <ele>382.2</ele>
        <time>2022-04-10T15:08:02Z</time>
      </trkpt>
      <trkpt lat="44.49572" lon="1.82262">
        <ele>381.9</ele>
        <time>2022-04-10T15:08:03Z</time>
      </trkpt>
      <trkpt lat="44.4957" lon="1.82268">
        <ele>381.7</ele>
        <time>2022-04-10T15:08:04Z</time>
      </trkpt>
      <trkpt lat="44.49567" lon="1.82272">
        <ele>381.5</ele>
        <time>2022-04-10T15:08:05Z</time>
      </trkpt>
      <trkpt lat="44.49562" lon="1.82277">
        <ele>381.1</ele>
        <time>2022-04-10T15:08:06Z</time>
      </trkpt>
      <trkpt lat="44.49557" lon="1.82281">
        <ele>380.6</ele>
        <time>2022-04-10T15:08:07Z</time>
      </trkpt>
      <trkpt lat="44.49552" lon="1.82286">
        <ele>379.9</ele>
        <time>2022-04-10T15:08:08Z</time>
      </trkpt>
      <trkpt lat="44.49546" lon="1.82291">
        <ele>378.9</ele>
        <time>2022-04-10T15:08:09Z</time>
      </trkpt>
      <trkpt lat="44.49539" lon="1.82298">
        <ele>377.7</ele>
        <time>2022-04-10T15:08:10Z</time>
      </trkpt>
      <trkpt lat="44.49532" lon="1.82306">
        <ele>376.5</ele>
        <time>2022-04-10T15:08:11Z</time>
      </trkpt>
      <trkpt lat="44.49525" lon="1.82315">
        <ele>375.5</ele>
        <time>2022-04-10T15:08:12Z</time>
      </trkpt>
      <trkpt lat="44.49519" lon="1.82325">
        <ele>374.3</ele>
        <time>2022-04-10T15:08:13Z</time>
      </trkpt>
      <trkpt lat="44.49514" lon="1.82335">
        <ele>373.2</ele>
        <time>2022-04-10T15:08:14Z</time>
      </trkpt>
      <trkpt lat="44.49511" lon="1.82345">
        <ele>372.3</ele>
        <time>2022-04-10T15:08:15Z</time>
      </trkpt>
      <trkpt lat="44.49508" lon="1.82352">
        <ele>371.7</ele>
        <time>2022-04-10T15:08:16Z</time>
      </trkpt>
      <trkpt lat="44.49506" lon="1.82357">
        <ele>371.4</ele>
        <time>2022-04-10T15:08:17Z</time>
      </trkpt>
      <trkpt lat="44.49505" lon="1.82359">
        <ele>371.3</ele>
        <time>2022-04-10T15:08:18Z</time>
      </trkpt>
      <trkpt lat="44.49505" lon="1.8236">
        <ele>371.2</ele>
        <time>2022-04-10T15:08:19Z</time>
      </trkpt>
      <trkpt lat="44.49505" lon="1.82361">
        <ele>371.2</ele>
        <time>2022-04-10T15:08:20Z</time>
      </trkpt>
      <trkpt lat="44.49504" lon="1.82364">
        <ele>370.8</ele>
        <time>2022-04-10T15:08:21Z</time>
      </trkpt>
      <trkpt lat="44.49504" lon="1.82366">
        <ele>370.6</ele>
        <time>2022-04-10T15:08:22Z</time>
      </trkpt>
      <trkpt lat="44.49503" lon="1.82368">
        <ele>370.4</ele>
        <time>2022-04-10T15:08:23Z</time>
      </trkpt>
      <trkpt lat="44.49503" lon="1.82372">
        <ele>370</ele>
        <time>2022-04-10T15:08:24Z</time>
      </trkpt>
      <trkpt lat="44.49501" lon="1.82378">
        <ele>369.3</ele>
        <time>2022-04-10T15:08:25Z</time>
      </trkpt>
      <trkpt lat="44.49501" lon="1.82381">
        <ele>369</ele>
        <time>2022-04-10T15:08:26Z</time>
      </trkpt>
      <trkpt lat="44.49499" lon="1.82394">
        <ele>367.7</ele>
        <time>2022-04-10T15:08:28Z</time>
      </trkpt>
      <trkpt lat="44.49496" lon="1.82399">
        <ele>367</ele>
        <time>2022-04-10T15:08:29Z</time>
      </trkpt>
      <trkpt lat="44.49492" lon="1.82403">
        <ele>366.3</ele>
        <time>2022-04-10T15:08:30Z</time>
      </trkpt>
      <trkpt lat="44.49488" lon="1.82408">
        <ele>365.6</ele>
        <time>2022-04-10T15:08:31Z</time>
      </trkpt>
      <trkpt lat="44.49484" lon="1.82413">
        <ele>364.8</ele>
        <time>2022-04-10T15:08:32Z</time>
      </trkpt>
      <trkpt lat="44.49478" lon="1.82423">
        <ele>363.5</ele>
        <time>2022-04-10T15:08:34Z</time>
      </trkpt>
      <trkpt lat="44.49475" lon="1.82428">
        <ele>362.9</ele>
        <time>2022-04-10T15:08:35Z</time>
      </trkpt>
      <trkpt lat="44.49471" lon="1.8244">
        <ele>361.5</ele>
        <time>2022-04-10T15:08:37Z</time>
      </trkpt>
      <trkpt lat="44.49468" lon="1.82447">
        <ele>360.7</ele>
        <time>2022-04-10T15:08:38Z</time>
      </trkpt>
      <trkpt lat="44.49465" lon="1.82454">
        <ele>359.9</ele>
        <time>2022-04-10T15:08:39Z</time>
      </trkpt>
      <trkpt lat="44.49463" lon="1.82461">
        <ele>359.1</ele>
        <time>2022-04-10T15:08:40Z</time>
      </trkpt>
      <trkpt lat="44.49461" lon="1.82468">
        <ele>358.4</ele>
        <time>2022-04-10T15:08:41Z</time>
      </trkpt>
      <trkpt lat="44.49458" lon="1.82475">
        <ele>357.5</ele>
        <time>2022-04-10T15:08:42Z</time>
      </trkpt>
      <trkpt lat="44.49455" lon="1.82482">
        <ele>356.7</ele>
        <time>2022-04-10T15:08:43Z</time>
      </trkpt>
      <trkpt lat="44.49451" lon="1.82489">
        <ele>355.9</ele>
        <time>2022-04-10T15:08:44Z</time>
      </trkpt>
      <trkpt lat="44.49448" lon="1.82496">
        <ele>355</ele>
        <time>2022-04-10T15:08:45Z</time>
      </trkpt>
      <trkpt lat="44.49445" lon="1.82503">
        <ele>354.2</ele>
        <time>2022-04-10T15:08:46Z</time>
      </trkpt>
      <trkpt lat="44.49443" lon="1.8251">
        <ele>353.4</ele>
        <time>2022-04-10T15:08:47Z</time>
      </trkpt>
      <trkpt lat="44.4944" lon="1.82518">
        <ele>352.6</ele>
        <time>2022-04-10T15:08:48Z</time>
      </trkpt>
      <trkpt lat="44.49439" lon="1.82525">
        <ele>351.8</ele>
        <time>2022-04-10T15:08:49Z</time>
      </trkpt>
      <trkpt lat="44.49437" lon="1.82532">
        <ele>351.1</ele>
        <time>2022-04-10T15:08:50Z</time>
      </trkpt>
      <trkpt lat="44.49435" lon="1.82538">
        <ele>350.5</ele>
        <time>2022-04-10T15:08:51Z</time>
      </trkpt>
      <trkpt lat="44.49434" lon="1.82543">
        <ele>349.9</ele>
        <time>2022-04-10T15:08:52Z</time>
      </trkpt>
      <trkpt lat="44.49433" lon="1.82548">
        <ele>349.3</ele>
        <time>2022-04-10T15:08:53Z</time>
      </trkpt>
      <trkpt lat="44.49432" lon="1.82555">
        <ele>348.7</ele>
        <time>2022-04-10T15:08:54Z</time>
      </trkpt>
      <trkpt lat="44.49431" lon="1.82564">
        <ele>347.8</ele>
        <time>2022-04-10T15:08:55Z</time>
      </trkpt>
      <trkpt lat="44.49431" lon="1.82573">
        <ele>346.8</ele>
        <time>2022-04-10T15:08:56Z</time>
      </trkpt>
      <trkpt lat="44.49432" lon="1.82594">
        <ele>344.7</ele>
        <time>2022-04-10T15:08:58Z</time>
      </trkpt>
      <trkpt lat="44.49432" lon="1.82605">
        <ele>343.6</ele>
        <time>2022-04-10T15:08:59Z</time>
      </trkpt>
      <trkpt lat="44.49432" lon="1.82616">
        <ele>342.5</ele>
        <time>2022-04-10T15:09:00Z</time>
      </trkpt>
      <trkpt lat="44.49432" lon="1.82625">
        <ele>341.6</ele>
        <time>2022-04-10T15:09:01Z</time>
      </trkpt>
      <trkpt lat="44.49432" lon="1.82633">
        <ele>340.8</ele>
        <time>2022-04-10T15:09:02Z</time>
      </trkpt>
      <trkpt lat="44.49432" lon="1.82641">
        <ele>340</ele>
        <time>2022-04-10T15:09:04Z</time>
      </trkpt>
      <trkpt lat="44.49431" lon="1.82644">
        <ele>339.7</ele>
        <time>2022-04-10T15:09:05Z</time>
      </trkpt>
      <trkpt lat="44.49433" lon="1.82651">
        <ele>338.9</ele>
        <time>2022-04-10T15:09:06Z</time>
      </trkpt>
      <trkpt lat="44.49433" lon="1.82656">
        <ele>338.4</ele>
        <time>2022-04-10T15:09:07Z</time>
      </trkpt>
      <trkpt lat="44.49433" lon="1.82662">
        <ele>337.9</ele>
        <time>2022-04-10T15:09:08Z</time>
      </trkpt>
      <trkpt lat="44.49434" lon="1.82669">
        <ele>337.1</ele>
        <time>2022-04-10T15:09:09Z</time>
      </trkpt>
      <trkpt lat="44.49435" lon="1.82678">
        <ele>336.2</ele>
        <time>2022-04-10T15:09:10Z</time>
      </trkpt>
      <trkpt lat="44.49436" lon="1.82688">
        <ele>335.2</ele>
        <time>2022-04-10T15:09:11Z</time>
      </trkpt>
      <trkpt lat="44.49437" lon="1.82699">
        <ele>334.1</ele>
        <time>2022-04-10T15:09:12Z</time>
      </trkpt>
      <trkpt lat="44.49438" lon="1.8271">
        <ele>332.9</ele>
        <time>2022-04-10T15:09:13Z</time>
      </trkpt>
      <trkpt lat="44.49439" lon="1.82723">
        <ele>331.7</ele>
        <time>2022-04-10T15:09:14Z</time>
      </trkpt>
      <trkpt lat="44.49441" lon="1.82736">
        <ele>330.4</ele>
        <time>2022-04-10T15:09:15Z</time>
      </trkpt>
      <trkpt lat="44.49443" lon="1.82749">
        <ele>329</ele>
        <time>2022-04-10T15:09:16Z</time>
      </trkpt>
      <trkpt lat="44.49446" lon="1.82762">
        <ele>327.7</ele>
        <time>2022-04-10T15:09:17Z</time>
      </trkpt>
      <trkpt lat="44.49448" lon="1.82774">
        <ele>326.4</ele>
        <time>2022-04-10T15:09:18Z</time>
      </trkpt>
      <trkpt lat="44.4945" lon="1.82784">
        <ele>325.3</ele>
        <time>2022-04-10T15:09:19Z</time>
      </trkpt>
      <trkpt lat="44.49452" lon="1.82792">
        <ele>324.5</ele>
        <time>2022-04-10T15:09:20Z</time>
      </trkpt>
      <trkpt lat="44.49452" lon="1.82798">
        <ele>324</ele>
        <time>2022-04-10T15:09:21Z</time>
      </trkpt>
      <trkpt lat="44.49453" lon="1.82803">
        <ele>323.4</ele>
        <time>2022-04-10T15:09:22Z</time>
      </trkpt>
      <trkpt lat="44.49455" lon="1.82808">
        <ele>322.9</ele>
        <time>2022-04-10T15:09:23Z</time>
      </trkpt>
      <trkpt lat="44.49455" lon="1.8281">
        <ele>322.7</ele>
        <time>2022-04-10T15:09:24Z</time>
      </trkpt>
      <trkpt lat="44.49457" lon="1.82815">
        <ele>322.1</ele>
        <time>2022-04-10T15:09:25Z</time>
      </trkpt>
      <trkpt lat="44.49459" lon="1.82821">
        <ele>321.4</ele>
        <time>2022-04-10T15:09:26Z</time>
      </trkpt>
      <trkpt lat="44.49461" lon="1.82829">
        <ele>320.5</ele>
        <time>2022-04-10T15:09:27Z</time>
      </trkpt>
      <trkpt lat="44.49465" lon="1.82837">
        <ele>319.7</ele>
        <time>2022-04-10T15:09:28Z</time>
      </trkpt>
      <trkpt lat="44.49468" lon="1.82844">
        <ele>318.7</ele>
        <time>2022-04-10T15:09:29Z</time>
      </trkpt>
      <trkpt lat="44.49472" lon="1.82851">
        <ele>317.5</ele>
        <time>2022-04-10T15:09:30Z</time>
      </trkpt>
      <trkpt lat="44.49476" lon="1.82858">
        <ele>316.4</ele>
        <time>2022-04-10T15:09:31Z</time>
      </trkpt>
      <trkpt lat="44.49479" lon="1.82865">
        <ele>315.3</ele>
        <time>2022-04-10T15:09:32Z</time>
      </trkpt>
      <trkpt lat="44.49483" lon="1.82873">
        <ele>314.1</ele>
        <time>2022-04-10T15:09:33Z</time>
      </trkpt>
      <trkpt lat="44.49485" lon="1.82882">
        <ele>312.9</ele>
        <time>2022-04-10T15:09:34Z</time>
      </trkpt>
      <trkpt lat="44.49488" lon="1.82891">
        <ele>311.7</ele>
        <time>2022-04-10T15:09:35Z</time>
      </trkpt>
      <trkpt lat="44.4949" lon="1.829">
        <ele>310.5</ele>
        <time>2022-04-10T15:09:36Z</time>
      </trkpt>
      <trkpt lat="44.49492" lon="1.82908">
        <ele>309.4</ele>
        <time>2022-04-10T15:09:37Z</time>
      </trkpt>
      <trkpt lat="44.49492" lon="1.82916">
        <ele>308.3</ele>
        <time>2022-04-10T15:09:38Z</time>
      </trkpt>
      <trkpt lat="44.49491" lon="1.82924">
        <ele>307.4</ele>
        <time>2022-04-10T15:09:39Z</time>
      </trkpt>
      <trkpt lat="44.4949" lon="1.8293">
        <ele>306.6</ele>
        <time>2022-04-10T15:09:40Z</time>
      </trkpt>
      <trkpt lat="44.49489" lon="1.82934">
        <ele>306.1</ele>
        <time>2022-04-10T15:09:41Z</time>
      </trkpt>
      <trkpt lat="44.49487" lon="1.82939">
        <ele>305.4</ele>
        <time>2022-04-10T15:09:42Z</time>
      </trkpt>
      <trkpt lat="44.49486" lon="1.82942">
        <ele>304.9</ele>
        <time>2022-04-10T15:09:43Z</time>
      </trkpt>
      <trkpt lat="44.49483" lon="1.82945">
        <ele>304.3</ele>
        <time>2022-04-10T15:09:44Z</time>
      </trkpt>
      <trkpt lat="44.49482" lon="1.82946">
        <ele>304.1</ele>
        <time>2022-04-10T15:09:45Z</time>
      </trkpt>
      <trkpt lat="44.49481" lon="1.82947">
        <ele>303.8</ele>
        <time>2022-04-10T15:09:46Z</time>
      </trkpt>
      <trkpt lat="44.4948" lon="1.82948">
        <ele>303.1</ele>
        <time>2022-04-10T15:09:47Z</time>
      </trkpt>
      <trkpt lat="44.49479" lon="1.82952">
        <ele>302.9</ele>
        <time>2022-04-10T15:09:48Z</time>
      </trkpt>
      <trkpt lat="44.49478" lon="1.82953">
        <ele>302.8</ele>
        <time>2022-04-10T15:09:49Z</time>
      </trkpt>
      <trkpt lat="44.49477" lon="1.82957">
        <ele>302.6</ele>
        <time>2022-04-10T15:09:50Z</time>
      </trkpt>
      <trkpt lat="44.49475" lon="1.82963">
        <ele>302.4</ele>
        <time>2022-04-10T15:09:51Z</time>
      </trkpt>
      <trkpt lat="44.49474" lon="1.8297">
        <ele>302.1</ele>
        <time>2022-04-10T15:09:52Z</time>
      </trkpt>
      <trkpt lat="44.49472" lon="1.82979">
        <ele>301.8</ele>
        <time>2022-04-10T15:09:53Z</time>
      </trkpt>
      <trkpt lat="44.49471" lon="1.82986">
        <ele>301.6</ele>
        <time>2022-04-10T15:09:54Z</time>
      </trkpt>
      <trkpt lat="44.4947" lon="1.82993">
        <ele>301.3</ele>
        <time>2022-04-10T15:09:55Z</time>
      </trkpt>
      <trkpt lat="44.49469" lon="1.83002">
        <ele>301.1</ele>
        <time>2022-04-10T15:09:56Z</time>
      </trkpt>
      <trkpt lat="44.49467" lon="1.83011">
        <ele>300.9</ele>
        <time>2022-04-10T15:09:57Z</time>
      </trkpt>
      <trkpt lat="44.49466" lon="1.8302">
        <ele>300.7</ele>
        <time>2022-04-10T15:09:58Z</time>
      </trkpt>
      <trkpt lat="44.49465" lon="1.83029">
        <ele>300.6</ele>
        <time>2022-04-10T15:09:59Z</time>
      </trkpt>
      <trkpt lat="44.49463" lon="1.83038">
        <ele>300.6</ele>
        <time>2022-04-10T15:10:00Z</time>
      </trkpt>
      <trkpt lat="44.49462" lon="1.83046">
        <ele>300.5</ele>
        <time>2022-04-10T15:10:01Z</time>
      </trkpt>
      <trkpt lat="44.49461" lon="1.83053">
        <ele>300.4</ele>
        <time>2022-04-10T15:10:02Z</time>
      </trkpt>
      <trkpt lat="44.4946" lon="1.83061">
        <ele>300.3</ele>
        <time>2022-04-10T15:10:03Z</time>
      </trkpt>
      <trkpt lat="44.49458" lon="1.83068">
        <ele>300.2</ele>
        <time>2022-04-10T15:10:04Z</time>
      </trkpt>
      <trkpt lat="44.49457" lon="1.83075">
        <ele>300.1</ele>
        <time>2022-04-10T15:10:05Z</time>
      </trkpt>
      <trkpt lat="44.49456" lon="1.83081">
        <ele>300.1</ele>
        <time>2022-04-10T15:10:06Z</time>
      </trkpt>
      <trkpt lat="44.49455" lon="1.83088">
        <ele>300.1</ele>
        <time>2022-04-10T15:10:07Z</time>
      </trkpt>
      <trkpt lat="44.49454" lon="1.83092">
        <ele>300.1</ele>
        <time>2022-04-10T15:10:08Z</time>
      </trkpt>
      <trkpt lat="44.49453" lon="1.83097">
        <ele>300.1</ele>
        <time>2022-04-10T15:10:09Z</time>
      </trkpt>
      <trkpt lat="44.49453" lon="1.83103">
        <ele>300.2</ele>
        <time>2022-04-10T15:10:10Z</time>
      </trkpt>
      <trkpt lat="44.49453" lon="1.83109">
        <ele>300.2</ele>
        <time>2022-04-10T15:10:11Z</time>
      </trkpt>
      <trkpt lat="44.49453" lon="1.83116">
        <ele>300.3</ele>
        <time>2022-04-10T15:10:12Z</time>
      </trkpt>
      <trkpt lat="44.49452" lon="1.83123">
        <ele>300.3</ele>
        <time>2022-04-10T15:10:13Z</time>
      </trkpt>
      <trkpt lat="44.49452" lon="1.8313">
        <ele>300.3</ele>
        <time>2022-04-10T15:10:14Z</time>
      </trkpt>
      <trkpt lat="44.49453" lon="1.83137">
        <ele>300.4</ele>
        <time>2022-04-10T15:10:15Z</time>
      </trkpt>
      <trkpt lat="44.49455" lon="1.83144">
        <ele>300.4</ele>
        <time>2022-04-10T15:10:17Z</time>
      </trkpt>
      <trkpt lat="44.49454" lon="1.83153">
        <ele>300.4</ele>
        <time>2022-04-10T15:10:18Z</time>
      </trkpt>
      <trkpt lat="44.49455" lon="1.83162">
        <ele>300.4</ele>
        <time>2022-04-10T15:10:20Z</time>
      </trkpt>
      <trkpt lat="44.49457" lon="1.83173">
        <ele>300.4</ele>
        <time>2022-04-10T15:10:21Z</time>
      </trkpt>
      <trkpt lat="44.49458" lon="1.8318">
        <ele>300.4</ele>
        <time>2022-04-10T15:10:22Z</time>
      </trkpt>
      <trkpt lat="44.4946" lon="1.83186">
        <ele>300.4</ele>
        <time>2022-04-10T15:10:23Z</time>
      </trkpt>
      <trkpt lat="44.49462" lon="1.83194">
        <ele>300.4</ele>
        <time>2022-04-10T15:10:24Z</time>
      </trkpt>
      <trkpt lat="44.49463" lon="1.83201">
        <ele>300.4</ele>
        <time>2022-04-10T15:10:25Z</time>
      </trkpt>
      <trkpt lat="44.49466" lon="1.83208">
        <ele>300.4</ele>
        <time>2022-04-10T15:10:26Z</time>
      </trkpt>
      <trkpt lat="44.49467" lon="1.83215">
        <ele>300.4</ele>
        <time>2022-04-10T15:10:27Z</time>
      </trkpt>
      <trkpt lat="44.49469" lon="1.83223">
        <ele>300.5</ele>
        <time>2022-04-10T15:10:28Z</time>
      </trkpt>
      <trkpt lat="44.4947" lon="1.8323">
        <ele>300.5</ele>
        <time>2022-04-10T15:10:29Z</time>
      </trkpt>
      <trkpt lat="44.49472" lon="1.83236">
        <ele>300.5</ele>
        <time>2022-04-10T15:10:30Z</time>
      </trkpt>
      <trkpt lat="44.49475" lon="1.83242">
        <ele>300.6</ele>
        <time>2022-04-10T15:10:31Z</time>
      </trkpt>
      <trkpt lat="44.49477" lon="1.83249">
        <ele>300.6</ele>
        <time>2022-04-10T15:10:32Z</time>
      </trkpt>
      <trkpt lat="44.49479" lon="1.83254">
        <ele>300.7</ele>
        <time>2022-04-10T15:10:33Z</time>
      </trkpt>
      <trkpt lat="44.49482" lon="1.83259">
        <ele>300.7</ele>
        <time>2022-04-10T15:10:34Z</time>
      </trkpt>
      <trkpt lat="44.49485" lon="1.83263">
        <ele>300.7</ele>
        <time>2022-04-10T15:10:35Z</time>
      </trkpt>
      <trkpt lat="44.49488" lon="1.83269">
        <ele>300.8</ele>
        <time>2022-04-10T15:10:36Z</time>
      </trkpt>
      <trkpt lat="44.49491" lon="1.83273">
        <ele>300.8</ele>
        <time>2022-04-10T15:10:37Z</time>
      </trkpt>
      <trkpt lat="44.49493" lon="1.83278">
        <ele>300.8</ele>
        <time>2022-04-10T15:10:38Z</time>
      </trkpt>
      <trkpt lat="44.49496" lon="1.83285">
        <ele>300.8</ele>
        <time>2022-04-10T15:10:39Z</time>
      </trkpt>
      <trkpt lat="44.49497" lon="1.83292">
        <ele>300.6</ele>
        <time>2022-04-10T15:10:40Z</time>
      </trkpt>
      <trkpt lat="44.49497" lon="1.83299">
        <ele>300.4</ele>
        <time>2022-04-10T15:10:41Z</time>
      </trkpt>
      <trkpt lat="44.49495" lon="1.83306">
        <ele>300</ele>
        <time>2022-04-10T15:10:42Z</time>
      </trkpt>
      <trkpt lat="44.49494" lon="1.83314">
        <ele>299.7</ele>
        <time>2022-04-10T15:10:43Z</time>
      </trkpt>
      <trkpt lat="44.49492" lon="1.83322">
        <ele>299.3</ele>
        <time>2022-04-10T15:10:44Z</time>
      </trkpt>
      <trkpt lat="44.49491" lon="1.83331">
        <ele>299</ele>
        <time>2022-04-10T15:10:45Z</time>
      </trkpt>
      <trkpt lat="44.49491" lon="1.8334">
        <ele>298.6</ele>
        <time>2022-04-10T15:10:46Z</time>
      </trkpt>
      <trkpt lat="44.4949" lon="1.8335">
        <ele>298.3</ele>
        <time>2022-04-10T15:10:47Z</time>
      </trkpt>
      <trkpt lat="44.49489" lon="1.8336">
        <ele>297.8</ele>
        <time>2022-04-10T15:10:48Z</time>
      </trkpt>
      <trkpt lat="44.49488" lon="1.8337">
        <ele>297.1</ele>
        <time>2022-04-10T15:10:49Z</time>
      </trkpt>
      <trkpt lat="44.49487" lon="1.83381">
        <ele>296.3</ele>
        <time>2022-04-10T15:10:50Z</time>
      </trkpt>
      <trkpt lat="44.49486" lon="1.83392">
        <ele>295.5</ele>
        <time>2022-04-10T15:10:51Z</time>
      </trkpt>
      <trkpt lat="44.49486" lon="1.83404">
        <ele>294.6</ele>
        <time>2022-04-10T15:10:52Z</time>
      </trkpt>
      <trkpt lat="44.49485" lon="1.83416">
        <ele>293.8</ele>
        <time>2022-04-10T15:10:53Z</time>
      </trkpt>
      <trkpt lat="44.49485" lon="1.83429">
        <ele>293</ele>
        <time>2022-04-10T15:10:54Z</time>
      </trkpt>
      <trkpt lat="44.49487" lon="1.83442">
        <ele>292.2</ele>
        <time>2022-04-10T15:10:55Z</time>
      </trkpt>
      <trkpt lat="44.49489" lon="1.83455">
        <ele>291.4</ele>
        <time>2022-04-10T15:10:56Z</time>
      </trkpt>
      <trkpt lat="44.4949" lon="1.83466">
        <ele>290.7</ele>
        <time>2022-04-10T15:10:57Z</time>
      </trkpt>
      <trkpt lat="44.49492" lon="1.83476">
        <ele>290</ele>
        <time>2022-04-10T15:10:58Z</time>
      </trkpt>
      <trkpt lat="44.49494" lon="1.83485">
        <ele>289.2</ele>
        <time>2022-04-10T15:10:59Z</time>
      </trkpt>
      <trkpt lat="44.49495" lon="1.83493">
        <ele>288.5</ele>
        <time>2022-04-10T15:11:00Z</time>
      </trkpt>
      <trkpt lat="44.49496" lon="1.83502">
        <ele>287.6</ele>
        <time>2022-04-10T15:11:01Z</time>
      </trkpt>
      <trkpt lat="44.49497" lon="1.83511">
        <ele>286.6</ele>
        <time>2022-04-10T15:11:02Z</time>
      </trkpt>
      <trkpt lat="44.49497" lon="1.83521">
        <ele>285.5</ele>
        <time>2022-04-10T15:11:03Z</time>
      </trkpt>
      <trkpt lat="44.49498" lon="1.83532">
        <ele>284.2</ele>
        <time>2022-04-10T15:11:04Z</time>
      </trkpt>
      <trkpt lat="44.49501" lon="1.83542">
        <ele>282.7</ele>
        <time>2022-04-10T15:11:05Z</time>
      </trkpt>
      <trkpt lat="44.49506" lon="1.83551">
        <ele>281.3</ele>
        <time>2022-04-10T15:11:06Z</time>
      </trkpt>
      <trkpt lat="44.49511" lon="1.83559">
        <ele>279.9</ele>
        <time>2022-04-10T15:11:07Z</time>
      </trkpt>
      <trkpt lat="44.49516" lon="1.83566">
        <ele>278.5</ele>
        <time>2022-04-10T15:11:08Z</time>
      </trkpt>
      <trkpt lat="44.4952" lon="1.83574">
        <ele>277.3</ele>
        <time>2022-04-10T15:11:09Z</time>
      </trkpt>
      <trkpt lat="44.49521" lon="1.83583">
        <ele>276.1</ele>
        <time>2022-04-10T15:11:10Z</time>
      </trkpt>
      <trkpt lat="44.49521" lon="1.83594">
        <ele>274.8</ele>
        <time>2022-04-10T15:11:11Z</time>
      </trkpt>
      <trkpt lat="44.4952" lon="1.83608">
        <ele>273.5</ele>
        <time>2022-04-10T15:11:12Z</time>
      </trkpt>
      <trkpt lat="44.49519" lon="1.83623">
        <ele>272.2</ele>
        <time>2022-04-10T15:11:13Z</time>
      </trkpt>
      <trkpt lat="44.49517" lon="1.83637">
        <ele>271.1</ele>
        <time>2022-04-10T15:11:14Z</time>
      </trkpt>
      <trkpt lat="44.49517" lon="1.8365">
        <ele>270.2</ele>
        <time>2022-04-10T15:11:15Z</time>
      </trkpt>
      <trkpt lat="44.49516" lon="1.83662">
        <ele>269.3</ele>
        <time>2022-04-10T15:11:16Z</time>
      </trkpt>
      <trkpt lat="44.49514" lon="1.83673">
        <ele>268.3</ele>
        <time>2022-04-10T15:11:17Z</time>
      </trkpt>
      <trkpt lat="44.49512" lon="1.83683">
        <ele>268.1</ele>
        <time>2022-04-10T15:11:18Z</time>
      </trkpt>
      <trkpt lat="44.49507" lon="1.8369">
        <ele>267.2</ele>
        <time>2022-04-10T15:11:19Z</time>
      </trkpt>
      <trkpt lat="44.495" lon="1.83695">
        <ele>266.1</ele>
        <time>2022-04-10T15:11:20Z</time>
      </trkpt>
      <trkpt lat="44.49492" lon="1.837">
        <ele>264.9</ele>
        <time>2022-04-10T15:11:21Z</time>
      </trkpt>
      <trkpt lat="44.49483" lon="1.83706">
        <ele>263.8</ele>
        <time>2022-04-10T15:11:22Z</time>
      </trkpt>
      <trkpt lat="44.49474" lon="1.83713">
        <ele>262.6</ele>
        <time>2022-04-10T15:11:23Z</time>
      </trkpt>
      <trkpt lat="44.49466" lon="1.8372">
        <ele>261.4</ele>
        <time>2022-04-10T15:11:24Z</time>
      </trkpt>
      <trkpt lat="44.49457" lon="1.83727">
        <ele>260.2</ele>
        <time>2022-04-10T15:11:25Z</time>
      </trkpt>
      <trkpt lat="44.49449" lon="1.83732">
        <ele>259.4</ele>
        <time>2022-04-10T15:11:26Z</time>
      </trkpt>
      <trkpt lat="44.49442" lon="1.83737">
        <ele>258.7</ele>
        <time>2022-04-10T15:11:27Z</time>
      </trkpt>
      <trkpt lat="44.49438" lon="1.8374">
        <ele>258.3</ele>
        <time>2022-04-10T15:11:28Z</time>
      </trkpt>
      <trkpt lat="44.49434" lon="1.83741">
        <ele>258</ele>
        <time>2022-04-10T15:11:29Z</time>
      </trkpt>
      <trkpt lat="44.49433" lon="1.83741">
        <ele>257.9</ele>
        <time>2022-04-10T15:11:30Z</time>
      </trkpt>
      <trkpt lat="44.49429" lon="1.83743">
        <ele>257.7</ele>
        <time>2022-04-10T15:11:31Z</time>
      </trkpt>
      <trkpt lat="44.49427" lon="1.83744">
        <ele>257.5</ele>
        <time>2022-04-10T15:11:32Z</time>
      </trkpt>
      <trkpt lat="44.49426" lon="1.83745">
        <ele>257.4</ele>
        <time>2022-04-10T15:11:33Z</time>
      </trkpt>
      <trkpt lat="44.49426" lon="1.83745">
        <ele>257.4</ele>
        <time>2022-04-10T15:11:34Z</time>
      </trkpt>
      <trkpt lat="44.49426" lon="1.83745">
        <ele>257.4</ele>
        <time>2022-04-10T15:11:35Z</time>
      </trkpt>
      <trkpt lat="44.49426" lon="1.83745">
        <ele>257.4</ele>
        <time>2022-04-10T15:11:36Z</time>
      </trkpt>
      <trkpt lat="44.49425" lon="1.83745">
        <ele>257.3</ele>
        <time>2022-04-10T15:11:37Z</time>
      </trkpt>
      <trkpt lat="44.49426" lon="1.83745">
        <ele>257.3</ele>
        <time>2022-04-10T15:11:38Z</time>
      </trkpt>
      <trkpt lat="44.49426" lon="1.83745">
        <ele>257.3</ele>
        <time>2022-04-10T15:11:40Z</time>
      </trkpt>
      <trkpt lat="44.49426" lon="1.83745">
        <ele>257.3</ele>
        <time>2022-04-10T15:11:41Z</time>
      </trkpt>
      <trkpt lat="44.49426" lon="1.83745">
        <ele>257.3</ele>
        <time>2022-04-10T15:11:42Z</time>
      </trkpt>
      <trkpt lat="44.49419" lon="1.83737">
        <ele>256.5</ele>
        <time>2022-04-10T15:12:02Z</time>
      </trkpt>
      <trkpt lat="44.49419" lon="1.83736">
        <ele>256.4</ele>
        <time>2022-04-10T15:12:03Z</time>
      </trkpt>
      <trkpt lat="44.49417" lon="1.83734">
        <ele>256.3</ele>
        <time>2022-04-10T15:12:04Z</time>
      </trkpt>
      <trkpt lat="44.49416" lon="1.83732">
        <ele>256.1</ele>
        <time>2022-04-10T15:12:05Z</time>
      </trkpt>
      <trkpt lat="44.49415" lon="1.83732">
        <ele>256.1</ele>
        <time>2022-04-10T15:12:06Z</time>
      </trkpt>
      <trkpt lat="44.49415" lon="1.83731">
        <ele>256</ele>
        <time>2022-04-10T15:12:07Z</time>
      </trkpt>
      <trkpt lat="44.49414" lon="1.8373">
        <ele>256</ele>
        <time>2022-04-10T15:12:08Z</time>
      </trkpt>
      <trkpt lat="44.49411" lon="1.83728">
        <ele>255.7</ele>
        <time>2022-04-10T15:12:09Z</time>
      </trkpt>
      <trkpt lat="44.49408" lon="1.83726">
        <ele>255.5</ele>
        <time>2022-04-10T15:12:10Z</time>
      </trkpt>
      <trkpt lat="44.49405" lon="1.83724">
        <ele>255.3</ele>
        <time>2022-04-10T15:12:11Z</time>
      </trkpt>
      <trkpt lat="44.49402" lon="1.83721">
        <ele>255</ele>
        <time>2022-04-10T15:12:12Z</time>
      </trkpt>
      <trkpt lat="44.49399" lon="1.8372">
        <ele>254.8</ele>
        <time>2022-04-10T15:12:13Z</time>
      </trkpt>
      <trkpt lat="44.49395" lon="1.83718">
        <ele>254.6</ele>
        <time>2022-04-10T15:12:14Z</time>
      </trkpt>
      <trkpt lat="44.49391" lon="1.83716">
        <ele>254.3</ele>
        <time>2022-04-10T15:12:15Z</time>
      </trkpt>
      <trkpt lat="44.49386" lon="1.83715">
        <ele>254.2</ele>
        <time>2022-04-10T15:12:16Z</time>
      </trkpt>
      <trkpt lat="44.49384" lon="1.83716">
        <ele>254.2</ele>
        <time>2022-04-10T15:12:17Z</time>
      </trkpt>
      <trkpt lat="44.49384" lon="1.83716">
        <ele>254.2</ele>
        <time>2022-04-10T15:12:18Z</time>
      </trkpt>
      <trkpt lat="44.49384" lon="1.83716">
        <ele>254.2</ele>
        <time>2022-04-10T15:12:19Z</time>
      </trkpt>
      <trkpt lat="44.49384" lon="1.83716">
        <ele>254.2</ele>
        <time>2022-04-10T15:12:20Z</time>
      </trkpt>
      <trkpt lat="44.49383" lon="1.83714">
        <ele>254.1</ele>
        <time>2022-04-10T15:12:21Z</time>
      </trkpt>
      <trkpt lat="44.49383" lon="1.83713">
        <ele>254.1</ele>
        <time>2022-04-10T15:12:22Z</time>
      </trkpt>
      <trkpt lat="44.49383" lon="1.83713">
        <ele>254.1</ele>
        <time>2022-04-10T15:12:23Z</time>
      </trkpt>
      <trkpt lat="44.49383" lon="1.83712">
        <ele>254.1</ele>
        <time>2022-04-10T15:12:24Z</time>
      </trkpt>
      <trkpt lat="44.49383" lon="1.83713">
        <ele>254.1</ele>
        <time>2022-04-10T15:12:25Z</time>
      </trkpt>
      <trkpt lat="44.49383" lon="1.83713">
        <ele>254.1</ele>
        <time>2022-04-10T15:12:26Z</time>
      </trkpt>
      <trkpt lat="44.49383" lon="1.83713">
        <ele>254.1</ele>
        <time>2022-04-10T15:12:27Z</time>
      </trkpt>
      <trkpt lat="44.49384" lon="1.83713">
        <ele>254.1</ele>
        <time>2022-04-10T15:12:39Z</time>
      </trkpt>
      <trkpt lat="44.49385" lon="1.83713">
        <ele>254.1</ele>
        <time>2022-04-10T15:12:41Z</time>
      </trkpt>
      <trkpt lat="44.49386" lon="1.83711">
        <ele>254</ele>
        <time>2022-04-10T15:12:42Z</time>
      </trkpt>
      <trkpt lat="44.49386" lon="1.83708">
        <ele>254</ele>
        <time>2022-04-10T15:12:43Z</time>
      </trkpt>
      <trkpt lat="44.49385" lon="1.83704">
        <ele>254</ele>
        <time>2022-04-10T15:12:45Z</time>
      </trkpt>
      <trkpt lat="44.49384" lon="1.83703">
        <ele>254</ele>
        <time>2022-04-10T15:12:46Z</time>
      </trkpt>
      <trkpt lat="44.49384" lon="1.83704">
        <ele>254</ele>
        <time>2022-04-10T15:12:47Z</time>
      </trkpt>
      <trkpt lat="44.49383" lon="1.83705">
        <ele>254</ele>
        <time>2022-04-10T15:12:48Z</time>
      </trkpt>
      <trkpt lat="44.49383" lon="1.83706">
        <ele>254</ele>
        <time>2022-04-10T15:12:49Z</time>
      </trkpt>
      <trkpt lat="44.49383" lon="1.83707">
        <ele>254</ele>
        <time>2022-04-10T15:12:51Z</time>
      </trkpt>
      <trkpt lat="44.49382" lon="1.83708">
        <ele>254</ele>
        <time>2022-04-10T15:12:52Z</time>
      </trkpt>
      <trkpt lat="44.49382" lon="1.83709">
        <ele>254</ele>
        <time>2022-04-10T15:12:53Z</time>
      </trkpt>
      <trkpt lat="44.49381" lon="1.8371">
        <ele>254</ele>
        <time>2022-04-10T15:12:54Z</time>
      </trkpt>
      <trkpt lat="44.49381" lon="1.83711">
        <ele>254</ele>
        <time>2022-04-10T15:12:55Z</time>
      </trkpt>
      <trkpt lat="44.49381" lon="1.83712">
        <ele>254</ele>
        <time>2022-04-10T15:12:57Z</time>
      </trkpt>
      <trkpt lat="44.4938" lon="1.83713">
        <ele>254</ele>
        <time>2022-04-10T15:13:09Z</time>
      </trkpt>
      <trkpt lat="44.4938" lon="1.83714">
        <ele>254</ele>
        <time>2022-04-10T15:13:10Z</time>
      </trkpt>
      <trkpt lat="44.4938" lon="1.83715">
        <ele>254</ele>
        <time>2022-04-10T15:13:11Z</time>
      </trkpt>
      <trkpt lat="44.49375" lon="1.83713">
        <ele>254</ele>
        <time>2022-04-10T15:13:12Z</time>
      </trkpt>
      <trkpt lat="44.49373" lon="1.83712">
        <ele>254.1</ele>
        <time>2022-04-10T15:13:13Z</time>
      </trkpt>
      <trkpt lat="44.49369" lon="1.8371">
        <ele>254.1</ele>
        <time>2022-04-10T15:13:14Z</time>
      </trkpt>
      <trkpt lat="44.49365" lon="1.83708">
        <ele>254.2</ele>
        <time>2022-04-10T15:13:15Z</time>
      </trkpt>
      <trkpt lat="44.49361" lon="1.83707">
        <ele>254.2</ele>
        <time>2022-04-10T15:13:16Z</time>
      </trkpt>
      <trkpt lat="44.49358" lon="1.83707">
        <ele>254.3</ele>
        <time>2022-04-10T15:13:18Z</time>
      </trkpt>
      <trkpt lat="44.49353" lon="1.83705">
        <ele>254.3</ele>
        <time>2022-04-10T15:13:19Z</time>
      </trkpt>
      <trkpt lat="44.49351" lon="1.83704">
        <ele>254.3</ele>
        <time>2022-04-10T15:13:20Z</time>
      </trkpt>
      <trkpt lat="44.49347" lon="1.83702">
        <ele>254.2</ele>
        <time>2022-04-10T15:13:22Z</time>
      </trkpt>
      <trkpt lat="44.49343" lon="1.837">
        <ele>254</ele>
        <time>2022-04-10T15:13:23Z</time>
      </trkpt>
      <trkpt lat="44.4934" lon="1.83698">
        <ele>253.9</ele>
        <time>2022-04-10T15:13:24Z</time>
      </trkpt>
      <trkpt lat="44.49337" lon="1.83697">
        <ele>253.6</ele>
        <time>2022-04-10T15:13:25Z</time>
      </trkpt>
      <trkpt lat="44.49332" lon="1.83694">
        <ele>253.2</ele>
        <time>2022-04-10T15:13:26Z</time>
      </trkpt>
      <trkpt lat="44.49327" lon="1.83693">
        <ele>252.7</ele>
        <time>2022-04-10T15:13:27Z</time>
      </trkpt>
      <trkpt lat="44.49323" lon="1.8369">
        <ele>252.3</ele>
        <time>2022-04-10T15:13:29Z</time>
      </trkpt>
      <trkpt lat="44.49318" lon="1.83692">
        <ele>251.6</ele>
        <time>2022-04-10T15:13:30Z</time>
      </trkpt>
      <trkpt lat="44.49314" lon="1.83692">
        <ele>251.2</ele>
        <time>2022-04-10T15:13:31Z</time>
      </trkpt>
      <trkpt lat="44.49312" lon="1.83687">
        <ele>250.5</ele>
        <time>2022-04-10T15:13:32Z</time>
      </trkpt>
      <trkpt lat="44.49309" lon="1.83683">
        <ele>250</ele>
        <time>2022-04-10T15:13:33Z</time>
      </trkpt>
      <trkpt lat="44.49304" lon="1.83681">
        <ele>249.4</ele>
        <time>2022-04-10T15:13:34Z</time>
      </trkpt>
      <trkpt lat="44.493" lon="1.83679">
        <ele>248.8</ele>
        <time>2022-04-10T15:13:35Z</time>
      </trkpt>
      <trkpt lat="44.49295" lon="1.83676">
        <ele>247.9</ele>
        <time>2022-04-10T15:13:36Z</time>
      </trkpt>
      <trkpt lat="44.49291" lon="1.83675">
        <ele>247.5</ele>
        <time>2022-04-10T15:13:37Z</time>
      </trkpt>
      <trkpt lat="44.49287" lon="1.83673">
        <ele>246.8</ele>
        <time>2022-04-10T15:13:38Z</time>
      </trkpt>
      <trkpt lat="44.49282" lon="1.83672">
        <ele>246.1</ele>
        <time>2022-04-10T15:13:39Z</time>
      </trkpt>
      <trkpt lat="44.4928" lon="1.83672">
        <ele>245.7</ele>
        <time>2022-04-10T15:13:40Z</time>
      </trkpt>
      <trkpt lat="44.49275" lon="1.83671">
        <ele>244.8</ele>
        <time>2022-04-10T15:13:41Z</time>
      </trkpt>
      <trkpt lat="44.4927" lon="1.8367">
        <ele>244.1</ele>
        <time>2022-04-10T15:13:42Z</time>
      </trkpt>
      <trkpt lat="44.49266" lon="1.8367">
        <ele>243.4</ele>
        <time>2022-04-10T15:13:43Z</time>
      </trkpt>
      <trkpt lat="44.4926" lon="1.83668">
        <ele>242.5</ele>
        <time>2022-04-10T15:13:44Z</time>
      </trkpt>
      <trkpt lat="44.49255" lon="1.83667">
        <ele>241.6</ele>
        <time>2022-04-10T15:13:45Z</time>
      </trkpt>
      <trkpt lat="44.49249" lon="1.83667">
        <ele>240.7</ele>
        <time>2022-04-10T15:13:46Z</time>
      </trkpt>
      <trkpt lat="44.49243" lon="1.83667">
        <ele>239.7</ele>
        <time>2022-04-10T15:13:47Z</time>
      </trkpt>
      <trkpt lat="44.49237" lon="1.83666">
        <ele>238.7</ele>
        <time>2022-04-10T15:13:48Z</time>
      </trkpt>
      <trkpt lat="44.49231" lon="1.83664">
        <ele>237.8</ele>
        <time>2022-04-10T15:13:49Z</time>
      </trkpt>
      <trkpt lat="44.49225" lon="1.83661">
        <ele>236.8</ele>
        <time>2022-04-10T15:13:50Z</time>
      </trkpt>
      <trkpt lat="44.49218" lon="1.83656">
        <ele>235.7</ele>
        <time>2022-04-10T15:13:51Z</time>
      </trkpt>
      <trkpt lat="44.49211" lon="1.83651">
        <ele>234.6</ele>
        <time>2022-04-10T15:13:52Z</time>
      </trkpt>
      <trkpt lat="44.49204" lon="1.83645">
        <ele>233.6</ele>
        <time>2022-04-10T15:13:53Z</time>
      </trkpt>
      <trkpt lat="44.49198" lon="1.83639">
        <ele>232.8</ele>
        <time>2022-04-10T15:13:54Z</time>
      </trkpt>
      <trkpt lat="44.49194" lon="1.83634">
        <ele>232.2</ele>
        <time>2022-04-10T15:13:55Z</time>
      </trkpt>
      <trkpt lat="44.49192" lon="1.8363">
        <ele>231.9</ele>
        <time>2022-04-10T15:13:56Z</time>
      </trkpt>
      <trkpt lat="44.4919" lon="1.83626">
        <ele>231.4</ele>
        <time>2022-04-10T15:13:57Z</time>
      </trkpt>
      <trkpt lat="44.49189" lon="1.83624">
        <ele>231.3</ele>
        <time>2022-04-10T15:13:58Z</time>
      </trkpt>
      <trkpt lat="44.49188" lon="1.8362">
        <ele>231</ele>
        <time>2022-04-10T15:13:59Z</time>
      </trkpt>
      <trkpt lat="44.49187" lon="1.83618">
        <ele>230.9</ele>
        <time>2022-04-10T15:14:00Z</time>
      </trkpt>
      <trkpt lat="44.49187" lon="1.83617">
        <ele>230.8</ele>
        <time>2022-04-10T15:14:01Z</time>
      </trkpt>
      <trkpt lat="44.49186" lon="1.83618">
        <ele>230.7</ele>
        <time>2022-04-10T15:14:02Z</time>
      </trkpt>
      <trkpt lat="44.49186" lon="1.83618">
        <ele>230.6</ele>
        <time>2022-04-10T15:14:03Z</time>
      </trkpt>
      <trkpt lat="44.49185" lon="1.83619">
        <ele>230.5</ele>
        <time>2022-04-10T15:14:04Z</time>
      </trkpt>
      <trkpt lat="44.49184" lon="1.83621">
        <ele>230.4</ele>
        <time>2022-04-10T15:14:05Z</time>
      </trkpt>
      <trkpt lat="44.49184" lon="1.83621">
        <ele>230.4</ele>
        <time>2022-04-10T15:14:06Z</time>
      </trkpt>
      <trkpt lat="44.49184" lon="1.83621">
        <ele>230.4</ele>
        <time>2022-04-10T15:14:07Z</time>
      </trkpt>
      <trkpt lat="44.49184" lon="1.83621">
        <ele>230.3</ele>
        <time>2022-04-10T15:14:08Z</time>
      </trkpt>
      <trkpt lat="44.49184" lon="1.83622">
        <ele>230.3</ele>
        <time>2022-04-10T15:14:09Z</time>
      </trkpt>
      <trkpt lat="44.49184" lon="1.83622">
        <ele>230.3</ele>
        <time>2022-04-10T15:14:10Z</time>
      </trkpt>
      <trkpt lat="44.49184" lon="1.83622">
        <ele>230.3</ele>
        <time>2022-04-10T15:14:11Z</time>
      </trkpt>
      <trkpt lat="44.49184" lon="1.83622">
        <ele>230.3</ele>
        <time>2022-04-10T15:14:12Z</time>
      </trkpt>
      <trkpt lat="44.49182" lon="1.83628">
        <ele>229.8</ele>
        <time>2022-04-10T15:14:23Z</time>
      </trkpt>
      <trkpt lat="44.4918" lon="1.83632">
        <ele>229.6</ele>
        <time>2022-04-10T15:14:24Z</time>
      </trkpt>
      <trkpt lat="44.49179" lon="1.83634">
        <ele>229.4</ele>
        <time>2022-04-10T15:14:25Z</time>
      </trkpt>
      <trkpt lat="44.49179" lon="1.83635">
        <ele>229.4</ele>
        <time>2022-04-10T15:14:26Z</time>
      </trkpt>
      <trkpt lat="44.49179" lon="1.83635">
        <ele>229.3</ele>
        <time>2022-04-10T15:14:27Z</time>
      </trkpt>
      <trkpt lat="44.4918" lon="1.83632">
        <ele>229.1</ele>
        <time>2022-04-10T15:14:28Z</time>
      </trkpt>
      <trkpt lat="44.4918" lon="1.83631">
        <ele>229</ele>
        <time>2022-04-10T15:14:29Z</time>
      </trkpt>
      <trkpt lat="44.4918" lon="1.83631">
        <ele>229</ele>
        <time>2022-04-10T15:14:30Z</time>
      </trkpt>
      <trkpt lat="44.4918" lon="1.83632">
        <ele>229</ele>
        <time>2022-04-10T15:14:31Z</time>
      </trkpt>
      <trkpt lat="44.4918" lon="1.83633">
        <ele>228.9</ele>
        <time>2022-04-10T15:14:32Z</time>
      </trkpt>
      <trkpt lat="44.4918" lon="1.83633">
        <ele>228.9</ele>
        <time>2022-04-10T15:14:33Z</time>
      </trkpt>
      <trkpt lat="44.4918" lon="1.83634">
        <ele>228.8</ele>
        <time>2022-04-10T15:14:34Z</time>
      </trkpt>
      <trkpt lat="44.4918" lon="1.83635">
        <ele>228.8</ele>
        <time>2022-04-10T15:14:36Z</time>
      </trkpt>
      <trkpt lat="44.4918" lon="1.83636">
        <ele>228.7</ele>
        <time>2022-04-10T15:14:37Z</time>
      </trkpt>
      <trkpt lat="44.4918" lon="1.83641">
        <ele>228.5</ele>
        <time>2022-04-10T15:14:38Z</time>
      </trkpt>
      <trkpt lat="44.4918" lon="1.83642">
        <ele>228.4</ele>
        <time>2022-04-10T15:14:39Z</time>
      </trkpt>
      <trkpt lat="44.4918" lon="1.83643">
        <ele>228.3</ele>
        <time>2022-04-10T15:14:40Z</time>
      </trkpt>
      <trkpt lat="44.4918" lon="1.83645">
        <ele>228.3</ele>
        <time>2022-04-10T15:14:42Z</time>
      </trkpt>
      <trkpt lat="44.4918" lon="1.83646">
        <ele>228.2</ele>
        <time>2022-04-10T15:14:43Z</time>
      </trkpt>
      <trkpt lat="44.4918" lon="1.83647">
        <ele>228.1</ele>
        <time>2022-04-10T15:14:44Z</time>
      </trkpt>
      <trkpt lat="44.4918" lon="1.83649">
        <ele>228.1</ele>
        <time>2022-04-10T15:14:45Z</time>
      </trkpt>
      <trkpt lat="44.4918" lon="1.8365">
        <ele>228</ele>
        <time>2022-04-10T15:14:46Z</time>
      </trkpt>
      <trkpt lat="44.4918" lon="1.83651">
        <ele>227.9</ele>
        <time>2022-04-10T15:14:47Z</time>
      </trkpt>
      <trkpt lat="44.4918" lon="1.83653">
        <ele>227.9</ele>
        <time>2022-04-10T15:15:00Z</time>
      </trkpt>
      <trkpt lat="44.4918" lon="1.83654">
        <ele>227.8</ele>
        <time>2022-04-10T15:15:01Z</time>
      </trkpt>
      <trkpt lat="44.49177" lon="1.83657">
        <ele>227.6</ele>
        <time>2022-04-10T15:15:02Z</time>
      </trkpt>
      <trkpt lat="44.49175" lon="1.83659">
        <ele>227.5</ele>
        <time>2022-04-10T15:15:03Z</time>
      </trkpt>
      <trkpt lat="44.49174" lon="1.8366">
        <ele>227.4</ele>
        <time>2022-04-10T15:15:04Z</time>
      </trkpt>
      <trkpt lat="44.49174" lon="1.8366">
        <ele>227.4</ele>
        <time>2022-04-10T15:15:05Z</time>
      </trkpt>
      <trkpt lat="44.49175" lon="1.8366">
        <ele>227.3</ele>
        <time>2022-04-10T15:15:07Z</time>
      </trkpt>
      <trkpt lat="44.49175" lon="1.83661">
        <ele>227.3</ele>
        <time>2022-04-10T15:15:08Z</time>
      </trkpt>
      <trkpt lat="44.49175" lon="1.83661">
        <ele>227.3</ele>
        <time>2022-04-10T15:15:09Z</time>
      </trkpt>
      <trkpt lat="44.49175" lon="1.83661">
        <ele>227.3</ele>
        <time>2022-04-10T15:15:10Z</time>
      </trkpt>
      <trkpt lat="44.49175" lon="1.83661">
        <ele>227.3</ele>
        <time>2022-04-10T15:15:11Z</time>
      </trkpt>
      <trkpt lat="44.49175" lon="1.83661">
        <ele>227.3</ele>
        <time>2022-04-10T15:15:12Z</time>
      </trkpt>
      <trkpt lat="44.49175" lon="1.83661">
        <ele>227.3</ele>
        <time>2022-04-10T15:15:13Z</time>
      </trkpt>
      <trkpt lat="44.49175" lon="1.83661">
        <ele>227.3</ele>
        <time>2022-04-10T15:15:14Z</time>
      </trkpt>
      <trkpt lat="44.49178" lon="1.83663">
        <ele>227.1</ele>
        <time>2022-04-10T15:19:07Z</time>
      </trkpt>
      <trkpt lat="44.4918" lon="1.83665">
        <ele>226.9</ele>
        <time>2022-04-10T15:19:08Z</time>
      </trkpt>
      <trkpt lat="44.4918" lon="1.83666">
        <ele>226.9</ele>
        <time>2022-04-10T15:19:09Z</time>
      </trkpt>
      <trkpt lat="44.49181" lon="1.83667">
        <ele>226.8</ele>
        <time>2022-04-10T15:19:10Z</time>
      </trkpt>
      <trkpt lat="44.49181" lon="1.83667">
        <ele>226.8</ele>
        <time>2022-04-10T15:19:11Z</time>
      </trkpt>
      <trkpt lat="44.49181" lon="1.83667">
        <ele>226.8</ele>
        <time>2022-04-10T15:19:12Z</time>
      </trkpt>
      <trkpt lat="44.49181" lon="1.83667">
        <ele>226.8</ele>
        <time>2022-04-10T15:19:13Z</time>
      </trkpt>
      <trkpt lat="44.49181" lon="1.83667">
        <ele>226.8</ele>
        <time>2022-04-10T15:19:14Z</time>
      </trkpt>
      <trkpt lat="44.49181" lon="1.83667">
        <ele>226.8</ele>
        <time>2022-04-10T15:19:15Z</time>
      </trkpt>
      <trkpt lat="44.49181" lon="1.83667">
        <ele>226.8</ele>
        <time>2022-04-10T15:19:16Z</time>
      </trkpt>
      <trkpt lat="44.49181" lon="1.83667">
        <ele>226.8</ele>
        <time>2022-04-10T15:19:17Z</time>
      </trkpt>
      <trkpt lat="44.49181" lon="1.83667">
        <ele>226.8</ele>
        <time>2022-04-10T15:19:18Z</time>
      </trkpt>
      <trkpt lat="44.49181" lon="1.83667">
        <ele>226.8</ele>
        <time>2022-04-10T15:19:19Z</time>
      </trkpt>
      <trkpt lat="44.49181" lon="1.83667">
        <ele>226.8</ele>
        <time>2022-04-10T15:19:20Z</time>
      </trkpt>
      <trkpt lat="44.49181" lon="1.83667">
        <ele>226.8</ele>
        <time>2022-04-10T15:19:21Z</time>
      </trkpt>
      <trkpt lat="44.49181" lon="1.83667">
        <ele>226.8</ele>
        <time>2022-04-10T15:19:22Z</time>
      </trkpt>
      <trkpt lat="44.49181" lon="1.83667">
        <ele>226.8</ele>
        <time>2022-04-10T15:19:23Z</time>
      </trkpt>
      <trkpt lat="44.49181" lon="1.83667">
        <ele>226.8</ele>
        <time>2022-04-10T15:19:24Z</time>
      </trkpt>
      <trkpt lat="44.49181" lon="1.83667">
        <ele>226.8</ele>
        <time>2022-04-10T15:19:25Z</time>
      </trkpt>
      <trkpt lat="44.49181" lon="1.83667">
        <ele>226.8</ele>
        <time>2022-04-10T15:19:26Z</time>
      </trkpt>
      <trkpt lat="44.49181" lon="1.83667">
        <ele>226.8</ele>
        <time>2022-04-10T15:19:27Z</time>
      </trkpt>
      <trkpt lat="44.49181" lon="1.83667">
        <ele>226.8</ele>
        <time>2022-04-10T15:19:28Z</time>
      </trkpt>
      <trkpt lat="44.49181" lon="1.83667">
        <ele>226.8</ele>
        <time>2022-04-10T15:19:29Z</time>
      </trkpt>
      <trkpt lat="44.49181" lon="1.83667">
        <ele>226.8</ele>
        <time>2022-04-10T15:19:30Z</time>
      </trkpt>
      <trkpt lat="44.49181" lon="1.83667">
        <ele>226.8</ele>
        <time>2022-04-10T15:19:31Z</time>
      </trkpt>
      <trkpt lat="44.49181" lon="1.83667">
        <ele>226.8</ele>
        <time>2022-04-10T15:19:32Z</time>
      </trkpt>
      <trkpt lat="44.49181" lon="1.83667">
        <ele>226.8</ele>
        <time>2022-04-10T15:19:33Z</time>
      </trkpt>
      <trkpt lat="44.49181" lon="1.83667">
        <ele>226.8</ele>
        <time>2022-04-10T15:19:34Z</time>
      </trkpt>
      <trkpt lat="44.49181" lon="1.83667">
        <ele>226.8</ele>
        <time>2022-04-10T15:19:35Z</time>
      </trkpt>
      <trkpt lat="44.49181" lon="1.83667">
        <ele>226.8</ele>
        <time>2022-04-10T15:19:36Z</time>
      </trkpt>
      <trkpt lat="44.49181" lon="1.83667">
        <ele>226.8</ele>
        <time>2022-04-10T15:19:37Z</time>
      </trkpt>
      <trkpt lat="44.49181" lon="1.83666">
        <ele>226.8</ele>
        <time>2022-04-10T15:19:38Z</time>
      </trkpt>
      <trkpt lat="44.49181" lon="1.83666">
        <ele>226.8</ele>
        <time>2022-04-10T15:19:39Z</time>
      </trkpt>
      <trkpt lat="44.49181" lon="1.83666">
        <ele>226.8</ele>
        <time>2022-04-10T15:19:40Z</time>
      </trkpt>
      <trkpt lat="44.49181" lon="1.83666">
        <ele>226.8</ele>
        <time>2022-04-10T15:19:41Z</time>
      </trkpt>
      <trkpt lat="44.49181" lon="1.83666">
        <ele>226.8</ele>
        <time>2022-04-10T15:19:42Z</time>
      </trkpt>
      <trkpt lat="44.49181" lon="1.83666">
        <ele>226.8</ele>
        <time>2022-04-10T15:19:43Z</time>
      </trkpt>
      <trkpt lat="44.49181" lon="1.83666">
        <ele>226.8</ele>
        <time>2022-04-10T15:19:44Z</time>
      </trkpt>
      <trkpt lat="44.49181" lon="1.83666">
        <ele>226.8</ele>
        <time>2022-04-10T15:19:45Z</time>
      </trkpt>
      <trkpt lat="44.49181" lon="1.83666">
        <ele>226.8</ele>
        <time>2022-04-10T15:19:46Z</time>
      </trkpt>
      <trkpt lat="44.49181" lon="1.83666">
        <ele>226.8</ele>
        <time>2022-04-10T15:19:47Z</time>
      </trkpt>
      <trkpt lat="44.49181" lon="1.83666">
        <ele>226.8</ele>
        <time>2022-04-10T15:19:48Z</time>
      </trkpt>
      <trkpt lat="44.49181" lon="1.83666">
        <ele>226.8</ele>
        <time>2022-04-10T15:19:49Z</time>
      </trkpt>
      <trkpt lat="44.49181" lon="1.83666">
        <ele>226.8</ele>
        <time>2022-04-10T15:19:50Z</time>
      </trkpt>
      <trkpt lat="44.49181" lon="1.83666">
        <ele>226.8</ele>
        <time>2022-04-10T15:19:51Z</time>
      </trkpt>
      <trkpt lat="44.49181" lon="1.83666">
        <ele>226.8</ele>
        <time>2022-04-10T15:19:52Z</time>
      </trkpt>
      <trkpt lat="44.49181" lon="1.83666">
        <ele>226.8</ele>
        <time>2022-04-10T15:19:53Z</time>
      </trkpt>
      <trkpt lat="44.49181" lon="1.83666">
        <ele>226.8</ele>
        <time>2022-04-10T15:19:54Z</time>
      </trkpt>
      <trkpt lat="44.49181" lon="1.83666">
        <ele>226.8</ele>
        <time>2022-04-10T15:19:55Z</time>
      </trkpt>
      <trkpt lat="44.49181" lon="1.83666">
        <ele>226.8</ele>
        <time>2022-04-10T15:19:56Z</time>
      </trkpt>
      <trkpt lat="44.49181" lon="1.83666">
        <ele>226.8</ele>
        <time>2022-04-10T15:19:57Z</time>
      </trkpt>
      <trkpt lat="44.49181" lon="1.83666">
        <ele>226.8</ele>
        <time>2022-04-10T15:19:58Z</time>
      </trkpt>
      <trkpt lat="44.49181" lon="1.83666">
        <ele>226.8</ele>
        <time>2022-04-10T15:19:59Z</time>
      </trkpt>
      <trkpt lat="44.49181" lon="1.83666">
        <ele>226.8</ele>
        <time>2022-04-10T15:20:00Z</time>
      </trkpt>
      <trkpt lat="44.49181" lon="1.83666">
        <ele>226.8</ele>
        <time>2022-04-10T15:20:01Z</time>
      </trkpt>
      <trkpt lat="44.49181" lon="1.83666">
        <ele>226.8</ele>
        <time>2022-04-10T15:20:02Z</time>
      </trkpt>
      <trkpt lat="44.49181" lon="1.83666">
        <ele>226.8</ele>
        <time>2022-04-10T15:20:03Z</time>
      </trkpt>
      <trkpt lat="44.49181" lon="1.83666">
        <ele>226.8</ele>
        <time>2022-04-10T15:20:04Z</time>
      </trkpt>
      <trkpt lat="44.49181" lon="1.83666">
        <ele>226.8</ele>
        <time>2022-04-10T15:20:05Z</time>
      </trkpt>
      <trkpt lat="44.49181" lon="1.83666">
        <ele>226.8</ele>
        <time>2022-04-10T15:20:06Z</time>
      </trkpt>
      <trkpt lat="44.49181" lon="1.83666">
        <ele>226.8</ele>
        <time>2022-04-10T15:20:07Z</time>
      </trkpt>
      <trkpt lat="44.49181" lon="1.83666">
        <ele>226.8</ele>
        <time>2022-04-10T15:20:08Z</time>
      </trkpt>
      <trkpt lat="44.49181" lon="1.83666">
        <ele>226.8</ele>
        <time>2022-04-10T15:20:09Z</time>
      </trkpt>
      <trkpt lat="44.49181" lon="1.83666">
        <ele>226.8</ele>
        <time>2022-04-10T15:20:10Z</time>
      </trkpt>
      <trkpt lat="44.49181" lon="1.83666">
        <ele>226.8</ele>
        <time>2022-04-10T15:20:11Z</time>
      </trkpt>
      <trkpt lat="44.49181" lon="1.83666">
        <ele>226.8</ele>
        <time>2022-04-10T15:20:12Z</time>
      </trkpt>
      <trkpt lat="44.49181" lon="1.83666">
        <ele>226.8</ele>
        <time>2022-04-10T15:20:13Z</time>
      </trkpt>
      <trkpt lat="44.49181" lon="1.83666">
        <ele>226.8</ele>
        <time>2022-04-10T15:20:14Z</time>
      </trkpt>
      <trkpt lat="44.49181" lon="1.83666">
        <ele>226.8</ele>
        <time>2022-04-10T15:20:15Z</time>
      </trkpt>
      <trkpt lat="44.49181" lon="1.83666">
        <ele>226.8</ele>
        <time>2022-04-10T15:20:16Z</time>
      </trkpt>
      <trkpt lat="44.49181" lon="1.83666">
        <ele>226.8</ele>
        <time>2022-04-10T15:20:17Z</time>
      </trkpt>
      <trkpt lat="44.49181" lon="1.83666">
        <ele>226.8</ele>
        <time>2022-04-10T15:20:18Z</time>
      </trkpt>
      <trkpt lat="44.49181" lon="1.83666">
        <ele>226.8</ele>
        <time>2022-04-10T15:20:19Z</time>
      </trkpt>
      <trkpt lat="44.49181" lon="1.83666">
        <ele>226.8</ele>
        <time>2022-04-10T15:20:20Z</time>
      </trkpt>
      <trkpt lat="44.49181" lon="1.83666">
        <ele>226.8</ele>
        <time>2022-04-10T15:20:21Z</time>
      </trkpt>
      <trkpt lat="44.49181" lon="1.83666">
        <ele>226.8</ele>
        <time>2022-04-10T15:20:22Z</time>
      </trkpt>
      <trkpt lat="44.49181" lon="1.83665">
        <ele>226.8</ele>
        <time>2022-04-10T15:20:23Z</time>
      </trkpt>
      <trkpt lat="44.49181" lon="1.83665">
        <ele>226.8</ele>
        <time>2022-04-10T15:20:24Z</time>
      </trkpt>
      <trkpt lat="44.49181" lon="1.83665">
        <ele>226.8</ele>
        <time>2022-04-10T15:20:25Z</time>
      </trkpt>
      <trkpt lat="44.49181" lon="1.83665">
        <ele>226.8</ele>
        <time>2022-04-10T15:20:26Z</time>
      </trkpt>
      <trkpt lat="44.49181" lon="1.83665">
        <ele>226.7</ele>
        <time>2022-04-10T15:20:27Z</time>
      </trkpt>
      <trkpt lat="44.49181" lon="1.83665">
        <ele>226.7</ele>
        <time>2022-04-10T15:20:28Z</time>
      </trkpt>
      <trkpt lat="44.49181" lon="1.83665">
        <ele>226.7</ele>
        <time>2022-04-10T15:20:29Z</time>
      </trkpt>
      <trkpt lat="44.49181" lon="1.83665">
        <ele>226.7</ele>
        <time>2022-04-10T15:20:30Z</time>
      </trkpt>
      <trkpt lat="44.49181" lon="1.83665">
        <ele>226.7</ele>
        <time>2022-04-10T15:20:31Z</time>
      </trkpt>
      <trkpt lat="44.49181" lon="1.83665">
        <ele>226.7</ele>
        <time>2022-04-10T15:20:32Z</time>
      </trkpt>
      <trkpt lat="44.49181" lon="1.83665">
        <ele>226.7</ele>
        <time>2022-04-10T15:20:33Z</time>
      </trkpt>
      <trkpt lat="44.49181" lon="1.83665">
        <ele>226.7</ele>
        <time>2022-04-10T15:20:34Z</time>
      </trkpt>
      <trkpt lat="44.49181" lon="1.83665">
        <ele>226.7</ele>
        <time>2022-04-10T15:20:35Z</time>
      </trkpt>
      <trkpt lat="44.49181" lon="1.83665">
        <ele>226.7</ele>
        <time>2022-04-10T15:20:36Z</time>
      </trkpt>
      <trkpt lat="44.49181" lon="1.83665">
        <ele>226.7</ele>
        <time>2022-04-10T15:20:37Z</time>
      </trkpt>
      <trkpt lat="44.49181" lon="1.83665">
        <ele>226.7</ele>
        <time>2022-04-10T15:20:38Z</time>
      </trkpt>
      <trkpt lat="44.49181" lon="1.83665">
        <ele>226.7</ele>
        <time>2022-04-10T15:20:39Z</time>
      </trkpt>
      <trkpt lat="44.49181" lon="1.83665">
        <ele>226.7</ele>
        <time>2022-04-10T15:20:40Z</time>
      </trkpt>
      <trkpt lat="44.49181" lon="1.83665">
        <ele>226.7</ele>
        <time>2022-04-10T15:20:41Z</time>
      </trkpt>
      <trkpt lat="44.49181" lon="1.83665">
        <ele>226.7</ele>
        <time>2022-04-10T15:20:42Z</time>
      </trkpt>
      <trkpt lat="44.49181" lon="1.83665">
        <ele>226.7</ele>
        <time>2022-04-10T15:20:43Z</time>
      </trkpt>
      <trkpt lat="44.49181" lon="1.83665">
        <ele>226.7</ele>
        <time>2022-04-10T15:20:44Z</time>
      </trkpt>
      <trkpt lat="44.49181" lon="1.83665">
        <ele>226.7</ele>
        <time>2022-04-10T15:20:45Z</time>
      </trkpt>
      <trkpt lat="44.49181" lon="1.83665">
        <ele>226.7</ele>
        <time>2022-04-10T15:20:46Z</time>
      </trkpt>
      <trkpt lat="44.49181" lon="1.83665">
        <ele>226.7</ele>
        <time>2022-04-10T15:20:47Z</time>
      </trkpt>
      <trkpt lat="44.49181" lon="1.83665">
        <ele>226.7</ele>
        <time>2022-04-10T15:20:48Z</time>
      </trkpt>
      <trkpt lat="44.49181" lon="1.83665">
        <ele>226.7</ele>
        <time>2022-04-10T15:20:49Z</time>
      </trkpt>
      <trkpt lat="44.49181" lon="1.83665">
        <ele>226.7</ele>
        <time>2022-04-10T15:20:50Z</time>
      </trkpt>
      <trkpt lat="44.49181" lon="1.83665">
        <ele>226.7</ele>
        <time>2022-04-10T15:20:51Z</time>
      </trkpt>
      <trkpt lat="44.49181" lon="1.83665">
        <ele>226.7</ele>
        <time>2022-04-10T15:20:52Z</time>
      </trkpt>
      <trkpt lat="44.49181" lon="1.83665">
        <ele>226.7</ele>
        <time>2022-04-10T15:20:53Z</time>
      </trkpt>
      <trkpt lat="44.49181" lon="1.83665">
        <ele>226.7</ele>
        <time>2022-04-10T15:20:54Z</time>
      </trkpt>
      <trkpt lat="44.49181" lon="1.83665">
        <ele>226.7</ele>
        <time>2022-04-10T15:20:55Z</time>
      </trkpt>
      <trkpt lat="44.49181" lon="1.83665">
        <ele>226.7</ele>
        <time>2022-04-10T15:20:56Z</time>
      </trkpt>
      <trkpt lat="44.49181" lon="1.83665">
        <ele>226.7</ele>
        <time>2022-04-10T15:20:57Z</time>
      </trkpt>
      <trkpt lat="44.49181" lon="1.83665">
        <ele>226.7</ele>
        <time>2022-04-10T15:20:58Z</time>
      </trkpt>
      <trkpt lat="44.49181" lon="1.83665">
        <ele>226.7</ele>
        <time>2022-04-10T15:20:59Z</time>
      </trkpt>
      <trkpt lat="44.49181" lon="1.83665">
        <ele>226.7</ele>
        <time>2022-04-10T15:21:00Z</time>
      </trkpt>
      <trkpt lat="44.49181" lon="1.83665">
        <ele>226.7</ele>
        <time>2022-04-10T15:21:01Z</time>
      </trkpt>
      <trkpt lat="44.49181" lon="1.83665">
        <ele>226.7</ele>
        <time>2022-04-10T15:21:02Z</time>
      </trkpt>
      <trkpt lat="44.49181" lon="1.83665">
        <ele>226.7</ele>
        <time>2022-04-10T15:21:03Z</time>
      </trkpt>
      <trkpt lat="44.49181" lon="1.83665">
        <ele>226.7</ele>
        <time>2022-04-10T15:21:04Z</time>
      </trkpt>
      <trkpt lat="44.49181" lon="1.83665">
        <ele>226.7</ele>
        <time>2022-04-10T15:21:05Z</time>
      </trkpt>
      <trkpt lat="44.49181" lon="1.83665">
        <ele>226.7</ele>
        <time>2022-04-10T15:21:06Z</time>
      </trkpt>
      <trkpt lat="44.49181" lon="1.83664">
        <ele>226.7</ele>
        <time>2022-04-10T15:21:07Z</time>
      </trkpt>
      <trkpt lat="44.49181" lon="1.83664">
        <ele>226.7</ele>
        <time>2022-04-10T15:21:08Z</time>
      </trkpt>
      <trkpt lat="44.49181" lon="1.83664">
        <ele>226.7</ele>
        <time>2022-04-10T15:21:09Z</time>
      </trkpt>
      <trkpt lat="44.49181" lon="1.83664">
        <ele>226.7</ele>
        <time>2022-04-10T15:21:10Z</time>
      </trkpt>
      <trkpt lat="44.49181" lon="1.83664">
        <ele>226.7</ele>
        <time>2022-04-10T15:21:11Z</time>
      </trkpt>
      <trkpt lat="44.49181" lon="1.83664">
        <ele>226.7</ele>
        <time>2022-04-10T15:21:12Z</time>
      </trkpt>
      <trkpt lat="44.49181" lon="1.83664">
        <ele>226.7</ele>
        <time>2022-04-10T15:21:13Z</time>
      </trkpt>
      <trkpt lat="44.49181" lon="1.83664">
        <ele>226.7</ele>
        <time>2022-04-10T15:21:14Z</time>
      </trkpt>
      <trkpt lat="44.49181" lon="1.83664">
        <ele>226.7</ele>
        <time>2022-04-10T15:21:15Z</time>
      </trkpt>
      <trkpt lat="44.49181" lon="1.83664">
        <ele>226.7</ele>
        <time>2022-04-10T15:21:16Z</time>
      </trkpt>
      <trkpt lat="44.49181" lon="1.83664">
        <ele>226.7</ele>
        <time>2022-04-10T15:21:17Z</time>
      </trkpt>
      <trkpt lat="44.49181" lon="1.83664">
        <ele>226.7</ele>
        <time>2022-04-10T15:21:18Z</time>
      </trkpt>
      <trkpt lat="44.49181" lon="1.83664">
        <ele>226.7</ele>
        <time>2022-04-10T15:21:19Z</time>
      </trkpt>
      <trkpt lat="44.49181" lon="1.83664">
        <ele>226.7</ele>
        <time>2022-04-10T15:21:20Z</time>
      </trkpt>
      <trkpt lat="44.49181" lon="1.83664">
        <ele>226.7</ele>
        <time>2022-04-10T15:21:21Z</time>
      </trkpt>
      <trkpt lat="44.49181" lon="1.83664">
        <ele>226.7</ele>
        <time>2022-04-10T15:21:22Z</time>
      </trkpt>
      <trkpt lat="44.49181" lon="1.83664">
        <ele>226.7</ele>
        <time>2022-04-10T15:21:23Z</time>
      </trkpt>
      <trkpt lat="44.49181" lon="1.83664">
        <ele>226.7</ele>
        <time>2022-04-10T15:21:24Z</time>
      </trkpt>
      <trkpt lat="44.49181" lon="1.83664">
        <ele>226.7</ele>
        <time>2022-04-10T15:21:25Z</time>
      </trkpt>
      <trkpt lat="44.49181" lon="1.83664">
        <ele>226.7</ele>
        <time>2022-04-10T15:21:26Z</time>
      </trkpt>
      <trkpt lat="44.49181" lon="1.83664">
        <ele>226.7</ele>
        <time>2022-04-10T15:21:27Z</time>
      </trkpt>
      <trkpt lat="44.49181" lon="1.83664">
        <ele>226.7</ele>
        <time>2022-04-10T15:21:28Z</time>
      </trkpt>
      <trkpt lat="44.49181" lon="1.83664">
        <ele>226.7</ele>
        <time>2022-04-10T15:21:29Z</time>
      </trkpt>
      <trkpt lat="44.49181" lon="1.83664">
        <ele>226.7</ele>
        <time>2022-04-10T15:21:30Z</time>
      </trkpt>
      <trkpt lat="44.49181" lon="1.83664">
        <ele>226.7</ele>
        <time>2022-04-10T15:21:31Z</time>
      </trkpt>
      <trkpt lat="44.49181" lon="1.83664">
        <ele>226.7</ele>
        <time>2022-04-10T15:21:32Z</time>
      </trkpt>
      <trkpt lat="44.49181" lon="1.83664">
        <ele>226.7</ele>
        <time>2022-04-10T15:21:33Z</time>
      </trkpt>
      <trkpt lat="44.49181" lon="1.83664">
        <ele>226.7</ele>
        <time>2022-04-10T15:21:34Z</time>
      </trkpt>
      <trkpt lat="44.49181" lon="1.83664">
        <ele>226.7</ele>
        <time>2022-04-10T15:21:35Z</time>
      </trkpt>
      <trkpt lat="44.49181" lon="1.83664">
        <ele>226.7</ele>
        <time>2022-04-10T15:21:36Z</time>
      </trkpt>
      <trkpt lat="44.49181" lon="1.83664">
        <ele>226.7</ele>
        <time>2022-04-10T15:21:37Z</time>
      </trkpt>
      <trkpt lat="44.49181" lon="1.83664">
        <ele>226.7</ele>
        <time>2022-04-10T15:21:38Z</time>
      </trkpt>
      <trkpt lat="44.49181" lon="1.83664">
        <ele>226.7</ele>
        <time>2022-04-10T15:21:39Z</time>
      </trkpt>
      <trkpt lat="44.49181" lon="1.83664">
        <ele>226.7</ele>
        <time>2022-04-10T15:21:40Z</time>
      </trkpt>
      <trkpt lat="44.49181" lon="1.83664">
        <ele>226.7</ele>
        <time>2022-04-10T15:21:41Z</time>
      </trkpt>
      <trkpt lat="44.49181" lon="1.83664">
        <ele>226.7</ele>
        <time>2022-04-10T15:21:42Z</time>
      </trkpt>
      <trkpt lat="44.49181" lon="1.83664">
        <ele>226.7</ele>
        <time>2022-04-10T15:21:43Z</time>
      </trkpt>
      <trkpt lat="44.49181" lon="1.83664">
        <ele>226.7</ele>
        <time>2022-04-10T15:21:44Z</time>
      </trkpt>
      <trkpt lat="44.49181" lon="1.83664">
        <ele>226.7</ele>
        <time>2022-04-10T15:21:45Z</time>
      </trkpt>
      <trkpt lat="44.49181" lon="1.83664">
        <ele>226.7</ele>
        <time>2022-04-10T15:21:46Z</time>
      </trkpt>
      <trkpt lat="44.49181" lon="1.83664">
        <ele>226.7</ele>
        <time>2022-04-10T15:21:47Z</time>
      </trkpt>
      <trkpt lat="44.49181" lon="1.83664">
        <ele>226.7</ele>
        <time>2022-04-10T15:21:48Z</time>
      </trkpt>
      <trkpt lat="44.49181" lon="1.83664">
        <ele>226.7</ele>
        <time>2022-04-10T15:21:49Z</time>
      </trkpt>
      <trkpt lat="44.49181" lon="1.83664">
        <ele>226.7</ele>
        <time>2022-04-10T15:21:50Z</time>
      </trkpt>
      <trkpt lat="44.49181" lon="1.83663">
        <ele>226.7</ele>
        <time>2022-04-10T15:21:51Z</time>
      </trkpt>
      <trkpt lat="44.49181" lon="1.83663">
        <ele>226.7</ele>
        <time>2022-04-10T15:21:52Z</time>
      </trkpt>
      <trkpt lat="44.49181" lon="1.83663">
        <ele>226.7</ele>
        <time>2022-04-10T15:21:53Z</time>
      </trkpt>
      <trkpt lat="44.49181" lon="1.83663">
        <ele>226.7</ele>
        <time>2022-04-10T15:21:54Z</time>
      </trkpt>
      <trkpt lat="44.49181" lon="1.83663">
        <ele>226.7</ele>
        <time>2022-04-10T15:21:55Z</time>
      </trkpt>
      <trkpt lat="44.49181" lon="1.83663">
        <ele>226.6</ele>
        <time>2022-04-10T15:21:56Z</time>
      </trkpt>
      <trkpt lat="44.49181" lon="1.83663">
        <ele>226.6</ele>
        <time>2022-04-10T15:21:57Z</time>
      </trkpt>
      <trkpt lat="44.49181" lon="1.83663">
        <ele>226.6</ele>
        <time>2022-04-10T15:21:58Z</time>
      </trkpt>
      <trkpt lat="44.49181" lon="1.83663">
        <ele>226.6</ele>
        <time>2022-04-10T15:21:59Z</time>
      </trkpt>
      <trkpt lat="44.49181" lon="1.83663">
        <ele>226.6</ele>
        <time>2022-04-10T15:22:00Z</time>
      </trkpt>
      <trkpt lat="44.49181" lon="1.83663">
        <ele>226.6</ele>
        <time>2022-04-10T15:22:01Z</time>
      </trkpt>
      <trkpt lat="44.49181" lon="1.83663">
        <ele>226.6</ele>
        <time>2022-04-10T15:22:02Z</time>
      </trkpt>
      <trkpt lat="44.49181" lon="1.83663">
        <ele>226.6</ele>
        <time>2022-04-10T15:22:03Z</time>
      </trkpt>
      <trkpt lat="44.49181" lon="1.83663">
        <ele>226.6</ele>
        <time>2022-04-10T15:22:04Z</time>
      </trkpt>
      <trkpt lat="44.49181" lon="1.83663">
        <ele>226.6</ele>
        <time>2022-04-10T15:22:05Z</time>
      </trkpt>
      <trkpt lat="44.49181" lon="1.83663">
        <ele>226.6</ele>
        <time>2022-04-10T15:22:06Z</time>
      </trkpt>
      <trkpt lat="44.49181" lon="1.83663">
        <ele>226.6</ele>
        <time>2022-04-10T15:22:07Z</time>
      </trkpt>
      <trkpt lat="44.49181" lon="1.83663">
        <ele>226.6</ele>
        <time>2022-04-10T15:22:08Z</time>
      </trkpt>
      <trkpt lat="44.49181" lon="1.83663">
        <ele>226.6</ele>
        <time>2022-04-10T15:22:09Z</time>
      </trkpt>
      <trkpt lat="44.49181" lon="1.83663">
        <ele>226.6</ele>
        <time>2022-04-10T15:22:10Z</time>
      </trkpt>
      <trkpt lat="44.49181" lon="1.83663">
        <ele>226.6</ele>
        <time>2022-04-10T15:22:11Z</time>
      </trkpt>
      <trkpt lat="44.49181" lon="1.83663">
        <ele>226.6</ele>
        <time>2022-04-10T15:22:12Z</time>
      </trkpt>
      <trkpt lat="44.49181" lon="1.83663">
        <ele>226.6</ele>
        <time>2022-04-10T15:22:13Z</time>
      </trkpt>
      <trkpt lat="44.49181" lon="1.83663">
        <ele>226.6</ele>
        <time>2022-04-10T15:22:14Z</time>
      </trkpt>
      <trkpt lat="44.49181" lon="1.83663">
        <ele>226.6</ele>
        <time>2022-04-10T15:22:15Z</time>
      </trkpt>
      <trkpt lat="44.49181" lon="1.83663">
        <ele>226.6</ele>
        <time>2022-04-10T15:22:16Z</time>
      </trkpt>
      <trkpt lat="44.49181" lon="1.83663">
        <ele>226.6</ele>
        <time>2022-04-10T15:22:17Z</time>
      </trkpt>
      <trkpt lat="44.49181" lon="1.83663">
        <ele>226.6</ele>
        <time>2022-04-10T15:22:18Z</time>
      </trkpt>
      <trkpt lat="44.49181" lon="1.83663">
        <ele>226.6</ele>
        <time>2022-04-10T15:22:19Z</time>
      </trkpt>
      <trkpt lat="44.49181" lon="1.83663">
        <ele>226.6</ele>
        <time>2022-04-10T15:22:20Z</time>
      </trkpt>
      <trkpt lat="44.49181" lon="1.83663">
        <ele>226.6</ele>
        <time>2022-04-10T15:22:21Z</time>
      </trkpt>
      <trkpt lat="44.49181" lon="1.83663">
        <ele>226.6</ele>
        <time>2022-04-10T15:22:22Z</time>
      </trkpt>
      <trkpt lat="44.49181" lon="1.83663">
        <ele>226.6</ele>
        <time>2022-04-10T15:22:23Z</time>
      </trkpt>
      <trkpt lat="44.49181" lon="1.83663">
        <ele>226.6</ele>
        <time>2022-04-10T15:22:24Z</time>
      </trkpt>
      <trkpt lat="44.49181" lon="1.83663">
        <ele>226.6</ele>
        <time>2022-04-10T15:22:25Z</time>
      </trkpt>
      <trkpt lat="44.49181" lon="1.83663">
        <ele>226.6</ele>
        <time>2022-04-10T15:22:26Z</time>
      </trkpt>
      <trkpt lat="44.49181" lon="1.83663">
        <ele>226.6</ele>
        <time>2022-04-10T15:22:27Z</time>
      </trkpt>
      <trkpt lat="44.49181" lon="1.83663">
        <ele>226.6</ele>
        <time>2022-04-10T15:22:28Z</time>
      </trkpt>
      <trkpt lat="44.49181" lon="1.83663">
        <ele>226.6</ele>
        <time>2022-04-10T15:22:29Z</time>
      </trkpt>
      <trkpt lat="44.49181" lon="1.83663">
        <ele>226.6</ele>
        <time>2022-04-10T15:22:30Z</time>
      </trkpt>
      <trkpt lat="44.49181" lon="1.83663">
        <ele>226.6</ele>
        <time>2022-04-10T15:22:31Z</time>
      </trkpt>
      <trkpt lat="44.49181" lon="1.83663">
        <ele>226.6</ele>
        <time>2022-04-10T15:22:32Z</time>
      </trkpt>
      <trkpt lat="44.49181" lon="1.83663">
        <ele>226.6</ele>
        <time>2022-04-10T15:22:33Z</time>
      </trkpt>
      <trkpt lat="44.49181" lon="1.83663">
        <ele>226.6</ele>
        <time>2022-04-10T15:22:34Z</time>
      </trkpt>
      <trkpt lat="44.49181" lon="1.83663">
        <ele>226.6</ele>
        <time>2022-04-10T15:22:35Z</time>
      </trkpt>
      <trkpt lat="44.49181" lon="1.83662">
        <ele>226.6</ele>
        <time>2022-04-10T15:22:36Z</time>
      </trkpt>
      <trkpt lat="44.49181" lon="1.83662">
        <ele>226.6</ele>
        <time>2022-04-10T15:22:37Z</time>
      </trkpt>
      <trkpt lat="44.49181" lon="1.83662">
        <ele>226.6</ele>
        <time>2022-04-10T15:22:38Z</time>
      </trkpt>
      <trkpt lat="44.49181" lon="1.83662">
        <ele>226.6</ele>
        <time>2022-04-10T15:22:39Z</time>
      </trkpt>
      <trkpt lat="44.49181" lon="1.83662">
        <ele>226.6</ele>
        <time>2022-04-10T15:22:40Z</time>
      </trkpt>
      <trkpt lat="44.49181" lon="1.83662">
        <ele>226.6</ele>
        <time>2022-04-10T15:22:41Z</time>
      </trkpt>
      <trkpt lat="44.49181" lon="1.83662">
        <ele>226.6</ele>
        <time>2022-04-10T15:22:42Z</time>
      </trkpt>
      <trkpt lat="44.49181" lon="1.83662">
        <ele>226.6</ele>
        <time>2022-04-10T15:22:43Z</time>
      </trkpt>
      <trkpt lat="44.49181" lon="1.83662">
        <ele>226.6</ele>
        <time>2022-04-10T15:22:44Z</time>
      </trkpt>
      <trkpt lat="44.49181" lon="1.83662">
        <ele>226.6</ele>
        <time>2022-04-10T15:22:45Z</time>
      </trkpt>
      <trkpt lat="44.49181" lon="1.83662">
        <ele>226.6</ele>
        <time>2022-04-10T15:22:46Z</time>
      </trkpt>
      <trkpt lat="44.49181" lon="1.83662">
        <ele>226.6</ele>
        <time>2022-04-10T15:22:47Z</time>
      </trkpt>
      <trkpt lat="44.49181" lon="1.83662">
        <ele>226.6</ele>
        <time>2022-04-10T15:22:48Z</time>
      </trkpt>
      <trkpt lat="44.49181" lon="1.83662">
        <ele>226.6</ele>
        <time>2022-04-10T15:22:49Z</time>
      </trkpt>
      <trkpt lat="44.49181" lon="1.83662">
        <ele>226.6</ele>
        <time>2022-04-10T15:22:50Z</time>
      </trkpt>
      <trkpt lat="44.49181" lon="1.83662">
        <ele>226.6</ele>
        <time>2022-04-10T15:22:51Z</time>
      </trkpt>
      <trkpt lat="44.49181" lon="1.83662">
        <ele>226.6</ele>
        <time>2022-04-10T15:22:52Z</time>
      </trkpt>
      <trkpt lat="44.49181" lon="1.83662">
        <ele>226.6</ele>
        <time>2022-04-10T15:22:53Z</time>
      </trkpt>
      <trkpt lat="44.49181" lon="1.83662">
        <ele>226.6</ele>
        <time>2022-04-10T15:22:54Z</time>
      </trkpt>
      <trkpt lat="44.49181" lon="1.83662">
        <ele>226.6</ele>
        <time>2022-04-10T15:22:55Z</time>
      </trkpt>
      <trkpt lat="44.49181" lon="1.83662">
        <ele>226.6</ele>
        <time>2022-04-10T15:22:56Z</time>
      </trkpt>
      <trkpt lat="44.49181" lon="1.83662">
        <ele>226.6</ele>
        <time>2022-04-10T15:22:57Z</time>
      </trkpt>
      <trkpt lat="44.49181" lon="1.83662">
        <ele>226.6</ele>
        <time>2022-04-10T15:22:58Z</time>
      </trkpt>
      <trkpt lat="44.49181" lon="1.83662">
        <ele>226.6</ele>
        <time>2022-04-10T15:22:59Z</time>
      </trkpt>
      <trkpt lat="44.49181" lon="1.83662">
        <ele>226.6</ele>
        <time>2022-04-10T15:23:00Z</time>
      </trkpt>
      <trkpt lat="44.49181" lon="1.83662">
        <ele>226.6</ele>
        <time>2022-04-10T15:23:01Z</time>
      </trkpt>
      <trkpt lat="44.49181" lon="1.83662">
        <ele>226.6</ele>
        <time>2022-04-10T15:23:02Z</time>
      </trkpt>
      <trkpt lat="44.49181" lon="1.83662">
        <ele>226.6</ele>
        <time>2022-04-10T15:23:03Z</time>
      </trkpt>
      <trkpt lat="44.49181" lon="1.83662">
        <ele>226.6</ele>
        <time>2022-04-10T15:23:04Z</time>
      </trkpt>
      <trkpt lat="44.49181" lon="1.83662">
        <ele>226.6</ele>
        <time>2022-04-10T15:23:05Z</time>
      </trkpt>
      <trkpt lat="44.49181" lon="1.83662">
        <ele>226.6</ele>
        <time>2022-04-10T15:23:06Z</time>
      </trkpt>
      <trkpt lat="44.49181" lon="1.83662">
        <ele>226.6</ele>
        <time>2022-04-10T15:23:07Z</time>
      </trkpt>
      <trkpt lat="44.49181" lon="1.83662">
        <ele>226.6</ele>
        <time>2022-04-10T15:23:08Z</time>
      </trkpt>
      <trkpt lat="44.49181" lon="1.83662">
        <ele>226.6</ele>
        <time>2022-04-10T15:23:09Z</time>
      </trkpt>
      <trkpt lat="44.49181" lon="1.83662">
        <ele>226.6</ele>
        <time>2022-04-10T15:23:10Z</time>
      </trkpt>
      <trkpt lat="44.49181" lon="1.83662">
        <ele>226.6</ele>
        <time>2022-04-10T15:23:11Z</time>
      </trkpt>
      <trkpt lat="44.49181" lon="1.83662">
        <ele>226.6</ele>
        <time>2022-04-10T15:23:12Z</time>
      </trkpt>
      <trkpt lat="44.49181" lon="1.83662">
        <ele>226.6</ele>
        <time>2022-04-10T15:23:13Z</time>
      </trkpt>
      <trkpt lat="44.49181" lon="1.83662">
        <ele>226.6</ele>
        <time>2022-04-10T15:23:14Z</time>
      </trkpt>
      <trkpt lat="44.49181" lon="1.83662">
        <ele>226.6</ele>
        <time>2022-04-10T15:23:15Z</time>
      </trkpt>
      <trkpt lat="44.49181" lon="1.83662">
        <ele>226.6</ele>
        <time>2022-04-10T15:23:16Z</time>
      </trkpt>
      <trkpt lat="44.49181" lon="1.83662">
        <ele>226.6</ele>
        <time>2022-04-10T15:23:17Z</time>
      </trkpt>
      <trkpt lat="44.49181" lon="1.83662">
        <ele>226.6</ele>
        <time>2022-04-10T15:23:18Z</time>
      </trkpt>
      <trkpt lat="44.49181" lon="1.83662">
        <ele>226.6</ele>
        <time>2022-04-10T15:23:19Z</time>
      </trkpt>
      <trkpt lat="44.49181" lon="1.83661">
        <ele>226.6</ele>
        <time>2022-04-10T15:23:20Z</time>
      </trkpt>
      <trkpt lat="44.49181" lon="1.83661">
        <ele>226.6</ele>
        <time>2022-04-10T15:23:21Z</time>
      </trkpt>
      <trkpt lat="44.49181" lon="1.83661">
        <ele>226.6</ele>
        <time>2022-04-10T15:23:22Z</time>
      </trkpt>
      <trkpt lat="44.49181" lon="1.83661">
        <ele>226.6</ele>
        <time>2022-04-10T15:23:23Z</time>
      </trkpt>
      <trkpt lat="44.49181" lon="1.83661">
        <ele>226.6</ele>
        <time>2022-04-10T15:23:24Z</time>
      </trkpt>
      <trkpt lat="44.49181" lon="1.83661">
        <ele>226.5</ele>
        <time>2022-04-10T15:23:25Z</time>
      </trkpt>
      <trkpt lat="44.49181" lon="1.83661">
        <ele>226.5</ele>
        <time>2022-04-10T15:23:26Z</time>
      </trkpt>
      <trkpt lat="44.49181" lon="1.83661">
        <ele>226.5</ele>
        <time>2022-04-10T15:23:27Z</time>
      </trkpt>
      <trkpt lat="44.49181" lon="1.83661">
        <ele>226.5</ele>
        <time>2022-04-10T15:23:28Z</time>
      </trkpt>
      <trkpt lat="44.49181" lon="1.83661">
        <ele>226.5</ele>
        <time>2022-04-10T15:23:29Z</time>
      </trkpt>
      <trkpt lat="44.49181" lon="1.83661">
        <ele>226.5</ele>
        <time>2022-04-10T15:23:30Z</time>
      </trkpt>
      <trkpt lat="44.49181" lon="1.83661">
        <ele>226.5</ele>
        <time>2022-04-10T15:23:31Z</time>
      </trkpt>
      <trkpt lat="44.49181" lon="1.83661">
        <ele>226.5</ele>
        <time>2022-04-10T15:23:32Z</time>
      </trkpt>
      <trkpt lat="44.49181" lon="1.83661">
        <ele>226.5</ele>
        <time>2022-04-10T15:23:33Z</time>
      </trkpt>
      <trkpt lat="44.49181" lon="1.83661">
        <ele>226.5</ele>
        <time>2022-04-10T15:23:34Z</time>
      </trkpt>
      <trkpt lat="44.49181" lon="1.83661">
        <ele>226.5</ele>
        <time>2022-04-10T15:23:35Z</time>
      </trkpt>
      <trkpt lat="44.49181" lon="1.83661">
        <ele>226.5</ele>
        <time>2022-04-10T15:23:36Z</time>
      </trkpt>
      <trkpt lat="44.49181" lon="1.83661">
        <ele>226.5</ele>
        <time>2022-04-10T15:23:37Z</time>
      </trkpt>
      <trkpt lat="44.49181" lon="1.83661">
        <ele>226.5</ele>
        <time>2022-04-10T15:23:38Z</time>
      </trkpt>
      <trkpt lat="44.49181" lon="1.83661">
        <ele>226.5</ele>
        <time>2022-04-10T15:23:39Z</time>
      </trkpt>
      <trkpt lat="44.49181" lon="1.83661">
        <ele>226.5</ele>
        <time>2022-04-10T15:23:40Z</time>
      </trkpt>
      <trkpt lat="44.49181" lon="1.83661">
        <ele>226.5</ele>
        <time>2022-04-10T15:23:41Z</time>
      </trkpt>
      <trkpt lat="44.49181" lon="1.83661">
        <ele>226.5</ele>
        <time>2022-04-10T15:23:42Z</time>
      </trkpt>
      <trkpt lat="44.49181" lon="1.83661">
        <ele>226.5</ele>
        <time>2022-04-10T15:23:43Z</time>
      </trkpt>
      <trkpt lat="44.49181" lon="1.83661">
        <ele>226.5</ele>
        <time>2022-04-10T15:23:44Z</time>
      </trkpt>
      <trkpt lat="44.49181" lon="1.83661">
        <ele>226.5</ele>
        <time>2022-04-10T15:23:45Z</time>
      </trkpt>
      <trkpt lat="44.49181" lon="1.83661">
        <ele>226.5</ele>
        <time>2022-04-10T15:23:46Z</time>
      </trkpt>
      <trkpt lat="44.49181" lon="1.83661">
        <ele>226.5</ele>
        <time>2022-04-10T15:23:47Z</time>
      </trkpt>
      <trkpt lat="44.49181" lon="1.83661">
        <ele>226.5</ele>
        <time>2022-04-10T15:23:48Z</time>
      </trkpt>
      <trkpt lat="44.49181" lon="1.83661">
        <ele>226.5</ele>
        <time>2022-04-10T15:23:49Z</time>
      </trkpt>
      <trkpt lat="44.49181" lon="1.83661">
        <ele>226.5</ele>
        <time>2022-04-10T15:23:50Z</time>
      </trkpt>
      <trkpt lat="44.49181" lon="1.83661">
        <ele>226.5</ele>
        <time>2022-04-10T15:23:51Z</time>
      </trkpt>
      <trkpt lat="44.49181" lon="1.83661">
        <ele>226.5</ele>
        <time>2022-04-10T15:23:52Z</time>
      </trkpt>
      <trkpt lat="44.49181" lon="1.83661">
        <ele>226.5</ele>
        <time>2022-04-10T15:23:53Z</time>
      </trkpt>
      <trkpt lat="44.49181" lon="1.83661">
        <ele>226.5</ele>
        <time>2022-04-10T15:23:54Z</time>
      </trkpt>
      <trkpt lat="44.49181" lon="1.83661">
        <ele>226.5</ele>
        <time>2022-04-10T15:23:55Z</time>
      </trkpt>
      <trkpt lat="44.49181" lon="1.83661">
        <ele>226.5</ele>
        <time>2022-04-10T15:23:56Z</time>
      </trkpt>
      <trkpt lat="44.49181" lon="1.83661">
        <ele>226.5</ele>
        <time>2022-04-10T15:23:57Z</time>
      </trkpt>
      <trkpt lat="44.49181" lon="1.83661">
        <ele>226.5</ele>
        <time>2022-04-10T15:23:59Z</time>
      </trkpt>
      <trkpt lat="44.49181" lon="1.83661">
        <ele>226.5</ele>
        <time>2022-04-10T15:24:00Z</time>
      </trkpt>
      <trkpt lat="44.49181" lon="1.83661">
        <ele>226.5</ele>
        <time>2022-04-10T15:24:01Z</time>
      </trkpt>
      <trkpt lat="44.49181" lon="1.83661">
        <ele>226.5</ele>
        <time>2022-04-10T15:24:02Z</time>
      </trkpt>
      <trkpt lat="44.49181" lon="1.83661">
        <ele>226.5</ele>
        <time>2022-04-10T15:24:03Z</time>
      </trkpt>
      <trkpt lat="44.49181" lon="1.83661">
        <ele>226.5</ele>
        <time>2022-04-10T15:24:04Z</time>
      </trkpt>
      <trkpt lat="44.49181" lon="1.83661">
        <ele>226.5</ele>
        <time>2022-04-10T15:24:05Z</time>
      </trkpt>
      <trkpt lat="44.49181" lon="1.8366">
        <ele>226.5</ele>
        <time>2022-04-10T15:24:06Z</time>
      </trkpt>
      <trkpt lat="44.49181" lon="1.8366">
        <ele>226.5</ele>
        <time>2022-04-10T15:24:07Z</time>
      </trkpt>
      <trkpt lat="44.49181" lon="1.8366">
        <ele>226.5</ele>
        <time>2022-04-10T15:24:08Z</time>
      </trkpt>
      <trkpt lat="44.49181" lon="1.8366">
        <ele>226.5</ele>
        <time>2022-04-10T15:24:09Z</time>
      </trkpt>
      <trkpt lat="44.49181" lon="1.8366">
        <ele>226.5</ele>
        <time>2022-04-10T15:24:10Z</time>
      </trkpt>
      <trkpt lat="44.49181" lon="1.8366">
        <ele>226.5</ele>
        <time>2022-04-10T15:24:11Z</time>
      </trkpt>
      <trkpt lat="44.49181" lon="1.8366">
        <ele>226.5</ele>
        <time>2022-04-10T15:24:12Z</time>
      </trkpt>
      <trkpt lat="44.49181" lon="1.8366">
        <ele>226.5</ele>
        <time>2022-04-10T15:24:13Z</time>
      </trkpt>
      <trkpt lat="44.49181" lon="1.8366">
        <ele>226.5</ele>
        <time>2022-04-10T15:24:14Z</time>
      </trkpt>
      <trkpt lat="44.49181" lon="1.8366">
        <ele>226.5</ele>
        <time>2022-04-10T15:24:15Z</time>
      </trkpt>
      <trkpt lat="44.49181" lon="1.8366">
        <ele>226.5</ele>
        <time>2022-04-10T15:24:16Z</time>
      </trkpt>
      <trkpt lat="44.49181" lon="1.8366">
        <ele>226.5</ele>
        <time>2022-04-10T15:24:17Z</time>
      </trkpt>
      <trkpt lat="44.49181" lon="1.8366">
        <ele>226.5</ele>
        <time>2022-04-10T15:24:18Z</time>
      </trkpt>
      <trkpt lat="44.49181" lon="1.8366">
        <ele>226.5</ele>
        <time>2022-04-10T15:24:19Z</time>
      </trkpt>
      <trkpt lat="44.49181" lon="1.8366">
        <ele>226.5</ele>
        <time>2022-04-10T15:24:20Z</time>
      </trkpt>
      <trkpt lat="44.49181" lon="1.8366">
        <ele>226.5</ele>
        <time>2022-04-10T15:24:21Z</time>
      </trkpt>
      <trkpt lat="44.49181" lon="1.8366">
        <ele>226.5</ele>
        <time>2022-04-10T15:24:22Z</time>
      </trkpt>
      <trkpt lat="44.49181" lon="1.8366">
        <ele>226.5</ele>
        <time>2022-04-10T15:24:23Z</time>
      </trkpt>
      <trkpt lat="44.49181" lon="1.8366">
        <ele>226.5</ele>
        <time>2022-04-10T15:24:24Z</time>
      </trkpt>
      <trkpt lat="44.49181" lon="1.8366">
        <ele>226.5</ele>
        <time>2022-04-10T15:24:25Z</time>
      </trkpt>
      <trkpt lat="44.49181" lon="1.8366">
        <ele>226.5</ele>
        <time>2022-04-10T15:24:26Z</time>
      </trkpt>
      <trkpt lat="44.49181" lon="1.8366">
        <ele>226.5</ele>
        <time>2022-04-10T15:24:27Z</time>
      </trkpt>
      <trkpt lat="44.49181" lon="1.8366">
        <ele>226.5</ele>
        <time>2022-04-10T15:24:28Z</time>
      </trkpt>
      <trkpt lat="44.49181" lon="1.8366">
        <ele>226.5</ele>
        <time>2022-04-10T15:24:29Z</time>
      </trkpt>
      <trkpt lat="44.49181" lon="1.8366">
        <ele>226.5</ele>
        <time>2022-04-10T15:24:30Z</time>
      </trkpt>
      <trkpt lat="44.49181" lon="1.8366">
        <ele>226.5</ele>
        <time>2022-04-10T15:24:31Z</time>
      </trkpt>
      <trkpt lat="44.49181" lon="1.8366">
        <ele>226.5</ele>
        <time>2022-04-10T15:24:32Z</time>
      </trkpt>
      <trkpt lat="44.49181" lon="1.8366">
        <ele>226.5</ele>
        <time>2022-04-10T15:24:33Z</time>
      </trkpt>
      <trkpt lat="44.49181" lon="1.8366">
        <ele>226.5</ele>
        <time>2022-04-10T15:24:34Z</time>
      </trkpt>
      <trkpt lat="44.49181" lon="1.8366">
        <ele>226.5</ele>
        <time>2022-04-10T15:24:35Z</time>
      </trkpt>
      <trkpt lat="44.49181" lon="1.8366">
        <ele>226.5</ele>
        <time>2022-04-10T15:24:36Z</time>
      </trkpt>
      <trkpt lat="44.49182" lon="1.83654">
        <ele>226.2</ele>
        <time>2022-04-10T15:24:37Z</time>
      </trkpt>
      <trkpt lat="44.49183" lon="1.83652">
        <ele>226.1</ele>
        <time>2022-04-10T15:24:38Z</time>
      </trkpt>
      <trkpt lat="44.49183" lon="1.83648">
        <ele>225.9</ele>
        <time>2022-04-10T15:24:39Z</time>
      </trkpt>
      <trkpt lat="44.49182" lon="1.83647">
        <ele>225.8</ele>
        <time>2022-04-10T15:24:40Z</time>
      </trkpt>
      <trkpt lat="44.49182" lon="1.83645">
        <ele>225.8</ele>
        <time>2022-04-10T15:24:41Z</time>
      </trkpt>
      <trkpt lat="44.49182" lon="1.83644">
        <ele>225.7</ele>
        <time>2022-04-10T15:24:42Z</time>
      </trkpt>
      <trkpt lat="44.49181" lon="1.83643">
        <ele>225.7</ele>
        <time>2022-04-10T15:24:43Z</time>
      </trkpt>
      <trkpt lat="44.49181" lon="1.83642">
        <ele>225.6</ele>
        <time>2022-04-10T15:24:45Z</time>
      </trkpt>
      <trkpt lat="44.49181" lon="1.83641">
        <ele>225.5</ele>
        <time>2022-04-10T15:24:46Z</time>
      </trkpt>
      <trkpt lat="44.4918" lon="1.8364">
        <ele>225.5</ele>
        <time>2022-04-10T15:24:47Z</time>
      </trkpt>
      <trkpt lat="44.4918" lon="1.83639">
        <ele>225.4</ele>
        <time>2022-04-10T15:24:48Z</time>
      </trkpt>
      <trkpt lat="44.49179" lon="1.83638">
        <ele>225.3</ele>
        <time>2022-04-10T15:24:49Z</time>
      </trkpt>
      <trkpt lat="44.49179" lon="1.83637">
        <ele>225.3</ele>
        <time>2022-04-10T15:24:50Z</time>
      </trkpt>
      <trkpt lat="44.49179" lon="1.83636">
        <ele>225.2</ele>
        <time>2022-04-10T15:24:54Z</time>
      </trkpt>
      <trkpt lat="44.49178" lon="1.83635">
        <ele>225.2</ele>
        <time>2022-04-10T15:24:55Z</time>
      </trkpt>
      <trkpt lat="44.49178" lon="1.83634">
        <ele>225.1</ele>
        <time>2022-04-10T15:24:56Z</time>
      </trkpt>
      <trkpt lat="44.49177" lon="1.83633">
        <ele>225</ele>
        <time>2022-04-10T15:24:57Z</time>
      </trkpt>
      <trkpt lat="44.49176" lon="1.83633">
        <ele>224.9</ele>
        <time>2022-04-10T15:24:58Z</time>
      </trkpt>
      <trkpt lat="44.49176" lon="1.83632">
        <ele>224.9</ele>
        <time>2022-04-10T15:24:59Z</time>
      </trkpt>
      <trkpt lat="44.49175" lon="1.83632">
        <ele>224.8</ele>
        <time>2022-04-10T15:25:00Z</time>
      </trkpt>
      <trkpt lat="44.49174" lon="1.83632">
        <ele>224.8</ele>
        <time>2022-04-10T15:25:01Z</time>
      </trkpt>
      <trkpt lat="44.49174" lon="1.83632">
        <ele>224.7</ele>
        <time>2022-04-10T15:25:03Z</time>
      </trkpt>
      <trkpt lat="44.49173" lon="1.83631">
        <ele>224.6</ele>
        <time>2022-04-10T15:25:04Z</time>
      </trkpt>
      <trkpt lat="44.49173" lon="1.83631">
        <ele>224.6</ele>
        <time>2022-04-10T15:25:05Z</time>
      </trkpt>
      <trkpt lat="44.49172" lon="1.83631">
        <ele>224.5</ele>
        <time>2022-04-10T15:25:06Z</time>
      </trkpt>
      <trkpt lat="44.49171" lon="1.8363">
        <ele>224.5</ele>
        <time>2022-04-10T15:25:19Z</time>
      </trkpt>
      <trkpt lat="44.49171" lon="1.8363">
        <ele>224.4</ele>
        <time>2022-04-10T15:25:20Z</time>
      </trkpt>
      <trkpt lat="44.49167" lon="1.83631">
        <ele>224.1</ele>
        <time>2022-04-10T15:25:21Z</time>
      </trkpt>
      <trkpt lat="44.49165" lon="1.83631">
        <ele>223.9</ele>
        <time>2022-04-10T15:25:22Z</time>
      </trkpt>
      <trkpt lat="44.49161" lon="1.8363">
        <ele>223.5</ele>
        <time>2022-04-10T15:25:24Z</time>
      </trkpt>
      <trkpt lat="44.49157" lon="1.83631">
        <ele>223.1</ele>
        <time>2022-04-10T15:25:25Z</time>
      </trkpt>
      <trkpt lat="44.49155" lon="1.83632">
        <ele>222.9</ele>
        <time>2022-04-10T15:25:26Z</time>
      </trkpt>
      <trkpt lat="44.49152" lon="1.83633">
        <ele>222.5</ele>
        <time>2022-04-10T15:25:27Z</time>
      </trkpt>
      <trkpt lat="44.4915" lon="1.83633">
        <ele>222.2</ele>
        <time>2022-04-10T15:25:29Z</time>
      </trkpt>
      <trkpt lat="44.49148" lon="1.83633">
        <ele>222.1</ele>
        <time>2022-04-10T15:25:30Z</time>
      </trkpt>
      <trkpt lat="44.49145" lon="1.83634">
        <ele>221.7</ele>
        <time>2022-04-10T15:25:31Z</time>
      </trkpt>
      <trkpt lat="44.49145" lon="1.83634">
        <ele>221.7</ele>
        <time>2022-04-10T15:25:32Z</time>
      </trkpt>
      <trkpt lat="44.49144" lon="1.83635">
        <ele>221.5</ele>
        <time>2022-04-10T15:25:33Z</time>
      </trkpt>
      <trkpt lat="44.49143" lon="1.83635">
        <ele>221.4</ele>
        <time>2022-04-10T15:25:35Z</time>
      </trkpt>
      <trkpt lat="44.49142" lon="1.83636">
        <ele>221.3</ele>
        <time>2022-04-10T15:25:36Z</time>
      </trkpt>
      <trkpt lat="44.49141" lon="1.83636">
        <ele>221.2</ele>
        <time>2022-04-10T15:25:37Z</time>
      </trkpt>
      <trkpt lat="44.4914" lon="1.83637">
        <ele>221</ele>
        <time>2022-04-10T15:25:38Z</time>
      </trkpt>
      <trkpt lat="44.49139" lon="1.83638">
        <ele>220.9</ele>
        <time>2022-04-10T15:25:39Z</time>
      </trkpt>
      <trkpt lat="44.49138" lon="1.83638">
        <ele>220.8</ele>
        <time>2022-04-10T15:25:40Z</time>
      </trkpt>
      <trkpt lat="44.49137" lon="1.83639">
        <ele>220.6</ele>
        <time>2022-04-10T15:25:41Z</time>
      </trkpt>
      <trkpt lat="44.49136" lon="1.83639">
        <ele>220.5</ele>
        <time>2022-04-10T15:26:13Z</time>
      </trkpt>
      <trkpt lat="44.49136" lon="1.8364">
        <ele>220.3</ele>
        <time>2022-04-10T15:26:14Z</time>
      </trkpt>
      <trkpt lat="44.49135" lon="1.8364">
        <ele>220.2</ele>
        <time>2022-04-10T15:26:15Z</time>
      </trkpt>
      <trkpt lat="44.49135" lon="1.83642">
        <ele>220</ele>
        <time>2022-04-10T15:26:16Z</time>
      </trkpt>
      <trkpt lat="44.49135" lon="1.83644">
        <ele>219.9</ele>
        <time>2022-04-10T15:26:17Z</time>
      </trkpt>
      <trkpt lat="44.49136" lon="1.83643">
        <ele>219.8</ele>
        <time>2022-04-10T15:26:18Z</time>
      </trkpt>
      <trkpt lat="44.49135" lon="1.83644">
        <ele>219.6</ele>
        <time>2022-04-10T15:26:19Z</time>
      </trkpt>
      <trkpt lat="44.49134" lon="1.83645">
        <ele>219.4</ele>
        <time>2022-04-10T15:26:20Z</time>
      </trkpt>
      <trkpt lat="44.49133" lon="1.83645">
        <ele>219.2</ele>
        <time>2022-04-10T15:26:21Z</time>
      </trkpt>
      <trkpt lat="44.49132" lon="1.83644">
        <ele>219.1</ele>
        <time>2022-04-10T15:26:22Z</time>
      </trkpt>
      <trkpt lat="44.49131" lon="1.83643">
        <ele>218.9</ele>
        <time>2022-04-10T15:26:23Z</time>
      </trkpt>
      <trkpt lat="44.49131" lon="1.83643">
        <ele>218.8</ele>
        <time>2022-04-10T15:26:24Z</time>
      </trkpt>
      <trkpt lat="44.4913" lon="1.83642">
        <ele>218.6</ele>
        <time>2022-04-10T15:26:25Z</time>
      </trkpt>
      <trkpt lat="44.49129" lon="1.83641">
        <ele>218.5</ele>
        <time>2022-04-10T15:26:26Z</time>
      </trkpt>
      <trkpt lat="44.49128" lon="1.83641">
        <ele>218.3</ele>
        <time>2022-04-10T15:26:27Z</time>
      </trkpt>
      <trkpt lat="44.49127" lon="1.8364">
        <ele>218.2</ele>
        <time>2022-04-10T15:26:28Z</time>
      </trkpt>
      <trkpt lat="44.49126" lon="1.83639">
        <ele>218</ele>
        <time>2022-04-10T15:26:29Z</time>
      </trkpt>
      <trkpt lat="44.49126" lon="1.83639">
        <ele>217.9</ele>
        <time>2022-04-10T15:26:35Z</time>
      </trkpt>
      <trkpt lat="44.49125" lon="1.83638">
        <ele>217.7</ele>
        <time>2022-04-10T15:26:36Z</time>
      </trkpt>
      <trkpt lat="44.49121" lon="1.83639">
        <ele>217</ele>
        <time>2022-04-10T15:26:37Z</time>
      </trkpt>
      <trkpt lat="44.49117" lon="1.83639">
        <ele>216.3</ele>
        <time>2022-04-10T15:26:38Z</time>
      </trkpt>
      <trkpt lat="44.49112" lon="1.83639">
        <ele>215.5</ele>
        <time>2022-04-10T15:26:39Z</time>
      </trkpt>
      <trkpt lat="44.49107" lon="1.83639">
        <ele>214.5</ele>
        <time>2022-04-10T15:26:41Z</time>
      </trkpt>
      <trkpt lat="44.49099" lon="1.83642">
        <ele>212.9</ele>
        <time>2022-04-10T15:26:42Z</time>
      </trkpt>
      <trkpt lat="44.49094" lon="1.83643">
        <ele>212</ele>
        <time>2022-04-10T15:26:43Z</time>
      </trkpt>
      <trkpt lat="44.49091" lon="1.83645">
        <ele>211.4</ele>
        <time>2022-04-10T15:26:44Z</time>
      </trkpt>
      <trkpt lat="44.49087" lon="1.83645">
        <ele>210.6</ele>
        <time>2022-04-10T15:26:46Z</time>
      </trkpt>
      <trkpt lat="44.49082" lon="1.83645">
        <ele>209.5</ele>
        <time>2022-04-10T15:26:47Z</time>
      </trkpt>
      <trkpt lat="44.49078" lon="1.83645">
        <ele>208.4</ele>
        <time>2022-04-10T15:26:48Z</time>
      </trkpt>
      <trkpt lat="44.4907" lon="1.83646">
        <ele>206.7</ele>
        <time>2022-04-10T15:26:49Z</time>
      </trkpt>
      <trkpt lat="44.49066" lon="1.83647">
        <ele>205.7</ele>
        <time>2022-04-10T15:26:50Z</time>
      </trkpt>
      <trkpt lat="44.4906" lon="1.83647">
        <ele>204.5</ele>
        <time>2022-04-10T15:26:52Z</time>
      </trkpt>
      <trkpt lat="44.49057" lon="1.83647">
        <ele>203.8</ele>
        <time>2022-04-10T15:26:53Z</time>
      </trkpt>
      <trkpt lat="44.49049" lon="1.8365">
        <ele>202.2</ele>
        <time>2022-04-10T15:26:54Z</time>
      </trkpt>
      <trkpt lat="44.49045" lon="1.83651">
        <ele>201.2</ele>
        <time>2022-04-10T15:26:55Z</time>
      </trkpt>
      <trkpt lat="44.49039" lon="1.83655">
        <ele>199.7</ele>
        <time>2022-04-10T15:26:57Z</time>
      </trkpt>
      <trkpt lat="44.4903" lon="1.83655">
        <ele>197.9</ele>
        <time>2022-04-10T15:26:58Z</time>
      </trkpt>
      <trkpt lat="44.49025" lon="1.83655">
        <ele>196.7</ele>
        <time>2022-04-10T15:26:59Z</time>
      </trkpt>
      <trkpt lat="44.49019" lon="1.83656">
        <ele>195.4</ele>
        <time>2022-04-10T15:27:00Z</time>
      </trkpt>
      <trkpt lat="44.49012" lon="1.83657">
        <ele>194.1</ele>
        <time>2022-04-10T15:27:01Z</time>
      </trkpt>
      <trkpt lat="44.49006" lon="1.83659">
        <ele>192.8</ele>
        <time>2022-04-10T15:27:02Z</time>
      </trkpt>
      <trkpt lat="44.49" lon="1.83661">
        <ele>191.7</ele>
        <time>2022-04-10T15:27:03Z</time>
      </trkpt>
      <trkpt lat="44.48994" lon="1.83663">
        <ele>190.7</ele>
        <time>2022-04-10T15:27:04Z</time>
      </trkpt>
      <trkpt lat="44.48988" lon="1.83664">
        <ele>189.5</ele>
        <time>2022-04-10T15:27:05Z</time>
      </trkpt>
      <trkpt lat="44.48981" lon="1.83667">
        <ele>188.3</ele>
        <time>2022-04-10T15:27:06Z</time>
      </trkpt>
      <trkpt lat="44.48973" lon="1.83672">
        <ele>186.9</ele>
        <time>2022-04-10T15:27:07Z</time>
      </trkpt>
      <trkpt lat="44.48965" lon="1.83677">
        <ele>185.4</ele>
        <time>2022-04-10T15:27:08Z</time>
      </trkpt>
      <trkpt lat="44.48957" lon="1.83681">
        <ele>184</ele>
        <time>2022-04-10T15:27:09Z</time>
      </trkpt>
      <trkpt lat="44.48949" lon="1.83685">
        <ele>182.6</ele>
        <time>2022-04-10T15:27:10Z</time>
      </trkpt>
      <trkpt lat="44.48941" lon="1.83689">
        <ele>181.3</ele>
        <time>2022-04-10T15:27:11Z</time>
      </trkpt>
      <trkpt lat="44.48934" lon="1.83695">
        <ele>180.1</ele>
        <time>2022-04-10T15:27:12Z</time>
      </trkpt>
      <trkpt lat="44.48929" lon="1.83702">
        <ele>179.1</ele>
        <time>2022-04-10T15:27:13Z</time>
      </trkpt>
      <trkpt lat="44.48925" lon="1.83708">
        <ele>178.3</ele>
        <time>2022-04-10T15:27:14Z</time>
      </trkpt>
      <trkpt lat="44.48921" lon="1.83714">
        <ele>177.6</ele>
        <time>2022-04-10T15:27:15Z</time>
      </trkpt>
      <trkpt lat="44.48918" lon="1.83719">
        <ele>177</ele>
        <time>2022-04-10T15:27:16Z</time>
      </trkpt>
      <trkpt lat="44.48917" lon="1.83723">
        <ele>176.6</ele>
        <time>2022-04-10T15:27:17Z</time>
      </trkpt>
      <trkpt lat="44.48916" lon="1.83724">
        <ele>176.5</ele>
        <time>2022-04-10T15:27:18Z</time>
      </trkpt>
      <trkpt lat="44.48916" lon="1.83725">
        <ele>176.4</ele>
        <time>2022-04-10T15:27:19Z</time>
      </trkpt>
      <trkpt lat="44.48916" lon="1.83725">
        <ele>176.3</ele>
        <time>2022-04-10T15:27:20Z</time>
      </trkpt>
      <trkpt lat="44.48915" lon="1.83726">
        <ele>176.3</ele>
        <time>2022-04-10T15:27:21Z</time>
      </trkpt>
      <trkpt lat="44.48915" lon="1.83727">
        <ele>176.2</ele>
        <time>2022-04-10T15:27:22Z</time>
      </trkpt>
      <trkpt lat="44.48915" lon="1.83727">
        <ele>176.1</ele>
        <time>2022-04-10T15:27:23Z</time>
      </trkpt>
      <trkpt lat="44.48915" lon="1.83728">
        <ele>176.1</ele>
        <time>2022-04-10T15:27:24Z</time>
      </trkpt>
      <trkpt lat="44.48914" lon="1.83729">
        <ele>176</ele>
        <time>2022-04-10T15:27:25Z</time>
      </trkpt>
      <trkpt lat="44.48914" lon="1.83729">
        <ele>175.9</ele>
        <time>2022-04-10T15:27:26Z</time>
      </trkpt>
      <trkpt lat="44.48912" lon="1.83738">
        <ele>175.2</ele>
        <time>2022-04-10T15:27:27Z</time>
      </trkpt>
      <trkpt lat="44.4891" lon="1.83744">
        <ele>174.6</ele>
        <time>2022-04-10T15:27:28Z</time>
      </trkpt>
      <trkpt lat="44.48908" lon="1.83751">
        <ele>174</ele>
        <time>2022-04-10T15:27:29Z</time>
      </trkpt>
      <trkpt lat="44.48906" lon="1.8376">
        <ele>173.1</ele>
        <time>2022-04-10T15:27:30Z</time>
      </trkpt>
      <trkpt lat="44.48903" lon="1.8377">
        <ele>172.3</ele>
        <time>2022-04-10T15:27:31Z</time>
      </trkpt>
      <trkpt lat="44.48901" lon="1.8378">
        <ele>171.4</ele>
        <time>2022-04-10T15:27:32Z</time>
      </trkpt>
      <trkpt lat="44.48898" lon="1.83791">
        <ele>170.5</ele>
        <time>2022-04-10T15:27:33Z</time>
      </trkpt>
      <trkpt lat="44.48895" lon="1.83803">
        <ele>169.6</ele>
        <time>2022-04-10T15:27:34Z</time>
      </trkpt>
      <trkpt lat="44.48893" lon="1.83815">
        <ele>168.8</ele>
        <time>2022-04-10T15:27:35Z</time>
      </trkpt>
      <trkpt lat="44.4889" lon="1.83827">
        <ele>167.9</ele>
        <time>2022-04-10T15:27:36Z</time>
      </trkpt>
      <trkpt lat="44.48888" lon="1.8384">
        <ele>167.1</ele>
        <time>2022-04-10T15:27:37Z</time>
      </trkpt>
      <trkpt lat="44.48886" lon="1.83853">
        <ele>166.1</ele>
        <time>2022-04-10T15:27:38Z</time>
      </trkpt>
      <trkpt lat="44.48884" lon="1.83865">
        <ele>165.5</ele>
        <time>2022-04-10T15:27:39Z</time>
      </trkpt>
      <trkpt lat="44.48882" lon="1.83874">
        <ele>164.9</ele>
        <time>2022-04-10T15:27:40Z</time>
      </trkpt>
      <trkpt lat="44.4888" lon="1.83882">
        <ele>164.4</ele>
        <time>2022-04-10T15:27:41Z</time>
      </trkpt>
      <trkpt lat="44.48878" lon="1.83891">
        <ele>163.9</ele>
        <time>2022-04-10T15:27:42Z</time>
      </trkpt>
      <trkpt lat="44.48876" lon="1.83899">
        <ele>163.5</ele>
        <time>2022-04-10T15:27:43Z</time>
      </trkpt>
      <trkpt lat="44.48873" lon="1.83907">
        <ele>163.1</ele>
        <time>2022-04-10T15:27:44Z</time>
      </trkpt>
      <trkpt lat="44.4887" lon="1.83915">
        <ele>162.8</ele>
        <time>2022-04-10T15:27:45Z</time>
      </trkpt>
      <trkpt lat="44.48867" lon="1.83923">
        <ele>162.4</ele>
        <time>2022-04-10T15:27:46Z</time>
      </trkpt>
      <trkpt lat="44.48863" lon="1.83932">
        <ele>162.1</ele>
        <time>2022-04-10T15:27:47Z</time>
      </trkpt>
      <trkpt lat="44.4886" lon="1.83941">
        <ele>161.9</ele>
        <time>2022-04-10T15:27:48Z</time>
      </trkpt>
      <trkpt lat="44.48857" lon="1.83949">
        <ele>161.7</ele>
        <time>2022-04-10T15:27:49Z</time>
      </trkpt>
      <trkpt lat="44.48855" lon="1.83958">
        <ele>161.6</ele>
        <time>2022-04-10T15:27:50Z</time>
      </trkpt>
      <trkpt lat="44.48852" lon="1.83967">
        <ele>161.5</ele>
        <time>2022-04-10T15:27:51Z</time>
      </trkpt>
      <trkpt lat="44.4885" lon="1.83975">
        <ele>161.3</ele>
        <time>2022-04-10T15:27:52Z</time>
      </trkpt>
      <trkpt lat="44.48847" lon="1.83983">
        <ele>161.2</ele>
        <time>2022-04-10T15:27:53Z</time>
      </trkpt>
      <trkpt lat="44.48844" lon="1.83991">
        <ele>161.1</ele>
        <time>2022-04-10T15:27:54Z</time>
      </trkpt>
      <trkpt lat="44.48842" lon="1.83999">
        <ele>161</ele>
        <time>2022-04-10T15:27:55Z</time>
      </trkpt>
      <trkpt lat="44.4884" lon="1.84007">
        <ele>160.9</ele>
        <time>2022-04-10T15:27:56Z</time>
      </trkpt>
      <trkpt lat="44.48837" lon="1.84014">
        <ele>160.8</ele>
        <time>2022-04-10T15:27:57Z</time>
      </trkpt>
      <trkpt lat="44.48835" lon="1.84022">
        <ele>160.8</ele>
        <time>2022-04-10T15:27:58Z</time>
      </trkpt>
      <trkpt lat="44.48833" lon="1.8403">
        <ele>160.7</ele>
        <time>2022-04-10T15:27:59Z</time>
      </trkpt>
      <trkpt lat="44.48832" lon="1.84037">
        <ele>160.7</ele>
        <time>2022-04-10T15:28:00Z</time>
      </trkpt>
      <trkpt lat="44.48829" lon="1.84044">
        <ele>160.7</ele>
        <time>2022-04-10T15:28:01Z</time>
      </trkpt>
      <trkpt lat="44.48827" lon="1.84051">
        <ele>160.6</ele>
        <time>2022-04-10T15:28:02Z</time>
      </trkpt>
      <trkpt lat="44.48824" lon="1.84058">
        <ele>160.6</ele>
        <time>2022-04-10T15:28:03Z</time>
      </trkpt>
      <trkpt lat="44.48821" lon="1.84065">
        <ele>160.6</ele>
        <time>2022-04-10T15:28:04Z</time>
      </trkpt>
      <trkpt lat="44.48818" lon="1.84072">
        <ele>160.6</ele>
        <time>2022-04-10T15:28:05Z</time>
      </trkpt>
      <trkpt lat="44.48815" lon="1.84079">
        <ele>160.6</ele>
        <time>2022-04-10T15:28:06Z</time>
      </trkpt>
      <trkpt lat="44.48813" lon="1.84085">
        <ele>160.6</ele>
        <time>2022-04-10T15:28:07Z</time>
      </trkpt>
      <trkpt lat="44.4881" lon="1.84092">
        <ele>160.5</ele>
        <time>2022-04-10T15:28:08Z</time>
      </trkpt>
      <trkpt lat="44.48806" lon="1.84098">
        <ele>160.5</ele>
        <time>2022-04-10T15:28:09Z</time>
      </trkpt>
      <trkpt lat="44.48802" lon="1.84103">
        <ele>160.4</ele>
        <time>2022-04-10T15:28:10Z</time>
      </trkpt>
      <trkpt lat="44.48796" lon="1.84107">
        <ele>160.3</ele>
        <time>2022-04-10T15:28:11Z</time>
      </trkpt>
      <trkpt lat="44.4879" lon="1.8411">
        <ele>160.1</ele>
        <time>2022-04-10T15:28:12Z</time>
      </trkpt>
      <trkpt lat="44.48784" lon="1.84113">
        <ele>159.9</ele>
        <time>2022-04-10T15:28:13Z</time>
      </trkpt>
      <trkpt lat="44.48778" lon="1.84117">
        <ele>159.6</ele>
        <time>2022-04-10T15:28:14Z</time>
      </trkpt>
      <trkpt lat="44.48772" lon="1.84121">
        <ele>159.3</ele>
        <time>2022-04-10T15:28:15Z</time>
      </trkpt>
      <trkpt lat="44.48765" lon="1.84125">
        <ele>159</ele>
        <time>2022-04-10T15:28:16Z</time>
      </trkpt>
      <trkpt lat="44.48759" lon="1.8413">
        <ele>158.6</ele>
        <time>2022-04-10T15:28:17Z</time>
      </trkpt>
      <trkpt lat="44.48752" lon="1.84133">
        <ele>158</ele>
        <time>2022-04-10T15:28:18Z</time>
      </trkpt>
      <trkpt lat="44.48745" lon="1.84138">
        <ele>157.4</ele>
        <time>2022-04-10T15:28:19Z</time>
      </trkpt>
      <trkpt lat="44.48738" lon="1.84143">
        <ele>156.9</ele>
        <time>2022-04-10T15:28:20Z</time>
      </trkpt>
      <trkpt lat="44.48731" lon="1.84149">
        <ele>156.3</ele>
        <time>2022-04-10T15:28:21Z</time>
      </trkpt>
      <trkpt lat="44.48723" lon="1.84155">
        <ele>155.8</ele>
        <time>2022-04-10T15:28:22Z</time>
      </trkpt>
      <trkpt lat="44.48716" lon="1.84161">
        <ele>155.4</ele>
        <time>2022-04-10T15:28:23Z</time>
      </trkpt>
      <trkpt lat="44.48708" lon="1.84167">
        <ele>155</ele>
        <time>2022-04-10T15:28:24Z</time>
      </trkpt>
      <trkpt lat="44.48702" lon="1.84172">
        <ele>154.8</ele>
        <time>2022-04-10T15:28:25Z</time>
      </trkpt>
      <trkpt lat="44.48695" lon="1.84176">
        <ele>154.6</ele>
        <time>2022-04-10T15:28:26Z</time>
      </trkpt>
      <trkpt lat="44.48689" lon="1.8418">
        <ele>154.5</ele>
        <time>2022-04-10T15:28:27Z</time>
      </trkpt>
      <trkpt lat="44.48683" lon="1.84185">
        <ele>154.4</ele>
        <time>2022-04-10T15:28:28Z</time>
      </trkpt>
      <trkpt lat="44.48678" lon="1.84188">
        <ele>154.3</ele>
        <time>2022-04-10T15:28:29Z</time>
      </trkpt>
      <trkpt lat="44.48675" lon="1.8419">
        <ele>154.3</ele>
        <time>2022-04-10T15:28:30Z</time>
      </trkpt>
      <trkpt lat="44.48674" lon="1.8419">
        <ele>154.3</ele>
        <time>2022-04-10T15:28:31Z</time>
      </trkpt>
      <trkpt lat="44.48672" lon="1.84193">
        <ele>154.3</ele>
        <time>2022-04-10T15:28:32Z</time>
      </trkpt>
      <trkpt lat="44.48672" lon="1.84194">
        <ele>154.3</ele>
        <time>2022-04-10T15:28:33Z</time>
      </trkpt>
      <trkpt lat="44.48671" lon="1.84196">
        <ele>154.3</ele>
        <time>2022-04-10T15:28:34Z</time>
      </trkpt>
      <trkpt lat="44.4867" lon="1.84198">
        <ele>154.3</ele>
        <time>2022-04-10T15:28:35Z</time>
      </trkpt>
      <trkpt lat="44.48669" lon="1.84199">
        <ele>154.3</ele>
        <time>2022-04-10T15:28:36Z</time>
      </trkpt>
      <trkpt lat="44.48668" lon="1.842">
        <ele>154.3</ele>
        <time>2022-04-10T15:28:37Z</time>
      </trkpt>
      <trkpt lat="44.48667" lon="1.842">
        <ele>154.3</ele>
        <time>2022-04-10T15:28:38Z</time>
      </trkpt>
      <trkpt lat="44.48665" lon="1.84199">
        <ele>154.3</ele>
        <time>2022-04-10T15:28:39Z</time>
      </trkpt>
      <trkpt lat="44.48664" lon="1.84198">
        <ele>153.3</ele>
        <time>2022-04-10T15:28:40Z</time>
      </trkpt>
      <trkpt lat="44.48661" lon="1.84197">
        <ele>153.3</ele>
        <time>2022-04-10T15:28:41Z</time>
      </trkpt>
      <trkpt lat="44.4866" lon="1.84197">
        <ele>153.3</ele>
        <time>2022-04-10T15:28:42Z</time>
      </trkpt>
      <trkpt lat="44.48657" lon="1.84197">
        <ele>153.4</ele>
        <time>2022-04-10T15:28:43Z</time>
      </trkpt>
      <trkpt lat="44.48656" lon="1.84197">
        <ele>153.4</ele>
        <time>2022-04-10T15:28:44Z</time>
      </trkpt>
      <trkpt lat="44.48653" lon="1.842">
        <ele>153.4</ele>
        <time>2022-04-10T15:28:45Z</time>
      </trkpt>
      <trkpt lat="44.48652" lon="1.842">
        <ele>153.4</ele>
        <time>2022-04-10T15:28:46Z</time>
      </trkpt>
      <trkpt lat="44.4865" lon="1.84202">
        <ele>153.4</ele>
        <time>2022-04-10T15:28:47Z</time>
      </trkpt>
      <trkpt lat="44.48649" lon="1.84204">
        <ele>153.5</ele>
        <time>2022-04-10T15:28:48Z</time>
      </trkpt>
      <trkpt lat="44.48649" lon="1.84206">
        <ele>154.7</ele>
        <time>2022-04-10T15:28:49Z</time>
      </trkpt>
      <trkpt lat="44.48649" lon="1.84208">
        <ele>155</ele>
        <time>2022-04-10T15:28:50Z</time>
      </trkpt>
      <trkpt lat="44.48648" lon="1.8421">
        <ele>155</ele>
        <time>2022-04-10T15:28:51Z</time>
      </trkpt>
      <trkpt lat="44.48646" lon="1.84211">
        <ele>155</ele>
        <time>2022-04-10T15:28:52Z</time>
      </trkpt>
      <trkpt lat="44.48645" lon="1.84213">
        <ele>155</ele>
        <time>2022-04-10T15:28:53Z</time>
      </trkpt>
      <trkpt lat="44.48644" lon="1.84214">
        <ele>155</ele>
        <time>2022-04-10T15:28:54Z</time>
      </trkpt>
      <trkpt lat="44.48643" lon="1.84215">
        <ele>155</ele>
        <time>2022-04-10T15:28:55Z</time>
      </trkpt>
      <trkpt lat="44.48642" lon="1.84215">
        <ele>155</ele>
        <time>2022-04-10T15:28:56Z</time>
      </trkpt>
      <trkpt lat="44.48641" lon="1.84217">
        <ele>155.4</ele>
        <time>2022-04-10T15:28:57Z</time>
      </trkpt>
      <trkpt lat="44.48639" lon="1.84218">
        <ele>155.5</ele>
        <time>2022-04-10T15:28:58Z</time>
      </trkpt>
      <trkpt lat="44.48636" lon="1.8422">
        <ele>155.6</ele>
        <time>2022-04-10T15:28:59Z</time>
      </trkpt>
      <trkpt lat="44.48633" lon="1.84222">
        <ele>155.7</ele>
        <time>2022-04-10T15:29:00Z</time>
      </trkpt>
      <trkpt lat="44.48631" lon="1.84223">
        <ele>156.3</ele>
        <time>2022-04-10T15:29:01Z</time>
      </trkpt>
      <trkpt lat="44.48629" lon="1.84224">
        <ele>156.5</ele>
        <time>2022-04-10T15:29:02Z</time>
      </trkpt>
      <trkpt lat="44.48628" lon="1.84224">
        <ele>156.6</ele>
        <time>2022-04-10T15:29:03Z</time>
      </trkpt>
      <trkpt lat="44.48627" lon="1.84225">
        <ele>156.7</ele>
        <time>2022-04-10T15:29:04Z</time>
      </trkpt>
      <trkpt lat="44.48627" lon="1.84225">
        <ele>156.7</ele>
        <time>2022-04-10T15:29:05Z</time>
      </trkpt>
      <trkpt lat="44.48626" lon="1.84226">
        <ele>156.7</ele>
        <time>2022-04-10T15:29:06Z</time>
      </trkpt>
      <trkpt lat="44.48626" lon="1.84226">
        <ele>156.7</ele>
        <time>2022-04-10T15:29:07Z</time>
      </trkpt>
      <trkpt lat="44.48626" lon="1.84226">
        <ele>156.8</ele>
        <time>2022-04-10T15:29:08Z</time>
      </trkpt>
      <trkpt lat="44.48625" lon="1.84226">
        <ele>156.8</ele>
        <time>2022-04-10T15:29:09Z</time>
      </trkpt>
      <trkpt lat="44.48625" lon="1.84227">
        <ele>156.8</ele>
        <time>2022-04-10T15:29:10Z</time>
      </trkpt>
      <trkpt lat="44.48625" lon="1.84227">
        <ele>156.9</ele>
        <time>2022-04-10T15:29:11Z</time>
      </trkpt>
      <trkpt lat="44.48624" lon="1.84227">
        <ele>156.9</ele>
        <time>2022-04-10T15:29:12Z</time>
      </trkpt>
      <trkpt lat="44.48624" lon="1.84227">
        <ele>156.9</ele>
        <time>2022-04-10T15:29:13Z</time>
      </trkpt>
      <trkpt lat="44.48624" lon="1.84228">
        <ele>156.9</ele>
        <time>2022-04-10T15:29:14Z</time>
      </trkpt>
      <trkpt lat="44.48619" lon="1.8423">
        <ele>157.2</ele>
        <time>2022-04-10T15:29:15Z</time>
      </trkpt>
      <trkpt lat="44.48616" lon="1.84232">
        <ele>157.6</ele>
        <time>2022-04-10T15:29:16Z</time>
      </trkpt>
      <trkpt lat="44.48613" lon="1.84234">
        <ele>157.9</ele>
        <time>2022-04-10T15:29:17Z</time>
      </trkpt>
      <trkpt lat="44.48609" lon="1.84236">
        <ele>158.3</ele>
        <time>2022-04-10T15:29:18Z</time>
      </trkpt>
      <trkpt lat="44.48605" lon="1.84238">
        <ele>158.7</ele>
        <time>2022-04-10T15:29:19Z</time>
      </trkpt>
      <trkpt lat="44.48601" lon="1.8424">
        <ele>159</ele>
        <time>2022-04-10T15:29:20Z</time>
      </trkpt>
      <trkpt lat="44.48597" lon="1.84242">
        <ele>159.3</ele>
        <time>2022-04-10T15:29:21Z</time>
      </trkpt>
      <trkpt lat="44.48593" lon="1.84244">
        <ele>159.6</ele>
        <time>2022-04-10T15:29:22Z</time>
      </trkpt>
      <trkpt lat="44.48589" lon="1.84247">
        <ele>159.8</ele>
        <time>2022-04-10T15:29:23Z</time>
      </trkpt>
      <trkpt lat="44.48586" lon="1.84249">
        <ele>160</ele>
        <time>2022-04-10T15:29:24Z</time>
      </trkpt>
      <trkpt lat="44.48582" lon="1.84252">
        <ele>160</ele>
        <time>2022-04-10T15:29:25Z</time>
      </trkpt>
      <trkpt lat="44.48577" lon="1.84254">
        <ele>160.1</ele>
        <time>2022-04-10T15:29:26Z</time>
      </trkpt>
      <trkpt lat="44.48571" lon="1.84256">
        <ele>160</ele>
        <time>2022-04-10T15:29:27Z</time>
      </trkpt>
      <trkpt lat="44.48565" lon="1.84257">
        <ele>159.8</ele>
        <time>2022-04-10T15:29:28Z</time>
      </trkpt>
      <trkpt lat="44.48559" lon="1.84257">
        <ele>159.6</ele>
        <time>2022-04-10T15:29:29Z</time>
      </trkpt>
      <trkpt lat="44.48553" lon="1.84259">
        <ele>159.4</ele>
        <time>2022-04-10T15:29:30Z</time>
      </trkpt>
      <trkpt lat="44.48549" lon="1.84261">
        <ele>159.2</ele>
        <time>2022-04-10T15:29:31Z</time>
      </trkpt>
      <trkpt lat="44.48547" lon="1.84264">
        <ele>159.1</ele>
        <time>2022-04-10T15:29:32Z</time>
      </trkpt>
      <trkpt lat="44.48544" lon="1.84266">
        <ele>159</ele>
        <time>2022-04-10T15:29:33Z</time>
      </trkpt>
      <trkpt lat="44.48541" lon="1.84268">
        <ele>158.8</ele>
        <time>2022-04-10T15:29:34Z</time>
      </trkpt>
      <trkpt lat="44.4854" lon="1.84269">
        <ele>158.7</ele>
        <time>2022-04-10T15:29:35Z</time>
      </trkpt>
      <trkpt lat="44.48536" lon="1.8427">
        <ele>158.4</ele>
        <time>2022-04-10T15:29:36Z</time>
      </trkpt>
      <trkpt lat="44.48535" lon="1.84271">
        <ele>158.4</ele>
        <time>2022-04-10T15:29:37Z</time>
      </trkpt>
      <trkpt lat="44.48532" lon="1.84273">
        <ele>158.1</ele>
        <time>2022-04-10T15:29:38Z</time>
      </trkpt>
      <trkpt lat="44.4853" lon="1.84277">
        <ele>157.7</ele>
        <time>2022-04-10T15:29:39Z</time>
      </trkpt>
      <trkpt lat="44.48529" lon="1.84278">
        <ele>157.6</ele>
        <time>2022-04-10T15:29:40Z</time>
      </trkpt>
      <trkpt lat="44.48529" lon="1.8428">
        <ele>157.4</ele>
        <time>2022-04-10T15:29:41Z</time>
      </trkpt>
      <trkpt lat="44.48529" lon="1.84281">
        <ele>157.3</ele>
        <time>2022-04-10T15:29:42Z</time>
      </trkpt>
      <trkpt lat="44.48528" lon="1.84282">
        <ele>157.2</ele>
        <time>2022-04-10T15:29:43Z</time>
      </trkpt>
      <trkpt lat="44.48528" lon="1.84286">
        <ele>157</ele>
        <time>2022-04-10T15:29:44Z</time>
      </trkpt>
      <trkpt lat="44.4853" lon="1.84294">
        <ele>156.9</ele>
        <time>2022-04-10T15:29:45Z</time>
      </trkpt>
      <trkpt lat="44.48531" lon="1.84301">
        <ele>157</ele>
        <time>2022-04-10T15:29:46Z</time>
      </trkpt>
      <trkpt lat="44.48531" lon="1.84309">
        <ele>157.2</ele>
        <time>2022-04-10T15:29:47Z</time>
      </trkpt>
      <trkpt lat="44.48531" lon="1.84315">
        <ele>157.3</ele>
        <time>2022-04-10T15:29:48Z</time>
      </trkpt>
      <trkpt lat="44.48532" lon="1.8432">
        <ele>157.2</ele>
        <time>2022-04-10T15:29:49Z</time>
      </trkpt>
      <trkpt lat="44.48533" lon="1.84324">
        <ele>157.1</ele>
        <time>2022-04-10T15:29:50Z</time>
      </trkpt>
      <trkpt lat="44.48533" lon="1.84328">
        <ele>157.1</ele>
        <time>2022-04-10T15:29:51Z</time>
      </trkpt>
      <trkpt lat="44.48533" lon="1.8433">
        <ele>157.1</ele>
        <time>2022-04-10T15:29:52Z</time>
      </trkpt>
      <trkpt lat="44.48532" lon="1.84331">
        <ele>157.1</ele>
        <time>2022-04-10T15:29:53Z</time>
      </trkpt>
      <trkpt lat="44.48532" lon="1.84332">
        <ele>157</ele>
        <time>2022-04-10T15:29:54Z</time>
      </trkpt>
      <trkpt lat="44.48532" lon="1.84333">
        <ele>157</ele>
        <time>2022-04-10T15:29:55Z</time>
      </trkpt>
      <trkpt lat="44.48531" lon="1.84333">
        <ele>157</ele>
        <time>2022-04-10T15:29:56Z</time>
      </trkpt>
      <trkpt lat="44.48531" lon="1.84336">
        <ele>157</ele>
        <time>2022-04-10T15:29:57Z</time>
      </trkpt>
      <trkpt lat="44.48532" lon="1.84338">
        <ele>157</ele>
        <time>2022-04-10T15:29:58Z</time>
      </trkpt>
      <trkpt lat="44.48532" lon="1.8434">
        <ele>156.9</ele>
        <time>2022-04-10T15:29:59Z</time>
      </trkpt>
      <trkpt lat="44.48531" lon="1.84345">
        <ele>156.9</ele>
        <time>2022-04-10T15:30:00Z</time>
      </trkpt>
      <trkpt lat="44.48531" lon="1.84347">
        <ele>156.9</ele>
        <time>2022-04-10T15:30:01Z</time>
      </trkpt>
      <trkpt lat="44.48529" lon="1.8435">
        <ele>156.8</ele>
        <time>2022-04-10T15:30:02Z</time>
      </trkpt>
      <trkpt lat="44.48529" lon="1.84357">
        <ele>156.8</ele>
        <time>2022-04-10T15:30:03Z</time>
      </trkpt>
      <trkpt lat="44.48529" lon="1.84364">
        <ele>156.7</ele>
        <time>2022-04-10T15:30:04Z</time>
      </trkpt>
      <trkpt lat="44.48528" lon="1.84368">
        <ele>156.4</ele>
        <time>2022-04-10T15:30:05Z</time>
      </trkpt>
      <trkpt lat="44.48529" lon="1.8437">
        <ele>156.2</ele>
        <time>2022-04-10T15:30:06Z</time>
      </trkpt>
      <trkpt lat="44.48529" lon="1.8437">
        <ele>156.2</ele>
        <time>2022-04-10T15:30:07Z</time>
      </trkpt>
      <trkpt lat="44.48529" lon="1.84371">
        <ele>156.1</ele>
        <time>2022-04-10T15:30:08Z</time>
      </trkpt>
      <trkpt lat="44.48529" lon="1.84372">
        <ele>156</ele>
        <time>2022-04-10T15:30:09Z</time>
      </trkpt>
      <trkpt lat="44.48529" lon="1.84372">
        <ele>156</ele>
        <time>2022-04-10T15:30:10Z</time>
      </trkpt>
      <trkpt lat="44.48529" lon="1.84373">
        <ele>155.9</ele>
        <time>2022-04-10T15:30:11Z</time>
      </trkpt>
      <trkpt lat="44.48529" lon="1.84374">
        <ele>155.8</ele>
        <time>2022-04-10T15:30:12Z</time>
      </trkpt>
      <trkpt lat="44.48528" lon="1.8438">
        <ele>155.3</ele>
        <time>2022-04-10T15:30:13Z</time>
      </trkpt>
      <trkpt lat="44.48525" lon="1.84383">
        <ele>154.5</ele>
        <time>2022-04-10T15:30:14Z</time>
      </trkpt>
      <trkpt lat="44.48521" lon="1.84383">
        <ele>154.5</ele>
        <time>2022-04-10T15:30:15Z</time>
      </trkpt>
      <trkpt lat="44.48516" lon="1.84382">
        <ele>154.5</ele>
        <time>2022-04-10T15:30:16Z</time>
      </trkpt>
      <trkpt lat="44.48509" lon="1.8438">
        <ele>154.5</ele>
        <time>2022-04-10T15:30:17Z</time>
      </trkpt>
      <trkpt lat="44.48503" lon="1.84376">
        <ele>154.5</ele>
        <time>2022-04-10T15:30:18Z</time>
      </trkpt>
      <trkpt lat="44.48498" lon="1.84372">
        <ele>154.5</ele>
        <time>2022-04-10T15:30:19Z</time>
      </trkpt>
      <trkpt lat="44.48493" lon="1.84367">
        <ele>154.5</ele>
        <time>2022-04-10T15:30:20Z</time>
      </trkpt>
      <trkpt lat="44.48489" lon="1.84362">
        <ele>154.5</ele>
        <time>2022-04-10T15:30:21Z</time>
      </trkpt>
      <trkpt lat="44.48483" lon="1.84359">
        <ele>154.5</ele>
        <time>2022-04-10T15:30:22Z</time>
      </trkpt>
      <trkpt lat="44.48478" lon="1.84358">
        <ele>154.5</ele>
        <time>2022-04-10T15:30:23Z</time>
      </trkpt>
      <trkpt lat="44.48472" lon="1.84361">
        <ele>154.5</ele>
        <time>2022-04-10T15:30:24Z</time>
      </trkpt>
      <trkpt lat="44.48465" lon="1.84364">
        <ele>154.6</ele>
        <time>2022-04-10T15:30:25Z</time>
      </trkpt>
      <trkpt lat="44.48459" lon="1.84368">
        <ele>154.6</ele>
        <time>2022-04-10T15:30:26Z</time>
      </trkpt>
      <trkpt lat="44.48453" lon="1.84371">
        <ele>154.6</ele>
        <time>2022-04-10T15:30:27Z</time>
      </trkpt>
      <trkpt lat="44.48448" lon="1.84374">
        <ele>154.6</ele>
        <time>2022-04-10T15:30:28Z</time>
      </trkpt>
      <trkpt lat="44.48442" lon="1.84376">
        <ele>154.6</ele>
        <time>2022-04-10T15:30:29Z</time>
      </trkpt>
      <trkpt lat="44.48436" lon="1.8438">
        <ele>154.6</ele>
        <time>2022-04-10T15:30:30Z</time>
      </trkpt>
      <trkpt lat="44.4843" lon="1.84382">
        <ele>154.7</ele>
        <time>2022-04-10T15:30:31Z</time>
      </trkpt>
      <trkpt lat="44.48425" lon="1.84385">
        <ele>154.7</ele>
        <time>2022-04-10T15:30:32Z</time>
      </trkpt>
      <trkpt lat="44.48421" lon="1.84388">
        <ele>154.7</ele>
        <time>2022-04-10T15:30:33Z</time>
      </trkpt>
      <trkpt lat="44.48417" lon="1.84385">
        <ele>154.4</ele>
        <time>2022-04-10T15:30:34Z</time>
      </trkpt>
      <trkpt lat="44.48416" lon="1.84383">
        <ele>154.3</ele>
        <time>2022-04-10T15:30:35Z</time>
      </trkpt>
      <trkpt lat="44.48413" lon="1.84375">
        <ele>153.8</ele>
        <time>2022-04-10T15:30:36Z</time>
      </trkpt>
      <trkpt lat="44.48412" lon="1.84365">
        <ele>153.4</ele>
        <time>2022-04-10T15:30:37Z</time>
      </trkpt>
      <trkpt lat="44.48412" lon="1.84355">
        <ele>153.3</ele>
        <time>2022-04-10T15:30:38Z</time>
      </trkpt>
      <trkpt lat="44.48412" lon="1.84348">
        <ele>153.2</ele>
        <time>2022-04-10T15:30:39Z</time>
      </trkpt>
      <trkpt lat="44.48412" lon="1.84344">
        <ele>153.1</ele>
        <time>2022-04-10T15:30:40Z</time>
      </trkpt>
      <trkpt lat="44.48413" lon="1.8434">
        <ele>153</ele>
        <time>2022-04-10T15:30:42Z</time>
      </trkpt>
      <trkpt lat="44.48412" lon="1.84337">
        <ele>152.8</ele>
        <time>2022-04-10T15:30:43Z</time>
      </trkpt>
      <trkpt lat="44.48409" lon="1.84333">
        <ele>152.6</ele>
        <time>2022-04-10T15:30:44Z</time>
      </trkpt>
      <trkpt lat="44.48406" lon="1.84333">
        <ele>152.5</ele>
        <time>2022-04-10T15:30:45Z</time>
      </trkpt>
      <trkpt lat="44.48402" lon="1.84335">
        <ele>152.2</ele>
        <time>2022-04-10T15:30:46Z</time>
      </trkpt>
      <trkpt lat="44.48396" lon="1.84338">
        <ele>151.9</ele>
        <time>2022-04-10T15:30:47Z</time>
      </trkpt>
      <trkpt lat="44.48391" lon="1.8434">
        <ele>151.7</ele>
        <time>2022-04-10T15:30:48Z</time>
      </trkpt>
      <trkpt lat="44.48385" lon="1.84341">
        <ele>151.5</ele>
        <time>2022-04-10T15:30:49Z</time>
      </trkpt>
      <trkpt lat="44.4838" lon="1.84344">
        <ele>151.3</ele>
        <time>2022-04-10T15:30:50Z</time>
      </trkpt>
      <trkpt lat="44.48374" lon="1.84346">
        <ele>151.1</ele>
        <time>2022-04-10T15:30:51Z</time>
      </trkpt>
      <trkpt lat="44.48369" lon="1.8435">
        <ele>150.9</ele>
        <time>2022-04-10T15:30:52Z</time>
      </trkpt>
      <trkpt lat="44.48364" lon="1.84353">
        <ele>150.7</ele>
        <time>2022-04-10T15:30:53Z</time>
      </trkpt>
      <trkpt lat="44.48358" lon="1.84356">
        <ele>150.5</ele>
        <time>2022-04-10T15:30:54Z</time>
      </trkpt>
      <trkpt lat="44.48352" lon="1.84359">
        <ele>150.3</ele>
        <time>2022-04-10T15:30:55Z</time>
      </trkpt>
      <trkpt lat="44.48346" lon="1.84363">
        <ele>150.1</ele>
        <time>2022-04-10T15:30:56Z</time>
      </trkpt>
      <trkpt lat="44.48341" lon="1.84367">
        <ele>149.9</ele>
        <time>2022-04-10T15:30:57Z</time>
      </trkpt>
      <trkpt lat="44.48338" lon="1.84372">
        <ele>149.8</ele>
        <time>2022-04-10T15:30:58Z</time>
      </trkpt>
      <trkpt lat="44.48337" lon="1.84379">
        <ele>149.7</ele>
        <time>2022-04-10T15:30:59Z</time>
      </trkpt>
      <trkpt lat="44.48339" lon="1.84385">
        <ele>149.7</ele>
        <time>2022-04-10T15:31:00Z</time>
      </trkpt>
      <trkpt lat="44.48343" lon="1.84391">
        <ele>149.7</ele>
        <time>2022-04-10T15:31:01Z</time>
      </trkpt>
      <trkpt lat="44.48346" lon="1.84396">
        <ele>149.8</ele>
        <time>2022-04-10T15:31:02Z</time>
      </trkpt>
      <trkpt lat="44.48349" lon="1.84402">
        <ele>149.8</ele>
        <time>2022-04-10T15:31:03Z</time>
      </trkpt>
      <trkpt lat="44.48351" lon="1.84408">
        <ele>150</ele>
        <time>2022-04-10T15:31:04Z</time>
      </trkpt>
      <trkpt lat="44.48353" lon="1.84414">
        <ele>150.1</ele>
        <time>2022-04-10T15:31:05Z</time>
      </trkpt>
      <trkpt lat="44.48355" lon="1.84419">
        <ele>150.2</ele>
        <time>2022-04-10T15:31:06Z</time>
      </trkpt>
      <trkpt lat="44.48356" lon="1.84426">
        <ele>150.3</ele>
        <time>2022-04-10T15:31:07Z</time>
      </trkpt>
      <trkpt lat="44.48358" lon="1.84432">
        <ele>150.4</ele>
        <time>2022-04-10T15:31:08Z</time>
      </trkpt>
      <trkpt lat="44.48359" lon="1.84439">
        <ele>150.5</ele>
        <time>2022-04-10T15:31:09Z</time>
      </trkpt>
      <trkpt lat="44.48359" lon="1.84447">
        <ele>150.6</ele>
        <time>2022-04-10T15:31:10Z</time>
      </trkpt>
      <trkpt lat="44.48359" lon="1.84454">
        <ele>150.7</ele>
        <time>2022-04-10T15:31:11Z</time>
      </trkpt>
      <trkpt lat="44.48359" lon="1.84462">
        <ele>150.7</ele>
        <time>2022-04-10T15:31:12Z</time>
      </trkpt>
      <trkpt lat="44.48359" lon="1.8447">
        <ele>150.8</ele>
        <time>2022-04-10T15:31:13Z</time>
      </trkpt>
      <trkpt lat="44.48359" lon="1.84478">
        <ele>150.8</ele>
        <time>2022-04-10T15:31:14Z</time>
      </trkpt>
      <trkpt lat="44.48359" lon="1.84485">
        <ele>150.8</ele>
        <time>2022-04-10T15:31:15Z</time>
      </trkpt>
      <trkpt lat="44.4836" lon="1.84493">
        <ele>150.9</ele>
        <time>2022-04-10T15:31:16Z</time>
      </trkpt>
      <trkpt lat="44.4836" lon="1.845">
        <ele>150.9</ele>
        <time>2022-04-10T15:31:17Z</time>
      </trkpt>
      <trkpt lat="44.48362" lon="1.84505">
        <ele>150.9</ele>
        <time>2022-04-10T15:31:18Z</time>
      </trkpt>
      <trkpt lat="44.48364" lon="1.84508">
        <ele>150.9</ele>
        <time>2022-04-10T15:31:19Z</time>
      </trkpt>
      <trkpt lat="44.48367" lon="1.84508">
        <ele>150.9</ele>
        <time>2022-04-10T15:31:20Z</time>
      </trkpt>
      <trkpt lat="44.4837" lon="1.84505">
        <ele>150.9</ele>
        <time>2022-04-10T15:31:21Z</time>
      </trkpt>
      <trkpt lat="44.48371" lon="1.845">
        <ele>150.9</ele>
        <time>2022-04-10T15:31:22Z</time>
      </trkpt>
      <trkpt lat="44.4837" lon="1.84495">
        <ele>150.9</ele>
        <time>2022-04-10T15:31:23Z</time>
      </trkpt>
      <trkpt lat="44.48368" lon="1.84489">
        <ele>150.8</ele>
        <time>2022-04-10T15:31:24Z</time>
      </trkpt>
      <trkpt lat="44.48367" lon="1.84485">
        <ele>150.8</ele>
        <time>2022-04-10T15:31:25Z</time>
      </trkpt>
      <trkpt lat="44.48367" lon="1.84482">
        <ele>150.8</ele>
        <time>2022-04-10T15:31:26Z</time>
      </trkpt>
      <trkpt lat="44.48365" lon="1.84475">
        <ele>150.8</ele>
        <time>2022-04-10T15:31:28Z</time>
      </trkpt>
      <trkpt lat="44.48362" lon="1.84468">
        <ele>150.7</ele>
        <time>2022-04-10T15:31:29Z</time>
      </trkpt>
      <trkpt lat="44.4836" lon="1.84456">
        <ele>150.7</ele>
        <time>2022-04-10T15:31:30Z</time>
      </trkpt>
      <trkpt lat="44.48358" lon="1.84449">
        <ele>150.6</ele>
        <time>2022-04-10T15:31:31Z</time>
      </trkpt>
      <trkpt lat="44.48356" lon="1.84444">
        <ele>150.6</ele>
        <time>2022-04-10T15:31:32Z</time>
      </trkpt>
      <trkpt lat="44.48353" lon="1.84444">
        <ele>150.5</ele>
        <time>2022-04-10T15:31:33Z</time>
      </trkpt>
      <trkpt lat="44.48343" lon="1.84436">
        <ele>150.3</ele>
        <time>2022-04-10T15:31:35Z</time>
      </trkpt>
      <trkpt lat="44.48339" lon="1.84433">
        <ele>150.2</ele>
        <time>2022-04-10T15:31:36Z</time>
      </trkpt>
      <trkpt lat="44.48337" lon="1.84428">
        <ele>150.2</ele>
        <time>2022-04-10T15:31:38Z</time>
      </trkpt>
      <trkpt lat="44.48335" lon="1.84424">
        <ele>150.1</ele>
        <time>2022-04-10T15:31:39Z</time>
      </trkpt>
      <trkpt lat="44.48337" lon="1.8442">
        <ele>150</ele>
        <time>2022-04-10T15:31:40Z</time>
      </trkpt>
      <trkpt lat="44.48338" lon="1.84416">
        <ele>150</ele>
        <time>2022-04-10T15:31:41Z</time>
      </trkpt>
      <trkpt lat="44.48339" lon="1.84411">
        <ele>149.9</ele>
        <time>2022-04-10T15:31:42Z</time>
      </trkpt>
      <trkpt lat="44.4834" lon="1.84404">
        <ele>149.8</ele>
        <time>2022-04-10T15:31:43Z</time>
      </trkpt>
      <trkpt lat="44.48341" lon="1.84398">
        <ele>149.8</ele>
        <time>2022-04-10T15:31:44Z</time>
      </trkpt>
      <trkpt lat="44.48341" lon="1.84393">
        <ele>149.7</ele>
        <time>2022-04-10T15:31:45Z</time>
      </trkpt>
      <trkpt lat="44.4834" lon="1.84388">
        <ele>149.7</ele>
        <time>2022-04-10T15:31:46Z</time>
      </trkpt>
      <trkpt lat="44.48339" lon="1.84383">
        <ele>149.7</ele>
        <time>2022-04-10T15:31:47Z</time>
      </trkpt>
      <trkpt lat="44.48338" lon="1.84378">
        <ele>149.7</ele>
        <time>2022-04-10T15:31:48Z</time>
      </trkpt>
      <trkpt lat="44.48336" lon="1.84374">
        <ele>149.7</ele>
        <time>2022-04-10T15:31:49Z</time>
      </trkpt>
      <trkpt lat="44.48335" lon="1.84369">
        <ele>149.7</ele>
        <time>2022-04-10T15:31:50Z</time>
      </trkpt>
      <trkpt lat="44.48335" lon="1.84368">
        <ele>149.7</ele>
        <time>2022-04-10T15:31:51Z</time>
      </trkpt>
      <trkpt lat="44.48331" lon="1.84367">
        <ele>149.7</ele>
        <time>2022-04-10T15:31:53Z</time>
      </trkpt>
      <trkpt lat="44.48331" lon="1.84365">
        <ele>149.7</ele>
        <time>2022-04-10T15:31:54Z</time>
      </trkpt>
      <trkpt lat="44.48332" lon="1.84365">
        <ele>149.7</ele>
        <time>2022-04-10T15:31:55Z</time>
      </trkpt>
      <trkpt lat="44.48332" lon="1.84366">
        <ele>149.7</ele>
        <time>2022-04-10T15:31:57Z</time>
      </trkpt>
      <trkpt lat="44.48332" lon="1.84366">
        <ele>149.7</ele>
        <time>2022-04-10T15:31:58Z</time>
      </trkpt>
      <trkpt lat="44.48332" lon="1.84366">
        <ele>149.7</ele>
        <time>2022-04-10T15:31:59Z</time>
      </trkpt>
      <trkpt lat="44.48332" lon="1.84366">
        <ele>149.7</ele>
        <time>2022-04-10T15:32:00Z</time>
      </trkpt>
      <trkpt lat="44.48332" lon="1.84366">
        <ele>149.7</ele>
        <time>2022-04-10T15:32:01Z</time>
      </trkpt>
      <trkpt lat="44.48332" lon="1.84366">
        <ele>149.7</ele>
        <time>2022-04-10T15:32:02Z</time>
      </trkpt>
      <trkpt lat="44.48332" lon="1.84366">
        <ele>149.7</ele>
        <time>2022-04-10T15:32:03Z</time>
      </trkpt>
    </trkseg>
  </trk>
</gpx>